<?xml version='1.0' encoding='UTF-8'?><gpx version="1.1" creator="JPX - https://github.com/jenetics/jpx" xmlns="http://www.topografix.com/GPX/1/1"><trk><trkseg><trkpt lat="41.77744967033756" lon="12.23202372361861"><ele>1.9999999999999998</ele><time>2026-04-27T06:10:22.001Z</time></trkpt><trkpt lat="41.77737230515786" lon="12.23209328225637"><ele>2.0</ele><time>2026-04-27T06:11:12.001Z</time></trkpt><trkpt lat="41.77726660806943" lon="12.232111300680199"><ele>2.0</ele><time>2026-04-27T06:11:14.001Z</time></trkpt><trkpt lat="41.777196035906634" lon="12.232104227263083"><ele>2.0</ele><time>2026-04-27T06:11:17.001Z</time></trkpt><trkpt lat="41.77713338449246" lon="12.232142683524579"><ele>1.9999999999999998</ele><time>2026-04-27T06:11:19.001Z</time></trkpt><trkpt lat="41.77704350568218" lon="12.232131031821678"><ele>2.0</ele><time>2026-04-27T06:11:21.001Z</time></trkpt><trkpt lat="41.776939921291124" lon="12.232148240817487"><ele>1.8333333333333333</ele><time>2026-04-27T06:11:23Z</time></trkpt><trkpt lat="41.77681752502657" lon="12.23216008116725"><ele>1.6666666666666665</ele><time>2026-04-27T06:11:25Z</time></trkpt><trkpt lat="41.77674274887075" lon="12.232169092472276"><ele>1.5</ele><time>2026-04-27T06:11:26Z</time></trkpt><trkpt lat="41.77666601103195" lon="12.232177492451783"><ele>1.3333333333333333</ele><time>2026-04-27T06:11:27Z</time></trkpt><trkpt lat="41.77658689544347" lon="12.23219888319959"><ele>1.1666666666666665</ele><time>2026-04-27T06:11:28Z</time></trkpt><trkpt lat="41.77650194120887" lon="12.232213042763734"><ele>1.0</ele><time>2026-04-27T06:11:29Z</time></trkpt><trkpt lat="41.77641539393034" lon="12.232222273160364"><ele>0.9999999999999999</ele><time>2026-04-27T06:11:30Z</time></trkpt><trkpt lat="41.77632835840874" lon="12.232227342296035"><ele>1.0</ele><time>2026-04-27T06:11:31Z</time></trkpt><trkpt lat="41.77624369935703" lon="12.232234153034419"><ele>1.0</ele><time>2026-04-27T06:11:32Z</time></trkpt><trkpt lat="41.77616023927438" lon="12.232249750388528"><ele>1.0</ele><time>2026-04-27T06:11:33Z</time></trkpt><trkpt lat="41.7760803792599" lon="12.232262412585797"><ele>0.9999999999999999</ele><time>2026-04-27T06:11:34.001Z</time></trkpt><trkpt lat="41.776001128967785" lon="12.232273523982517"><ele>1.0</ele><time>2026-04-27T06:11:35.001Z</time></trkpt><trkpt lat="41.775929113600974" lon="12.232283378873142"><ele>0.9999999999999999</ele><time>2026-04-27T06:11:36.001Z</time></trkpt><trkpt lat="41.7758571305992" lon="12.232291863404772"><ele>1.0</ele><time>2026-04-27T06:11:37.001Z</time></trkpt><trkpt lat="41.77577623999985" lon="12.232306907659872"><ele>1.0</ele><time>2026-04-27T06:11:38.001Z</time></trkpt><trkpt lat="41.77571331232107" lon="12.232316883915395"><ele>1.0</ele><time>2026-04-27T06:11:39.001Z</time></trkpt><trkpt lat="41.77564301640409" lon="12.232327011776041"><ele>0.9999999999999999</ele><time>2026-04-27T06:11:40.001Z</time></trkpt><trkpt lat="41.77553531543777" lon="12.232366506757346"><ele>1.0</ele><time>2026-04-27T06:11:42.001Z</time></trkpt><trkpt lat="41.77542198431675" lon="12.232357184418273"><ele>0.9999999999999999</ele><time>2026-04-27T06:11:44.001Z</time></trkpt><trkpt lat="41.77533103745186" lon="12.232361502629109"><ele>1.0</ele><time>2026-04-27T06:11:46.001Z</time></trkpt><trkpt lat="41.775241637897665" lon="12.232367722154038"><ele>1.0</ele><time>2026-04-27T06:11:48.001Z</time></trkpt><trkpt lat="41.77515542676119" lon="12.232387883684803"><ele>1.0</ele><time>2026-04-27T06:11:50.001Z</time></trkpt><trkpt lat="41.77509206378309" lon="12.232398874806362"><ele>0.9999999999999999</ele><time>2026-04-27T06:11:52.001Z</time></trkpt><trkpt lat="41.775006679262106" lon="12.232416916991596"><ele>1.0</ele><time>2026-04-27T06:11:59.001Z</time></trkpt><trkpt lat="41.77498135738689" lon="12.232517332587909"><ele>1.2000000000000002</ele><time>2026-04-27T06:12:02.001Z</time></trkpt><trkpt lat="41.77497510060815" lon="12.232612061422282"><ele>1.4000000000000001</ele><time>2026-04-27T06:12:04.001Z</time></trkpt><trkpt lat="41.77497594435914" lon="12.232730383446288"><ele>1.6</ele><time>2026-04-27T06:12:06.001Z</time></trkpt><trkpt lat="41.775000005579074" lon="12.232869106465277"><ele>1.8</ele><time>2026-04-27T06:12:08.001Z</time></trkpt><trkpt lat="41.77500346736684" lon="12.233013419228385"><ele>2.0</ele><time>2026-04-27T06:12:10.001Z</time></trkpt><trkpt lat="41.77501033612818" lon="12.23317226930599"><ele>2.1666666666666665</ele><time>2026-04-27T06:12:12.001Z</time></trkpt><trkpt lat="41.775008410213886" lon="12.233296441522429"><ele>2.333333333333333</ele><time>2026-04-27T06:12:14.001Z</time></trkpt><trkpt lat="41.77488876082403" lon="12.233341548205724"><ele>2.5</ele><time>2026-04-27T06:12:17.001Z</time></trkpt><trkpt lat="41.774824144920416" lon="12.233332496250378"><ele>2.6666666666666665</ele><time>2026-04-27T06:12:18.001Z</time></trkpt><trkpt lat="41.774759055602146" lon="12.233309594869972"><ele>2.8333333333333335</ele><time>2026-04-27T06:12:19.001Z</time></trkpt><trkpt lat="41.7746927058788" lon="12.233314032793139"><ele>3.0</ele><time>2026-04-27T06:12:20.001Z</time></trkpt><trkpt lat="41.774628762970764" lon="12.233298240645436"><ele>3.0</ele><time>2026-04-27T06:12:21.001Z</time></trkpt><trkpt lat="41.774550786190126" lon="12.233325323683497"><ele>3.0</ele><time>2026-04-27T06:12:22.001Z</time></trkpt><trkpt lat="41.77448695602736" lon="12.233312262748546"><ele>3.0</ele><time>2026-04-27T06:12:23.001Z</time></trkpt><trkpt lat="41.77435335970911" lon="12.233303892464404"><ele>3.0</ele><time>2026-04-27T06:12:25.001Z</time></trkpt><trkpt lat="41.774214045424685" lon="12.233294592897543"><ele>3.0</ele><time>2026-04-27T06:12:27.001Z</time></trkpt><trkpt lat="41.77414382893753" lon="12.23330304264425"><ele>2.8333333333333335</ele><time>2026-04-27T06:12:28.001Z</time></trkpt><trkpt lat="41.774065346390316" lon="12.23328431878716"><ele>2.6666666666666665</ele><time>2026-04-27T06:12:29.001Z</time></trkpt><trkpt lat="41.773985436379284" lon="12.233278543125618"><ele>2.5</ele><time>2026-04-27T06:12:30.001Z</time></trkpt><trkpt lat="41.77390980732634" lon="12.23326035129645"><ele>2.333333333333333</ele><time>2026-04-27T06:12:31.001Z</time></trkpt><trkpt lat="41.77379317678853" lon="12.233263395360629"><ele>2.1666666666666665</ele><time>2026-04-27T06:12:33.001Z</time></trkpt><trkpt lat="41.77373083900325" lon="12.233246120733131"><ele>2.0</ele><time>2026-04-27T06:12:34.001Z</time></trkpt><trkpt lat="41.77358447157464" lon="12.233242918811484"><ele>1.8</ele><time>2026-04-27T06:12:36.001Z</time></trkpt><trkpt lat="41.773506303370745" lon="12.233256294024693"><ele>1.6</ele><time>2026-04-27T06:12:37.001Z</time></trkpt><trkpt lat="41.77342163265279" lon="12.233249047669473"><ele>1.4000000000000001</ele><time>2026-04-27T06:12:38.001Z</time></trkpt><trkpt lat="41.77333268207088" lon="12.233245285042818"><ele>1.2000000000000002</ele><time>2026-04-27T06:12:39.001Z</time></trkpt><trkpt lat="41.77322084882643" lon="12.233240744152086"><ele>1.0</ele><time>2026-04-27T06:12:40.001Z</time></trkpt><trkpt lat="41.77311449551513" lon="12.233223305387119"><ele>0.9999999999999999</ele><time>2026-04-27T06:12:41.001Z</time></trkpt><trkpt lat="41.773026651279956" lon="12.233231248846083"><ele>1.0</ele><time>2026-04-27T06:12:42.001Z</time></trkpt><trkpt lat="41.7729386365574" lon="12.233217343101002"><ele>1.0</ele><time>2026-04-27T06:12:43.001Z</time></trkpt><trkpt lat="41.7728521808623" lon="12.23320568035901"><ele>1.0</ele><time>2026-04-27T06:12:44.001Z</time></trkpt><trkpt lat="41.77274547917737" lon="12.233187684750288"><ele>0.9999999999999999</ele><time>2026-04-27T06:12:45.001Z</time></trkpt><trkpt lat="41.77266991998236" lon="12.233201061358061"><ele>1.0</ele><time>2026-04-27T06:12:46.001Z</time></trkpt><trkpt lat="41.77259984945122" lon="12.233193860109361"><ele>1.1666666666666665</ele><time>2026-04-27T06:12:47.001Z</time></trkpt><trkpt lat="41.77253551013368" lon="12.233189761821325"><ele>1.3333333333333333</ele><time>2026-04-27T06:12:48.001Z</time></trkpt><trkpt lat="41.772424764619885" lon="12.233165225324374"><ele>1.5</ele><time>2026-04-27T06:12:50.001Z</time></trkpt><trkpt lat="41.77233241075629" lon="12.233168483700107"><ele>1.6666666666666665</ele><time>2026-04-27T06:12:52.001Z</time></trkpt><trkpt lat="41.772240760732096" lon="12.233168862314134"><ele>1.8333333333333333</ele><time>2026-04-27T06:12:54.001Z</time></trkpt><trkpt lat="41.77215612750225" lon="12.233145762933944"><ele>2.0</ele><time>2026-04-27T06:12:56.001Z</time></trkpt><trkpt lat="41.772067000256435" lon="12.233139305788693"><ele>1.9999999999999998</ele><time>2026-04-27T06:12:58.001Z</time></trkpt><trkpt lat="41.77199985756009" lon="12.233134830361573"><ele>2.0</ele><time>2026-04-27T06:13:00.001Z</time></trkpt><trkpt lat="41.77192659364699" lon="12.233133925053517"><ele>2.0</ele><time>2026-04-27T06:13:11Z</time></trkpt><trkpt lat="41.77184750724844" lon="12.233073826116529"><ele>2.0</ele><time>2026-04-27T06:13:14Z</time></trkpt><trkpt lat="41.771773350242626" lon="12.233119803435015"><ele>1.9999999999999998</ele><time>2026-04-27T06:13:15Z</time></trkpt><trkpt lat="41.77169274553968" lon="12.233227444840871"><ele>2.0</ele><time>2026-04-27T06:13:17Z</time></trkpt><trkpt lat="41.77172973888405" lon="12.233334292567033"><ele>1.6</ele><time>2026-04-27T06:13:18Z</time></trkpt><trkpt lat="41.771777279979105" lon="12.23349389971002"><ele>1.2000000000000002</ele><time>2026-04-27T06:13:20Z</time></trkpt><trkpt lat="41.771758918220165" lon="12.233578040294057"><ele>0.8</ele><time>2026-04-27T06:13:21Z</time></trkpt><trkpt lat="41.771768600130336" lon="12.23373370935325"><ele>0.4</ele><time>2026-04-27T06:13:23Z</time></trkpt><trkpt lat="41.77178638772473" lon="12.233892651480081"><ele>0.0</ele><time>2026-04-27T06:13:25Z</time></trkpt><trkpt lat="41.771793579473815" lon="12.233990150566067"><ele>-0.16666666666666666</ele><time>2026-04-27T06:13:26Z</time></trkpt><trkpt lat="41.77179492522682" lon="12.234104517222223"><ele>-0.3333333333333333</ele><time>2026-04-27T06:13:27Z</time></trkpt><trkpt lat="41.77178564369702" lon="12.23422512609423"><ele>-0.5</ele><time>2026-04-27T06:13:28Z</time></trkpt><trkpt lat="41.77176836499591" lon="12.23433840748447"><ele>-0.6666666666666666</ele><time>2026-04-27T06:13:29Z</time></trkpt><trkpt lat="41.771751860583485" lon="12.234440980623834"><ele>-0.8333333333333333</ele><time>2026-04-27T06:13:30Z</time></trkpt><trkpt lat="41.77175281440932" lon="12.23452716804623"><ele>-1.0</ele><time>2026-04-27T06:13:31Z</time></trkpt><trkpt lat="41.77177342438888" lon="12.234674960799538"><ele>-1.0</ele><time>2026-04-27T06:13:33Z</time></trkpt><trkpt lat="41.771790539502135" lon="12.23479078106433"><ele>-1.0</ele><time>2026-04-27T06:13:35Z</time></trkpt><trkpt lat="41.771815718547685" lon="12.234931567794119"><ele>-1.0</ele><time>2026-04-27T06:13:37Z</time></trkpt><trkpt lat="41.771835577742365" lon="12.235039702542899"><ele>-1.0</ele><time>2026-04-27T06:13:39Z</time></trkpt><trkpt lat="41.7717579744275" lon="12.235095803336698"><ele>-1.0</ele><time>2026-04-27T06:13:40Z</time></trkpt><trkpt lat="41.77167908926699" lon="12.235140994374065"><ele>-0.6000000000000001</ele><time>2026-04-27T06:13:42Z</time></trkpt><trkpt lat="41.771596324635226" lon="12.235161825739763"><ele>-0.20000000000000007</ele><time>2026-04-27T06:13:44Z</time></trkpt><trkpt lat="41.77147700155276" lon="12.23520332778345"><ele>0.20000000000000007</ele><time>2026-04-27T06:13:46Z</time></trkpt><trkpt lat="41.77137550957031" lon="12.235232919749361"><ele>0.6000000000000001</ele><time>2026-04-27T06:13:48Z</time></trkpt><trkpt lat="41.77128469783657" lon="12.23525505154874"><ele>1.0</ele><time>2026-04-27T06:13:50Z</time></trkpt><trkpt lat="41.771154859448764" lon="12.23525221312646"><ele>1.0</ele><time>2026-04-27T06:13:52Z</time></trkpt><trkpt lat="41.77108496330283" lon="12.235302996002272"><ele>1.0</ele><time>2026-04-27T06:13:53Z</time></trkpt><trkpt lat="41.77100165965234" lon="12.2353244538075"><ele>1.0</ele><time>2026-04-27T06:13:54Z</time></trkpt><trkpt lat="41.770906801214814" lon="12.235343755015831"><ele>1.0</ele><time>2026-04-27T06:13:55Z</time></trkpt><trkpt lat="41.770812450450904" lon="12.235359339105017"><ele>1.0</ele><time>2026-04-27T06:13:56Z</time></trkpt><trkpt lat="41.770708247977346" lon="12.235382052570408"><ele>1.4</ele><time>2026-04-27T06:13:57Z</time></trkpt><trkpt lat="41.77060378735318" lon="12.235396889961958"><ele>1.8</ele><time>2026-04-27T06:13:58.001Z</time></trkpt><trkpt lat="41.770512274264156" lon="12.235409907997003"><ele>2.1999999999999997</ele><time>2026-04-27T06:13:59.001Z</time></trkpt><trkpt lat="41.77041831611107" lon="12.235426082228512"><ele>2.6</ele><time>2026-04-27T06:14:00.001Z</time></trkpt><trkpt lat="41.77031335859266" lon="12.235440706479915"><ele>3.0</ele><time>2026-04-27T06:14:01.001Z</time></trkpt><trkpt lat="41.7702108096339" lon="12.235461734889084"><ele>3.0</ele><time>2026-04-27T06:14:02.001Z</time></trkpt><trkpt lat="41.770096564946044" lon="12.235474708785462"><ele>3.0</ele><time>2026-04-27T06:14:03.001Z</time></trkpt><trkpt lat="41.76997520399774" lon="12.235497129102376"><ele>3.0</ele><time>2026-04-27T06:14:04.001Z</time></trkpt><trkpt lat="41.76983972839771" lon="12.235529977572105"><ele>3.0</ele><time>2026-04-27T06:14:05.001Z</time></trkpt><trkpt lat="41.76971143238453" lon="12.235529721627355"><ele>3.0</ele><time>2026-04-27T06:14:06.001Z</time></trkpt><trkpt lat="41.76957950244713" lon="12.235549226011207"><ele>3.0</ele><time>2026-04-27T06:14:07.001Z</time></trkpt><trkpt lat="41.76945027811466" lon="12.235584822459073"><ele>3.0</ele><time>2026-04-27T06:14:08.001Z</time></trkpt><trkpt lat="41.76932532165756" lon="12.235595166521266"><ele>3.0</ele><time>2026-04-27T06:14:09.001Z</time></trkpt><trkpt lat="41.76920700256885" lon="12.235566339223526"><ele>2.8</ele><time>2026-04-27T06:14:10.001Z</time></trkpt><trkpt lat="41.76910311783317" lon="12.235551251156249"><ele>2.5999999999999996</ele><time>2026-04-27T06:14:11.001Z</time></trkpt><trkpt lat="41.76900077357" lon="12.235531703482081"><ele>2.4000000000000004</ele><time>2026-04-27T06:14:12.001Z</time></trkpt><trkpt lat="41.76889939963275" lon="12.235527544075506"><ele>2.2</ele><time>2026-04-27T06:14:13.001Z</time></trkpt><trkpt lat="41.76881472462006" lon="12.235482304106966"><ele>2.0</ele><time>2026-04-27T06:14:14.001Z</time></trkpt><trkpt lat="41.7687358017781" lon="12.235458762889731"><ele>1.9999999999999998</ele><time>2026-04-27T06:14:15.001Z</time></trkpt><trkpt lat="41.76865409683328" lon="12.235455023439364"><ele>2.0</ele><time>2026-04-27T06:14:16.001Z</time></trkpt><trkpt lat="41.768587225795414" lon="12.235409273841064"><ele>2.0</ele><time>2026-04-27T06:14:17.001Z</time></trkpt><trkpt lat="41.76851960950127" lon="12.23539775714126"><ele>2.0</ele><time>2026-04-27T06:14:18.001Z</time></trkpt><trkpt lat="41.76844802567136" lon="12.235390339707225"><ele>1.9999999999999998</ele><time>2026-04-27T06:14:19.001Z</time></trkpt><trkpt lat="41.76836486244242" lon="12.235404562555452"><ele>2.0</ele><time>2026-04-27T06:14:20.001Z</time></trkpt><trkpt lat="41.76827236885658" lon="12.235400319717474"><ele>2.5</ele><time>2026-04-27T06:14:21.001Z</time></trkpt><trkpt lat="41.76817319429817" lon="12.23540102975135"><ele>3.0</ele><time>2026-04-27T06:14:22.001Z</time></trkpt><trkpt lat="41.76805493156158" lon="12.235393412664385"><ele>3.5</ele><time>2026-04-27T06:14:23.001Z</time></trkpt><trkpt lat="41.76794005633336" lon="12.235381306174611"><ele>4.0</ele><time>2026-04-27T06:14:24.001Z</time></trkpt><trkpt lat="41.76781903270954" lon="12.235376499991585"><ele>4.0</ele><time>2026-04-27T06:14:25.001Z</time></trkpt><trkpt lat="41.76769801641943" lon="12.235368216157795"><ele>4.0</ele><time>2026-04-27T06:14:26.001Z</time></trkpt><trkpt lat="41.76757059038203" lon="12.235341672005214"><ele>4.0</ele><time>2026-04-27T06:14:27.001Z</time></trkpt><trkpt lat="41.767449691978406" lon="12.2353723016913"><ele>4.0</ele><time>2026-04-27T06:14:28.001Z</time></trkpt><trkpt lat="41.767350586997885" lon="12.235354399911516"><ele>3.8000000000000003</ele><time>2026-04-27T06:14:29.001Z</time></trkpt><trkpt lat="41.76726599828585" lon="12.235343815598432"><ele>3.6000000000000005</ele><time>2026-04-27T06:14:30.001Z</time></trkpt><trkpt lat="41.76715789696634" lon="12.235306707117257"><ele>3.4</ele><time>2026-04-27T06:14:32.001Z</time></trkpt><trkpt lat="41.76708550465034" lon="12.235325165108057"><ele>3.2</ele><time>2026-04-27T06:14:35.001Z</time></trkpt><trkpt lat="41.76703239915685" lon="12.235143851903294"><ele>3.0</ele><time>2026-04-27T06:14:36.001Z</time></trkpt><trkpt lat="41.76699362740802" lon="12.235034740155756"><ele>3.0</ele><time>2026-04-27T06:14:38.001Z</time></trkpt><trkpt lat="41.767014261901906" lon="12.234930950612187"><ele>3.0</ele><time>2026-04-27T06:14:40.001Z</time></trkpt><trkpt lat="41.76702007753055" lon="12.234824919453827"><ele>3.0</ele><time>2026-04-27T06:14:42.001Z</time></trkpt><trkpt lat="41.76702109314906" lon="12.234739211399978"><ele>3.0</ele><time>2026-04-27T06:14:44.001Z</time></trkpt><trkpt lat="41.76698450302723" lon="12.234648963052006"><ele>3.0</ele><time>2026-04-27T06:14:47.001Z</time></trkpt><trkpt lat="41.76691338876637" lon="12.234646251793697"><ele>3.0</ele><time>2026-04-27T06:15:16.001Z</time></trkpt><trkpt lat="41.76681832842642" lon="12.2346581089861"><ele>3.0</ele><time>2026-04-27T06:15:19.001Z</time></trkpt><trkpt lat="41.76681533863689" lon="12.234746328009644"><ele>3.0</ele><time>2026-04-27T06:15:21.001Z</time></trkpt><trkpt lat="41.76678638325794" lon="12.234853218490114"><ele>3.0</ele><time>2026-04-27T06:16:49.001Z</time></trkpt><trkpt lat="41.7668000356554" lon="12.23495283410401"><ele>3.0</ele><time>2026-04-27T06:16:51.001Z</time></trkpt><trkpt lat="41.76679540097948" lon="12.235082671968161"><ele>3.0</ele><time>2026-04-27T06:16:53.001Z</time></trkpt><trkpt lat="41.76679662877289" lon="12.235178105372498"><ele>3.0</ele><time>2026-04-27T06:16:55.001Z</time></trkpt><trkpt lat="41.76689332635611" lon="12.235198385569033"><ele>3.0</ele><time>2026-04-27T06:16:58.001Z</time></trkpt><trkpt lat="41.76696521409342" lon="12.23522150127597"><ele>3.0</ele><time>2026-04-27T06:16:59.001Z</time></trkpt><trkpt lat="41.76707727605269" lon="12.235217859263535"><ele>3.0</ele><time>2026-04-27T06:17:01.001Z</time></trkpt><trkpt lat="41.767116222783145" lon="12.235147064727437"><ele>3.0</ele><time>2026-04-27T06:17:02.001Z</time></trkpt><trkpt lat="41.76722468963865" lon="12.23515124411732"><ele>3.0</ele><time>2026-04-27T06:17:05.001Z</time></trkpt><trkpt lat="41.76730955239355" lon="12.235148303396077"><ele>3.0</ele><time>2026-04-27T06:23:44Z</time></trkpt><trkpt lat="41.767409955843576" lon="12.235069546025699"><ele>3.0</ele><time>2026-04-27T06:23:48Z</time></trkpt><trkpt lat="41.76716658535831" lon="12.235070355913296"><ele>3.0</ele><time>2026-04-27T06:23:49Z</time></trkpt><trkpt lat="41.767093154332564" lon="12.235076638282884"><ele>3.0</ele><time>2026-04-27T06:23:51Z</time></trkpt><trkpt lat="41.76707419251557" lon="12.234991995660769"><ele>3.0</ele><time>2026-04-27T06:23:53Z</time></trkpt><trkpt lat="41.76705635544232" lon="12.234893795441167"><ele>3.0</ele><time>2026-04-27T06:25:07Z</time></trkpt><trkpt lat="41.767121649780805" lon="12.234919123353471"><ele>3.0</ele><time>2026-04-27T06:25:10Z</time></trkpt><trkpt lat="41.76712096901645" lon="12.235043635245539"><ele>3.0</ele><time>2026-04-27T06:25:12Z</time></trkpt><trkpt lat="41.767147482360734" lon="12.235166906435635"><ele>3.0</ele><time>2026-04-27T06:25:14Z</time></trkpt><trkpt lat="41.767159744376904" lon="12.23525390857756"><ele>3.0</ele><time>2026-04-27T06:25:16Z</time></trkpt><trkpt lat="41.76712304073473" lon="12.235339990830553"><ele>3.0</ele><time>2026-04-27T06:25:20Z</time></trkpt><trkpt lat="41.767021067321636" lon="12.235359830271236"><ele>3.0</ele><time>2026-04-27T06:25:22Z</time></trkpt><trkpt lat="41.766956331371134" lon="12.235354811792135"><ele>3.0</ele><time>2026-04-27T06:25:23Z</time></trkpt><trkpt lat="41.76683814187316" lon="12.235370618547236"><ele>3.0</ele><time>2026-04-27T06:25:25Z</time></trkpt><trkpt lat="41.76673812506798" lon="12.235369028070613"><ele>3.0</ele><time>2026-04-27T06:25:27Z</time></trkpt><trkpt lat="41.76667272368033" lon="12.235329891848396"><ele>3.0</ele><time>2026-04-27T06:25:29Z</time></trkpt><trkpt lat="41.76664012832123" lon="12.235253969486894"><ele>3.0</ele><time>2026-04-27T06:25:31Z</time></trkpt><trkpt lat="41.76656617386095" lon="12.235209239418685"><ele>3.2</ele><time>2026-04-27T06:25:33Z</time></trkpt><trkpt lat="41.76648426820075" lon="12.235273639399697"><ele>3.4</ele><time>2026-04-27T06:25:35Z</time></trkpt><trkpt lat="41.7664965450428" lon="12.235403951250762"><ele>3.6000000000000005</ele><time>2026-04-27T06:25:37Z</time></trkpt><trkpt lat="41.76654939296967" lon="12.23554772600201"><ele>3.8000000000000003</ele><time>2026-04-27T06:25:39Z</time></trkpt><trkpt lat="41.76655327485403" lon="12.235644482502117"><ele>4.0</ele><time>2026-04-27T06:25:40Z</time></trkpt><trkpt lat="41.76654833699807" lon="12.235748905820214"><ele>3.9999999999999996</ele><time>2026-04-27T06:25:41Z</time></trkpt><trkpt lat="41.76654594510913" lon="12.23585329141855"><ele>4.0</ele><time>2026-04-27T06:25:42Z</time></trkpt><trkpt lat="41.766544471989285" lon="12.235962070829215"><ele>4.0</ele><time>2026-04-27T06:25:43Z</time></trkpt><trkpt lat="41.766544095226884" lon="12.236074054592738"><ele>4.0</ele><time>2026-04-27T06:25:44Z</time></trkpt><trkpt lat="41.76654559313697" lon="12.236189599783568"><ele>3.9999999999999996</ele><time>2026-04-27T06:25:45Z</time></trkpt><trkpt lat="41.76654594360598" lon="12.236305568070904"><ele>4.0</ele><time>2026-04-27T06:25:46Z</time></trkpt><trkpt lat="41.766544990334154" lon="12.236417958377555"><ele>3.9999999999999996</ele><time>2026-04-27T06:25:47Z</time></trkpt><trkpt lat="41.766543317274795" lon="12.236522442500542"><ele>4.0</ele><time>2026-04-27T06:25:48Z</time></trkpt><trkpt lat="41.76654100845981" lon="12.236613418838413"><ele>4.0</ele><time>2026-04-27T06:25:49Z</time></trkpt><trkpt lat="41.76651748028397" lon="12.236765779319034"><ele>4.0</ele><time>2026-04-27T06:25:51Z</time></trkpt><trkpt lat="41.76648341715602" lon="12.236840900493299"><ele>3.9999999999999996</ele><time>2026-04-27T06:25:52Z</time></trkpt><trkpt lat="41.766430842243544" lon="12.236977071170564"><ele>4.0</ele><time>2026-04-27T06:25:54Z</time></trkpt><trkpt lat="41.766501440636176" lon="12.23710740551343"><ele>3.9999999999999996</ele><time>2026-04-27T06:25:56Z</time></trkpt><trkpt lat="41.766578629703844" lon="12.237082938840738"><ele>4.0</ele><time>2026-04-27T06:25:57Z</time></trkpt><trkpt lat="41.76663543060211" lon="12.237034780622682"><ele>4.0</ele><time>2026-04-27T06:25:58Z</time></trkpt><trkpt lat="41.76668656292449" lon="12.23696948496571"><ele>4.0</ele><time>2026-04-27T06:25:59Z</time></trkpt><trkpt lat="41.76675214228108" lon="12.236911849340073"><ele>3.9999999999999996</ele><time>2026-04-27T06:26:00Z</time></trkpt><trkpt lat="41.766836971366814" lon="12.236876074135578"><ele>4.0</ele><time>2026-04-27T06:26:01Z</time></trkpt><trkpt lat="41.766933914187256" lon="12.236858651330877"><ele>3.8000000000000003</ele><time>2026-04-27T06:26:02Z</time></trkpt><trkpt lat="41.767031871608765" lon="12.236853274259538"><ele>3.6000000000000005</ele><time>2026-04-27T06:26:03Z</time></trkpt><trkpt lat="41.76713327494086" lon="12.236855043362542"><ele>3.4</ele><time>2026-04-27T06:26:04Z</time></trkpt><trkpt lat="41.76723893160836" lon="12.236877654795794"><ele>3.2</ele><time>2026-04-27T06:26:05Z</time></trkpt><trkpt lat="41.76733823049628" lon="12.236900904983004"><ele>3.0</ele><time>2026-04-27T06:26:06Z</time></trkpt><trkpt lat="41.76742486511473" lon="12.236931772902404"><ele>3.0</ele><time>2026-04-27T06:26:07Z</time></trkpt><trkpt lat="41.76749213527931" lon="12.23696594343796"><ele>3.0</ele><time>2026-04-27T06:26:08Z</time></trkpt><trkpt lat="41.76765645970878" lon="12.236997153476873"><ele>3.0</ele><time>2026-04-27T06:26:10Z</time></trkpt><trkpt lat="41.76775178678867" lon="12.236991851362149"><ele>3.0</ele><time>2026-04-27T06:26:11Z</time></trkpt><trkpt lat="41.767849469121245" lon="12.23697480842192"><ele>3.0</ele><time>2026-04-27T06:26:12Z</time></trkpt><trkpt lat="41.76795609738966" lon="12.236954228999252"><ele>3.0</ele><time>2026-04-27T06:26:13Z</time></trkpt><trkpt lat="41.7680512169958" lon="12.236935647204518"><ele>3.0</ele><time>2026-04-27T06:26:14Z</time></trkpt><trkpt lat="41.76811535563211" lon="12.23692208138402"><ele>3.0</ele><time>2026-04-27T06:26:16Z</time></trkpt><trkpt lat="41.768204642058194" lon="12.23690097980407"><ele>3.0</ele><time>2026-04-27T06:26:21Z</time></trkpt><trkpt lat="41.768303526334414" lon="12.236875095865443"><ele>3.0</ele><time>2026-04-27T06:26:23Z</time></trkpt><trkpt lat="41.76836724577669" lon="12.236863075155147"><ele>3.0</ele><time>2026-04-27T06:26:24Z</time></trkpt><trkpt lat="41.768442361722336" lon="12.236848979029936"><ele>3.0</ele><time>2026-04-27T06:26:25Z</time></trkpt><trkpt lat="41.768522134927444" lon="12.236836122992996"><ele>3.0</ele><time>2026-04-27T06:26:26Z</time></trkpt><trkpt lat="41.76861345297213" lon="12.236811697860688"><ele>3.0</ele><time>2026-04-27T06:26:27Z</time></trkpt><trkpt lat="41.768709196321076" lon="12.2367954039539"><ele>3.0</ele><time>2026-04-27T06:26:28Z</time></trkpt><trkpt lat="41.76880710460913" lon="12.236780020883316"><ele>3.0</ele><time>2026-04-27T06:26:29Z</time></trkpt><trkpt lat="41.768913104230194" lon="12.23676745615911"><ele>2.8</ele><time>2026-04-27T06:26:30Z</time></trkpt><trkpt lat="41.76902520177048" lon="12.236762570355028"><ele>2.5999999999999996</ele><time>2026-04-27T06:26:31Z</time></trkpt><trkpt lat="41.76912894611497" lon="12.236759669277092"><ele>2.4000000000000004</ele><time>2026-04-27T06:26:32Z</time></trkpt><trkpt lat="41.76922657500857" lon="12.236745153202566"><ele>2.2</ele><time>2026-04-27T06:26:33Z</time></trkpt><trkpt lat="41.769329609482" lon="12.236736749975497"><ele>2.0</ele><time>2026-04-27T06:26:34Z</time></trkpt><trkpt lat="41.76943490639352" lon="12.236728020097361"><ele>1.6</ele><time>2026-04-27T06:26:35Z</time></trkpt><trkpt lat="41.76954205799792" lon="12.236719872786836"><ele>1.2000000000000002</ele><time>2026-04-27T06:26:36Z</time></trkpt><trkpt lat="41.76965376192944" lon="12.236711711079394"><ele>0.8</ele><time>2026-04-27T06:26:37Z</time></trkpt><trkpt lat="41.76976746046229" lon="12.236706419797335"><ele>0.4</ele><time>2026-04-27T06:26:38Z</time></trkpt><trkpt lat="41.76987839537843" lon="12.236698112956624"><ele>0.0</ele><time>2026-04-27T06:26:39Z</time></trkpt><trkpt lat="41.769991899500255" lon="12.236689199468758"><ele>0.0</ele><time>2026-04-27T06:26:40Z</time></trkpt><trkpt lat="41.77010290667072" lon="12.23667544424457"><ele>0.0</ele><time>2026-04-27T06:26:41Z</time></trkpt><trkpt lat="41.770212016467624" lon="12.23666525293003"><ele>0.0</ele><time>2026-04-27T06:26:42Z</time></trkpt><trkpt lat="41.770320962961115" lon="12.236656082688503"><ele>0.0</ele><time>2026-04-27T06:26:43Z</time></trkpt><trkpt lat="41.77042692220416" lon="12.23664787884656"><ele>0.0</ele><time>2026-04-27T06:26:44Z</time></trkpt><trkpt lat="41.770529845983134" lon="12.236639006974695"><ele>0.2</ele><time>2026-04-27T06:26:45Z</time></trkpt><trkpt lat="41.77062986065441" lon="12.236629299134771"><ele>0.4</ele><time>2026-04-27T06:26:46Z</time></trkpt><trkpt lat="41.77072513406696" lon="12.23662280443627"><ele>0.6000000000000001</ele><time>2026-04-27T06:26:47Z</time></trkpt><trkpt lat="41.77081217842588" lon="12.236619799942737"><ele>0.8</ele><time>2026-04-27T06:26:48Z</time></trkpt><trkpt lat="41.77088386840431" lon="12.236617183835781"><ele>1.0</ele><time>2026-04-27T06:26:49Z</time></trkpt><trkpt lat="41.77099899355692" lon="12.23658444569338"><ele>1.0</ele><time>2026-04-27T06:26:51Z</time></trkpt><trkpt lat="41.771026117287015" lon="12.236468122265522"><ele>1.0</ele><time>2026-04-27T06:26:53Z</time></trkpt><trkpt lat="41.77103799174783" lon="12.236356849316577"><ele>1.0</ele><time>2026-04-27T06:26:55Z</time></trkpt><trkpt lat="41.77104848843346" lon="12.236252171940587"><ele>1.0</ele><time>2026-04-27T06:26:59Z</time></trkpt><trkpt lat="41.771058297797936" lon="12.236105675486053"><ele>1.0</ele><time>2026-04-27T06:27:03Z</time></trkpt><trkpt lat="41.771053816746345" lon="12.235953258427093"><ele>1.0</ele><time>2026-04-27T06:27:05Z</time></trkpt><trkpt lat="41.7710620420962" lon="12.23586862562685"><ele>0.9999999999999999</ele><time>2026-04-27T06:27:06Z</time></trkpt><trkpt lat="41.7710692577486" lon="12.235781879217114"><ele>1.0</ele><time>2026-04-27T06:27:07Z</time></trkpt><trkpt lat="41.77108808662365" lon="12.235677460961139"><ele>1.0</ele><time>2026-04-27T06:27:08Z</time></trkpt><trkpt lat="41.77109766349044" lon="12.235578167273019"><ele>0.9999999999999999</ele><time>2026-04-27T06:27:09Z</time></trkpt><trkpt lat="41.77112119088108" lon="12.235486353739363"><ele>1.0</ele><time>2026-04-27T06:27:10Z</time></trkpt><trkpt lat="41.771141137352224" lon="12.235404906047656"><ele>1.0</ele><time>2026-04-27T06:27:11Z</time></trkpt><trkpt lat="41.77121399909239" lon="12.235302193537203"><ele>1.0</ele><time>2026-04-27T06:27:13Z</time></trkpt><trkpt lat="41.77132279973588" lon="12.235259102431554"><ele>1.0</ele><time>2026-04-27T06:27:15Z</time></trkpt><trkpt lat="41.77142356639491" lon="12.23523522813205"><ele>1.0</ele><time>2026-04-27T06:27:17Z</time></trkpt><trkpt lat="41.77153027213462" lon="12.235209109983403"><ele>1.0</ele><time>2026-04-27T06:27:19Z</time></trkpt><trkpt lat="41.771654595858756" lon="12.235175600487471"><ele>1.0</ele><time>2026-04-27T06:27:21Z</time></trkpt><trkpt lat="41.77177366498182" lon="12.23517411138152"><ele>1.0</ele><time>2026-04-27T06:27:23Z</time></trkpt><trkpt lat="41.7718600449891" lon="12.23528081575074"><ele>1.0</ele><time>2026-04-27T06:27:25Z</time></trkpt><trkpt lat="41.771900086790076" lon="12.23544361656686"><ele>1.0</ele><time>2026-04-27T06:27:27Z</time></trkpt><trkpt lat="41.771919358442766" lon="12.235540346897746"><ele>1.0</ele><time>2026-04-27T06:27:28Z</time></trkpt><trkpt lat="41.77193239327879" lon="12.23564816489637"><ele>0.6666666666666666</ele><time>2026-04-27T06:27:29Z</time></trkpt><trkpt lat="41.77194651932851" lon="12.235751967078215"><ele>0.3333333333333333</ele><time>2026-04-27T06:27:30Z</time></trkpt><trkpt lat="41.77196757591986" lon="12.235867814345395"><ele>0.0</ele><time>2026-04-27T06:27:31Z</time></trkpt><trkpt lat="41.771985583678614" lon="12.23597147340754"><ele>-0.3333333333333333</ele><time>2026-04-27T06:27:32Z</time></trkpt><trkpt lat="41.77200449372845" lon="12.236068408156717"><ele>-0.6666666666666666</ele><time>2026-04-27T06:27:33Z</time></trkpt><trkpt lat="41.77202257687215" lon="12.236162342169429"><ele>-1.0</ele><time>2026-04-27T06:27:34Z</time></trkpt><trkpt lat="41.77203684866901" lon="12.236268481652267"><ele>-0.9999999999999999</ele><time>2026-04-27T06:27:35Z</time></trkpt><trkpt lat="41.77205218442307" lon="12.236375476543765"><ele>-1.0</ele><time>2026-04-27T06:27:36Z</time></trkpt><trkpt lat="41.77206846422542" lon="12.236480058010452"><ele>-1.0</ele><time>2026-04-27T06:27:37Z</time></trkpt><trkpt lat="41.77208504229485" lon="12.236592310364811"><ele>-1.0</ele><time>2026-04-27T06:27:38Z</time></trkpt><trkpt lat="41.7721020535381" lon="12.236709470489766"><ele>-0.9999999999999999</ele><time>2026-04-27T06:27:39Z</time></trkpt><trkpt lat="41.772119433214506" lon="12.236830585237477"><ele>-1.0</ele><time>2026-04-27T06:27:40Z</time></trkpt><trkpt lat="41.77213859929276" lon="12.23695510949113"><ele>-0.6000000000000001</ele><time>2026-04-27T06:27:41Z</time></trkpt><trkpt lat="41.772157753099805" lon="12.237081381302232"><ele>-0.20000000000000007</ele><time>2026-04-27T06:27:42Z</time></trkpt><trkpt lat="41.772174755572294" lon="12.237207296965023"><ele>0.20000000000000007</ele><time>2026-04-27T06:27:43Z</time></trkpt><trkpt lat="41.772191509181965" lon="12.237334540525229"><ele>0.6000000000000001</ele><time>2026-04-27T06:27:44Z</time></trkpt><trkpt lat="41.77220769025741" lon="12.237458177550629"><ele>1.0</ele><time>2026-04-27T06:27:45Z</time></trkpt><trkpt lat="41.77222581233356" lon="12.237588159510135"><ele>1.4</ele><time>2026-04-27T06:27:46Z</time></trkpt><trkpt lat="41.77224378430523" lon="12.237715574313919"><ele>1.8</ele><time>2026-04-27T06:27:47Z</time></trkpt><trkpt lat="41.77226104124708" lon="12.237823363555455"><ele>2.1999999999999997</ele><time>2026-04-27T06:27:48Z</time></trkpt><trkpt lat="41.77227265435333" lon="12.237914164393512"><ele>2.6</ele><time>2026-04-27T06:27:48.999Z</time></trkpt><trkpt lat="41.77229187381915" lon="12.238061410098114"><ele>3.0</ele><time>2026-04-27T06:27:50.999Z</time></trkpt><trkpt lat="41.77231610133258" lon="12.238184925174794"><ele>3.1666666666666665</ele><time>2026-04-27T06:27:52.999Z</time></trkpt><trkpt lat="41.77233416532278" lon="12.238332991432877"><ele>3.333333333333333</ele><time>2026-04-27T06:27:54.999Z</time></trkpt><trkpt lat="41.77233923044023" lon="12.238425226417887"><ele>3.5</ele><time>2026-04-27T06:27:56Z</time></trkpt><trkpt lat="41.77235347919071" lon="12.238519473430951"><ele>3.6666666666666665</ele><time>2026-04-27T06:27:57Z</time></trkpt><trkpt lat="41.772372620169186" lon="12.238620202700792"><ele>3.833333333333333</ele><time>2026-04-27T06:27:58Z</time></trkpt><trkpt lat="41.77238894337103" lon="12.23872822050085"><ele>4.0</ele><time>2026-04-27T06:27:59Z</time></trkpt><trkpt lat="41.77240408442784" lon="12.238838655949701"><ele>3.9999999999999996</ele><time>2026-04-27T06:28:00Z</time></trkpt><trkpt lat="41.77241955255918" lon="12.238952735823057"><ele>4.0</ele><time>2026-04-27T06:28:01Z</time></trkpt><trkpt lat="41.772436278727035" lon="12.239068924755811"><ele>4.0</ele><time>2026-04-27T06:28:02Z</time></trkpt><trkpt lat="41.77245223742425" lon="12.239183681131541"><ele>4.0</ele><time>2026-04-27T06:28:03Z</time></trkpt><trkpt lat="41.77246286596398" lon="12.239296740812806"><ele>3.9999999999999996</ele><time>2026-04-27T06:28:04Z</time></trkpt><trkpt lat="41.772466811766044" lon="12.239393337924248"><ele>4.0</ele><time>2026-04-27T06:28:05Z</time></trkpt><trkpt lat="41.77247525570506" lon="12.239491373616058"><ele>3.8000000000000003</ele><time>2026-04-27T06:28:06Z</time></trkpt><trkpt lat="41.772495778605645" lon="12.239652098948959"><ele>3.6000000000000005</ele><time>2026-04-27T06:28:08Z</time></trkpt><trkpt lat="41.77247553636972" lon="12.239772598907784"><ele>3.4</ele><time>2026-04-27T06:28:10Z</time></trkpt><trkpt lat="41.77239964432616" lon="12.239850315491074"><ele>3.2</ele><time>2026-04-27T06:28:13Z</time></trkpt><trkpt lat="41.772335798303324" lon="12.239927574102882"><ele>3.0</ele><time>2026-04-27T06:28:16Z</time></trkpt><trkpt lat="41.77229785790964" lon="12.239847149564692"><ele>2.8333333333333335</ele><time>2026-04-27T06:28:17Z</time></trkpt><trkpt lat="41.77226199329709" lon="12.239982833808773"><ele>2.6666666666666665</ele><time>2026-04-27T06:28:18Z</time></trkpt><trkpt lat="41.772255444779425" lon="12.240088131090394"><ele>2.5</ele><time>2026-04-27T06:28:22Z</time></trkpt><trkpt lat="41.772284383075224" lon="12.240172883459847"><ele>2.333333333333333</ele><time>2026-04-27T06:29:38Z</time></trkpt><trkpt lat="41.77229749355564" lon="12.240264926739227"><ele>2.1666666666666665</ele><time>2026-04-27T06:31:12Z</time></trkpt><trkpt lat="41.77230945085874" lon="12.240348873985383"><ele>2.0</ele><time>2026-04-27T06:31:16Z</time></trkpt><trkpt lat="41.77240445328316" lon="12.240278592631853"><ele>2.0</ele><time>2026-04-27T06:31:46Z</time></trkpt><trkpt lat="41.77250558975867" lon="12.2402324118229"><ele>2.0</ele><time>2026-04-27T06:31:48Z</time></trkpt><trkpt lat="41.772593422823796" lon="12.240236667914665"><ele>2.0</ele><time>2026-04-27T06:31:51Z</time></trkpt><trkpt lat="41.772602276575036" lon="12.240020999838098"><ele>2.0</ele><time>2026-04-27T06:31:53Z</time></trkpt><trkpt lat="41.77258335951152" lon="12.239920396357403"><ele>2.0</ele><time>2026-04-27T06:31:54Z</time></trkpt><trkpt lat="41.772569721948884" lon="12.23980921191154"><ele>2.2</ele><time>2026-04-27T06:31:55Z</time></trkpt><trkpt lat="41.772554374218764" lon="12.239680891480305"><ele>2.4000000000000004</ele><time>2026-04-27T06:31:56Z</time></trkpt><trkpt lat="41.77253353229532" lon="12.239561592626941"><ele>2.5999999999999996</ele><time>2026-04-27T06:31:57Z</time></trkpt><trkpt lat="41.77251529939206" lon="12.239432184066816"><ele>2.8</ele><time>2026-04-27T06:31:58Z</time></trkpt><trkpt lat="41.77250082234418" lon="12.239296350700497"><ele>3.0</ele><time>2026-04-27T06:31:59Z</time></trkpt><trkpt lat="41.77248027034405" lon="12.239158635323383"><ele>3.0</ele><time>2026-04-27T06:32:00Z</time></trkpt><trkpt lat="41.77245911663787" lon="12.23901875517606"><ele>3.0</ele><time>2026-04-27T06:32:01Z</time></trkpt><trkpt lat="41.772437891624776" lon="12.238873174164874"><ele>3.0</ele><time>2026-04-27T06:32:02Z</time></trkpt><trkpt lat="41.772415039978995" lon="12.23872901652782"><ele>3.0</ele><time>2026-04-27T06:32:03Z</time></trkpt><trkpt lat="41.7723947688306" lon="12.238590591403101"><ele>3.0</ele><time>2026-04-27T06:32:04Z</time></trkpt><trkpt lat="41.772380116118924" lon="12.238468106757054"><ele>3.0</ele><time>2026-04-27T06:32:05Z</time></trkpt><trkpt lat="41.7723582491077" lon="12.238272365175149"><ele>3.0</ele><time>2026-04-27T06:32:07Z</time></trkpt><trkpt lat="41.77234392133188" lon="12.238128246711513"><ele>3.0</ele><time>2026-04-27T06:32:09Z</time></trkpt><trkpt lat="41.77231928547352" lon="12.237986581776081"><ele>3.0</ele><time>2026-04-27T06:32:11Z</time></trkpt><trkpt lat="41.77230658889264" lon="12.237894752855453"><ele>3.0</ele><time>2026-04-27T06:32:12Z</time></trkpt><trkpt lat="41.772304672111794" lon="12.237778884652844"><ele>3.0</ele><time>2026-04-27T06:32:13Z</time></trkpt><trkpt lat="41.77227605968866" lon="12.237679729539773"><ele>3.0</ele><time>2026-04-27T06:32:14Z</time></trkpt><trkpt lat="41.77225593625112" lon="12.237568854462705"><ele>3.0</ele><time>2026-04-27T06:32:15Z</time></trkpt><trkpt lat="41.77223159721602" lon="12.23745709736556"><ele>3.0</ele><time>2026-04-27T06:32:16Z</time></trkpt><trkpt lat="41.77223780921489" lon="12.237370754600354"><ele>3.0</ele><time>2026-04-27T06:32:17Z</time></trkpt><trkpt lat="41.772249790769095" lon="12.23728386008907"><ele>3.0</ele><time>2026-04-27T06:32:19Z</time></trkpt><trkpt lat="41.77223208850434" lon="12.237161617446555"><ele>2.6</ele><time>2026-04-27T06:32:21Z</time></trkpt><trkpt lat="41.772423609479816" lon="12.237072372946965"><ele>2.1999999999999997</ele><time>2026-04-27T06:32:23Z</time></trkpt><trkpt lat="41.77248679716911" lon="12.237058997504244"><ele>1.8</ele><time>2026-04-27T06:32:24Z</time></trkpt><trkpt lat="41.772555703731285" lon="12.237042159002462"><ele>1.4</ele><time>2026-04-27T06:32:25Z</time></trkpt><trkpt lat="41.77262531758889" lon="12.237022254260225"><ele>1.0</ele><time>2026-04-27T06:32:26Z</time></trkpt><trkpt lat="41.772688289633166" lon="12.236999894114645"><ele>0.8333333333333333</ele><time>2026-04-27T06:32:27Z</time></trkpt><trkpt lat="41.77275313831463" lon="12.236978583318054"><ele>0.6666666666666666</ele><time>2026-04-27T06:32:28Z</time></trkpt><trkpt lat="41.77281504931736" lon="12.236957696192695"><ele>0.5</ele><time>2026-04-27T06:32:29Z</time></trkpt><trkpt lat="41.77287710756748" lon="12.236935966506662"><ele>0.3333333333333333</ele><time>2026-04-27T06:32:30Z</time></trkpt><trkpt lat="41.77299380207504" lon="12.236914048873437"><ele>0.16666666666666666</ele><time>2026-04-27T06:32:32Z</time></trkpt><trkpt lat="41.77305934725192" lon="12.236890952011919"><ele>0.0</ele><time>2026-04-27T06:32:33Z</time></trkpt><trkpt lat="41.773123362256946" lon="12.23675759756998"><ele>0.0</ele><time>2026-04-27T06:32:34Z</time></trkpt><trkpt lat="41.773184767900666" lon="12.23665336550601"><ele>0.0</ele><time>2026-04-27T06:32:35Z</time></trkpt><trkpt lat="41.77323121177383" lon="12.236535657951148"><ele>0.0</ele><time>2026-04-27T06:32:36Z</time></trkpt><trkpt lat="41.77329592859159" lon="12.236456350064707"><ele>0.0</ele><time>2026-04-27T06:32:37Z</time></trkpt><trkpt lat="41.7733654433535" lon="12.236396668937756"><ele>0.0</ele><time>2026-04-27T06:32:38Z</time></trkpt><trkpt lat="41.773425163641846" lon="12.236359129827392"><ele>0.0</ele><time>2026-04-27T06:32:39Z</time></trkpt><trkpt lat="41.77351233357428" lon="12.236347744799069"><ele>0.4</ele><time>2026-04-27T06:32:40Z</time></trkpt><trkpt lat="41.773590534426816" lon="12.236289569531035"><ele>0.8</ele><time>2026-04-27T06:32:41Z</time></trkpt><trkpt lat="41.7736791991751" lon="12.236244213076265"><ele>1.2000000000000002</ele><time>2026-04-27T06:32:42Z</time></trkpt><trkpt lat="41.77376695519215" lon="12.236190931557914"><ele>1.6</ele><time>2026-04-27T06:32:43Z</time></trkpt><trkpt lat="41.77386174456578" lon="12.236143723285128"><ele>2.0</ele><time>2026-04-27T06:32:44Z</time></trkpt><trkpt lat="41.773958556055796" lon="12.236090673785105"><ele>2.0</ele><time>2026-04-27T06:32:45Z</time></trkpt><trkpt lat="41.774047017775644" lon="12.236038312112946"><ele>2.0</ele><time>2026-04-27T06:32:46Z</time></trkpt><trkpt lat="41.77412599917338" lon="12.236003937177376"><ele>2.0</ele><time>2026-04-27T06:32:47Z</time></trkpt><trkpt lat="41.77419610171996" lon="12.235962744988425"><ele>2.0</ele><time>2026-04-27T06:32:48Z</time></trkpt><trkpt lat="41.77428973099605" lon="12.235934740683664"><ele>2.0</ele><time>2026-04-27T06:32:50Z</time></trkpt><trkpt lat="41.77424332603175" lon="12.235720229193674"><ele>1.8</ele><time>2026-04-27T06:32:52Z</time></trkpt><trkpt lat="41.774198650486746" lon="12.235634135252221"><ele>1.6</ele><time>2026-04-27T06:32:53Z</time></trkpt><trkpt lat="41.77414534375774" lon="12.235511708230076"><ele>1.4000000000000001</ele><time>2026-04-27T06:32:54Z</time></trkpt><trkpt lat="41.77412727367997" lon="12.235393582269117"><ele>1.2000000000000002</ele><time>2026-04-27T06:32:55Z</time></trkpt><trkpt lat="41.77409215545796" lon="12.235281604886499"><ele>1.0</ele><time>2026-04-27T06:32:56Z</time></trkpt><trkpt lat="41.77410542515148" lon="12.235154916739422"><ele>1.0</ele><time>2026-04-27T06:32:57Z</time></trkpt><trkpt lat="41.7740654300706" lon="12.235023533138774"><ele>1.0</ele><time>2026-04-27T06:32:58Z</time></trkpt><trkpt lat="41.774067147929856" lon="12.234905865249516"><ele>1.0</ele><time>2026-04-27T06:32:59Z</time></trkpt><trkpt lat="41.774054052863924" lon="12.234809693792883"><ele>1.0</ele><time>2026-04-27T06:33:00Z</time></trkpt><trkpt lat="41.7739560432668" lon="12.234732602422314"><ele>1.0</ele><time>2026-04-27T06:33:02Z</time></trkpt><trkpt lat="41.773877962119464" lon="12.234737861369007"><ele>1.0</ele><time>2026-04-27T06:33:03Z</time></trkpt><trkpt lat="41.77379241896277" lon="12.234756779353825"><ele>1.0</ele><time>2026-04-27T06:33:04Z</time></trkpt><trkpt lat="41.773701255541326" lon="12.234767843030134"><ele>1.0</ele><time>2026-04-27T06:33:05Z</time></trkpt><trkpt lat="41.77361587544513" lon="12.23476846940997"><ele>1.0</ele><time>2026-04-27T06:33:06Z</time></trkpt><trkpt lat="41.77354075711392" lon="12.234786706947961"><ele>1.0</ele><time>2026-04-27T06:33:07Z</time></trkpt><trkpt lat="41.773422673320724" lon="12.23473300288302"><ele>1.0</ele><time>2026-04-27T06:33:09Z</time></trkpt><trkpt lat="41.77340934716808" lon="12.234558265235176"><ele>1.0</ele><time>2026-04-27T06:33:11Z</time></trkpt><trkpt lat="41.773399767885344" lon="12.234441731051687"><ele>1.0</ele><time>2026-04-27T06:33:12Z</time></trkpt><trkpt lat="41.77339546818521" lon="12.234322673472562"><ele>1.0</ele><time>2026-04-27T06:33:13Z</time></trkpt><trkpt lat="41.773396988706395" lon="12.23420082691319"><ele>1.0</ele><time>2026-04-27T06:33:14Z</time></trkpt><trkpt lat="41.773391879113376" lon="12.23408615409678"><ele>0.9999999999999999</ele><time>2026-04-27T06:33:15Z</time></trkpt><trkpt lat="41.77339541818221" lon="12.233985135741799"><ele>1.0</ele><time>2026-04-27T06:33:16Z</time></trkpt><trkpt lat="41.773402980880256" lon="12.233889087886164"><ele>1.0</ele><time>2026-04-27T06:33:17Z</time></trkpt><trkpt lat="41.773408403483884" lon="12.233793675505774"><ele>1.0</ele><time>2026-04-27T06:33:18Z</time></trkpt><trkpt lat="41.7734148876599" lon="12.233708354060148"><ele>0.9999999999999999</ele><time>2026-04-27T06:33:19Z</time></trkpt><trkpt lat="41.77341157154509" lon="12.233566298988794"><ele>1.0</ele><time>2026-04-27T06:33:21Z</time></trkpt><trkpt lat="41.77343199175847" lon="12.233436118234419"><ele>1.2000000000000002</ele><time>2026-04-27T06:33:29Z</time></trkpt><trkpt lat="41.773587628800364" lon="12.233419862802302"><ele>1.4000000000000001</ele><time>2026-04-27T06:33:35Z</time></trkpt><trkpt lat="41.77367286598637" lon="12.23343279783935"><ele>1.6</ele><time>2026-04-27T06:33:37Z</time></trkpt><trkpt lat="41.773761728411856" lon="12.233432457612505"><ele>1.8</ele><time>2026-04-27T06:33:39Z</time></trkpt><trkpt lat="41.7738707593757" lon="12.233435359828094"><ele>2.0</ele><time>2026-04-27T06:33:41Z</time></trkpt><trkpt lat="41.77399628606585" lon="12.233436171752254"><ele>1.9999999999999998</ele><time>2026-04-27T06:33:43Z</time></trkpt><trkpt lat="41.77407754871374" lon="12.233449772007452"><ele>2.0</ele><time>2026-04-27T06:33:44Z</time></trkpt><trkpt lat="41.77415882182188" lon="12.233461943770786"><ele>2.0</ele><time>2026-04-27T06:33:45Z</time></trkpt><trkpt lat="41.774237203864594" lon="12.233468214019599"><ele>2.0</ele><time>2026-04-27T06:33:46Z</time></trkpt><trkpt lat="41.774311537891606" lon="12.233470067300061"><ele>1.9999999999999998</ele><time>2026-04-27T06:33:47Z</time></trkpt><trkpt lat="41.77438672491584" lon="12.23348195883118"><ele>2.0</ele><time>2026-04-27T06:33:48Z</time></trkpt><trkpt lat="41.77444919240021" lon="12.233495858196061"><ele>2.1666666666666665</ele><time>2026-04-27T06:33:49Z</time></trkpt><trkpt lat="41.77457065427436" lon="12.233489144988827"><ele>2.333333333333333</ele><time>2026-04-27T06:33:51Z</time></trkpt><trkpt lat="41.77463629836379" lon="12.233477227994058"><ele>2.5</ele><time>2026-04-27T06:33:52Z</time></trkpt><trkpt lat="41.7747086659072" lon="12.233480701712898"><ele>2.6666666666666665</ele><time>2026-04-27T06:33:53Z</time></trkpt><trkpt lat="41.77477949791469" lon="12.233486554306015"><ele>2.8333333333333335</ele><time>2026-04-27T06:33:54.001Z</time></trkpt><trkpt lat="41.77484253364453" lon="12.233487787426041"><ele>3.0</ele><time>2026-04-27T06:33:55.001Z</time></trkpt><trkpt lat="41.774952987861255" lon="12.23350701915047"><ele>3.0</ele><time>2026-04-27T06:33:57.001Z</time></trkpt><trkpt lat="41.77502998548498" lon="12.233496537696036"><ele>3.0</ele><time>2026-04-27T06:33:59.001Z</time></trkpt><trkpt lat="41.77508931705748" lon="12.233270576596034"><ele>3.0</ele><time>2026-04-27T06:34:00.001Z</time></trkpt><trkpt lat="41.77508424582514" lon="12.233171231015643"><ele>3.0</ele><time>2026-04-27T06:34:01.001Z</time></trkpt><trkpt lat="41.77505598686654" lon="12.23305769499712"><ele>3.0</ele><time>2026-04-27T06:34:02.001Z</time></trkpt><trkpt lat="41.77504685230725" lon="12.23292715478027"><ele>2.8</ele><time>2026-04-27T06:34:03.001Z</time></trkpt><trkpt lat="41.77504116494457" lon="12.232791898080764"><ele>2.5999999999999996</ele><time>2026-04-27T06:34:04.001Z</time></trkpt><trkpt lat="41.775039161837555" lon="12.232665915600423"><ele>2.4000000000000004</ele><time>2026-04-27T06:34:05.001Z</time></trkpt><trkpt lat="41.775033043740564" lon="12.232558252583484"><ele>2.2</ele><time>2026-04-27T06:34:06.001Z</time></trkpt><trkpt lat="41.77502524626077" lon="12.232446809413247"><ele>2.0</ele><time>2026-04-27T06:34:07Z</time></trkpt><trkpt lat="41.77501129227478" lon="12.232321224876921"><ele>2.2</ele><time>2026-04-27T06:34:08Z</time></trkpt><trkpt lat="41.7749982438535" lon="12.232201733925123"><ele>2.4000000000000004</ele><time>2026-04-27T06:34:09Z</time></trkpt><trkpt lat="41.77499383282795" lon="12.23208277866142"><ele>2.5999999999999996</ele><time>2026-04-27T06:34:10Z</time></trkpt><trkpt lat="41.77500133381555" lon="12.231939746775431"><ele>2.8</ele><time>2026-04-27T06:34:11Z</time></trkpt><trkpt lat="41.774995167035485" lon="12.231812365768947"><ele>3.0</ele><time>2026-04-27T06:34:12Z</time></trkpt><trkpt lat="41.774980725658864" lon="12.231702201994024"><ele>3.0</ele><time>2026-04-27T06:34:13Z</time></trkpt><trkpt lat="41.7749765958864" lon="12.231596097836073"><ele>3.0</ele><time>2026-04-27T06:34:14Z</time></trkpt><trkpt lat="41.77497347903286" lon="12.231482871020264"><ele>3.0</ele><time>2026-04-27T06:34:15Z</time></trkpt><trkpt lat="41.77496958142756" lon="12.231364352462464"><ele>3.0</ele><time>2026-04-27T06:34:16Z</time></trkpt><trkpt lat="41.77495753573965" lon="12.231251881627703"><ele>3.0</ele><time>2026-04-27T06:34:17Z</time></trkpt><trkpt lat="41.774951822083544" lon="12.231140987919943"><ele>3.0</ele><time>2026-04-27T06:34:18Z</time></trkpt><trkpt lat="41.77494682981577" lon="12.231018923481102"><ele>3.0</ele><time>2026-04-27T06:34:19Z</time></trkpt><trkpt lat="41.77494168999878" lon="12.230898408352378"><ele>3.0</ele><time>2026-04-27T06:34:20Z</time></trkpt><trkpt lat="41.77493526808831" lon="12.230769390262953"><ele>3.0</ele><time>2026-04-27T06:34:21Z</time></trkpt><trkpt lat="41.77492809458207" lon="12.230640418647024"><ele>3.0</ele><time>2026-04-27T06:34:22Z</time></trkpt><trkpt lat="41.77492498374556" lon="12.230507000434882"><ele>3.0</ele><time>2026-04-27T06:34:23Z</time></trkpt><trkpt lat="41.77492239638539" lon="12.230370708118878"><ele>2.8</ele><time>2026-04-27T06:34:24Z</time></trkpt><trkpt lat="41.774913054378196" lon="12.230225545952488"><ele>2.5999999999999996</ele><time>2026-04-27T06:34:25Z</time></trkpt><trkpt lat="41.774899871653815" lon="12.23008326855055"><ele>2.4000000000000004</ele><time>2026-04-27T06:34:26Z</time></trkpt><trkpt lat="41.77488937528723" lon="12.229957882733652"><ele>2.2</ele><time>2026-04-27T06:34:27Z</time></trkpt><trkpt lat="41.774884209206874" lon="12.229847089408294"><ele>2.0</ele><time>2026-04-27T06:34:28Z</time></trkpt><trkpt lat="41.774872806274914" lon="12.22969611094427"><ele>1.9999999999999998</ele><time>2026-04-27T06:34:30Z</time></trkpt><trkpt lat="41.774874422429555" lon="12.229559676735274"><ele>2.0</ele><time>2026-04-27T06:34:32Z</time></trkpt><trkpt lat="41.774871365891556" lon="12.229471513163869"><ele>2.0</ele><time>2026-04-27T06:34:34Z</time></trkpt><trkpt lat="41.77486917525712" lon="12.229356133789512"><ele>2.0</ele><time>2026-04-27T06:34:37Z</time></trkpt><trkpt lat="41.77485711979878" lon="12.229257319192754"><ele>1.9999999999999998</ele><time>2026-04-27T06:34:40Z</time></trkpt><trkpt lat="41.774860901297316" lon="12.229162988519674"><ele>2.0</ele><time>2026-04-27T06:37:58.683Z</time></trkpt><trkpt lat="41.77485639563202" lon="12.229247545902913"><ele>2.0</ele><time>2026-04-27T06:38:18Z</time></trkpt><trkpt lat="41.77480838371517" lon="12.229318890294277"><ele>2.0</ele><time>2026-04-27T06:38:29Z</time></trkpt><trkpt lat="41.77474886253296" lon="12.229236247851173"><ele>2.0</ele><time>2026-04-27T06:39:18Z</time></trkpt><trkpt lat="41.77490865005325" lon="12.229259993603124"><ele>2.0</ele><time>2026-04-27T06:40:58Z</time></trkpt><trkpt lat="41.7749419880066" lon="12.22941254705802"><ele>2.0</ele><time>2026-04-27T06:42:59Z</time></trkpt><trkpt lat="41.77493238331549" lon="12.229570038424024"><ele>2.0</ele><time>2026-04-27T06:43:00Z</time></trkpt><trkpt lat="41.77493474805623" lon="12.229691587253782"><ele>2.0</ele><time>2026-04-27T06:43:01Z</time></trkpt><trkpt lat="41.77486106773577" lon="12.22984409353884"><ele>2.0</ele><time>2026-04-27T06:43:02Z</time></trkpt><trkpt lat="41.77487088231596" lon="12.230033703647022"><ele>2.0</ele><time>2026-04-27T06:43:03Z</time></trkpt><trkpt lat="41.77487983820128" lon="12.230206724466743"><ele>2.0</ele><time>2026-04-27T06:43:04Z</time></trkpt><trkpt lat="41.77488768505898" lon="12.230358319736794"><ele>2.0</ele><time>2026-04-27T06:43:05Z</time></trkpt><trkpt lat="41.77489443648424" lon="12.230488752039033"><ele>2.0</ele><time>2026-04-27T06:43:06Z</time></trkpt><trkpt lat="41.77490009777061" lon="12.23059812375614"><ele>2.0</ele><time>2026-04-27T06:43:07Z</time></trkpt><trkpt lat="41.77490584700976" lon="12.230709194638784"><ele>2.0</ele><time>2026-04-27T06:43:09Z</time></trkpt><trkpt lat="41.774924770222135" lon="12.230813925215596"><ele>2.2</ele><time>2026-04-27T06:43:12Z</time></trkpt><trkpt lat="41.77492887503626" lon="12.230906583189835"><ele>2.4000000000000004</ele><time>2026-04-27T06:43:14Z</time></trkpt><trkpt lat="41.77493377175382" lon="12.231039844501034"><ele>2.5999999999999996</ele><time>2026-04-27T06:43:16Z</time></trkpt><trkpt lat="41.774944072868436" lon="12.231203205560854"><ele>2.8</ele><time>2026-04-27T06:43:18Z</time></trkpt><trkpt lat="41.77495383617321" lon="12.231377677616848"><ele>3.0</ele><time>2026-04-27T06:43:20Z</time></trkpt><trkpt lat="41.77495691678596" lon="12.231467627450053"><ele>3.0</ele><time>2026-04-27T06:43:21Z</time></trkpt><trkpt lat="41.7749612466537" lon="12.231567671943363"><ele>3.0</ele><time>2026-04-27T06:43:22Z</time></trkpt><trkpt lat="41.77496520256418" lon="12.23167455222565"><ele>3.0</ele><time>2026-04-27T06:43:23Z</time></trkpt><trkpt lat="41.77496743400364" lon="12.231786922672006"><ele>3.0</ele><time>2026-04-27T06:43:24Z</time></trkpt><trkpt lat="41.774972873131674" lon="12.231893124677091"><ele>3.0</ele><time>2026-04-27T06:43:25Z</time></trkpt><trkpt lat="41.774955837982475" lon="12.232034300352492"><ele>3.0</ele><time>2026-04-27T06:43:27Z</time></trkpt><trkpt lat="41.77495404271252" lon="12.232149434262897"><ele>3.0</ele><time>2026-04-27T06:43:29Z</time></trkpt><trkpt lat="41.77498164575259" lon="12.232237159012747"><ele>3.0</ele><time>2026-04-27T06:43:55Z</time></trkpt><trkpt lat="41.77497434577661" lon="12.23207182536974"><ele>3.0</ele><time>2026-04-27T06:43:59Z</time></trkpt><trkpt lat="41.774970869557606" lon="12.231899715504104"><ele>3.0</ele><time>2026-04-27T06:44:00Z</time></trkpt><trkpt lat="41.77496492191503" lon="12.231797462877797"><ele>3.0</ele><time>2026-04-27T06:44:01Z</time></trkpt><trkpt lat="41.77500845727695" lon="12.231881697958318"><ele>3.0</ele><time>2026-04-27T06:45:28Z</time></trkpt><trkpt lat="41.77500764569191" lon="12.232018576975774"><ele>3.0</ele><time>2026-04-27T06:45:30Z</time></trkpt><trkpt lat="41.77499933182013" lon="12.232190434289349"><ele>3.0</ele><time>2026-04-27T06:45:32Z</time></trkpt><trkpt lat="41.775003854492304" lon="12.23229148028102"><ele>3.0</ele><time>2026-04-27T06:45:33Z</time></trkpt><trkpt lat="41.77501070074996" lon="12.232396949584986"><ele>3.0</ele><time>2026-04-27T06:45:34Z</time></trkpt><trkpt lat="41.77501386765407" lon="12.23249659639489"><ele>2.8</ele><time>2026-04-27T06:45:35Z</time></trkpt><trkpt lat="41.77501825529622" lon="12.232598201710282"><ele>2.5999999999999996</ele><time>2026-04-27T06:45:36Z</time></trkpt><trkpt lat="41.77502270537183" lon="12.232688761235957"><ele>2.4000000000000004</ele><time>2026-04-27T06:45:37Z</time></trkpt><trkpt lat="41.77503074534353" lon="12.232819820814582"><ele>2.2</ele><time>2026-04-27T06:45:38Z</time></trkpt><trkpt lat="41.77504565023619" lon="12.233017027253585"><ele>2.0</ele><time>2026-04-27T06:45:39Z</time></trkpt><trkpt lat="41.77504703422119" lon="12.233133407258402"><ele>2.2</ele><time>2026-04-27T06:45:40Z</time></trkpt><trkpt lat="41.77501985780848" lon="12.233244917654961"><ele>2.4000000000000004</ele><time>2026-04-27T06:45:41Z</time></trkpt><trkpt lat="41.77502440834246" lon="12.233379913145725"><ele>2.5999999999999996</ele><time>2026-04-27T06:45:42Z</time></trkpt><trkpt lat="41.77503141351681" lon="12.233528189312272"><ele>2.8</ele><time>2026-04-27T06:45:43Z</time></trkpt><trkpt lat="41.77503630658588" lon="12.233635479480274"><ele>3.0</ele><time>2026-04-27T06:45:44Z</time></trkpt><trkpt lat="41.7750416797919" lon="12.233753060580728"><ele>3.0</ele><time>2026-04-27T06:45:45Z</time></trkpt><trkpt lat="41.77504752299717" lon="12.233880926585943"><ele>3.0</ele><time>2026-04-27T06:45:46Z</time></trkpt><trkpt lat="41.77505385278362" lon="12.234019440401584"><ele>3.0</ele><time>2026-04-27T06:45:47Z</time></trkpt><trkpt lat="41.77506104826151" lon="12.234176897979603"><ele>3.0</ele><time>2026-04-27T06:45:48Z</time></trkpt><trkpt lat="41.77508499788991" lon="12.234343618948062"><ele>3.0</ele><time>2026-04-27T06:45:49Z</time></trkpt><trkpt lat="41.77509303228865" lon="12.234506777454941"><ele>2.8</ele><time>2026-04-27T06:45:50Z</time></trkpt><trkpt lat="41.77509389566831" lon="12.23466253890561"><ele>2.5999999999999996</ele><time>2026-04-27T06:45:51Z</time></trkpt><trkpt lat="41.775106816124755" lon="12.234808145996853"><ele>2.4000000000000004</ele><time>2026-04-27T06:45:52Z</time></trkpt><trkpt lat="41.77511459400579" lon="12.234946324303992"><ele>2.2</ele><time>2026-04-27T06:45:53Z</time></trkpt><trkpt lat="41.77512061488407" lon="12.23508997716233"><ele>2.0</ele><time>2026-04-27T06:45:54Z</time></trkpt><trkpt lat="41.775126656439426" lon="12.235240659950726"><ele>2.0</ele><time>2026-04-27T06:45:55Z</time></trkpt><trkpt lat="41.775136400020585" lon="12.23539567143811"><ele>2.0</ele><time>2026-04-27T06:45:56Z</time></trkpt><trkpt lat="41.77513707504954" lon="12.235555653268037"><ele>2.0</ele><time>2026-04-27T06:45:57Z</time></trkpt><trkpt lat="41.77514768925972" lon="12.2357144308864"><ele>2.0</ele><time>2026-04-27T06:45:58Z</time></trkpt><trkpt lat="41.77515261332842" lon="12.235873691262324"><ele>1.5</ele><time>2026-04-27T06:45:59Z</time></trkpt><trkpt lat="41.77514624172707" lon="12.236033742473866"><ele>1.0</ele><time>2026-04-27T06:46:00Z</time></trkpt><trkpt lat="41.77514791762579" lon="12.236186550758978"><ele>0.5</ele><time>2026-04-27T06:46:01Z</time></trkpt><trkpt lat="41.77514843344451" lon="12.23635015193127"><ele>0.0</ele><time>2026-04-27T06:46:02Z</time></trkpt><trkpt lat="41.77517886283078" lon="12.236491566964101"><ele>0.4</ele><time>2026-04-27T06:46:03Z</time></trkpt><trkpt lat="41.77519534668909" lon="12.236634328971226"><ele>0.8</ele><time>2026-04-27T06:46:04Z</time></trkpt><trkpt lat="41.77520602740863" lon="12.236783423300228"><ele>1.2000000000000002</ele><time>2026-04-27T06:46:05Z</time></trkpt><trkpt lat="41.77520176886408" lon="12.236902471832964"><ele>1.6</ele><time>2026-04-27T06:46:06Z</time></trkpt><trkpt lat="41.775206762805865" lon="12.236997086203944"><ele>2.0</ele><time>2026-04-27T06:46:07Z</time></trkpt><trkpt lat="41.77521409021239" lon="12.23712133655934"><ele>2.0</ele><time>2026-04-27T06:46:09Z</time></trkpt><trkpt lat="41.77522019901858" lon="12.237238247117038"><ele>2.0</ele><time>2026-04-27T06:46:11Z</time></trkpt><trkpt lat="41.77523361980762" lon="12.237409578740502"><ele>2.0</ele><time>2026-04-27T06:46:13Z</time></trkpt><trkpt lat="41.77523699401364" lon="12.237515177981573"><ele>2.0</ele><time>2026-04-27T06:46:14Z</time></trkpt><trkpt lat="41.77524532956005" lon="12.237635077250482"><ele>2.0</ele><time>2026-04-27T06:46:15Z</time></trkpt><trkpt lat="41.775253942655326" lon="12.237745558509687"><ele>1.5</ele><time>2026-04-27T06:46:16Z</time></trkpt><trkpt lat="41.775258802654974" lon="12.237861896683867"><ele>1.0</ele><time>2026-04-27T06:46:17Z</time></trkpt><trkpt lat="41.775644911207934" lon="12.241892067585413"><ele>0.6000000000000001</ele><time>2026-04-27T06:47:18Z</time></trkpt><trkpt lat="41.775698180417166" lon="12.242010730808765"><ele>0.20000000000000007</ele><time>2026-04-27T06:47:19Z</time></trkpt><trkpt lat="41.77574891853906" lon="12.242131961034564"><ele>-0.20000000000000007</ele><time>2026-04-27T06:47:20Z</time></trkpt><trkpt lat="41.77580261828992" lon="12.242251353448854"><ele>-0.6000000000000001</ele><time>2026-04-27T06:47:21Z</time></trkpt><trkpt lat="41.77585511794517" lon="12.242369746775658"><ele>-1.0</ele><time>2026-04-27T06:47:22Z</time></trkpt><trkpt lat="41.77590703323294" lon="12.242485944257277"><ele>-1.0</ele><time>2026-04-27T06:47:23Z</time></trkpt><trkpt lat="41.77596533706352" lon="12.24261634284562"><ele>-1.0</ele><time>2026-04-27T06:47:24Z</time></trkpt><trkpt lat="41.7760217982982" lon="12.242742826380818"><ele>-1.0</ele><time>2026-04-27T06:47:25Z</time></trkpt><trkpt lat="41.776077623314876" lon="12.242863054494475"><ele>-1.0</ele><time>2026-04-27T06:47:26Z</time></trkpt><trkpt lat="41.7761299929489" lon="12.242989357258825"><ele>-1.0</ele><time>2026-04-27T06:47:27Z</time></trkpt><trkpt lat="41.77618274438672" lon="12.243110564644159"><ele>-0.6000000000000001</ele><time>2026-04-27T06:47:28Z</time></trkpt><trkpt lat="41.776241010558344" lon="12.243234532056778"><ele>-0.20000000000000007</ele><time>2026-04-27T06:47:29Z</time></trkpt><trkpt lat="41.77629500191683" lon="12.243357553530611"><ele>0.20000000000000007</ele><time>2026-04-27T06:47:30Z</time></trkpt><trkpt lat="41.77635232961057" lon="12.243479633693948"><ele>0.6000000000000001</ele><time>2026-04-27T06:47:31Z</time></trkpt><trkpt lat="41.7764064523636" lon="12.243604939158807"><ele>1.0</ele><time>2026-04-27T06:47:32Z</time></trkpt><trkpt lat="41.776461627587096" lon="12.24372503991863"><ele>1.0</ele><time>2026-04-27T06:47:33Z</time></trkpt><trkpt lat="41.776511046485325" lon="12.243845065387399"><ele>1.0</ele><time>2026-04-27T06:47:34Z</time></trkpt><trkpt lat="41.77656359518551" lon="12.243963296325482"><ele>1.0</ele><time>2026-04-27T06:47:35Z</time></trkpt><trkpt lat="41.77661641066045" lon="12.244080792634394"><ele>1.0</ele><time>2026-04-27T06:47:36Z</time></trkpt><trkpt lat="41.77666691251264" lon="12.244194978530997"><ele>1.0</ele><time>2026-04-27T06:47:37Z</time></trkpt><trkpt lat="41.776718105549676" lon="12.244304014932197"><ele>1.4</ele><time>2026-04-27T06:47:38Z</time></trkpt><trkpt lat="41.776769969732044" lon="12.244421682185672"><ele>1.8</ele><time>2026-04-27T06:47:39Z</time></trkpt><trkpt lat="41.77681622565295" lon="12.244533518062562"><ele>2.1999999999999997</ele><time>2026-04-27T06:47:40Z</time></trkpt><trkpt lat="41.77686314888954" lon="12.24464727057643"><ele>2.6</ele><time>2026-04-27T06:47:41Z</time></trkpt><trkpt lat="41.77691293503049" lon="12.244757426775394"><ele>3.0</ele><time>2026-04-27T06:47:42Z</time></trkpt><trkpt lat="41.77696344134532" lon="12.24486996944668"><ele>3.0</ele><time>2026-04-27T06:47:43Z</time></trkpt><trkpt lat="41.77701804821208" lon="12.24498653292674"><ele>3.0</ele><time>2026-04-27T06:47:44Z</time></trkpt><trkpt lat="41.77707589069367" lon="12.245112935142211"><ele>3.0</ele><time>2026-04-27T06:47:45Z</time></trkpt><trkpt lat="41.77713688742983" lon="12.245263807443779"><ele>3.0</ele><time>2026-04-27T06:47:46Z</time></trkpt><trkpt lat="41.77721063070406" lon="12.245421745757723"><ele>3.0</ele><time>2026-04-27T06:47:47Z</time></trkpt><trkpt lat="41.777294167136574" lon="12.245587754592892"><ele>3.0</ele><time>2026-04-27T06:47:48Z</time></trkpt><trkpt lat="41.777360142231565" lon="12.245772174693048"><ele>3.0</ele><time>2026-04-27T06:47:49Z</time></trkpt><trkpt lat="41.77745241223003" lon="12.245943392692588"><ele>3.0</ele><time>2026-04-27T06:47:50Z</time></trkpt><trkpt lat="41.77752346757251" lon="12.246145595083544"><ele>3.0</ele><time>2026-04-27T06:47:51Z</time></trkpt><trkpt lat="41.77761091437432" lon="12.246343072787715"><ele>3.0</ele><time>2026-04-27T06:47:52Z</time></trkpt><trkpt lat="41.777697822956334" lon="12.246538116609155"><ele>3.333333333333333</ele><time>2026-04-27T06:47:53Z</time></trkpt><trkpt lat="41.777787906250374" lon="12.246740284976665"><ele>3.6666666666666665</ele><time>2026-04-27T06:47:54Z</time></trkpt><trkpt lat="41.77787737389049" lon="12.246941414610404"><ele>4.0</ele><time>2026-04-27T06:47:55Z</time></trkpt><trkpt lat="41.77796399576707" lon="12.247137491681537"><ele>3.6666666666666665</ele><time>2026-04-27T06:47:56Z</time></trkpt><trkpt lat="41.77805239666138" lon="12.247337595976788"><ele>3.333333333333333</ele><time>2026-04-27T06:47:57Z</time></trkpt><trkpt lat="41.77813981362695" lon="12.247536769937078"><ele>3.0</ele><time>2026-04-27T06:47:58Z</time></trkpt><trkpt lat="41.778224781797526" lon="12.24773079847995"><ele>3.0</ele><time>2026-04-27T06:47:59Z</time></trkpt><trkpt lat="41.77830339030517" lon="12.247907196528978"><ele>3.0</ele><time>2026-04-27T06:48:00Z</time></trkpt><trkpt lat="41.778389550323396" lon="12.248057840459548"><ele>3.0</ele><time>2026-04-27T06:48:01Z</time></trkpt><trkpt lat="41.778457958910636" lon="12.248215561242116"><ele>3.0</ele><time>2026-04-27T06:48:02Z</time></trkpt><trkpt lat="41.77852174759659" lon="12.248368971091857"><ele>2.75</ele><time>2026-04-27T06:48:03Z</time></trkpt><trkpt lat="41.778591304499784" lon="12.248529059229242"><ele>2.5</ele><time>2026-04-27T06:48:04Z</time></trkpt><trkpt lat="41.77866804899817" lon="12.248699981980863"><ele>2.25</ele><time>2026-04-27T06:48:05Z</time></trkpt><trkpt lat="41.77874133275926" lon="12.248891026510657"><ele>2.0</ele><time>2026-04-27T06:48:06Z</time></trkpt><trkpt lat="41.778822746299454" lon="12.249075633811303"><ele>1.6666666666666665</ele><time>2026-04-27T06:48:07Z</time></trkpt><trkpt lat="41.778904262557376" lon="12.24926036413876"><ele>1.3333333333333333</ele><time>2026-04-27T06:48:08Z</time></trkpt><trkpt lat="41.778981742670034" lon="12.24943588661079"><ele>1.0</ele><time>2026-04-27T06:48:09Z</time></trkpt><trkpt lat="41.77907404635988" lon="12.249604153590091"><ele>2.0</ele><time>2026-04-27T06:48:10Z</time></trkpt><trkpt lat="41.77914592131425" lon="12.24980566974029"><ele>3.0</ele><time>2026-04-27T06:48:11Z</time></trkpt><trkpt lat="41.779232136510096" lon="12.249997200108478"><ele>4.0</ele><time>2026-04-27T06:48:12Z</time></trkpt><trkpt lat="41.779315579136146" lon="12.250182569897726"><ele>4.0</ele><time>2026-04-27T06:48:13Z</time></trkpt><trkpt lat="41.7794135865136" lon="12.250357855473023"><ele>4.0</ele><time>2026-04-27T06:48:14Z</time></trkpt><trkpt lat="41.779494873801646" lon="12.250541264297551"><ele>4.0</ele><time>2026-04-27T06:48:15Z</time></trkpt><trkpt lat="41.77957416521507" lon="12.250720150887716"><ele>4.0</ele><time>2026-04-27T06:48:16Z</time></trkpt><trkpt lat="41.7796505602904" lon="12.250891341367174"><ele>4.0</ele><time>2026-04-27T06:48:17Z</time></trkpt><trkpt lat="41.78186679559423" lon="12.254607684909985"><ele>3.2</ele><time>2026-04-27T06:49:18Z</time></trkpt><trkpt lat="41.781868031543624" lon="12.254487414049953"><ele>2.4000000000000004</ele><time>2026-04-27T06:49:19Z</time></trkpt><trkpt lat="41.781877414614975" lon="12.254359975883892"><ele>1.6</ele><time>2026-04-27T06:49:20Z</time></trkpt><trkpt lat="41.78189063878601" lon="12.254234796522905"><ele>0.8</ele><time>2026-04-27T06:49:21Z</time></trkpt><trkpt lat="41.781913367256855" lon="12.254111277394147"><ele>0.0</ele><time>2026-04-27T06:49:22Z</time></trkpt><trkpt lat="41.78194724709947" lon="12.25397755133373"><ele>0.25</ele><time>2026-04-27T06:49:23Z</time></trkpt><trkpt lat="41.78198475129316" lon="12.253840779227783"><ele>0.5</ele><time>2026-04-27T06:49:24Z</time></trkpt><trkpt lat="41.78203201811222" lon="12.2537027606719"><ele>0.75</ele><time>2026-04-27T06:49:25Z</time></trkpt><trkpt lat="41.782088151696726" lon="12.253561715483727"><ele>1.0</ele><time>2026-04-27T06:49:26Z</time></trkpt><trkpt lat="41.78222137387594" lon="12.253292304687596"><ele>1.0</ele><time>2026-04-27T06:49:28Z</time></trkpt><trkpt lat="41.78230482926434" lon="12.253176014529132"><ele>1.0</ele><time>2026-04-27T06:49:29Z</time></trkpt><trkpt lat="41.782402451295816" lon="12.253063762382542"><ele>1.0</ele><time>2026-04-27T06:49:30Z</time></trkpt><trkpt lat="41.78249954383707" lon="12.252972686933242"><ele>1.0</ele><time>2026-04-27T06:49:31Z</time></trkpt><trkpt lat="41.78259906881947" lon="12.252887403940944"><ele>1.6</ele><time>2026-04-27T06:49:32Z</time></trkpt><trkpt lat="41.782699796903785" lon="12.252820178869912"><ele>2.2</ele><time>2026-04-27T06:49:33Z</time></trkpt><trkpt lat="41.78279886281338" lon="12.252766803894922"><ele>2.8000000000000003</ele><time>2026-04-27T06:49:34Z</time></trkpt><trkpt lat="41.78288927639676" lon="12.252721132853896"><ele>3.4000000000000004</ele><time>2026-04-27T06:49:35Z</time></trkpt><trkpt lat="41.7829744582083" lon="12.252677591939815"><ele>4.0</ele><time>2026-04-27T06:49:36Z</time></trkpt><trkpt lat="41.78305968889761" lon="12.252634769732921"><ele>3.9999999999999996</ele><time>2026-04-27T06:49:37Z</time></trkpt><trkpt lat="41.783146195989914" lon="12.252593881621014"><ele>4.0</ele><time>2026-04-27T06:49:38Z</time></trkpt><trkpt lat="41.78323079661904" lon="12.252554464118276"><ele>4.0</ele><time>2026-04-27T06:49:39Z</time></trkpt><trkpt lat="41.78331778898348" lon="12.252520365393966"><ele>4.0</ele><time>2026-04-27T06:49:40Z</time></trkpt><trkpt lat="41.783401403815844" lon="12.2524932754853"><ele>3.9999999999999996</ele><time>2026-04-27T06:49:41Z</time></trkpt><trkpt lat="41.78347981818511" lon="12.252433850982408"><ele>4.0</ele><time>2026-04-27T06:49:42Z</time></trkpt><trkpt lat="41.78355408335049" lon="12.252469473197795"><ele>3.2</ele><time>2026-04-27T06:49:43Z</time></trkpt><trkpt lat="41.78363624631305" lon="12.252467254395345"><ele>2.4000000000000004</ele><time>2026-04-27T06:49:44Z</time></trkpt><trkpt lat="41.78372834712763" lon="12.252466440946643"><ele>1.6</ele><time>2026-04-27T06:49:45Z</time></trkpt><trkpt lat="41.78382894574522" lon="12.2524551362948"><ele>0.8</ele><time>2026-04-27T06:49:46Z</time></trkpt><trkpt lat="41.783934087557" lon="12.252454498093186"><ele>0.0</ele><time>2026-04-27T06:49:47Z</time></trkpt><trkpt lat="41.784045797725554" lon="12.25245873712849"><ele>0.0</ele><time>2026-04-27T06:49:48Z</time></trkpt><trkpt lat="41.784164410779915" lon="12.252468533694211"><ele>0.0</ele><time>2026-04-27T06:49:49Z</time></trkpt><trkpt lat="41.78428792648121" lon="12.252473735965786"><ele>0.0</ele><time>2026-04-27T06:49:50Z</time></trkpt><trkpt lat="41.784410446750464" lon="12.252473744344703"><ele>0.0</ele><time>2026-04-27T06:49:51Z</time></trkpt><trkpt lat="41.78452273576483" lon="12.25245829807544"><ele>0.0</ele><time>2026-04-27T06:49:52Z</time></trkpt><trkpt lat="41.78462897292322" lon="12.25242884329239"><ele>0.0</ele><time>2026-04-27T06:49:53Z</time></trkpt><trkpt lat="41.78472608893308" lon="12.252383487517465"><ele>0.0</ele><time>2026-04-27T06:49:54Z</time></trkpt><trkpt lat="41.78483106305381" lon="12.252329280771193"><ele>0.0</ele><time>2026-04-27T06:49:55Z</time></trkpt><trkpt lat="41.784939097984626" lon="12.252283675351645"><ele>0.0</ele><time>2026-04-27T06:49:56Z</time></trkpt><trkpt lat="41.785066059976394" lon="12.252371164083256"><ele>0.0</ele><time>2026-04-27T06:49:57Z</time></trkpt><trkpt lat="41.785183451339854" lon="12.252428472410092"><ele>0.0</ele><time>2026-04-27T06:49:58Z</time></trkpt><trkpt lat="41.78530748541564" lon="12.252477295676911"><ele>0.0</ele><time>2026-04-27T06:49:59Z</time></trkpt><trkpt lat="41.78543093913807" lon="12.252531752802302"><ele>0.0</ele><time>2026-04-27T06:50:00Z</time></trkpt><trkpt lat="41.785549576106774" lon="12.252608336860728"><ele>0.0</ele><time>2026-04-27T06:50:01Z</time></trkpt><trkpt lat="41.7856405957899" lon="12.252742136950726"><ele>0.0</ele><time>2026-04-27T06:50:02Z</time></trkpt><trkpt lat="41.78574013768507" lon="12.252868977926429"><ele>0.0</ele><time>2026-04-27T06:50:03Z</time></trkpt><trkpt lat="41.785842853390875" lon="12.253012523346486"><ele>0.0</ele><time>2026-04-27T06:50:04Z</time></trkpt><trkpt lat="41.7859261841999" lon="12.253172999402725"><ele>0.0</ele><time>2026-04-27T06:50:05Z</time></trkpt><trkpt lat="41.78601290858281" lon="12.253333612631232"><ele>0.0</ele><time>2026-04-27T06:50:06Z</time></trkpt><trkpt lat="41.786103947115805" lon="12.253494869424307"><ele>0.0</ele><time>2026-04-27T06:50:07Z</time></trkpt><trkpt lat="41.78620033469977" lon="12.25366487651703"><ele>0.0</ele><time>2026-04-27T06:50:08Z</time></trkpt><trkpt lat="41.78629533116572" lon="12.253839545793987"><ele>0.0</ele><time>2026-04-27T06:50:09Z</time></trkpt><trkpt lat="41.78639140577127" lon="12.254020433225257"><ele>0.0</ele><time>2026-04-27T06:50:10Z</time></trkpt><trkpt lat="41.786490061126734" lon="12.25420133104808"><ele>0.6666666666666666</ele><time>2026-04-27T06:50:11Z</time></trkpt><trkpt lat="41.78658908730653" lon="12.254380387753052"><ele>1.3333333333333333</ele><time>2026-04-27T06:50:12Z</time></trkpt><trkpt lat="41.78668778158135" lon="12.254561886407641"><ele>2.0</ele><time>2026-04-27T06:50:13Z</time></trkpt><trkpt lat="41.78678523965577" lon="12.254744863873253"><ele>2.0</ele><time>2026-04-27T06:50:14Z</time></trkpt><trkpt lat="41.78688496202933" lon="12.254928908491731"><ele>2.0</ele><time>2026-04-27T06:50:15Z</time></trkpt><trkpt lat="41.78698361561573" lon="12.255109195183502"><ele>2.0</ele><time>2026-04-27T06:50:16Z</time></trkpt><trkpt lat="41.787080679335105" lon="12.255286698564147"><ele>3.0</ele><time>2026-04-27T06:50:17Z</time></trkpt><trkpt lat="41.786394800733206" lon="12.264868238152719"><ele>3.0</ele><time>2026-04-27T06:51:18Z</time></trkpt><trkpt lat="41.786488018241435" lon="12.26508212320105"><ele>3.0</ele><time>2026-04-27T06:51:19Z</time></trkpt><trkpt lat="41.786579520648274" lon="12.265297205274537"><ele>3.0</ele><time>2026-04-27T06:51:20Z</time></trkpt><trkpt lat="41.786677701605115" lon="12.265506998518992"><ele>3.333333333333333</ele><time>2026-04-27T06:51:21Z</time></trkpt><trkpt lat="41.786773824803106" lon="12.265722548761836"><ele>3.6666666666666665</ele><time>2026-04-27T06:51:22Z</time></trkpt><trkpt lat="41.786871712851855" lon="12.265933001085251"><ele>4.0</ele><time>2026-04-27T06:51:23Z</time></trkpt><trkpt lat="41.78696570095385" lon="12.266153695059328"><ele>4.0</ele><time>2026-04-27T06:51:24Z</time></trkpt><trkpt lat="41.787063000865885" lon="12.266372610791574"><ele>4.0</ele><time>2026-04-27T06:51:25Z</time></trkpt><trkpt lat="41.787162306897386" lon="12.266592684369671"><ele>4.0</ele><time>2026-04-27T06:51:26Z</time></trkpt><trkpt lat="41.78726118499371" lon="12.266812025622825"><ele>4.333333333333333</ele><time>2026-04-27T06:51:27Z</time></trkpt><trkpt lat="41.78736380154409" lon="12.267030649363214"><ele>4.666666666666667</ele><time>2026-04-27T06:51:28Z</time></trkpt><trkpt lat="41.78746189321297" lon="12.267252247455614"><ele>5.0</ele><time>2026-04-27T06:51:29Z</time></trkpt><trkpt lat="41.78755741247984" lon="12.267473399387184"><ele>5.0</ele><time>2026-04-27T06:51:30Z</time></trkpt><trkpt lat="41.7876482804156" lon="12.267689362695066"><ele>5.0</ele><time>2026-04-27T06:51:31Z</time></trkpt><trkpt lat="41.78774473187734" lon="12.267902200062272"><ele>5.0</ele><time>2026-04-27T06:51:32Z</time></trkpt><trkpt lat="41.787841632167826" lon="12.268122607268808"><ele>5.0</ele><time>2026-04-27T06:51:33Z</time></trkpt><trkpt lat="41.787941025431046" lon="12.268338280256645"><ele>5.0</ele><time>2026-04-27T06:51:34Z</time></trkpt><trkpt lat="41.788036050342996" lon="12.268557549732574"><ele>5.0</ele><time>2026-04-27T06:51:35Z</time></trkpt><trkpt lat="41.78813362941851" lon="12.268780336080512"><ele>3.666666666666667</ele><time>2026-04-27T06:51:36Z</time></trkpt><trkpt lat="41.788231077091254" lon="12.269007505451146"><ele>2.3333333333333335</ele><time>2026-04-27T06:51:37Z</time></trkpt><trkpt lat="41.78833062527795" lon="12.269232294033234"><ele>1.0</ele><time>2026-04-27T06:51:38Z</time></trkpt><trkpt lat="41.788433226806056" lon="12.269463174467194"><ele>1.3333333333333333</ele><time>2026-04-27T06:51:39Z</time></trkpt><trkpt lat="41.78853570876598" lon="12.269690036268527"><ele>1.6666666666666665</ele><time>2026-04-27T06:51:40Z</time></trkpt><trkpt lat="41.788635668893875" lon="12.269914866136226"><ele>2.0</ele><time>2026-04-27T06:51:41Z</time></trkpt><trkpt lat="41.78873255917506" lon="12.270133336064257"><ele>2.0</ele><time>2026-04-27T06:51:42Z</time></trkpt><trkpt lat="41.78882918005683" lon="12.270353345935606"><ele>2.0</ele><time>2026-04-27T06:51:43Z</time></trkpt><trkpt lat="41.78892411813833" lon="12.27057224142412"><ele>2.0</ele><time>2026-04-27T06:51:44Z</time></trkpt><trkpt lat="41.78901694454613" lon="12.270782375128206"><ele>1.6666666666666665</ele><time>2026-04-27T06:51:45Z</time></trkpt><trkpt lat="41.78910674832021" lon="12.270997189169664"><ele>1.3333333333333333</ele><time>2026-04-27T06:51:46Z</time></trkpt><trkpt lat="41.78919827353904" lon="12.271210342559007"><ele>1.0</ele><time>2026-04-27T06:51:47Z</time></trkpt><trkpt lat="41.789288632524595" lon="12.271424386439826"><ele>2.0</ele><time>2026-04-27T06:51:48Z</time></trkpt><trkpt lat="41.78938393545745" lon="12.27163424999333"><ele>3.0</ele><time>2026-04-27T06:51:49Z</time></trkpt><trkpt lat="41.78947675239454" lon="12.271842928129304"><ele>4.0</ele><time>2026-04-27T06:51:50Z</time></trkpt><trkpt lat="41.78956850138967" lon="12.272052086533899"><ele>4.0</ele><time>2026-04-27T06:51:51Z</time></trkpt><trkpt lat="41.78966237390507" lon="12.272265295541853"><ele>4.0</ele><time>2026-04-27T06:51:52Z</time></trkpt><trkpt lat="41.78976776587074" lon="12.272497880858428"><ele>4.0</ele><time>2026-04-27T06:51:53Z</time></trkpt><trkpt lat="41.78988723155006" lon="12.272743806785682"><ele>3.5</ele><time>2026-04-27T06:51:54Z</time></trkpt><trkpt lat="41.79001762895817" lon="12.272998074353614"><ele>3.0</ele><time>2026-04-27T06:51:55Z</time></trkpt><trkpt lat="41.79015750285944" lon="12.2732684769859"><ele>2.5</ele><time>2026-04-27T06:51:56Z</time></trkpt><trkpt lat="41.790303962368306" lon="12.273547385973089"><ele>2.0</ele><time>2026-04-27T06:51:57Z</time></trkpt><trkpt lat="41.79045719537701" lon="12.273837795103086"><ele>3.0</ele><time>2026-04-27T06:51:58Z</time></trkpt><trkpt lat="41.79061938336649" lon="12.274138251681027"><ele>4.0</ele><time>2026-04-27T06:51:59Z</time></trkpt><trkpt lat="41.79078377235543" lon="12.274443881928509"><ele>4.0</ele><time>2026-04-27T06:52:00Z</time></trkpt><trkpt lat="41.7909457060612" lon="12.274749919671113"><ele>4.0</ele><time>2026-04-27T06:52:01Z</time></trkpt><trkpt lat="41.79109602490693" lon="12.275026933472354"><ele>2.5</ele><time>2026-04-27T06:52:02Z</time></trkpt><trkpt lat="41.79124071342358" lon="12.275290299636955"><ele>1.0</ele><time>2026-04-27T06:52:03Z</time></trkpt><trkpt lat="41.791379601453365" lon="12.275543766838547"><ele>1.5</ele><time>2026-04-27T06:52:04Z</time></trkpt><trkpt lat="41.79151663342851" lon="12.275791481995906"><ele>2.0</ele><time>2026-04-27T06:52:05Z</time></trkpt><trkpt lat="41.79165372472615" lon="12.27603513172621"><ele>2.0</ele><time>2026-04-27T06:52:06Z</time></trkpt><trkpt lat="41.79179177260298" lon="12.276274193222708"><ele>2.0</ele><time>2026-04-27T06:52:07Z</time></trkpt><trkpt lat="41.79192527850066" lon="12.276512122337811"><ele>2.0</ele><time>2026-04-27T06:52:08Z</time></trkpt><trkpt lat="41.79205860785814" lon="12.27674974172966"><ele>2.0</ele><time>2026-04-27T06:52:09Z</time></trkpt><trkpt lat="41.79219166029196" lon="12.276982883757844"><ele>2.0</ele><time>2026-04-27T06:52:10Z</time></trkpt><trkpt lat="41.79232283989008" lon="12.277214261895953"><ele>2.0</ele><time>2026-04-27T06:52:11Z</time></trkpt><trkpt lat="41.79245159614881" lon="12.27744851111953"><ele>2.0</ele><time>2026-04-27T06:52:12Z</time></trkpt><trkpt lat="41.79258031389096" lon="12.277680778114744"><ele>2.0</ele><time>2026-04-27T06:52:13Z</time></trkpt><trkpt lat="41.79270820262135" lon="12.277907699427216"><ele>2.0</ele><time>2026-04-27T06:52:14Z</time></trkpt><trkpt lat="41.79283658088707" lon="12.27813478562851"><ele>2.0</ele><time>2026-04-27T06:52:15Z</time></trkpt><trkpt lat="41.79296332429216" lon="12.27836184638781"><ele>2.0</ele><time>2026-04-27T06:52:16Z</time></trkpt><trkpt lat="41.79308990301527" lon="12.27858614219142"><ele>2.0</ele><time>2026-04-27T06:52:17Z</time></trkpt><trkpt lat="41.80111424951122" lon="12.292937894093"><ele>2.5</ele><time>2026-04-27T06:53:18Z</time></trkpt><trkpt lat="41.801264118903084" lon="12.2932058836024"><ele>3.0</ele><time>2026-04-27T06:53:19Z</time></trkpt><trkpt lat="41.801412276329586" lon="12.29347510765908"><ele>3.0</ele><time>2026-04-27T06:53:20Z</time></trkpt><trkpt lat="41.80156520976855" lon="12.293742378706753"><ele>3.0</ele><time>2026-04-27T06:53:21Z</time></trkpt><trkpt lat="41.80171479662765" lon="12.294008190431631"><ele>2.5</ele><time>2026-04-27T06:53:22Z</time></trkpt><trkpt lat="41.801856617517544" lon="12.29426402655229"><ele>2.0</ele><time>2026-04-27T06:53:23Z</time></trkpt><trkpt lat="41.802007691723524" lon="12.294539793599512"><ele>3.0</ele><time>2026-04-27T06:53:24Z</time></trkpt><trkpt lat="41.802156590575635" lon="12.294807488458778"><ele>4.0</ele><time>2026-04-27T06:53:25Z</time></trkpt><trkpt lat="41.80230226447923" lon="12.295073813209534"><ele>4.0</ele><time>2026-04-27T06:53:26Z</time></trkpt><trkpt lat="41.80245153247027" lon="12.295338974742807"><ele>4.0</ele><time>2026-04-27T06:53:27Z</time></trkpt><trkpt lat="41.80260094044572" lon="12.295602557372158"><ele>3.0</ele><time>2026-04-27T06:53:28Z</time></trkpt><trkpt lat="41.802751104888635" lon="12.295867437209113"><ele>2.0</ele><time>2026-04-27T06:53:29Z</time></trkpt><trkpt lat="41.80289759352111" lon="12.296135265985296"><ele>2.0</ele><time>2026-04-27T06:53:30Z</time></trkpt><trkpt lat="41.803044503967065" lon="12.296401060622552"><ele>2.0</ele><time>2026-04-27T06:53:31Z</time></trkpt><trkpt lat="41.80318902389787" lon="12.2966614998928"><ele>2.5</ele><time>2026-04-27T06:53:32Z</time></trkpt><trkpt lat="41.80333383076032" lon="12.296921957253955"><ele>3.0</ele><time>2026-04-27T06:53:33Z</time></trkpt><trkpt lat="41.80347632395181" lon="12.297173427434224"><ele>3.0</ele><time>2026-04-27T06:53:34Z</time></trkpt><trkpt lat="41.80361654129921" lon="12.297423002864505"><ele>3.0</ele><time>2026-04-27T06:53:35Z</time></trkpt><trkpt lat="41.80375608133891" lon="12.2976661164927"><ele>3.0</ele><time>2026-04-27T06:53:36Z</time></trkpt><trkpt lat="41.80389349540916" lon="12.297906810058242"><ele>3.0</ele><time>2026-04-27T06:53:37Z</time></trkpt><trkpt lat="41.804026589868414" lon="12.298141634688193"><ele>3.0</ele><time>2026-04-27T06:53:38Z</time></trkpt><trkpt lat="41.804158817429546" lon="12.298372242523778"><ele>3.0</ele><time>2026-04-27T06:53:39Z</time></trkpt><trkpt lat="41.804298168133656" lon="12.298622420948982"><ele>3.0</ele><time>2026-04-27T06:53:40Z</time></trkpt><trkpt lat="41.8044461526256" lon="12.2988760182692"><ele>3.0</ele><time>2026-04-27T06:53:41Z</time></trkpt><trkpt lat="41.804592366820465" lon="12.299123791318344"><ele>3.0</ele><time>2026-04-27T06:53:42Z</time></trkpt><trkpt lat="41.804743633829574" lon="12.299383047176848"><ele>3.0</ele><time>2026-04-27T06:53:43Z</time></trkpt><trkpt lat="41.804889578660756" lon="12.299643993161794"><ele>3.0</ele><time>2026-04-27T06:53:44Z</time></trkpt><trkpt lat="41.80503413524877" lon="12.299915589134892"><ele>3.0</ele><time>2026-04-27T06:53:45Z</time></trkpt><trkpt lat="41.80518534910254" lon="12.300210076167991"><ele>3.0</ele><time>2026-04-27T06:53:46Z</time></trkpt><trkpt lat="41.805342758650376" lon="12.300500625391187"><ele>3.0</ele><time>2026-04-27T06:53:47Z</time></trkpt><trkpt lat="41.8055026899893" lon="12.300785973091314"><ele>3.0</ele><time>2026-04-27T06:53:48Z</time></trkpt><trkpt lat="41.80565826457588" lon="12.301068255532996"><ele>3.0</ele><time>2026-04-27T06:53:49Z</time></trkpt><trkpt lat="41.80581290087593" lon="12.301351664231033"><ele>3.0</ele><time>2026-04-27T06:53:50Z</time></trkpt><trkpt lat="41.805968376220264" lon="12.30163530476802"><ele>3.0</ele><time>2026-04-27T06:53:51Z</time></trkpt><trkpt lat="41.80612640178083" lon="12.30191719629412"><ele>3.0</ele><time>2026-04-27T06:53:52Z</time></trkpt><trkpt lat="41.806283052502955" lon="12.30219500987047"><ele>3.5</ele><time>2026-04-27T06:53:53Z</time></trkpt><trkpt lat="41.80644156064751" lon="12.302472305708834"><ele>4.0</ele><time>2026-04-27T06:53:54Z</time></trkpt><trkpt lat="41.80660024160061" lon="12.302751431528424"><ele>4.0</ele><time>2026-04-27T06:53:55Z</time></trkpt><trkpt lat="41.806759828937814" lon="12.303032779098432"><ele>4.0</ele><time>2026-04-27T06:53:56Z</time></trkpt><trkpt lat="41.806915194994694" lon="12.30331389539738"><ele>3.5</ele><time>2026-04-27T06:53:57Z</time></trkpt><trkpt lat="41.80706626171646" lon="12.303598095663837"><ele>3.0</ele><time>2026-04-27T06:53:58Z</time></trkpt><trkpt lat="41.8072168029772" lon="12.303886270522373"><ele>3.0</ele><time>2026-04-27T06:53:59Z</time></trkpt><trkpt lat="41.807367000847364" lon="12.304177217184149"><ele>3.0</ele><time>2026-04-27T06:54:00Z</time></trkpt><trkpt lat="41.80751525373285" lon="12.304471386241413"><ele>3.0</ele><time>2026-04-27T06:54:01Z</time></trkpt><trkpt lat="41.807660982307034" lon="12.304762569399909"><ele>3.0</ele><time>2026-04-27T06:54:02Z</time></trkpt><trkpt lat="41.80779753695329" lon="12.30504277229033"><ele>3.0</ele><time>2026-04-27T06:54:03Z</time></trkpt><trkpt lat="41.807926918879325" lon="12.305304856720944"><ele>3.0</ele><time>2026-04-27T06:54:04Z</time></trkpt><trkpt lat="41.8080509849965" lon="12.30555485297813"><ele>3.0</ele><time>2026-04-27T06:54:05Z</time></trkpt><trkpt lat="41.808164898399056" lon="12.305789470049877"><ele>3.0</ele><time>2026-04-27T06:54:06Z</time></trkpt><trkpt lat="41.80827032952755" lon="12.306008587071952"><ele>3.0</ele><time>2026-04-27T06:54:07Z</time></trkpt><trkpt lat="41.80837128682093" lon="12.30622187784584"><ele>3.0</ele><time>2026-04-27T06:54:08Z</time></trkpt><trkpt lat="41.8084624518789" lon="12.30642224720811"><ele>3.0</ele><time>2026-04-27T06:54:09Z</time></trkpt><trkpt lat="41.80854418076697" lon="12.306603859486874"><ele>3.0</ele><time>2026-04-27T06:54:10Z</time></trkpt><trkpt lat="41.8086147182945" lon="12.30676201055009"><ele>3.0</ele><time>2026-04-27T06:54:11Z</time></trkpt><trkpt lat="41.808674922358236" lon="12.306902258404046"><ele>3.0</ele><time>2026-04-27T06:54:12Z</time></trkpt><trkpt lat="41.80874428019361" lon="12.307013334159265"><ele>3.0</ele><time>2026-04-27T06:54:13Z</time></trkpt><trkpt lat="41.80879072333346" lon="12.307120349771106"><ele>3.0</ele><time>2026-04-27T06:54:14Z</time></trkpt><trkpt lat="41.80881382334565" lon="12.307217355063724"><ele>3.0</ele><time>2026-04-27T06:54:15Z</time></trkpt><trkpt lat="41.80886010427026" lon="12.307315838757882"><ele>3.0</ele><time>2026-04-27T06:54:17Z</time></trkpt><trkpt lat="41.80987916262666" lon="12.313108047513975"><ele>4.0</ele><time>2026-04-27T06:56:18.001Z</time></trkpt><trkpt lat="41.80980323182003" lon="12.312954384785664"><ele>5.0</ele><time>2026-04-27T06:56:19.001Z</time></trkpt><trkpt lat="41.80973190364636" lon="12.312794811602235"><ele>6.0</ele><time>2026-04-27T06:56:20.001Z</time></trkpt><trkpt lat="41.809670415954365" lon="12.312623618900103"><ele>7.0</ele><time>2026-04-27T06:56:21.001Z</time></trkpt><trkpt lat="41.80961870690643" lon="12.312452777427659"><ele>7.0</ele><time>2026-04-27T06:56:22.001Z</time></trkpt><trkpt lat="41.8095692327046" lon="12.312270014990604"><ele>7.0</ele><time>2026-04-27T06:56:23.001Z</time></trkpt><trkpt lat="41.80953290326534" lon="12.312084514917363"><ele>7.0</ele><time>2026-04-27T06:56:24.001Z</time></trkpt><trkpt lat="41.80951021924634" lon="12.311897650393766"><ele>7.0</ele><time>2026-04-27T06:56:25.001Z</time></trkpt><trkpt lat="41.80949094959645" lon="12.311707614894463"><ele>7.25</ele><time>2026-04-27T06:56:26.001Z</time></trkpt><trkpt lat="41.80947717273515" lon="12.311512459225504"><ele>7.5</ele><time>2026-04-27T06:56:27.001Z</time></trkpt><trkpt lat="41.80947947752255" lon="12.311312515948927"><ele>7.75</ele><time>2026-04-27T06:56:28.001Z</time></trkpt><trkpt lat="41.80948964059177" lon="12.311111747785707"><ele>8.0</ele><time>2026-04-27T06:56:29.001Z</time></trkpt><trkpt lat="41.809505945758616" lon="12.310908194176392"><ele>7.0</ele><time>2026-04-27T06:56:30.001Z</time></trkpt><trkpt lat="41.80953721578664" lon="12.310707973177898"><ele>6.0</ele><time>2026-04-27T06:56:31.001Z</time></trkpt><trkpt lat="41.80957885410449" lon="12.310509239796565"><ele>5.0</ele><time>2026-04-27T06:56:32.001Z</time></trkpt><trkpt lat="41.80963192183885" lon="12.310308449901392"><ele>4.666666666666667</ele><time>2026-04-27T06:56:33.001Z</time></trkpt><trkpt lat="41.80969898753278" lon="12.310111675767939"><ele>4.333333333333333</ele><time>2026-04-27T06:56:34.001Z</time></trkpt><trkpt lat="41.809779165690856" lon="12.309921386399346"><ele>4.0</ele><time>2026-04-27T06:56:35.001Z</time></trkpt><trkpt lat="41.809867406053975" lon="12.309742485986186"><ele>4.333333333333333</ele><time>2026-04-27T06:56:36.001Z</time></trkpt><trkpt lat="41.80996332801647" lon="12.309572909738163"><ele>4.666666666666667</ele><time>2026-04-27T06:56:37.001Z</time></trkpt><trkpt lat="41.81006630018887" lon="12.309407321089816"><ele>5.0</ele><time>2026-04-27T06:56:38.001Z</time></trkpt><trkpt lat="41.810177964596654" lon="12.309245468875478"><ele>5.333333333333334</ele><time>2026-04-27T06:56:39.001Z</time></trkpt><trkpt lat="41.81029915951888" lon="12.30910099129435"><ele>5.666666666666667</ele><time>2026-04-27T06:56:40.001Z</time></trkpt><trkpt lat="41.810429306042344" lon="12.308960814947424"><ele>6.0</ele><time>2026-04-27T06:56:41.001Z</time></trkpt><trkpt lat="41.810565011815754" lon="12.308829878533283"><ele>6.0</ele><time>2026-04-27T06:56:42.001Z</time></trkpt><trkpt lat="41.81070210035604" lon="12.308687741726006"><ele>6.0</ele><time>2026-04-27T06:56:43.001Z</time></trkpt><trkpt lat="41.81084052813404" lon="12.308541230068748"><ele>6.0</ele><time>2026-04-27T06:56:44.001Z</time></trkpt><trkpt lat="41.81098563645859" lon="12.308393938929633"><ele>5.333333333333333</ele><time>2026-04-27T06:56:45.001Z</time></trkpt><trkpt lat="41.811131984842696" lon="12.308246893861106"><ele>4.666666666666666</ele><time>2026-04-27T06:56:46.001Z</time></trkpt><trkpt lat="41.81128140936577" lon="12.308100139610412"><ele>4.0</ele><time>2026-04-27T06:56:47.001Z</time></trkpt><trkpt lat="41.811424965013416" lon="12.307962097403042"><ele>4.0</ele><time>2026-04-27T06:56:48.001Z</time></trkpt><trkpt lat="41.81157317666899" lon="12.307800380025409"><ele>4.0</ele><time>2026-04-27T06:56:49.001Z</time></trkpt><trkpt lat="41.811710954976135" lon="12.307653575258096"><ele>4.0</ele><time>2026-04-27T06:56:50.001Z</time></trkpt><trkpt lat="41.81185916299636" lon="12.30750701749018"><ele>3.6666666666666665</ele><time>2026-04-27T06:56:51.001Z</time></trkpt><trkpt lat="41.812006885073444" lon="12.307358590985931"><ele>3.333333333333333</ele><time>2026-04-27T06:56:52.001Z</time></trkpt><trkpt lat="41.81215276886786" lon="12.307209227659715"><ele>3.0</ele><time>2026-04-27T06:56:53.001Z</time></trkpt><trkpt lat="41.812298794491795" lon="12.307070204907061"><ele>2.6666666666666665</ele><time>2026-04-27T06:56:54.001Z</time></trkpt><trkpt lat="41.81244531890047" lon="12.306914265427967"><ele>2.333333333333333</ele><time>2026-04-27T06:56:55.001Z</time></trkpt><trkpt lat="41.8125855856157" lon="12.306775271646693"><ele>2.0</ele><time>2026-04-27T06:56:56.001Z</time></trkpt><trkpt lat="41.812735497473916" lon="12.306629510637446"><ele>2.0</ele><time>2026-04-27T06:56:57.001Z</time></trkpt><trkpt lat="41.81288361376446" lon="12.306488298271947"><ele>2.0</ele><time>2026-04-27T06:56:58.001Z</time></trkpt><trkpt lat="41.81303952841714" lon="12.306337180424364"><ele>2.0</ele><time>2026-04-27T06:56:59Z</time></trkpt><trkpt lat="41.81319649998226" lon="12.306188466468567"><ele>1.6666666666666665</ele><time>2026-04-27T06:57:00Z</time></trkpt><trkpt lat="41.813358328333436" lon="12.306038210489554"><ele>1.3333333333333333</ele><time>2026-04-27T06:57:01Z</time></trkpt><trkpt lat="41.81352159534574" lon="12.305882661818602"><ele>1.0</ele><time>2026-04-27T06:57:02Z</time></trkpt><trkpt lat="41.813688687965545" lon="12.305723212545805"><ele>1.0</ele><time>2026-04-27T06:57:03Z</time></trkpt><trkpt lat="41.81386200017654" lon="12.30555810338233"><ele>1.0</ele><time>2026-04-27T06:57:04Z</time></trkpt><trkpt lat="41.81402751001385" lon="12.305394755808518"><ele>1.0</ele><time>2026-04-27T06:57:05Z</time></trkpt><trkpt lat="41.814207048579235" lon="12.3052362905644"><ele>1.0</ele><time>2026-04-27T06:57:06Z</time></trkpt><trkpt lat="41.81437477609008" lon="12.305075358514106"><ele>1.0</ele><time>2026-04-27T06:57:07Z</time></trkpt><trkpt lat="41.814542964930425" lon="12.304908528175064"><ele>1.0</ele><time>2026-04-27T06:57:08Z</time></trkpt><trkpt lat="41.81471018125264" lon="12.304738344253972"><ele>1.3333333333333333</ele><time>2026-04-27T06:57:09Z</time></trkpt><trkpt lat="41.81487946896932" lon="12.304570845075544"><ele>1.6666666666666665</ele><time>2026-04-27T06:57:10Z</time></trkpt><trkpt lat="41.81504959539644" lon="12.304401148287639"><ele>2.0</ele><time>2026-04-27T06:57:11Z</time></trkpt><trkpt lat="41.815220626411175" lon="12.304226889572535"><ele>2.0</ele><time>2026-04-27T06:57:12Z</time></trkpt><trkpt lat="41.81539805483142" lon="12.304053117538167"><ele>2.0</ele><time>2026-04-27T06:57:13Z</time></trkpt><trkpt lat="41.815571642921206" lon="12.303878143568618"><ele>2.0</ele><time>2026-04-27T06:57:14Z</time></trkpt><trkpt lat="41.8157496886863" lon="12.303703527687265"><ele>2.0</ele><time>2026-04-27T06:57:15Z</time></trkpt><trkpt lat="41.81592534446285" lon="12.303528067444763"><ele>2.0</ele><time>2026-04-27T06:57:16Z</time></trkpt><trkpt lat="41.81609952085183" lon="12.303350203022637"><ele>2.0</ele><time>2026-04-27T06:57:17Z</time></trkpt><trkpt lat="41.82817093446557" lon="12.291425043136874"><ele>2.5</ele><time>2026-04-27T06:58:18Z</time></trkpt><trkpt lat="41.82838559037898" lon="12.291222107404534"><ele>3.0</ele><time>2026-04-27T06:58:19Z</time></trkpt><trkpt lat="41.828594669210084" lon="12.291025433845265"><ele>4.5</ele><time>2026-04-27T06:58:20Z</time></trkpt><trkpt lat="41.828811023712866" lon="12.290818849933183"><ele>6.0</ele><time>2026-04-27T06:58:21Z</time></trkpt><trkpt lat="41.829023190999905" lon="12.290611373882054"><ele>6.0</ele><time>2026-04-27T06:58:22Z</time></trkpt><trkpt lat="41.82923752376245" lon="12.290407590348796"><ele>6.0</ele><time>2026-04-27T06:58:23Z</time></trkpt><trkpt lat="41.82945235365559" lon="12.290199996644365"><ele>6.0</ele><time>2026-04-27T06:58:24Z</time></trkpt><trkpt lat="41.82966352983804" lon="12.290005562818129"><ele>6.0</ele><time>2026-04-27T06:58:25Z</time></trkpt><trkpt lat="41.82987985095429" lon="12.289797202233656"><ele>7.0</ele><time>2026-04-27T06:58:26Z</time></trkpt><trkpt lat="41.83009682509623" lon="12.289592770484779"><ele>8.0</ele><time>2026-04-27T06:58:27Z</time></trkpt><trkpt lat="41.83031548090371" lon="12.289389087240005"><ele>9.0</ele><time>2026-04-27T06:58:28Z</time></trkpt><trkpt lat="41.83052772142922" lon="12.289186852926544"><ele>10.0</ele><time>2026-04-27T06:58:29Z</time></trkpt><trkpt lat="41.830742427012176" lon="12.28898292541784"><ele>9.0</ele><time>2026-04-27T06:58:30Z</time></trkpt><trkpt lat="41.830957557156204" lon="12.288780213986334"><ele>8.0</ele><time>2026-04-27T06:58:31Z</time></trkpt><trkpt lat="41.83117146264035" lon="12.288578990826027"><ele>8.0</ele><time>2026-04-27T06:58:32Z</time></trkpt><trkpt lat="41.83138891229734" lon="12.288375288947645"><ele>8.0</ele><time>2026-04-27T06:58:33Z</time></trkpt><trkpt lat="41.831607198876206" lon="12.288167895200884"><ele>7.0</ele><time>2026-04-27T06:58:34Z</time></trkpt><trkpt lat="41.83182496973695" lon="12.287956975859512"><ele>6.0</ele><time>2026-04-27T06:58:35Z</time></trkpt><trkpt lat="41.832041533665596" lon="12.287750568641485"><ele>6.0</ele><time>2026-04-27T06:58:36Z</time></trkpt><trkpt lat="41.83225719050278" lon="12.287542207737777"><ele>6.0</ele><time>2026-04-27T06:58:37.001Z</time></trkpt><trkpt lat="41.832479088898936" lon="12.28733043306481"><ele>5.5</ele><time>2026-04-27T06:58:38.001Z</time></trkpt><trkpt lat="41.83270057959251" lon="12.287114856005378"><ele>5.0</ele><time>2026-04-27T06:58:39.001Z</time></trkpt><trkpt lat="41.83292021058557" lon="12.28689747224889"><ele>5.0</ele><time>2026-04-27T06:58:40.001Z</time></trkpt><trkpt lat="41.833136302304176" lon="12.286687250669543"><ele>5.0</ele><time>2026-04-27T06:58:41.001Z</time></trkpt><trkpt lat="41.83335688083502" lon="12.286468479971433"><ele>6.0</ele><time>2026-04-27T06:58:42.001Z</time></trkpt><trkpt lat="41.83357067981767" lon="12.286243640537066"><ele>7.0</ele><time>2026-04-27T06:58:43.001Z</time></trkpt><trkpt lat="41.83378467294613" lon="12.2860214909036"><ele>7.0</ele><time>2026-04-27T06:58:44.001Z</time></trkpt><trkpt lat="41.833996681149436" lon="12.285804902531542"><ele>7.0</ele><time>2026-04-27T06:58:45.001Z</time></trkpt><trkpt lat="41.83420749897914" lon="12.285575545123173"><ele>8.0</ele><time>2026-04-27T06:58:46.001Z</time></trkpt><trkpt lat="41.8344149938757" lon="12.28535395413428"><ele>9.0</ele><time>2026-04-27T06:58:47.001Z</time></trkpt><trkpt lat="41.83463216100316" lon="12.285115653652694"><ele>9.0</ele><time>2026-04-27T06:58:48.001Z</time></trkpt><trkpt lat="41.83480238765065" lon="12.284927495910253"><ele>9.0</ele><time>2026-04-27T06:58:49.001Z</time></trkpt><trkpt lat="41.834984540294535" lon="12.284733032187916"><ele>8.5</ele><time>2026-04-27T06:58:50.001Z</time></trkpt><trkpt lat="41.83516707812924" lon="12.284541885721167"><ele>8.0</ele><time>2026-04-27T06:58:51.001Z</time></trkpt><trkpt lat="41.835343152325706" lon="12.284338621860732"><ele>8.0</ele><time>2026-04-27T06:58:52.001Z</time></trkpt><trkpt lat="41.8355309463375" lon="12.284126875487523"><ele>8.0</ele><time>2026-04-27T06:58:53.001Z</time></trkpt><trkpt lat="41.83572037765111" lon="12.28391044199817"><ele>7.0</ele><time>2026-04-27T06:58:54.001Z</time></trkpt><trkpt lat="41.83591311394258" lon="12.283693255472183"><ele>6.0</ele><time>2026-04-27T06:58:55.001Z</time></trkpt><trkpt lat="41.836108816261785" lon="12.283466956460616"><ele>5.0</ele><time>2026-04-27T06:58:56.001Z</time></trkpt><trkpt lat="41.83630855779298" lon="12.283238863447604"><ele>4.0</ele><time>2026-04-27T06:58:57.001Z</time></trkpt><trkpt lat="41.8365160618521" lon="12.283011865723534"><ele>4.0</ele><time>2026-04-27T06:58:58.001Z</time></trkpt><trkpt lat="41.836730059358395" lon="12.282777746029595"><ele>4.0</ele><time>2026-04-27T06:58:59.001Z</time></trkpt><trkpt lat="41.83694347954885" lon="12.282546595117735"><ele>4.5</ele><time>2026-04-27T06:59:00.001Z</time></trkpt><trkpt lat="41.83716060118029" lon="12.282313607975645"><ele>5.0</ele><time>2026-04-27T06:59:01.001Z</time></trkpt><trkpt lat="41.83737912327655" lon="12.282081068727463"><ele>5.0</ele><time>2026-04-27T06:59:02.001Z</time></trkpt><trkpt lat="41.837602722838625" lon="12.281843813968917"><ele>5.0</ele><time>2026-04-27T06:59:03.001Z</time></trkpt><trkpt lat="41.83782519129618" lon="12.281610848162465"><ele>6.5</ele><time>2026-04-27T06:59:04.001Z</time></trkpt><trkpt lat="41.83804375317638" lon="12.28137641109074"><ele>8.0</ele><time>2026-04-27T06:59:05Z</time></trkpt><trkpt lat="41.838262407982924" lon="12.281146105538141"><ele>8.5</ele><time>2026-04-27T06:59:06Z</time></trkpt><trkpt lat="41.838477902510206" lon="12.280915601063011"><ele>9.0</ele><time>2026-04-27T06:59:07Z</time></trkpt><trkpt lat="41.8386862738708" lon="12.280674442339498"><ele>9.0</ele><time>2026-04-27T06:59:08Z</time></trkpt><trkpt lat="41.83891822314874" lon="12.280448357886335"><ele>9.0</ele><time>2026-04-27T06:59:09Z</time></trkpt><trkpt lat="41.83913026006246" lon="12.280189350003038"><ele>10.0</ele><time>2026-04-27T06:59:10Z</time></trkpt><trkpt lat="41.83935391117228" lon="12.279974364181589"><ele>11.0</ele><time>2026-04-27T06:59:11Z</time></trkpt><trkpt lat="41.8395715995312" lon="12.279740420916763"><ele>11.0</ele><time>2026-04-27T06:59:12Z</time></trkpt><trkpt lat="41.83979362811155" lon="12.279501702104715"><ele>11.0</ele><time>2026-04-27T06:59:13Z</time></trkpt><trkpt lat="41.8400035225793" lon="12.279257363368238"><ele>11.5</ele><time>2026-04-27T06:59:14Z</time></trkpt><trkpt lat="41.84021997677933" lon="12.279020517957534"><ele>12.0</ele><time>2026-04-27T06:59:15Z</time></trkpt><trkpt lat="41.84044032334373" lon="12.278784253351777"><ele>12.0</ele><time>2026-04-27T06:59:16Z</time></trkpt><trkpt lat="41.84065795522466" lon="12.278542359122858"><ele>12.0</ele><time>2026-04-27T06:59:17Z</time></trkpt><trkpt lat="41.85323234872566" lon="12.264975498877844"><ele>10.0</ele><time>2026-04-27T07:00:18Z</time></trkpt><trkpt lat="41.853454678679725" lon="12.26479588261851"><ele>8.0</ele><time>2026-04-27T07:00:19Z</time></trkpt><trkpt lat="41.85368385518152" lon="12.264620116984682"><ele>8.0</ele><time>2026-04-27T07:00:20Z</time></trkpt><trkpt lat="41.853915656229695" lon="12.264452156399159"><ele>8.0</ele><time>2026-04-27T07:00:21Z</time></trkpt><trkpt lat="41.85415457652249" lon="12.264294055038318"><ele>9.0</ele><time>2026-04-27T07:00:22Z</time></trkpt><trkpt lat="41.854398874663055" lon="12.264150119901595"><ele>10.0</ele><time>2026-04-27T07:00:23Z</time></trkpt><trkpt lat="41.854646322021246" lon="12.264011688311076"><ele>10.5</ele><time>2026-04-27T07:00:24Z</time></trkpt><trkpt lat="41.85489712408197" lon="12.263878942558257"><ele>11.0</ele><time>2026-04-27T07:00:25Z</time></trkpt><trkpt lat="41.85515119895842" lon="12.263760686241493"><ele>11.0</ele><time>2026-04-27T07:00:26Z</time></trkpt><trkpt lat="41.855405109672894" lon="12.263654312419265"><ele>11.0</ele><time>2026-04-27T07:00:27Z</time></trkpt><trkpt lat="41.855659357005834" lon="12.263561343309341"><ele>11.0</ele><time>2026-04-27T07:00:28Z</time></trkpt><trkpt lat="41.855914826628954" lon="12.263480116807195"><ele>11.0</ele><time>2026-04-27T07:00:29Z</time></trkpt><trkpt lat="41.85617223325117" lon="12.2634066766551"><ele>12.0</ele><time>2026-04-27T07:00:30Z</time></trkpt><trkpt lat="41.85642807538791" lon="12.263347447086765"><ele>13.0</ele><time>2026-04-27T07:00:31Z</time></trkpt><trkpt lat="41.85668669674662" lon="12.26329475730432"><ele>13.5</ele><time>2026-04-27T07:00:32Z</time></trkpt><trkpt lat="41.85694365830998" lon="12.263251395651183"><ele>14.0</ele><time>2026-04-27T07:00:33Z</time></trkpt><trkpt lat="41.857199902630335" lon="12.263215962694119"><ele>14.0</ele><time>2026-04-27T07:00:34Z</time></trkpt><trkpt lat="41.857456997147644" lon="12.263186747774292"><ele>14.0</ele><time>2026-04-27T07:00:35Z</time></trkpt><trkpt lat="41.85771338894467" lon="12.26315802231651"><ele>13.5</ele><time>2026-04-27T07:00:36Z</time></trkpt><trkpt lat="41.857966367410626" lon="12.263126192248565"><ele>13.0</ele><time>2026-04-27T07:00:37Z</time></trkpt><trkpt lat="41.85822289551884" lon="12.263094235412836"><ele>13.0</ele><time>2026-04-27T07:00:38Z</time></trkpt><trkpt lat="41.8584777798068" lon="12.263062525601383"><ele>13.0</ele><time>2026-04-27T07:00:39Z</time></trkpt><trkpt lat="41.85873527787591" lon="12.263027099879302"><ele>13.0</ele><time>2026-04-27T07:00:40Z</time></trkpt><trkpt lat="41.85899021286288" lon="12.262995447712758"><ele>13.0</ele><time>2026-04-27T07:00:41Z</time></trkpt><trkpt lat="41.859243592688934" lon="12.262969511524151"><ele>13.5</ele><time>2026-04-27T07:00:42Z</time></trkpt><trkpt lat="41.85949384108711" lon="12.262943510859987"><ele>14.0</ele><time>2026-04-27T07:00:43Z</time></trkpt><trkpt lat="41.85974229584015" lon="12.262916245434125"><ele>14.0</ele><time>2026-04-27T07:00:44Z</time></trkpt><trkpt lat="41.859991196300946" lon="12.262889740723839"><ele>14.0</ele><time>2026-04-27T07:00:45Z</time></trkpt><trkpt lat="41.86023886497822" lon="12.262857866425428"><ele>14.5</ele><time>2026-04-27T07:00:46Z</time></trkpt><trkpt lat="41.86049022344114" lon="12.262822373245898"><ele>15.0</ele><time>2026-04-27T07:00:47Z</time></trkpt><trkpt lat="41.86074096207858" lon="12.262786709996025"><ele>13.0</ele><time>2026-04-27T07:00:48Z</time></trkpt><trkpt lat="41.86099328537479" lon="12.262753028157606"><ele>11.0</ele><time>2026-04-27T07:00:49Z</time></trkpt><trkpt lat="41.861246490807765" lon="12.26272300698402"><ele>11.0</ele><time>2026-04-27T07:00:50Z</time></trkpt><trkpt lat="41.86150384888104" lon="12.262686343878173"><ele>11.0</ele><time>2026-04-27T07:00:51Z</time></trkpt><trkpt lat="41.861759482045066" lon="12.262638245127741"><ele>10.5</ele><time>2026-04-27T07:00:52Z</time></trkpt><trkpt lat="41.86201589449723" lon="12.262582941420268"><ele>10.0</ele><time>2026-04-27T07:00:53Z</time></trkpt><trkpt lat="41.862271326039796" lon="12.262520479282854"><ele>10.0</ele><time>2026-04-27T07:00:54Z</time></trkpt><trkpt lat="41.862526647635846" lon="12.26244361539177"><ele>10.0</ele><time>2026-04-27T07:00:55Z</time></trkpt><trkpt lat="41.86277805340282" lon="12.262354624133646"><ele>10.0</ele><time>2026-04-27T07:00:56Z</time></trkpt><trkpt lat="41.8630290223376" lon="12.262253254243573"><ele>10.0</ele><time>2026-04-27T07:00:57Z</time></trkpt><trkpt lat="41.8632771977147" lon="12.26213825862382"><ele>10.0</ele><time>2026-04-27T07:00:58Z</time></trkpt><trkpt lat="41.86352071637143" lon="12.262010624148498"><ele>10.0</ele><time>2026-04-27T07:00:59Z</time></trkpt><trkpt lat="41.86375958681114" lon="12.2618724340942"><ele>10.0</ele><time>2026-04-27T07:01:00Z</time></trkpt><trkpt lat="41.86399567451591" lon="12.261724034235252"><ele>10.0</ele><time>2026-04-27T07:01:01Z</time></trkpt><trkpt lat="41.864229893704184" lon="12.261565092850194"><ele>10.5</ele><time>2026-04-27T07:01:02Z</time></trkpt><trkpt lat="41.86445915711147" lon="12.261395080960282"><ele>11.0</ele><time>2026-04-27T07:01:03.001Z</time></trkpt><trkpt lat="41.86468394807221" lon="12.261215516439949"><ele>11.0</ele><time>2026-04-27T07:01:04.001Z</time></trkpt><trkpt lat="41.864903223737066" lon="12.26102546161634"><ele>11.0</ele><time>2026-04-27T07:01:05.001Z</time></trkpt><trkpt lat="41.86512549007316" lon="12.260830935711981"><ele>11.5</ele><time>2026-04-27T07:01:06.001Z</time></trkpt><trkpt lat="41.865343383123225" lon="12.260627663816292"><ele>12.0</ele><time>2026-04-27T07:01:07.001Z</time></trkpt><trkpt lat="41.86555584863227" lon="12.260430147319354"><ele>12.0</ele><time>2026-04-27T07:01:08.001Z</time></trkpt><trkpt lat="41.86578063041257" lon="12.26022104878501"><ele>12.0</ele><time>2026-04-27T07:01:09.001Z</time></trkpt><trkpt lat="41.86601782988771" lon="12.26001118114105"><ele>12.5</ele><time>2026-04-27T07:01:10.001Z</time></trkpt><trkpt lat="41.86624750735264" lon="12.259797999616191"><ele>13.0</ele><time>2026-04-27T07:01:11Z</time></trkpt><trkpt lat="41.866479835792326" lon="12.259585431877955"><ele>13.0</ele><time>2026-04-27T07:01:12Z</time></trkpt><trkpt lat="41.866712068669564" lon="12.259369679189552"><ele>13.0</ele><time>2026-04-27T07:01:13Z</time></trkpt><trkpt lat="41.86694433549021" lon="12.259157261874293"><ele>14.0</ele><time>2026-04-27T07:01:14Z</time></trkpt><trkpt lat="41.86717132461904" lon="12.25894475288769"><ele>15.0</ele><time>2026-04-27T07:01:15Z</time></trkpt><trkpt lat="41.867395901351" lon="12.25872991477672"><ele>15.5</ele><time>2026-04-27T07:01:16Z</time></trkpt><trkpt lat="41.86761978002457" lon="12.258518184714708"><ele>16.0</ele><time>2026-04-27T07:01:17Z</time></trkpt><trkpt lat="41.87967675556564" lon="12.244142454321125"><ele>14.5</ele><time>2026-04-27T07:02:18Z</time></trkpt><trkpt lat="41.87977549994976" lon="12.243777650878704"><ele>13.0</ele><time>2026-04-27T07:02:19Z</time></trkpt><trkpt lat="41.87987206661102" lon="12.243414742648028"><ele>12.5</ele><time>2026-04-27T07:02:20Z</time></trkpt><trkpt lat="41.87996914844727" lon="12.243050400753091"><ele>12.0</ele><time>2026-04-27T07:02:21Z</time></trkpt><trkpt lat="41.88006251195413" lon="12.24268607878925"><ele>11.0</ele><time>2026-04-27T07:02:22Z</time></trkpt><trkpt lat="41.880157216344244" lon="12.242326166341165"><ele>10.0</ele><time>2026-04-27T07:02:23Z</time></trkpt><trkpt lat="41.88024910592991" lon="12.241974500890443"><ele>10.0</ele><time>2026-04-27T07:02:24Z</time></trkpt><trkpt lat="41.88033722814419" lon="12.241632035896654"><ele>10.0</ele><time>2026-04-27T07:02:25Z</time></trkpt><trkpt lat="41.88042451606366" lon="12.241293128589737"><ele>9.5</ele><time>2026-04-27T07:02:26Z</time></trkpt><trkpt lat="41.88051213068208" lon="12.240961442251464"><ele>9.0</ele><time>2026-04-27T07:02:27Z</time></trkpt><trkpt lat="41.88059962096055" lon="12.240635546430926"><ele>8.0</ele><time>2026-04-27T07:02:28Z</time></trkpt><trkpt lat="41.88068691910367" lon="12.240308893840776"><ele>7.0</ele><time>2026-04-27T07:02:29Z</time></trkpt><trkpt lat="41.88077336208389" lon="12.239982486905312"><ele>7.5</ele><time>2026-04-27T07:02:30Z</time></trkpt><trkpt lat="41.880862294269534" lon="12.239654868650556"><ele>8.0</ele><time>2026-04-27T07:02:31Z</time></trkpt><trkpt lat="41.88095245094962" lon="12.239330453478278"><ele>8.5</ele><time>2026-04-27T07:02:32Z</time></trkpt><trkpt lat="41.881042103117565" lon="12.239003417254075"><ele>9.0</ele><time>2026-04-27T07:02:33Z</time></trkpt><trkpt lat="41.881136509045994" lon="12.238683679055086"><ele>9.0</ele><time>2026-04-27T07:02:34Z</time></trkpt><trkpt lat="41.88123910643715" lon="12.238370787266556"><ele>9.0</ele><time>2026-04-27T07:02:35Z</time></trkpt><trkpt lat="41.88134949740595" lon="12.238062796036198"><ele>8.5</ele><time>2026-04-27T07:02:36Z</time></trkpt><trkpt lat="41.88146729899298" lon="12.237763914110204"><ele>8.0</ele><time>2026-04-27T07:02:37Z</time></trkpt><trkpt lat="41.881595701896735" lon="12.237476909998522"><ele>8.0</ele><time>2026-04-27T07:02:38Z</time></trkpt><trkpt lat="41.881737676183896" lon="12.237200414613792"><ele>8.0</ele><time>2026-04-27T07:02:39Z</time></trkpt><trkpt lat="41.88188984471149" lon="12.236929361982694"><ele>7.5</ele><time>2026-04-27T07:02:40Z</time></trkpt><trkpt lat="41.88205260654844" lon="12.236667117018104"><ele>7.0</ele><time>2026-04-27T07:02:41Z</time></trkpt><trkpt lat="41.88222119738068" lon="12.236413176109535"><ele>8.0</ele><time>2026-04-27T07:02:42Z</time></trkpt><trkpt lat="41.882402435860435" lon="12.236167888136519"><ele>9.0</ele><time>2026-04-27T07:02:43Z</time></trkpt><trkpt lat="41.88259374840177" lon="12.235933397261702"><ele>8.0</ele><time>2026-04-27T07:02:44Z</time></trkpt><trkpt lat="41.88279355096115" lon="12.235708126294002"><ele>7.0</ele><time>2026-04-27T07:02:45Z</time></trkpt><trkpt lat="41.882995813583086" lon="12.235487040277567"><ele>7.0</ele><time>2026-04-27T07:02:46Z</time></trkpt><trkpt lat="41.88320199676464" lon="12.235266043756031"><ele>7.0</ele><time>2026-04-27T07:02:47Z</time></trkpt><trkpt lat="41.883408648584464" lon="12.235043873010287"><ele>7.0</ele><time>2026-04-27T07:02:48Z</time></trkpt><trkpt lat="41.883610951663755" lon="12.234830119071146"><ele>7.0</ele><time>2026-04-27T07:02:49Z</time></trkpt><trkpt lat="41.883803982747104" lon="12.234623894993852"><ele>7.0</ele><time>2026-04-27T07:02:50Z</time></trkpt><trkpt lat="41.8839982975997" lon="12.234417651408958"><ele>7.0</ele><time>2026-04-27T07:02:51Z</time></trkpt><trkpt lat="41.88419119243161" lon="12.23421190640083"><ele>6.5</ele><time>2026-04-27T07:02:52Z</time></trkpt><trkpt lat="41.88438808652806" lon="12.234005786230753"><ele>6.0</ele><time>2026-04-27T07:02:53Z</time></trkpt><trkpt lat="41.884587491593805" lon="12.233796466844575"><ele>6.0</ele><time>2026-04-27T07:02:54Z</time></trkpt><trkpt lat="41.88478864009582" lon="12.233585434515227"><ele>6.0</ele><time>2026-04-27T07:02:55Z</time></trkpt><trkpt lat="41.884989960340235" lon="12.233372472038145"><ele>6.0</ele><time>2026-04-27T07:02:56Z</time></trkpt><trkpt lat="41.88519133130924" lon="12.233154661051067"><ele>6.0</ele><time>2026-04-27T07:02:57Z</time></trkpt><trkpt lat="41.88539484027531" lon="12.232936458732402"><ele>6.0</ele><time>2026-04-27T07:02:58Z</time></trkpt><trkpt lat="41.88560147438011" lon="12.232714326527308"><ele>6.0</ele><time>2026-04-27T07:02:59Z</time></trkpt><trkpt lat="41.88581176754062" lon="12.232489651934266"><ele>6.5</ele><time>2026-04-27T07:03:00Z</time></trkpt><trkpt lat="41.88602550161492" lon="12.232261963278326"><ele>7.0</ele><time>2026-04-27T07:03:01Z</time></trkpt><trkpt lat="41.88624317312934" lon="12.232033450596141"><ele>7.0</ele><time>2026-04-27T07:03:02Z</time></trkpt><trkpt lat="41.88646145018554" lon="12.231804790467933"><ele>7.0</ele><time>2026-04-27T07:03:03Z</time></trkpt><trkpt lat="41.88668315309271" lon="12.231575335788003"><ele>7.0</ele><time>2026-04-27T07:03:04Z</time></trkpt><trkpt lat="41.88690583289772" lon="12.231344639510636"><ele>7.0</ele><time>2026-04-27T07:03:05Z</time></trkpt><trkpt lat="41.88713212395796" lon="12.23111339171102"><ele>7.0</ele><time>2026-04-27T07:03:06Z</time></trkpt><trkpt lat="41.88736323624128" lon="12.230883592333429"><ele>7.0</ele><time>2026-04-27T07:03:07Z</time></trkpt><trkpt lat="41.88759292326523" lon="12.230649399347447"><ele>10.0</ele><time>2026-04-27T07:03:08Z</time></trkpt><trkpt lat="41.88782313694875" lon="12.230407584906727"><ele>13.0</ele><time>2026-04-27T07:03:09Z</time></trkpt><trkpt lat="41.88805205951975" lon="12.230168546015953"><ele>13.0</ele><time>2026-04-27T07:03:10Z</time></trkpt><trkpt lat="41.888280985991365" lon="12.229932519991175"><ele>13.0</ele><time>2026-04-27T07:03:11Z</time></trkpt><trkpt lat="41.888508864736465" lon="12.229699163284069"><ele>10.5</ele><time>2026-04-27T07:03:12Z</time></trkpt><trkpt lat="41.88873970880155" lon="12.229468826323872"><ele>8.0</ele><time>2026-04-27T07:03:13Z</time></trkpt><trkpt lat="41.88896385595282" lon="12.229236712722276"><ele>8.0</ele><time>2026-04-27T07:03:14.001Z</time></trkpt><trkpt lat="41.889184488448535" lon="12.229009401509156"><ele>8.0</ele><time>2026-04-27T07:03:15.001Z</time></trkpt><trkpt lat="41.88939432333065" lon="12.228796292521581"><ele>7.5</ele><time>2026-04-27T07:03:16.001Z</time></trkpt><trkpt lat="41.889592687635115" lon="12.228598900501927"><ele>7.0</ele><time>2026-04-27T07:03:17Z</time></trkpt><trkpt lat="41.891382570303115" lon="12.226987100997095"><ele>8.0</ele><time>2026-04-27T07:03:58Z</time></trkpt><trkpt lat="41.891838552635335" lon="12.2267553882615"><ele>6.0</ele><time>2026-04-27T07:05:18.001Z</time></trkpt><trkpt lat="41.899563417235036" lon="12.218125042696778"><ele>6.0</ele><time>2026-04-27T07:08:18Z</time></trkpt><trkpt lat="41.899769354109324" lon="12.217911074726466"><ele>6.0</ele><time>2026-04-27T07:08:19Z</time></trkpt><trkpt lat="41.899977861321865" lon="12.217699756459174"><ele>7.0</ele><time>2026-04-27T07:08:20Z</time></trkpt><trkpt lat="41.90018567588918" lon="12.217486682870588"><ele>8.0</ele><time>2026-04-27T07:08:21Z</time></trkpt><trkpt lat="41.90039213671649" lon="12.21726884857639"><ele>8.0</ele><time>2026-04-27T07:08:22Z</time></trkpt><trkpt lat="41.900596442029624" lon="12.217048228675875"><ele>8.0</ele><time>2026-04-27T07:08:23Z</time></trkpt><trkpt lat="41.900802197131654" lon="12.216826021571682"><ele>8.0</ele><time>2026-04-27T07:08:24Z</time></trkpt><trkpt lat="41.90100874226419" lon="12.216607136915176"><ele>8.0</ele><time>2026-04-27T07:08:25Z</time></trkpt><trkpt lat="41.90121410307228" lon="12.21638984402506"><ele>8.0</ele><time>2026-04-27T07:08:26Z</time></trkpt><trkpt lat="41.9014209633427" lon="12.216174212996163"><ele>8.0</ele><time>2026-04-27T07:08:27Z</time></trkpt><trkpt lat="41.90162489748848" lon="12.215962845477293"><ele>8.0</ele><time>2026-04-27T07:08:28Z</time></trkpt><trkpt lat="41.90182429833483" lon="12.215759503493233"><ele>8.0</ele><time>2026-04-27T07:08:29Z</time></trkpt><trkpt lat="41.902016052167724" lon="12.215561557855903"><ele>7.5</ele><time>2026-04-27T07:08:30Z</time></trkpt><trkpt lat="41.902205374514075" lon="12.215367378256968"><ele>7.0</ele><time>2026-04-27T07:08:31Z</time></trkpt><trkpt lat="41.902396664154395" lon="12.215162532598464"><ele>7.0</ele><time>2026-04-27T07:08:32Z</time></trkpt><trkpt lat="41.902593339259695" lon="12.214948244290785"><ele>7.0</ele><time>2026-04-27T07:08:33Z</time></trkpt><trkpt lat="41.90279706607258" lon="12.214736094066367"><ele>7.0</ele><time>2026-04-27T07:08:34Z</time></trkpt><trkpt lat="41.90300629435857" lon="12.214518130709793"><ele>7.0</ele><time>2026-04-27T07:08:35Z</time></trkpt><trkpt lat="41.903220424517826" lon="12.214297159735194"><ele>7.0</ele><time>2026-04-27T07:08:36Z</time></trkpt><trkpt lat="41.903443943691855" lon="12.21408125738341"><ele>7.0</ele><time>2026-04-27T07:08:37Z</time></trkpt><trkpt lat="41.90367195290392" lon="12.21386320177259"><ele>6.5</ele><time>2026-04-27T07:08:38Z</time></trkpt><trkpt lat="41.90390392712512" lon="12.213650545592346"><ele>6.0</ele><time>2026-04-27T07:08:39Z</time></trkpt><trkpt lat="41.90414320720413" lon="12.213442874334485"><ele>7.5</ele><time>2026-04-27T07:08:40Z</time></trkpt><trkpt lat="41.90438377454353" lon="12.213237935550664"><ele>9.0</ele><time>2026-04-27T07:08:41Z</time></trkpt><trkpt lat="41.90462927597066" lon="12.213032269433654"><ele>9.0</ele><time>2026-04-27T07:08:42Z</time></trkpt><trkpt lat="41.9048799241823" lon="12.212831072632113"><ele>9.0</ele><time>2026-04-27T07:08:43Z</time></trkpt><trkpt lat="41.905133259723264" lon="12.212641503383061"><ele>9.5</ele><time>2026-04-27T07:08:44Z</time></trkpt><trkpt lat="41.905385260955654" lon="12.212447823957879"><ele>10.0</ele><time>2026-04-27T07:08:45Z</time></trkpt><trkpt lat="41.90564598032941" lon="12.21227009768973"><ele>10.0</ele><time>2026-04-27T07:08:46Z</time></trkpt><trkpt lat="41.90590250009265" lon="12.212092534616401"><ele>10.0</ele><time>2026-04-27T07:08:47Z</time></trkpt><trkpt lat="41.90616308682574" lon="12.211923232616142"><ele>11.0</ele><time>2026-04-27T07:08:48Z</time></trkpt><trkpt lat="41.9064214200715" lon="12.211758367232475"><ele>12.0</ele><time>2026-04-27T07:08:49Z</time></trkpt><trkpt lat="41.90668179080568" lon="12.211596667772579"><ele>12.5</ele><time>2026-04-27T07:08:50Z</time></trkpt><trkpt lat="41.90693968843095" lon="12.211439503566371"><ele>13.0</ele><time>2026-04-27T07:08:51Z</time></trkpt><trkpt lat="41.90720059091332" lon="12.211279280190222"><ele>13.0</ele><time>2026-04-27T07:08:52Z</time></trkpt><trkpt lat="41.90746246813919" lon="12.211121201623609"><ele>13.0</ele><time>2026-04-27T07:08:53Z</time></trkpt><trkpt lat="41.90772670968819" lon="12.210962323397682"><ele>12.5</ele><time>2026-04-27T07:08:54Z</time></trkpt><trkpt lat="41.9079929160273" lon="12.21080418352638"><ele>12.0</ele><time>2026-04-27T07:08:55Z</time></trkpt><trkpt lat="41.90825974123494" lon="12.210646600901402"><ele>14.0</ele><time>2026-04-27T07:08:56Z</time></trkpt><trkpt lat="41.90852560876576" lon="12.210486500352493"><ele>16.0</ele><time>2026-04-27T07:08:57Z</time></trkpt><trkpt lat="41.9087903043671" lon="12.210326038699607"><ele>16.0</ele><time>2026-04-27T07:08:58Z</time></trkpt><trkpt lat="41.909055317029" lon="12.210165928414119"><ele>16.0</ele><time>2026-04-27T07:08:59Z</time></trkpt><trkpt lat="41.9093206584292" lon="12.210010720301268"><ele>17.0</ele><time>2026-04-27T07:09:00Z</time></trkpt><trkpt lat="41.90958730773465" lon="12.209855779907151"><ele>18.0</ele><time>2026-04-27T07:09:01Z</time></trkpt><trkpt lat="41.9098525485539" lon="12.20970097077609"><ele>18.0</ele><time>2026-04-27T07:09:02Z</time></trkpt><trkpt lat="41.91012069138226" lon="12.209543724169947"><ele>18.0</ele><time>2026-04-27T07:09:03Z</time></trkpt><trkpt lat="41.910392082789265" lon="12.209382710629432"><ele>18.0</ele><time>2026-04-27T07:09:04Z</time></trkpt><trkpt lat="41.91066237302302" lon="12.209216970447663"><ele>18.0</ele><time>2026-04-27T07:09:05Z</time></trkpt><trkpt lat="41.91094145212285" lon="12.209068169265798"><ele>19.0</ele><time>2026-04-27T07:09:06Z</time></trkpt><trkpt lat="41.91124436002069" lon="12.208950798959508"><ele>20.0</ele><time>2026-04-27T07:09:07Z</time></trkpt><trkpt lat="41.91155093443811" lon="12.208852098297076"><ele>20.5</ele><time>2026-04-27T07:09:08Z</time></trkpt><trkpt lat="41.91184994900167" lon="12.208774248636137"><ele>21.0</ele><time>2026-04-27T07:09:09Z</time></trkpt><trkpt lat="41.91205717732117" lon="12.208412486615355"><ele>21.0</ele><time>2026-04-27T07:09:10Z</time></trkpt><trkpt lat="41.9123413558962" lon="12.208247350891945"><ele>21.0</ele><time>2026-04-27T07:09:11Z</time></trkpt><trkpt lat="41.912610624811805" lon="12.208093100043156"><ele>22.0</ele><time>2026-04-27T07:09:12Z</time></trkpt><trkpt lat="41.91288518773128" lon="12.207933768692685"><ele>23.0</ele><time>2026-04-27T07:09:13Z</time></trkpt><trkpt lat="41.913159543331226" lon="12.207762579603907"><ele>23.5</ele><time>2026-04-27T07:09:14Z</time></trkpt><trkpt lat="41.91343544947748" lon="12.207607367336264"><ele>24.0</ele><time>2026-04-27T07:09:15Z</time></trkpt><trkpt lat="41.91371528851602" lon="12.207435647713186"><ele>24.0</ele><time>2026-04-27T07:09:16Z</time></trkpt><trkpt lat="41.913996835166515" lon="12.207267524671662"><ele>24.0</ele><time>2026-04-27T07:09:17Z</time></trkpt><trkpt lat="41.928039158098514" lon="12.191903928745294"><ele>26.0</ele><time>2026-04-27T07:10:18Z</time></trkpt><trkpt lat="41.92818572879266" lon="12.191533237706086"><ele>28.0</ele><time>2026-04-27T07:10:19Z</time></trkpt><trkpt lat="41.92832634267486" lon="12.19116186432786"><ele>28.0</ele><time>2026-04-27T07:10:20Z</time></trkpt><trkpt lat="41.9284644757994" lon="12.190776719817979"><ele>28.0</ele><time>2026-04-27T07:10:21Z</time></trkpt><trkpt lat="41.928592022746535" lon="12.190389785169842"><ele>28.0</ele><time>2026-04-27T07:10:22Z</time></trkpt><trkpt lat="41.92872876875505" lon="12.190007867466166"><ele>28.0</ele><time>2026-04-27T07:10:23Z</time></trkpt><trkpt lat="41.92885565917526" lon="12.189619179459013"><ele>28.0</ele><time>2026-04-27T07:10:24Z</time></trkpt><trkpt lat="41.928979980272" lon="12.189219244534137"><ele>28.0</ele><time>2026-04-27T07:10:25Z</time></trkpt><trkpt lat="41.929099886537855" lon="12.188822924756774"><ele>28.0</ele><time>2026-04-27T07:10:26Z</time></trkpt><trkpt lat="41.92921464926011" lon="12.188418828779378"><ele>28.0</ele><time>2026-04-27T07:10:27Z</time></trkpt><trkpt lat="41.92932703526308" lon="12.188011211947153"><ele>28.0</ele><time>2026-04-27T07:10:28Z</time></trkpt><trkpt lat="41.92943872930514" lon="12.187603608293479"><ele>28.0</ele><time>2026-04-27T07:10:29Z</time></trkpt><trkpt lat="41.92954425876713" lon="12.187188839738683"><ele>28.0</ele><time>2026-04-27T07:10:30Z</time></trkpt><trkpt lat="41.92964720160557" lon="12.186768811106962"><ele>28.0</ele><time>2026-04-27T07:10:31Z</time></trkpt><trkpt lat="41.9297438907101" lon="12.186343345197264"><ele>28.0</ele><time>2026-04-27T07:10:32Z</time></trkpt><trkpt lat="41.92983620711245" lon="12.185917932143255"><ele>28.0</ele><time>2026-04-27T07:10:33Z</time></trkpt><trkpt lat="41.92992718266977" lon="12.18548889493873"><ele>26.0</ele><time>2026-04-27T07:10:34Z</time></trkpt><trkpt lat="41.93001608834582" lon="12.185055452052978"><ele>24.0</ele><time>2026-04-27T07:10:35Z</time></trkpt><trkpt lat="41.93011412686843" lon="12.184627832790659"><ele>22.0</ele><time>2026-04-27T07:10:36Z</time></trkpt><trkpt lat="41.93021049197465" lon="12.18419709599076"><ele>20.0</ele><time>2026-04-27T07:10:37Z</time></trkpt><trkpt lat="41.93030629369399" lon="12.183764290530448"><ele>20.0</ele><time>2026-04-27T07:10:38Z</time></trkpt><trkpt lat="41.93040102856741" lon="12.183329965999118"><ele>20.0</ele><time>2026-04-27T07:10:39Z</time></trkpt><trkpt lat="41.930495259929984" lon="12.182895287496361"><ele>17.0</ele><time>2026-04-27T07:10:40Z</time></trkpt><trkpt lat="41.93058830707969" lon="12.182460041405937"><ele>14.0</ele><time>2026-04-27T07:10:41Z</time></trkpt><trkpt lat="41.93067896804033" lon="12.182022333225055"><ele>13.0</ele><time>2026-04-27T07:10:42Z</time></trkpt><trkpt lat="41.93076840316537" lon="12.18158111875999"><ele>12.0</ele><time>2026-04-27T07:10:43Z</time></trkpt><trkpt lat="41.93085638615099" lon="12.18114123089496"><ele>12.0</ele><time>2026-04-27T07:10:44Z</time></trkpt><trkpt lat="41.93094861842493" lon="12.180692190656973"><ele>12.0</ele><time>2026-04-27T07:10:45Z</time></trkpt><trkpt lat="41.93105286297437" lon="12.180237381509858"><ele>11.5</ele><time>2026-04-27T07:10:46Z</time></trkpt><trkpt lat="41.93115707916281" lon="12.179796273266474"><ele>11.0</ele><time>2026-04-27T07:10:47Z</time></trkpt><trkpt lat="41.931242932606544" lon="12.179358812380938"><ele>12.5</ele><time>2026-04-27T07:10:48Z</time></trkpt><trkpt lat="41.93134004402279" lon="12.178921548762291"><ele>14.0</ele><time>2026-04-27T07:10:49Z</time></trkpt><trkpt lat="41.931434022804616" lon="12.178485694264323"><ele>16.5</ele><time>2026-04-27T07:10:50Z</time></trkpt><trkpt lat="41.9315297730252" lon="12.178048933409451"><ele>19.0</ele><time>2026-04-27T07:10:51Z</time></trkpt><trkpt lat="41.931623290020866" lon="12.177616792392696"><ele>19.0</ele><time>2026-04-27T07:10:52Z</time></trkpt><trkpt lat="41.931718501525125" lon="12.177180609915615"><ele>19.0</ele><time>2026-04-27T07:10:53Z</time></trkpt><trkpt lat="41.93181553716988" lon="12.176745478401552"><ele>20.0</ele><time>2026-04-27T07:10:54Z</time></trkpt><trkpt lat="41.93191309748777" lon="12.176308109222731"><ele>21.0</ele><time>2026-04-27T07:10:55Z</time></trkpt><trkpt lat="41.932011263975" lon="12.175872160765959"><ele>22.0</ele><time>2026-04-27T07:10:56Z</time></trkpt><trkpt lat="41.932111738127524" lon="12.175434087930622"><ele>23.0</ele><time>2026-04-27T07:10:57Z</time></trkpt><trkpt lat="41.9322113314775" lon="12.174999405333903"><ele>22.0</ele><time>2026-04-27T07:10:58Z</time></trkpt><trkpt lat="41.932310797517616" lon="12.174561962646576"><ele>21.0</ele><time>2026-04-27T07:10:59Z</time></trkpt><trkpt lat="41.9324097404162" lon="12.174124763876238"><ele>20.5</ele><time>2026-04-27T07:11:00Z</time></trkpt><trkpt lat="41.93250745189131" lon="12.173683980749592"><ele>20.0</ele><time>2026-04-27T07:11:01Z</time></trkpt><trkpt lat="41.93260644462172" lon="12.173244785931473"><ele>21.5</ele><time>2026-04-27T07:11:02Z</time></trkpt><trkpt lat="41.93270477070753" lon="12.172800308135944"><ele>23.0</ele><time>2026-04-27T07:11:03Z</time></trkpt><trkpt lat="41.932800832738316" lon="12.172357236737579"><ele>23.5</ele><time>2026-04-27T07:11:04Z</time></trkpt><trkpt lat="41.93289549428443" lon="12.171913241729891"><ele>24.0</ele><time>2026-04-27T07:11:05Z</time></trkpt><trkpt lat="41.932990619638105" lon="12.171475944733796"><ele>22.5</ele><time>2026-04-27T07:11:06Z</time></trkpt><trkpt lat="41.933088906070545" lon="12.171035406528667"><ele>21.0</ele><time>2026-04-27T07:11:07Z</time></trkpt><trkpt lat="41.93318611916897" lon="12.170595621332756"><ele>19.5</ele><time>2026-04-27T07:11:08Z</time></trkpt><trkpt lat="41.93328388622328" lon="12.17015396120823"><ele>18.0</ele><time>2026-04-27T07:11:09Z</time></trkpt><trkpt lat="41.933382611959495" lon="12.16971459584108"><ele>19.5</ele><time>2026-04-27T07:11:10Z</time></trkpt><trkpt lat="41.933481367010145" lon="12.169272628038135"><ele>21.0</ele><time>2026-04-27T07:11:11Z</time></trkpt><trkpt lat="41.93357978203126" lon="12.168829325280374"><ele>21.0</ele><time>2026-04-27T07:11:12Z</time></trkpt><trkpt lat="41.933676546204644" lon="12.16838230472749"><ele>21.0</ele><time>2026-04-27T07:11:13Z</time></trkpt><trkpt lat="41.93377238855493" lon="12.167936847210015"><ele>20.5</ele><time>2026-04-27T07:11:14Z</time></trkpt><trkpt lat="41.93386912983784" lon="12.167492465822837"><ele>20.0</ele><time>2026-04-27T07:11:15Z</time></trkpt><trkpt lat="41.933967620459484" lon="12.16704626385557"><ele>19.0</ele><time>2026-04-27T07:11:16Z</time></trkpt><trkpt lat="41.93406911751765" lon="12.166600711903275"><ele>18.0</ele><time>2026-04-27T07:11:17Z</time></trkpt><trkpt lat="41.942375999919456" lon="12.144671196024074"><ele>24.5</ele><time>2026-04-27T07:12:18Z</time></trkpt><trkpt lat="41.94261278860253" lon="12.144395348100653"><ele>31.0</ele><time>2026-04-27T07:12:19Z</time></trkpt><trkpt lat="41.942868387674004" lon="12.14414004222834"><ele>31.0</ele><time>2026-04-27T07:12:20Z</time></trkpt><trkpt lat="41.94303519939089" lon="12.143816937475068"><ele>31.0</ele><time>2026-04-27T07:12:21Z</time></trkpt><trkpt lat="41.943269106925115" lon="12.143539420943958"><ele>32.0</ele><time>2026-04-27T07:12:22Z</time></trkpt><trkpt lat="41.943505115711716" lon="12.143260286130735"><ele>33.0</ele><time>2026-04-27T07:12:23Z</time></trkpt><trkpt lat="41.94374096442559" lon="12.14297840889423"><ele>33.0</ele><time>2026-04-27T07:12:24Z</time></trkpt><trkpt lat="41.943976919048055" lon="12.142694190402407"><ele>33.0</ele><time>2026-04-27T07:12:25Z</time></trkpt><trkpt lat="41.94422114622307" lon="12.14242366925812"><ele>34.5</ele><time>2026-04-27T07:12:26Z</time></trkpt><trkpt lat="41.94445951605208" lon="12.142144803695256"><ele>36.0</ele><time>2026-04-27T07:12:27Z</time></trkpt><trkpt lat="41.94469737372373" lon="12.141872637889083"><ele>36.0</ele><time>2026-04-27T07:12:28Z</time></trkpt><trkpt lat="41.94493588721513" lon="12.141595950859326"><ele>36.0</ele><time>2026-04-27T07:12:29Z</time></trkpt><trkpt lat="41.94517363281099" lon="12.14132332202702"><ele>36.0</ele><time>2026-04-27T07:12:30Z</time></trkpt><trkpt lat="41.94541119464105" lon="12.141049363593217"><ele>36.0</ele><time>2026-04-27T07:12:31Z</time></trkpt><trkpt lat="41.94564739067466" lon="12.14076774749337"><ele>37.0</ele><time>2026-04-27T07:12:32Z</time></trkpt><trkpt lat="41.94588431837378" lon="12.140487770763897"><ele>38.0</ele><time>2026-04-27T07:12:33Z</time></trkpt><trkpt lat="41.946118324660084" lon="12.14020514584315"><ele>38.0</ele><time>2026-04-27T07:12:34Z</time></trkpt><trkpt lat="41.94635294479122" lon="12.139924763411264"><ele>38.0</ele><time>2026-04-27T07:12:35Z</time></trkpt><trkpt lat="41.9465884547902" lon="12.139644056216344"><ele>37.0</ele><time>2026-04-27T07:12:36Z</time></trkpt><trkpt lat="41.94682729143849" lon="12.139359533771186"><ele>36.0</ele><time>2026-04-27T07:12:37Z</time></trkpt><trkpt lat="41.94706236859541" lon="12.13907756704261"><ele>36.0</ele><time>2026-04-27T07:12:38Z</time></trkpt><trkpt lat="41.94729415129705" lon="12.13879516797163"><ele>36.0</ele><time>2026-04-27T07:12:39Z</time></trkpt><trkpt lat="41.94753029329942" lon="12.138514058096295"><ele>36.5</ele><time>2026-04-27T07:12:40Z</time></trkpt><trkpt lat="41.94777027696494" lon="12.13822836075018"><ele>37.0</ele><time>2026-04-27T07:12:41Z</time></trkpt><trkpt lat="41.94801047348086" lon="12.137949971751796"><ele>37.0</ele><time>2026-04-27T07:12:42Z</time></trkpt><trkpt lat="41.94826235618212" lon="12.137667597329479"><ele>37.0</ele><time>2026-04-27T07:12:43Z</time></trkpt><trkpt lat="41.94849951028848" lon="12.13738898752601"><ele>37.5</ele><time>2026-04-27T07:12:44Z</time></trkpt><trkpt lat="41.94873701593414" lon="12.137103278909727"><ele>38.0</ele><time>2026-04-27T07:12:45Z</time></trkpt><trkpt lat="41.948978053213" lon="12.136818037058363"><ele>37.5</ele><time>2026-04-27T07:12:46Z</time></trkpt><trkpt lat="41.94922100079798" lon="12.13652477495881"><ele>37.0</ele><time>2026-04-27T07:12:47Z</time></trkpt><trkpt lat="41.94946637935974" lon="12.136233701457463"><ele>37.0</ele><time>2026-04-27T07:12:48Z</time></trkpt><trkpt lat="41.94971052517118" lon="12.135945476353504"><ele>37.0</ele><time>2026-04-27T07:12:49Z</time></trkpt><trkpt lat="41.94995049470461" lon="12.135662475625184"><ele>37.0</ele><time>2026-04-27T07:12:50Z</time></trkpt><trkpt lat="41.950191708667255" lon="12.135369898004178"><ele>37.0</ele><time>2026-04-27T07:12:51Z</time></trkpt><trkpt lat="41.9504357242286" lon="12.13508246946953"><ele>36.5</ele><time>2026-04-27T07:12:52Z</time></trkpt><trkpt lat="41.950677670389304" lon="12.134802343237668"><ele>36.0</ele><time>2026-04-27T07:12:53Z</time></trkpt><trkpt lat="41.950916423056185" lon="12.134511720859429"><ele>36.0</ele><time>2026-04-27T07:12:54Z</time></trkpt><trkpt lat="41.951160198946255" lon="12.134233290442499"><ele>36.0</ele><time>2026-04-27T07:12:55Z</time></trkpt><trkpt lat="41.95140366823408" lon="12.133946060049029"><ele>36.0</ele><time>2026-04-27T07:12:56Z</time></trkpt><trkpt lat="41.95164536726083" lon="12.133655524538367"><ele>36.0</ele><time>2026-04-27T07:12:57Z</time></trkpt><trkpt lat="41.951892060502274" lon="12.13336990313162"><ele>36.5</ele><time>2026-04-27T07:12:58Z</time></trkpt><trkpt lat="41.952138093635824" lon="12.13307445110894"><ele>37.0</ele><time>2026-04-27T07:12:59Z</time></trkpt><trkpt lat="41.952383725238974" lon="12.132788230024206"><ele>36.5</ele><time>2026-04-27T07:13:00Z</time></trkpt><trkpt lat="41.9526321276728" lon="12.132492719149324"><ele>36.0</ele><time>2026-04-27T07:13:01Z</time></trkpt><trkpt lat="41.95287963852864" lon="12.132194603037615"><ele>36.0</ele><time>2026-04-27T07:13:02Z</time></trkpt><trkpt lat="41.95312772970959" lon="12.131897517515505"><ele>36.0</ele><time>2026-04-27T07:13:03Z</time></trkpt><trkpt lat="41.95338116915395" lon="12.131606308955527"><ele>37.0</ele><time>2026-04-27T07:13:04Z</time></trkpt><trkpt lat="41.95363039022735" lon="12.131314425536981"><ele>38.0</ele><time>2026-04-27T07:13:05Z</time></trkpt><trkpt lat="41.9538806155964" lon="12.131022173232774"><ele>38.0</ele><time>2026-04-27T07:13:06Z</time></trkpt><trkpt lat="41.95412734368642" lon="12.130731564549228"><ele>38.0</ele><time>2026-04-27T07:13:07Z</time></trkpt><trkpt lat="41.95437365977275" lon="12.130442827973145"><ele>37.5</ele><time>2026-04-27T07:13:08Z</time></trkpt><trkpt lat="41.95461701922806" lon="12.130155225351922"><ele>37.0</ele><time>2026-04-27T07:13:09Z</time></trkpt><trkpt lat="41.95486187029949" lon="12.129864373140725"><ele>36.5</ele><time>2026-04-27T07:13:10Z</time></trkpt><trkpt lat="41.95510723771483" lon="12.129577850840972"><ele>36.0</ele><time>2026-04-27T07:13:11Z</time></trkpt><trkpt lat="41.955346392966646" lon="12.129292513543872"><ele>36.5</ele><time>2026-04-27T07:13:12Z</time></trkpt><trkpt lat="41.95558827446754" lon="12.129007387005732"><ele>37.0</ele><time>2026-04-27T07:13:13Z</time></trkpt><trkpt lat="41.955833546748146" lon="12.128720861823375"><ele>36.0</ele><time>2026-04-27T07:13:14Z</time></trkpt><trkpt lat="41.956076902193374" lon="12.128430659812523"><ele>35.0</ele><time>2026-04-27T07:13:15Z</time></trkpt><trkpt lat="41.95631749211572" lon="12.12814708239634"><ele>35.0</ele><time>2026-04-27T07:13:16Z</time></trkpt><trkpt lat="41.95656091346938" lon="12.127857280929698"><ele>35.0</ele><time>2026-04-27T07:13:17Z</time></trkpt><trkpt lat="41.968828858523494" lon="12.109371862686784"><ele>28.5</ele><time>2026-04-27T07:14:18Z</time></trkpt><trkpt lat="41.96899555481298" lon="12.109010848488019"><ele>22.0</ele><time>2026-04-27T07:14:19Z</time></trkpt><trkpt lat="41.96915364556293" lon="12.108654393526235"><ele>23.0</ele><time>2026-04-27T07:14:20Z</time></trkpt><trkpt lat="41.9693114751195" lon="12.108304468332243"><ele>24.0</ele><time>2026-04-27T07:14:21Z</time></trkpt><trkpt lat="41.96946962761651" lon="12.107950476223335"><ele>24.0</ele><time>2026-04-27T07:14:22Z</time></trkpt><trkpt lat="41.96962754095695" lon="12.107602034740907"><ele>24.0</ele><time>2026-04-27T07:14:23Z</time></trkpt><trkpt lat="41.9697842038682" lon="12.107256339837885"><ele>24.0</ele><time>2026-04-27T07:14:24Z</time></trkpt><trkpt lat="41.9699426338566" lon="12.106902674866724"><ele>24.0</ele><time>2026-04-27T07:14:25Z</time></trkpt><trkpt lat="41.970099017308684" lon="12.106558346069697"><ele>25.0</ele><time>2026-04-27T07:14:26Z</time></trkpt><trkpt lat="41.97025710535796" lon="12.106207967758733"><ele>26.0</ele><time>2026-04-27T07:14:27Z</time></trkpt><trkpt lat="41.97041945521611" lon="12.105860412889497"><ele>26.0</ele><time>2026-04-27T07:14:28Z</time></trkpt><trkpt lat="41.970580522026204" lon="12.10550005768103"><ele>26.0</ele><time>2026-04-27T07:14:29Z</time></trkpt><trkpt lat="41.970740749906085" lon="12.105140633444762"><ele>26.5</ele><time>2026-04-27T07:14:30Z</time></trkpt><trkpt lat="41.9709036452212" lon="12.104779206919961"><ele>27.0</ele><time>2026-04-27T07:14:31Z</time></trkpt><trkpt lat="41.97106749044563" lon="12.104425262965304"><ele>27.0</ele><time>2026-04-27T07:14:32Z</time></trkpt><trkpt lat="41.97122374154097" lon="12.104080866517107"><ele>27.0</ele><time>2026-04-27T07:14:33Z</time></trkpt><trkpt lat="41.97138057611968" lon="12.103747883857306"><ele>27.5</ele><time>2026-04-27T07:14:34Z</time></trkpt><trkpt lat="41.97152888721203" lon="12.103415058248567"><ele>28.0</ele><time>2026-04-27T07:14:35Z</time></trkpt><trkpt lat="41.971681008023445" lon="12.103076344281302"><ele>28.5</ele><time>2026-04-27T07:14:36Z</time></trkpt><trkpt lat="41.97182838310428" lon="12.102741631983267"><ele>29.0</ele><time>2026-04-27T07:14:37Z</time></trkpt><trkpt lat="41.971991595442695" lon="12.102395373891708"><ele>29.0</ele><time>2026-04-27T07:14:38Z</time></trkpt><trkpt lat="41.972142935440644" lon="12.102067545806435"><ele>29.0</ele><time>2026-04-27T07:14:39Z</time></trkpt><trkpt lat="41.97229906702309" lon="12.101736479211635"><ele>29.0</ele><time>2026-04-27T07:14:40Z</time></trkpt><trkpt lat="41.97244786274182" lon="12.101408013587303"><ele>29.0</ele><time>2026-04-27T07:14:41Z</time></trkpt><trkpt lat="41.97259439888799" lon="12.101079858223157"><ele>29.5</ele><time>2026-04-27T07:14:42Z</time></trkpt><trkpt lat="41.97274319262203" lon="12.100757683611354"><ele>30.0</ele><time>2026-04-27T07:14:43Z</time></trkpt><trkpt lat="41.9728909330891" lon="12.100430244724047"><ele>30.0</ele><time>2026-04-27T07:14:44Z</time></trkpt><trkpt lat="41.973040767935345" lon="12.100104981259014"><ele>30.0</ele><time>2026-04-27T07:14:45Z</time></trkpt><trkpt lat="41.973186774883" lon="12.099782625092649"><ele>29.5</ele><time>2026-04-27T07:14:46Z</time></trkpt><trkpt lat="41.97333363745841" lon="12.099456228586117"><ele>29.0</ele><time>2026-04-27T07:14:47Z</time></trkpt><trkpt lat="41.97348447202856" lon="12.099122330358657"><ele>30.0</ele><time>2026-04-27T07:14:48Z</time></trkpt><trkpt lat="41.97363327770154" lon="12.098797683649169"><ele>31.0</ele><time>2026-04-27T07:14:49Z</time></trkpt><trkpt lat="41.97377781293883" lon="12.098474791591723"><ele>29.5</ele><time>2026-04-27T07:14:50Z</time></trkpt><trkpt lat="41.97392806108376" lon="12.09814596006996"><ele>28.0</ele><time>2026-04-27T07:14:51Z</time></trkpt><trkpt lat="41.974075175216555" lon="12.097812322796623"><ele>28.0</ele><time>2026-04-27T07:14:52Z</time></trkpt><trkpt lat="41.97422604557961" lon="12.09747752081696"><ele>28.0</ele><time>2026-04-27T07:14:53Z</time></trkpt><trkpt lat="41.9743800100092" lon="12.097127232673952"><ele>27.0</ele><time>2026-04-27T07:14:54Z</time></trkpt><trkpt lat="41.97452004356042" lon="12.096781730792136"><ele>26.0</ele><time>2026-04-27T07:14:55Z</time></trkpt><trkpt lat="41.97468184950208" lon="12.096450680691692"><ele>24.5</ele><time>2026-04-27T07:14:56Z</time></trkpt><trkpt lat="41.97483214330642" lon="12.09612478364075"><ele>23.0</ele><time>2026-04-27T07:14:57Z</time></trkpt><trkpt lat="41.97498616787569" lon="12.095770094201058"><ele>20.0</ele><time>2026-04-27T07:14:58Z</time></trkpt><trkpt lat="41.97513927011234" lon="12.095425511017364"><ele>17.0</ele><time>2026-04-27T07:14:59Z</time></trkpt><trkpt lat="41.97529226432251" lon="12.09506708913929"><ele>17.0</ele><time>2026-04-27T07:15:00Z</time></trkpt><trkpt lat="41.975450014239534" lon="12.094725718688649"><ele>17.0</ele><time>2026-04-27T07:15:01Z</time></trkpt><trkpt lat="41.97560418141481" lon="12.094384422821491"><ele>18.5</ele><time>2026-04-27T07:15:02Z</time></trkpt><trkpt lat="41.97575813841163" lon="12.09404159441418"><ele>20.0</ele><time>2026-04-27T07:15:03Z</time></trkpt><trkpt lat="41.975913455193016" lon="12.093708150459866"><ele>21.0</ele><time>2026-04-27T07:15:04Z</time></trkpt><trkpt lat="41.97606460083326" lon="12.093360359873003"><ele>22.0</ele><time>2026-04-27T07:15:05Z</time></trkpt><trkpt lat="41.976224259652675" lon="12.093011226413875"><ele>22.0</ele><time>2026-04-27T07:15:06Z</time></trkpt><trkpt lat="41.9763773970523" lon="12.092667678377456"><ele>22.0</ele><time>2026-04-27T07:15:07Z</time></trkpt><trkpt lat="41.976534912262885" lon="12.092322465073064"><ele>23.5</ele><time>2026-04-27T07:15:08Z</time></trkpt><trkpt lat="41.97669480394846" lon="12.091974530807306"><ele>25.0</ele><time>2026-04-27T07:15:09Z</time></trkpt><trkpt lat="41.97685365014407" lon="12.091625514399919"><ele>24.5</ele><time>2026-04-27T07:15:10Z</time></trkpt><trkpt lat="41.977015589978016" lon="12.091279815085278"><ele>24.0</ele><time>2026-04-27T07:15:11Z</time></trkpt><trkpt lat="41.9771736626864" lon="12.090925120445789"><ele>24.5</ele><time>2026-04-27T07:15:12Z</time></trkpt><trkpt lat="41.97733231963874" lon="12.09057418463576"><ele>25.0</ele><time>2026-04-27T07:15:13Z</time></trkpt><trkpt lat="41.97748635261971" lon="12.090218570949276"><ele>24.0</ele><time>2026-04-27T07:15:14Z</time></trkpt><trkpt lat="41.977644815632985" lon="12.089869512412905"><ele>23.0</ele><time>2026-04-27T07:15:15Z</time></trkpt><trkpt lat="41.9778123746007" lon="12.089515010467249"><ele>23.0</ele><time>2026-04-27T07:15:16Z</time></trkpt><trkpt lat="41.97797676150319" lon="12.089157069053693"><ele>23.0</ele><time>2026-04-27T07:15:17Z</time></trkpt><trkpt lat="41.98706668492166" lon="12.067135150337492"><ele>24.0</ele><time>2026-04-27T07:16:18Z</time></trkpt><trkpt lat="41.9872102033112" lon="12.066797676245551"><ele>25.0</ele><time>2026-04-27T07:16:19Z</time></trkpt><trkpt lat="41.98734948480527" lon="12.066461613439921"><ele>25.0</ele><time>2026-04-27T07:16:20Z</time></trkpt><trkpt lat="41.987495664835095" lon="12.066129920868512"><ele>25.0</ele><time>2026-04-27T07:16:21Z</time></trkpt><trkpt lat="41.98764520791958" lon="12.065790436665006"><ele>24.0</ele><time>2026-04-27T07:16:22Z</time></trkpt><trkpt lat="41.98780127467897" lon="12.065452741075083"><ele>23.0</ele><time>2026-04-27T07:16:23Z</time></trkpt><trkpt lat="41.98796089642638" lon="12.06511302282288"><ele>24.5</ele><time>2026-04-27T07:16:24Z</time></trkpt><trkpt lat="41.98812311545087" lon="12.064777895950584"><ele>26.0</ele><time>2026-04-27T07:16:25Z</time></trkpt><trkpt lat="41.988290854509664" lon="12.064437814200984"><ele>24.5</ele><time>2026-04-27T07:16:26Z</time></trkpt><trkpt lat="41.988459421291466" lon="12.064095372986428"><ele>23.0</ele><time>2026-04-27T07:16:27Z</time></trkpt><trkpt lat="41.98863496668141" lon="12.063763040839698"><ele>23.0</ele><time>2026-04-27T07:16:28Z</time></trkpt><trkpt lat="41.98880331863618" lon="12.06342953584577"><ele>23.0</ele><time>2026-04-27T07:16:29Z</time></trkpt><trkpt lat="41.98897979600918" lon="12.06310164941514"><ele>23.0</ele><time>2026-04-27T07:16:30Z</time></trkpt><trkpt lat="41.98915226726665" lon="12.062783353007651"><ele>23.0</ele><time>2026-04-27T07:16:31Z</time></trkpt><trkpt lat="41.98934525523847" lon="12.06245320391937"><ele>21.5</ele><time>2026-04-27T07:16:32Z</time></trkpt><trkpt lat="41.98955030007733" lon="12.062120484804508"><ele>20.0</ele><time>2026-04-27T07:16:33Z</time></trkpt><trkpt lat="41.989739525683376" lon="12.061789292805205"><ele>19.5</ele><time>2026-04-27T07:16:34Z</time></trkpt><trkpt lat="41.989935067153255" lon="12.061467857531644"><ele>19.0</ele><time>2026-04-27T07:16:35Z</time></trkpt><trkpt lat="41.990126104004645" lon="12.061153649226176"><ele>19.0</ele><time>2026-04-27T07:16:36Z</time></trkpt><trkpt lat="41.99032191381947" lon="12.060834032073672"><ele>19.0</ele><time>2026-04-27T07:16:37Z</time></trkpt><trkpt lat="41.990516467165556" lon="12.060520886896612"><ele>19.5</ele><time>2026-04-27T07:16:38Z</time></trkpt><trkpt lat="41.99070630878065" lon="12.060204761156065"><ele>20.0</ele><time>2026-04-27T07:16:39Z</time></trkpt><trkpt lat="41.990895617934704" lon="12.059893004776997"><ele>22.5</ele><time>2026-04-27T07:16:40Z</time></trkpt><trkpt lat="41.99108149434637" lon="12.059584283764373"><ele>25.0</ele><time>2026-04-27T07:16:41Z</time></trkpt><trkpt lat="41.991268507144596" lon="12.059275462471389"><ele>25.0</ele><time>2026-04-27T07:16:42Z</time></trkpt><trkpt lat="41.991459999318074" lon="12.058954966501435"><ele>25.0</ele><time>2026-04-27T07:16:43Z</time></trkpt><trkpt lat="41.99165316121757" lon="12.058643119095592"><ele>23.5</ele><time>2026-04-27T07:16:44Z</time></trkpt><trkpt lat="41.99184716920108" lon="12.058326933656648"><ele>22.0</ele><time>2026-04-27T07:16:45Z</time></trkpt><trkpt lat="41.992040904949874" lon="12.058012755474431"><ele>20.5</ele><time>2026-04-27T07:16:46Z</time></trkpt><trkpt lat="41.992240240514825" lon="12.057700766533692"><ele>19.0</ele><time>2026-04-27T07:16:47Z</time></trkpt><trkpt lat="41.99243114804836" lon="12.057383736168202"><ele>17.0</ele><time>2026-04-27T07:16:48Z</time></trkpt><trkpt lat="41.9926228316994" lon="12.05706705384976"><ele>15.0</ele><time>2026-04-27T07:16:49Z</time></trkpt><trkpt lat="41.99281530343949" lon="12.056748840066978"><ele>15.0</ele><time>2026-04-27T07:16:50Z</time></trkpt><trkpt lat="41.993007805088446" lon="12.056436181487284"><ele>15.0</ele><time>2026-04-27T07:16:51Z</time></trkpt><trkpt lat="41.99319743278201" lon="12.056110094889002"><ele>15.0</ele><time>2026-04-27T07:16:52Z</time></trkpt><trkpt lat="41.99339117006478" lon="12.055796592385024"><ele>15.0</ele><time>2026-04-27T07:16:53Z</time></trkpt><trkpt lat="41.99358154731553" lon="12.055483112210615"><ele>14.5</ele><time>2026-04-27T07:16:54Z</time></trkpt><trkpt lat="41.993776378810246" lon="12.055161000611017"><ele>14.0</ele><time>2026-04-27T07:16:55Z</time></trkpt><trkpt lat="41.993971948444035" lon="12.05483965872266"><ele>13.0</ele><time>2026-04-27T07:16:56Z</time></trkpt><trkpt lat="41.99416672772377" lon="12.054515758086401"><ele>12.0</ele><time>2026-04-27T07:16:57Z</time></trkpt><trkpt lat="41.99436137758591" lon="12.05419621578497"><ele>13.5</ele><time>2026-04-27T07:16:58Z</time></trkpt><trkpt lat="41.9945563275788" lon="12.053873142451918"><ele>15.0</ele><time>2026-04-27T07:16:59Z</time></trkpt><trkpt lat="41.99475154993782" lon="12.053545161941626"><ele>15.0</ele><time>2026-04-27T07:17:00Z</time></trkpt><trkpt lat="41.99495380859976" lon="12.053217656582406"><ele>15.0</ele><time>2026-04-27T07:17:01Z</time></trkpt><trkpt lat="41.99515840724856" lon="12.052886854623196"><ele>12.0</ele><time>2026-04-27T07:17:02Z</time></trkpt><trkpt lat="41.995364482413194" lon="12.052551777341218"><ele>9.0</ele><time>2026-04-27T07:17:03Z</time></trkpt><trkpt lat="41.99557625129745" lon="12.052217145998359"><ele>8.5</ele><time>2026-04-27T07:17:04Z</time></trkpt><trkpt lat="41.99579239172617" lon="12.051875141273166"><ele>8.0</ele><time>2026-04-27T07:17:05Z</time></trkpt><trkpt lat="41.99600348935489" lon="12.051528623227666"><ele>10.0</ele><time>2026-04-27T07:17:06Z</time></trkpt><trkpt lat="41.99621374095602" lon="12.051182984586601"><ele>12.0</ele><time>2026-04-27T07:17:07Z</time></trkpt><trkpt lat="41.99642373567235" lon="12.050837818577438"><ele>11.5</ele><time>2026-04-27T07:17:08Z</time></trkpt><trkpt lat="41.996633098016034" lon="12.050494579377865"><ele>11.0</ele><time>2026-04-27T07:17:09Z</time></trkpt><trkpt lat="41.996842188214025" lon="12.050154236682191"><ele>11.0</ele><time>2026-04-27T07:17:10Z</time></trkpt><trkpt lat="41.99705234074087" lon="12.04980890250343"><ele>11.0</ele><time>2026-04-27T07:17:11Z</time></trkpt><trkpt lat="41.99725977335725" lon="12.049468497647274"><ele>11.0</ele><time>2026-04-27T07:17:12Z</time></trkpt><trkpt lat="41.99747365955478" lon="12.04912912406613"><ele>11.0</ele><time>2026-04-27T07:17:13Z</time></trkpt><trkpt lat="41.9976764957197" lon="12.048798002538257"><ele>11.5</ele><time>2026-04-27T07:17:14Z</time></trkpt><trkpt lat="41.997884629823595" lon="12.048449463734181"><ele>12.0</ele><time>2026-04-27T07:17:15Z</time></trkpt><trkpt lat="41.99809083070492" lon="12.048112369440194"><ele>12.0</ele><time>2026-04-27T07:17:16Z</time></trkpt><trkpt lat="41.998296564350554" lon="12.047774855415561"><ele>12.0</ele><time>2026-04-27T07:17:17Z</time></trkpt><trkpt lat="42.00905708345869" lon="12.025996070569036"><ele>18.5</ele><time>2026-04-27T07:18:18Z</time></trkpt><trkpt lat="42.009209927621704" lon="12.025620505187025"><ele>25.0</ele><time>2026-04-27T07:18:19Z</time></trkpt><trkpt lat="42.009362361865044" lon="12.025243856176262"><ele>25.0</ele><time>2026-04-27T07:18:20Z</time></trkpt><trkpt lat="42.009515141550075" lon="12.024866828420738"><ele>25.0</ele><time>2026-04-27T07:18:21Z</time></trkpt><trkpt lat="42.0096678762027" lon="12.02448754904196"><ele>25.0</ele><time>2026-04-27T07:18:22Z</time></trkpt><trkpt lat="42.0098179988273" lon="12.024113091271733"><ele>25.0</ele><time>2026-04-27T07:18:23Z</time></trkpt><trkpt lat="42.00997010781883" lon="12.023736131045474"><ele>24.5</ele><time>2026-04-27T07:18:24Z</time></trkpt><trkpt lat="42.01012208754694" lon="12.023351681819541"><ele>24.0</ele><time>2026-04-27T07:18:25Z</time></trkpt><trkpt lat="42.0102797793423" lon="12.022965681271605"><ele>22.0</ele><time>2026-04-27T07:18:26Z</time></trkpt><trkpt lat="42.01043354903676" lon="12.022581547638428"><ele>20.0</ele><time>2026-04-27T07:18:27Z</time></trkpt><trkpt lat="42.01058525260404" lon="12.022193770076987"><ele>20.0</ele><time>2026-04-27T07:18:28Z</time></trkpt><trkpt lat="42.01074242808675" lon="12.021804017166044"><ele>20.0</ele><time>2026-04-27T07:18:29Z</time></trkpt><trkpt lat="42.010899153690474" lon="12.021412693884777"><ele>20.0</ele><time>2026-04-27T07:18:30Z</time></trkpt><trkpt lat="42.01105003100144" lon="12.02102737550841"><ele>20.0</ele><time>2026-04-27T07:18:31Z</time></trkpt><trkpt lat="42.01120713373671" lon="12.020638833453464"><ele>19.5</ele><time>2026-04-27T07:18:32Z</time></trkpt><trkpt lat="42.01136295859388" lon="12.020253167355651"><ele>19.0</ele><time>2026-04-27T07:18:33Z</time></trkpt><trkpt lat="42.01151633126233" lon="12.019868250545217"><ele>19.0</ele><time>2026-04-27T07:18:34Z</time></trkpt><trkpt lat="42.01166985759559" lon="12.019483535196084"><ele>19.0</ele><time>2026-04-27T07:18:35Z</time></trkpt><trkpt lat="42.01181572291976" lon="12.019092951546872"><ele>20.0</ele><time>2026-04-27T07:18:36Z</time></trkpt><trkpt lat="42.01197152953156" lon="12.018720243777594"><ele>21.0</ele><time>2026-04-27T07:18:37Z</time></trkpt><trkpt lat="42.01212993549832" lon="12.01833383554124"><ele>23.0</ele><time>2026-04-27T07:18:38Z</time></trkpt><trkpt lat="42.012301632386986" lon="12.017960087347966"><ele>25.0</ele><time>2026-04-27T07:18:39Z</time></trkpt><trkpt lat="42.012439564858326" lon="12.017573295552044"><ele>26.0</ele><time>2026-04-27T07:18:40Z</time></trkpt><trkpt lat="42.01258882079644" lon="12.017195150376713"><ele>27.0</ele><time>2026-04-27T07:18:41Z</time></trkpt><trkpt lat="42.012730735759554" lon="12.016809597918977"><ele>26.5</ele><time>2026-04-27T07:18:42Z</time></trkpt><trkpt lat="42.0128837579575" lon="12.016434684616547"><ele>26.0</ele><time>2026-04-27T07:18:43Z</time></trkpt><trkpt lat="42.01303849910871" lon="12.016060011219585"><ele>27.0</ele><time>2026-04-27T07:18:44Z</time></trkpt><trkpt lat="42.01318938425346" lon="12.015681582447746"><ele>28.0</ele><time>2026-04-27T07:18:45Z</time></trkpt><trkpt lat="42.013344110405846" lon="12.015303292173444"><ele>28.5</ele><time>2026-04-27T07:18:46Z</time></trkpt><trkpt lat="42.01349448114033" lon="12.014917819241353"><ele>29.0</ele><time>2026-04-27T07:18:47Z</time></trkpt><trkpt lat="42.01364566603139" lon="12.01454014790159"><ele>29.0</ele><time>2026-04-27T07:18:48Z</time></trkpt><trkpt lat="42.013798063085" lon="12.014163420869155"><ele>29.0</ele><time>2026-04-27T07:18:49Z</time></trkpt><trkpt lat="42.013944833638114" lon="12.01378769869569"><ele>28.0</ele><time>2026-04-27T07:18:50Z</time></trkpt><trkpt lat="42.01409914207256" lon="12.013404121063235"><ele>27.0</ele><time>2026-04-27T07:18:51Z</time></trkpt><trkpt lat="42.01425240961761" lon="12.013034306396722"><ele>26.5</ele><time>2026-04-27T07:18:52Z</time></trkpt><trkpt lat="42.01440749252606" lon="12.01265754573916"><ele>26.0</ele><time>2026-04-27T07:18:53Z</time></trkpt><trkpt lat="42.014552535768345" lon="12.012272890312133"><ele>25.5</ele><time>2026-04-27T07:18:54Z</time></trkpt><trkpt lat="42.014702119569655" lon="12.011894461000612"><ele>25.0</ele><time>2026-04-27T07:18:55Z</time></trkpt><trkpt lat="42.014849039227705" lon="12.011521729198982"><ele>25.5</ele><time>2026-04-27T07:18:56Z</time></trkpt><trkpt lat="42.01499955391755" lon="12.011149298379364"><ele>26.0</ele><time>2026-04-27T07:18:57Z</time></trkpt><trkpt lat="42.015147636421986" lon="12.010782850408397"><ele>26.0</ele><time>2026-04-27T07:18:58Z</time></trkpt><trkpt lat="42.01529612287946" lon="12.010414035454616"><ele>26.0</ele><time>2026-04-27T07:18:59Z</time></trkpt><trkpt lat="42.015443038105104" lon="12.010049735600177"><ele>26.0</ele><time>2026-04-27T07:19:00Z</time></trkpt><trkpt lat="42.015590801001125" lon="12.009680331914607"><ele>26.0</ele><time>2026-04-27T07:19:01Z</time></trkpt><trkpt lat="42.015737435907695" lon="12.00931238615843"><ele>26.5</ele><time>2026-04-27T07:19:02Z</time></trkpt><trkpt lat="42.01588588451227" lon="12.008931077700899"><ele>27.0</ele><time>2026-04-27T07:19:03Z</time></trkpt><trkpt lat="42.01602679916488" lon="12.008568603945443"><ele>26.5</ele><time>2026-04-27T07:19:04Z</time></trkpt><trkpt lat="42.0161863604208" lon="12.008195108076741"><ele>26.0</ele><time>2026-04-27T07:19:05Z</time></trkpt><trkpt lat="42.0163347875457" lon="12.007819318727911"><ele>24.0</ele><time>2026-04-27T07:19:06Z</time></trkpt><trkpt lat="42.01650067142427" lon="12.007427326665916"><ele>22.0</ele><time>2026-04-27T07:19:07Z</time></trkpt><trkpt lat="42.01663720393816" lon="12.007063100830633"><ele>22.0</ele><time>2026-04-27T07:19:08Z</time></trkpt><trkpt lat="42.01678722113593" lon="12.006685159552116"><ele>22.0</ele><time>2026-04-27T07:19:09Z</time></trkpt><trkpt lat="42.01694479662561" lon="12.006303666443289"><ele>22.0</ele><time>2026-04-27T07:19:10Z</time></trkpt><trkpt lat="42.01710350640326" lon="12.005911335658725"><ele>22.0</ele><time>2026-04-27T07:19:11Z</time></trkpt><trkpt lat="42.01725462341885" lon="12.005526874820346"><ele>21.5</ele><time>2026-04-27T07:19:12Z</time></trkpt><trkpt lat="42.01741269391356" lon="12.00513061602437"><ele>21.0</ele><time>2026-04-27T07:19:13Z</time></trkpt><trkpt lat="42.01756831775698" lon="12.004743339663426"><ele>21.0</ele><time>2026-04-27T07:19:14Z</time></trkpt><trkpt lat="42.01772580468007" lon="12.004349998457482"><ele>21.0</ele><time>2026-04-27T07:19:15Z</time></trkpt><trkpt lat="42.01788223665171" lon="12.00396667802291"><ele>20.5</ele><time>2026-04-27T07:19:16Z</time></trkpt><trkpt lat="42.01804117117064" lon="12.003576999247201"><ele>20.0</ele><time>2026-04-27T07:19:17Z</time></trkpt><trkpt lat="42.026367806494974" lon="11.98283269471225"><ele>23.5</ele><time>2026-04-27T07:20:18Z</time></trkpt><trkpt lat="42.02650697573608" lon="11.982482861606945"><ele>27.0</ele><time>2026-04-27T07:20:19Z</time></trkpt><trkpt lat="42.02664716748431" lon="11.982132326744699"><ele>28.0</ele><time>2026-04-27T07:20:20Z</time></trkpt><trkpt lat="42.02678822259433" lon="11.98177902421595"><ele>29.0</ele><time>2026-04-27T07:20:21Z</time></trkpt><trkpt lat="42.02692339786995" lon="11.981423446268906"><ele>29.0</ele><time>2026-04-27T07:20:22Z</time></trkpt><trkpt lat="42.02705761211256" lon="11.981072448753684"><ele>29.0</ele><time>2026-04-27T07:20:23Z</time></trkpt><trkpt lat="42.02721247640541" lon="11.980723786598737"><ele>28.5</ele><time>2026-04-27T07:20:24Z</time></trkpt><trkpt lat="42.02735483825821" lon="11.980375923747742"><ele>28.0</ele><time>2026-04-27T07:20:25Z</time></trkpt><trkpt lat="42.02749915398413" lon="11.980026002265275"><ele>31.0</ele><time>2026-04-27T07:20:26Z</time></trkpt><trkpt lat="42.02764290248681" lon="11.979666402779486"><ele>34.0</ele><time>2026-04-27T07:20:27Z</time></trkpt><trkpt lat="42.02778608504028" lon="11.97930835834337"><ele>35.5</ele><time>2026-04-27T07:20:28Z</time></trkpt><trkpt lat="42.02793103742008" lon="11.978953317989244"><ele>37.0</ele><time>2026-04-27T07:20:29Z</time></trkpt><trkpt lat="42.02807226794657" lon="11.978594154294425"><ele>38.5</ele><time>2026-04-27T07:20:30Z</time></trkpt><trkpt lat="42.02821556745878" lon="11.978248335036778"><ele>40.0</ele><time>2026-04-27T07:20:31Z</time></trkpt><trkpt lat="42.02834608432646" lon="11.977909720092347"><ele>40.0</ele><time>2026-04-27T07:20:32Z</time></trkpt><trkpt lat="42.028468445582455" lon="11.97758235614258"><ele>40.0</ele><time>2026-04-27T07:20:33Z</time></trkpt><trkpt lat="42.02858317338637" lon="11.97724769719273"><ele>43.0</ele><time>2026-04-27T07:20:34Z</time></trkpt><trkpt lat="42.02868890606791" lon="11.976912946801098"><ele>46.0</ele><time>2026-04-27T07:20:35Z</time></trkpt><trkpt lat="42.02878330932814" lon="11.976571616115246"><ele>49.5</ele><time>2026-04-27T07:20:36Z</time></trkpt><trkpt lat="42.02887644551806" lon="11.976224071388296"><ele>53.0</ele><time>2026-04-27T07:20:37Z</time></trkpt><trkpt lat="42.02894614022342" lon="11.975874558834613"><ele>55.5</ele><time>2026-04-27T07:20:38Z</time></trkpt><trkpt lat="42.02901104399893" lon="11.975516956440796"><ele>58.0</ele><time>2026-04-27T07:20:39Z</time></trkpt><trkpt lat="42.029067513786174" lon="11.975155826271058"><ele>55.5</ele><time>2026-04-27T07:20:40Z</time></trkpt><trkpt lat="42.02911917905971" lon="11.974796659487604"><ele>53.0</ele><time>2026-04-27T07:20:41Z</time></trkpt><trkpt lat="42.02916021263543" lon="11.974458153246179"><ele>49.0</ele><time>2026-04-27T07:20:42Z</time></trkpt><trkpt lat="42.029191942609394" lon="11.974123710986737"><ele>45.0</ele><time>2026-04-27T07:20:43Z</time></trkpt><trkpt lat="42.02921982437894" lon="11.973795730167746"><ele>45.0</ele><time>2026-04-27T07:20:44Z</time></trkpt><trkpt lat="42.02924957816415" lon="11.973467665820488"><ele>45.0</ele><time>2026-04-27T07:20:45Z</time></trkpt><trkpt lat="42.0292805499262" lon="11.973152053255165"><ele>42.0</ele><time>2026-04-27T07:20:46Z</time></trkpt><trkpt lat="42.02929398010158" lon="11.97282279057297"><ele>39.0</ele><time>2026-04-27T07:20:47Z</time></trkpt><trkpt lat="42.02932415133666" lon="11.972495734860004"><ele>37.0</ele><time>2026-04-27T07:20:48Z</time></trkpt><trkpt lat="42.029355337862754" lon="11.972169796811665"><ele>35.0</ele><time>2026-04-27T07:20:49Z</time></trkpt><trkpt lat="42.02939324860063" lon="11.971850782588758"><ele>33.5</ele><time>2026-04-27T07:20:50Z</time></trkpt><trkpt lat="42.029423550736595" lon="11.97152127144703"><ele>32.0</ele><time>2026-04-27T07:20:51Z</time></trkpt><trkpt lat="42.029454451276806" lon="11.971194366029145"><ele>32.0</ele><time>2026-04-27T07:20:52Z</time></trkpt><trkpt lat="42.02948625639512" lon="11.970863402244696"><ele>32.0</ele><time>2026-04-27T07:20:53Z</time></trkpt><trkpt lat="42.029518773339326" lon="11.970539454336192"><ele>31.0</ele><time>2026-04-27T07:20:54Z</time></trkpt><trkpt lat="42.02954724246048" lon="11.970205079138381"><ele>30.0</ele><time>2026-04-27T07:20:55Z</time></trkpt><trkpt lat="42.029576711969675" lon="11.969878513944295"><ele>29.5</ele><time>2026-04-27T07:20:56Z</time></trkpt><trkpt lat="42.02960558199117" lon="11.969548699431845"><ele>29.0</ele><time>2026-04-27T07:20:57Z</time></trkpt><trkpt lat="42.029635090630066" lon="11.969216578547572"><ele>28.0</ele><time>2026-04-27T07:20:58Z</time></trkpt><trkpt lat="42.029663786602924" lon="11.968883322791546"><ele>27.0</ele><time>2026-04-27T07:20:59Z</time></trkpt><trkpt lat="42.02969720915387" lon="11.96854578516751"><ele>25.5</ele><time>2026-04-27T07:21:00Z</time></trkpt><trkpt lat="42.02973153981116" lon="11.96820209666399"><ele>24.0</ele><time>2026-04-27T07:21:01Z</time></trkpt><trkpt lat="42.029763898362326" lon="11.967857188290587"><ele>23.5</ele><time>2026-04-27T07:21:02Z</time></trkpt><trkpt lat="42.02979687424717" lon="11.96751404065492"><ele>23.0</ele><time>2026-04-27T07:21:03Z</time></trkpt><trkpt lat="42.029829532975135" lon="11.967166346815718"><ele>23.0</ele><time>2026-04-27T07:21:04Z</time></trkpt><trkpt lat="42.02985892016362" lon="11.966828286060878"><ele>23.0</ele><time>2026-04-27T07:21:05Z</time></trkpt><trkpt lat="42.029895292427724" lon="11.966464875471289"><ele>23.0</ele><time>2026-04-27T07:21:06Z</time></trkpt><trkpt lat="42.029924842845126" lon="11.966111958569321"><ele>23.0</ele><time>2026-04-27T07:21:07Z</time></trkpt><trkpt lat="42.029961850889045" lon="11.965749029513246"><ele>23.5</ele><time>2026-04-27T07:21:08Z</time></trkpt><trkpt lat="42.029996429424706" lon="11.965384332683767"><ele>24.0</ele><time>2026-04-27T07:21:09Z</time></trkpt><trkpt lat="42.030035534004924" lon="11.965022681225463"><ele>23.0</ele><time>2026-04-27T07:21:10Z</time></trkpt><trkpt lat="42.03006935201262" lon="11.96465902142537"><ele>22.0</ele><time>2026-04-27T07:21:11Z</time></trkpt><trkpt lat="42.03010038676232" lon="11.964292722903924"><ele>21.5</ele><time>2026-04-27T07:21:12Z</time></trkpt><trkpt lat="42.03013252092148" lon="11.963924526097074"><ele>21.0</ele><time>2026-04-27T07:21:13Z</time></trkpt><trkpt lat="42.03016505996701" lon="11.963568709935295"><ele>21.0</ele><time>2026-04-27T07:21:14Z</time></trkpt><trkpt lat="42.030199032923285" lon="11.963211513572913"><ele>21.0</ele><time>2026-04-27T07:21:15Z</time></trkpt><trkpt lat="42.03022654575882" lon="11.962872976700272"><ele>21.0</ele><time>2026-04-27T07:21:16Z</time></trkpt><trkpt lat="42.03025806404473" lon="11.962550003416192"><ele>21.0</ele><time>2026-04-27T07:21:17Z</time></trkpt><trkpt lat="42.03493091115542" lon="11.946521405092465"><ele>22.0</ele><time>2026-04-27T07:22:18Z</time></trkpt><trkpt lat="42.03506785947654" lon="11.946199164716736"><ele>23.0</ele><time>2026-04-27T07:22:19Z</time></trkpt><trkpt lat="42.035204942436486" lon="11.945877811291048"><ele>23.0</ele><time>2026-04-27T07:22:20Z</time></trkpt><trkpt lat="42.035342986649276" lon="11.945550520782753"><ele>23.0</ele><time>2026-04-27T07:22:21Z</time></trkpt><trkpt lat="42.035481567686716" lon="11.945227128393208"><ele>22.0</ele><time>2026-04-27T07:22:22Z</time></trkpt><trkpt lat="42.03562212560358" lon="11.94490044677817"><ele>21.0</ele><time>2026-04-27T07:22:23Z</time></trkpt><trkpt lat="42.03576301740298" lon="11.944572120351406"><ele>21.5</ele><time>2026-04-27T07:22:24Z</time></trkpt><trkpt lat="42.03590395313079" lon="11.944239310025859"><ele>22.0</ele><time>2026-04-27T07:22:25Z</time></trkpt><trkpt lat="42.036043117031696" lon="11.943908438162795"><ele>22.0</ele><time>2026-04-27T07:22:26Z</time></trkpt><trkpt lat="42.03618251035492" lon="11.943574378851856"><ele>22.0</ele><time>2026-04-27T07:22:27Z</time></trkpt><trkpt lat="42.036325110905075" lon="11.943241213147799"><ele>22.5</ele><time>2026-04-27T07:22:28Z</time></trkpt><trkpt lat="42.03646493301484" lon="11.942907125659831"><ele>23.0</ele><time>2026-04-27T07:22:29Z</time></trkpt><trkpt lat="42.0366123787409" lon="11.942568280004359"><ele>26.5</ele><time>2026-04-27T07:22:30Z</time></trkpt><trkpt lat="42.03675908052445" lon="11.942230149417032"><ele>30.0</ele><time>2026-04-27T07:22:31Z</time></trkpt><trkpt lat="42.03689084165944" lon="11.941918430277726"><ele>29.0</ele><time>2026-04-27T07:22:32Z</time></trkpt><trkpt lat="42.03705034941295" lon="11.941552612284928"><ele>28.0</ele><time>2026-04-27T07:22:33Z</time></trkpt><trkpt lat="42.037193227059916" lon="11.941200113683987"><ele>28.0</ele><time>2026-04-27T07:22:34Z</time></trkpt><trkpt lat="42.03734055083792" lon="11.94085952449979"><ele>28.0</ele><time>2026-04-27T07:22:35Z</time></trkpt><trkpt lat="42.03748782773244" lon="11.940507295984592"><ele>28.0</ele><time>2026-04-27T07:22:36Z</time></trkpt><trkpt lat="42.03763105405238" lon="11.940159112034875"><ele>28.0</ele><time>2026-04-27T07:22:37Z</time></trkpt><trkpt lat="42.037780968552376" lon="11.93981655804114"><ele>28.0</ele><time>2026-04-27T07:22:38Z</time></trkpt><trkpt lat="42.03793110067173" lon="11.939478129738225"><ele>28.0</ele><time>2026-04-27T07:22:39Z</time></trkpt><trkpt lat="42.03807123692937" lon="11.939133217488116"><ele>26.5</ele><time>2026-04-27T07:22:40Z</time></trkpt><trkpt lat="42.03821446551264" lon="11.938787926378218"><ele>25.0</ele><time>2026-04-27T07:22:41Z</time></trkpt><trkpt lat="42.038358276350245" lon="11.938445349283025"><ele>24.0</ele><time>2026-04-27T07:22:42Z</time></trkpt><trkpt lat="42.03850760743814" lon="11.938090467070179"><ele>23.0</ele><time>2026-04-27T07:22:43Z</time></trkpt><trkpt lat="42.03865842693045" lon="11.937741068950686"><ele>21.5</ele><time>2026-04-27T07:22:44Z</time></trkpt><trkpt lat="42.038805991715265" lon="11.937409247643085"><ele>20.0</ele><time>2026-04-27T07:22:45Z</time></trkpt><trkpt lat="42.03895413053374" lon="11.93708131260143"><ele>20.0</ele><time>2026-04-27T07:22:46Z</time></trkpt><trkpt lat="42.03909375093392" lon="11.93672074227932"><ele>20.0</ele><time>2026-04-27T07:22:47Z</time></trkpt><trkpt lat="42.03923960144659" lon="11.936375428323151"><ele>20.0</ele><time>2026-04-27T07:22:48Z</time></trkpt><trkpt lat="42.03938655073116" lon="11.936027593202851"><ele>20.0</ele><time>2026-04-27T07:22:49Z</time></trkpt><trkpt lat="42.039536780116535" lon="11.935676638176748"><ele>20.0</ele><time>2026-04-27T07:22:50Z</time></trkpt><trkpt lat="42.03968856348565" lon="11.93532612784683"><ele>20.0</ele><time>2026-04-27T07:22:51Z</time></trkpt><trkpt lat="42.03983529985209" lon="11.934979054048883"><ele>22.0</ele><time>2026-04-27T07:22:52Z</time></trkpt><trkpt lat="42.03998089110224" lon="11.934635339051747"><ele>24.0</ele><time>2026-04-27T07:22:53Z</time></trkpt><trkpt lat="42.04012397224528" lon="11.934294958270227"><ele>23.0</ele><time>2026-04-27T07:22:54Z</time></trkpt><trkpt lat="42.04027012629131" lon="11.933954430055374"><ele>22.0</ele><time>2026-04-27T07:22:55Z</time></trkpt><trkpt lat="42.04041499093921" lon="11.93361737023077"><ele>21.0</ele><time>2026-04-27T07:22:56Z</time></trkpt><trkpt lat="42.040557913048396" lon="11.933284551388619"><ele>20.0</ele><time>2026-04-27T07:22:57Z</time></trkpt><trkpt lat="42.04070172569541" lon="11.932954994379694"><ele>17.5</ele><time>2026-04-27T07:22:58Z</time></trkpt><trkpt lat="42.0408408873831" lon="11.932623363073155"><ele>15.0</ele><time>2026-04-27T07:22:59Z</time></trkpt><trkpt lat="42.040978211631646" lon="11.932287234813746"><ele>14.0</ele><time>2026-04-27T07:23:00Z</time></trkpt><trkpt lat="42.04111633432427" lon="11.931956556283057"><ele>13.0</ele><time>2026-04-27T07:23:01Z</time></trkpt><trkpt lat="42.04125661366034" lon="11.931623877972823"><ele>12.0</ele><time>2026-04-27T07:23:02Z</time></trkpt><trkpt lat="42.04139956549323" lon="11.931290989011119"><ele>11.0</ele><time>2026-04-27T07:23:03Z</time></trkpt><trkpt lat="42.041543151543934" lon="11.93096235222415"><ele>12.0</ele><time>2026-04-27T07:23:04Z</time></trkpt><trkpt lat="42.04168538786926" lon="11.930628968090648"><ele>13.0</ele><time>2026-04-27T07:23:05Z</time></trkpt><trkpt lat="42.04182609635613" lon="11.930295434991006"><ele>12.5</ele><time>2026-04-27T07:23:06Z</time></trkpt><trkpt lat="42.041965570202755" lon="11.929959307723802"><ele>12.0</ele><time>2026-04-27T07:23:07Z</time></trkpt><trkpt lat="42.04210464118816" lon="11.929625457001485"><ele>12.0</ele><time>2026-04-27T07:23:08Z</time></trkpt><trkpt lat="42.04225057385266" lon="11.929289927260953"><ele>12.0</ele><time>2026-04-27T07:23:09Z</time></trkpt><trkpt lat="42.04239521630386" lon="11.928955603700162"><ele>13.0</ele><time>2026-04-27T07:23:10Z</time></trkpt><trkpt lat="42.04254079403406" lon="11.928616525044076"><ele>14.0</ele><time>2026-04-27T07:23:11Z</time></trkpt><trkpt lat="42.04267932399284" lon="11.928282430402172"><ele>14.0</ele><time>2026-04-27T07:23:12Z</time></trkpt><trkpt lat="42.042816990151174" lon="11.927945804570765"><ele>14.0</ele><time>2026-04-27T07:23:13Z</time></trkpt><trkpt lat="42.04295518860827" lon="11.92761257568119"><ele>14.5</ele><time>2026-04-27T07:23:14Z</time></trkpt><trkpt lat="42.04308894687636" lon="11.92728121522186"><ele>15.0</ele><time>2026-04-27T07:23:15Z</time></trkpt><trkpt lat="42.04321222540818" lon="11.92694721015556"><ele>17.0</ele><time>2026-04-27T07:23:16Z</time></trkpt><trkpt lat="42.04332190026777" lon="11.926624827393502"><ele>19.0</ele><time>2026-04-27T07:23:17Z</time></trkpt><trkpt lat="42.04377579401027" lon="11.904374205748514"><ele>24.5</ele><time>2026-04-27T07:24:18Z</time></trkpt><trkpt lat="42.04378849798956" lon="11.903999693768341"><ele>30.0</ele><time>2026-04-27T07:24:19Z</time></trkpt><trkpt lat="42.043807715539614" lon="11.903627843098551"><ele>30.5</ele><time>2026-04-27T07:24:20Z</time></trkpt><trkpt lat="42.04382857238432" lon="11.903265081788039"><ele>31.0</ele><time>2026-04-27T07:24:21Z</time></trkpt><trkpt lat="42.04384899539728" lon="11.902906090142586"><ele>32.5</ele><time>2026-04-27T07:24:22Z</time></trkpt><trkpt lat="42.04387422219352" lon="11.902552561529411"><ele>34.0</ele><time>2026-04-27T07:24:23Z</time></trkpt><trkpt lat="42.04389746115991" lon="11.902201644879568"><ele>34.0</ele><time>2026-04-27T07:24:24Z</time></trkpt><trkpt lat="42.04392600258104" lon="11.901854072950782"><ele>34.0</ele><time>2026-04-27T07:24:25Z</time></trkpt><trkpt lat="42.043950965261075" lon="11.901508347042325"><ele>35.5</ele><time>2026-04-27T07:24:26Z</time></trkpt><trkpt lat="42.043986628404504" lon="11.901160198034988"><ele>37.0</ele><time>2026-04-27T07:24:27Z</time></trkpt><trkpt lat="42.04402111869612" lon="11.900815823728161"><ele>37.0</ele><time>2026-04-27T07:24:28Z</time></trkpt><trkpt lat="42.04405434511722" lon="11.90047297226581"><ele>37.0</ele><time>2026-04-27T07:24:29Z</time></trkpt><trkpt lat="42.04409360707305" lon="11.900127059710565"><ele>36.0</ele><time>2026-04-27T07:24:30Z</time></trkpt><trkpt lat="42.044121963079654" lon="11.899780898017609"><ele>35.0</ele><time>2026-04-27T07:24:31Z</time></trkpt><trkpt lat="42.04416276060434" lon="11.899437916181368"><ele>37.0</ele><time>2026-04-27T07:24:32Z</time></trkpt><trkpt lat="42.04421656772634" lon="11.89907387491788"><ele>39.0</ele><time>2026-04-27T07:24:33Z</time></trkpt><trkpt lat="42.044240402244256" lon="11.898759749134241"><ele>37.0</ele><time>2026-04-27T07:24:34Z</time></trkpt><trkpt lat="42.04426985574196" lon="11.898404141442583"><ele>35.0</ele><time>2026-04-27T07:24:35Z</time></trkpt><trkpt lat="42.044302613749174" lon="11.898056548942426"><ele>35.0</ele><time>2026-04-27T07:24:36Z</time></trkpt><trkpt lat="42.044335770087095" lon="11.897712876393031"><ele>35.0</ele><time>2026-04-27T07:24:37Z</time></trkpt><trkpt lat="42.044380941682306" lon="11.897365487376447"><ele>33.0</ele><time>2026-04-27T07:24:38Z</time></trkpt><trkpt lat="42.04441505077542" lon="11.897016766699517"><ele>31.0</ele><time>2026-04-27T07:24:39Z</time></trkpt><trkpt lat="42.044454349070726" lon="11.896669335651758"><ele>29.0</ele><time>2026-04-27T07:24:40Z</time></trkpt><trkpt lat="42.044489791045294" lon="11.896323446106555"><ele>27.0</ele><time>2026-04-27T07:24:41Z</time></trkpt><trkpt lat="42.044526918696" lon="11.895967054576278"><ele>27.0</ele><time>2026-04-27T07:24:42Z</time></trkpt><trkpt lat="42.044573035871665" lon="11.895612433901803"><ele>27.0</ele><time>2026-04-27T07:24:43Z</time></trkpt><trkpt lat="42.04460553297013" lon="11.89525106142805"><ele>27.0</ele><time>2026-04-27T07:24:44Z</time></trkpt><trkpt lat="42.044641789609074" lon="11.894883880049937"><ele>27.0</ele><time>2026-04-27T07:24:45Z</time></trkpt><trkpt lat="42.04468682694788" lon="11.894513718957931"><ele>26.5</ele><time>2026-04-27T07:24:46Z</time></trkpt><trkpt lat="42.044720471583986" lon="11.894141889995907"><ele>26.0</ele><time>2026-04-27T07:24:47Z</time></trkpt><trkpt lat="42.044754059472865" lon="11.893768058706335"><ele>26.0</ele><time>2026-04-27T07:24:48Z</time></trkpt><trkpt lat="42.04479423848669" lon="11.893392618504514"><ele>26.0</ele><time>2026-04-27T07:24:49Z</time></trkpt><trkpt lat="42.044825633490824" lon="11.893012093233136"><ele>26.0</ele><time>2026-04-27T07:24:50Z</time></trkpt><trkpt lat="42.04484638126649" lon="11.892620840917024"><ele>26.0</ele><time>2026-04-27T07:24:51Z</time></trkpt><trkpt lat="42.04486043680704" lon="11.892234657890443"><ele>25.0</ele><time>2026-04-27T07:24:52Z</time></trkpt><trkpt lat="42.04486630001323" lon="11.891843553443369"><ele>24.0</ele><time>2026-04-27T07:24:53Z</time></trkpt><trkpt lat="42.04487420351903" lon="11.891455423655048"><ele>21.5</ele><time>2026-04-27T07:24:54Z</time></trkpt><trkpt lat="42.04487767058982" lon="11.891073096833656"><ele>19.0</ele><time>2026-04-27T07:24:55Z</time></trkpt><trkpt lat="42.04488138193995" lon="11.890691443360907"><ele>16.5</ele><time>2026-04-27T07:24:56Z</time></trkpt><trkpt lat="42.04487919536207" lon="11.890316940204553"><ele>14.0</ele><time>2026-04-27T07:24:57Z</time></trkpt><trkpt lat="42.04487781374133" lon="11.889951016188734"><ele>14.0</ele><time>2026-04-27T07:24:58Z</time></trkpt><trkpt lat="42.044870607214165" lon="11.889587219241582"><ele>14.0</ele><time>2026-04-27T07:24:59Z</time></trkpt><trkpt lat="42.04486834168388" lon="11.889222004206532"><ele>15.5</ele><time>2026-04-27T07:25:00Z</time></trkpt><trkpt lat="42.0448614686984" lon="11.888858301284243"><ele>17.0</ele><time>2026-04-27T07:25:01Z</time></trkpt><trkpt lat="42.04485961424255" lon="11.888496395432218"><ele>19.0</ele><time>2026-04-27T07:25:02Z</time></trkpt><trkpt lat="42.044855889642655" lon="11.888131245223809"><ele>21.0</ele><time>2026-04-27T07:25:03Z</time></trkpt><trkpt lat="42.04485560960305" lon="11.887764971116567"><ele>23.0</ele><time>2026-04-27T07:25:04Z</time></trkpt><trkpt lat="42.044851583226446" lon="11.887393740486715"><ele>25.0</ele><time>2026-04-27T07:25:05Z</time></trkpt><trkpt lat="42.044849085030116" lon="11.887027309011476"><ele>24.5</ele><time>2026-04-27T07:25:06Z</time></trkpt><trkpt lat="42.04484844742364" lon="11.886643550946166"><ele>24.0</ele><time>2026-04-27T07:25:07Z</time></trkpt><trkpt lat="42.04484080206857" lon="11.886258022417694"><ele>21.5</ele><time>2026-04-27T07:25:08Z</time></trkpt><trkpt lat="42.044832735858805" lon="11.885869831524762"><ele>19.0</ele><time>2026-04-27T07:25:09Z</time></trkpt><trkpt lat="42.044829842524756" lon="11.885482724314603"><ele>16.0</ele><time>2026-04-27T07:25:10Z</time></trkpt><trkpt lat="42.04484496392053" lon="11.885084740607999"><ele>13.0</ele><time>2026-04-27T07:25:11Z</time></trkpt><trkpt lat="42.04482514043481" lon="11.88469821807777"><ele>13.0</ele><time>2026-04-27T07:25:12Z</time></trkpt><trkpt lat="42.04481771539853" lon="11.884307967409804"><ele>13.0</ele><time>2026-04-27T07:25:13Z</time></trkpt><trkpt lat="42.044813007515785" lon="11.883921068993416"><ele>11.5</ele><time>2026-04-27T07:25:14Z</time></trkpt><trkpt lat="42.04479663255805" lon="11.883564762190694"><ele>10.0</ele><time>2026-04-27T07:25:15Z</time></trkpt><trkpt lat="42.04478986232915" lon="11.883169062288879"><ele>10.0</ele><time>2026-04-27T07:25:16Z</time></trkpt><trkpt lat="42.04478781327813" lon="11.882791642800987"><ele>10.0</ele><time>2026-04-27T07:25:17Z</time></trkpt><trkpt lat="42.04321682027969" lon="11.860598747195034"><ele>35.0</ele><time>2026-04-27T07:26:18Z</time></trkpt><trkpt lat="42.04317839824867" lon="11.86026024704889"><ele>60.0</ele><time>2026-04-27T07:26:19Z</time></trkpt><trkpt lat="42.04314075738107" lon="11.859927621679"><ele>60.0</ele><time>2026-04-27T07:26:20Z</time></trkpt><trkpt lat="42.043098296573795" lon="11.859584751102076"><ele>60.0</ele><time>2026-04-27T07:26:21Z</time></trkpt><trkpt lat="42.04305294410378" lon="11.85923961897958"><ele>60.5</ele><time>2026-04-27T07:26:22Z</time></trkpt><trkpt lat="42.043002247268454" lon="11.858896900706887"><ele>61.0</ele><time>2026-04-27T07:26:23Z</time></trkpt><trkpt lat="42.04293499551955" lon="11.858560398672449"><ele>61.5</ele><time>2026-04-27T07:26:24Z</time></trkpt><trkpt lat="42.0428586697645" lon="11.858235899973227"><ele>62.0</ele><time>2026-04-27T07:26:25Z</time></trkpt><trkpt lat="42.042764731002386" lon="11.857929612049258"><ele>62.0</ele><time>2026-04-27T07:26:26Z</time></trkpt><trkpt lat="42.042654358434156" lon="11.857637294843553"><ele>62.0</ele><time>2026-04-27T07:26:27Z</time></trkpt><trkpt lat="42.04253844366334" lon="11.857348408847225"><ele>62.0</ele><time>2026-04-27T07:26:28Z</time></trkpt><trkpt lat="42.04241788026405" lon="11.857062865228425"><ele>62.0</ele><time>2026-04-27T07:26:29Z</time></trkpt><trkpt lat="42.04228643419154" lon="11.856787268657195"><ele>68.5</ele><time>2026-04-27T07:26:30Z</time></trkpt><trkpt lat="42.042135926395986" lon="11.856521495282083"><ele>75.0</ele><time>2026-04-27T07:26:31Z</time></trkpt><trkpt lat="42.04197411145604" lon="11.85626376109242"><ele>75.0</ele><time>2026-04-27T07:26:32Z</time></trkpt><trkpt lat="42.04180624086931" lon="11.856006287565943"><ele>75.0</ele><time>2026-04-27T07:26:33Z</time></trkpt><trkpt lat="42.041631285538436" lon="11.855759489312899"><ele>75.0</ele><time>2026-04-27T07:26:34Z</time></trkpt><trkpt lat="42.041455033189166" lon="11.855510680209285"><ele>75.0</ele><time>2026-04-27T07:26:35Z</time></trkpt><trkpt lat="42.04128131438057" lon="11.855260717527628"><ele>77.5</ele><time>2026-04-27T07:26:36Z</time></trkpt><trkpt lat="42.04110642788085" lon="11.855016224080865"><ele>80.0</ele><time>2026-04-27T07:26:37Z</time></trkpt><trkpt lat="42.04093021376487" lon="11.854767724805304"><ele>76.5</ele><time>2026-04-27T07:26:38Z</time></trkpt><trkpt lat="42.04075210693458" lon="11.854518597545692"><ele>73.0</ele><time>2026-04-27T07:26:39Z</time></trkpt><trkpt lat="42.040575385993606" lon="11.85426451003739"><ele>72.0</ele><time>2026-04-27T07:26:40Z</time></trkpt><trkpt lat="42.040407890174855" lon="11.854003780192864"><ele>71.0</ele><time>2026-04-27T07:26:41Z</time></trkpt><trkpt lat="42.04024455824997" lon="11.853741476671928"><ele>71.0</ele><time>2026-04-27T07:26:42Z</time></trkpt><trkpt lat="42.04010678468882" lon="11.853481137757424"><ele>71.0</ele><time>2026-04-27T07:26:43Z</time></trkpt><trkpt lat="42.039974169240914" lon="11.853205720663103"><ele>69.5</ele><time>2026-04-27T07:26:44Z</time></trkpt><trkpt lat="42.03985491477698" lon="11.852912344384958"><ele>68.0</ele><time>2026-04-27T07:26:45Z</time></trkpt><trkpt lat="42.03975407495978" lon="11.852608595081524"><ele>68.0</ele><time>2026-04-27T07:26:46Z</time></trkpt><trkpt lat="42.03967642941237" lon="11.852293064730706"><ele>68.0</ele><time>2026-04-27T07:26:47Z</time></trkpt><trkpt lat="42.03961654435387" lon="11.851988848508414"><ele>68.0</ele><time>2026-04-27T07:26:48Z</time></trkpt><trkpt lat="42.039566792565985" lon="11.851689179249275"><ele>68.0</ele><time>2026-04-27T07:26:49Z</time></trkpt><trkpt lat="42.039533121834104" lon="11.85137067000413"><ele>68.0</ele><time>2026-04-27T07:26:50Z</time></trkpt><trkpt lat="42.039513522982" lon="11.8510585497356"><ele>68.0</ele><time>2026-04-27T07:26:51Z</time></trkpt><trkpt lat="42.039513598731965" lon="11.850766506257596"><ele>66.0</ele><time>2026-04-27T07:26:52Z</time></trkpt><trkpt lat="42.039522353578754" lon="11.850482109935037"><ele>64.0</ele><time>2026-04-27T07:26:53Z</time></trkpt><trkpt lat="42.03954097898007" lon="11.850200434153292"><ele>62.0</ele><time>2026-04-27T07:26:54Z</time></trkpt><trkpt lat="42.03957562423295" lon="11.849915988614708"><ele>57.333333333333336</ele><time>2026-04-27T07:26:55Z</time></trkpt><trkpt lat="42.03962274641903" lon="11.849627808007142"><ele>52.66666666666667</ele><time>2026-04-27T07:26:56Z</time></trkpt><trkpt lat="42.03968712495137" lon="11.849339285028767"><ele>48.0</ele><time>2026-04-27T07:26:57Z</time></trkpt><trkpt lat="42.03977682395935" lon="11.849052428053012"><ele>51.5</ele><time>2026-04-27T07:26:58Z</time></trkpt><trkpt lat="42.03987365860896" lon="11.848770738039544"><ele>55.0</ele><time>2026-04-27T07:26:59Z</time></trkpt><trkpt lat="42.03998240817121" lon="11.848498156650399"><ele>50.5</ele><time>2026-04-27T07:27:00Z</time></trkpt><trkpt lat="42.04010650869175" lon="11.848223823958627"><ele>46.0</ele><time>2026-04-27T07:27:01Z</time></trkpt><trkpt lat="42.040240232167896" lon="11.847949621179053"><ele>46.0</ele><time>2026-04-27T07:27:02Z</time></trkpt><trkpt lat="42.04038623456037" lon="11.847680851201607"><ele>46.0</ele><time>2026-04-27T07:27:03Z</time></trkpt><trkpt lat="42.04054323880969" lon="11.847414479188963"><ele>44.0</ele><time>2026-04-27T07:27:04Z</time></trkpt><trkpt lat="42.040705390676" lon="11.847147725706822"><ele>42.0</ele><time>2026-04-27T07:27:05Z</time></trkpt><trkpt lat="42.04087004740549" lon="11.8468750646885"><ele>39.0</ele><time>2026-04-27T07:27:06Z</time></trkpt><trkpt lat="42.0410328595009" lon="11.846603037167837"><ele>36.0</ele><time>2026-04-27T07:27:07Z</time></trkpt><trkpt lat="42.04119126109169" lon="11.846333263759337"><ele>36.0</ele><time>2026-04-27T07:27:08Z</time></trkpt><trkpt lat="42.041349591770675" lon="11.846066386857899"><ele>36.0</ele><time>2026-04-27T07:27:09Z</time></trkpt><trkpt lat="42.04150851608512" lon="11.845797472898068"><ele>35.5</ele><time>2026-04-27T07:27:10Z</time></trkpt><trkpt lat="42.04166460920284" lon="11.845531021939932"><ele>35.0</ele><time>2026-04-27T07:27:11Z</time></trkpt><trkpt lat="42.041823829353945" lon="11.845255861864633"><ele>35.5</ele><time>2026-04-27T07:27:12Z</time></trkpt><trkpt lat="42.04198608691797" lon="11.84497578935607"><ele>36.0</ele><time>2026-04-27T07:27:13Z</time></trkpt><trkpt lat="42.04215190263216" lon="11.844690804065339"><ele>36.0</ele><time>2026-04-27T07:27:14Z</time></trkpt><trkpt lat="42.04231916761179" lon="11.844411022648885"><ele>36.0</ele><time>2026-04-27T07:27:15Z</time></trkpt><trkpt lat="42.04249192551451" lon="11.84412523168181"><ele>35.5</ele><time>2026-04-27T07:27:16Z</time></trkpt><trkpt lat="42.042662965994055" lon="11.843842574772527"><ele>35.0</ele><time>2026-04-27T07:27:17Z</time></trkpt><trkpt lat="42.05343404031475" lon="11.826955570377903"><ele>32.0</ele><time>2026-04-27T07:28:18Z</time></trkpt><trkpt lat="42.0536483578713" lon="11.826767948701853"><ele>29.0</ele><time>2026-04-27T07:28:19Z</time></trkpt><trkpt lat="42.05386824262664" lon="11.826591627991498"><ele>29.0</ele><time>2026-04-27T07:28:20Z</time></trkpt><trkpt lat="42.05409214270426" lon="11.826421542067557"><ele>29.0</ele><time>2026-04-27T07:28:21Z</time></trkpt><trkpt lat="42.05432042940725" lon="11.82626190820076"><ele>29.0</ele><time>2026-04-27T07:28:22Z</time></trkpt><trkpt lat="42.05455113375298" lon="11.826109477826293"><ele>29.0</ele><time>2026-04-27T07:28:23Z</time></trkpt><trkpt lat="42.05478650982867" lon="11.8259638328537"><ele>30.5</ele><time>2026-04-27T07:28:24Z</time></trkpt><trkpt lat="42.055025145721395" lon="11.825827249980245"><ele>32.0</ele><time>2026-04-27T07:28:25Z</time></trkpt><trkpt lat="42.05525629312487" lon="11.82568137427675"><ele>32.0</ele><time>2026-04-27T07:28:26Z</time></trkpt><trkpt lat="42.055504011969745" lon="11.825562813727576"><ele>32.0</ele><time>2026-04-27T07:28:27Z</time></trkpt><trkpt lat="42.055752529430215" lon="11.82545398981976"><ele>29.0</ele><time>2026-04-27T07:28:28Z</time></trkpt><trkpt lat="42.056002036209755" lon="11.825359700015069"><ele>26.0</ele><time>2026-04-27T07:28:29Z</time></trkpt><trkpt lat="42.05624043104586" lon="11.825273648567114"><ele>26.0</ele><time>2026-04-27T07:28:30Z</time></trkpt><trkpt lat="42.05646550861435" lon="11.825200156902065"><ele>26.0</ele><time>2026-04-27T07:28:31Z</time></trkpt><trkpt lat="42.05668558376071" lon="11.825139003517345"><ele>24.0</ele><time>2026-04-27T07:28:32Z</time></trkpt><trkpt lat="42.05689668326795" lon="11.825077603126648"><ele>22.0</ele><time>2026-04-27T07:28:33Z</time></trkpt><trkpt lat="42.057097520009926" lon="11.825015741486684"><ele>20.0</ele><time>2026-04-27T07:28:34Z</time></trkpt><trkpt lat="42.05729216537325" lon="11.824957590810538"><ele>20.0</ele><time>2026-04-27T07:28:35Z</time></trkpt><trkpt lat="42.057475356828704" lon="11.824899689694536"><ele>20.0</ele><time>2026-04-27T07:28:36Z</time></trkpt><trkpt lat="42.05765363237584" lon="11.824844406043054"><ele>20.0</ele><time>2026-04-27T07:28:37Z</time></trkpt><trkpt lat="42.05782603520437" lon="11.824794891178298"><ele>20.0</ele><time>2026-04-27T07:28:38Z</time></trkpt><trkpt lat="42.057991935326925" lon="11.824748149028826"><ele>20.0</ele><time>2026-04-27T07:28:39Z</time></trkpt><trkpt lat="42.05815144277429" lon="11.824700344316136"><ele>20.0</ele><time>2026-04-27T07:28:40Z</time></trkpt><trkpt lat="42.05830637830082" lon="11.8246506438764"><ele>19.75</ele><time>2026-04-27T07:28:41Z</time></trkpt><trkpt lat="42.05845361134071" lon="11.824607965988383"><ele>19.5</ele><time>2026-04-27T07:28:42Z</time></trkpt><trkpt lat="42.058596054836464" lon="11.824570644875037"><ele>19.25</ele><time>2026-04-27T07:28:43Z</time></trkpt><trkpt lat="42.05873402313832" lon="11.824531773514206"><ele>19.0</ele><time>2026-04-27T07:28:44Z</time></trkpt><trkpt lat="42.05887022802993" lon="11.824494821849768"><ele>19.0</ele><time>2026-04-27T07:28:45Z</time></trkpt><trkpt lat="42.05900000738593" lon="11.824461681717443"><ele>19.0</ele><time>2026-04-27T07:28:46Z</time></trkpt><trkpt lat="42.0591156830217" lon="11.8244282490634"><ele>19.0</ele><time>2026-04-27T07:28:47Z</time></trkpt><trkpt lat="42.059209976424" lon="11.824401998334698"><ele>19.0</ele><time>2026-04-27T07:28:48Z</time></trkpt><trkpt lat="42.05927922090262" lon="11.824376309974589"><ele>19.0</ele><time>2026-04-27T07:28:49Z</time></trkpt><trkpt lat="42.06176362947535" lon="11.823556557592882"><ele>19.0</ele><time>2026-04-27T07:30:18Z</time></trkpt><trkpt lat="42.06184731530462" lon="11.823537670431758"><ele>19.0</ele><time>2026-04-27T07:30:37.999Z</time></trkpt><trkpt lat="42.06191082817739" lon="11.823508878917421"><ele>19.0</ele><time>2026-04-27T07:30:38.999Z</time></trkpt><trkpt lat="42.06198500771101" lon="11.823478385248961"><ele>19.0</ele><time>2026-04-27T07:30:39.999Z</time></trkpt><trkpt lat="42.06206728182676" lon="11.823444946772646"><ele>19.0</ele><time>2026-04-27T07:30:41Z</time></trkpt><trkpt lat="42.06216200384597" lon="11.823414948706873"><ele>19.0</ele><time>2026-04-27T07:30:42Z</time></trkpt><trkpt lat="42.062271424813595" lon="11.823373773181624"><ele>20.0</ele><time>2026-04-27T07:30:43Z</time></trkpt><trkpt lat="42.062391067282746" lon="11.823329838758614"><ele>21.0</ele><time>2026-04-27T07:30:44Z</time></trkpt><trkpt lat="42.06251695286833" lon="11.823285698727751"><ele>22.0</ele><time>2026-04-27T07:30:45Z</time></trkpt><trkpt lat="42.062653095014795" lon="11.823248328566978"><ele>23.0</ele><time>2026-04-27T07:30:46Z</time></trkpt><trkpt lat="42.06279250039922" lon="11.823200916103042"><ele>25.333333333333336</ele><time>2026-04-27T07:30:47Z</time></trkpt><trkpt lat="42.06295694460459" lon="11.823140301477368"><ele>27.666666666666668</ele><time>2026-04-27T07:30:48Z</time></trkpt><trkpt lat="42.06313861879893" lon="11.823083858278213"><ele>30.0</ele><time>2026-04-27T07:30:49Z</time></trkpt><trkpt lat="42.0633338279812" lon="11.823016433424185"><ele>31.666666666666664</ele><time>2026-04-27T07:30:50Z</time></trkpt><trkpt lat="42.06354333340408" lon="11.8229474331753"><ele>33.33333333333333</ele><time>2026-04-27T07:30:51Z</time></trkpt><trkpt lat="42.06376558299575" lon="11.822875416769598"><ele>35.0</ele><time>2026-04-27T07:30:52Z</time></trkpt><trkpt lat="42.063984609227454" lon="11.822808050741337"><ele>34.33333333333333</ele><time>2026-04-27T07:30:53Z</time></trkpt><trkpt lat="42.064186535778404" lon="11.822739784898467"><ele>33.666666666666664</ele><time>2026-04-27T07:30:54Z</time></trkpt><trkpt lat="42.06439124385394" lon="11.822676054162608"><ele>33.0</ele><time>2026-04-27T07:30:55Z</time></trkpt><trkpt lat="42.06459421813427" lon="11.82262290702207"><ele>33.0</ele><time>2026-04-27T07:30:56Z</time></trkpt><trkpt lat="42.06480145344944" lon="11.822583632398345"><ele>33.0</ele><time>2026-04-27T07:30:57Z</time></trkpt><trkpt lat="42.065011152043056" lon="11.822548596049172"><ele>33.0</ele><time>2026-04-27T07:30:58Z</time></trkpt><trkpt lat="42.065223344843865" lon="11.822516540751073"><ele>33.666666666666664</ele><time>2026-04-27T07:30:59Z</time></trkpt><trkpt lat="42.065439408858296" lon="11.82249362459834"><ele>34.33333333333333</ele><time>2026-04-27T07:31:00Z</time></trkpt><trkpt lat="42.06565757055866" lon="11.822475639765296"><ele>35.0</ele><time>2026-04-27T07:31:01Z</time></trkpt><trkpt lat="42.065873312773306" lon="11.822460935469351"><ele>35.0</ele><time>2026-04-27T07:31:02Z</time></trkpt><trkpt lat="42.06608833999284" lon="11.822454110420836"><ele>35.0</ele><time>2026-04-27T07:31:03Z</time></trkpt><trkpt lat="42.06630017337167" lon="11.822453310334973"><ele>35.0</ele><time>2026-04-27T07:31:04Z</time></trkpt><trkpt lat="42.066512634845246" lon="11.822460676318874"><ele>35.666666666666664</ele><time>2026-04-27T07:31:05Z</time></trkpt><trkpt lat="42.06672517072102" lon="11.822474563222524"><ele>36.333333333333336</ele><time>2026-04-27T07:31:06Z</time></trkpt><trkpt lat="42.06694278693154" lon="11.822497887391087"><ele>37.0</ele><time>2026-04-27T07:31:07Z</time></trkpt><trkpt lat="42.067167630918384" lon="11.822531867736847"><ele>37.0</ele><time>2026-04-27T07:31:08Z</time></trkpt><trkpt lat="42.06740139835993" lon="11.822564760499423"><ele>37.0</ele><time>2026-04-27T07:31:09Z</time></trkpt><trkpt lat="42.06764139853044" lon="11.822599605485252"><ele>36.5</ele><time>2026-04-27T07:31:10Z</time></trkpt><trkpt lat="42.06789027925263" lon="11.822636052807555"><ele>36.0</ele><time>2026-04-27T07:31:11Z</time></trkpt><trkpt lat="42.06813153851286" lon="11.82267022727"><ele>35.0</ele><time>2026-04-27T07:31:12Z</time></trkpt><trkpt lat="42.0683677101133" lon="11.822705586722718"><ele>34.0</ele><time>2026-04-27T07:31:13Z</time></trkpt><trkpt lat="42.06859950953198" lon="11.822741999956257"><ele>34.0</ele><time>2026-04-27T07:31:14Z</time></trkpt><trkpt lat="42.06883611320708" lon="11.82277558569556"><ele>34.0</ele><time>2026-04-27T07:31:15Z</time></trkpt><trkpt lat="42.06907085899664" lon="11.822805965937507"><ele>32.0</ele><time>2026-04-27T07:31:16Z</time></trkpt><trkpt lat="42.069307183897784" lon="11.822837609598453"><ele>30.0</ele><time>2026-04-27T07:31:17Z</time></trkpt><trkpt lat="42.08371557475896" lon="11.826864816782615"><ele>51.5</ele><time>2026-04-27T07:32:18Z</time></trkpt><trkpt lat="42.0839645599907" lon="11.826963999040323"><ele>73.0</ele><time>2026-04-27T07:32:19Z</time></trkpt><trkpt lat="42.08421294117286" lon="11.827061741013877"><ele>73.0</ele><time>2026-04-27T07:32:20Z</time></trkpt><trkpt lat="42.0844608958197" lon="11.82715761269752"><ele>73.0</ele><time>2026-04-27T07:32:21Z</time></trkpt><trkpt lat="42.08470517712801" lon="11.827256401192427"><ele>81.5</ele><time>2026-04-27T07:32:22Z</time></trkpt><trkpt lat="42.084947171509796" lon="11.827355541554066"><ele>90.0</ele><time>2026-04-27T07:32:23Z</time></trkpt><trkpt lat="42.085187082661136" lon="11.827452361268675"><ele>90.0</ele><time>2026-04-27T07:32:24Z</time></trkpt><trkpt lat="42.085425727146465" lon="11.827550812235987"><ele>90.0</ele><time>2026-04-27T07:32:25Z</time></trkpt><trkpt lat="42.08566563571822" lon="11.827647839277601"><ele>101.0</ele><time>2026-04-27T07:32:26Z</time></trkpt><trkpt lat="42.08590441890085" lon="11.827741951796021"><ele>112.0</ele><time>2026-04-27T07:32:27Z</time></trkpt><trkpt lat="42.086143311919" lon="11.827835428816897"><ele>112.0</ele><time>2026-04-27T07:32:28Z</time></trkpt><trkpt lat="42.086380867264396" lon="11.82792612259143"><ele>112.0</ele><time>2026-04-27T07:32:29Z</time></trkpt><trkpt lat="42.0866206541301" lon="11.82801582790324"><ele>116.5</ele><time>2026-04-27T07:32:30Z</time></trkpt><trkpt lat="42.08686139618523" lon="11.828102889024695"><ele>121.0</ele><time>2026-04-27T07:32:31Z</time></trkpt><trkpt lat="42.08710387728915" lon="11.828187519141226"><ele>121.0</ele><time>2026-04-27T07:32:32Z</time></trkpt><trkpt lat="42.08735125410485" lon="11.828264311275616"><ele>121.0</ele><time>2026-04-27T07:32:33Z</time></trkpt><trkpt lat="42.08759578143793" lon="11.828336261819318"><ele>119.5</ele><time>2026-04-27T07:32:34Z</time></trkpt><trkpt lat="42.08784450452135" lon="11.828404059582542"><ele>118.0</ele><time>2026-04-27T07:32:35Z</time></trkpt><trkpt lat="42.088098420125135" lon="11.828465497085197"><ele>121.5</ele><time>2026-04-27T07:32:36Z</time></trkpt><trkpt lat="42.08835234096655" lon="11.828518695397205"><ele>125.0</ele><time>2026-04-27T07:32:37Z</time></trkpt><trkpt lat="42.08860665275097" lon="11.828566868541127"><ele>125.0</ele><time>2026-04-27T07:32:38Z</time></trkpt><trkpt lat="42.08886443055583" lon="11.828610338278084"><ele>125.0</ele><time>2026-04-27T07:32:39Z</time></trkpt><trkpt lat="42.089125339126596" lon="11.828644329535328"><ele>129.0</ele><time>2026-04-27T07:32:40Z</time></trkpt><trkpt lat="42.089387882502294" lon="11.828674430346721"><ele>133.0</ele><time>2026-04-27T07:32:41Z</time></trkpt><trkpt lat="42.089652361470066" lon="11.828700282281082"><ele>133.0</ele><time>2026-04-27T07:32:42Z</time></trkpt><trkpt lat="42.0899184548713" lon="11.828714557386776"><ele>133.0</ele><time>2026-04-27T07:32:43Z</time></trkpt><trkpt lat="42.09018594694009" lon="11.82872089043776"><ele>134.5</ele><time>2026-04-27T07:32:44Z</time></trkpt><trkpt lat="42.09045588856422" lon="11.828720683646488"><ele>136.0</ele><time>2026-04-27T07:32:45Z</time></trkpt><trkpt lat="42.09072823285197" lon="11.828714486306604"><ele>132.0</ele><time>2026-04-27T07:32:46Z</time></trkpt><trkpt lat="42.09100362737574" lon="11.828705685219214"><ele>128.0</ele><time>2026-04-27T07:32:47Z</time></trkpt><trkpt lat="42.091283115626375" lon="11.82869460473755"><ele>128.0</ele><time>2026-04-27T07:32:48Z</time></trkpt><trkpt lat="42.09156219204009" lon="11.82868244812377"><ele>128.0</ele><time>2026-04-27T07:32:49Z</time></trkpt><trkpt lat="42.091842707450446" lon="11.828670767224313"><ele>121.5</ele><time>2026-04-27T07:32:50Z</time></trkpt><trkpt lat="42.092122639863256" lon="11.82865709459868"><ele>115.0</ele><time>2026-04-27T07:32:51Z</time></trkpt><trkpt lat="42.0924039943974" lon="11.828646906995303"><ele>109.0</ele><time>2026-04-27T07:32:52Z</time></trkpt><trkpt lat="42.092685369221044" lon="11.828637596616913"><ele>103.0</ele><time>2026-04-27T07:32:53Z</time></trkpt><trkpt lat="42.092965800729544" lon="11.82862886445816"><ele>103.0</ele><time>2026-04-27T07:32:54Z</time></trkpt><trkpt lat="42.0932492987541" lon="11.828616346323685"><ele>103.0</ele><time>2026-04-27T07:32:55Z</time></trkpt><trkpt lat="42.0935327987305" lon="11.828604704309138"><ele>110.5</ele><time>2026-04-27T07:32:56Z</time></trkpt><trkpt lat="42.093817843657966" lon="11.828592144014596"><ele>118.0</ele><time>2026-04-27T07:32:57Z</time></trkpt><trkpt lat="42.09410306664772" lon="11.828579636804193"><ele>125.5</ele><time>2026-04-27T07:32:58Z</time></trkpt><trkpt lat="42.09438774781766" lon="11.828566353118049"><ele>133.0</ele><time>2026-04-27T07:32:59Z</time></trkpt><trkpt lat="42.09466845074366" lon="11.828555445373539"><ele>123.5</ele><time>2026-04-27T07:33:00Z</time></trkpt><trkpt lat="42.09494840866275" lon="11.828543059468307"><ele>114.0</ele><time>2026-04-27T07:33:01Z</time></trkpt><trkpt lat="42.095224929193456" lon="11.828531053680265"><ele>114.0</ele><time>2026-04-27T07:33:02Z</time></trkpt><trkpt lat="42.09549701239284" lon="11.82851598836298"><ele>114.0</ele><time>2026-04-27T07:33:03Z</time></trkpt><trkpt lat="42.095767503903595" lon="11.828501115921295"><ele>104.5</ele><time>2026-04-27T07:33:04Z</time></trkpt><trkpt lat="42.09603772195882" lon="11.82848364446423"><ele>95.0</ele><time>2026-04-27T07:33:05Z</time></trkpt><trkpt lat="42.09631536524662" lon="11.828468034446937"><ele>106.0</ele><time>2026-04-27T07:33:06Z</time></trkpt><trkpt lat="42.0965996024821" lon="11.828454749003042"><ele>117.0</ele><time>2026-04-27T07:33:07Z</time></trkpt><trkpt lat="42.096884299602195" lon="11.828443804410085"><ele>117.0</ele><time>2026-04-27T07:33:08Z</time></trkpt><trkpt lat="42.09717221355598" lon="11.828437681938526"><ele>117.0</ele><time>2026-04-27T07:33:09Z</time></trkpt><trkpt lat="42.097458203562674" lon="11.828432395532907"><ele>128.0</ele><time>2026-04-27T07:33:10Z</time></trkpt><trkpt lat="42.0977474306481" lon="11.828429519774714"><ele>139.0</ele><time>2026-04-27T07:33:11Z</time></trkpt><trkpt lat="42.09803484950916" lon="11.82842238460795"><ele>145.0</ele><time>2026-04-27T07:33:12Z</time></trkpt><trkpt lat="42.098326472982066" lon="11.828404480773743"><ele>151.0</ele><time>2026-04-27T07:33:13Z</time></trkpt><trkpt lat="42.098613840491815" lon="11.828377279926169"><ele>151.0</ele><time>2026-04-27T07:33:14Z</time></trkpt><trkpt lat="42.09890260385121" lon="11.82834315584471"><ele>151.0</ele><time>2026-04-27T07:33:15Z</time></trkpt><trkpt lat="42.09919244461324" lon="11.828303359812343"><ele>155.0</ele><time>2026-04-27T07:33:16Z</time></trkpt><trkpt lat="42.099481968127826" lon="11.828256983416434"><ele>159.0</ele><time>2026-04-27T07:33:17Z</time></trkpt><trkpt lat="42.11576954565802" lon="11.82449258734076"><ele>147.5</ele><time>2026-04-27T07:34:18Z</time></trkpt><trkpt lat="42.11596269266014" lon="11.82425282622338"><ele>136.0</ele><time>2026-04-27T07:34:19Z</time></trkpt><trkpt lat="42.11616363661525" lon="11.82403033081815"><ele>136.0</ele><time>2026-04-27T07:34:20Z</time></trkpt><trkpt lat="42.11637676715546" lon="11.823828440799966"><ele>136.0</ele><time>2026-04-27T07:34:21Z</time></trkpt><trkpt lat="42.11659928446829" lon="11.823642347688356"><ele>138.5</ele><time>2026-04-27T07:34:22Z</time></trkpt><trkpt lat="42.11683037043997" lon="11.823481791727074"><ele>141.0</ele><time>2026-04-27T07:34:23Z</time></trkpt><trkpt lat="42.117069347270274" lon="11.823330800536683"><ele>141.0</ele><time>2026-04-27T07:34:24Z</time></trkpt><trkpt lat="42.11731241422222" lon="11.823202109718004"><ele>141.0</ele><time>2026-04-27T07:34:25Z</time></trkpt><trkpt lat="42.11756105193723" lon="11.823089276386073"><ele>141.5</ele><time>2026-04-27T07:34:26.001Z</time></trkpt><trkpt lat="42.1178160805888" lon="11.822995901202892"><ele>142.0</ele><time>2026-04-27T07:34:27.001Z</time></trkpt><trkpt lat="42.11806606872008" lon="11.822926113079513"><ele>138.5</ele><time>2026-04-27T07:34:28.001Z</time></trkpt><trkpt lat="42.1183132374525" lon="11.822874143244963"><ele>135.0</ele><time>2026-04-27T07:34:29.001Z</time></trkpt><trkpt lat="42.11856841515621" lon="11.822839331105023"><ele>135.0</ele><time>2026-04-27T07:34:30.001Z</time></trkpt><trkpt lat="42.118827310067104" lon="11.822823219798137"><ele>135.0</ele><time>2026-04-27T07:34:31.001Z</time></trkpt><trkpt lat="42.119091553531824" lon="11.822835740645873"><ele>130.5</ele><time>2026-04-27T07:34:32.001Z</time></trkpt><trkpt lat="42.11935874038309" lon="11.8228697594588"><ele>126.0</ele><time>2026-04-27T07:34:33.001Z</time></trkpt><trkpt lat="42.11963488997583" lon="11.822921491314881"><ele>125.0</ele><time>2026-04-27T07:34:34.001Z</time></trkpt><trkpt lat="42.119911324565265" lon="11.822990944603195"><ele>124.0</ele><time>2026-04-27T07:34:35.001Z</time></trkpt><trkpt lat="42.12018470853628" lon="11.82307132370456"><ele>124.0</ele><time>2026-04-27T07:34:36.001Z</time></trkpt><trkpt lat="42.12045538594641" lon="11.82315888724443"><ele>124.0</ele><time>2026-04-27T07:34:37.001Z</time></trkpt><trkpt lat="42.12072814017701" lon="11.823244593271058"><ele>121.0</ele><time>2026-04-27T07:34:38.001Z</time></trkpt><trkpt lat="42.12100512723562" lon="11.823329141962637"><ele>118.0</ele><time>2026-04-27T07:34:39.001Z</time></trkpt><trkpt lat="42.121280222307696" lon="11.82341031633772"><ele>117.5</ele><time>2026-04-27T07:34:40.001Z</time></trkpt><trkpt lat="42.1215538722778" lon="11.823495333610879"><ele>117.0</ele><time>2026-04-27T07:34:41.001Z</time></trkpt><trkpt lat="42.12182474392908" lon="11.82357735511375"><ele>117.0</ele><time>2026-04-27T07:34:42.001Z</time></trkpt><trkpt lat="42.1220948920078" lon="11.823659078708955"><ele>117.0</ele><time>2026-04-27T07:34:43.001Z</time></trkpt><trkpt lat="42.12236404095839" lon="11.823739536326595"><ele>116.0</ele><time>2026-04-27T07:34:44.001Z</time></trkpt><trkpt lat="42.122632168024374" lon="11.823813031817954"><ele>115.0</ele><time>2026-04-27T07:34:45.001Z</time></trkpt><trkpt lat="42.122901623108014" lon="11.823878025259658"><ele>115.0</ele><time>2026-04-27T07:34:46.001Z</time></trkpt><trkpt lat="42.12316969066468" lon="11.82393682973044"><ele>115.0</ele><time>2026-04-27T07:34:47Z</time></trkpt><trkpt lat="42.123437214015034" lon="11.823988519145542"><ele>113.0</ele><time>2026-04-27T07:34:48Z</time></trkpt><trkpt lat="42.12370595681919" lon="11.824021256665816"><ele>111.0</ele><time>2026-04-27T07:34:49Z</time></trkpt><trkpt lat="42.123969644944836" lon="11.824047543189394"><ele>110.0</ele><time>2026-04-27T07:34:50Z</time></trkpt><trkpt lat="42.12423708496232" lon="11.82406291652274"><ele>109.0</ele><time>2026-04-27T07:34:51Z</time></trkpt><trkpt lat="42.12450121915949" lon="11.82407031514936"><ele>109.0</ele><time>2026-04-27T07:34:52Z</time></trkpt><trkpt lat="42.12477168005187" lon="11.824062537996044"><ele>109.0</ele><time>2026-04-27T07:34:53Z</time></trkpt><trkpt lat="42.12504504536961" lon="11.824045502180617"><ele>107.0</ele><time>2026-04-27T07:34:54Z</time></trkpt><trkpt lat="42.125330127040726" lon="11.824015232703662"><ele>105.0</ele><time>2026-04-27T07:34:55Z</time></trkpt><trkpt lat="42.12561716237613" lon="11.82397350608774"><ele>102.5</ele><time>2026-04-27T07:34:56Z</time></trkpt><trkpt lat="42.12590705219538" lon="11.823921594785332"><ele>100.0</ele><time>2026-04-27T07:34:57Z</time></trkpt><trkpt lat="42.1261979688728" lon="11.823870825407193"><ele>100.0</ele><time>2026-04-27T07:34:58Z</time></trkpt><trkpt lat="42.12648963615641" lon="11.823782547943278"><ele>100.0</ele><time>2026-04-27T07:34:59Z</time></trkpt><trkpt lat="42.126788173648094" lon="11.823685591455378"><ele>96.0</ele><time>2026-04-27T07:35:00Z</time></trkpt><trkpt lat="42.127083323152895" lon="11.823576766122562"><ele>92.0</ele><time>2026-04-27T07:35:01Z</time></trkpt><trkpt lat="42.12737146708961" lon="11.823459748216074"><ele>95.5</ele><time>2026-04-27T07:35:02Z</time></trkpt><trkpt lat="42.12766114436272" lon="11.823327556662408"><ele>99.0</ele><time>2026-04-27T07:35:03Z</time></trkpt><trkpt lat="42.127943054309426" lon="11.823180686970556"><ele>99.0</ele><time>2026-04-27T07:35:04Z</time></trkpt><trkpt lat="42.1282221282808" lon="11.823030727500212"><ele>99.0</ele><time>2026-04-27T07:35:05Z</time></trkpt><trkpt lat="42.12849974756804" lon="11.822884787064261"><ele>99.0</ele><time>2026-04-27T07:35:06Z</time></trkpt><trkpt lat="42.12877162660804" lon="11.822732785562794"><ele>99.0</ele><time>2026-04-27T07:35:07Z</time></trkpt><trkpt lat="42.12904260742713" lon="11.822594715519793"><ele>104.0</ele><time>2026-04-27T07:35:08Z</time></trkpt><trkpt lat="42.12931059602538" lon="11.82245468251779"><ele>109.0</ele><time>2026-04-27T07:35:09Z</time></trkpt><trkpt lat="42.12957531021196" lon="11.82231925761697"><ele>109.0</ele><time>2026-04-27T07:35:10Z</time></trkpt><trkpt lat="42.12983849999266" lon="11.822186399167018"><ele>109.0</ele><time>2026-04-27T07:35:11Z</time></trkpt><trkpt lat="42.13010554550745" lon="11.822044612627382"><ele>109.5</ele><time>2026-04-27T07:35:12Z</time></trkpt><trkpt lat="42.13036089673512" lon="11.82190999145427"><ele>110.0</ele><time>2026-04-27T07:35:13Z</time></trkpt><trkpt lat="42.13061272916958" lon="11.8217808525354"><ele>115.5</ele><time>2026-04-27T07:35:14Z</time></trkpt><trkpt lat="42.13086675547204" lon="11.821645991812476"><ele>121.0</ele><time>2026-04-27T07:35:15Z</time></trkpt><trkpt lat="42.131117798872914" lon="11.821513014575167"><ele>121.0</ele><time>2026-04-27T07:35:16Z</time></trkpt><trkpt lat="42.131368252107194" lon="11.82137616470633"><ele>121.0</ele><time>2026-04-27T07:35:17Z</time></trkpt><trkpt lat="42.14781965530088" lon="11.81336645090545"><ele>108.0</ele><time>2026-04-27T07:36:18.001Z</time></trkpt><trkpt lat="42.14796863787273" lon="11.81301015197"><ele>95.0</ele><time>2026-04-27T07:36:19.001Z</time></trkpt><trkpt lat="42.14810842771152" lon="11.812646163455666"><ele>94.5</ele><time>2026-04-27T07:36:20.001Z</time></trkpt><trkpt lat="42.14823774261801" lon="11.812275062295644"><ele>94.0</ele><time>2026-04-27T07:36:21.001Z</time></trkpt><trkpt lat="42.14835787172115" lon="11.811894384031866"><ele>91.5</ele><time>2026-04-27T07:36:22.001Z</time></trkpt><trkpt lat="42.14847391601376" lon="11.811509597127653"><ele>89.0</ele><time>2026-04-27T07:36:23.001Z</time></trkpt><trkpt lat="42.148589793191135" lon="11.81112241944806"><ele>87.0</ele><time>2026-04-27T07:36:24.001Z</time></trkpt><trkpt lat="42.148706432868174" lon="11.810732928127901"><ele>85.0</ele><time>2026-04-27T07:36:25.001Z</time></trkpt><trkpt lat="42.1488218030067" lon="11.810343512694484"><ele>83.5</ele><time>2026-04-27T07:36:26.001Z</time></trkpt><trkpt lat="42.14893815331507" lon="11.809953538683665"><ele>82.0</ele><time>2026-04-27T07:36:27.001Z</time></trkpt><trkpt lat="42.1490532154703" lon="11.809563168048106"><ele>79.0</ele><time>2026-04-27T07:36:28.001Z</time></trkpt><trkpt lat="42.14916778227528" lon="11.809173564755861"><ele>76.0</ele><time>2026-04-27T07:36:29.001Z</time></trkpt><trkpt lat="42.14928385196651" lon="11.808783934341177"><ele>74.5</ele><time>2026-04-27T07:36:30.001Z</time></trkpt><trkpt lat="42.149397856214385" lon="11.808395368621428"><ele>73.0</ele><time>2026-04-27T07:36:31.001Z</time></trkpt><trkpt lat="42.1495152093916" lon="11.808002339143943"><ele>71.5</ele><time>2026-04-27T07:36:32.001Z</time></trkpt><trkpt lat="42.149632906336166" lon="11.80760822790974"><ele>70.0</ele><time>2026-04-27T07:36:33.001Z</time></trkpt><trkpt lat="42.14975119992831" lon="11.80721350511744"><ele>69.0</ele><time>2026-04-27T07:36:34.001Z</time></trkpt><trkpt lat="42.149868829162045" lon="11.806817043058418"><ele>68.0</ele><time>2026-04-27T07:36:35.001Z</time></trkpt><trkpt lat="42.14998504583241" lon="11.806420236906648"><ele>68.0</ele><time>2026-04-27T07:36:36.001Z</time></trkpt><trkpt lat="42.150099098696" lon="11.80602328908907"><ele>68.0</ele><time>2026-04-27T07:36:37.001Z</time></trkpt><trkpt lat="42.1502128627859" lon="11.805629248237953"><ele>67.5</ele><time>2026-04-27T07:36:38.001Z</time></trkpt><trkpt lat="42.150326973817286" lon="11.805240003332916"><ele>67.0</ele><time>2026-04-27T07:36:39.001Z</time></trkpt><trkpt lat="42.150440526771774" lon="11.804864483623112"><ele>65.5</ele><time>2026-04-27T07:36:40.001Z</time></trkpt><trkpt lat="42.15055072473647" lon="11.804496934743883"><ele>64.0</ele><time>2026-04-27T07:36:41.001Z</time></trkpt><trkpt lat="42.15065662076825" lon="11.80412572175455"><ele>64.0</ele><time>2026-04-27T07:36:42.001Z</time></trkpt><trkpt lat="42.15076733734102" lon="11.803759998798204"><ele>64.0</ele><time>2026-04-27T07:36:43.001Z</time></trkpt><trkpt lat="42.150881015276994" lon="11.803396616180624"><ele>63.0</ele><time>2026-04-27T07:36:44.001Z</time></trkpt><trkpt lat="42.151001066521744" lon="11.803031171363326"><ele>62.0</ele><time>2026-04-27T07:36:45.001Z</time></trkpt><trkpt lat="42.15113222988295" lon="11.802674788597797"><ele>60.5</ele><time>2026-04-27T07:36:46.001Z</time></trkpt><trkpt lat="42.15127474073445" lon="11.80232244605416"><ele>59.0</ele><time>2026-04-27T07:36:47.001Z</time></trkpt><trkpt lat="42.151421220451326" lon="11.801977862151423"><ele>59.5</ele><time>2026-04-27T07:36:48.001Z</time></trkpt><trkpt lat="42.15157606109863" lon="11.801635287077628"><ele>60.0</ele><time>2026-04-27T07:36:49.001Z</time></trkpt><trkpt lat="42.151738877875545" lon="11.801301975620813"><ele>58.5</ele><time>2026-04-27T07:36:50.001Z</time></trkpt><trkpt lat="42.15190785575112" lon="11.800978229884121"><ele>57.0</ele><time>2026-04-27T07:36:51.001Z</time></trkpt><trkpt lat="42.152084856178824" lon="11.800661998985644"><ele>57.0</ele><time>2026-04-27T07:36:52.001Z</time></trkpt><trkpt lat="42.15226537371774" lon="11.800360240521425"><ele>57.0</ele><time>2026-04-27T07:36:53Z</time></trkpt><trkpt lat="42.15245142671115" lon="11.800073207528275"><ele>57.5</ele><time>2026-04-27T07:36:54Z</time></trkpt><trkpt lat="42.15264408753624" lon="11.79978976741995"><ele>58.0</ele><time>2026-04-27T07:36:55Z</time></trkpt><trkpt lat="42.15284352109205" lon="11.799517281122972"><ele>58.0</ele><time>2026-04-27T07:36:56Z</time></trkpt><trkpt lat="42.15304597502654" lon="11.79925340945624"><ele>58.0</ele><time>2026-04-27T07:36:57Z</time></trkpt><trkpt lat="42.15325246853427" lon="11.799003911564268"><ele>57.5</ele><time>2026-04-27T07:36:58Z</time></trkpt><trkpt lat="42.15345262116816" lon="11.798769830203005"><ele>57.0</ele><time>2026-04-27T07:36:59Z</time></trkpt><trkpt lat="42.15366097458367" lon="11.798556550710588"><ele>57.0</ele><time>2026-04-27T07:37:00Z</time></trkpt><trkpt lat="42.15386869902902" lon="11.798341192321827"><ele>57.0</ele><time>2026-04-27T07:37:01Z</time></trkpt><trkpt lat="42.154080765329745" lon="11.7981201684295"><ele>56.0</ele><time>2026-04-27T07:37:02Z</time></trkpt><trkpt lat="42.1542994487758" lon="11.797895344094965"><ele>55.0</ele><time>2026-04-27T07:37:03Z</time></trkpt><trkpt lat="42.15453041921192" lon="11.797667746138462"><ele>54.5</ele><time>2026-04-27T07:37:04Z</time></trkpt><trkpt lat="42.15476847953507" lon="11.797438427027071"><ele>54.0</ele><time>2026-04-27T07:37:05Z</time></trkpt><trkpt lat="42.15501800490403" lon="11.797204777517722"><ele>54.0</ele><time>2026-04-27T07:37:06Z</time></trkpt><trkpt lat="42.155272092077354" lon="11.796966099591035"><ele>54.0</ele><time>2026-04-27T07:37:07Z</time></trkpt><trkpt lat="42.15552040156297" lon="11.796725797241194"><ele>51.5</ele><time>2026-04-27T07:37:08Z</time></trkpt><trkpt lat="42.15577123775005" lon="11.796487187198272"><ele>49.0</ele><time>2026-04-27T07:37:09Z</time></trkpt><trkpt lat="42.15602278427285" lon="11.796243560490499"><ele>49.5</ele><time>2026-04-27T07:37:10Z</time></trkpt><trkpt lat="42.156276153299444" lon="11.796002877479745"><ele>50.0</ele><time>2026-04-27T07:37:11Z</time></trkpt><trkpt lat="42.156536351528096" lon="11.795760852893572"><ele>48.5</ele><time>2026-04-27T07:37:12Z</time></trkpt><trkpt lat="42.15679314956099" lon="11.79552146229117"><ele>47.0</ele><time>2026-04-27T07:37:13Z</time></trkpt><trkpt lat="42.15705259746662" lon="11.795276721726614"><ele>47.5</ele><time>2026-04-27T07:37:14Z</time></trkpt><trkpt lat="42.15730332767884" lon="11.795031847780956"><ele>48.0</ele><time>2026-04-27T07:37:15Z</time></trkpt><trkpt lat="42.15754957488247" lon="11.79478425561929"><ele>44.0</ele><time>2026-04-27T07:37:16Z</time></trkpt><trkpt lat="42.15779700976976" lon="11.794547373032724"><ele>40.0</ele><time>2026-04-27T07:37:17Z</time></trkpt><trkpt lat="42.173671982340835" lon="11.787758958479666"><ele>37.5</ele><time>2026-04-27T07:38:18.001Z</time></trkpt><trkpt lat="42.17394895321667" lon="11.787739428216593"><ele>35.0</ele><time>2026-04-27T07:38:19.001Z</time></trkpt><trkpt lat="42.17422510087722" lon="11.787714182314692"><ele>35.0</ele><time>2026-04-27T07:38:20.001Z</time></trkpt><trkpt lat="42.17450231938619" lon="11.787689765757762"><ele>35.0</ele><time>2026-04-27T07:38:21.001Z</time></trkpt><trkpt lat="42.17477968505494" lon="11.787666119178315"><ele>35.0</ele><time>2026-04-27T07:38:22.001Z</time></trkpt><trkpt lat="42.17505537261531" lon="11.787645863078726"><ele>35.0</ele><time>2026-04-27T07:38:23.001Z</time></trkpt><trkpt lat="42.17533181791683" lon="11.78762860508794"><ele>35.0</ele><time>2026-04-27T07:38:24.001Z</time></trkpt><trkpt lat="42.17560635993032" lon="11.787611425880376"><ele>35.0</ele><time>2026-04-27T07:38:25.001Z</time></trkpt><trkpt lat="42.17588081347839" lon="11.787599011654892"><ele>35.5</ele><time>2026-04-27T07:38:26.001Z</time></trkpt><trkpt lat="42.176154064910754" lon="11.787597710504754"><ele>36.0</ele><time>2026-04-27T07:38:27.001Z</time></trkpt><trkpt lat="42.17642634414258" lon="11.787603067017972"><ele>36.5</ele><time>2026-04-27T07:38:28.001Z</time></trkpt><trkpt lat="42.17669574643054" lon="11.78762124482926"><ele>37.0</ele><time>2026-04-27T07:38:29.001Z</time></trkpt><trkpt lat="42.1769619049069" lon="11.787646884911446"><ele>39.0</ele><time>2026-04-27T07:38:30.001Z</time></trkpt><trkpt lat="42.1772283449406" lon="11.787682320433149"><ele>41.0</ele><time>2026-04-27T07:38:31.001Z</time></trkpt><trkpt lat="42.17749408174941" lon="11.787726264033658"><ele>41.0</ele><time>2026-04-27T07:38:32.001Z</time></trkpt><trkpt lat="42.17775795024023" lon="11.787785430030214"><ele>41.0</ele><time>2026-04-27T07:38:33.001Z</time></trkpt><trkpt lat="42.17802231690653" lon="11.787859355261572"><ele>40.5</ele><time>2026-04-27T07:38:34.001Z</time></trkpt><trkpt lat="42.17828573798256" lon="11.787949422664209"><ele>40.0</ele><time>2026-04-27T07:38:35.001Z</time></trkpt><trkpt lat="42.17854874846547" lon="11.78804864202785"><ele>40.0</ele><time>2026-04-27T07:38:36.001Z</time></trkpt><trkpt lat="42.17881399508202" lon="11.788157821160413"><ele>40.0</ele><time>2026-04-27T07:38:37.001Z</time></trkpt><trkpt lat="42.179080672768485" lon="11.788274098245376"><ele>38.5</ele><time>2026-04-27T07:38:38.001Z</time></trkpt><trkpt lat="42.17934726710595" lon="11.788396034011114"><ele>37.0</ele><time>2026-04-27T07:38:39.001Z</time></trkpt><trkpt lat="42.17961362112516" lon="11.788522348729828"><ele>36.0</ele><time>2026-04-27T07:38:40.001Z</time></trkpt><trkpt lat="42.17988269789462" lon="11.788650792660984"><ele>35.0</ele><time>2026-04-27T07:38:41.001Z</time></trkpt><trkpt lat="42.18014988751449" lon="11.788778011713719"><ele>35.0</ele><time>2026-04-27T07:38:42.001Z</time></trkpt><trkpt lat="42.18041305635921" lon="11.788899885109272"><ele>35.0</ele><time>2026-04-27T07:38:43.001Z</time></trkpt><trkpt lat="42.18067311452891" lon="11.78901294110021"><ele>34.5</ele><time>2026-04-27T07:38:44.001Z</time></trkpt><trkpt lat="42.18092723133015" lon="11.789104500691264"><ele>34.0</ele><time>2026-04-27T07:38:45.001Z</time></trkpt><trkpt lat="42.181182226771355" lon="11.789177913605231"><ele>34.0</ele><time>2026-04-27T07:38:46.001Z</time></trkpt><trkpt lat="42.181438069892955" lon="11.789230747566808"><ele>34.0</ele><time>2026-04-27T07:38:47.001Z</time></trkpt><trkpt lat="42.18169812690086" lon="11.789268831067597"><ele>36.0</ele><time>2026-04-27T07:38:48.001Z</time></trkpt><trkpt lat="42.18195816931626" lon="11.789293524335271"><ele>38.0</ele><time>2026-04-27T07:38:49.001Z</time></trkpt><trkpt lat="42.18221885860055" lon="11.78929667157609"><ele>38.5</ele><time>2026-04-27T07:38:50.001Z</time></trkpt><trkpt lat="42.182482114124134" lon="11.78928289691495"><ele>39.0</ele><time>2026-04-27T07:38:51.001Z</time></trkpt><trkpt lat="42.18274684057356" lon="11.789253911760031"><ele>39.0</ele><time>2026-04-27T07:38:52.001Z</time></trkpt><trkpt lat="42.183012434289445" lon="11.789202499507551"><ele>39.0</ele><time>2026-04-27T07:38:53.001Z</time></trkpt><trkpt lat="42.18327668529434" lon="11.7891305100506"><ele>40.0</ele><time>2026-04-27T07:38:54.001Z</time></trkpt><trkpt lat="42.183537296682736" lon="11.789041299490364"><ele>41.0</ele><time>2026-04-27T07:38:55.001Z</time></trkpt><trkpt lat="42.183795923884176" lon="11.788928503143321"><ele>41.5</ele><time>2026-04-27T07:38:56.001Z</time></trkpt><trkpt lat="42.18405436689671" lon="11.788803263229914"><ele>42.0</ele><time>2026-04-27T07:38:57.001Z</time></trkpt><trkpt lat="42.18431282338149" lon="11.788660017505949"><ele>41.0</ele><time>2026-04-27T07:38:58.001Z</time></trkpt><trkpt lat="42.18457062481527" lon="11.788504912544774"><ele>40.0</ele><time>2026-04-27T07:38:59Z</time></trkpt><trkpt lat="42.184826894749015" lon="11.788342946575202"><ele>39.5</ele><time>2026-04-27T07:39:00Z</time></trkpt><trkpt lat="42.1850824917637" lon="11.788177174886354"><ele>39.0</ele><time>2026-04-27T07:39:01Z</time></trkpt><trkpt lat="42.18534110145284" lon="11.788015808500996"><ele>39.0</ele><time>2026-04-27T07:39:02Z</time></trkpt><trkpt lat="42.185597968046544" lon="11.787860412953027"><ele>39.0</ele><time>2026-04-27T07:39:03Z</time></trkpt><trkpt lat="42.18585364611358" lon="11.78771358888959"><ele>37.0</ele><time>2026-04-27T07:39:04Z</time></trkpt><trkpt lat="42.186111671115" lon="11.787577132510409"><ele>35.0</ele><time>2026-04-27T07:39:05Z</time></trkpt><trkpt lat="42.186370909908305" lon="11.787447066400654"><ele>35.0</ele><time>2026-04-27T07:39:06Z</time></trkpt><trkpt lat="42.18663148693908" lon="11.787325084682497"><ele>35.0</ele><time>2026-04-27T07:39:07Z</time></trkpt><trkpt lat="42.1868947275249" lon="11.787211071831596"><ele>35.0</ele><time>2026-04-27T07:39:08Z</time></trkpt><trkpt lat="42.18716124245002" lon="11.787111450535479"><ele>35.0</ele><time>2026-04-27T07:39:09Z</time></trkpt><trkpt lat="42.1874322322709" lon="11.787023731749661"><ele>34.0</ele><time>2026-04-27T07:39:10Z</time></trkpt><trkpt lat="42.187708919523075" lon="11.786948667190428"><ele>33.0</ele><time>2026-04-27T07:39:11Z</time></trkpt><trkpt lat="42.18798951028884" lon="11.786885340661291"><ele>27.5</ele><time>2026-04-27T07:39:12Z</time></trkpt><trkpt lat="42.18827274625153" lon="11.786833616342923"><ele>22.0</ele><time>2026-04-27T07:39:13Z</time></trkpt><trkpt lat="42.18855916141416" lon="11.786790217847077"><ele>22.0</ele><time>2026-04-27T07:39:14Z</time></trkpt><trkpt lat="42.18884813000943" lon="11.786756321766466"><ele>22.0</ele><time>2026-04-27T07:39:15Z</time></trkpt><trkpt lat="42.18913990480199" lon="11.786723412951918"><ele>28.5</ele><time>2026-04-27T07:39:16Z</time></trkpt><trkpt lat="42.18943245850776" lon="11.786692519804577"><ele>35.0</ele><time>2026-04-27T07:39:17Z</time></trkpt><trkpt lat="42.20646603967672" lon="11.784204737790876"><ele>33.5</ele><time>2026-04-27T07:40:18.001Z</time></trkpt><trkpt lat="42.206729184460336" lon="11.78407730397105"><ele>32.0</ele><time>2026-04-27T07:40:19.001Z</time></trkpt><trkpt lat="42.206987750070404" lon="11.783946185929846"><ele>32.0</ele><time>2026-04-27T07:40:20.001Z</time></trkpt><trkpt lat="42.20724376511123" lon="11.783809290222495"><ele>32.0</ele><time>2026-04-27T07:40:21.001Z</time></trkpt><trkpt lat="42.20749997761076" lon="11.78367185941172"><ele>32.0</ele><time>2026-04-27T07:40:22.001Z</time></trkpt><trkpt lat="42.207751476043875" lon="11.783521973201319"><ele>32.0</ele><time>2026-04-27T07:40:23.001Z</time></trkpt><trkpt lat="42.20800214908981" lon="11.78336518179031"><ele>34.0</ele><time>2026-04-27T07:40:24.001Z</time></trkpt><trkpt lat="42.20825304462407" lon="11.783206833395644"><ele>36.0</ele><time>2026-04-27T07:40:25.001Z</time></trkpt><trkpt lat="42.20850266851599" lon="11.783044854235646"><ele>36.0</ele><time>2026-04-27T07:40:26.001Z</time></trkpt><trkpt lat="42.20874983775278" lon="11.782867473704833"><ele>36.0</ele><time>2026-04-27T07:40:27.001Z</time></trkpt><trkpt lat="42.208993935402844" lon="11.782684995232152"><ele>35.5</ele><time>2026-04-27T07:40:28.001Z</time></trkpt><trkpt lat="42.20923702169692" lon="11.782496803025406"><ele>35.0</ele><time>2026-04-27T07:40:29.001Z</time></trkpt><trkpt lat="42.2094786197599" lon="11.78229853443747"><ele>35.0</ele><time>2026-04-27T07:40:30.001Z</time></trkpt><trkpt lat="42.20972180824677" lon="11.782097896347718"><ele>35.0</ele><time>2026-04-27T07:40:31.001Z</time></trkpt><trkpt lat="42.209956189304606" lon="11.78189813595355"><ele>36.5</ele><time>2026-04-27T07:40:32.001Z</time></trkpt><trkpt lat="42.21018593237763" lon="11.781696183024243"><ele>38.0</ele><time>2026-04-27T07:40:33.001Z</time></trkpt><trkpt lat="42.2104100165434" lon="11.781485559154511"><ele>38.0</ele><time>2026-04-27T07:40:34.001Z</time></trkpt><trkpt lat="42.21063398904923" lon="11.781261364688534"><ele>38.0</ele><time>2026-04-27T07:40:35.001Z</time></trkpt><trkpt lat="42.21085870886501" lon="11.781039432152282"><ele>38.0</ele><time>2026-04-27T07:40:36.001Z</time></trkpt><trkpt lat="42.21108309262105" lon="11.78081835976356"><ele>38.0</ele><time>2026-04-27T07:40:37.001Z</time></trkpt><trkpt lat="42.21129839253281" lon="11.780594277193778"><ele>38.0</ele><time>2026-04-27T07:40:38.001Z</time></trkpt><trkpt lat="42.21149493478625" lon="11.780375209822326"><ele>38.0</ele><time>2026-04-27T07:40:39.001Z</time></trkpt><trkpt lat="42.211681464701385" lon="11.780162885893521"><ele>38.0</ele><time>2026-04-27T07:40:40.001Z</time></trkpt><trkpt lat="42.21186313267913" lon="11.779949373137756"><ele>38.0</ele><time>2026-04-27T07:40:41.001Z</time></trkpt><trkpt lat="42.21204961014418" lon="11.779721251334704"><ele>38.0</ele><time>2026-04-27T07:40:42.001Z</time></trkpt><trkpt lat="42.21223933775578" lon="11.77947818549957"><ele>38.0</ele><time>2026-04-27T07:40:43.001Z</time></trkpt><trkpt lat="42.212433581846085" lon="11.779215714319959"><ele>37.0</ele><time>2026-04-27T07:40:44.001Z</time></trkpt><trkpt lat="42.21263441351832" lon="11.778941231909215"><ele>36.0</ele><time>2026-04-27T07:40:45.001Z</time></trkpt><trkpt lat="42.21283358721595" lon="11.778669890875207"><ele>36.0</ele><time>2026-04-27T07:40:46.001Z</time></trkpt><trkpt lat="42.21303384570025" lon="11.778393629443668"><ele>36.0</ele><time>2026-04-27T07:40:47.001Z</time></trkpt><trkpt lat="42.21323532854726" lon="11.778122915325106"><ele>36.0</ele><time>2026-04-27T07:40:48.001Z</time></trkpt><trkpt lat="42.21343841216461" lon="11.777852954302904"><ele>36.0</ele><time>2026-04-27T07:40:49.001Z</time></trkpt><trkpt lat="42.21364002259833" lon="11.777587437067995"><ele>36.0</ele><time>2026-04-27T07:40:50.001Z</time></trkpt><trkpt lat="42.21384425311037" lon="11.777321882272766"><ele>36.0</ele><time>2026-04-27T07:40:51.001Z</time></trkpt><trkpt lat="42.21405284857005" lon="11.77705738986995"><ele>37.0</ele><time>2026-04-27T07:40:52.001Z</time></trkpt><trkpt lat="42.21426004922048" lon="11.776794448689236"><ele>38.0</ele><time>2026-04-27T07:40:53.001Z</time></trkpt><trkpt lat="42.214471036173784" lon="11.77653168559239"><ele>38.0</ele><time>2026-04-27T07:40:54.001Z</time></trkpt><trkpt lat="42.21468560412244" lon="11.776266406351088"><ele>38.0</ele><time>2026-04-27T07:40:55.001Z</time></trkpt><trkpt lat="42.214903161394446" lon="11.776004351714734"><ele>38.0</ele><time>2026-04-27T07:40:56.001Z</time></trkpt><trkpt lat="42.21512287411681" lon="11.775742480559243"><ele>38.0</ele><time>2026-04-27T07:40:57.001Z</time></trkpt><trkpt lat="42.21534703549975" lon="11.775487153670486"><ele>38.0</ele><time>2026-04-27T07:40:58.001Z</time></trkpt><trkpt lat="42.21557610744737" lon="11.775237704713241"><ele>38.0</ele><time>2026-04-27T07:40:59.001Z</time></trkpt><trkpt lat="42.2158090816019" lon="11.77499455873203"><ele>38.0</ele><time>2026-04-27T07:41:00.001Z</time></trkpt><trkpt lat="42.216044870721895" lon="11.77475170753611"><ele>38.0</ele><time>2026-04-27T07:41:01.001Z</time></trkpt><trkpt lat="42.21628376027723" lon="11.774512277948828"><ele>38.0</ele><time>2026-04-27T07:41:02.001Z</time></trkpt><trkpt lat="42.21652557274404" lon="11.774288154451499"><ele>38.0</ele><time>2026-04-27T07:41:03.001Z</time></trkpt><trkpt lat="42.216771329450985" lon="11.774068287181914"><ele>38.0</ele><time>2026-04-27T07:41:04.001Z</time></trkpt><trkpt lat="42.217025812066304" lon="11.773854375217464"><ele>38.0</ele><time>2026-04-27T07:41:05Z</time></trkpt><trkpt lat="42.21727640802057" lon="11.773620976784054"><ele>36.5</ele><time>2026-04-27T07:41:06Z</time></trkpt><trkpt lat="42.21752358586542" lon="11.773421244477108"><ele>35.0</ele><time>2026-04-27T07:41:07Z</time></trkpt><trkpt lat="42.21778925154926" lon="11.77321457803969"><ele>35.0</ele><time>2026-04-27T07:41:08Z</time></trkpt><trkpt lat="42.218055014620155" lon="11.773012272208499"><ele>35.0</ele><time>2026-04-27T07:41:09Z</time></trkpt><trkpt lat="42.218319742063805" lon="11.772815892935693"><ele>35.5</ele><time>2026-04-27T07:41:10Z</time></trkpt><trkpt lat="42.218582960429785" lon="11.77262629304002"><ele>36.0</ele><time>2026-04-27T07:41:11Z</time></trkpt><trkpt lat="42.21884938321888" lon="11.772446710306173"><ele>37.5</ele><time>2026-04-27T07:41:12Z</time></trkpt><trkpt lat="42.21912170009267" lon="11.77226956932505"><ele>39.0</ele><time>2026-04-27T07:41:13Z</time></trkpt><trkpt lat="42.219396719742065" lon="11.772093261876366"><ele>39.0</ele><time>2026-04-27T07:41:14Z</time></trkpt><trkpt lat="42.21966942976765" lon="11.77192427212727"><ele>39.0</ele><time>2026-04-27T07:41:15Z</time></trkpt><trkpt lat="42.21994535608422" lon="11.771758490739167"><ele>39.5</ele><time>2026-04-27T07:41:16Z</time></trkpt><trkpt lat="42.22022386370882" lon="11.771597501083841"><ele>40.0</ele><time>2026-04-27T07:41:17Z</time></trkpt><trkpt lat="42.236554872840586" lon="11.761443419054213"><ele>43.5</ele><time>2026-04-27T07:42:18Z</time></trkpt><trkpt lat="42.236824684175076" lon="11.761285399268248"><ele>47.0</ele><time>2026-04-27T07:42:19Z</time></trkpt><trkpt lat="42.23710655033162" lon="11.761141295969212"><ele>46.5</ele><time>2026-04-27T07:42:20Z</time></trkpt><trkpt lat="42.23737398656097" lon="11.760974486399007"><ele>46.0</ele><time>2026-04-27T07:42:21Z</time></trkpt><trkpt lat="42.2376362250357" lon="11.760806786563643"><ele>46.0</ele><time>2026-04-27T07:42:22Z</time></trkpt><trkpt lat="42.237887672681495" lon="11.760629218318792"><ele>46.0</ele><time>2026-04-27T07:42:23Z</time></trkpt><trkpt lat="42.23813176992564" lon="11.76043096305516"><ele>46.5</ele><time>2026-04-27T07:42:24Z</time></trkpt><trkpt lat="42.23836847362721" lon="11.760217007788997"><ele>47.0</ele><time>2026-04-27T07:42:25Z</time></trkpt><trkpt lat="42.23859274158475" lon="11.759988518623379"><ele>47.0</ele><time>2026-04-27T07:42:26Z</time></trkpt><trkpt lat="42.23880983974013" lon="11.759741338180183"><ele>47.0</ele><time>2026-04-27T07:42:27.001Z</time></trkpt><trkpt lat="42.239012287259015" lon="11.759481731696084"><ele>47.5</ele><time>2026-04-27T07:42:28.001Z</time></trkpt><trkpt lat="42.23920674271698" lon="11.759204223656067"><ele>48.0</ele><time>2026-04-27T07:42:29.001Z</time></trkpt><trkpt lat="42.23940204121186" lon="11.758919786474813"><ele>48.0</ele><time>2026-04-27T07:42:30.001Z</time></trkpt><trkpt lat="42.23957547297664" lon="11.758623511334132"><ele>48.0</ele><time>2026-04-27T07:42:31.001Z</time></trkpt><trkpt lat="42.239732555257014" lon="11.758298312074322"><ele>47.0</ele><time>2026-04-27T07:42:32.001Z</time></trkpt><trkpt lat="42.23988069890318" lon="11.757957121374229"><ele>46.0</ele><time>2026-04-27T07:42:33.001Z</time></trkpt><trkpt lat="42.240029406243146" lon="11.7576190594467"><ele>45.0</ele><time>2026-04-27T07:42:34.001Z</time></trkpt><trkpt lat="42.24017074675522" lon="11.757275783998523"><ele>44.0</ele><time>2026-04-27T07:42:35.001Z</time></trkpt><trkpt lat="42.240296964073416" lon="11.75691982796068"><ele>43.0</ele><time>2026-04-27T07:42:36.001Z</time></trkpt><trkpt lat="42.24040924615726" lon="11.75655788812984"><ele>42.0</ele><time>2026-04-27T07:42:37.001Z</time></trkpt><trkpt lat="42.24051594085184" lon="11.756189300055086"><ele>42.0</ele><time>2026-04-27T07:42:38.001Z</time></trkpt><trkpt lat="42.24061544478995" lon="11.75581872734127"><ele>42.0</ele><time>2026-04-27T07:42:39.001Z</time></trkpt><trkpt lat="42.24069876422159" lon="11.755427802589354"><ele>42.0</ele><time>2026-04-27T07:42:40.001Z</time></trkpt><trkpt lat="42.24079727479148" lon="11.755025267436022"><ele>42.0</ele><time>2026-04-27T07:42:41.001Z</time></trkpt><trkpt lat="42.240886513932665" lon="11.754625580652283"><ele>41.5</ele><time>2026-04-27T07:42:42.001Z</time></trkpt><trkpt lat="42.24097103686001" lon="11.754237057376576"><ele>41.0</ele><time>2026-04-27T07:42:43.001Z</time></trkpt><trkpt lat="42.24105218432698" lon="11.753863126889499"><ele>40.0</ele><time>2026-04-27T07:42:44.001Z</time></trkpt><trkpt lat="42.241130371825655" lon="11.75348707540766"><ele>39.0</ele><time>2026-04-27T07:42:45.001Z</time></trkpt><trkpt lat="42.24122231218942" lon="11.753089687318129"><ele>38.0</ele><time>2026-04-27T07:42:46.001Z</time></trkpt><trkpt lat="42.24131299909674" lon="11.752689495779878"><ele>37.0</ele><time>2026-04-27T07:42:47.001Z</time></trkpt><trkpt lat="42.24140487783481" lon="11.752282338936515"><ele>39.0</ele><time>2026-04-27T07:42:48.001Z</time></trkpt><trkpt lat="42.24149831563692" lon="11.751870885119663"><ele>41.0</ele><time>2026-04-27T07:42:49.001Z</time></trkpt><trkpt lat="42.24159121820873" lon="11.751461123067262"><ele>41.0</ele><time>2026-04-27T07:42:50.001Z</time></trkpt><trkpt lat="42.241682047728865" lon="11.75105133942409"><ele>41.0</ele><time>2026-04-27T07:42:51.001Z</time></trkpt><trkpt lat="42.24177434957582" lon="11.750641608366868"><ele>40.0</ele><time>2026-04-27T07:42:52.001Z</time></trkpt><trkpt lat="42.24186442225548" lon="11.750239481350423"><ele>39.0</ele><time>2026-04-27T07:42:53.001Z</time></trkpt><trkpt lat="42.24195104164623" lon="11.74984646394355"><ele>38.5</ele><time>2026-04-27T07:42:54.001Z</time></trkpt><trkpt lat="42.24203554578145" lon="11.749463430071952"><ele>38.0</ele><time>2026-04-27T07:42:55.001Z</time></trkpt><trkpt lat="42.2421183621321" lon="11.749092506292216"><ele>37.0</ele><time>2026-04-27T07:42:56.001Z</time></trkpt><trkpt lat="42.24219380196676" lon="11.748746783882885"><ele>36.0</ele><time>2026-04-27T07:42:57.001Z</time></trkpt><trkpt lat="42.242266175908014" lon="11.748422203510863"><ele>36.0</ele><time>2026-04-27T07:42:58.001Z</time></trkpt><trkpt lat="42.2423420065928" lon="11.748104587916211"><ele>36.0</ele><time>2026-04-27T07:42:59.001Z</time></trkpt><trkpt lat="42.24242255412553" lon="11.747796560477349"><ele>35.5</ele><time>2026-04-27T07:43:00.001Z</time></trkpt><trkpt lat="42.242496645293755" lon="11.74750054660491"><ele>35.0</ele><time>2026-04-27T07:43:01.001Z</time></trkpt><trkpt lat="42.24256214727786" lon="11.74721083075813"><ele>35.0</ele><time>2026-04-27T07:43:02.001Z</time></trkpt><trkpt lat="42.24262137492877" lon="11.746933533075893"><ele>35.0</ele><time>2026-04-27T07:43:03.001Z</time></trkpt><trkpt lat="42.24267985168893" lon="11.746669733813649"><ele>35.0</ele><time>2026-04-27T07:43:04.001Z</time></trkpt><trkpt lat="42.242740410489795" lon="11.74641803066849"><ele>35.33333333333333</ele><time>2026-04-27T07:43:05.001Z</time></trkpt><trkpt lat="42.24279867062565" lon="11.746177356512716"><ele>35.666666666666664</ele><time>2026-04-27T07:43:06.001Z</time></trkpt><trkpt lat="42.242853814560654" lon="11.745943582673867"><ele>36.0</ele><time>2026-04-27T07:43:07.001Z</time></trkpt><trkpt lat="42.24291250851756" lon="11.745712462525926"><ele>36.0</ele><time>2026-04-27T07:43:08.001Z</time></trkpt><trkpt lat="42.242973495981175" lon="11.745481906562324"><ele>36.0</ele><time>2026-04-27T07:43:09.001Z</time></trkpt><trkpt lat="42.24303744824499" lon="11.745258348596051"><ele>36.0</ele><time>2026-04-27T07:43:10.001Z</time></trkpt><trkpt lat="42.243097451305744" lon="11.74504603276861"><ele>35.0</ele><time>2026-04-27T07:43:11Z</time></trkpt><trkpt lat="42.24315960491669" lon="11.744837903970414"><ele>34.0</ele><time>2026-04-27T07:43:12Z</time></trkpt><trkpt lat="42.243291533952075" lon="11.74446101556071"><ele>33.75</ele><time>2026-04-27T07:43:14Z</time></trkpt><trkpt lat="42.24338069219805" lon="11.744306828326968"><ele>33.5</ele><time>2026-04-27T07:43:15Z</time></trkpt><trkpt lat="42.24349143639609" lon="11.74418196431742"><ele>33.25</ele><time>2026-04-27T07:43:16Z</time></trkpt><trkpt lat="42.24361431744672" lon="11.74410355392802"><ele>33.0</ele><time>2026-04-27T07:43:17Z</time></trkpt><trkpt lat="42.247530128363266" lon="11.749790995558099"><ele>35.599999999999994</ele><time>2026-04-27T07:44:18Z</time></trkpt><trkpt lat="42.24760054757489" lon="11.749913455157031"><ele>38.199999999999996</ele><time>2026-04-27T07:44:19Z</time></trkpt><trkpt lat="42.247670284404755" lon="11.750026914992798"><ele>40.8</ele><time>2026-04-27T07:44:20Z</time></trkpt><trkpt lat="42.24773182701109" lon="11.750129884717127"><ele>43.4</ele><time>2026-04-27T07:44:21Z</time></trkpt><trkpt lat="42.24778897031166" lon="11.750236492728293"><ele>46.0</ele><time>2026-04-27T07:44:22Z</time></trkpt><trkpt lat="42.24784596940376" lon="11.750337901295756"><ele>46.599999999999994</ele><time>2026-04-27T07:44:23Z</time></trkpt><trkpt lat="42.24790067495568" lon="11.750437095075265"><ele>47.2</ele><time>2026-04-27T07:44:24Z</time></trkpt><trkpt lat="42.247954875666935" lon="11.75052607948596"><ele>47.8</ele><time>2026-04-27T07:44:25Z</time></trkpt><trkpt lat="42.248026939596585" lon="11.750642868841613"><ele>48.400000000000006</ele><time>2026-04-27T07:44:27Z</time></trkpt><trkpt lat="42.24810091914803" lon="11.750763334706468"><ele>49.0</ele><time>2026-04-27T07:44:29Z</time></trkpt><trkpt lat="42.24813581254846" lon="11.750850987446567"><ele>49.75</ele><time>2026-04-27T07:44:30Z</time></trkpt><trkpt lat="42.24819537189302" lon="11.750954414353442"><ele>50.5</ele><time>2026-04-27T07:44:31Z</time></trkpt><trkpt lat="42.24827991200243" lon="11.751071822323674"><ele>51.25</ele><time>2026-04-27T07:44:32Z</time></trkpt><trkpt lat="42.24834802511139" lon="11.751213032348675"><ele>52.0</ele><time>2026-04-27T07:44:33Z</time></trkpt><trkpt lat="42.248428278284" lon="11.75134841268752"><ele>53.25</ele><time>2026-04-27T07:44:34Z</time></trkpt><trkpt lat="42.248505765873176" lon="11.75148251553416"><ele>54.5</ele><time>2026-04-27T07:44:35Z</time></trkpt><trkpt lat="42.248580491834474" lon="11.75161420303844"><ele>55.75</ele><time>2026-04-27T07:44:36Z</time></trkpt><trkpt lat="42.24865610364553" lon="11.751744218915197"><ele>57.0</ele><time>2026-04-27T07:44:37Z</time></trkpt><trkpt lat="42.24872963917578" lon="11.751869697865839"><ele>57.666666666666664</ele><time>2026-04-27T07:44:38.001Z</time></trkpt><trkpt lat="42.24879878959934" lon="11.75197796504114"><ele>58.33333333333333</ele><time>2026-04-27T07:44:39.001Z</time></trkpt><trkpt lat="42.24885489753292" lon="11.752077426643355"><ele>59.0</ele><time>2026-04-27T07:44:40.001Z</time></trkpt><trkpt lat="42.24889490030591" lon="11.752186152828818"><ele>59.666666666666664</ele><time>2026-04-27T07:44:41.001Z</time></trkpt><trkpt lat="42.24891030707289" lon="11.752296390616525"><ele>60.33333333333333</ele><time>2026-04-27T07:44:42.001Z</time></trkpt><trkpt lat="42.248916092757916" lon="11.752393276246805"><ele>61.0</ele><time>2026-04-27T07:44:43.001Z</time></trkpt><trkpt lat="42.248937859537634" lon="11.752487511165008"><ele>61.33333333333333</ele><time>2026-04-27T07:44:44.001Z</time></trkpt><trkpt lat="42.24899936103305" lon="11.752541112508169"><ele>61.666666666666664</ele><time>2026-04-27T07:44:45.001Z</time></trkpt><trkpt lat="42.249069576604555" lon="11.752552962264632"><ele>62.0</ele><time>2026-04-27T07:44:46.001Z</time></trkpt><trkpt lat="42.249140968073" lon="11.75253881129503"><ele>62.33333333333333</ele><time>2026-04-27T07:44:47.001Z</time></trkpt><trkpt lat="42.24920931321965" lon="11.752475470040856"><ele>62.666666666666664</ele><time>2026-04-27T07:44:48.001Z</time></trkpt><trkpt lat="42.249249525590095" lon="11.752345951429495"><ele>63.0</ele><time>2026-04-27T07:44:49.001Z</time></trkpt><trkpt lat="42.24931592179581" lon="11.752268563900744"><ele>63.0</ele><time>2026-04-27T07:44:50.001Z</time></trkpt><trkpt lat="42.24939566612053" lon="11.752183568785817"><ele>63.0</ele><time>2026-04-27T07:44:51.001Z</time></trkpt><trkpt lat="42.24947923744737" lon="11.752090483485386"><ele>63.0</ele><time>2026-04-27T07:44:52.001Z</time></trkpt><trkpt lat="42.24956510418634" lon="11.75199322226584"><ele>63.0</ele><time>2026-04-27T07:44:53.001Z</time></trkpt><trkpt lat="42.24965274027407" lon="11.751879370435974"><ele>63.0</ele><time>2026-04-27T07:44:54.001Z</time></trkpt><trkpt lat="42.249738431968275" lon="11.751742356417113"><ele>62.75</ele><time>2026-04-27T07:44:55.001Z</time></trkpt><trkpt lat="42.2498282244161" lon="11.751594078446573"><ele>62.5</ele><time>2026-04-27T07:44:56.001Z</time></trkpt><trkpt lat="42.249914224383915" lon="11.751447247398785"><ele>62.25</ele><time>2026-04-27T07:44:57.001Z</time></trkpt><trkpt lat="42.25000822688521" lon="11.751299992400416"><ele>62.0</ele><time>2026-04-27T07:44:58.001Z</time></trkpt><trkpt lat="42.2501129511129" lon="11.751158228012375"><ele>60.5</ele><time>2026-04-27T07:44:59.001Z</time></trkpt><trkpt lat="42.250351617383465" lon="11.750892952444184"><ele>59.0</ele><time>2026-04-27T07:45:01.001Z</time></trkpt><trkpt lat="42.25048804254992" lon="11.750769238298858"><ele>60.0</ele><time>2026-04-27T07:45:02.001Z</time></trkpt><trkpt lat="42.25062610608389" lon="11.750637917724962"><ele>61.0</ele><time>2026-04-27T07:45:03.001Z</time></trkpt><trkpt lat="42.2507570347094" lon="11.750516631591433"><ele>62.0</ele><time>2026-04-27T07:45:04.001Z</time></trkpt><trkpt lat="42.25087476766267" lon="11.750399730856227"><ele>62.0</ele><time>2026-04-27T07:45:05.001Z</time></trkpt><trkpt lat="42.25099365440642" lon="11.75029006674609"><ele>62.0</ele><time>2026-04-27T07:45:06.001Z</time></trkpt><trkpt lat="42.25112263700787" lon="11.750187919680567"><ele>62.0</ele><time>2026-04-27T07:45:07.001Z</time></trkpt><trkpt lat="42.251258282498505" lon="11.750095319922956"><ele>62.0</ele><time>2026-04-27T07:45:08.001Z</time></trkpt><trkpt lat="42.251403220146415" lon="11.750006652639714"><ele>61.66666666666667</ele><time>2026-04-27T07:45:09.001Z</time></trkpt><trkpt lat="42.251561724517416" lon="11.749916088530442"><ele>61.33333333333333</ele><time>2026-04-27T07:45:10.001Z</time></trkpt><trkpt lat="42.25172138188178" lon="11.749825438913089"><ele>61.0</ele><time>2026-04-27T07:45:11.001Z</time></trkpt><trkpt lat="42.25187054315567" lon="11.749736278498483"><ele>61.0</ele><time>2026-04-27T07:45:12.001Z</time></trkpt><trkpt lat="42.25200405548349" lon="11.749640693049429"><ele>61.0</ele><time>2026-04-27T07:45:13.001Z</time></trkpt><trkpt lat="42.25211618364342" lon="11.749532664890232"><ele>61.0</ele><time>2026-04-27T07:45:14.001Z</time></trkpt><trkpt lat="42.252208783054634" lon="11.749398137104762"><ele>61.0</ele><time>2026-04-27T07:45:15.001Z</time></trkpt><trkpt lat="42.25227388699756" lon="11.749234338963234"><ele>61.0</ele><time>2026-04-27T07:45:16.001Z</time></trkpt><trkpt lat="42.252331313973755" lon="11.749050528954989"><ele>61.0</ele><time>2026-04-27T07:45:16.999Z</time></trkpt><trkpt lat="42.255263743086395" lon="11.74390510863334"><ele>54.8</ele><time>2026-04-27T07:46:18Z</time></trkpt><trkpt lat="42.25536681705305" lon="11.743970113243638"><ele>48.599999999999994</ele><time>2026-04-27T07:46:19Z</time></trkpt><trkpt lat="42.255469802708596" lon="11.744020011579536"><ele>42.4</ele><time>2026-04-27T07:46:20Z</time></trkpt><trkpt lat="42.25557243085758" lon="11.744055899191858"><ele>36.2</ele><time>2026-04-27T07:46:21Z</time></trkpt><trkpt lat="42.25567773290841" lon="11.744056853807015"><ele>30.0</ele><time>2026-04-27T07:46:22Z</time></trkpt><trkpt lat="42.255785457246226" lon="11.744019609746218"><ele>28.25</ele><time>2026-04-27T07:46:23Z</time></trkpt><trkpt lat="42.255893364362464" lon="11.74395409409286"><ele>26.5</ele><time>2026-04-27T07:46:24Z</time></trkpt><trkpt lat="42.25601081822071" lon="11.743859622157856"><ele>24.75</ele><time>2026-04-27T07:46:25Z</time></trkpt><trkpt lat="42.25613402423328" lon="11.743710846531734"><ele>23.0</ele><time>2026-04-27T07:46:26Z</time></trkpt><trkpt lat="42.256254252973626" lon="11.743587197789573"><ele>21.0</ele><time>2026-04-27T07:46:27Z</time></trkpt><trkpt lat="42.256377926928906" lon="11.743454084800847"><ele>19.0</ele><time>2026-04-27T07:46:28Z</time></trkpt><trkpt lat="42.2565017461811" lon="11.743312021545748"><ele>17.0</ele><time>2026-04-27T07:46:29Z</time></trkpt><trkpt lat="42.256620144826854" lon="11.743159550963307"><ele>15.333333333333334</ele><time>2026-04-27T07:46:30Z</time></trkpt><trkpt lat="42.2567365691748" lon="11.742989252454354"><ele>13.666666666666668</ele><time>2026-04-27T07:46:31Z</time></trkpt><trkpt lat="42.256844973007766" lon="11.742818540431685"><ele>12.0</ele><time>2026-04-27T07:46:32Z</time></trkpt><trkpt lat="42.256960677505504" lon="11.742680283834718"><ele>12.0</ele><time>2026-04-27T07:46:33Z</time></trkpt><trkpt lat="42.257060062807284" lon="11.7425376693927"><ele>12.0</ele><time>2026-04-27T07:46:34Z</time></trkpt><trkpt lat="42.257136943490046" lon="11.742394119372756"><ele>12.0</ele><time>2026-04-27T07:46:35Z</time></trkpt><trkpt lat="42.25722209289197" lon="11.742291173285201"><ele>12.0</ele><time>2026-04-27T07:46:36Z</time></trkpt><trkpt lat="42.25729226234835" lon="11.742222405071601"><ele>12.0</ele><time>2026-04-27T07:46:37Z</time></trkpt><trkpt lat="42.25745803401438" lon="11.742243513805086"><ele>12.0</ele><time>2026-04-27T07:46:39Z</time></trkpt><trkpt lat="42.25753522993227" lon="11.742228012069615"><ele>12.0</ele><time>2026-04-27T07:46:40Z</time></trkpt><trkpt lat="42.25763132063886" lon="11.742376931612077"><ele>12.0</ele><time>2026-04-27T07:46:41Z</time></trkpt><trkpt lat="42.25771511806998" lon="11.742450381948263"><ele>12.0</ele><time>2026-04-27T07:46:42Z</time></trkpt><trkpt lat="42.257792862661184" lon="11.74251319879202"><ele>12.0</ele><time>2026-04-27T07:46:43Z</time></trkpt><trkpt lat="42.25786729103681" lon="11.742575502307877"><ele>12.0</ele><time>2026-04-27T07:46:44Z</time></trkpt><trkpt lat="42.25794719627987" lon="11.742639900620794"><ele>12.0</ele><time>2026-04-27T07:46:45Z</time></trkpt><trkpt lat="42.258028662049284" lon="11.742714864024075"><ele>12.0</ele><time>2026-04-27T07:46:46Z</time></trkpt><trkpt lat="42.25811880514473" lon="11.742800449527575"><ele>11.5</ele><time>2026-04-27T07:46:47Z</time></trkpt><trkpt lat="42.258222488642495" lon="11.742893386553158"><ele>11.0</ele><time>2026-04-27T07:46:48Z</time></trkpt><trkpt lat="42.258337239716006" lon="11.742997965130503"><ele>10.5</ele><time>2026-04-27T07:46:49Z</time></trkpt><trkpt lat="42.25845694461252" lon="11.743113914661135"><ele>10.0</ele><time>2026-04-27T07:46:50Z</time></trkpt><trkpt lat="42.25858981716265" lon="11.743244437804009"><ele>10.0</ele><time>2026-04-27T07:46:51Z</time></trkpt><trkpt lat="42.25873358012574" lon="11.743391411518724"><ele>10.0</ele><time>2026-04-27T07:46:52Z</time></trkpt><trkpt lat="42.25888000278058" lon="11.74354000605535"><ele>10.0</ele><time>2026-04-27T07:46:53Z</time></trkpt><trkpt lat="42.25903478862524" lon="11.74369950912187"><ele>10.666666666666668</ele><time>2026-04-27T07:46:54Z</time></trkpt><trkpt lat="42.25919681556889" lon="11.743872114822757"><ele>11.333333333333334</ele><time>2026-04-27T07:46:55Z</time></trkpt><trkpt lat="42.259358567877655" lon="11.744034042778232"><ele>12.0</ele><time>2026-04-27T07:46:56Z</time></trkpt><trkpt lat="42.25951987964842" lon="11.744194355091388"><ele>12.0</ele><time>2026-04-27T07:46:57Z</time></trkpt><trkpt lat="42.25968158062536" lon="11.744364474725359"><ele>12.0</ele><time>2026-04-27T07:46:58Z</time></trkpt><trkpt lat="42.25984268202915" lon="11.744532586264043"><ele>12.0</ele><time>2026-04-27T07:46:59Z</time></trkpt><trkpt lat="42.25999788186382" lon="11.744694119009903"><ele>12.333333333333332</ele><time>2026-04-27T07:47:00Z</time></trkpt><trkpt lat="42.26013957102257" lon="11.744842659880524"><ele>12.666666666666666</ele><time>2026-04-27T07:47:01Z</time></trkpt><trkpt lat="42.260282047397226" lon="11.744990826069788"><ele>13.0</ele><time>2026-04-27T07:47:02Z</time></trkpt><trkpt lat="42.26042259427963" lon="11.745155910794663"><ele>12.333333333333332</ele><time>2026-04-27T07:47:03Z</time></trkpt><trkpt lat="42.26056179271995" lon="11.745331851440879"><ele>11.666666666666666</ele><time>2026-04-27T07:47:04Z</time></trkpt><trkpt lat="42.260695472186626" lon="11.745524347171317"><ele>11.0</ele><time>2026-04-27T07:47:05Z</time></trkpt><trkpt lat="42.2608207917383" lon="11.74573141251476"><ele>11.666666666666666</ele><time>2026-04-27T07:47:06Z</time></trkpt><trkpt lat="42.26094409796026" lon="11.745954592507045"><ele>12.333333333333332</ele><time>2026-04-27T07:47:07Z</time></trkpt><trkpt lat="42.261069535399116" lon="11.74619282931551"><ele>13.0</ele><time>2026-04-27T07:47:08Z</time></trkpt><trkpt lat="42.261192880296385" lon="11.746440791669286"><ele>13.0</ele><time>2026-04-27T07:47:09Z</time></trkpt><trkpt lat="42.261307577551015" lon="11.746701151632715"><ele>13.0</ele><time>2026-04-27T07:47:10Z</time></trkpt><trkpt lat="42.26141623127184" lon="11.746970551243892"><ele>13.0</ele><time>2026-04-27T07:47:11Z</time></trkpt><trkpt lat="42.261525116962254" lon="11.747229266855769"><ele>13.0</ele><time>2026-04-27T07:47:12.001Z</time></trkpt><trkpt lat="42.26163320306601" lon="11.747484416432684"><ele>13.0</ele><time>2026-04-27T07:47:13.001Z</time></trkpt><trkpt lat="42.26174277737013" lon="11.747735588149762"><ele>13.0</ele><time>2026-04-27T07:47:14.001Z</time></trkpt><trkpt lat="42.26185434957909" lon="11.747985959127096"><ele>13.0</ele><time>2026-04-27T07:47:15.001Z</time></trkpt><trkpt lat="42.26197485558782" lon="11.748228481233875"><ele>13.0</ele><time>2026-04-27T07:47:16.001Z</time></trkpt><trkpt lat="42.262104811015384" lon="11.748463954791251"><ele>24.0</ele><time>2026-04-27T07:47:17.001Z</time></trkpt><trkpt lat="42.26870783779066" lon="11.762861816992551"><ele>24.0</ele><time>2026-04-27T07:48:18Z</time></trkpt><trkpt lat="42.268862675026924" lon="11.763020459747926"><ele>24.0</ele><time>2026-04-27T07:48:19Z</time></trkpt><trkpt lat="42.26903038670545" lon="11.763166955892384"><ele>24.0</ele><time>2026-04-27T07:48:20Z</time></trkpt><trkpt lat="42.26921188910517" lon="11.763289789054104"><ele>24.0</ele><time>2026-04-27T07:48:21Z</time></trkpt><trkpt lat="42.26940895012146" lon="11.763384175211943"><ele>24.0</ele><time>2026-04-27T07:48:22Z</time></trkpt><trkpt lat="42.26961913929488" lon="11.763464331419382"><ele>24.0</ele><time>2026-04-27T07:48:23Z</time></trkpt><trkpt lat="42.26985659360548" lon="11.763534873126993"><ele>21.5</ele><time>2026-04-27T07:48:24Z</time></trkpt><trkpt lat="42.270099680488755" lon="11.763616436740415"><ele>19.0</ele><time>2026-04-27T07:48:25Z</time></trkpt><trkpt lat="42.270340631267715" lon="11.763689971192205"><ele>19.0</ele><time>2026-04-27T07:48:26Z</time></trkpt><trkpt lat="42.27057522342045" lon="11.763766780887053"><ele>19.0</ele><time>2026-04-27T07:48:27Z</time></trkpt><trkpt lat="42.270810522863144" lon="11.763829935623637"><ele>19.5</ele><time>2026-04-27T07:48:28Z</time></trkpt><trkpt lat="42.271031454525804" lon="11.763923956195761"><ele>20.0</ele><time>2026-04-27T07:48:29Z</time></trkpt><trkpt lat="42.27125203593709" lon="11.76400223906671"><ele>20.333333333333336</ele><time>2026-04-27T07:48:30Z</time></trkpt><trkpt lat="42.27146880155996" lon="11.764077842352732"><ele>20.666666666666668</ele><time>2026-04-27T07:48:31Z</time></trkpt><trkpt lat="42.27168343216564" lon="11.764152319641386"><ele>21.0</ele><time>2026-04-27T07:48:32Z</time></trkpt><trkpt lat="42.271894414660856" lon="11.764225374051245"><ele>21.0</ele><time>2026-04-27T07:48:33Z</time></trkpt><trkpt lat="42.27210469237484" lon="11.764300407356814"><ele>21.0</ele><time>2026-04-27T07:48:34Z</time></trkpt><trkpt lat="42.272311600240734" lon="11.764373686023587"><ele>21.0</ele><time>2026-04-27T07:48:35Z</time></trkpt><trkpt lat="42.2725150714683" lon="11.764446478497879"><ele>20.333333333333332</ele><time>2026-04-27T07:48:36Z</time></trkpt><trkpt lat="42.27271769072771" lon="11.764515166282836"><ele>19.666666666666664</ele><time>2026-04-27T07:48:37Z</time></trkpt><trkpt lat="42.27291993556241" lon="11.76458091080183"><ele>19.0</ele><time>2026-04-27T07:48:38Z</time></trkpt><trkpt lat="42.27313115487624" lon="11.764646474032364"><ele>19.0</ele><time>2026-04-27T07:48:39Z</time></trkpt><trkpt lat="42.27334357326116" lon="11.76471229828641"><ele>19.0</ele><time>2026-04-27T07:48:40Z</time></trkpt><trkpt lat="42.2735549935466" lon="11.764774341312805"><ele>19.0</ele><time>2026-04-27T07:48:41Z</time></trkpt><trkpt lat="42.27377013635745" lon="11.764837253502465"><ele>19.666666666666664</ele><time>2026-04-27T07:48:42Z</time></trkpt><trkpt lat="42.27398760074427" lon="11.764903402851944"><ele>20.333333333333332</ele><time>2026-04-27T07:48:43Z</time></trkpt><trkpt lat="42.274205043582555" lon="11.764969388305179"><ele>21.0</ele><time>2026-04-27T07:48:44Z</time></trkpt><trkpt lat="42.27442172351142" lon="11.765028813650593"><ele>21.0</ele><time>2026-04-27T07:48:45Z</time></trkpt><trkpt lat="42.274642527965604" lon="11.765090324117052"><ele>21.0</ele><time>2026-04-27T07:48:46Z</time></trkpt><trkpt lat="42.274865179712556" lon="11.765153208278408"><ele>20.0</ele><time>2026-04-27T07:48:47.001Z</time></trkpt><trkpt lat="42.27509032077375" lon="11.765214011404451"><ele>19.0</ele><time>2026-04-27T07:48:48.001Z</time></trkpt><trkpt lat="42.275315299983205" lon="11.765274000106873"><ele>19.0</ele><time>2026-04-27T07:48:49.001Z</time></trkpt><trkpt lat="42.275534400295605" lon="11.765328225661307"><ele>19.0</ele><time>2026-04-27T07:48:50.001Z</time></trkpt><trkpt lat="42.27574510879138" lon="11.7653895358845"><ele>19.0</ele><time>2026-04-27T07:48:51.001Z</time></trkpt><trkpt lat="42.27595482188971" lon="11.76546372597968"><ele>19.333333333333332</ele><time>2026-04-27T07:48:52.001Z</time></trkpt><trkpt lat="42.276164004963945" lon="11.765555604082063"><ele>19.666666666666668</ele><time>2026-04-27T07:48:53.001Z</time></trkpt><trkpt lat="42.276371575428385" lon="11.765663167886615"><ele>20.0</ele><time>2026-04-27T07:48:54.001Z</time></trkpt><trkpt lat="42.27657816095848" lon="11.765796283316133"><ele>20.0</ele><time>2026-04-27T07:48:55.001Z</time></trkpt><trkpt lat="42.276789507359695" lon="11.765934726344156"><ele>20.0</ele><time>2026-04-27T07:48:56.001Z</time></trkpt><trkpt lat="42.27700199926234" lon="11.766075520141035"><ele>20.0</ele><time>2026-04-27T07:48:57.001Z</time></trkpt><trkpt lat="42.27721470418528" lon="11.766220260698097"><ele>20.0</ele><time>2026-04-27T07:48:58.001Z</time></trkpt><trkpt lat="42.27742958269395" lon="11.76636633885898"><ele>20.5</ele><time>2026-04-27T07:48:59.001Z</time></trkpt><trkpt lat="42.277639445937155" lon="11.766507182214843"><ele>21.0</ele><time>2026-04-27T07:49:00.001Z</time></trkpt><trkpt lat="42.27785324573765" lon="11.766647790368852"><ele>21.0</ele><time>2026-04-27T07:49:01.001Z</time></trkpt><trkpt lat="42.278069738460005" lon="11.766789921016318"><ele>21.0</ele><time>2026-04-27T07:49:02.001Z</time></trkpt><trkpt lat="42.278284723167765" lon="11.766933566194194"><ele>21.5</ele><time>2026-04-27T07:49:03.001Z</time></trkpt><trkpt lat="42.27849220517892" lon="11.76707758569241"><ele>22.0</ele><time>2026-04-27T07:49:04.001Z</time></trkpt><trkpt lat="42.27868822965102" lon="11.767209162749277"><ele>22.0</ele><time>2026-04-27T07:49:05.001Z</time></trkpt><trkpt lat="42.278875259889105" lon="11.76733032129788"><ele>22.0</ele><time>2026-04-27T07:49:06.001Z</time></trkpt><trkpt lat="42.27904994869331" lon="11.767447710532558"><ele>22.0</ele><time>2026-04-27T07:49:07.001Z</time></trkpt><trkpt lat="42.279215648421356" lon="11.76757121423437"><ele>21.666666666666664</ele><time>2026-04-27T07:49:08.001Z</time></trkpt><trkpt lat="42.27936049298791" lon="11.767714161516711"><ele>21.333333333333332</ele><time>2026-04-27T07:49:09.001Z</time></trkpt><trkpt lat="42.2794935365725" lon="11.767893199594267"><ele>21.0</ele><time>2026-04-27T07:49:10.001Z</time></trkpt><trkpt lat="42.27961471166636" lon="11.768102792659137"><ele>21.0</ele><time>2026-04-27T07:49:11.001Z</time></trkpt><trkpt lat="42.279734519535204" lon="11.768333811162856"><ele>21.0</ele><time>2026-04-27T07:49:12.001Z</time></trkpt><trkpt lat="42.27986438290169" lon="11.768574865867159"><ele>21.0</ele><time>2026-04-27T07:49:13.001Z</time></trkpt><trkpt lat="42.279997981933334" lon="11.768822214387345"><ele>21.0</ele><time>2026-04-27T07:49:14.001Z</time></trkpt><trkpt lat="42.2801278158264" lon="11.769062241482402"><ele>21.0</ele><time>2026-04-27T07:49:15.001Z</time></trkpt><trkpt lat="42.28025968573712" lon="11.769304975666012"><ele>21.0</ele><time>2026-04-27T07:49:16.001Z</time></trkpt><trkpt lat="42.280390139577925" lon="11.769547194669167"><ele>24.0</ele><time>2026-04-27T07:49:17.001Z</time></trkpt><trkpt lat="42.29092407470881" lon="11.777853574842547"><ele>24.0</ele><time>2026-04-27T07:50:18Z</time></trkpt><trkpt lat="42.29099275083152" lon="11.778082840662526"><ele>24.0</ele><time>2026-04-27T07:50:19.001Z</time></trkpt><trkpt lat="42.29106270203948" lon="11.778310606661986"><ele>24.0</ele><time>2026-04-27T07:50:20.001Z</time></trkpt><trkpt lat="42.2911278797295" lon="11.778536393996418"><ele>25.0</ele><time>2026-04-27T07:50:21.001Z</time></trkpt><trkpt lat="42.29119161263315" lon="11.778752859261159"><ele>26.0</ele><time>2026-04-27T07:50:22.001Z</time></trkpt><trkpt lat="42.29126515972402" lon="11.778956711136559"><ele>27.0</ele><time>2026-04-27T07:50:23.001Z</time></trkpt><trkpt lat="42.29134524821013" lon="11.779166329273577"><ele>29.333333333333336</ele><time>2026-04-27T07:50:24.001Z</time></trkpt><trkpt lat="42.291438831395006" lon="11.77936830127761"><ele>31.666666666666668</ele><time>2026-04-27T07:50:25.001Z</time></trkpt><trkpt lat="42.2915483948156" lon="11.779561784357252"><ele>34.0</ele><time>2026-04-27T07:50:26.001Z</time></trkpt><trkpt lat="42.29166758537958" lon="11.779741946033454"><ele>34.0</ele><time>2026-04-27T07:50:27.001Z</time></trkpt><trkpt lat="42.291803179425195" lon="11.779908150372286"><ele>34.0</ele><time>2026-04-27T07:50:28.001Z</time></trkpt><trkpt lat="42.29194788339413" lon="11.780065910437816"><ele>34.0</ele><time>2026-04-27T07:50:29.001Z</time></trkpt><trkpt lat="42.29209929453038" lon="11.780223814618754"><ele>36.66666666666667</ele><time>2026-04-27T07:50:30.001Z</time></trkpt><trkpt lat="42.292251316957724" lon="11.78038785300706"><ele>39.333333333333336</ele><time>2026-04-27T07:50:31.001Z</time></trkpt><trkpt lat="42.292403371239075" lon="11.780558835724538"><ele>42.0</ele><time>2026-04-27T07:50:32.001Z</time></trkpt><trkpt lat="42.29255915082462" lon="11.78073594112017"><ele>42.0</ele><time>2026-04-27T07:50:33.001Z</time></trkpt><trkpt lat="42.29272114118828" lon="11.78091735252908"><ele>42.0</ele><time>2026-04-27T07:50:34.001Z</time></trkpt><trkpt lat="42.2928804286739" lon="11.781100143294376"><ele>42.0</ele><time>2026-04-27T07:50:35.001Z</time></trkpt><trkpt lat="42.29304003130985" lon="11.781277594255572"><ele>41.0</ele><time>2026-04-27T07:50:36.001Z</time></trkpt><trkpt lat="42.29319557064739" lon="11.781460401842875"><ele>40.0</ele><time>2026-04-27T07:50:37.001Z</time></trkpt><trkpt lat="42.29335724428897" lon="11.781636156640433"><ele>39.0</ele><time>2026-04-27T07:50:38.001Z</time></trkpt><trkpt lat="42.293515268700666" lon="11.781803227275327"><ele>38.333333333333336</ele><time>2026-04-27T07:50:39.001Z</time></trkpt><trkpt lat="42.293675010926506" lon="11.781966450947039"><ele>37.66666666666667</ele><time>2026-04-27T07:50:40.001Z</time></trkpt><trkpt lat="42.29384935819046" lon="11.782092862075762"><ele>37.0</ele><time>2026-04-27T07:50:41.001Z</time></trkpt><trkpt lat="42.29401937161199" lon="11.782201392471093"><ele>37.0</ele><time>2026-04-27T07:50:42.001Z</time></trkpt><trkpt lat="42.2941934550197" lon="11.782309705578708"><ele>37.0</ele><time>2026-04-27T07:50:43.001Z</time></trkpt><trkpt lat="42.29437829266179" lon="11.7824128119485"><ele>37.0</ele><time>2026-04-27T07:50:44.001Z</time></trkpt><trkpt lat="42.29458498879221" lon="11.782490392208112"><ele>34.5</ele><time>2026-04-27T07:50:45.001Z</time></trkpt><trkpt lat="42.294811812224644" lon="11.782536132084863"><ele>32.0</ele><time>2026-04-27T07:50:46.001Z</time></trkpt><trkpt lat="42.295046357070206" lon="11.782582483000578"><ele>32.0</ele><time>2026-04-27T07:50:47.001Z</time></trkpt><trkpt lat="42.29528545199036" lon="11.782625558260637"><ele>32.0</ele><time>2026-04-27T07:50:48.001Z</time></trkpt><trkpt lat="42.29551876109502" lon="11.7826715699962"><ele>37.5</ele><time>2026-04-27T07:50:49.001Z</time></trkpt><trkpt lat="42.295749112624584" lon="11.782719079050658"><ele>43.0</ele><time>2026-04-27T07:50:50.001Z</time></trkpt><trkpt lat="42.29597755126824" lon="11.782762944177152"><ele>43.0</ele><time>2026-04-27T07:50:51.001Z</time></trkpt><trkpt lat="42.2962030231761" lon="11.782800473530791"><ele>43.0</ele><time>2026-04-27T07:50:52.001Z</time></trkpt><trkpt lat="42.29643071721156" lon="11.782828900244915"><ele>42.5</ele><time>2026-04-27T07:50:53.001Z</time></trkpt><trkpt lat="42.296662054369726" lon="11.782836190647282"><ele>42.0</ele><time>2026-04-27T07:50:54.001Z</time></trkpt><trkpt lat="42.29690791818924" lon="11.782824892357048"><ele>42.0</ele><time>2026-04-27T07:50:55.001Z</time></trkpt><trkpt lat="42.29715646046026" lon="11.782796932809454"><ele>42.0</ele><time>2026-04-27T07:50:56.001Z</time></trkpt><trkpt lat="42.29739560729917" lon="11.782756629479294"><ele>41.0</ele><time>2026-04-27T07:50:57.001Z</time></trkpt><trkpt lat="42.297631458178884" lon="11.782716902959892"><ele>40.0</ele><time>2026-04-27T07:50:58.001Z</time></trkpt><trkpt lat="42.297867077000525" lon="11.782668828597584"><ele>37.5</ele><time>2026-04-27T07:50:59.001Z</time></trkpt><trkpt lat="42.298109663349294" lon="11.782607134234766"><ele>35.0</ele><time>2026-04-27T07:51:00.001Z</time></trkpt><trkpt lat="42.29837349891614" lon="11.782574604287365"><ele>35.0</ele><time>2026-04-27T07:51:01.001Z</time></trkpt><trkpt lat="42.29864113136772" lon="11.782510732954986"><ele>35.0</ele><time>2026-04-27T07:51:02.001Z</time></trkpt><trkpt lat="42.298922689566105" lon="11.78243095196295"><ele>36.0</ele><time>2026-04-27T07:51:03.001Z</time></trkpt><trkpt lat="42.29920638962439" lon="11.782350564098143"><ele>37.0</ele><time>2026-04-27T07:51:04.001Z</time></trkpt><trkpt lat="42.29949170286411" lon="11.7822697189402"><ele>40.0</ele><time>2026-04-27T07:51:05.001Z</time></trkpt><trkpt lat="42.299798333498714" lon="11.782182833613405"><ele>43.0</ele><time>2026-04-27T07:51:06.001Z</time></trkpt><trkpt lat="42.30005537258303" lon="11.782046200549264"><ele>43.0</ele><time>2026-04-27T07:51:08.001Z</time></trkpt><trkpt lat="42.300302835191694" lon="11.781973816020054"><ele>43.0</ele><time>2026-04-27T07:51:09.001Z</time></trkpt><trkpt lat="42.30054130563497" lon="11.781903512645737"><ele>39.0</ele><time>2026-04-27T07:51:10.001Z</time></trkpt><trkpt lat="42.3007758285256" lon="11.781838854754243"><ele>35.0</ele><time>2026-04-27T07:51:11.001Z</time></trkpt><trkpt lat="42.30101579319556" lon="11.781773110785986"><ele>35.0</ele><time>2026-04-27T07:51:12.001Z</time></trkpt><trkpt lat="42.30125357810536" lon="11.781708372603061"><ele>35.0</ele><time>2026-04-27T07:51:13.001Z</time></trkpt><trkpt lat="42.301485438797144" lon="11.781644091681224"><ele>35.33333333333333</ele><time>2026-04-27T07:51:14.001Z</time></trkpt><trkpt lat="42.30170028895994" lon="11.781585357754489"><ele>35.666666666666664</ele><time>2026-04-27T07:51:15.001Z</time></trkpt><trkpt lat="42.301916572663536" lon="11.78152032618884"><ele>36.0</ele><time>2026-04-27T07:51:16.001Z</time></trkpt><trkpt lat="42.302132504857546" lon="11.781444589715026"><ele>53.0</ele><time>2026-04-27T07:51:17.001Z</time></trkpt><trkpt lat="42.31559392540873" lon="11.782057600558886"><ele>53.0</ele><time>2026-04-27T07:52:18.001Z</time></trkpt><trkpt lat="42.315824894424594" lon="11.782093001163945"><ele>53.0</ele><time>2026-04-27T07:52:19.001Z</time></trkpt><trkpt lat="42.31605774372261" lon="11.782126749771635"><ele>53.0</ele><time>2026-04-27T07:52:20.001Z</time></trkpt><trkpt lat="42.316277529222525" lon="11.782163738311844"><ele>53.0</ele><time>2026-04-27T07:52:21.001Z</time></trkpt><trkpt lat="42.316473076121966" lon="11.782191209643395"><ele>53.0</ele><time>2026-04-27T07:52:22.001Z</time></trkpt><trkpt lat="42.31667633143429" lon="11.78221941660976"><ele>53.333333333333336</ele><time>2026-04-27T07:52:23.001Z</time></trkpt><trkpt lat="42.31688627543673" lon="11.782236697163066"><ele>53.66666666666667</ele><time>2026-04-27T07:52:24.001Z</time></trkpt><trkpt lat="42.31709390755722" lon="11.78224278004826"><ele>54.0</ele><time>2026-04-27T07:52:25.001Z</time></trkpt><trkpt lat="42.31730599757885" lon="11.782224141190438"><ele>52.33333333333333</ele><time>2026-04-27T07:52:26.001Z</time></trkpt><trkpt lat="42.31752163409381" lon="11.782203371928901"><ele>50.666666666666664</ele><time>2026-04-27T07:52:27.001Z</time></trkpt><trkpt lat="42.31773868134034" lon="11.782168312722211"><ele>49.0</ele><time>2026-04-27T07:52:28.001Z</time></trkpt><trkpt lat="42.31795713744085" lon="11.78212516363931"><ele>51.0</ele><time>2026-04-27T07:52:29.001Z</time></trkpt><trkpt lat="42.31818011146893" lon="11.782074909629758"><ele>53.0</ele><time>2026-04-27T07:52:30.001Z</time></trkpt><trkpt lat="42.3184017456808" lon="11.782030432067327"><ele>53.0</ele><time>2026-04-27T07:52:31.001Z</time></trkpt><trkpt lat="42.318622613103216" lon="11.781987003166849"><ele>53.0</ele><time>2026-04-27T07:52:32.001Z</time></trkpt><trkpt lat="42.31884534365396" lon="11.781942672170706"><ele>53.0</ele><time>2026-04-27T07:52:33.001Z</time></trkpt><trkpt lat="42.319066565272756" lon="11.781900340117062"><ele>51.0</ele><time>2026-04-27T07:52:34.001Z</time></trkpt><trkpt lat="42.3192922981247" lon="11.781867376773038"><ele>49.0</ele><time>2026-04-27T07:52:35.001Z</time></trkpt><trkpt lat="42.3195246491241" lon="11.78183974201398"><ele>48.5</ele><time>2026-04-27T07:52:36.001Z</time></trkpt><trkpt lat="42.31976577550289" lon="11.781815550296153"><ele>48.0</ele><time>2026-04-27T07:52:37.001Z</time></trkpt><trkpt lat="42.32001595807315" lon="11.781796854684353"><ele>48.0</ele><time>2026-04-27T07:52:38.001Z</time></trkpt><trkpt lat="42.320273275546015" lon="11.781784996445253"><ele>48.0</ele><time>2026-04-27T07:52:39.001Z</time></trkpt><trkpt lat="42.32053388990582" lon="11.781774909435637"><ele>49.5</ele><time>2026-04-27T07:52:40.001Z</time></trkpt><trkpt lat="42.32079594051433" lon="11.781765929110152"><ele>51.0</ele><time>2026-04-27T07:52:41.001Z</time></trkpt><trkpt lat="42.3210576351031" lon="11.781759481099362"><ele>51.0</ele><time>2026-04-27T07:52:42.001Z</time></trkpt><trkpt lat="42.32131730078588" lon="11.781750790541567"><ele>51.0</ele><time>2026-04-27T07:52:43.001Z</time></trkpt><trkpt lat="42.321578414753404" lon="11.781739729049937"><ele>52.0</ele><time>2026-04-27T07:52:44.001Z</time></trkpt><trkpt lat="42.32184404884091" lon="11.781732519767296"><ele>53.0</ele><time>2026-04-27T07:52:45.001Z</time></trkpt><trkpt lat="42.32210671416605" lon="11.781723382589517"><ele>53.0</ele><time>2026-04-27T07:52:46.001Z</time></trkpt><trkpt lat="42.32237319948336" lon="11.781717042631895"><ele>53.0</ele><time>2026-04-27T07:52:47.001Z</time></trkpt><trkpt lat="42.32263202769663" lon="11.781735595249607"><ele>53.0</ele><time>2026-04-27T07:52:48.001Z</time></trkpt><trkpt lat="42.32289699158422" lon="11.78170574717861"><ele>53.0</ele><time>2026-04-27T07:52:49.001Z</time></trkpt><trkpt lat="42.3231573319523" lon="11.781703541303271"><ele>52.0</ele><time>2026-04-27T07:52:50.001Z</time></trkpt><trkpt lat="42.32341315240109" lon="11.781698248171645"><ele>51.0</ele><time>2026-04-27T07:52:51.001Z</time></trkpt><trkpt lat="42.32366874167756" lon="11.781690732646867"><ele>52.0</ele><time>2026-04-27T07:52:52.001Z</time></trkpt><trkpt lat="42.32392617123721" lon="11.781685439277574"><ele>53.0</ele><time>2026-04-27T07:52:53.001Z</time></trkpt><trkpt lat="42.324185005092126" lon="11.78167888778024"><ele>53.0</ele><time>2026-04-27T07:52:54.001Z</time></trkpt><trkpt lat="42.32443402985304" lon="11.7816749129789"><ele>53.0</ele><time>2026-04-27T07:52:55.001Z</time></trkpt><trkpt lat="42.324686170080625" lon="11.78167180661153"><ele>54.5</ele><time>2026-04-27T07:52:56.001Z</time></trkpt><trkpt lat="42.32493129225365" lon="11.781665569166329"><ele>56.0</ele><time>2026-04-27T07:52:57.001Z</time></trkpt><trkpt lat="42.32519186293861" lon="11.781659104256189"><ele>56.0</ele><time>2026-04-27T07:52:58.001Z</time></trkpt><trkpt lat="42.325444411862286" lon="11.78165117902027"><ele>56.0</ele><time>2026-04-27T07:52:59.001Z</time></trkpt><trkpt lat="42.325697832876365" lon="11.781638836757761"><ele>56.5</ele><time>2026-04-27T07:53:00.001Z</time></trkpt><trkpt lat="42.325948842477636" lon="11.78162269439062"><ele>57.0</ele><time>2026-04-27T07:53:01.001Z</time></trkpt><trkpt lat="42.32619985884702" lon="11.781601706252435"><ele>58.0</ele><time>2026-04-27T07:53:02.001Z</time></trkpt><trkpt lat="42.326450940072945" lon="11.781571154904023"><ele>59.0</ele><time>2026-04-27T07:53:03.001Z</time></trkpt><trkpt lat="42.326699587411355" lon="11.781524335498018"><ele>59.0</ele><time>2026-04-27T07:53:04.001Z</time></trkpt><trkpt lat="42.32694432546239" lon="11.781466893373498"><ele>59.0</ele><time>2026-04-27T07:53:05.001Z</time></trkpt><trkpt lat="42.327178211923545" lon="11.781415342573112"><ele>64.0</ele><time>2026-04-27T07:53:06.001Z</time></trkpt><trkpt lat="42.327395486265395" lon="11.781353655003658"><ele>69.0</ele><time>2026-04-27T07:53:07.001Z</time></trkpt><trkpt lat="42.32761822839791" lon="11.781296693830997"><ele>74.0</ele><time>2026-04-27T07:53:08.001Z</time></trkpt><trkpt lat="42.32781241417866" lon="11.78124765811137"><ele>74.0</ele><time>2026-04-27T07:53:09.001Z</time></trkpt><trkpt lat="42.328020938911" lon="11.78119437415564"><ele>74.0</ele><time>2026-04-27T07:53:10.001Z</time></trkpt><trkpt lat="42.32823350619306" lon="11.781154275911907"><ele>74.0</ele><time>2026-04-27T07:53:11.001Z</time></trkpt><trkpt lat="42.32844587142764" lon="11.78111037842205"><ele>76.33333333333334</ele><time>2026-04-27T07:53:12.001Z</time></trkpt><trkpt lat="42.328657941051716" lon="11.781067918778538"><ele>78.66666666666667</ele><time>2026-04-27T07:53:13.001Z</time></trkpt><trkpt lat="42.32887576138129" lon="11.781042614925852"><ele>81.0</ele><time>2026-04-27T07:53:14.001Z</time></trkpt><trkpt lat="42.32909310245317" lon="11.781068693616152"><ele>81.0</ele><time>2026-04-27T07:53:15.001Z</time></trkpt><trkpt lat="42.32931508591172" lon="11.78106834882389"><ele>81.0</ele><time>2026-04-27T07:53:16.001Z</time></trkpt><trkpt lat="42.32954312914878" lon="11.781094968031043"><ele>112.0</ele><time>2026-04-27T07:53:17.001Z</time></trkpt><trkpt lat="42.340839279977445" lon="11.778074135904136"><ele>112.0</ele><time>2026-04-27T07:54:18.001Z</time></trkpt><trkpt lat="42.34100406065476" lon="11.778192665234098"><ele>112.0</ele><time>2026-04-27T07:54:19.001Z</time></trkpt><trkpt lat="42.341169476729355" lon="11.778318693235702"><ele>112.0</ele><time>2026-04-27T07:54:20.001Z</time></trkpt><trkpt lat="42.34133837788192" lon="11.778457904590592"><ele>114.0</ele><time>2026-04-27T07:54:21.001Z</time></trkpt><trkpt lat="42.34150372472078" lon="11.77861084230669"><ele>116.0</ele><time>2026-04-27T07:54:22.001Z</time></trkpt><trkpt lat="42.341668931358114" lon="11.778771164709957"><ele>118.0</ele><time>2026-04-27T07:54:23.001Z</time></trkpt><trkpt lat="42.34183033231177" lon="11.778948297301843"><ele>118.0</ele><time>2026-04-27T07:54:24.001Z</time></trkpt><trkpt lat="42.341990184239435" lon="11.77914216784122"><ele>118.0</ele><time>2026-04-27T07:54:25.001Z</time></trkpt><trkpt lat="42.34213904080313" lon="11.779369236674135"><ele>118.0</ele><time>2026-04-27T07:54:26.001Z</time></trkpt><trkpt lat="42.34231281694651" lon="11.779576499426918"><ele>118.0</ele><time>2026-04-27T07:54:27.001Z</time></trkpt><trkpt lat="42.342480922811916" lon="11.779806125671998"><ele>118.0</ele><time>2026-04-27T07:54:28.001Z</time></trkpt><trkpt lat="42.34265575207667" lon="11.78003916747664"><ele>119.5</ele><time>2026-04-27T07:54:29.001Z</time></trkpt><trkpt lat="42.34283156727491" lon="11.780272408243086"><ele>121.0</ele><time>2026-04-27T07:54:30.001Z</time></trkpt><trkpt lat="42.34300570861522" lon="11.780500054037045"><ele>121.0</ele><time>2026-04-27T07:54:31.001Z</time></trkpt><trkpt lat="42.34316841797537" lon="11.780733720633567"><ele>121.0</ele><time>2026-04-27T07:54:32.001Z</time></trkpt><trkpt lat="42.34334500515215" lon="11.780946113094586"><ele>121.0</ele><time>2026-04-27T07:54:33.001Z</time></trkpt><trkpt lat="42.34353606995468" lon="11.781130436744098"><ele>121.0</ele><time>2026-04-27T07:54:34.001Z</time></trkpt><trkpt lat="42.3437245380303" lon="11.781316077189551"><ele>122.0</ele><time>2026-04-27T07:54:35.001Z</time></trkpt><trkpt lat="42.34391940430101" lon="11.781496578633362"><ele>123.0</ele><time>2026-04-27T07:54:36.001Z</time></trkpt><trkpt lat="42.344117247584364" lon="11.781675740215189"><ele>123.0</ele><time>2026-04-27T07:54:37.001Z</time></trkpt><trkpt lat="42.344325460731575" lon="11.781844648728637"><ele>123.0</ele><time>2026-04-27T07:54:38.001Z</time></trkpt><trkpt lat="42.34454165060912" lon="11.782003807760073"><ele>125.5</ele><time>2026-04-27T07:54:39.001Z</time></trkpt><trkpt lat="42.34476270568156" lon="11.782155178861895"><ele>128.0</ele><time>2026-04-27T07:54:40.001Z</time></trkpt><trkpt lat="42.34498286713824" lon="11.782306264447856"><ele>128.0</ele><time>2026-04-27T07:54:41.001Z</time></trkpt><trkpt lat="42.345202638458346" lon="11.78246063418223"><ele>128.0</ele><time>2026-04-27T07:54:42.001Z</time></trkpt><trkpt lat="42.34542190900229" lon="11.782617191855167"><ele>129.5</ele><time>2026-04-27T07:54:43.001Z</time></trkpt><trkpt lat="42.3456333855181" lon="11.782764002371447"><ele>131.0</ele><time>2026-04-27T07:54:44.001Z</time></trkpt><trkpt lat="42.345841760291655" lon="11.782916828678083"><ele>131.0</ele><time>2026-04-27T07:54:45.001Z</time></trkpt><trkpt lat="42.3460482075582" lon="11.783071791762813"><ele>131.0</ele><time>2026-04-27T07:54:46.001Z</time></trkpt><trkpt lat="42.34624196642356" lon="11.783238145176957"><ele>130.0</ele><time>2026-04-27T07:54:47.001Z</time></trkpt><trkpt lat="42.34643353048742" lon="11.78342100015922"><ele>129.0</ele><time>2026-04-27T07:54:48.001Z</time></trkpt><trkpt lat="42.34662216998075" lon="11.783614546067493"><ele>130.66666666666666</ele><time>2026-04-27T07:54:49.001Z</time></trkpt><trkpt lat="42.34679473118918" lon="11.783814152379483"><ele>132.33333333333331</ele><time>2026-04-27T07:54:50.001Z</time></trkpt><trkpt lat="42.346951781155106" lon="11.784018018690892"><ele>134.0</ele><time>2026-04-27T07:54:51.001Z</time></trkpt><trkpt lat="42.347115738354574" lon="11.784228679014205"><ele>136.0</ele><time>2026-04-27T07:54:52.001Z</time></trkpt><trkpt lat="42.34728306945467" lon="11.784446709044547"><ele>138.0</ele><time>2026-04-27T07:54:53.001Z</time></trkpt><trkpt lat="42.34745201184829" lon="11.784669478851962"><ele>138.0</ele><time>2026-04-27T07:54:54.001Z</time></trkpt><trkpt lat="42.347619319049066" lon="11.784896617703799"><ele>138.0</ele><time>2026-04-27T07:54:55.001Z</time></trkpt><trkpt lat="42.347788757789516" lon="11.785121383595712"><ele>139.5</ele><time>2026-04-27T07:54:56.001Z</time></trkpt><trkpt lat="42.347958601776625" lon="11.78534481813005"><ele>141.0</ele><time>2026-04-27T07:54:57.001Z</time></trkpt><trkpt lat="42.348134163262564" lon="11.785570626186859"><ele>141.0</ele><time>2026-04-27T07:54:58.001Z</time></trkpt><trkpt lat="42.34830875571715" lon="11.785800318315012"><ele>141.0</ele><time>2026-04-27T07:54:59.001Z</time></trkpt><trkpt lat="42.34848142530144" lon="11.786024665217731"><ele>144.0</ele><time>2026-04-27T07:55:00.001Z</time></trkpt><trkpt lat="42.34865073434528" lon="11.786244130486141"><ele>147.0</ele><time>2026-04-27T07:55:01.001Z</time></trkpt><trkpt lat="42.34882162352116" lon="11.786463484109033"><ele>147.5</ele><time>2026-04-27T07:55:02.001Z</time></trkpt><trkpt lat="42.3489959060116" lon="11.786689398430141"><ele>148.0</ele><time>2026-04-27T07:55:03.001Z</time></trkpt><trkpt lat="42.34916973570629" lon="11.78692281225882"><ele>148.0</ele><time>2026-04-27T07:55:04.001Z</time></trkpt><trkpt lat="42.349346063386484" lon="11.787159065397491"><ele>148.0</ele><time>2026-04-27T07:55:05.001Z</time></trkpt><trkpt lat="42.34952345074339" lon="11.787393863972195"><ele>148.0</ele><time>2026-04-27T07:55:06.001Z</time></trkpt><trkpt lat="42.34969732818254" lon="11.787634611409358"><ele>148.0</ele><time>2026-04-27T07:55:07.001Z</time></trkpt><trkpt lat="42.3498789863955" lon="11.787867972454983"><ele>146.5</ele><time>2026-04-27T07:55:08.001Z</time></trkpt><trkpt lat="42.350058575343716" lon="11.788099938473886"><ele>145.0</ele><time>2026-04-27T07:55:09.001Z</time></trkpt><trkpt lat="42.35023589546662" lon="11.788332646695471"><ele>146.0</ele><time>2026-04-27T07:55:10.001Z</time></trkpt><trkpt lat="42.35041250642313" lon="11.788564663249371"><ele>147.0</ele><time>2026-04-27T07:55:11.001Z</time></trkpt><trkpt lat="42.350587209970875" lon="11.788795337711164"><ele>148.5</ele><time>2026-04-27T07:55:12.001Z</time></trkpt><trkpt lat="42.35076145528969" lon="11.789023845730389"><ele>150.0</ele><time>2026-04-27T07:55:13.001Z</time></trkpt><trkpt lat="42.35093342710642" lon="11.789250574270767"><ele>150.5</ele><time>2026-04-27T07:55:14.001Z</time></trkpt><trkpt lat="42.351105967551284" lon="11.78947501326798"><ele>151.0</ele><time>2026-04-27T07:55:15.001Z</time></trkpt><trkpt lat="42.35128195010527" lon="11.789699505939788"><ele>152.0</ele><time>2026-04-27T07:55:16.001Z</time></trkpt><trkpt lat="42.35146154415854" lon="11.789929003301696"><ele>153.0</ele><time>2026-04-27T07:55:17.001Z</time></trkpt><trkpt lat="42.358419147168725" lon="11.807111018967609"><ele>149.5</ele><time>2026-04-27T07:56:21.311Z</time></trkpt><trkpt lat="42.35861617597139" lon="11.807246119487779"><ele>146.0</ele><time>2026-04-27T07:56:22.981Z</time></trkpt><trkpt lat="42.35912076667171" lon="11.808700114499599"><ele>146.0</ele><time>2026-04-27T07:56:25.985Z</time></trkpt><trkpt lat="42.359670996705404" lon="11.808724254380733"><ele>145.0</ele><time>2026-04-27T07:56:27.278Z</time></trkpt><trkpt lat="42.359956400508395" lon="11.808804133917958"><ele>144.0</ele><time>2026-04-27T07:56:28.277Z</time></trkpt><trkpt lat="42.360218837896696" lon="11.808902872737319"><ele>144.0</ele><time>2026-04-27T07:56:29.282Z</time></trkpt><trkpt lat="42.36047515649568" lon="11.809015693154008"><ele>144.0</ele><time>2026-04-27T07:56:30.281Z</time></trkpt><trkpt lat="42.36073319338482" lon="11.809128010656506"><ele>143.33333333333334</ele><time>2026-04-27T07:56:31.283Z</time></trkpt><trkpt lat="42.36099412203055" lon="11.809224318723947"><ele>142.66666666666669</ele><time>2026-04-27T07:56:32.286Z</time></trkpt><trkpt lat="42.36115383919548" lon="11.809306377555997"><ele>142.0</ele><time>2026-04-27T07:56:33.288Z</time></trkpt><trkpt lat="42.36140852332335" lon="11.809409055869848"><ele>140.5</ele><time>2026-04-27T07:56:34.019Z</time></trkpt><trkpt lat="42.36165381971966" lon="11.809512153278858"><ele>139.0</ele><time>2026-04-27T07:56:35.021Z</time></trkpt><trkpt lat="42.36189517662149" lon="11.809616927068502"><ele>139.0</ele><time>2026-04-27T07:56:36.022Z</time></trkpt><trkpt lat="42.362134982871225" lon="11.809721784677178"><ele>139.0</ele><time>2026-04-27T07:56:37.022Z</time></trkpt><trkpt lat="42.36237068198841" lon="11.809824127714903"><ele>139.5</ele><time>2026-04-27T07:56:38.025Z</time></trkpt><trkpt lat="42.36260364063911" lon="11.809927900238462"><ele>140.0</ele><time>2026-04-27T07:56:39.021Z</time></trkpt><trkpt lat="42.3628388351991" lon="11.810035096059257"><ele>140.0</ele><time>2026-04-27T07:56:40.024Z</time></trkpt><trkpt lat="42.36307212385598" lon="11.810141591849089"><ele>140.0</ele><time>2026-04-27T07:56:41.026Z</time></trkpt><trkpt lat="42.36331109850351" lon="11.810242821830267"><ele>139.0</ele><time>2026-04-27T07:56:42.023Z</time></trkpt><trkpt lat="42.363544683315936" lon="11.810341933152005"><ele>138.0</ele><time>2026-04-27T07:56:43.026Z</time></trkpt><trkpt lat="42.36377432413193" lon="11.810439486236964"><ele>137.5</ele><time>2026-04-27T07:56:44.019Z</time></trkpt><trkpt lat="42.36401094989584" lon="11.810542662595909"><ele>137.0</ele><time>2026-04-27T07:56:45.027Z</time></trkpt><trkpt lat="42.364245766042764" lon="11.810646103438206"><ele>137.0</ele><time>2026-04-27T07:56:46.021Z</time></trkpt><trkpt lat="42.36448940340363" lon="11.810750345462779"><ele>137.0</ele><time>2026-04-27T07:56:47.026Z</time></trkpt><trkpt lat="42.36472982851234" lon="11.810856526945365"><ele>137.0</ele><time>2026-04-27T07:56:48.023Z</time></trkpt><trkpt lat="42.36497461876314" lon="11.810964516906903"><ele>137.0</ele><time>2026-04-27T07:56:49.027Z</time></trkpt><trkpt lat="42.365219506737155" lon="11.81106325381882"><ele>137.0</ele><time>2026-04-27T07:56:50.026Z</time></trkpt><trkpt lat="42.36545888327933" lon="11.811164606850145"><ele>137.0</ele><time>2026-04-27T07:56:51.021Z</time></trkpt><trkpt lat="42.36569572618013" lon="11.811270746139767"><ele>137.0</ele><time>2026-04-27T07:56:52.027Z</time></trkpt><trkpt lat="42.3659272693841" lon="11.81137404820428"><ele>137.0</ele><time>2026-04-27T07:56:53.024Z</time></trkpt><trkpt lat="42.366159085804966" lon="11.811472641585251"><ele>136.5</ele><time>2026-04-27T07:56:54.025Z</time></trkpt><trkpt lat="42.366388938264635" lon="11.811569623065795"><ele>136.0</ele><time>2026-04-27T07:56:55.023Z</time></trkpt><trkpt lat="42.366622313088136" lon="11.811668191281422"><ele>136.0</ele><time>2026-04-27T07:56:56.024Z</time></trkpt><trkpt lat="42.366854695621505" lon="11.811782888106857"><ele>136.0</ele><time>2026-04-27T07:56:57.023Z</time></trkpt><trkpt lat="42.367101168986764" lon="11.811881779176113"><ele>136.5</ele><time>2026-04-27T07:56:58.023Z</time></trkpt><trkpt lat="42.36732301453347" lon="11.812001751484434"><ele>137.0</ele><time>2026-04-27T07:56:59.02Z</time></trkpt><trkpt lat="42.36756762274614" lon="11.812108199966147"><ele>137.0</ele><time>2026-04-27T07:57:00.021Z</time></trkpt><trkpt lat="42.36781289114643" lon="11.812213012217914"><ele>137.0</ele><time>2026-04-27T07:57:01.023Z</time></trkpt><trkpt lat="42.36804663919381" lon="11.812311839189066"><ele>138.0</ele><time>2026-04-27T07:57:02.024Z</time></trkpt><trkpt lat="42.368280798259505" lon="11.812414104453076"><ele>139.0</ele><time>2026-04-27T07:57:03.023Z</time></trkpt><trkpt lat="42.368520354070036" lon="11.812518409469616"><ele>139.0</ele><time>2026-04-27T07:57:04.023Z</time></trkpt><trkpt lat="42.3687664271823" lon="11.812626026294335"><ele>139.0</ele><time>2026-04-27T07:57:05.025Z</time></trkpt><trkpt lat="42.36901246805133" lon="11.812733466927149"><ele>138.5</ele><time>2026-04-27T07:57:06.024Z</time></trkpt><trkpt lat="42.369260790630555" lon="11.812841882549314"><ele>138.0</ele><time>2026-04-27T07:57:07.02Z</time></trkpt><trkpt lat="42.36951202480365" lon="11.812949365105426"><ele>136.0</ele><time>2026-04-27T07:57:08.019Z</time></trkpt><trkpt lat="42.369762916394976" lon="11.813055176732513"><ele>134.0</ele><time>2026-04-27T07:57:09.021Z</time></trkpt><trkpt lat="42.37001112796999" lon="11.813159752601756"><ele>134.0</ele><time>2026-04-27T07:57:10.021Z</time></trkpt><trkpt lat="42.37025823674399" lon="11.813264652236523"><ele>134.0</ele><time>2026-04-27T07:57:11.021Z</time></trkpt><trkpt lat="42.370504705532724" lon="11.813369225735782"><ele>133.0</ele><time>2026-04-27T07:57:12.02Z</time></trkpt><trkpt lat="42.37074382507855" lon="11.813474213680127"><ele>132.0</ele><time>2026-04-27T07:57:13.019Z</time></trkpt><trkpt lat="42.3709845409382" lon="11.81357727345176"><ele>132.0</ele><time>2026-04-27T07:57:14.024Z</time></trkpt><trkpt lat="42.37122328709041" lon="11.813681932496909"><ele>132.0</ele><time>2026-04-27T07:57:15.023Z</time></trkpt><trkpt lat="42.37146072451407" lon="11.813787184191957"><ele>131.5</ele><time>2026-04-27T07:57:16.023Z</time></trkpt><trkpt lat="42.37169827191464" lon="11.813890749752959"><ele>131.0</ele><time>2026-04-27T07:57:17.026Z</time></trkpt><trkpt lat="42.383641211053444" lon="11.82446618312562"><ele>136.5</ele><time>2026-04-27T07:58:18.024Z</time></trkpt><trkpt lat="42.38384139388935" lon="11.824631574904604"><ele>142.0</ele><time>2026-04-27T07:58:19.025Z</time></trkpt><trkpt lat="42.384043095041676" lon="11.824794966849492"><ele>143.0</ele><time>2026-04-27T07:58:20.026Z</time></trkpt><trkpt lat="42.384243551376876" lon="11.824957694991854"><ele>144.0</ele><time>2026-04-27T07:58:21.025Z</time></trkpt><trkpt lat="42.38443930185713" lon="11.82511850205529"><ele>144.0</ele><time>2026-04-27T07:58:22.024Z</time></trkpt><trkpt lat="42.38463494360623" lon="11.825274196407447"><ele>144.0</ele><time>2026-04-27T07:58:23.026Z</time></trkpt><trkpt lat="42.38481556705398" lon="11.8254109248833"><ele>144.0</ele><time>2026-04-27T07:58:24.024Z</time></trkpt><trkpt lat="42.385003670706546" lon="11.825556740378568"><ele>144.5</ele><time>2026-04-27T07:58:25.021Z</time></trkpt><trkpt lat="42.38520070857155" lon="11.825712346506842"><ele>145.0</ele><time>2026-04-27T07:58:26.024Z</time></trkpt><trkpt lat="42.38540171741718" lon="11.825873509436745"><ele>144.5</ele><time>2026-04-27T07:58:27.021Z</time></trkpt><trkpt lat="42.38560869171257" lon="11.826041833325664"><ele>144.0</ele><time>2026-04-27T07:58:28.021Z</time></trkpt><trkpt lat="42.38581323032899" lon="11.826211197221994"><ele>144.0</ele><time>2026-04-27T07:58:29.021Z</time></trkpt><trkpt lat="42.38602081648975" lon="11.826388453928033"><ele>144.0</ele><time>2026-04-27T07:58:30.022Z</time></trkpt><trkpt lat="42.386228209765974" lon="11.826570080635523"><ele>145.0</ele><time>2026-04-27T07:58:31.021Z</time></trkpt><trkpt lat="42.386441001948135" lon="11.82675133819057"><ele>146.0</ele><time>2026-04-27T07:58:32.025Z</time></trkpt><trkpt lat="42.3866578952469" lon="11.826934315215324"><ele>146.0</ele><time>2026-04-27T07:58:33.021Z</time></trkpt><trkpt lat="42.386874289382675" lon="11.82711208717422"><ele>146.0</ele><time>2026-04-27T07:58:34.022Z</time></trkpt><trkpt lat="42.38708953606561" lon="11.827289878459515"><ele>147.5</ele><time>2026-04-27T07:58:35.026Z</time></trkpt><trkpt lat="42.38730171537241" lon="11.827467202649338"><ele>149.0</ele><time>2026-04-27T07:58:36.024Z</time></trkpt><trkpt lat="42.38751403202889" lon="11.827640989587898"><ele>147.5</ele><time>2026-04-27T07:58:37.025Z</time></trkpt><trkpt lat="42.387722164496815" lon="11.827807630603129"><ele>146.0</ele><time>2026-04-27T07:58:38Z</time></trkpt><trkpt lat="42.387934710039616" lon="11.827985464969663"><ele>146.0</ele><time>2026-04-27T07:58:39Z</time></trkpt><trkpt lat="42.388146823587654" lon="11.828162393491032"><ele>146.0</ele><time>2026-04-27T07:58:40Z</time></trkpt><trkpt lat="42.38836193624565" lon="11.828338821942511"><ele>146.0</ele><time>2026-04-27T07:58:41Z</time></trkpt><trkpt lat="42.38857498849547" lon="11.828517706916646"><ele>146.0</ele><time>2026-04-27T07:58:42Z</time></trkpt><trkpt lat="42.38879301427818" lon="11.828682759270386"><ele>147.5</ele><time>2026-04-27T07:58:43Z</time></trkpt><trkpt lat="42.389003901060455" lon="11.828852312882145"><ele>149.0</ele><time>2026-04-27T07:58:44Z</time></trkpt><trkpt lat="42.3892163719662" lon="11.829023752287032"><ele>149.0</ele><time>2026-04-27T07:58:45Z</time></trkpt><trkpt lat="42.38942999560071" lon="11.829195512145857"><ele>149.0</ele><time>2026-04-27T07:58:46Z</time></trkpt><trkpt lat="42.38963717219417" lon="11.829366462181886"><ele>149.5</ele><time>2026-04-27T07:58:47Z</time></trkpt><trkpt lat="42.38984371519997" lon="11.829540029515865"><ele>150.0</ele><time>2026-04-27T07:58:48Z</time></trkpt><trkpt lat="42.39005764158633" lon="11.829707270901189"><ele>150.0</ele><time>2026-04-27T07:58:49Z</time></trkpt><trkpt lat="42.39026158575189" lon="11.829879345692637"><ele>150.0</ele><time>2026-04-27T07:58:50Z</time></trkpt><trkpt lat="42.39046685699905" lon="11.830048230015564"><ele>150.0</ele><time>2026-04-27T07:58:51Z</time></trkpt><trkpt lat="42.390678291155936" lon="11.830218980046055"><ele>150.0</ele><time>2026-04-27T07:58:52Z</time></trkpt><trkpt lat="42.39088427840355" lon="11.830387777135341"><ele>150.0</ele><time>2026-04-27T07:58:53Z</time></trkpt><trkpt lat="42.39108730080415" lon="11.830548924701539"><ele>150.0</ele><time>2026-04-27T07:58:54Z</time></trkpt><trkpt lat="42.39127646858651" lon="11.830706132265007"><ele>149.66666666666666</ele><time>2026-04-27T07:58:55Z</time></trkpt><trkpt lat="42.39145894994406" lon="11.830827701403768"><ele>149.33333333333331</ele><time>2026-04-27T07:58:56Z</time></trkpt><trkpt lat="42.39164344120386" lon="11.830956926190986"><ele>149.0</ele><time>2026-04-27T07:58:57Z</time></trkpt><trkpt lat="42.39183022706601" lon="11.831049122726558"><ele>149.0</ele><time>2026-04-27T07:58:58Z</time></trkpt><trkpt lat="42.39202304558152" lon="11.831133950907287"><ele>149.0</ele><time>2026-04-27T07:58:59Z</time></trkpt><trkpt lat="42.3922212445903" lon="11.831210729111094"><ele>149.0</ele><time>2026-04-27T07:59:00Z</time></trkpt><trkpt lat="42.39241765167269" lon="11.831294962288007"><ele>150.33333333333331</ele><time>2026-04-27T07:59:01Z</time></trkpt><trkpt lat="42.39261426909527" lon="11.831388706887852"><ele>151.66666666666666</ele><time>2026-04-27T07:59:02Z</time></trkpt><trkpt lat="42.39280989071856" lon="11.831482954796275"><ele>153.0</ele><time>2026-04-27T07:59:03Z</time></trkpt><trkpt lat="42.393010451311795" lon="11.83157161961881"><ele>153.0</ele><time>2026-04-27T07:59:04Z</time></trkpt><trkpt lat="42.39321586740566" lon="11.831660742891827"><ele>153.0</ele><time>2026-04-27T07:59:05Z</time></trkpt><trkpt lat="42.39341609710741" lon="11.831749339701876"><ele>153.0</ele><time>2026-04-27T07:59:06Z</time></trkpt><trkpt lat="42.39361986713239" lon="11.831835011996944"><ele>153.0</ele><time>2026-04-27T07:59:07Z</time></trkpt><trkpt lat="42.39381404858698" lon="11.83191672324982"><ele>153.0</ele><time>2026-04-27T07:59:08Z</time></trkpt><trkpt lat="42.39399039993104" lon="11.832003292582591"><ele>153.0</ele><time>2026-04-27T07:59:09Z</time></trkpt><trkpt lat="42.394160980285776" lon="11.832080322414813"><ele>153.33333333333334</ele><time>2026-04-27T07:59:10Z</time></trkpt><trkpt lat="42.39432388852584" lon="11.83213751386962"><ele>153.66666666666669</ele><time>2026-04-27T07:59:11Z</time></trkpt><trkpt lat="42.39448240633018" lon="11.832208809389108"><ele>154.0</ele><time>2026-04-27T07:59:12Z</time></trkpt><trkpt lat="42.394633911160625" lon="11.832264248142975"><ele>154.0</ele><time>2026-04-27T07:59:13Z</time></trkpt><trkpt lat="42.394790591671054" lon="11.832328884327284"><ele>154.0</ele><time>2026-04-27T07:59:14Z</time></trkpt><trkpt lat="42.394941601961605" lon="11.832391671492722"><ele>154.0</ele><time>2026-04-27T07:59:15Z</time></trkpt><trkpt lat="42.39509433907082" lon="11.832449815951097"><ele>154.0</ele><time>2026-04-27T07:59:16Z</time></trkpt><trkpt lat="42.395247104674915" lon="11.83253830212801"><ele>154.0</ele><time>2026-04-27T07:59:17Z</time></trkpt><trkpt lat="42.40467970311297" lon="11.841611329349297"><ele>158.66666666666669</ele><time>2026-04-27T08:00:18Z</time></trkpt><trkpt lat="42.40485213623238" lon="11.84177366083976"><ele>163.33333333333334</ele><time>2026-04-27T08:00:19Z</time></trkpt><trkpt lat="42.405018660085595" lon="11.841952713988272"><ele>168.0</ele><time>2026-04-27T08:00:20Z</time></trkpt><trkpt lat="42.4051830955401" lon="11.842142573049314"><ele>168.33333333333334</ele><time>2026-04-27T08:00:21Z</time></trkpt><trkpt lat="42.40534484728027" lon="11.842347454435668"><ele>168.66666666666669</ele><time>2026-04-27T08:00:22Z</time></trkpt><trkpt lat="42.405498040082506" lon="11.842565424150843"><ele>169.0</ele><time>2026-04-27T08:00:23Z</time></trkpt><trkpt lat="42.4056372664659" lon="11.842780617580937"><ele>169.33333333333334</ele><time>2026-04-27T08:00:24Z</time></trkpt><trkpt lat="42.405755953968104" lon="11.843004575732408"><ele>169.66666666666666</ele><time>2026-04-27T08:00:25Z</time></trkpt><trkpt lat="42.40586366310342" lon="11.843236894605871"><ele>170.0</ele><time>2026-04-27T08:00:26Z</time></trkpt><trkpt lat="42.40596686904806" lon="11.843484714127335"><ele>170.0</ele><time>2026-04-27T08:00:27Z</time></trkpt><trkpt lat="42.40607167261944" lon="11.843738488009135"><ele>170.0</ele><time>2026-04-27T08:00:28Z</time></trkpt><trkpt lat="42.406172167791176" lon="11.844002800400027"><ele>170.0</ele><time>2026-04-27T08:00:29Z</time></trkpt><trkpt lat="42.40628000498678" lon="11.844264060598688"><ele>170.33333333333331</ele><time>2026-04-27T08:00:30Z</time></trkpt><trkpt lat="42.406380709642804" lon="11.844524234431088"><ele>170.66666666666666</ele><time>2026-04-27T08:00:31Z</time></trkpt><trkpt lat="42.4064754396889" lon="11.844761032120253"><ele>171.0</ele><time>2026-04-27T08:00:32Z</time></trkpt><trkpt lat="42.40656639849447" lon="11.84498548841098"><ele>171.0</ele><time>2026-04-27T08:00:33Z</time></trkpt><trkpt lat="42.40666056501595" lon="11.845200579424196"><ele>171.0</ele><time>2026-04-27T08:00:34Z</time></trkpt><trkpt lat="42.406769970896576" lon="11.845404310548792"><ele>171.0</ele><time>2026-04-27T08:00:35Z</time></trkpt><trkpt lat="42.40688044466927" lon="11.845597260560037"><ele>171.0</ele><time>2026-04-27T08:00:36Z</time></trkpt><trkpt lat="42.40703127577312" lon="11.845767636461682"><ele>171.0</ele><time>2026-04-27T08:00:37Z</time></trkpt><trkpt lat="42.4071926335927" lon="11.84592748547158"><ele>171.0</ele><time>2026-04-27T08:00:38Z</time></trkpt><trkpt lat="42.407364465866586" lon="11.846085513800826"><ele>171.66666666666666</ele><time>2026-04-27T08:00:39Z</time></trkpt><trkpt lat="42.40754477530178" lon="11.846250840803826"><ele>172.33333333333331</ele><time>2026-04-27T08:00:40Z</time></trkpt><trkpt lat="42.40773543789693" lon="11.846423455216446"><ele>173.0</ele><time>2026-04-27T08:00:41Z</time></trkpt><trkpt lat="42.40793241364799" lon="11.846605966605429"><ele>173.5</ele><time>2026-04-27T08:00:42Z</time></trkpt><trkpt lat="42.40813544604487" lon="11.846796163463338"><ele>174.0</ele><time>2026-04-27T08:00:43Z</time></trkpt><trkpt lat="42.408340484592166" lon="11.846995989769525"><ele>174.0</ele><time>2026-04-27T08:00:44Z</time></trkpt><trkpt lat="42.40855468917059" lon="11.847191816552888"><ele>174.0</ele><time>2026-04-27T08:00:45Z</time></trkpt><trkpt lat="42.4087709598703" lon="11.847384788300642"><ele>174.0</ele><time>2026-04-27T08:00:46Z</time></trkpt><trkpt lat="42.40898694835372" lon="11.847583347449138"><ele>174.0</ele><time>2026-04-27T08:00:47Z</time></trkpt><trkpt lat="42.40920218678967" lon="11.847785716948636"><ele>174.0</ele><time>2026-04-27T08:00:48Z</time></trkpt><trkpt lat="42.409415776782026" lon="11.847980057098471"><ele>174.0</ele><time>2026-04-27T08:00:49Z</time></trkpt><trkpt lat="42.4096255418086" lon="11.848171777721452"><ele>174.0</ele><time>2026-04-27T08:00:50Z</time></trkpt><trkpt lat="42.40983386352576" lon="11.84836191571991"><ele>174.0</ele><time>2026-04-27T08:00:51Z</time></trkpt><trkpt lat="42.41003391225171" lon="11.848547751514817"><ele>174.5</ele><time>2026-04-27T08:00:52Z</time></trkpt><trkpt lat="42.41022219988229" lon="11.848724205577327"><ele>175.0</ele><time>2026-04-27T08:00:53Z</time></trkpt><trkpt lat="42.41040710675554" lon="11.8489027372455"><ele>175.0</ele><time>2026-04-27T08:00:54Z</time></trkpt><trkpt lat="42.41058702192431" lon="11.849076409296366"><ele>175.0</ele><time>2026-04-27T08:00:55Z</time></trkpt><trkpt lat="42.410761241235306" lon="11.849249481683158"><ele>175.0</ele><time>2026-04-27T08:00:56Z</time></trkpt><trkpt lat="42.41092191783415" lon="11.849423011192687"><ele>175.0</ele><time>2026-04-27T08:00:57Z</time></trkpt><trkpt lat="42.411078134394906" lon="11.849602658744327"><ele>175.0</ele><time>2026-04-27T08:00:58Z</time></trkpt><trkpt lat="42.411227828935836" lon="11.849784673780247"><ele>175.0</ele><time>2026-04-27T08:00:59Z</time></trkpt><trkpt lat="42.4113771273354" lon="11.849966324818947"><ele>175.33333333333334</ele><time>2026-04-27T08:01:00Z</time></trkpt><trkpt lat="42.4115299830436" lon="11.850147115063537"><ele>175.66666666666666</ele><time>2026-04-27T08:01:01Z</time></trkpt><trkpt lat="42.41168769210367" lon="11.850331866095777"><ele>176.0</ele><time>2026-04-27T08:01:02Z</time></trkpt><trkpt lat="42.41184692135767" lon="11.850524664670132"><ele>176.0</ele><time>2026-04-27T08:01:03Z</time></trkpt><trkpt lat="42.412010603566074" lon="11.850715550157059"><ele>176.0</ele><time>2026-04-27T08:01:04Z</time></trkpt><trkpt lat="42.41217481754602" lon="11.850918302586223"><ele>176.0</ele><time>2026-04-27T08:01:05Z</time></trkpt><trkpt lat="42.412344592309765" lon="11.851120695462457"><ele>175.0</ele><time>2026-04-27T08:01:06Z</time></trkpt><trkpt lat="42.41251667185898" lon="11.851330660093593"><ele>174.0</ele><time>2026-04-27T08:01:07Z</time></trkpt><trkpt lat="42.412692168021344" lon="11.851540210366759"><ele>174.0</ele><time>2026-04-27T08:01:08Z</time></trkpt><trkpt lat="42.4128719276019" lon="11.851752048214449"><ele>174.0</ele><time>2026-04-27T08:01:09Z</time></trkpt><trkpt lat="42.41304972045418" lon="11.851959076763428"><ele>174.33333333333334</ele><time>2026-04-27T08:01:10Z</time></trkpt><trkpt lat="42.413213504976206" lon="11.852154435608716"><ele>174.66666666666669</ele><time>2026-04-27T08:01:11Z</time></trkpt><trkpt lat="42.413375297658334" lon="11.852350505760281"><ele>175.0</ele><time>2026-04-27T08:01:12Z</time></trkpt><trkpt lat="42.41353756102287" lon="11.852548681403015"><ele>175.33333333333334</ele><time>2026-04-27T08:01:13Z</time></trkpt><trkpt lat="42.41369988952004" lon="11.852745064516004"><ele>175.66666666666666</ele><time>2026-04-27T08:01:14Z</time></trkpt><trkpt lat="42.41386510876319" lon="11.85293548895683"><ele>176.0</ele><time>2026-04-27T08:01:15Z</time></trkpt><trkpt lat="42.41403076160147" lon="11.853135863908859"><ele>176.0</ele><time>2026-04-27T08:01:16Z</time></trkpt><trkpt lat="42.41419520791227" lon="11.853329912054114"><ele>176.0</ele><time>2026-04-27T08:01:17Z</time></trkpt><trkpt lat="42.41242119413846" lon="11.851142857723323"><ele>176.0</ele><time>2026-04-27T08:02:18Z</time></trkpt><trkpt lat="42.41234174196978" lon="11.851047693976314"><ele>176.0</ele><time>2026-04-27T08:02:19Z</time></trkpt><trkpt lat="42.412261378794405" lon="11.850952009389099"><ele>176.0</ele><time>2026-04-27T08:02:20Z</time></trkpt><trkpt lat="42.4121802703165" lon="11.850861460232023"><ele>176.0</ele><time>2026-04-27T08:02:21Z</time></trkpt><trkpt lat="42.41209795452821" lon="11.850767803736934"><ele>176.0</ele><time>2026-04-27T08:02:22Z</time></trkpt><trkpt lat="42.41201478959507" lon="11.850666970523038"><ele>176.0</ele><time>2026-04-27T08:02:23Z</time></trkpt><trkpt lat="42.41193196811793" lon="11.850561020629938"><ele>176.0</ele><time>2026-04-27T08:02:24Z</time></trkpt><trkpt lat="42.411844647748474" lon="11.85045984714731"><ele>176.0</ele><time>2026-04-27T08:02:25Z</time></trkpt><trkpt lat="42.41175456701992" lon="11.85035649520383"><ele>176.0</ele><time>2026-04-27T08:02:26Z</time></trkpt><trkpt lat="42.4116645362173" lon="11.85024712518169"><ele>176.0</ele><time>2026-04-27T08:02:27Z</time></trkpt><trkpt lat="42.41157290436121" lon="11.85013502994983"><ele>176.0</ele><time>2026-04-27T08:02:28Z</time></trkpt><trkpt lat="42.411477887734534" lon="11.850019572949128"><ele>176.0</ele><time>2026-04-27T08:02:29Z</time></trkpt><trkpt lat="42.411380925210956" lon="11.849902353780378"><ele>176.0</ele><time>2026-04-27T08:02:30Z</time></trkpt><trkpt lat="42.41127884346101" lon="11.849782170460202"><ele>176.0</ele><time>2026-04-27T08:02:31Z</time></trkpt><trkpt lat="42.411173186003474" lon="11.849657161440685"><ele>176.0</ele><time>2026-04-27T08:02:32Z</time></trkpt><trkpt lat="42.41106331955163" lon="11.849523768095363"><ele>176.0</ele><time>2026-04-27T08:02:33Z</time></trkpt><trkpt lat="42.41094933825984" lon="11.849393783959057"><ele>176.0</ele><time>2026-04-27T08:02:34Z</time></trkpt><trkpt lat="42.41084230893169" lon="11.84924393971025"><ele>175.66666666666666</ele><time>2026-04-27T08:02:35Z</time></trkpt><trkpt lat="42.410706886453454" lon="11.849131175328456"><ele>175.33333333333334</ele><time>2026-04-27T08:02:36Z</time></trkpt><trkpt lat="42.41057847653892" lon="11.849005514567217"><ele>175.0</ele><time>2026-04-27T08:02:37Z</time></trkpt><trkpt lat="42.41045148396927" lon="11.84888260780928"><ele>175.0</ele><time>2026-04-27T08:02:38Z</time></trkpt><trkpt lat="42.41033347262233" lon="11.848764395463103"><ele>175.0</ele><time>2026-04-27T08:02:39Z</time></trkpt><trkpt lat="42.41021847788137" lon="11.848658053881152"><ele>175.0</ele><time>2026-04-27T08:02:40Z</time></trkpt><trkpt lat="42.41009875133596" lon="11.848549468390592"><ele>175.0</ele><time>2026-04-27T08:02:41Z</time></trkpt><trkpt lat="42.40997606896819" lon="11.848437244226586"><ele>174.75</ele><time>2026-04-27T08:02:42Z</time></trkpt><trkpt lat="42.409851587610305" lon="11.84832209563461"><ele>174.5</ele><time>2026-04-27T08:02:43Z</time></trkpt><trkpt lat="42.40972097071835" lon="11.848211542271066"><ele>174.25</ele><time>2026-04-27T08:02:44Z</time></trkpt><trkpt lat="42.409617182062306" lon="11.84809416961357"><ele>174.0</ele><time>2026-04-27T08:02:45Z</time></trkpt><trkpt lat="42.40952567325197" lon="11.848010384816185"><ele>174.0</ele><time>2026-04-27T08:02:46Z</time></trkpt><trkpt lat="42.40946093825427" lon="11.847951113922884"><ele>174.0</ele><time>2026-04-27T08:02:47Z</time></trkpt><trkpt lat="42.40940154697568" lon="11.847896735698546"><ele>174.0</ele><time>2026-04-27T08:02:49Z</time></trkpt><trkpt lat="42.40947456626014" lon="11.847969500270398"><ele>174.0</ele><time>2026-04-27T08:03:06Z</time></trkpt><trkpt lat="42.409404012263465" lon="11.847941012579607"><ele>174.0</ele><time>2026-04-27T08:03:07Z</time></trkpt><trkpt lat="42.40964034272997" lon="11.848168517312349"><ele>174.0</ele><time>2026-04-27T08:03:09Z</time></trkpt><trkpt lat="42.409713205462864" lon="11.848240726084835"><ele>174.0</ele><time>2026-04-27T08:03:10Z</time></trkpt><trkpt lat="42.4097942021137" lon="11.848312734495881"><ele>174.0</ele><time>2026-04-27T08:03:11Z</time></trkpt><trkpt lat="42.409879158391284" lon="11.848387313975348"><ele>174.0</ele><time>2026-04-27T08:03:12Z</time></trkpt><trkpt lat="42.40996624599209" lon="11.848462818286317"><ele>174.0</ele><time>2026-04-27T08:03:13Z</time></trkpt><trkpt lat="42.410064371227236" lon="11.848553115679426"><ele>174.25</ele><time>2026-04-27T08:03:14Z</time></trkpt><trkpt lat="42.41016247118774" lon="11.848645989674388"><ele>174.5</ele><time>2026-04-27T08:03:15Z</time></trkpt><trkpt lat="42.41026568031331" lon="11.848745117954012"><ele>174.75</ele><time>2026-04-27T08:03:16Z</time></trkpt><trkpt lat="42.410377023627525" lon="11.848847245829296"><ele>175.0</ele><time>2026-04-27T08:03:17Z</time></trkpt><trkpt lat="42.41626970302808" lon="11.857521434775425"><ele>174.66666666666669</ele><time>2026-04-27T08:04:18Z</time></trkpt><trkpt lat="42.41632366882393" lon="11.857818628537743"><ele>174.33333333333334</ele><time>2026-04-27T08:04:19Z</time></trkpt><trkpt lat="42.41637341907279" lon="11.858105822898464"><ele>174.0</ele><time>2026-04-27T08:04:20Z</time></trkpt><trkpt lat="42.41642019413074" lon="11.858391586284844"><ele>174.66666666666666</ele><time>2026-04-27T08:04:21Z</time></trkpt><trkpt lat="42.41646589580144" lon="11.858673217495506"><ele>175.33333333333331</ele><time>2026-04-27T08:04:22Z</time></trkpt><trkpt lat="42.416513813901595" lon="11.85894796637554"><ele>176.0</ele><time>2026-04-27T08:04:23Z</time></trkpt><trkpt lat="42.41655866186092" lon="11.85921858623766"><ele>176.66666666666666</ele><time>2026-04-27T08:04:24Z</time></trkpt><trkpt lat="42.41660321728953" lon="11.859486611268306"><ele>177.33333333333334</ele><time>2026-04-27T08:04:25Z</time></trkpt><trkpt lat="42.41664717762456" lon="11.85974823114912"><ele>178.0</ele><time>2026-04-27T08:04:26Z</time></trkpt><trkpt lat="42.416686915045936" lon="11.860002844930603"><ele>178.66666666666669</ele><time>2026-04-27T08:04:27Z</time></trkpt><trkpt lat="42.41672535145056" lon="11.860251502684072"><ele>179.33333333333334</ele><time>2026-04-27T08:04:28Z</time></trkpt><trkpt lat="42.41676408289981" lon="11.860492277605072"><ele>180.0</ele><time>2026-04-27T08:04:29Z</time></trkpt><trkpt lat="42.41680913173382" lon="11.860724190821934"><ele>180.0</ele><time>2026-04-27T08:04:30Z</time></trkpt><trkpt lat="42.41687014992496" lon="11.86094904931084"><ele>180.0</ele><time>2026-04-27T08:04:31Z</time></trkpt><trkpt lat="42.41693712924907" lon="11.861165885826994"><ele>180.0</ele><time>2026-04-27T08:04:32Z</time></trkpt><trkpt lat="42.41700220828291" lon="11.861371738115814"><ele>180.5</ele><time>2026-04-27T08:04:33Z</time></trkpt><trkpt lat="42.41706684715196" lon="11.861564059385381"><ele>181.0</ele><time>2026-04-27T08:04:34Z</time></trkpt><trkpt lat="42.41712667624431" lon="11.861742379409508"><ele>181.5</ele><time>2026-04-27T08:04:35Z</time></trkpt><trkpt lat="42.417177582143594" lon="11.861902036306786"><ele>182.0</ele><time>2026-04-27T08:04:36Z</time></trkpt><trkpt lat="42.417224063681594" lon="11.86205406793448"><ele>182.6</ele><time>2026-04-27T08:04:37Z</time></trkpt><trkpt lat="42.4172685091806" lon="11.862192900710562"><ele>183.2</ele><time>2026-04-27T08:04:38Z</time></trkpt><trkpt lat="42.417314615615055" lon="11.862319635379903"><ele>183.8</ele><time>2026-04-27T08:04:39Z</time></trkpt><trkpt lat="42.41735743770506" lon="11.862445129007119"><ele>184.4</ele><time>2026-04-27T08:04:40Z</time></trkpt><trkpt lat="42.41739303659688" lon="11.86256812728424"><ele>185.0</ele><time>2026-04-27T08:04:41Z</time></trkpt><trkpt lat="42.417428845300925" lon="11.862693730548433"><ele>185.2</ele><time>2026-04-27T08:04:42Z</time></trkpt><trkpt lat="42.41746172008552" lon="11.862822847312989"><ele>185.4</ele><time>2026-04-27T08:04:43Z</time></trkpt><trkpt lat="42.41748579257761" lon="11.86295541853996"><ele>185.60000000000002</ele><time>2026-04-27T08:04:44Z</time></trkpt><trkpt lat="42.41751065164836" lon="11.86308525813919"><ele>185.8</ele><time>2026-04-27T08:04:45Z</time></trkpt><trkpt lat="42.4175366361487" lon="11.863217590295614"><ele>186.0</ele><time>2026-04-27T08:04:46Z</time></trkpt><trkpt lat="42.41756101987209" lon="11.863354164024917"><ele>186.20000000000002</ele><time>2026-04-27T08:04:47Z</time></trkpt><trkpt lat="42.41758430083565" lon="11.863494970954926"><ele>186.4</ele><time>2026-04-27T08:04:48Z</time></trkpt><trkpt lat="42.417608881220616" lon="11.863641115388866"><ele>186.6</ele><time>2026-04-27T08:04:49Z</time></trkpt><trkpt lat="42.41763372516328" lon="11.863789979936474"><ele>186.8</ele><time>2026-04-27T08:04:50Z</time></trkpt><trkpt lat="42.41765927638446" lon="11.863939238564642"><ele>187.0</ele><time>2026-04-27T08:04:51Z</time></trkpt><trkpt lat="42.4176850633483" lon="11.864093974582389"><ele>187.0</ele><time>2026-04-27T08:04:52Z</time></trkpt><trkpt lat="42.41770981131445" lon="11.864247817763685"><ele>187.0</ele><time>2026-04-27T08:04:53Z</time></trkpt><trkpt lat="42.41773408662802" lon="11.86440355527162"><ele>187.0</ele><time>2026-04-27T08:04:54Z</time></trkpt><trkpt lat="42.41775673522768" lon="11.864556188641298"><ele>187.0</ele><time>2026-04-27T08:04:55Z</time></trkpt><trkpt lat="42.41777021554905" lon="11.864685306435241"><ele>187.0</ele><time>2026-04-27T08:04:55.999Z</time></trkpt><trkpt lat="42.417777795013556" lon="11.864779467534067"><ele>186.5</ele><time>2026-04-27T08:04:56.999Z</time></trkpt><trkpt lat="42.417788782119345" lon="11.864887705328396"><ele>186.0</ele><time>2026-04-27T08:04:58.999Z</time></trkpt><trkpt lat="42.41848241377156" lon="11.869568667871887"><ele>185.0</ele><time>2026-04-27T08:06:18Z</time></trkpt><trkpt lat="42.418467167600625" lon="11.869714620928516"><ele>184.0</ele><time>2026-04-27T08:06:19Z</time></trkpt><trkpt lat="42.41845805149455" lon="11.869854929735125"><ele>183.0</ele><time>2026-04-27T08:06:20Z</time></trkpt><trkpt lat="42.418456786485386" lon="11.869987656485462"><ele>182.0</ele><time>2026-04-27T08:06:21Z</time></trkpt><trkpt lat="42.41845683365632" lon="11.870098586543671"><ele>181.0</ele><time>2026-04-27T08:06:22Z</time></trkpt><trkpt lat="42.41844637884943" lon="11.87020140334704"><ele>180.83333333333334</ele><time>2026-04-27T08:06:23Z</time></trkpt><trkpt lat="42.41843292060755" lon="11.870298127893225"><ele>180.66666666666669</ele><time>2026-04-27T08:06:24Z</time></trkpt><trkpt lat="42.41840021426224" lon="11.870382686910231"><ele>180.5</ele><time>2026-04-27T08:06:25Z</time></trkpt><trkpt lat="42.41836776209309" lon="11.87046676400466"><ele>180.33333333333334</ele><time>2026-04-27T08:06:26Z</time></trkpt><trkpt lat="42.41836476577061" lon="11.87056529060426"><ele>180.16666666666666</ele><time>2026-04-27T08:06:27Z</time></trkpt><trkpt lat="42.41840550686458" lon="11.870660926643255"><ele>180.0</ele><time>2026-04-27T08:06:28Z</time></trkpt><trkpt lat="42.418478518803816" lon="11.87071649599818"><ele>180.0</ele><time>2026-04-27T08:06:29Z</time></trkpt><trkpt lat="42.41864597203526" lon="11.870822634804851"><ele>180.0</ele><time>2026-04-27T08:06:31Z</time></trkpt><trkpt lat="42.418742359759946" lon="11.870894854447348"><ele>180.0</ele><time>2026-04-27T08:06:32Z</time></trkpt><trkpt lat="42.41884690062766" lon="11.87096816733731"><ele>180.0</ele><time>2026-04-27T08:06:33Z</time></trkpt><trkpt lat="42.418963198375316" lon="11.871045711110634"><ele>180.25</ele><time>2026-04-27T08:06:34Z</time></trkpt><trkpt lat="42.419070804513126" lon="11.871109979338344"><ele>180.5</ele><time>2026-04-27T08:06:35Z</time></trkpt><trkpt lat="42.41918335441581" lon="11.871177018178814"><ele>180.75</ele><time>2026-04-27T08:06:36Z</time></trkpt><trkpt lat="42.41930000446032" lon="11.871248601187155"><ele>181.0</ele><time>2026-04-27T08:06:37Z</time></trkpt><trkpt lat="42.41940931245518" lon="11.871322745544871"><ele>181.0</ele><time>2026-04-27T08:06:38Z</time></trkpt><trkpt lat="42.41951048088734" lon="11.87139466918553"><ele>181.0</ele><time>2026-04-27T08:06:39Z</time></trkpt><trkpt lat="42.41960078371459" lon="11.871460078255142"><ele>181.0</ele><time>2026-04-27T08:06:40Z</time></trkpt><trkpt lat="42.41967978078465" lon="11.87151963648834"><ele>181.0</ele><time>2026-04-27T08:06:41Z</time></trkpt><trkpt lat="42.41973972512389" lon="11.871558837358776"><ele>181.0</ele><time>2026-04-27T08:06:42Z</time></trkpt><trkpt lat="42.41978952911265" lon="11.871502834844167"><ele>181.0</ele><time>2026-04-27T08:06:44Z</time></trkpt><trkpt lat="42.41971615814598" lon="11.871530001193069"><ele>181.0</ele><time>2026-04-27T08:06:47Z</time></trkpt><trkpt lat="42.419741578769575" lon="11.871379162978146"><ele>181.0</ele><time>2026-04-27T08:06:48Z</time></trkpt><trkpt lat="42.419643878468975" lon="11.871440179041462"><ele>181.0</ele><time>2026-04-27T08:06:50Z</time></trkpt><trkpt lat="42.41957940421775" lon="11.871429394849683"><ele>181.0</ele><time>2026-04-27T08:06:51Z</time></trkpt><trkpt lat="42.41950257723675" lon="11.871364702419884"><ele>181.0</ele><time>2026-04-27T08:06:52Z</time></trkpt><trkpt lat="42.41942231208175" lon="11.871314070499611"><ele>181.0</ele><time>2026-04-27T08:06:53Z</time></trkpt><trkpt lat="42.41932211308639" lon="11.871251702945678"><ele>181.0</ele><time>2026-04-27T08:06:54Z</time></trkpt><trkpt lat="42.41921037396732" lon="11.87118117629304"><ele>181.0</ele><time>2026-04-27T08:06:55Z</time></trkpt><trkpt lat="42.419093718060395" lon="11.87110663611507"><ele>181.0</ele><time>2026-04-27T08:06:56Z</time></trkpt><trkpt lat="42.4189770414118" lon="11.871029122862382"><ele>181.0</ele><time>2026-04-27T08:06:57Z</time></trkpt><trkpt lat="42.41885882197422" lon="11.870955823824273"><ele>181.0</ele><time>2026-04-27T08:06:58Z</time></trkpt><trkpt lat="42.41876664440557" lon="11.87088444804888"><ele>181.0</ele><time>2026-04-27T08:06:59Z</time></trkpt><trkpt lat="42.418702959735626" lon="11.870817499852636"><ele>181.0</ele><time>2026-04-27T08:07:00Z</time></trkpt><trkpt lat="42.41867891251562" lon="11.870684934599424"><ele>181.0</ele><time>2026-04-27T08:07:01.999Z</time></trkpt><trkpt lat="42.41876059755525" lon="11.870589337553772"><ele>180.66666666666669</ele><time>2026-04-27T08:07:03.999Z</time></trkpt><trkpt lat="42.41883378388666" lon="11.870559705885444"><ele>180.33333333333334</ele><time>2026-04-27T08:07:04.999Z</time></trkpt><trkpt lat="42.418911740918475" lon="11.870536242208775"><ele>180.0</ele><time>2026-04-27T08:07:05.999Z</time></trkpt><trkpt lat="42.41900103245448" lon="11.870508995339812"><ele>179.66666666666666</ele><time>2026-04-27T08:07:06.999Z</time></trkpt><trkpt lat="42.41909726611197" lon="11.870482059532666"><ele>179.33333333333331</ele><time>2026-04-27T08:07:07.999Z</time></trkpt><trkpt lat="42.41919336315227" lon="11.870455434609726"><ele>179.0</ele><time>2026-04-27T08:07:08.999Z</time></trkpt><trkpt lat="42.419296186521144" lon="11.870426379800714"><ele>179.0</ele><time>2026-04-27T08:07:09.999Z</time></trkpt><trkpt lat="42.419403593839185" lon="11.87038995453362"><ele>179.0</ele><time>2026-04-27T08:07:10.999Z</time></trkpt><trkpt lat="42.419510128363946" lon="11.870354236496098"><ele>179.0</ele><time>2026-04-27T08:07:11.999Z</time></trkpt><trkpt lat="42.419598656856024" lon="11.870320145482008"><ele>179.0</ele><time>2026-04-27T08:07:12.999Z</time></trkpt><trkpt lat="42.41971958387948" lon="11.870294940914516"><ele>179.0</ele><time>2026-04-27T08:07:14.999Z</time></trkpt><trkpt lat="42.41983604769751" lon="11.870244642710036"><ele>198.0</ele><time>2026-04-27T08:07:16.999Z</time></trkpt><trkpt lat="42.4281887970499" lon="11.868026088648742"><ele>198.0</ele><time>2026-04-27T08:08:18Z</time></trkpt><trkpt lat="42.42836515187353" lon="11.8680424953967"><ele>198.0</ele><time>2026-04-27T08:08:19Z</time></trkpt><trkpt lat="42.4285406592628" lon="11.868066927423243"><ele>198.0</ele><time>2026-04-27T08:08:20Z</time></trkpt><trkpt lat="42.42871126113973" lon="11.868121769305771"><ele>198.0</ele><time>2026-04-27T08:08:21Z</time></trkpt><trkpt lat="42.42887108577183" lon="11.868227554613098"><ele>198.0</ele><time>2026-04-27T08:08:22Z</time></trkpt><trkpt lat="42.429039359483305" lon="11.868332655911033"><ele>198.0</ele><time>2026-04-27T08:08:23Z</time></trkpt><trkpt lat="42.42922111144323" lon="11.868429219857019"><ele>198.0</ele><time>2026-04-27T08:08:24Z</time></trkpt><trkpt lat="42.4294006473973" lon="11.868552073585418"><ele>198.0</ele><time>2026-04-27T08:08:25Z</time></trkpt><trkpt lat="42.42957652852948" lon="11.868688953906656"><ele>198.0</ele><time>2026-04-27T08:08:26Z</time></trkpt><trkpt lat="42.429749374776335" lon="11.868803807265772"><ele>199.0</ele><time>2026-04-27T08:08:27Z</time></trkpt><trkpt lat="42.42991929934521" lon="11.868891330147516"><ele>200.0</ele><time>2026-04-27T08:08:28Z</time></trkpt><trkpt lat="42.43009356600066" lon="11.868976835380936"><ele>201.0</ele><time>2026-04-27T08:08:29Z</time></trkpt><trkpt lat="42.43028247976079" lon="11.869034566730084"><ele>201.0</ele><time>2026-04-27T08:08:30Z</time></trkpt><trkpt lat="42.43048320216664" lon="11.86909432719992"><ele>201.0</ele><time>2026-04-27T08:08:31Z</time></trkpt><trkpt lat="42.43069435784767" lon="11.869141378115996"><ele>201.0</ele><time>2026-04-27T08:08:32Z</time></trkpt><trkpt lat="42.43088999874191" lon="11.869190414132499"><ele>201.0</ele><time>2026-04-27T08:08:33Z</time></trkpt><trkpt lat="42.431070816960705" lon="11.86922551081973"><ele>201.0</ele><time>2026-04-27T08:08:34Z</time></trkpt><trkpt lat="42.43124276747791" lon="11.869260780412672"><ele>201.0</ele><time>2026-04-27T08:08:35Z</time></trkpt><trkpt lat="42.43142070095604" lon="11.869295502737607"><ele>201.0</ele><time>2026-04-27T08:08:36Z</time></trkpt><trkpt lat="42.431611475389076" lon="11.869274794506863"><ele>201.0</ele><time>2026-04-27T08:08:37Z</time></trkpt><trkpt lat="42.431804235396484" lon="11.869240520034719"><ele>201.0</ele><time>2026-04-27T08:08:38Z</time></trkpt><trkpt lat="42.432003031868724" lon="11.869171124766748"><ele>202.66666666666669</ele><time>2026-04-27T08:08:39Z</time></trkpt><trkpt lat="42.43219760008135" lon="11.869071246100791"><ele>204.33333333333334</ele><time>2026-04-27T08:08:40Z</time></trkpt><trkpt lat="42.432375100261005" lon="11.868979840552804"><ele>206.0</ele><time>2026-04-27T08:08:41Z</time></trkpt><trkpt lat="42.43254106810042" lon="11.868906799885844"><ele>206.0</ele><time>2026-04-27T08:08:42Z</time></trkpt><trkpt lat="42.432719016937476" lon="11.868871774020732"><ele>206.0</ele><time>2026-04-27T08:08:43Z</time></trkpt><trkpt lat="42.432906205733715" lon="11.868861562903092"><ele>206.0</ele><time>2026-04-27T08:08:44Z</time></trkpt><trkpt lat="42.43310012836711" lon="11.868869643812014"><ele>205.66666666666669</ele><time>2026-04-27T08:08:45Z</time></trkpt><trkpt lat="42.43330107477373" lon="11.868885577201912"><ele>205.33333333333331</ele><time>2026-04-27T08:08:46Z</time></trkpt><trkpt lat="42.433510886232185" lon="11.868902080387883"><ele>205.0</ele><time>2026-04-27T08:08:47Z</time></trkpt><trkpt lat="42.43372290750399" lon="11.868921012526641"><ele>205.0</ele><time>2026-04-27T08:08:48Z</time></trkpt><trkpt lat="42.433930053901605" lon="11.868937860275249"><ele>205.0</ele><time>2026-04-27T08:08:49Z</time></trkpt><trkpt lat="42.43413579352276" lon="11.868955946752067"><ele>205.0</ele><time>2026-04-27T08:08:50Z</time></trkpt><trkpt lat="42.43433725083544" lon="11.868975698255824"><ele>205.0</ele><time>2026-04-27T08:08:51Z</time></trkpt><trkpt lat="42.43454448892734" lon="11.868992394510194"><ele>205.0</ele><time>2026-04-27T08:08:52Z</time></trkpt><trkpt lat="42.434754049370476" lon="11.869010255974876"><ele>205.0</ele><time>2026-04-27T08:08:53Z</time></trkpt><trkpt lat="42.43496609506975" lon="11.869027515629949"><ele>206.33333333333331</ele><time>2026-04-27T08:08:54Z</time></trkpt><trkpt lat="42.4351827382824" lon="11.86904628254051"><ele>207.66666666666669</ele><time>2026-04-27T08:08:55Z</time></trkpt><trkpt lat="42.43539861166697" lon="11.86906406138468"><ele>209.0</ele><time>2026-04-27T08:08:56Z</time></trkpt><trkpt lat="42.43561738863298" lon="11.869092184950249"><ele>209.5</ele><time>2026-04-27T08:08:57Z</time></trkpt><trkpt lat="42.43584133702413" lon="11.869117465084098"><ele>210.0</ele><time>2026-04-27T08:08:58Z</time></trkpt><trkpt lat="42.436068221566984" lon="11.86914486472614"><ele>210.0</ele><time>2026-04-27T08:08:59Z</time></trkpt><trkpt lat="42.43629599297453" lon="11.869168802080296"><ele>210.0</ele><time>2026-04-27T08:09:00Z</time></trkpt><trkpt lat="42.43652495253884" lon="11.869191865411551"><ele>211.0</ele><time>2026-04-27T08:09:01Z</time></trkpt><trkpt lat="42.436751862283195" lon="11.86921028017315"><ele>212.0</ele><time>2026-04-27T08:09:02Z</time></trkpt><trkpt lat="42.43698027169801" lon="11.869232532709178"><ele>211.5</ele><time>2026-04-27T08:09:03Z</time></trkpt><trkpt lat="42.43720694248599" lon="11.869254036605579"><ele>211.0</ele><time>2026-04-27T08:09:04Z</time></trkpt><trkpt lat="42.43743827546515" lon="11.869272971540964"><ele>210.5</ele><time>2026-04-27T08:09:05Z</time></trkpt><trkpt lat="42.437672012048274" lon="11.869290775138781"><ele>210.0</ele><time>2026-04-27T08:09:06Z</time></trkpt><trkpt lat="42.43790869418784" lon="11.869319590762668"><ele>211.0</ele><time>2026-04-27T08:09:07Z</time></trkpt><trkpt lat="42.43814482406107" lon="11.869345675683856"><ele>212.0</ele><time>2026-04-27T08:09:07.999Z</time></trkpt><trkpt lat="42.43838432936643" lon="11.869372736222122"><ele>212.0</ele><time>2026-04-27T08:09:08.999Z</time></trkpt><trkpt lat="42.43862622471185" lon="11.869402157212644"><ele>212.0</ele><time>2026-04-27T08:09:09.999Z</time></trkpt><trkpt lat="42.43887023556094" lon="11.869426760511738"><ele>212.5</ele><time>2026-04-27T08:09:10.999Z</time></trkpt><trkpt lat="42.43911370453131" lon="11.869450136274697"><ele>213.0</ele><time>2026-04-27T08:09:11.999Z</time></trkpt><trkpt lat="42.439353840285605" lon="11.869474190512024"><ele>213.0</ele><time>2026-04-27T08:09:13Z</time></trkpt><trkpt lat="42.439588449380764" lon="11.869497946175136"><ele>213.0</ele><time>2026-04-27T08:09:14Z</time></trkpt><trkpt lat="42.4398187976406" lon="11.869521548554681"><ele>214.5</ele><time>2026-04-27T08:09:15Z</time></trkpt><trkpt lat="42.44004559770321" lon="11.869543929493851"><ele>216.0</ele><time>2026-04-27T08:09:16Z</time></trkpt><trkpt lat="42.440267369895196" lon="11.869566764166875"><ele>226.0</ele><time>2026-04-27T08:09:17Z</time></trkpt><trkpt lat="42.45316360509531" lon="11.867838735858948"><ele>226.0</ele><time>2026-04-27T08:10:18Z</time></trkpt><trkpt lat="42.45333372435768" lon="11.867728729999923"><ele>226.0</ele><time>2026-04-27T08:10:19Z</time></trkpt><trkpt lat="42.453508328817485" lon="11.867615994720977"><ele>226.0</ele><time>2026-04-27T08:10:20Z</time></trkpt><trkpt lat="42.45368247023873" lon="11.867496649181708"><ele>228.33333333333331</ele><time>2026-04-27T08:10:21Z</time></trkpt><trkpt lat="42.453853968367085" lon="11.867381106236524"><ele>230.66666666666669</ele><time>2026-04-27T08:10:22Z</time></trkpt><trkpt lat="42.454018213682254" lon="11.867262433419414"><ele>233.0</ele><time>2026-04-27T08:10:23Z</time></trkpt><trkpt lat="42.454163486788175" lon="11.86711576959139"><ele>233.0</ele><time>2026-04-27T08:10:24Z</time></trkpt><trkpt lat="42.45429367165933" lon="11.866934524055447"><ele>233.0</ele><time>2026-04-27T08:10:25Z</time></trkpt><trkpt lat="42.45440232686466" lon="11.866712542508896"><ele>233.0</ele><time>2026-04-27T08:10:26Z</time></trkpt><trkpt lat="42.45449855788445" lon="11.866468262528976"><ele>234.0</ele><time>2026-04-27T08:10:27Z</time></trkpt><trkpt lat="42.45460762574607" lon="11.86620565294119"><ele>235.0</ele><time>2026-04-27T08:10:28Z</time></trkpt><trkpt lat="42.454718384959186" lon="11.865928355976404"><ele>238.0</ele><time>2026-04-27T08:10:29Z</time></trkpt><trkpt lat="42.454834493469754" lon="11.86564899158473"><ele>241.0</ele><time>2026-04-27T08:10:30Z</time></trkpt><trkpt lat="42.45494769253351" lon="11.865374533847355"><ele>243.5</ele><time>2026-04-27T08:10:31Z</time></trkpt><trkpt lat="42.45506963832128" lon="11.865089756125284"><ele>246.0</ele><time>2026-04-27T08:10:32Z</time></trkpt><trkpt lat="42.455193425522324" lon="11.864796501588765"><ele>246.0</ele><time>2026-04-27T08:10:33Z</time></trkpt><trkpt lat="42.45531364658322" lon="11.864504914643202"><ele>246.0</ele><time>2026-04-27T08:10:34Z</time></trkpt><trkpt lat="42.455429274527994" lon="11.864214628869354"><ele>248.5</ele><time>2026-04-27T08:10:35Z</time></trkpt><trkpt lat="42.45554286632617" lon="11.863939987719244"><ele>251.0</ele><time>2026-04-27T08:10:36Z</time></trkpt><trkpt lat="42.45565612308295" lon="11.863666439698706"><ele>251.66666666666669</ele><time>2026-04-27T08:10:37Z</time></trkpt><trkpt lat="42.45577730487544" lon="11.86339026202948"><ele>252.33333333333331</ele><time>2026-04-27T08:10:38Z</time></trkpt><trkpt lat="42.45588186202762" lon="11.863139763311231"><ele>253.0</ele><time>2026-04-27T08:10:39Z</time></trkpt><trkpt lat="42.4559792660512" lon="11.862908201234234"><ele>253.0</ele><time>2026-04-27T08:10:40Z</time></trkpt><trkpt lat="42.45607265506346" lon="11.862706015513858"><ele>253.0</ele><time>2026-04-27T08:10:41Z</time></trkpt><trkpt lat="42.45618395648296" lon="11.862511938025138"><ele>253.0</ele><time>2026-04-27T08:10:42Z</time></trkpt><trkpt lat="42.456316950042506" lon="11.862316015653526"><ele>253.33333333333331</ele><time>2026-04-27T08:10:43Z</time></trkpt><trkpt lat="42.4564661127223" lon="11.862122052489722"><ele>253.66666666666669</ele><time>2026-04-27T08:10:44Z</time></trkpt><trkpt lat="42.456625993649816" lon="11.861932715950534"><ele>254.0</ele><time>2026-04-27T08:10:45Z</time></trkpt><trkpt lat="42.45680273998547" lon="11.861743261863941"><ele>256.0</ele><time>2026-04-27T08:10:46Z</time></trkpt><trkpt lat="42.45697993870121" lon="11.86154448656854"><ele>258.0</ele><time>2026-04-27T08:10:47Z</time></trkpt><trkpt lat="42.457156360618875" lon="11.861344247225237"><ele>259.3333333333333</ele><time>2026-04-27T08:10:48Z</time></trkpt><trkpt lat="42.45733135818359" lon="11.861155801100706"><ele>260.66666666666663</ele><time>2026-04-27T08:10:49Z</time></trkpt><trkpt lat="42.45750057137085" lon="11.860971882396921"><ele>262.0</ele><time>2026-04-27T08:10:50.001Z</time></trkpt><trkpt lat="42.45764626194747" lon="11.860798964534"><ele>262.3333333333333</ele><time>2026-04-27T08:10:51.001Z</time></trkpt><trkpt lat="42.45778275578327" lon="11.86062432812549"><ele>262.6666666666667</ele><time>2026-04-27T08:10:52.001Z</time></trkpt><trkpt lat="42.45790527215739" lon="11.86042977927874"><ele>263.0</ele><time>2026-04-27T08:10:53.001Z</time></trkpt><trkpt lat="42.45801867099927" lon="11.860208691784564"><ele>264.6666666666667</ele><time>2026-04-27T08:10:54.001Z</time></trkpt><trkpt lat="42.458133662059794" lon="11.859972920515473"><ele>266.3333333333333</ele><time>2026-04-27T08:10:55.001Z</time></trkpt><trkpt lat="42.45825504714448" lon="11.859726380059236"><ele>268.0</ele><time>2026-04-27T08:10:56.001Z</time></trkpt><trkpt lat="42.45838168786945" lon="11.859491780323902"><ele>268.5</ele><time>2026-04-27T08:10:57.001Z</time></trkpt><trkpt lat="42.45851661537496" lon="11.859232423263977"><ele>269.0</ele><time>2026-04-27T08:10:58.001Z</time></trkpt><trkpt lat="42.45864873949897" lon="11.858969461427705"><ele>269.0</ele><time>2026-04-27T08:10:59.001Z</time></trkpt><trkpt lat="42.458775546866946" lon="11.858711992938428"><ele>269.0</ele><time>2026-04-27T08:11:00.001Z</time></trkpt><trkpt lat="42.45889916162454" lon="11.858463131100553"><ele>271.6666666666667</ele><time>2026-04-27T08:11:01.001Z</time></trkpt><trkpt lat="42.459012947209715" lon="11.858235662419215"><ele>274.3333333333333</ele><time>2026-04-27T08:11:02.001Z</time></trkpt><trkpt lat="42.45912737183768" lon="11.858009898709192"><ele>277.0</ele><time>2026-04-27T08:11:03.001Z</time></trkpt><trkpt lat="42.45925087048388" lon="11.857793456455358"><ele>277.3333333333333</ele><time>2026-04-27T08:11:04.001Z</time></trkpt><trkpt lat="42.459383407058894" lon="11.857572708129155"><ele>277.6666666666667</ele><time>2026-04-27T08:11:05.001Z</time></trkpt><trkpt lat="42.459528816485" lon="11.857350042815218"><ele>278.0</ele><time>2026-04-27T08:11:06.001Z</time></trkpt><trkpt lat="42.45968998482412" lon="11.857133587090587"><ele>278.0</ele><time>2026-04-27T08:11:07.001Z</time></trkpt><trkpt lat="42.459864615120004" lon="11.85691012922385"><ele>278.0</ele><time>2026-04-27T08:11:08.001Z</time></trkpt><trkpt lat="42.46004210070095" lon="11.85668430253671"><ele>278.0</ele><time>2026-04-27T08:11:09.001Z</time></trkpt><trkpt lat="42.46021760513944" lon="11.856462123517364"><ele>278.0</ele><time>2026-04-27T08:11:10.001Z</time></trkpt><trkpt lat="42.460392110554025" lon="11.856242227049618"><ele>278.0</ele><time>2026-04-27T08:11:11.001Z</time></trkpt><trkpt lat="42.46056334910949" lon="11.856028040773133"><ele>278.0</ele><time>2026-04-27T08:11:12.001Z</time></trkpt><trkpt lat="42.460719681205624" lon="11.855836052803557"><ele>278.0</ele><time>2026-04-27T08:11:13.001Z</time></trkpt><trkpt lat="42.46086790330988" lon="11.855654309487996"><ele>278.0</ele><time>2026-04-27T08:11:14Z</time></trkpt><trkpt lat="42.46100737249447" lon="11.855485491689802"><ele>278.0</ele><time>2026-04-27T08:11:15Z</time></trkpt><trkpt lat="42.46113599680903" lon="11.855318162441057"><ele>278.0</ele><time>2026-04-27T08:11:16Z</time></trkpt><trkpt lat="42.46126718691536" lon="11.855168063425207"><ele>293.0</ele><time>2026-04-27T08:11:17Z</time></trkpt><trkpt lat="42.47128773662489" lon="11.847498734251593"><ele>293.0</ele><time>2026-04-27T08:12:18Z</time></trkpt><trkpt lat="42.47154831417517" lon="11.847494360999873"><ele>293.0</ele><time>2026-04-27T08:12:19Z</time></trkpt><trkpt lat="42.47180413271347" lon="11.847490536063393"><ele>293.0</ele><time>2026-04-27T08:12:20Z</time></trkpt><trkpt lat="42.47205739944024" lon="11.847487386881355"><ele>293.0</ele><time>2026-04-27T08:12:21Z</time></trkpt><trkpt lat="42.47231212627688" lon="11.847486201848353"><ele>295.0</ele><time>2026-04-27T08:12:22Z</time></trkpt><trkpt lat="42.47257003262731" lon="11.847478446892"><ele>297.0</ele><time>2026-04-27T08:12:23Z</time></trkpt><trkpt lat="42.4728305751054" lon="11.847467083411486"><ele>298.0</ele><time>2026-04-27T08:12:24Z</time></trkpt><trkpt lat="42.47308349981538" lon="11.84744951916882"><ele>299.0</ele><time>2026-04-27T08:12:25Z</time></trkpt><trkpt lat="42.473335780373965" lon="11.84742999064918"><ele>299.0</ele><time>2026-04-27T08:12:26Z</time></trkpt><trkpt lat="42.47358549085251" lon="11.847406484330998"><ele>299.0</ele><time>2026-04-27T08:12:27Z</time></trkpt><trkpt lat="42.47383636723387" lon="11.84738701935097"><ele>298.5</ele><time>2026-04-27T08:12:28Z</time></trkpt><trkpt lat="42.474083138122374" lon="11.84736193577735"><ele>298.0</ele><time>2026-04-27T08:12:29Z</time></trkpt><trkpt lat="42.474334651308766" lon="11.847338172720068"><ele>298.0</ele><time>2026-04-27T08:12:30.001Z</time></trkpt><trkpt lat="42.47458186460679" lon="11.847309403274089"><ele>298.0</ele><time>2026-04-27T08:12:31.001Z</time></trkpt><trkpt lat="42.47483307750645" lon="11.847307664749296"><ele>298.5</ele><time>2026-04-27T08:12:32.001Z</time></trkpt><trkpt lat="42.47508276739956" lon="11.847262116322858"><ele>299.0</ele><time>2026-04-27T08:12:33.001Z</time></trkpt><trkpt lat="42.475335544198614" lon="11.847239584895192"><ele>302.0</ele><time>2026-04-27T08:12:34.001Z</time></trkpt><trkpt lat="42.47559073765793" lon="11.8472179668936"><ele>305.0</ele><time>2026-04-27T08:12:35.001Z</time></trkpt><trkpt lat="42.47584634447525" lon="11.84719410548327"><ele>305.0</ele><time>2026-04-27T08:12:36.001Z</time></trkpt><trkpt lat="42.4761027294244" lon="11.847172511451099"><ele>305.0</ele><time>2026-04-27T08:12:37.001Z</time></trkpt><trkpt lat="42.47636188555021" lon="11.84715251535094"><ele>304.0</ele><time>2026-04-27T08:12:38.001Z</time></trkpt><trkpt lat="42.47662034547007" lon="11.847125027197338"><ele>303.0</ele><time>2026-04-27T08:12:39.001Z</time></trkpt><trkpt lat="42.476878568115616" lon="11.847097404685652"><ele>304.0</ele><time>2026-04-27T08:12:40.001Z</time></trkpt><trkpt lat="42.477139801764494" lon="11.847067555446504"><ele>305.0</ele><time>2026-04-27T08:12:41.001Z</time></trkpt><trkpt lat="42.47740433484473" lon="11.847025158088892"><ele>305.0</ele><time>2026-04-27T08:12:42.001Z</time></trkpt><trkpt lat="42.47766907260929" lon="11.84697474931456"><ele>305.0</ele><time>2026-04-27T08:12:43.001Z</time></trkpt><trkpt lat="42.47793348196206" lon="11.846922550747042"><ele>305.0</ele><time>2026-04-27T08:12:44.001Z</time></trkpt><trkpt lat="42.47819814526256" lon="11.846868441121398"><ele>305.0</ele><time>2026-04-27T08:12:45.001Z</time></trkpt><trkpt lat="42.47846231942715" lon="11.84681390526054"><ele>307.0</ele><time>2026-04-27T08:12:46.001Z</time></trkpt><trkpt lat="42.47872688654722" lon="11.846758813958964"><ele>309.0</ele><time>2026-04-27T08:12:47.001Z</time></trkpt><trkpt lat="42.47899482859136" lon="11.846707654545405"><ele>310.5</ele><time>2026-04-27T08:12:48.001Z</time></trkpt><trkpt lat="42.47926191473012" lon="11.846647745791161"><ele>312.0</ele><time>2026-04-27T08:12:49.001Z</time></trkpt><trkpt lat="42.47953588701631" lon="11.846617885943136"><ele>312.5</ele><time>2026-04-27T08:12:50.001Z</time></trkpt><trkpt lat="42.4798113623758" lon="11.846564547356648"><ele>313.0</ele><time>2026-04-27T08:12:51.001Z</time></trkpt><trkpt lat="42.48008674003763" lon="11.846510825596313"><ele>313.0</ele><time>2026-04-27T08:12:52.001Z</time></trkpt><trkpt lat="42.480352337808476" lon="11.846438603509469"><ele>313.0</ele><time>2026-04-27T08:12:53.001Z</time></trkpt><trkpt lat="42.48060411208493" lon="11.846392010940937"><ele>313.5</ele><time>2026-04-27T08:12:54.001Z</time></trkpt><trkpt lat="42.48085001716819" lon="11.846340348855085"><ele>314.0</ele><time>2026-04-27T08:12:55.001Z</time></trkpt><trkpt lat="42.481095336978186" lon="11.846289220307401"><ele>316.5</ele><time>2026-04-27T08:12:56.001Z</time></trkpt><trkpt lat="42.481344908534794" lon="11.846261960900616"><ele>319.0</ele><time>2026-04-27T08:12:57.001Z</time></trkpt><trkpt lat="42.48158857102098" lon="11.8461809276447"><ele>319.0</ele><time>2026-04-27T08:12:58.001Z</time></trkpt><trkpt lat="42.48182546013267" lon="11.846099484235571"><ele>319.0</ele><time>2026-04-27T08:12:59.001Z</time></trkpt><trkpt lat="42.48206147780318" lon="11.845995379711677"><ele>322.5</ele><time>2026-04-27T08:13:00.001Z</time></trkpt><trkpt lat="42.48229740565892" lon="11.84587366624395"><ele>326.0</ele><time>2026-04-27T08:13:01.001Z</time></trkpt><trkpt lat="42.482530707348694" lon="11.845742219530079"><ele>326.0</ele><time>2026-04-27T08:13:02.001Z</time></trkpt><trkpt lat="42.48276001675298" lon="11.845617255480965"><ele>326.0</ele><time>2026-04-27T08:13:03.001Z</time></trkpt><trkpt lat="42.48298768358684" lon="11.845504723300717"><ele>328.0</ele><time>2026-04-27T08:13:04.001Z</time></trkpt><trkpt lat="42.48321659773435" lon="11.845402806639992"><ele>330.0</ele><time>2026-04-27T08:13:05.001Z</time></trkpt><trkpt lat="42.48343868266293" lon="11.84531474752732"><ele>330.0</ele><time>2026-04-27T08:13:06.001Z</time></trkpt><trkpt lat="42.48365734188932" lon="11.845240706902892"><ele>330.0</ele><time>2026-04-27T08:13:07.001Z</time></trkpt><trkpt lat="42.483879174250454" lon="11.845195115147064"><ele>330.0</ele><time>2026-04-27T08:13:08.001Z</time></trkpt><trkpt lat="42.484096001119276" lon="11.845128816980123"><ele>330.0</ele><time>2026-04-27T08:13:09.001Z</time></trkpt><trkpt lat="42.48431356500723" lon="11.845062293429603"><ele>330.0</ele><time>2026-04-27T08:13:10.001Z</time></trkpt><trkpt lat="42.48453403458602" lon="11.84499421645167"><ele>330.0</ele><time>2026-04-27T08:13:11.001Z</time></trkpt><trkpt lat="42.48475729865421" lon="11.844901748512543"><ele>330.0</ele><time>2026-04-27T08:13:12.001Z</time></trkpt><trkpt lat="42.484993697684615" lon="11.844832383078705"><ele>330.0</ele><time>2026-04-27T08:13:13.001Z</time></trkpt><trkpt lat="42.485236318394016" lon="11.844757280284885"><ele>330.0</ele><time>2026-04-27T08:13:14.001Z</time></trkpt><trkpt lat="42.48547981877953" lon="11.844686588794074"><ele>331.0</ele><time>2026-04-27T08:13:15.001Z</time></trkpt><trkpt lat="42.485714710310646" lon="11.844616252850948"><ele>332.0</ele><time>2026-04-27T08:13:16.001Z</time></trkpt><trkpt lat="42.485942189483374" lon="11.844546437857666"><ele>375.0</ele><time>2026-04-27T08:13:17.001Z</time></trkpt><trkpt lat="42.499628661647215" lon="11.840669387821558"><ele>375.0</ele><time>2026-04-27T08:14:18Z</time></trkpt><trkpt lat="42.49986411411166" lon="11.840759184503447"><ele>375.0</ele><time>2026-04-27T08:14:19Z</time></trkpt><trkpt lat="42.500096334403295" lon="11.840842744774026"><ele>375.0</ele><time>2026-04-27T08:14:20Z</time></trkpt><trkpt lat="42.50033168122403" lon="11.84092954264031"><ele>375.0</ele><time>2026-04-27T08:14:21Z</time></trkpt><trkpt lat="42.50056732134368" lon="11.841007426156525"><ele>376.0</ele><time>2026-04-27T08:14:22Z</time></trkpt><trkpt lat="42.50080256348378" lon="11.84107860196757"><ele>377.0</ele><time>2026-04-27T08:14:23Z</time></trkpt><trkpt lat="42.501032337647274" lon="11.841150140780414"><ele>376.5</ele><time>2026-04-27T08:14:24Z</time></trkpt><trkpt lat="42.501259472074075" lon="11.84122006922411"><ele>376.0</ele><time>2026-04-27T08:14:25Z</time></trkpt><trkpt lat="42.50148506556092" lon="11.841288155531636"><ele>376.0</ele><time>2026-04-27T08:14:26Z</time></trkpt><trkpt lat="42.50169527346149" lon="11.84135219020058"><ele>376.0</ele><time>2026-04-27T08:14:27Z</time></trkpt><trkpt lat="42.50189840142299" lon="11.841411584352235"><ele>376.0</ele><time>2026-04-27T08:14:28Z</time></trkpt><trkpt lat="42.502094082851166" lon="11.841476706783494"><ele>373.66666666666663</ele><time>2026-04-27T08:14:29Z</time></trkpt><trkpt lat="42.50228552308889" lon="11.841546665749437"><ele>371.3333333333333</ele><time>2026-04-27T08:14:30Z</time></trkpt><trkpt lat="42.5024731883458" lon="11.84164185357202"><ele>369.0</ele><time>2026-04-27T08:14:31Z</time></trkpt><trkpt lat="42.50265982453631" lon="11.841750944243909"><ele>369.6666666666667</ele><time>2026-04-27T08:14:32Z</time></trkpt><trkpt lat="42.50284368918488" lon="11.841857596813933"><ele>370.33333333333337</ele><time>2026-04-27T08:14:33Z</time></trkpt><trkpt lat="42.503024293965105" lon="11.841968073762756"><ele>371.0</ele><time>2026-04-27T08:14:34Z</time></trkpt><trkpt lat="42.50319677498909" lon="11.842074098311096"><ele>371.0</ele><time>2026-04-27T08:14:35Z</time></trkpt><trkpt lat="42.50336511141366" lon="11.842174490435381"><ele>371.0</ele><time>2026-04-27T08:14:36Z</time></trkpt><trkpt lat="42.5035257174539" lon="11.842259002775101"><ele>371.0</ele><time>2026-04-27T08:14:37.001Z</time></trkpt><trkpt lat="42.5036790855684" lon="11.842344206207631"><ele>368.6666666666667</ele><time>2026-04-27T08:14:38.001Z</time></trkpt><trkpt lat="42.50383294574207" lon="11.842421079984003"><ele>366.3333333333333</ele><time>2026-04-27T08:14:39.001Z</time></trkpt><trkpt lat="42.503994937464505" lon="11.842466250161038"><ele>364.0</ele><time>2026-04-27T08:14:40.001Z</time></trkpt><trkpt lat="42.504157065729224" lon="11.842454370560304"><ele>364.0</ele><time>2026-04-27T08:14:41.001Z</time></trkpt><trkpt lat="42.504324793139546" lon="11.842390403472036"><ele>364.0</ele><time>2026-04-27T08:14:42.001Z</time></trkpt><trkpt lat="42.50447987576002" lon="11.842278781819289"><ele>364.0</ele><time>2026-04-27T08:14:43.001Z</time></trkpt><trkpt lat="42.504633896148285" lon="11.84213112609852"><ele>363.3333333333333</ele><time>2026-04-27T08:14:44.001Z</time></trkpt><trkpt lat="42.50478422104759" lon="11.841962602997103"><ele>362.6666666666667</ele><time>2026-04-27T08:14:45.001Z</time></trkpt><trkpt lat="42.504946252925045" lon="11.8417823954274"><ele>362.0</ele><time>2026-04-27T08:14:46.001Z</time></trkpt><trkpt lat="42.505116448316464" lon="11.84159030718347"><ele>361.33333333333337</ele><time>2026-04-27T08:14:47.001Z</time></trkpt><trkpt lat="42.50528416817319" lon="11.841402668226472"><ele>360.6666666666667</ele><time>2026-04-27T08:14:48.001Z</time></trkpt><trkpt lat="42.50545196315182" lon="11.841227219771415"><ele>360.0</ele><time>2026-04-27T08:14:49.001Z</time></trkpt><trkpt lat="42.505625637268665" lon="11.841057120690664"><ele>360.3333333333333</ele><time>2026-04-27T08:14:50.001Z</time></trkpt><trkpt lat="42.50581493774837" lon="11.840900578119713"><ele>360.66666666666663</ele><time>2026-04-27T08:14:51.001Z</time></trkpt><trkpt lat="42.50600555928039" lon="11.840756342911137"><ele>361.0</ele><time>2026-04-27T08:14:52.001Z</time></trkpt><trkpt lat="42.5061873576267" lon="11.840625963233528"><ele>361.3333333333333</ele><time>2026-04-27T08:14:53.001Z</time></trkpt><trkpt lat="42.50635375269217" lon="11.84049582580433"><ele>361.6666666666667</ele><time>2026-04-27T08:14:54.001Z</time></trkpt><trkpt lat="42.506499090720396" lon="11.84034647923361"><ele>362.0</ele><time>2026-04-27T08:14:55.001Z</time></trkpt><trkpt lat="42.506631795323955" lon="11.840167307766976"><ele>362.33333333333337</ele><time>2026-04-27T08:14:56.001Z</time></trkpt><trkpt lat="42.50675968506888" lon="11.839946962578464"><ele>362.6666666666667</ele><time>2026-04-27T08:14:57.001Z</time></trkpt><trkpt lat="42.50689148822308" lon="11.839711370837344"><ele>363.0</ele><time>2026-04-27T08:14:58.001Z</time></trkpt><trkpt lat="42.50702884763905" lon="11.839468577701975"><ele>361.5</ele><time>2026-04-27T08:14:59.001Z</time></trkpt><trkpt lat="42.50717417166008" lon="11.839210261032118"><ele>360.0</ele><time>2026-04-27T08:15:00.001Z</time></trkpt><trkpt lat="42.50732361259749" lon="11.838939369666235"><ele>360.0</ele><time>2026-04-27T08:15:01.001Z</time></trkpt><trkpt lat="42.50746897294727" lon="11.838653343902624"><ele>360.0</ele><time>2026-04-27T08:15:02.001Z</time></trkpt><trkpt lat="42.50762525692249" lon="11.838386865252915"><ele>360.5</ele><time>2026-04-27T08:15:03.001Z</time></trkpt><trkpt lat="42.50778443450103" lon="11.838104552445273"><ele>361.0</ele><time>2026-04-27T08:15:04.001Z</time></trkpt><trkpt lat="42.50794348164689" lon="11.837810769559526"><ele>362.0</ele><time>2026-04-27T08:15:05.001Z</time></trkpt><trkpt lat="42.50810561138698" lon="11.837515867809802"><ele>363.0</ele><time>2026-04-27T08:15:06.001Z</time></trkpt><trkpt lat="42.50827534762874" lon="11.837213801295146"><ele>363.0</ele><time>2026-04-27T08:15:07.001Z</time></trkpt><trkpt lat="42.50845950666998" lon="11.836924652064601"><ele>363.0</ele><time>2026-04-27T08:15:08.001Z</time></trkpt><trkpt lat="42.50861647644776" lon="11.836643303445433"><ele>367.5</ele><time>2026-04-27T08:15:09.001Z</time></trkpt><trkpt lat="42.50876363334918" lon="11.8363800708732"><ele>372.0</ele><time>2026-04-27T08:15:10.001Z</time></trkpt><trkpt lat="42.508904030866255" lon="11.83612965957076"><ele>370.0</ele><time>2026-04-27T08:15:11.001Z</time></trkpt><trkpt lat="42.509035729280804" lon="11.835895192323822"><ele>368.0</ele><time>2026-04-27T08:15:12.001Z</time></trkpt><trkpt lat="42.50915964552336" lon="11.835675400704513"><ele>366.0</ele><time>2026-04-27T08:15:13.001Z</time></trkpt><trkpt lat="42.50927990877916" lon="11.835464955518702"><ele>366.0</ele><time>2026-04-27T08:15:14.001Z</time></trkpt><trkpt lat="42.509397907538144" lon="11.835270182636647"><ele>366.0</ele><time>2026-04-27T08:15:15.001Z</time></trkpt><trkpt lat="42.50951161929909" lon="11.835084796671387"><ele>366.0</ele><time>2026-04-27T08:15:16.001Z</time></trkpt><trkpt lat="42.5096513260603" lon="11.834955180054406"><ele>395.0</ele><time>2026-04-27T08:15:17.001Z</time></trkpt><trkpt lat="42.51755710162474" lon="11.827535110972532"><ele>395.0</ele><time>2026-04-27T08:16:18Z</time></trkpt><trkpt lat="42.51771772368691" lon="11.827589431085391"><ele>395.0</ele><time>2026-04-27T08:16:19Z</time></trkpt><trkpt lat="42.517877065069726" lon="11.827649150851672"><ele>395.0</ele><time>2026-04-27T08:16:20Z</time></trkpt><trkpt lat="42.51804261759063" lon="11.827715777834914"><ele>400.0</ele><time>2026-04-27T08:16:21Z</time></trkpt><trkpt lat="42.51820450762101" lon="11.827779609813804"><ele>405.0</ele><time>2026-04-27T08:16:22Z</time></trkpt><trkpt lat="42.518367474200765" lon="11.827861588234786"><ele>410.0</ele><time>2026-04-27T08:16:23Z</time></trkpt><trkpt lat="42.51852896374175" lon="11.827948074150978"><ele>410.0</ele><time>2026-04-27T08:16:24Z</time></trkpt><trkpt lat="42.51868503532562" lon="11.828027281379503"><ele>410.0</ele><time>2026-04-27T08:16:25Z</time></trkpt><trkpt lat="42.518842172655674" lon="11.828100435015088"><ele>410.0</ele><time>2026-04-27T08:16:26Z</time></trkpt><trkpt lat="42.51899293172214" lon="11.828169039680642"><ele>409.3333333333333</ele><time>2026-04-27T08:16:27Z</time></trkpt><trkpt lat="42.51913949761271" lon="11.828244065682513"><ele>408.66666666666663</ele><time>2026-04-27T08:16:28Z</time></trkpt><trkpt lat="42.5192913480138" lon="11.828318533129556"><ele>408.0</ele><time>2026-04-27T08:16:29Z</time></trkpt><trkpt lat="42.51943795397375" lon="11.828380692339765"><ele>409.0</ele><time>2026-04-27T08:16:30Z</time></trkpt><trkpt lat="42.519573013775904" lon="11.828429673735783"><ele>410.0</ele><time>2026-04-27T08:16:31Z</time></trkpt><trkpt lat="42.51968049250071" lon="11.828490160404362"><ele>411.0</ele><time>2026-04-27T08:16:32Z</time></trkpt><trkpt lat="42.51977271779311" lon="11.828538675725403"><ele>412.0</ele><time>2026-04-27T08:16:33Z</time></trkpt><trkpt lat="42.51985906355984" lon="11.828597937669493"><ele>412.83333333333337</ele><time>2026-04-27T08:16:34Z</time></trkpt><trkpt lat="42.51993474264827" lon="11.828657343833827"><ele>413.6666666666667</ele><time>2026-04-27T08:16:35Z</time></trkpt><trkpt lat="42.520004711514645" lon="11.828708577469456"><ele>414.5</ele><time>2026-04-27T08:16:36Z</time></trkpt><trkpt lat="42.52002620613411" lon="11.828788891236764"><ele>415.33333333333337</ele><time>2026-04-27T08:16:37Z</time></trkpt><trkpt lat="42.52005418835999" lon="11.828942142085042"><ele>416.1666666666667</ele><time>2026-04-27T08:16:39Z</time></trkpt><trkpt lat="42.52012359404772" lon="11.828978466099956"><ele>417.0</ele><time>2026-04-27T08:16:40Z</time></trkpt><trkpt lat="42.520219125860365" lon="11.828987791841348"><ele>417.0</ele><time>2026-04-27T08:16:41Z</time></trkpt><trkpt lat="42.520330476584675" lon="11.829014119644674"><ele>417.0</ele><time>2026-04-27T08:16:42Z</time></trkpt><trkpt lat="42.52043818837589" lon="11.829037281184945"><ele>417.0</ele><time>2026-04-27T08:16:43.001Z</time></trkpt><trkpt lat="42.52056031141121" lon="11.829067283734684"><ele>417.0</ele><time>2026-04-27T08:16:44.001Z</time></trkpt><trkpt lat="42.520687906436585" lon="11.829102816547826"><ele>417.75</ele><time>2026-04-27T08:16:45.001Z</time></trkpt><trkpt lat="42.520817781312815" lon="11.8291568251953"><ele>418.5</ele><time>2026-04-27T08:16:46.001Z</time></trkpt><trkpt lat="42.52092964165761" lon="11.829212112594462"><ele>419.25</ele><time>2026-04-27T08:16:47.001Z</time></trkpt><trkpt lat="42.521029943533534" lon="11.829251037175238"><ele>420.0</ele><time>2026-04-27T08:16:48.001Z</time></trkpt><trkpt lat="42.52115168816546" lon="11.829278578594705"><ele>418.75</ele><time>2026-04-27T08:16:49.001Z</time></trkpt><trkpt lat="42.521265534846634" lon="11.829314192443215"><ele>417.5</ele><time>2026-04-27T08:16:50.001Z</time></trkpt><trkpt lat="42.521402593468764" lon="11.829342441165368"><ele>416.25</ele><time>2026-04-27T08:16:51.001Z</time></trkpt><trkpt lat="42.52153900474918" lon="11.829409130259105"><ele>415.0</ele><time>2026-04-27T08:16:52.001Z</time></trkpt><trkpt lat="42.52167414531071" lon="11.829454221360447"><ele>415.0</ele><time>2026-04-27T08:16:53.001Z</time></trkpt><trkpt lat="42.52181452718527" lon="11.82950123874996"><ele>415.0</ele><time>2026-04-27T08:16:54.001Z</time></trkpt><trkpt lat="42.52195302929035" lon="11.829547626548091"><ele>415.0</ele><time>2026-04-27T08:16:55.001Z</time></trkpt><trkpt lat="42.522071778625936" lon="11.829587398652727"><ele>415.0</ele><time>2026-04-27T08:16:56.001Z</time></trkpt><trkpt lat="42.52217128632782" lon="11.82962072625682"><ele>417.75</ele><time>2026-04-27T08:16:57.001Z</time></trkpt><trkpt lat="42.522274682187714" lon="11.829655356100087"><ele>420.5</ele><time>2026-04-27T08:16:58.001Z</time></trkpt><trkpt lat="42.52238533582624" lon="11.829692416760622"><ele>423.25</ele><time>2026-04-27T08:16:59.001Z</time></trkpt><trkpt lat="42.52250868189766" lon="11.829733728428597"><ele>426.0</ele><time>2026-04-27T08:17:00.001Z</time></trkpt><trkpt lat="42.522628544885" lon="11.829773191749428"><ele>426.0</ele><time>2026-04-27T08:17:01.001Z</time></trkpt><trkpt lat="42.52276276098077" lon="11.829816769844047"><ele>426.0</ele><time>2026-04-27T08:17:02.001Z</time></trkpt><trkpt lat="42.52290195956195" lon="11.829847029661757"><ele>426.0</ele><time>2026-04-27T08:17:03.001Z</time></trkpt><trkpt lat="42.52306303323106" lon="11.829892412101888"><ele>426.0</ele><time>2026-04-27T08:17:04.001Z</time></trkpt><trkpt lat="42.52320348893602" lon="11.829893756992181"><ele>427.25</ele><time>2026-04-27T08:17:05.001Z</time></trkpt><trkpt lat="42.52334709452171" lon="11.829891114939823"><ele>428.5</ele><time>2026-04-27T08:17:06.001Z</time></trkpt><trkpt lat="42.523472643678254" lon="11.829869592241291"><ele>429.75</ele><time>2026-04-27T08:17:07.001Z</time></trkpt><trkpt lat="42.52358914910092" lon="11.829838971332904"><ele>431.0</ele><time>2026-04-27T08:17:08.001Z</time></trkpt><trkpt lat="42.52371211412538" lon="11.82983794498827"><ele>430.5</ele><time>2026-04-27T08:17:09.001Z</time></trkpt><trkpt lat="42.52384358782204" lon="11.82981328188045"><ele>430.0</ele><time>2026-04-27T08:17:10.001Z</time></trkpt><trkpt lat="42.52398227749725" lon="11.829787265133518"><ele>429.5</ele><time>2026-04-27T08:17:11.001Z</time></trkpt><trkpt lat="42.5241174435291" lon="11.829761158761674"><ele>429.0</ele><time>2026-04-27T08:17:12.001Z</time></trkpt><trkpt lat="42.52424428676805" lon="11.829758703852745"><ele>429.0</ele><time>2026-04-27T08:17:13.001Z</time></trkpt><trkpt lat="42.524359495770916" lon="11.829748257277485"><ele>429.0</ele><time>2026-04-27T08:17:14.001Z</time></trkpt><trkpt lat="42.52450641259311" lon="11.829772325445518"><ele>429.0</ele><time>2026-04-27T08:17:15.001Z</time></trkpt><trkpt lat="42.52460067390515" lon="11.829776633017513"><ele>429.0</ele><time>2026-04-27T08:17:16.001Z</time></trkpt><trkpt lat="42.524702580680604" lon="11.829781193794174"><ele>440.0</ele><time>2026-04-27T08:17:17.001Z</time></trkpt><trkpt lat="42.53283688059482" lon="11.827096714906064"><ele>440.5</ele><time>2026-04-27T08:18:18Z</time></trkpt><trkpt lat="42.53296731581619" lon="11.827070343086154"><ele>441.0</ele><time>2026-04-27T08:18:19Z</time></trkpt><trkpt lat="42.53308583401657" lon="11.827061902815188"><ele>441.5</ele><time>2026-04-27T08:18:20Z</time></trkpt><trkpt lat="42.53319660851922" lon="11.827058728714226"><ele>442.0</ele><time>2026-04-27T08:18:21Z</time></trkpt><trkpt lat="42.533320155427106" lon="11.827059422677955"><ele>442.0</ele><time>2026-04-27T08:18:22Z</time></trkpt><trkpt lat="42.53344925371684" lon="11.827072173083797"><ele>442.0</ele><time>2026-04-27T08:18:23Z</time></trkpt><trkpt lat="42.533577148302975" lon="11.827122624834697"><ele>442.0</ele><time>2026-04-27T08:18:24Z</time></trkpt><trkpt lat="42.53370907666109" lon="11.827162191362232"><ele>442.0</ele><time>2026-04-27T08:18:25Z</time></trkpt><trkpt lat="42.533841060242366" lon="11.827217335230133"><ele>441.6666666666667</ele><time>2026-04-27T08:18:26Z</time></trkpt><trkpt lat="42.53393262403789" lon="11.827257895664795"><ele>441.33333333333337</ele><time>2026-04-27T08:18:27Z</time></trkpt><trkpt lat="42.533946045305726" lon="11.827345514207845"><ele>441.0</ele><time>2026-04-27T08:19:38Z</time></trkpt><trkpt lat="42.53391591807098" lon="11.827269618633206"><ele>440.66666666666663</ele><time>2026-04-27T08:19:54Z</time></trkpt><trkpt lat="42.534025685389814" lon="11.827299567622484"><ele>440.3333333333333</ele><time>2026-04-27T08:20:02Z</time></trkpt><trkpt lat="42.534123410153995" lon="11.827344414243182"><ele>440.0</ele><time>2026-04-27T08:20:03Z</time></trkpt><trkpt lat="42.5342349759685" lon="11.82739561262114"><ele>440.0</ele><time>2026-04-27T08:20:04Z</time></trkpt><trkpt lat="42.53436598682467" lon="11.827434071480388"><ele>440.0</ele><time>2026-04-27T08:20:05Z</time></trkpt><trkpt lat="42.53448880536631" lon="11.827500891834907"><ele>440.0</ele><time>2026-04-27T08:20:06Z</time></trkpt><trkpt lat="42.534625633463406" lon="11.827559689006756"><ele>440.0</ele><time>2026-04-27T08:20:07Z</time></trkpt><trkpt lat="42.534770849184184" lon="11.827631683333498"><ele>437.66666666666663</ele><time>2026-04-27T08:20:08Z</time></trkpt><trkpt lat="42.53491996205545" lon="11.827694209436315"><ele>435.33333333333337</ele><time>2026-04-27T08:20:09Z</time></trkpt><trkpt lat="42.53507848432841" lon="11.827774728595896"><ele>433.0</ele><time>2026-04-27T08:20:10Z</time></trkpt><trkpt lat="42.53523912018504" lon="11.827857357072617"><ele>432.33333333333337</ele><time>2026-04-27T08:20:11Z</time></trkpt><trkpt lat="42.53541206165835" lon="11.827919463788664"><ele>431.66666666666663</ele><time>2026-04-27T08:20:12Z</time></trkpt><trkpt lat="42.535583639757135" lon="11.827997853153938"><ele>431.0</ele><time>2026-04-27T08:20:13Z</time></trkpt><trkpt lat="42.535746966960176" lon="11.82808145576057"><ele>431.0</ele><time>2026-04-27T08:20:14Z</time></trkpt><trkpt lat="42.53590531986357" lon="11.828153016175497"><ele>431.0</ele><time>2026-04-27T08:20:15Z</time></trkpt><trkpt lat="42.53606883245827" lon="11.828226487538336"><ele>431.0</ele><time>2026-04-27T08:20:16Z</time></trkpt><trkpt lat="42.53620603794344" lon="11.828299778690267"><ele>455.0</ele><time>2026-04-27T08:20:17Z</time></trkpt><trkpt lat="42.545300066517264" lon="11.833448060333993"><ele>455.5</ele><time>2026-04-27T08:21:18.001Z</time></trkpt><trkpt lat="42.545528838538885" lon="11.83338441706019"><ele>456.0</ele><time>2026-04-27T08:21:19.001Z</time></trkpt><trkpt lat="42.54576270014483" lon="11.833322532919802"><ele>456.0</ele><time>2026-04-27T08:21:20.001Z</time></trkpt><trkpt lat="42.54601422947684" lon="11.833255973495492"><ele>456.0</ele><time>2026-04-27T08:21:21.001Z</time></trkpt><trkpt lat="42.546258122314384" lon="11.833191434885741"><ele>456.5</ele><time>2026-04-27T08:21:22.001Z</time></trkpt><trkpt lat="42.54650149630899" lon="11.833127033541766"><ele>457.0</ele><time>2026-04-27T08:21:23.001Z</time></trkpt><trkpt lat="42.54674498525299" lon="11.833062601815318"><ele>457.0</ele><time>2026-04-27T08:21:24.001Z</time></trkpt><trkpt lat="42.54697767201861" lon="11.83300095618071"><ele>457.0</ele><time>2026-04-27T08:21:25.001Z</time></trkpt><trkpt lat="42.5472126307862" lon="11.832938681831681"><ele>457.0</ele><time>2026-04-27T08:21:26.001Z</time></trkpt><trkpt lat="42.54744197759136" lon="11.832878051988116"><ele>457.0</ele><time>2026-04-27T08:21:27.001Z</time></trkpt><trkpt lat="42.547669677586605" lon="11.83281782086435"><ele>457.6666666666667</ele><time>2026-04-27T08:21:28.001Z</time></trkpt><trkpt lat="42.54789217380881" lon="11.832758964539504"><ele>458.33333333333337</ele><time>2026-04-27T08:21:29.001Z</time></trkpt><trkpt lat="42.54811065870708" lon="11.832701169285674"><ele>459.0</ele><time>2026-04-27T08:21:30.001Z</time></trkpt><trkpt lat="42.548317000022834" lon="11.832646586359852"><ele>459.0</ele><time>2026-04-27T08:21:31.001Z</time></trkpt><trkpt lat="42.54851123383557" lon="11.832596001350174"><ele>459.0</ele><time>2026-04-27T08:21:32.001Z</time></trkpt><trkpt lat="42.54870204126625" lon="11.832559775607153"><ele>459.0</ele><time>2026-04-27T08:21:33.001Z</time></trkpt><trkpt lat="42.54890000831678" lon="11.832543805780976"><ele>460.0</ele><time>2026-04-27T08:21:34.001Z</time></trkpt><trkpt lat="42.549107089219504" lon="11.832545819450646"><ele>461.0</ele><time>2026-04-27T08:21:35.001Z</time></trkpt><trkpt lat="42.54931761430672" lon="11.83256308381904"><ele>462.0</ele><time>2026-04-27T08:21:36.001Z</time></trkpt><trkpt lat="42.54953304113733" lon="11.832584861395091"><ele>464.0</ele><time>2026-04-27T08:21:37.001Z</time></trkpt><trkpt lat="42.549754731127535" lon="11.832607983596388"><ele>466.0</ele><time>2026-04-27T08:21:38.001Z</time></trkpt><trkpt lat="42.54998521088534" lon="11.832632022504868"><ele>465.5</ele><time>2026-04-27T08:21:39.001Z</time></trkpt><trkpt lat="42.55021257922715" lon="11.832655651875351"><ele>465.0</ele><time>2026-04-27T08:21:40.001Z</time></trkpt><trkpt lat="42.55043717160792" lon="11.832679001720592"><ele>467.0</ele><time>2026-04-27T08:21:41.001Z</time></trkpt><trkpt lat="42.550655448621896" lon="11.832702076463734"><ele>469.0</ele><time>2026-04-27T08:21:42.001Z</time></trkpt><trkpt lat="42.550862232844004" lon="11.832724244784618"><ele>471.0</ele><time>2026-04-27T08:21:43.001Z</time></trkpt><trkpt lat="42.55106523330929" lon="11.832743171946465"><ele>472.0</ele><time>2026-04-27T08:21:44Z</time></trkpt><trkpt lat="42.55126068397878" lon="11.832735171872713"><ele>473.0</ele><time>2026-04-27T08:21:45Z</time></trkpt><trkpt lat="42.5514499417093" lon="11.832740237113399"><ele>474.0</ele><time>2026-04-27T08:21:46Z</time></trkpt><trkpt lat="42.5516386273207" lon="11.83271420482574"><ele>474.0</ele><time>2026-04-27T08:21:47Z</time></trkpt><trkpt lat="42.55183595593572" lon="11.83268938426361"><ele>474.0</ele><time>2026-04-27T08:21:48Z</time></trkpt><trkpt lat="42.552021369746356" lon="11.832675793765118"><ele>474.0</ele><time>2026-04-27T08:21:49Z</time></trkpt><trkpt lat="42.55219504156339" lon="11.832649690889"><ele>474.33333333333337</ele><time>2026-04-27T08:21:50Z</time></trkpt><trkpt lat="42.55235933331778" lon="11.832624997834772"><ele>474.6666666666667</ele><time>2026-04-27T08:21:51Z</time></trkpt><trkpt lat="42.55251236295247" lon="11.832580188368715"><ele>475.0</ele><time>2026-04-27T08:21:52Z</time></trkpt><trkpt lat="42.55265201157609" lon="11.832581008374616"><ele>475.0</ele><time>2026-04-27T08:21:53Z</time></trkpt><trkpt lat="42.552776547525546" lon="11.832562291119057"><ele>475.0</ele><time>2026-04-27T08:21:54Z</time></trkpt><trkpt lat="42.55287403863552" lon="11.832547638595686"><ele>475.0</ele><time>2026-04-27T08:21:55Z</time></trkpt><trkpt lat="42.55295359431472" lon="11.832535681694962"><ele>475.0</ele><time>2026-04-27T08:21:56Z</time></trkpt><trkpt lat="42.55301681943444" lon="11.832526176366333"><ele>475.0</ele><time>2026-04-27T08:21:57Z</time></trkpt><trkpt lat="42.55464618473353" lon="11.83213384664803"><ele>477.5</ele><time>2026-04-27T08:23:18.001Z</time></trkpt><trkpt lat="42.554767690741286" lon="11.83208615729824"><ele>480.0</ele><time>2026-04-27T08:23:19.001Z</time></trkpt><trkpt lat="42.554904097688656" lon="11.832011304830992"><ele>482.5</ele><time>2026-04-27T08:23:20.001Z</time></trkpt><trkpt lat="42.555049156648224" lon="11.83195260697826"><ele>485.0</ele><time>2026-04-27T08:23:21.001Z</time></trkpt><trkpt lat="42.5551972922863" lon="11.831886042246254"><ele>485.0</ele><time>2026-04-27T08:23:22.001Z</time></trkpt><trkpt lat="42.55534919801971" lon="11.831815597141382"><ele>485.0</ele><time>2026-04-27T08:23:23.001Z</time></trkpt><trkpt lat="42.555504107488055" lon="11.831731687160644"><ele>485.0</ele><time>2026-04-27T08:23:24.001Z</time></trkpt><trkpt lat="42.555673762194715" lon="11.831657198540237"><ele>486.66666666666663</ele><time>2026-04-27T08:23:25.001Z</time></trkpt><trkpt lat="42.555845521265155" lon="11.831558235395207"><ele>488.33333333333337</ele><time>2026-04-27T08:23:26.001Z</time></trkpt><trkpt lat="42.55602708387949" lon="11.831451329149438"><ele>490.0</ele><time>2026-04-27T08:23:27.001Z</time></trkpt><trkpt lat="42.55620198080575" lon="11.83132438957324"><ele>491.33333333333337</ele><time>2026-04-27T08:23:28.001Z</time></trkpt><trkpt lat="42.55638099679219" lon="11.83121421723791"><ele>492.66666666666663</ele><time>2026-04-27T08:23:29.001Z</time></trkpt><trkpt lat="42.55656126456981" lon="11.831121997771758"><ele>494.0</ele><time>2026-04-27T08:23:30.001Z</time></trkpt><trkpt lat="42.55672770280883" lon="11.831005933951163"><ele>494.3333333333333</ele><time>2026-04-27T08:23:31.001Z</time></trkpt><trkpt lat="42.55688506560539" lon="11.830893151707432"><ele>494.66666666666663</ele><time>2026-04-27T08:23:32.001Z</time></trkpt><trkpt lat="42.55703576022344" lon="11.830785148658848"><ele>495.0</ele><time>2026-04-27T08:23:33.001Z</time></trkpt><trkpt lat="42.55717836274766" lon="11.830681093189824"><ele>496.33333333333337</ele><time>2026-04-27T08:23:34.001Z</time></trkpt><trkpt lat="42.557316038045485" lon="11.830581861151511"><ele>497.6666666666667</ele><time>2026-04-27T08:23:35.001Z</time></trkpt><trkpt lat="42.55745181046699" lon="11.83048423163383"><ele>499.0</ele><time>2026-04-27T08:23:36.001Z</time></trkpt><trkpt lat="42.55758725601657" lon="11.830388568175085"><ele>499.0</ele><time>2026-04-27T08:23:37.001Z</time></trkpt><trkpt lat="42.55772595098812" lon="11.830301229711568"><ele>499.0</ele><time>2026-04-27T08:23:38.001Z</time></trkpt><trkpt lat="42.557869329285126" lon="11.83023192910553"><ele>499.0</ele><time>2026-04-27T08:23:39.001Z</time></trkpt><trkpt lat="42.5580241474424" lon="11.830174580505963"><ele>501.6666666666667</ele><time>2026-04-27T08:23:40.001Z</time></trkpt><trkpt lat="42.55819433591753" lon="11.83012824328469"><ele>504.33333333333337</ele><time>2026-04-27T08:23:41.001Z</time></trkpt><trkpt lat="42.55837331968578" lon="11.830086694759316"><ele>507.0</ele><time>2026-04-27T08:23:42.001Z</time></trkpt><trkpt lat="42.55855833288139" lon="11.83004692632274"><ele>508.66666666666663</ele><time>2026-04-27T08:23:43.001Z</time></trkpt><trkpt lat="42.558754067847296" lon="11.83000462588297"><ele>510.3333333333333</ele><time>2026-04-27T08:23:44.001Z</time></trkpt><trkpt lat="42.558930951061114" lon="11.829962578911333"><ele>512.0</ele><time>2026-04-27T08:23:45.001Z</time></trkpt><trkpt lat="42.55907956758737" lon="11.829920623108354"><ele>512.0</ele><time>2026-04-27T08:23:46.001Z</time></trkpt><trkpt lat="42.55923399988519" lon="11.829870130926546"><ele>512.0</ele><time>2026-04-27T08:23:47.001Z</time></trkpt><trkpt lat="42.55939182940417" lon="11.829811163244475"><ele>512.0</ele><time>2026-04-27T08:23:48.001Z</time></trkpt><trkpt lat="42.559547150585736" lon="11.829748202310215"><ele>511.3333333333333</ele><time>2026-04-27T08:23:49.001Z</time></trkpt><trkpt lat="42.559703988321004" lon="11.829672220871744"><ele>510.66666666666663</ele><time>2026-04-27T08:23:50Z</time></trkpt><trkpt lat="42.55986168870837" lon="11.82958691781943"><ele>510.0</ele><time>2026-04-27T08:23:51Z</time></trkpt><trkpt lat="42.560014637691" lon="11.829495022759092"><ele>510.0</ele><time>2026-04-27T08:23:52Z</time></trkpt><trkpt lat="42.56016921829416" lon="11.82939860211871"><ele>510.0</ele><time>2026-04-27T08:23:53Z</time></trkpt><trkpt lat="42.56032349426419" lon="11.829298933927369"><ele>510.0</ele><time>2026-04-27T08:23:54Z</time></trkpt><trkpt lat="42.56045247213514" lon="11.829215609297277"><ele>510.5</ele><time>2026-04-27T08:23:55Z</time></trkpt><trkpt lat="42.560563007786186" lon="11.829121545716456"><ele>511.0</ele><time>2026-04-27T08:23:56Z</time></trkpt><trkpt lat="42.560679250537795" lon="11.829085619059509"><ele>511.5</ele><time>2026-04-27T08:23:57Z</time></trkpt><trkpt lat="42.56080063661526" lon="11.829077267215222"><ele>512.0</ele><time>2026-04-27T08:23:58Z</time></trkpt><trkpt lat="42.560930255397416" lon="11.829104436865048"><ele>512.0</ele><time>2026-04-27T08:23:59Z</time></trkpt><trkpt lat="42.56106167513419" lon="11.829159365445298"><ele>512.0</ele><time>2026-04-27T08:24:00Z</time></trkpt><trkpt lat="42.561197593304755" lon="11.829232047613617"><ele>512.0</ele><time>2026-04-27T08:24:01Z</time></trkpt><trkpt lat="42.561330157133085" lon="11.829320822357007"><ele>512.0</ele><time>2026-04-27T08:24:02Z</time></trkpt><trkpt lat="42.56145903439186" lon="11.829422308744945"><ele>509.66666666666663</ele><time>2026-04-27T08:24:03Z</time></trkpt><trkpt lat="42.56159226343056" lon="11.829544191780988"><ele>507.33333333333337</ele><time>2026-04-27T08:24:04Z</time></trkpt><trkpt lat="42.56171944011075" lon="11.82968653843894"><ele>505.0</ele><time>2026-04-27T08:24:05Z</time></trkpt><trkpt lat="42.56182574399796" lon="11.829865169029068"><ele>505.0</ele><time>2026-04-27T08:24:06Z</time></trkpt><trkpt lat="42.56193687390162" lon="11.830025916939098"><ele>505.0</ele><time>2026-04-27T08:24:07Z</time></trkpt><trkpt lat="42.562021505591076" lon="11.830207777415588"><ele>505.0</ele><time>2026-04-27T08:24:08Z</time></trkpt><trkpt lat="42.562143661259405" lon="11.830603075723353"><ele>503.0</ele><time>2026-04-27T08:24:10Z</time></trkpt><trkpt lat="42.56218370854071" lon="11.830785973376763"><ele>501.0</ele><time>2026-04-27T08:24:11Z</time></trkpt><trkpt lat="42.56220867161875" lon="11.830956047428085"><ele>499.0</ele><time>2026-04-27T08:24:12Z</time></trkpt><trkpt lat="42.56222443526782" lon="11.83110169274294"><ele>497.0</ele><time>2026-04-27T08:24:13Z</time></trkpt><trkpt lat="42.56223694901452" lon="11.831227392704065"><ele>496.0</ele><time>2026-04-27T08:24:14Z</time></trkpt><trkpt lat="42.56224588905761" lon="11.831321901335206"><ele>495.0</ele><time>2026-04-27T08:24:15Z</time></trkpt><trkpt lat="42.562465914456965" lon="11.831303767734108"><ele>494.0</ele><time>2026-04-27T08:24:17Z</time></trkpt><trkpt lat="42.56609452992886" lon="11.823859483233758"><ele>503.0</ele><time>2026-04-27T08:25:18.001Z</time></trkpt><trkpt lat="42.56618534850048" lon="11.823980933438921"><ele>512.0</ele><time>2026-04-27T08:25:21.001Z</time></trkpt><trkpt lat="42.566253562738154" lon="11.824074321783336"><ele>521.0</ele><time>2026-04-27T08:25:22.001Z</time></trkpt><trkpt lat="42.566419601558515" lon="11.824075186804514"><ele>530.0</ele><time>2026-04-27T08:25:23.001Z</time></trkpt><trkpt lat="42.56651425983433" lon="11.824183067327576"><ele>530.0</ele><time>2026-04-27T08:25:24.001Z</time></trkpt><trkpt lat="42.56662116834449" lon="11.824303737245634"><ele>530.0</ele><time>2026-04-27T08:25:25.001Z</time></trkpt><trkpt lat="42.566743383612305" lon="11.824444236476284"><ele>530.0</ele><time>2026-04-27T08:25:26.001Z</time></trkpt><trkpt lat="42.5668771614498" lon="11.82459709459645"><ele>529.6666666666666</ele><time>2026-04-27T08:25:27.001Z</time></trkpt><trkpt lat="42.56698951244825" lon="11.824788988123743"><ele>529.3333333333334</ele><time>2026-04-27T08:25:28.001Z</time></trkpt><trkpt lat="42.56713651138612" lon="11.824955434502375"><ele>529.0</ele><time>2026-04-27T08:25:29.001Z</time></trkpt><trkpt lat="42.56728357149231" lon="11.825122107005862"><ele>526.0</ele><time>2026-04-27T08:25:30.001Z</time></trkpt><trkpt lat="42.567422237636364" lon="11.825279429799474"><ele>523.0</ele><time>2026-04-27T08:25:31.001Z</time></trkpt><trkpt lat="42.56756676584434" lon="11.82544340475199"><ele>520.0</ele><time>2026-04-27T08:25:32.001Z</time></trkpt><trkpt lat="42.56771557322598" lon="11.82561183988748"><ele>520.0</ele><time>2026-04-27T08:25:33.001Z</time></trkpt><trkpt lat="42.56786579936125" lon="11.825780775086587"><ele>520.0</ele><time>2026-04-27T08:25:34.001Z</time></trkpt><trkpt lat="42.56801813842978" lon="11.825952086614109"><ele>520.0</ele><time>2026-04-27T08:25:35.001Z</time></trkpt><trkpt lat="42.56817065966011" lon="11.826122848310531"><ele>520.0</ele><time>2026-04-27T08:25:36.001Z</time></trkpt><trkpt lat="42.568321415371315" lon="11.826291899501113"><ele>520.0</ele><time>2026-04-27T08:25:37.001Z</time></trkpt><trkpt lat="42.5684669394825" lon="11.826458103199888"><ele>520.0</ele><time>2026-04-27T08:25:38.001Z</time></trkpt><trkpt lat="42.568604637640654" lon="11.82661536907096"><ele>520.6666666666667</ele><time>2026-04-27T08:25:39.001Z</time></trkpt><trkpt lat="42.56873859186968" lon="11.826766474403854"><ele>521.3333333333334</ele><time>2026-04-27T08:25:40.001Z</time></trkpt><trkpt lat="42.56887315464231" lon="11.826918146706833"><ele>522.0</ele><time>2026-04-27T08:25:41.001Z</time></trkpt><trkpt lat="42.56901326734348" lon="11.82707286673746"><ele>520.3333333333334</ele><time>2026-04-27T08:25:42.001Z</time></trkpt><trkpt lat="42.569163192305076" lon="11.827206145500286"><ele>518.6666666666667</ele><time>2026-04-27T08:25:43.001Z</time></trkpt><trkpt lat="42.56933581038368" lon="11.82734097656598"><ele>517.0</ele><time>2026-04-27T08:25:44.001Z</time></trkpt><trkpt lat="42.56951439108601" lon="11.827476222241637"><ele>516.6666666666667</ele><time>2026-04-27T08:25:45.001Z</time></trkpt><trkpt lat="42.56970213394021" lon="11.827615763684536"><ele>516.3333333333334</ele><time>2026-04-27T08:25:46.001Z</time></trkpt><trkpt lat="42.56989032805592" lon="11.827756442689916"><ele>516.0</ele><time>2026-04-27T08:25:47.001Z</time></trkpt><trkpt lat="42.57008574484492" lon="11.827900059595773"><ele>511.5</ele><time>2026-04-27T08:25:48.001Z</time></trkpt><trkpt lat="42.57044489740247" lon="11.828167760718799"><ele>507.0</ele><time>2026-04-27T08:25:50.001Z</time></trkpt><trkpt lat="42.570607698222595" lon="11.828287384495681"><ele>507.0</ele><time>2026-04-27T08:25:51.001Z</time></trkpt><trkpt lat="42.57076223038963" lon="11.82840200186677"><ele>507.0</ele><time>2026-04-27T08:25:52.001Z</time></trkpt><trkpt lat="42.570918987710655" lon="11.828518193982212"><ele>507.0</ele><time>2026-04-27T08:25:53.001Z</time></trkpt><trkpt lat="42.57107102776803" lon="11.828629799814093"><ele>505.66666666666663</ele><time>2026-04-27T08:25:54.001Z</time></trkpt><trkpt lat="42.57122101393893" lon="11.828739897938554"><ele>504.3333333333333</ele><time>2026-04-27T08:25:55.001Z</time></trkpt><trkpt lat="42.571368431507125" lon="11.828848964305184"><ele>503.0</ele><time>2026-04-27T08:25:55.999Z</time></trkpt><trkpt lat="42.57151933769778" lon="11.82893519751055"><ele>503.0</ele><time>2026-04-27T08:25:56.999Z</time></trkpt><trkpt lat="42.57165333619612" lon="11.82903676591002"><ele>503.0</ele><time>2026-04-27T08:25:57.999Z</time></trkpt><trkpt lat="42.571779687896836" lon="11.829129002856119"><ele>503.0</ele><time>2026-04-27T08:25:58.999Z</time></trkpt><trkpt lat="42.57189775476886" lon="11.829241461282189"><ele>503.0</ele><time>2026-04-27T08:25:59.999Z</time></trkpt><trkpt lat="42.572032392962114" lon="11.829342246354583"><ele>499.0</ele><time>2026-04-27T08:26:00.999Z</time></trkpt><trkpt lat="42.572170422564525" lon="11.829445601109489"><ele>495.0</ele><time>2026-04-27T08:26:02Z</time></trkpt><trkpt lat="42.57231391369183" lon="11.829553046812585"><ele>491.0</ele><time>2026-04-27T08:26:03Z</time></trkpt><trkpt lat="42.57246598867492" lon="11.829666918595056"><ele>491.0</ele><time>2026-04-27T08:26:04Z</time></trkpt><trkpt lat="42.57262021609172" lon="11.829781865799767"><ele>491.0</ele><time>2026-04-27T08:26:05Z</time></trkpt><trkpt lat="42.572786297047934" lon="11.829905593011807"><ele>491.0</ele><time>2026-04-27T08:26:06Z</time></trkpt><trkpt lat="42.57296854136383" lon="11.830041783674758"><ele>485.5</ele><time>2026-04-27T08:26:07Z</time></trkpt><trkpt lat="42.57316383960455" lon="11.8301919890834"><ele>480.0</ele><time>2026-04-27T08:26:08Z</time></trkpt><trkpt lat="42.57337210713969" lon="11.830353551806587"><ele>480.0</ele><time>2026-04-27T08:26:09Z</time></trkpt><trkpt lat="42.573581554484704" lon="11.83050887876106"><ele>480.0</ele><time>2026-04-27T08:26:10Z</time></trkpt><trkpt lat="42.57378931934911" lon="11.830662957859818"><ele>481.33333333333337</ele><time>2026-04-27T08:26:11Z</time></trkpt><trkpt lat="42.57398971031316" lon="11.83081156880878"><ele>482.6666666666667</ele><time>2026-04-27T08:26:12Z</time></trkpt><trkpt lat="42.57417890505106" lon="11.830954962525292"><ele>484.0</ele><time>2026-04-27T08:26:13Z</time></trkpt><trkpt lat="42.57437381116732" lon="11.831093387438909"><ele>487.33333333333337</ele><time>2026-04-27T08:26:14Z</time></trkpt><trkpt lat="42.57458237914453" lon="11.831194049580317"><ele>490.66666666666663</ele><time>2026-04-27T08:26:15Z</time></trkpt><trkpt lat="42.57479058324632" lon="11.831295895132435"><ele>494.0</ele><time>2026-04-27T08:26:16Z</time></trkpt><trkpt lat="42.575005348313205" lon="11.831377971060693"><ele>493.0</ele><time>2026-04-27T08:26:17Z</time></trkpt><trkpt lat="42.588627033988594" lon="11.835917313683762"><ele>495.5</ele><time>2026-04-27T08:27:18Z</time></trkpt><trkpt lat="42.58886999707184" lon="11.836015090066983"><ele>498.0</ele><time>2026-04-27T08:27:19Z</time></trkpt><trkpt lat="42.58911124016027" lon="11.836118588739888"><ele>498.0</ele><time>2026-04-27T08:27:20Z</time></trkpt><trkpt lat="42.58935352866062" lon="11.836230506769546"><ele>498.0</ele><time>2026-04-27T08:27:21Z</time></trkpt><trkpt lat="42.589600003383524" lon="11.836355229410307"><ele>495.5</ele><time>2026-04-27T08:27:22Z</time></trkpt><trkpt lat="42.589845928951455" lon="11.836475802844609"><ele>493.0</ele><time>2026-04-27T08:27:23Z</time></trkpt><trkpt lat="42.59009297865838" lon="11.836587175389633"><ele>494.5</ele><time>2026-04-27T08:27:24Z</time></trkpt><trkpt lat="42.59035212653775" lon="11.836692433898923"><ele>496.0</ele><time>2026-04-27T08:27:25Z</time></trkpt><trkpt lat="42.5906027363996" lon="11.836815267054925"><ele>496.0</ele><time>2026-04-27T08:27:26Z</time></trkpt><trkpt lat="42.59085796259949" lon="11.83695238548351"><ele>496.0</ele><time>2026-04-27T08:27:27Z</time></trkpt><trkpt lat="42.591117091635496" lon="11.837075005215771"><ele>498.5</ele><time>2026-04-27T08:27:28Z</time></trkpt><trkpt lat="42.591357180759985" lon="11.837198920361265"><ele>501.0</ele><time>2026-04-27T08:27:29Z</time></trkpt><trkpt lat="42.5915977572942" lon="11.837311407756976"><ele>501.0</ele><time>2026-04-27T08:27:30Z</time></trkpt><trkpt lat="42.5918345055091" lon="11.837402800807594"><ele>501.0</ele><time>2026-04-27T08:27:31Z</time></trkpt><trkpt lat="42.592084633729485" lon="11.837473609372486"><ele>501.0</ele><time>2026-04-27T08:27:32Z</time></trkpt><trkpt lat="42.59234055059135" lon="11.83753071345515"><ele>501.0</ele><time>2026-04-27T08:27:33Z</time></trkpt><trkpt lat="42.59260850643461" lon="11.837568627075921"><ele>505.0</ele><time>2026-04-27T08:27:34Z</time></trkpt><trkpt lat="42.592878518248725" lon="11.83759168544225"><ele>509.0</ele><time>2026-04-27T08:27:35Z</time></trkpt><trkpt lat="42.59315776778706" lon="11.837613781924095"><ele>510.0</ele><time>2026-04-27T08:27:36Z</time></trkpt><trkpt lat="42.59343091748519" lon="11.837653697797158"><ele>511.0</ele><time>2026-04-27T08:27:37Z</time></trkpt><trkpt lat="42.593684402962666" lon="11.837693599171509"><ele>511.0</ele><time>2026-04-27T08:27:38Z</time></trkpt><trkpt lat="42.593923126258936" lon="11.837716659008022"><ele>511.0</ele><time>2026-04-27T08:27:39Z</time></trkpt><trkpt lat="42.594140679489534" lon="11.837744177400113"><ele>511.0</ele><time>2026-04-27T08:27:40Z</time></trkpt><trkpt lat="42.594351964550704" lon="11.837768790428203"><ele>511.0</ele><time>2026-04-27T08:27:41Z</time></trkpt><trkpt lat="42.59455097001068" lon="11.837803041576363"><ele>511.0</ele><time>2026-04-27T08:27:42Z</time></trkpt><trkpt lat="42.59476701008485" lon="11.837862225794856"><ele>514.5</ele><time>2026-04-27T08:27:43Z</time></trkpt><trkpt lat="42.594991068052025" lon="11.837962808479206"><ele>518.0</ele><time>2026-04-27T08:27:44Z</time></trkpt><trkpt lat="42.595211131299315" lon="11.838070178518603"><ele>515.5</ele><time>2026-04-27T08:27:45Z</time></trkpt><trkpt lat="42.595442838039226" lon="11.838194874349442"><ele>513.0</ele><time>2026-04-27T08:27:46Z</time></trkpt><trkpt lat="42.59566999852802" lon="11.838323153243413"><ele>517.0</ele><time>2026-04-27T08:27:47Z</time></trkpt><trkpt lat="42.595923902964955" lon="11.838468163185976"><ele>521.0</ele><time>2026-04-27T08:27:48.001Z</time></trkpt><trkpt lat="42.59616968373914" lon="11.838610636244889"><ele>519.0</ele><time>2026-04-27T08:27:49.001Z</time></trkpt><trkpt lat="42.596414271969756" lon="11.838747462607229"><ele>517.0</ele><time>2026-04-27T08:27:50.001Z</time></trkpt><trkpt lat="42.59666152481831" lon="11.838889062020025"><ele>517.0</ele><time>2026-04-27T08:27:51.001Z</time></trkpt><trkpt lat="42.59690502408868" lon="11.839023023863247"><ele>517.0</ele><time>2026-04-27T08:27:52.001Z</time></trkpt><trkpt lat="42.597144354667215" lon="11.839155701077607"><ele>517.0</ele><time>2026-04-27T08:27:53.001Z</time></trkpt><trkpt lat="42.59737350001068" lon="11.83928148435882"><ele>517.0</ele><time>2026-04-27T08:27:54.001Z</time></trkpt><trkpt lat="42.59760133597693" lon="11.8394099577377"><ele>519.0</ele><time>2026-04-27T08:27:55.001Z</time></trkpt><trkpt lat="42.59782274112633" lon="11.83953790138119"><ele>521.0</ele><time>2026-04-27T08:27:56.001Z</time></trkpt><trkpt lat="42.598038767085605" lon="11.839662643314572"><ele>522.0</ele><time>2026-04-27T08:27:57.001Z</time></trkpt><trkpt lat="42.59825291570294" lon="11.839781562143502"><ele>523.0</ele><time>2026-04-27T08:27:58.001Z</time></trkpt><trkpt lat="42.5984659717753" lon="11.839903129155047"><ele>523.0</ele><time>2026-04-27T08:27:59.001Z</time></trkpt><trkpt lat="42.59866735551581" lon="11.840016832931369"><ele>523.0</ele><time>2026-04-27T08:28:00.001Z</time></trkpt><trkpt lat="42.59886986090807" lon="11.840135839233554"><ele>523.0</ele><time>2026-04-27T08:28:01.001Z</time></trkpt><trkpt lat="42.59908065056552" lon="11.840259092612074"><ele>524.0</ele><time>2026-04-27T08:28:02Z</time></trkpt><trkpt lat="42.59927709856936" lon="11.840375008139027"><ele>525.0</ele><time>2026-04-27T08:28:03Z</time></trkpt><trkpt lat="42.59949571837349" lon="11.840497699602311"><ele>525.0</ele><time>2026-04-27T08:28:04Z</time></trkpt><trkpt lat="42.59969772192061" lon="11.840617909818624"><ele>525.0</ele><time>2026-04-27T08:28:05Z</time></trkpt><trkpt lat="42.59989548487498" lon="11.840734228914743"><ele>525.0</ele><time>2026-04-27T08:28:06Z</time></trkpt><trkpt lat="42.600089274378846" lon="11.840852098079957"><ele>525.0</ele><time>2026-04-27T08:28:07Z</time></trkpt><trkpt lat="42.60027449878057" lon="11.840955484987035"><ele>525.0</ele><time>2026-04-27T08:28:08Z</time></trkpt><trkpt lat="42.60046610107325" lon="11.841066797778788"><ele>525.0</ele><time>2026-04-27T08:28:09Z</time></trkpt><trkpt lat="42.60064751303012" lon="11.841171782415781"><ele>526.6666666666666</ele><time>2026-04-27T08:28:10Z</time></trkpt><trkpt lat="42.6008132817521" lon="11.841308886753428"><ele>528.3333333333333</ele><time>2026-04-27T08:28:11Z</time></trkpt><trkpt lat="42.600986761499406" lon="11.841408940508401"><ele>530.0</ele><time>2026-04-27T08:28:12Z</time></trkpt><trkpt lat="42.60115477007554" lon="11.841505920400449"><ele>531.6666666666666</ele><time>2026-04-27T08:28:13Z</time></trkpt><trkpt lat="42.60133478854857" lon="11.841609909912867"><ele>533.3333333333334</ele><time>2026-04-27T08:28:14Z</time></trkpt><trkpt lat="42.601498207677565" lon="11.841704310612469"><ele>535.0</ele><time>2026-04-27T08:28:15Z</time></trkpt><trkpt lat="42.601648183156" lon="11.841790861863188"><ele>534.5</ele><time>2026-04-27T08:28:16Z</time></trkpt><trkpt lat="42.60180717537103" lon="11.841882323421183"><ele>534.0</ele><time>2026-04-27T08:28:17Z</time></trkpt><trkpt lat="42.61341589732213" lon="11.8406887129935"><ele>547.3333333333334</ele><time>2026-04-27T08:29:18Z</time></trkpt><trkpt lat="42.613587504829724" lon="11.840639198034463"><ele>560.6666666666667</ele><time>2026-04-27T08:29:19Z</time></trkpt><trkpt lat="42.61375132249791" lon="11.840599446881066"><ele>574.0</ele><time>2026-04-27T08:29:20Z</time></trkpt><trkpt lat="42.61390815942187" lon="11.840535748835443"><ele>571.6666666666667</ele><time>2026-04-27T08:29:21Z</time></trkpt><trkpt lat="42.61405191823752" lon="11.840439453117567"><ele>569.3333333333334</ele><time>2026-04-27T08:29:22Z</time></trkpt><trkpt lat="42.614186952636814" lon="11.840284180973798"><ele>567.0</ele><time>2026-04-27T08:29:23Z</time></trkpt><trkpt lat="42.61432415192305" lon="11.840115277768682"><ele>567.0</ele><time>2026-04-27T08:29:24Z</time></trkpt><trkpt lat="42.614467577768785" lon="11.839975353842798"><ele>567.0</ele><time>2026-04-27T08:29:25Z</time></trkpt><trkpt lat="42.61461362699264" lon="11.839873434919426"><ele>567.0</ele><time>2026-04-27T08:29:26Z</time></trkpt><trkpt lat="42.61478537728435" lon="11.839790167181583"><ele>573.0</ele><time>2026-04-27T08:29:27Z</time></trkpt><trkpt lat="42.61496449264942" lon="11.839710509065752"><ele>579.0</ele><time>2026-04-27T08:29:28Z</time></trkpt><trkpt lat="42.61515794812486" lon="11.839635288426322"><ele>585.0</ele><time>2026-04-27T08:29:29Z</time></trkpt><trkpt lat="42.615352212711166" lon="11.839558109360123"><ele>589.3333333333334</ele><time>2026-04-27T08:29:30Z</time></trkpt><trkpt lat="42.615532998893514" lon="11.839492527133402"><ele>593.6666666666667</ele><time>2026-04-27T08:29:31Z</time></trkpt><trkpt lat="42.61571385680516" lon="11.839442996317036"><ele>598.0</ele><time>2026-04-27T08:29:32Z</time></trkpt><trkpt lat="42.61590866207368" lon="11.839412623497207"><ele>598.0</ele><time>2026-04-27T08:29:33Z</time></trkpt><trkpt lat="42.61610734460013" lon="11.839402652690868"><ele>598.0</ele><time>2026-04-27T08:29:34Z</time></trkpt><trkpt lat="42.61629883677645" lon="11.839397555863124"><ele>598.0</ele><time>2026-04-27T08:29:35Z</time></trkpt><trkpt lat="42.61646641832016" lon="11.839399903254408"><ele>600.3333333333334</ele><time>2026-04-27T08:29:36Z</time></trkpt><trkpt lat="42.616618718617936" lon="11.839420389713027"><ele>602.6666666666666</ele><time>2026-04-27T08:29:37Z</time></trkpt><trkpt lat="42.61677565394897" lon="11.839474410486517"><ele>605.0</ele><time>2026-04-27T08:29:38Z</time></trkpt><trkpt lat="42.616938782373424" lon="11.839553973516765"><ele>604.6666666666666</ele><time>2026-04-27T08:29:39Z</time></trkpt><trkpt lat="42.61711500496381" lon="11.839635045978758"><ele>604.3333333333334</ele><time>2026-04-27T08:29:40Z</time></trkpt><trkpt lat="42.6173087428334" lon="11.83969744360087"><ele>604.0</ele><time>2026-04-27T08:29:41Z</time></trkpt><trkpt lat="42.617513995644295" lon="11.839744329546122"><ele>604.0</ele><time>2026-04-27T08:29:42Z</time></trkpt><trkpt lat="42.61772444966512" lon="11.839774941114307"><ele>604.0</ele><time>2026-04-27T08:29:43Z</time></trkpt><trkpt lat="42.61792250239163" lon="11.839795687889096"><ele>604.0</ele><time>2026-04-27T08:29:44Z</time></trkpt><trkpt lat="42.61809049244792" lon="11.839835014481588"><ele>604.25</ele><time>2026-04-27T08:29:45Z</time></trkpt><trkpt lat="42.61824363751282" lon="11.839844346425133"><ele>604.5</ele><time>2026-04-27T08:29:46Z</time></trkpt><trkpt lat="42.61837945027481" lon="11.839812312825957"><ele>604.75</ele><time>2026-04-27T08:29:47.001Z</time></trkpt><trkpt lat="42.6185134984831" lon="11.839743945785262"><ele>605.0</ele><time>2026-04-27T08:29:48.001Z</time></trkpt><trkpt lat="42.61863964149162" lon="11.839632418771213"><ele>609.0</ele><time>2026-04-27T08:29:49.001Z</time></trkpt><trkpt lat="42.618769481254766" lon="11.839497039775726"><ele>613.0</ele><time>2026-04-27T08:29:50.001Z</time></trkpt><trkpt lat="42.61891924727118" lon="11.839390174306041"><ele>617.0</ele><time>2026-04-27T08:29:51.001Z</time></trkpt><trkpt lat="42.619071094868836" lon="11.839320035751633"><ele>611.6666666666666</ele><time>2026-04-27T08:29:52.001Z</time></trkpt><trkpt lat="42.61923025453788" lon="11.839268808938343"><ele>606.3333333333334</ele><time>2026-04-27T08:29:53.001Z</time></trkpt><trkpt lat="42.61941747676505" lon="11.839224070261393"><ele>601.0</ele><time>2026-04-27T08:29:54.001Z</time></trkpt><trkpt lat="42.619627338241926" lon="11.839191016497976"><ele>601.0</ele><time>2026-04-27T08:29:55.001Z</time></trkpt><trkpt lat="42.61984549297868" lon="11.83916557797539"><ele>601.0</ele><time>2026-04-27T08:29:56.001Z</time></trkpt><trkpt lat="42.62006096188749" lon="11.839148469072097"><ele>601.0</ele><time>2026-04-27T08:29:57.001Z</time></trkpt><trkpt lat="42.62027679044751" lon="11.839137399427548"><ele>602.3333333333334</ele><time>2026-04-27T08:29:58.001Z</time></trkpt><trkpt lat="42.6204872322116" lon="11.839121244451693"><ele>603.6666666666666</ele><time>2026-04-27T08:29:59.001Z</time></trkpt><trkpt lat="42.620682650911675" lon="11.839112609699354"><ele>605.0</ele><time>2026-04-27T08:30:00.001Z</time></trkpt><trkpt lat="42.62087024371105" lon="11.839158884161467"><ele>605.0</ele><time>2026-04-27T08:30:01.001Z</time></trkpt><trkpt lat="42.62104609428404" lon="11.839146977150317"><ele>605.0</ele><time>2026-04-27T08:30:02.001Z</time></trkpt><trkpt lat="42.62121342575939" lon="11.83912610322952"><ele>605.0</ele><time>2026-04-27T08:30:03.001Z</time></trkpt><trkpt lat="42.621358077971934" lon="11.839073661499064"><ele>607.6666666666666</ele><time>2026-04-27T08:30:04.001Z</time></trkpt><trkpt lat="42.62149685489467" lon="11.83897967954385"><ele>610.3333333333334</ele><time>2026-04-27T08:30:05.001Z</time></trkpt><trkpt lat="42.621622006202216" lon="11.838853349923275"><ele>613.0</ele><time>2026-04-27T08:30:06.001Z</time></trkpt><trkpt lat="42.6217388781836" lon="11.83872084652854"><ele>613.0</ele><time>2026-04-27T08:30:07.001Z</time></trkpt><trkpt lat="42.621851769526366" lon="11.838589797056068"><ele>613.0</ele><time>2026-04-27T08:30:08Z</time></trkpt><trkpt lat="42.62196174968965" lon="11.838463252947486"><ele>613.0</ele><time>2026-04-27T08:30:09Z</time></trkpt><trkpt lat="42.62207138359427" lon="11.83834606042275"><ele>613.0</ele><time>2026-04-27T08:30:10Z</time></trkpt><trkpt lat="42.62219168884212" lon="11.8382355090752"><ele>614.25</ele><time>2026-04-27T08:30:11Z</time></trkpt><trkpt lat="42.622321564844704" lon="11.838148260857444"><ele>615.5</ele><time>2026-04-27T08:30:12Z</time></trkpt><trkpt lat="42.62245039368892" lon="11.838071306742929"><ele>616.75</ele><time>2026-04-27T08:30:13Z</time></trkpt><trkpt lat="42.62258037161628" lon="11.838004006014437"><ele>618.0</ele><time>2026-04-27T08:30:14Z</time></trkpt><trkpt lat="42.62270636855466" lon="11.837940143966875"><ele>620.6666666666666</ele><time>2026-04-27T08:30:15Z</time></trkpt><trkpt lat="42.622843753691114" lon="11.837870847796363"><ele>623.3333333333333</ele><time>2026-04-27T08:30:16Z</time></trkpt><trkpt lat="42.62298068749273" lon="11.83780356616587"><ele>626.0</ele><time>2026-04-27T08:30:17Z</time></trkpt><trkpt lat="42.63197206343263" lon="11.834913760963506"><ele>618.5</ele><time>2026-04-27T08:31:18Z</time></trkpt><trkpt lat="42.631867891567175" lon="11.834945528527136"><ele>611.0</ele><time>2026-04-27T08:31:20.001Z</time></trkpt><trkpt lat="42.631878280962646" lon="11.835048242171588"><ele>603.5</ele><time>2026-04-27T08:31:23.001Z</time></trkpt><trkpt lat="42.631918150512746" lon="11.83497726019961"><ele>596.0</ele><time>2026-04-27T08:31:30.001Z</time></trkpt><trkpt lat="42.63332651879424" lon="11.834922782034699"><ele>596.0</ele><time>2026-04-27T08:41:18Z</time></trkpt><trkpt lat="42.63346673072072" lon="11.835077894364089"><ele>596.0</ele><time>2026-04-27T08:41:19Z</time></trkpt><trkpt lat="42.63359629510873" lon="11.835221329988258"><ele>596.0</ele><time>2026-04-27T08:41:20Z</time></trkpt><trkpt lat="42.633715039489395" lon="11.835352787313306"><ele>596.0</ele><time>2026-04-27T08:41:21Z</time></trkpt><trkpt lat="42.63382860633612" lon="11.835473668941344"><ele>596.0</ele><time>2026-04-27T08:41:22Z</time></trkpt><trkpt lat="42.633940917993684" lon="11.83558204532676"><ele>596.0</ele><time>2026-04-27T08:41:23Z</time></trkpt><trkpt lat="42.634056820600655" lon="11.83567764249224"><ele>596.0</ele><time>2026-04-27T08:41:24Z</time></trkpt><trkpt lat="42.63419263714798" lon="11.835752870343441"><ele>596.0</ele><time>2026-04-27T08:41:25Z</time></trkpt><trkpt lat="42.634342792516115" lon="11.835803885004013"><ele>596.0</ele><time>2026-04-27T08:41:26Z</time></trkpt><trkpt lat="42.63447351829562" lon="11.83584410792832"><ele>596.0</ele><time>2026-04-27T08:41:27Z</time></trkpt><trkpt lat="42.63459696136674" lon="11.835884710868019"><ele>596.0</ele><time>2026-04-27T08:41:28Z</time></trkpt><trkpt lat="42.63472208148327" lon="11.835939403228538"><ele>595.75</ele><time>2026-04-27T08:41:29Z</time></trkpt><trkpt lat="42.634835230554096" lon="11.836018124380356"><ele>595.5</ele><time>2026-04-27T08:41:30Z</time></trkpt><trkpt lat="42.63495134512007" lon="11.83609983904063"><ele>595.25</ele><time>2026-04-27T08:41:31Z</time></trkpt><trkpt lat="42.63505702078422" lon="11.83616286658156"><ele>595.0</ele><time>2026-04-27T08:41:32Z</time></trkpt><trkpt lat="42.63518337126642" lon="11.836211320053755"><ele>594.5</ele><time>2026-04-27T08:41:33Z</time></trkpt><trkpt lat="42.635324402699844" lon="11.836240067198423"><ele>594.0</ele><time>2026-04-27T08:41:34Z</time></trkpt><trkpt lat="42.63546295942722" lon="11.836257972542661"><ele>593.5</ele><time>2026-04-27T08:41:35Z</time></trkpt><trkpt lat="42.63559444081923" lon="11.836253429187895"><ele>593.0</ele><time>2026-04-27T08:41:36Z</time></trkpt><trkpt lat="42.63571626876381" lon="11.836279431900904"><ele>593.0</ele><time>2026-04-27T08:41:37Z</time></trkpt><trkpt lat="42.63583332974048" lon="11.836296900386928"><ele>593.0</ele><time>2026-04-27T08:41:38Z</time></trkpt><trkpt lat="42.63594513449376" lon="11.836305329354209"><ele>593.0</ele><time>2026-04-27T08:41:39Z</time></trkpt><trkpt lat="42.63605858100736" lon="11.836321125655175"><ele>593.0</ele><time>2026-04-27T08:41:40Z</time></trkpt><trkpt lat="42.63617703349545" lon="11.836336364250071"><ele>589.5</ele><time>2026-04-27T08:41:41Z</time></trkpt><trkpt lat="42.63629891701712" lon="11.836362268085939"><ele>586.0</ele><time>2026-04-27T08:41:42Z</time></trkpt><trkpt lat="42.63642972848127" lon="11.836404961846355"><ele>582.5</ele><time>2026-04-27T08:41:43Z</time></trkpt><trkpt lat="42.63655823283043" lon="11.836467809547697"><ele>579.0</ele><time>2026-04-27T08:41:44Z</time></trkpt><trkpt lat="42.63670121972288" lon="11.836520008881365"><ele>579.0</ele><time>2026-04-27T08:41:45Z</time></trkpt><trkpt lat="42.636847738123805" lon="11.836566643912773"><ele>579.0</ele><time>2026-04-27T08:41:46Z</time></trkpt><trkpt lat="42.63699886734222" lon="11.836586374669661"><ele>579.0</ele><time>2026-04-27T08:41:47Z</time></trkpt><trkpt lat="42.637135074667995" lon="11.836608310413412"><ele>579.0</ele><time>2026-04-27T08:41:48Z</time></trkpt><trkpt lat="42.637276316199866" lon="11.836616212517088"><ele>578.75</ele><time>2026-04-27T08:41:49Z</time></trkpt><trkpt lat="42.6374108005298" lon="11.836620764673713"><ele>578.5</ele><time>2026-04-27T08:41:50Z</time></trkpt><trkpt lat="42.63753837491121" lon="11.836623889502688"><ele>578.25</ele><time>2026-04-27T08:41:51Z</time></trkpt><trkpt lat="42.63766291428433" lon="11.836626787527278"><ele>578.0</ele><time>2026-04-27T08:41:52Z</time></trkpt><trkpt lat="42.63779275566011" lon="11.836630083482417"><ele>577.75</ele><time>2026-04-27T08:41:53Z</time></trkpt><trkpt lat="42.63791636949336" lon="11.836640256044356"><ele>577.5</ele><time>2026-04-27T08:41:54Z</time></trkpt><trkpt lat="42.63803277457144" lon="11.83667379085672"><ele>577.25</ele><time>2026-04-27T08:41:55Z</time></trkpt><trkpt lat="42.63813238350323" lon="11.836757044031447"><ele>577.0</ele><time>2026-04-27T08:41:56Z</time></trkpt><trkpt lat="42.63822968817122" lon="11.836842865278328"><ele>577.0</ele><time>2026-04-27T08:41:57Z</time></trkpt><trkpt lat="42.63830865837634" lon="11.836956388913732"><ele>577.0</ele><time>2026-04-27T08:41:58Z</time></trkpt><trkpt lat="42.63836141588669" lon="11.837084940805141"><ele>577.0</ele><time>2026-04-27T08:41:59Z</time></trkpt><trkpt lat="42.63842495344743" lon="11.83720063653686"><ele>577.0</ele><time>2026-04-27T08:42:00Z</time></trkpt><trkpt lat="42.638488981530465" lon="11.837309752727519"><ele>577.0</ele><time>2026-04-27T08:42:01Z</time></trkpt><trkpt lat="42.63858975589999" lon="11.837398082799682"><ele>574.25</ele><time>2026-04-27T08:42:02Z</time></trkpt><trkpt lat="42.63869505327675" lon="11.837514972646"><ele>571.5</ele><time>2026-04-27T08:42:03Z</time></trkpt><trkpt lat="42.638811332334406" lon="11.837599766449973"><ele>568.75</ele><time>2026-04-27T08:42:04Z</time></trkpt><trkpt lat="42.63892073266715" lon="11.837679407821797"><ele>566.0</ele><time>2026-04-27T08:42:05Z</time></trkpt><trkpt lat="42.639034694404124" lon="11.837740024242333"><ele>566.0</ele><time>2026-04-27T08:42:06Z</time></trkpt><trkpt lat="42.639123577170615" lon="11.837813635091427"><ele>566.0</ele><time>2026-04-27T08:42:07Z</time></trkpt><trkpt lat="42.63920294226942" lon="11.837882846791269"><ele>566.0</ele><time>2026-04-27T08:42:08Z</time></trkpt><trkpt lat="42.639267866273784" lon="11.837941058942874"><ele>566.0</ele><time>2026-04-27T08:42:09Z</time></trkpt><trkpt lat="42.63934960508947" lon="11.838006348841516"><ele>566.0</ele><time>2026-04-27T08:42:10Z</time></trkpt><trkpt lat="42.639408541511735" lon="11.838069546880268"><ele>566.0</ele><time>2026-04-27T08:42:11Z</time></trkpt><trkpt lat="42.63946782030173" lon="11.838229014364252"><ele>566.0</ele><time>2026-04-27T08:42:13Z</time></trkpt><trkpt lat="42.639468974043524" lon="11.838350467722819"><ele>566.0</ele><time>2026-04-27T08:42:14Z</time></trkpt><trkpt lat="42.639434763290545" lon="11.838461847206181"><ele>566.0</ele><time>2026-04-27T08:42:15Z</time></trkpt><trkpt lat="42.63937457462649" lon="11.83854985375218"><ele>566.0</ele><time>2026-04-27T08:42:16Z</time></trkpt><trkpt lat="42.6393081744872" lon="11.838634370496603"><ele>566.0</ele><time>2026-04-27T08:42:17Z</time></trkpt><trkpt lat="42.64518306129255" lon="11.839990679838786"><ele>557.6666666666666</ele><time>2026-04-27T08:43:17.999Z</time></trkpt><trkpt lat="42.645329370180576" lon="11.840050389973035"><ele>549.3333333333334</ele><time>2026-04-27T08:43:18.999Z</time></trkpt><trkpt lat="42.64547697140877" lon="11.840106302570833"><ele>541.0</ele><time>2026-04-27T08:43:19.999Z</time></trkpt><trkpt lat="42.645638008715174" lon="11.840162710357692"><ele>541.0</ele><time>2026-04-27T08:43:20.999Z</time></trkpt><trkpt lat="42.64582248415786" lon="11.840220887338644"><ele>541.0</ele><time>2026-04-27T08:43:21.999Z</time></trkpt><trkpt lat="42.64602883349803" lon="11.840270994577114"><ele>541.0</ele><time>2026-04-27T08:43:22.999Z</time></trkpt><trkpt lat="42.646217166881726" lon="11.840302831577889"><ele>539.3333333333334</ele><time>2026-04-27T08:43:23.999Z</time></trkpt><trkpt lat="42.64638597024597" lon="11.840322777088208"><ele>537.6666666666666</ele><time>2026-04-27T08:43:24.999Z</time></trkpt><trkpt lat="42.64653780045552" lon="11.84034380047142"><ele>536.0</ele><time>2026-04-27T08:43:25.999Z</time></trkpt><trkpt lat="42.64669250888991" lon="11.840353544965929"><ele>536.0</ele><time>2026-04-27T08:43:26.999Z</time></trkpt><trkpt lat="42.64684096290517" lon="11.840394967723046"><ele>536.0</ele><time>2026-04-27T08:43:28Z</time></trkpt><trkpt lat="42.64698587124183" lon="11.840469044455974"><ele>536.0</ele><time>2026-04-27T08:43:29Z</time></trkpt><trkpt lat="42.64713713896936" lon="11.840538889904003"><ele>535.6666666666666</ele><time>2026-04-27T08:43:30Z</time></trkpt><trkpt lat="42.647290500810016" lon="11.840609051429338"><ele>535.3333333333334</ele><time>2026-04-27T08:43:31Z</time></trkpt><trkpt lat="42.647465890605034" lon="11.840688559954266"><ele>535.0</ele><time>2026-04-27T08:43:32Z</time></trkpt><trkpt lat="42.647667106896854" lon="11.840781678753824"><ele>533.0</ele><time>2026-04-27T08:43:33Z</time></trkpt><trkpt lat="42.64788229067488" lon="11.840881261442526"><ele>531.0</ele><time>2026-04-27T08:43:34Z</time></trkpt><trkpt lat="42.64810392182633" lon="11.84098382785052"><ele>531.0</ele><time>2026-04-27T08:43:35Z</time></trkpt><trkpt lat="42.648334025554746" lon="11.841090315190945"><ele>531.0</ele><time>2026-04-27T08:43:36Z</time></trkpt><trkpt lat="42.64857496011296" lon="11.841201625336016"><ele>528.0</ele><time>2026-04-27T08:43:37Z</time></trkpt><trkpt lat="42.64881465458361" lon="11.841297512356043"><ele>525.0</ele><time>2026-04-27T08:43:38Z</time></trkpt><trkpt lat="42.64904174362266" lon="11.841427567359702"><ele>525.0</ele><time>2026-04-27T08:43:39Z</time></trkpt><trkpt lat="42.64924927912056" lon="11.841579307488535"><ele>525.0</ele><time>2026-04-27T08:43:40Z</time></trkpt><trkpt lat="42.649455859103696" lon="11.841711287560619"><ele>523.3333333333334</ele><time>2026-04-27T08:43:41Z</time></trkpt><trkpt lat="42.64963702906027" lon="11.84182360257566"><ele>521.6666666666667</ele><time>2026-04-27T08:43:42Z</time></trkpt><trkpt lat="42.6497982162954" lon="11.841932097428247"><ele>520.0</ele><time>2026-04-27T08:43:43Z</time></trkpt><trkpt lat="42.64995025340725" lon="11.842057315093156"><ele>520.0</ele><time>2026-04-27T08:43:44Z</time></trkpt><trkpt lat="42.650081996974095" lon="11.842221982794026"><ele>520.0</ele><time>2026-04-27T08:43:45Z</time></trkpt><trkpt lat="42.650217646789415" lon="11.842409133632046"><ele>520.0</ele><time>2026-04-27T08:43:46Z</time></trkpt><trkpt lat="42.65035486457626" lon="11.842603629147154"><ele>518.6666666666667</ele><time>2026-04-27T08:43:47Z</time></trkpt><trkpt lat="42.65049955635896" lon="11.842765338315747"><ele>517.3333333333334</ele><time>2026-04-27T08:43:48Z</time></trkpt><trkpt lat="42.650664935530706" lon="11.842881814489527"><ele>516.0</ele><time>2026-04-27T08:43:49Z</time></trkpt><trkpt lat="42.65085016166893" lon="11.84298691694387"><ele>516.0</ele><time>2026-04-27T08:43:50Z</time></trkpt><trkpt lat="42.65104956592735" lon="11.843086433265208"><ele>516.0</ele><time>2026-04-27T08:43:51Z</time></trkpt><trkpt lat="42.65125826860692" lon="11.843167331773454"><ele>516.0</ele><time>2026-04-27T08:43:52Z</time></trkpt><trkpt lat="42.651471927370395" lon="11.843239105782418"><ele>514.6666666666666</ele><time>2026-04-27T08:43:53Z</time></trkpt><trkpt lat="42.651679087933395" lon="11.843301819948257"><ele>513.3333333333333</ele><time>2026-04-27T08:43:54Z</time></trkpt><trkpt lat="42.651874864578915" lon="11.843361471094825"><ele>512.0</ele><time>2026-04-27T08:43:55Z</time></trkpt><trkpt lat="42.65204691054979" lon="11.843418466409206"><ele>510.0</ele><time>2026-04-27T08:43:56Z</time></trkpt><trkpt lat="42.65218014057986" lon="11.843486578296373"><ele>508.0</ele><time>2026-04-27T08:43:57Z</time></trkpt><trkpt lat="42.65229584792446" lon="11.843609207429822"><ele>506.0</ele><time>2026-04-27T08:43:58Z</time></trkpt><trkpt lat="42.652401090457786" lon="11.843775347864057"><ele>506.0</ele><time>2026-04-27T08:43:59Z</time></trkpt><trkpt lat="42.65251143494422" lon="11.843968439950704"><ele>506.0</ele><time>2026-04-27T08:44:00Z</time></trkpt><trkpt lat="42.652624808835526" lon="11.844175244199148"><ele>506.0</ele><time>2026-04-27T08:44:01Z</time></trkpt><trkpt lat="42.652740579719804" lon="11.844386420720525"><ele>508.3333333333333</ele><time>2026-04-27T08:44:02Z</time></trkpt><trkpt lat="42.65284931964515" lon="11.844581141221303"><ele>510.66666666666663</ele><time>2026-04-27T08:44:03Z</time></trkpt><trkpt lat="42.65297406236686" lon="11.844766810398907"><ele>513.0</ele><time>2026-04-27T08:44:04Z</time></trkpt><trkpt lat="42.6531224887632" lon="11.84493176631246"><ele>513.0</ele><time>2026-04-27T08:44:05Z</time></trkpt><trkpt lat="42.65328877134282" lon="11.84508370212283"><ele>513.0</ele><time>2026-04-27T08:44:06Z</time></trkpt><trkpt lat="42.65346984535918" lon="11.845244276185186"><ele>513.0</ele><time>2026-04-27T08:44:07Z</time></trkpt><trkpt lat="42.65366109818429" lon="11.845413654514646"><ele>511.0</ele><time>2026-04-27T08:44:08Z</time></trkpt><trkpt lat="42.65385570365693" lon="11.845585051566115"><ele>509.0</ele><time>2026-04-27T08:44:09Z</time></trkpt><trkpt lat="42.6540523850925" lon="11.845760599055762"><ele>509.0</ele><time>2026-04-27T08:44:10Z</time></trkpt><trkpt lat="42.65425539084971" lon="11.845940699674669"><ele>509.0</ele><time>2026-04-27T08:44:11Z</time></trkpt><trkpt lat="42.65446562617348" lon="11.846125461149812"><ele>507.0</ele><time>2026-04-27T08:44:12Z</time></trkpt><trkpt lat="42.654685531803715" lon="11.84631725989438"><ele>505.0</ele><time>2026-04-27T08:44:13Z</time></trkpt><trkpt lat="42.65490150222799" lon="11.846504511714368"><ele>505.0</ele><time>2026-04-27T08:44:14Z</time></trkpt><trkpt lat="42.655116426600934" lon="11.846690856277634"><ele>505.0</ele><time>2026-04-27T08:44:15Z</time></trkpt><trkpt lat="42.65532153962794" lon="11.846868694329824"><ele>504.5</ele><time>2026-04-27T08:44:16Z</time></trkpt><trkpt lat="42.65551592383636" lon="11.847033331953753"><ele>504.0</ele><time>2026-04-27T08:44:17Z</time></trkpt><trkpt lat="42.66472232811842" lon="11.854096371649177"><ele>504.0</ele><time>2026-04-27T08:45:17.999Z</time></trkpt><trkpt lat="42.66482192151507" lon="11.854209487215671"><ele>504.0</ele><time>2026-04-27T08:45:18.999Z</time></trkpt><trkpt lat="42.664911340301146" lon="11.854325828282684"><ele>504.0</ele><time>2026-04-27T08:45:19.999Z</time></trkpt><trkpt lat="42.665003453523745" lon="11.85444765203804"><ele>504.0</ele><time>2026-04-27T08:45:20.999Z</time></trkpt><trkpt lat="42.66508859390365" lon="11.854569520179119"><ele>503.75</ele><time>2026-04-27T08:45:21.999Z</time></trkpt><trkpt lat="42.6651847192835" lon="11.854700791540997"><ele>503.5</ele><time>2026-04-27T08:45:22.999Z</time></trkpt><trkpt lat="42.665288457931155" lon="11.854840238507633"><ele>503.25</ele><time>2026-04-27T08:45:24Z</time></trkpt><trkpt lat="42.66540704311609" lon="11.8549789157601"><ele>503.0</ele><time>2026-04-27T08:45:25Z</time></trkpt><trkpt lat="42.66552345168179" lon="11.855117248639424"><ele>504.0</ele><time>2026-04-27T08:45:26Z</time></trkpt><trkpt lat="42.66563931037382" lon="11.855242691575436"><ele>505.0</ele><time>2026-04-27T08:45:27Z</time></trkpt><trkpt lat="42.66575734115066" lon="11.855370776562658"><ele>506.0</ele><time>2026-04-27T08:45:28Z</time></trkpt><trkpt lat="42.66587804615715" lon="11.855502038166339"><ele>506.0</ele><time>2026-04-27T08:45:29Z</time></trkpt><trkpt lat="42.66600085547156" lon="11.855627259696446"><ele>506.0</ele><time>2026-04-27T08:45:30Z</time></trkpt><trkpt lat="42.66612587392692" lon="11.855748644505994"><ele>506.0</ele><time>2026-04-27T08:45:31Z</time></trkpt><trkpt lat="42.66625143886305" lon="11.855868051257373"><ele>506.0</ele><time>2026-04-27T08:45:32Z</time></trkpt><trkpt lat="42.66638630033001" lon="11.855987622070929"><ele>506.0</ele><time>2026-04-27T08:45:33Z</time></trkpt><trkpt lat="42.66652670677343" lon="11.856117706205483"><ele>506.0</ele><time>2026-04-27T08:45:34Z</time></trkpt><trkpt lat="42.666670803009886" lon="11.85625325282765"><ele>506.0</ele><time>2026-04-27T08:45:35Z</time></trkpt><trkpt lat="42.66681465001946" lon="11.85638871838083"><ele>506.0</ele><time>2026-04-27T08:45:36Z</time></trkpt><trkpt lat="42.666952513551" lon="11.856558224470874"><ele>506.0</ele><time>2026-04-27T08:45:37Z</time></trkpt><trkpt lat="42.66712701713957" lon="11.856727261058653"><ele>507.0</ele><time>2026-04-27T08:45:38Z</time></trkpt><trkpt lat="42.6673031165832" lon="11.85691171344733"><ele>508.0</ele><time>2026-04-27T08:45:39Z</time></trkpt><trkpt lat="42.66747459827995" lon="11.857094205104765"><ele>509.0</ele><time>2026-04-27T08:45:40Z</time></trkpt><trkpt lat="42.667643733470776" lon="11.857250452040127"><ele>508.66666666666663</ele><time>2026-04-27T08:45:41Z</time></trkpt><trkpt lat="42.66780505642441" lon="11.857411027147965"><ele>508.33333333333337</ele><time>2026-04-27T08:45:42Z</time></trkpt><trkpt lat="42.667971083458475" lon="11.857556955138127"><ele>508.0</ele><time>2026-04-27T08:45:43Z</time></trkpt><trkpt lat="42.66815572808388" lon="11.857687797940319"><ele>508.0</ele><time>2026-04-27T08:45:44Z</time></trkpt><trkpt lat="42.66835282763406" lon="11.85779527782962"><ele>508.0</ele><time>2026-04-27T08:45:45Z</time></trkpt><trkpt lat="42.668546206300505" lon="11.857918454549406"><ele>508.0</ele><time>2026-04-27T08:45:46Z</time></trkpt><trkpt lat="42.668749674580134" lon="11.85802739531988"><ele>507.33333333333337</ele><time>2026-04-27T08:45:47Z</time></trkpt><trkpt lat="42.668949164197706" lon="11.85813604844931"><ele>506.66666666666663</ele><time>2026-04-27T08:45:48Z</time></trkpt><trkpt lat="42.66913722599334" lon="11.85824730954441"><ele>506.0</ele><time>2026-04-27T08:45:49Z</time></trkpt><trkpt lat="42.669310392901714" lon="11.858362258539005"><ele>505.66666666666663</ele><time>2026-04-27T08:45:50Z</time></trkpt><trkpt lat="42.66945817502156" lon="11.858497224981905"><ele>505.33333333333337</ele><time>2026-04-27T08:45:51Z</time></trkpt><trkpt lat="42.669599051126426" lon="11.858660222068126"><ele>505.0</ele><time>2026-04-27T08:45:52Z</time></trkpt><trkpt lat="42.669741254136106" lon="11.858836545067547"><ele>505.0</ele><time>2026-04-27T08:45:53Z</time></trkpt><trkpt lat="42.669888479690314" lon="11.85902724966431"><ele>505.0</ele><time>2026-04-27T08:45:54Z</time></trkpt><trkpt lat="42.67003607414976" lon="11.859221997777908"><ele>505.0</ele><time>2026-04-27T08:45:55Z</time></trkpt><trkpt lat="42.67018110718993" lon="11.859413523502424"><ele>503.33333333333337</ele><time>2026-04-27T08:45:56Z</time></trkpt><trkpt lat="42.67031567158539" lon="11.859589200997176"><ele>501.66666666666663</ele><time>2026-04-27T08:45:57Z</time></trkpt><trkpt lat="42.670438359107976" lon="11.859749372912319"><ele>500.0</ele><time>2026-04-27T08:45:58Z</time></trkpt><trkpt lat="42.67054481189813" lon="11.859894395823494"><ele>500.0</ele><time>2026-04-27T08:45:59Z</time></trkpt><trkpt lat="42.670637154291924" lon="11.860023948181958"><ele>500.0</ele><time>2026-04-27T08:46:00Z</time></trkpt><trkpt lat="42.67071864151607" lon="11.860158592559966"><ele>500.0</ele><time>2026-04-27T08:46:01Z</time></trkpt><trkpt lat="42.670791301636044" lon="11.860298168677181"><ele>500.0</ele><time>2026-04-27T08:46:02Z</time></trkpt><trkpt lat="42.67084984749507" lon="11.86043662792166"><ele>499.4</ele><time>2026-04-27T08:46:03Z</time></trkpt><trkpt lat="42.67089416221063" lon="11.860571548055686"><ele>498.8</ele><time>2026-04-27T08:46:04Z</time></trkpt><trkpt lat="42.670920321288676" lon="11.860688989015484"><ele>498.20000000000005</ele><time>2026-04-27T08:46:05Z</time></trkpt><trkpt lat="42.67093465429923" lon="11.860801963844441"><ele>497.6</ele><time>2026-04-27T08:46:06Z</time></trkpt><trkpt lat="42.67094340194218" lon="11.86089809606343"><ele>497.0</ele><time>2026-04-27T08:46:07Z</time></trkpt><trkpt lat="42.67111936814092" lon="11.860945898280333"><ele>496.75</ele><time>2026-04-27T08:46:09Z</time></trkpt><trkpt lat="42.6712084433462" lon="11.86091355957044"><ele>496.5</ele><time>2026-04-27T08:46:10Z</time></trkpt><trkpt lat="42.6713190803981" lon="11.860872638962284"><ele>496.25</ele><time>2026-04-27T08:46:11Z</time></trkpt><trkpt lat="42.67144762328727" lon="11.860853496584328"><ele>496.0</ele><time>2026-04-27T08:46:12Z</time></trkpt><trkpt lat="42.67159308127366" lon="11.86086170812299"><ele>496.0</ele><time>2026-04-27T08:46:13Z</time></trkpt><trkpt lat="42.67175637498929" lon="11.860870062684768"><ele>496.0</ele><time>2026-04-27T08:46:14Z</time></trkpt><trkpt lat="42.67190499519367" lon="11.860858767583162"><ele>496.0</ele><time>2026-04-27T08:46:15Z</time></trkpt><trkpt lat="42.6720432575091" lon="11.86079510967867"><ele>497.0</ele><time>2026-04-27T08:46:16.001Z</time></trkpt><trkpt lat="42.67217206559347" lon="11.860695725448327"><ele>498.0</ele><time>2026-04-27T08:46:17.001Z</time></trkpt><trkpt lat="42.67591384850331" lon="11.865808172534502"><ele>498.0</ele><time>2026-04-27T08:47:23Z</time></trkpt><trkpt lat="42.67588337682513" lon="11.86572976094814"><ele>498.0</ele><time>2026-04-27T08:47:36Z</time></trkpt><trkpt lat="42.67583552581654" lon="11.865645075296259"><ele>498.0</ele><time>2026-04-27T08:47:38Z</time></trkpt><trkpt lat="42.67577738523165" lon="11.86558807047427"><ele>498.0</ele><time>2026-04-27T08:47:40Z</time></trkpt><trkpt lat="42.67570223400409" lon="11.865566764466422"><ele>498.0</ele><time>2026-04-27T08:47:41Z</time></trkpt><trkpt lat="42.67567026289655" lon="11.865483485916918"><ele>498.0</ele><time>2026-04-27T08:47:42Z</time></trkpt><trkpt lat="42.675785758735245" lon="11.86522831014004"><ele>497.4</ele><time>2026-04-27T08:47:43Z</time></trkpt><trkpt lat="42.6757527026548" lon="11.865089343115832"><ele>496.79999999999995</ele><time>2026-04-27T08:47:44Z</time></trkpt><trkpt lat="42.67572082883583" lon="11.864955300727395"><ele>496.2</ele><time>2026-04-27T08:47:45Z</time></trkpt><trkpt lat="42.67569480139066" lon="11.864837053375634"><ele>495.6</ele><time>2026-04-27T08:47:46Z</time></trkpt><trkpt lat="42.67568127282333" lon="11.864722191481746"><ele>495.0</ele><time>2026-04-27T08:47:47Z</time></trkpt><trkpt lat="42.67567988333576" lon="11.864624222204567"><ele>495.0</ele><time>2026-04-27T08:47:48Z</time></trkpt><trkpt lat="42.6756846030308" lon="11.864497251005018"><ele>495.0</ele><time>2026-04-27T08:47:50Z</time></trkpt><trkpt lat="42.67553321229961" lon="11.864464312214825"><ele>495.0</ele><time>2026-04-27T08:47:51Z</time></trkpt><trkpt lat="42.675411535751095" lon="11.864513665707488"><ele>495.0</ele><time>2026-04-27T08:47:53.001Z</time></trkpt><trkpt lat="42.67534971161773" lon="11.86456432162452"><ele>495.0</ele><time>2026-04-27T08:47:54.001Z</time></trkpt><trkpt lat="42.67527882734718" lon="11.864581974561622"><ele>495.0</ele><time>2026-04-27T08:47:55.001Z</time></trkpt><trkpt lat="42.675219724001245" lon="11.864636756823133"><ele>495.0</ele><time>2026-04-27T08:47:56.001Z</time></trkpt><trkpt lat="42.67515051510814" lon="11.864662635279132"><ele>495.0</ele><time>2026-04-27T08:47:57.001Z</time></trkpt><trkpt lat="42.67507520652256" lon="11.864678371682132"><ele>495.0</ele><time>2026-04-27T08:47:58.001Z</time></trkpt><trkpt lat="42.67499780156282" lon="11.864709497461506"><ele>495.0</ele><time>2026-04-27T08:47:59.001Z</time></trkpt><trkpt lat="42.67491388598321" lon="11.864741330365868"><ele>495.0</ele><time>2026-04-27T08:48:00.001Z</time></trkpt><trkpt lat="42.674837002323585" lon="11.864704717717766"><ele>495.0</ele><time>2026-04-27T08:48:01.001Z</time></trkpt><trkpt lat="42.674762550755744" lon="11.86465487572552"><ele>495.0</ele><time>2026-04-27T08:48:02.001Z</time></trkpt><trkpt lat="42.67470517865833" lon="11.864569864817641"><ele>495.0</ele><time>2026-04-27T08:48:03.001Z</time></trkpt><trkpt lat="42.674671610130815" lon="11.86445283634237"><ele>495.0</ele><time>2026-04-27T08:48:04.001Z</time></trkpt><trkpt lat="42.67464718621307" lon="11.864337013525045"><ele>495.0</ele><time>2026-04-27T08:48:05.001Z</time></trkpt><trkpt lat="42.67462219719624" lon="11.864227041744439"><ele>495.0</ele><time>2026-04-27T08:48:06.001Z</time></trkpt><trkpt lat="42.67458519662644" lon="11.86414632817538"><ele>495.0</ele><time>2026-04-27T08:48:07.001Z</time></trkpt><trkpt lat="42.67453331692955" lon="11.864080265262494"><ele>495.0</ele><time>2026-04-27T08:48:08.001Z</time></trkpt><trkpt lat="42.67446811556799" lon="11.864044676691028"><ele>495.0</ele><time>2026-04-27T08:48:09.001Z</time></trkpt><trkpt lat="42.6743960097908" lon="11.864028113619264"><ele>495.0</ele><time>2026-04-27T08:48:10.001Z</time></trkpt><trkpt lat="42.674313498392536" lon="11.86401430327102"><ele>495.0</ele><time>2026-04-27T08:48:11.001Z</time></trkpt><trkpt lat="42.67422523121462" lon="11.86399998760576"><ele>495.0</ele><time>2026-04-27T08:48:12.001Z</time></trkpt><trkpt lat="42.67414160522936" lon="11.863994669223457"><ele>493.0</ele><time>2026-04-27T08:48:13.001Z</time></trkpt><trkpt lat="42.674062530157734" lon="11.864008031065177"><ele>491.0</ele><time>2026-04-27T08:48:14.001Z</time></trkpt><trkpt lat="42.673989595088436" lon="11.864056910445713"><ele>489.0</ele><time>2026-04-27T08:48:15.001Z</time></trkpt><trkpt lat="42.6739164266128" lon="11.864133411833002"><ele>487.0</ele><time>2026-04-27T08:48:16.001Z</time></trkpt><trkpt lat="42.673857538784006" lon="11.8642489516677"><ele>485.0</ele><time>2026-04-27T08:48:17.001Z</time></trkpt><trkpt lat="42.67477026301421" lon="11.870368828852518"><ele>478.49999999999994</ele><time>2026-04-27T08:49:18Z</time></trkpt><trkpt lat="42.674711291152086" lon="11.870437256158244"><ele>472.0</ele><time>2026-04-27T08:49:19Z</time></trkpt><trkpt lat="42.674635243792444" lon="11.87055698403053"><ele>465.5</ele><time>2026-04-27T08:49:20Z</time></trkpt><trkpt lat="42.674574563137526" lon="11.870651135995749"><ele>459.0</ele><time>2026-04-27T08:49:21Z</time></trkpt><trkpt lat="42.674521875045954" lon="11.870733530711968"><ele>452.49999999999994</ele><time>2026-04-27T08:49:22Z</time></trkpt><trkpt lat="42.67448812076205" lon="11.870813886864662"><ele>446.0</ele><time>2026-04-27T08:49:23Z</time></trkpt><trkpt lat="42.674443576679316" lon="11.870884789759875"><ele>448.66666666666663</ele><time>2026-04-27T08:49:24Z</time></trkpt><trkpt lat="42.67440262736248" lon="11.870950939960949"><ele>451.3333333333333</ele><time>2026-04-27T08:49:25Z</time></trkpt><trkpt lat="42.674344422233034" lon="11.871046096478526"><ele>454.0</ele><time>2026-04-27T08:49:27Z</time></trkpt><trkpt lat="42.67427646442068" lon="11.871121712723369"><ele>456.66666666666663</ele><time>2026-04-27T08:49:29Z</time></trkpt><trkpt lat="42.67419446215929" lon="11.871246679945061"><ele>459.3333333333333</ele><time>2026-04-27T08:49:31Z</time></trkpt><trkpt lat="42.674149481440146" lon="11.871312947170736"><ele>462.0</ele><time>2026-04-27T08:49:32Z</time></trkpt><trkpt lat="42.67410497453904" lon="11.871375013979053"><ele>462.0</ele><time>2026-04-27T08:49:33Z</time></trkpt><trkpt lat="42.67405315069398" lon="11.871445310571426"><ele>462.00000000000006</ele><time>2026-04-27T08:49:34Z</time></trkpt><trkpt lat="42.67400466326072" lon="11.871500406986414"><ele>462.00000000000006</ele><time>2026-04-27T08:49:35Z</time></trkpt><trkpt lat="42.67393391395321" lon="11.87152336057626"><ele>462.0</ele><time>2026-04-27T08:49:36Z</time></trkpt><trkpt lat="42.673919209245824" lon="11.871772554582796"><ele>462.0</ele><time>2026-04-27T08:49:41Z</time></trkpt><trkpt lat="42.67396667403166" lon="11.871860898462483"><ele>461.0</ele><time>2026-04-27T08:49:43Z</time></trkpt><trkpt lat="42.67401823499202" lon="11.871961717900966"><ele>460.0</ele><time>2026-04-27T08:49:45.001Z</time></trkpt><trkpt lat="42.67407339432629" lon="11.87201731936535"><ele>459.0</ele><time>2026-04-27T08:49:48.001Z</time></trkpt><trkpt lat="42.67411548894893" lon="11.872121326194906"><ele>458.0</ele><time>2026-04-27T08:49:51.001Z</time></trkpt><trkpt lat="42.67414775764948" lon="11.872209851130345"><ele>457.0</ele><time>2026-04-27T08:49:53.001Z</time></trkpt><trkpt lat="42.67417647570867" lon="11.87230909510861"><ele>456.0</ele><time>2026-04-27T08:49:55.001Z</time></trkpt><trkpt lat="42.67419262117288" lon="11.872397179409695"><ele>456.0</ele><time>2026-04-27T08:49:57.001Z</time></trkpt><trkpt lat="42.674207796876146" lon="11.872487272727943"><ele>456.0</ele><time>2026-04-27T08:49:59.001Z</time></trkpt><trkpt lat="42.674225098674476" lon="11.872589988004961"><ele>456.0</ele><time>2026-04-27T08:50:02.001Z</time></trkpt><trkpt lat="42.674292292862845" lon="11.872612693135899"><ele>456.0</ele><time>2026-04-27T08:50:03.001Z</time></trkpt><trkpt lat="42.67430695267169" lon="11.872707076214727"><ele>456.0</ele><time>2026-04-27T08:50:05.001Z</time></trkpt><trkpt lat="42.67448970149745" lon="11.872285987844332"><ele>456.0</ele><time>2026-04-27T09:12:41Z</time></trkpt><trkpt lat="42.67414417094244" lon="11.87197082594075"><ele>456.0</ele><time>2026-04-27T09:14:27.999Z</time></trkpt><trkpt lat="42.6742279964932" lon="11.871997875419428"><ele>456.0</ele><time>2026-04-27T09:14:31Z</time></trkpt><trkpt lat="42.674287207647495" lon="11.872037750790899"><ele>456.0</ele><time>2026-04-27T09:14:32Z</time></trkpt><trkpt lat="42.67434892544712" lon="11.872122323140125"><ele>456.0</ele><time>2026-04-27T09:14:33Z</time></trkpt><trkpt lat="42.67439790703789" lon="11.87218334231174"><ele>456.0</ele><time>2026-04-27T09:14:35Z</time></trkpt><trkpt lat="42.67445679347147" lon="11.872256700514681"><ele>456.0</ele><time>2026-04-27T09:14:38Z</time></trkpt><trkpt lat="42.67424940195841" lon="11.87268560939051"><ele>454.8333333333333</ele><time>2026-04-27T09:14:40Z</time></trkpt><trkpt lat="42.674189226314084" lon="11.872730489472069"><ele>453.66666666666663</ele><time>2026-04-27T09:14:41Z</time></trkpt><trkpt lat="42.67417435892059" lon="11.872840924801416"><ele>452.5</ele><time>2026-04-27T09:14:43Z</time></trkpt><trkpt lat="42.67416731477564" lon="11.872931977268653"><ele>451.3333333333333</ele><time>2026-04-27T09:14:44Z</time></trkpt><trkpt lat="42.67418359340763" lon="11.873016922173633"><ele>450.16666666666663</ele><time>2026-04-27T09:14:45Z</time></trkpt><trkpt lat="42.67421411326874" lon="11.873101452717112"><ele>449.0</ele><time>2026-04-27T09:14:46Z</time></trkpt><trkpt lat="42.67422684966782" lon="11.873268845746649"><ele>449.0</ele><time>2026-04-27T09:14:48Z</time></trkpt><trkpt lat="42.67426745208991" lon="11.873358557312422"><ele>449.0</ele><time>2026-04-27T09:14:49Z</time></trkpt><trkpt lat="42.67432169007874" lon="11.873461170086008"><ele>449.0</ele><time>2026-04-27T09:14:51Z</time></trkpt><trkpt lat="42.674330865233145" lon="11.873608196381582"><ele>449.0</ele><time>2026-04-27T09:14:53Z</time></trkpt><trkpt lat="42.67438365211091" lon="11.873732756871014"><ele>449.0</ele><time>2026-04-27T09:14:55Z</time></trkpt><trkpt lat="42.67444699291633" lon="11.873838229821674"><ele>447.4</ele><time>2026-04-27T09:14:57Z</time></trkpt><trkpt lat="42.67447170484459" lon="11.873950713564774"><ele>445.79999999999995</ele><time>2026-04-27T09:15:00Z</time></trkpt><trkpt lat="42.674502006820305" lon="11.874069795731126"><ele>444.20000000000005</ele><time>2026-04-27T09:15:03Z</time></trkpt><trkpt lat="42.67452748453514" lon="11.874156255664637"><ele>442.6</ele><time>2026-04-27T09:15:05Z</time></trkpt><trkpt lat="42.67457250443103" lon="11.874260032463912"><ele>441.0</ele><time>2026-04-27T09:15:07Z</time></trkpt><trkpt lat="42.67466920770589" lon="11.874378817512914"><ele>441.0</ele><time>2026-04-27T09:15:09Z</time></trkpt><trkpt lat="42.67471930163363" lon="11.874436421106818"><ele>441.0</ele><time>2026-04-27T09:15:10Z</time></trkpt><trkpt lat="42.674800850943754" lon="11.874507793518823"><ele>441.0</ele><time>2026-04-27T09:15:12Z</time></trkpt><trkpt lat="42.674876512128634" lon="11.874580320923906"><ele>441.0</ele><time>2026-04-27T09:15:14Z</time></trkpt><trkpt lat="42.674920205537774" lon="11.874675468637056"><ele>441.0</ele><time>2026-04-27T09:15:16Z</time></trkpt><trkpt lat="42.67526694706746" lon="11.874659602019152"><ele>434.0</ele><time>2026-04-27T09:16:27.999Z</time></trkpt><trkpt lat="42.675349789236485" lon="11.874189732917547"><ele>427.0</ele><time>2026-04-27T09:23:27.001Z</time></trkpt><trkpt lat="42.67546419489357" lon="11.874337931323756"><ele>425.0</ele><time>2026-04-27T09:23:59.001Z</time></trkpt><trkpt lat="42.675459049055675" lon="11.874485455297762"><ele>423.0</ele><time>2026-04-27T09:24:01.001Z</time></trkpt><trkpt lat="42.67546332344665" lon="11.874598671815438"><ele>421.0</ele><time>2026-04-27T09:24:03.001Z</time></trkpt><trkpt lat="42.675184590866465" lon="11.874670707569287"><ele>421.00000000000006</ele><time>2026-04-27T09:25:27.001Z</time></trkpt><trkpt lat="42.67524680777752" lon="11.87474098009872"><ele>421.0</ele><time>2026-04-27T09:25:37.001Z</time></trkpt><trkpt lat="42.67533266231724" lon="11.874673661139843"><ele>421.0</ele><time>2026-04-27T09:25:39.001Z</time></trkpt><trkpt lat="42.67543147872419" lon="11.87459680481534"><ele>421.0</ele><time>2026-04-27T09:25:41.001Z</time></trkpt><trkpt lat="42.675451458584504" lon="11.874508871817037"><ele>421.00000000000006</ele><time>2026-04-27T09:25:42.001Z</time></trkpt><trkpt lat="42.67540427094241" lon="11.87442049596044"><ele>421.0</ele><time>2026-04-27T09:25:43.001Z</time></trkpt><trkpt lat="42.675390682350404" lon="11.874328638478744"><ele>422.00000000000006</ele><time>2026-04-27T09:25:44.001Z</time></trkpt><trkpt lat="42.675366409076744" lon="11.874230096296898"><ele>423.0</ele><time>2026-04-27T09:25:45.001Z</time></trkpt><trkpt lat="42.67533199182731" lon="11.874143168121412"><ele>424.0</ele><time>2026-04-27T09:25:46.001Z</time></trkpt><trkpt lat="42.67533283901769" lon="11.874003434110032"><ele>425.0</ele><time>2026-04-27T09:25:48.001Z</time></trkpt><trkpt lat="42.67530571498598" lon="11.873905446081015"><ele>426.00000000000006</ele><time>2026-04-27T09:25:50.001Z</time></trkpt><trkpt lat="42.6752826915576" lon="11.873783087015676"><ele>427.0</ele><time>2026-04-27T09:25:52.001Z</time></trkpt><trkpt lat="42.67528544320107" lon="11.87365759925494"><ele>433.40000000000003</ele><time>2026-04-27T09:25:54.001Z</time></trkpt><trkpt lat="42.6752625845824" lon="11.873505872187168"><ele>439.80000000000007</ele><time>2026-04-27T09:25:56.001Z</time></trkpt><trkpt lat="42.675219599778316" lon="11.87332888296094"><ele>446.2</ele><time>2026-04-27T09:25:58.001Z</time></trkpt><trkpt lat="42.67517160231274" lon="11.873244770012636"><ele>452.6</ele><time>2026-04-27T09:25:59.001Z</time></trkpt><trkpt lat="42.6751370862593" lon="11.873160059043395"><ele>459.0</ele><time>2026-04-27T09:26:00.001Z</time></trkpt><trkpt lat="42.67509622491648" lon="11.873079520632455"><ele>459.6</ele><time>2026-04-27T09:26:01.001Z</time></trkpt><trkpt lat="42.67507406342858" lon="11.872983606709385"><ele>460.2</ele><time>2026-04-27T09:26:02.001Z</time></trkpt><trkpt lat="42.675056221123" lon="11.87289021239129"><ele>460.80000000000007</ele><time>2026-04-27T09:26:03.001Z</time></trkpt><trkpt lat="42.67496838685645" lon="11.87274327060869"><ele>461.40000000000003</ele><time>2026-04-27T09:26:05.001Z</time></trkpt><trkpt lat="42.67494312351754" lon="11.872574329170913"><ele>462.0</ele><time>2026-04-27T09:26:07.001Z</time></trkpt><trkpt lat="42.674901478417375" lon="11.872445883081568"><ele>460.0</ele><time>2026-04-27T09:26:09.001Z</time></trkpt><trkpt lat="42.67487242031896" lon="11.872369855889515"><ele>458.0</ele><time>2026-04-27T09:26:10.001Z</time></trkpt><trkpt lat="42.67483446217032" lon="11.872297398513"><ele>456.0</ele><time>2026-04-27T09:26:11.001Z</time></trkpt><trkpt lat="42.67477861232409" lon="11.872155219248961"><ele>454.0</ele><time>2026-04-27T09:26:13.001Z</time></trkpt><trkpt lat="42.67477222904194" lon="11.872046725318958"><ele>452.0</ele><time>2026-04-27T09:26:14.001Z</time></trkpt><trkpt lat="42.67474738388549" lon="11.871950562798956"><ele>450.0</ele><time>2026-04-27T09:26:15.001Z</time></trkpt><trkpt lat="42.674719884484595" lon="11.87184704097213"><ele>448.0</ele><time>2026-04-27T09:26:16.001Z</time></trkpt><trkpt lat="42.67470705046519" lon="11.87175752787766"><ele>446.0</ele><time>2026-04-27T09:26:17.001Z</time></trkpt><trkpt lat="42.674353911527874" lon="11.871024813575637"><ele>454.0</ele><time>2026-04-27T09:27:22Z</time></trkpt><trkpt lat="42.67423182074139" lon="11.871190425826912"><ele>462.0</ele><time>2026-04-27T09:31:17.001Z</time></trkpt><trkpt lat="42.67403107861058" lon="11.871469366262367"><ele>462.0</ele><time>2026-04-27T09:31:22.001Z</time></trkpt><trkpt lat="42.67397258422158" lon="11.871526710259309"><ele>462.0</ele><time>2026-04-27T09:31:24.001Z</time></trkpt><trkpt lat="42.673899680710996" lon="11.871523476589182"><ele>462.0</ele><time>2026-04-27T09:31:27.001Z</time></trkpt><trkpt lat="42.673878219050856" lon="11.87166832094654"><ele>462.0</ele><time>2026-04-27T09:31:28.001Z</time></trkpt><trkpt lat="42.673912271542335" lon="11.871757702106372"><ele>462.0</ele><time>2026-04-27T09:31:30.001Z</time></trkpt><trkpt lat="42.673868897467685" lon="11.871650210246788"><ele>462.0</ele><time>2026-04-27T09:32:50.001Z</time></trkpt><trkpt lat="42.6738774861568" lon="11.871535094843884"><ele>462.0</ele><time>2026-04-27T09:32:52.001Z</time></trkpt><trkpt lat="42.67383476211852" lon="11.871431457589335"><ele>462.00000000000006</ele><time>2026-04-27T09:32:54.001Z</time></trkpt><trkpt lat="42.673761933428224" lon="11.871457834214846"><ele>462.00000000000006</ele><time>2026-04-27T09:32:56.001Z</time></trkpt><trkpt lat="42.67372875648677" lon="11.871227381458418"><ele>462.0</ele><time>2026-04-27T09:32:57.001Z</time></trkpt><trkpt lat="42.67367298925205" lon="11.871097325090135"><ele>462.0</ele><time>2026-04-27T09:32:59.001Z</time></trkpt><trkpt lat="42.673612445474866" lon="11.870956627344952"><ele>460.6</ele><time>2026-04-27T09:33:01.001Z</time></trkpt><trkpt lat="42.67357024489066" lon="11.870879476356544"><ele>459.20000000000005</ele><time>2026-04-27T09:33:02.001Z</time></trkpt><trkpt lat="42.673531263570034" lon="11.87077953427292"><ele>457.8</ele><time>2026-04-27T09:33:03.001Z</time></trkpt><trkpt lat="42.67348224235919" lon="11.870668319889912"><ele>456.4</ele><time>2026-04-27T09:33:05.001Z</time></trkpt><trkpt lat="42.673438315095936" lon="11.87058012483016"><ele>455.0</ele><time>2026-04-27T09:33:08Z</time></trkpt><trkpt lat="42.671321140283546" lon="11.866008548106526"><ele>460.49999999999994</ele><time>2026-04-27T09:36:18Z</time></trkpt><trkpt lat="42.67130782073043" lon="11.86591698759942"><ele>466.0</ele><time>2026-04-27T09:37:10.001Z</time></trkpt><trkpt lat="42.67127260221279" lon="11.865816093517305"><ele>471.5</ele><time>2026-04-27T09:37:11.001Z</time></trkpt><trkpt lat="42.67124020631811" lon="11.865723486089571"><ele>477.0</ele><time>2026-04-27T09:37:12.001Z</time></trkpt><trkpt lat="42.67121769817995" lon="11.86561021045883"><ele>482.49999999999994</ele><time>2026-04-27T09:37:13.001Z</time></trkpt><trkpt lat="42.67116937224659" lon="11.865495279727455"><ele>488.0</ele><time>2026-04-27T09:37:14.001Z</time></trkpt><trkpt lat="42.671127709931866" lon="11.865371536818158"><ele>491.0</ele><time>2026-04-27T09:37:15.001Z</time></trkpt><trkpt lat="42.671088997543784" lon="11.865244168348578"><ele>494.0</ele><time>2026-04-27T09:37:16.001Z</time></trkpt><trkpt lat="42.67104481089319" lon="11.865112134074444"><ele>497.0</ele><time>2026-04-27T09:37:17.001Z</time></trkpt><trkpt lat="42.675654686285796" lon="11.863675113059697"><ele>497.0</ele><time>2026-04-27T09:38:18Z</time></trkpt><trkpt lat="42.675638076553625" lon="11.863873742246534"><ele>497.0</ele><time>2026-04-27T09:38:19Z</time></trkpt><trkpt lat="42.675608351469236" lon="11.864100149794913"><ele>497.0</ele><time>2026-04-27T09:38:20Z</time></trkpt><trkpt lat="42.67557246319197" lon="11.864340486298694"><ele>496.3333333333333</ele><time>2026-04-27T09:38:21Z</time></trkpt><trkpt lat="42.67554923663613" lon="11.864583493171573"><ele>495.66666666666663</ele><time>2026-04-27T09:38:22Z</time></trkpt><trkpt lat="42.675542928487225" lon="11.86480916623394"><ele>495.0</ele><time>2026-04-27T09:38:23Z</time></trkpt><trkpt lat="42.675553518506604" lon="11.865018437548118"><ele>496.0</ele><time>2026-04-27T09:38:24Z</time></trkpt><trkpt lat="42.67559907529544" lon="11.865222004918946"><ele>497.0</ele><time>2026-04-27T09:38:25Z</time></trkpt><trkpt lat="42.67566527135798" lon="11.865415189550701"><ele>498.0</ele><time>2026-04-27T09:38:26Z</time></trkpt><trkpt lat="42.675724353027164" lon="11.865624380149333"><ele>498.0</ele><time>2026-04-27T09:38:27Z</time></trkpt><trkpt lat="42.675823628290225" lon="11.86581160318878"><ele>498.0</ele><time>2026-04-27T09:38:28Z</time></trkpt><trkpt lat="42.67589994665939" lon="11.866015354449651"><ele>498.0</ele><time>2026-04-27T09:38:29Z</time></trkpt><trkpt lat="42.675972268074766" lon="11.86621737639857"><ele>497.33333333333337</ele><time>2026-04-27T09:38:30Z</time></trkpt><trkpt lat="42.67603714187951" lon="11.86640952703595"><ele>496.6666666666667</ele><time>2026-04-27T09:38:31Z</time></trkpt><trkpt lat="42.6761147096103" lon="11.86659037962447"><ele>496.0</ele><time>2026-04-27T09:38:32Z</time></trkpt><trkpt lat="42.67619914399628" lon="11.866772651200616"><ele>495.0</ele><time>2026-04-27T09:38:33Z</time></trkpt><trkpt lat="42.676320064067085" lon="11.866914122896913"><ele>494.0</ele><time>2026-04-27T09:38:34Z</time></trkpt><trkpt lat="42.6764352146548" lon="11.867040839730873"><ele>493.0</ele><time>2026-04-27T09:38:35Z</time></trkpt><trkpt lat="42.67655605002079" lon="11.867174160958088"><ele>493.0</ele><time>2026-04-27T09:38:36Z</time></trkpt><trkpt lat="42.6767039362459" lon="11.867266506958043"><ele>493.0</ele><time>2026-04-27T09:38:37Z</time></trkpt><trkpt lat="42.67684975716258" lon="11.867395932941827"><ele>493.0</ele><time>2026-04-27T09:38:38Z</time></trkpt><trkpt lat="42.67699564528769" lon="11.86753139196778"><ele>493.0</ele><time>2026-04-27T09:38:39Z</time></trkpt><trkpt lat="42.6771446019101" lon="11.86766052139265"><ele>493.0</ele><time>2026-04-27T09:38:40Z</time></trkpt><trkpt lat="42.677286239525195" lon="11.867787464885454"><ele>493.0</ele><time>2026-04-27T09:38:41Z</time></trkpt><trkpt lat="42.67741051404955" lon="11.867926810141142"><ele>493.0</ele><time>2026-04-27T09:38:42Z</time></trkpt><trkpt lat="42.67752706838435" lon="11.868088464531082"><ele>493.0</ele><time>2026-04-27T09:38:43Z</time></trkpt><trkpt lat="42.67762495958272" lon="11.868280069958102"><ele>493.0</ele><time>2026-04-27T09:38:44Z</time></trkpt><trkpt lat="42.67774183529626" lon="11.86844989973752"><ele>492.33333333333337</ele><time>2026-04-27T09:38:45.001Z</time></trkpt><trkpt lat="42.677839959025924" lon="11.868644862866063"><ele>491.66666666666663</ele><time>2026-04-27T09:38:46.001Z</time></trkpt><trkpt lat="42.677937690747555" lon="11.868839647136804"><ele>491.0</ele><time>2026-04-27T09:38:47.001Z</time></trkpt><trkpt lat="42.67800999602638" lon="11.869041509676709"><ele>491.0</ele><time>2026-04-27T09:38:48.001Z</time></trkpt><trkpt lat="42.67809503399862" lon="11.869223434467559"><ele>491.0</ele><time>2026-04-27T09:38:49.001Z</time></trkpt><trkpt lat="42.67815322196932" lon="11.86943656781301"><ele>491.0</ele><time>2026-04-27T09:38:50.001Z</time></trkpt><trkpt lat="42.67818681545539" lon="11.869661939691067"><ele>490.0</ele><time>2026-04-27T09:38:51.001Z</time></trkpt><trkpt lat="42.678248015655235" lon="11.86987451874424"><ele>489.0</ele><time>2026-04-27T09:38:52.001Z</time></trkpt><trkpt lat="42.678297815619494" lon="11.870080230088945"><ele>488.0</ele><time>2026-04-27T09:38:53.001Z</time></trkpt><trkpt lat="42.67834902571804" lon="11.870295458994434"><ele>486.0</ele><time>2026-04-27T09:38:54.001Z</time></trkpt><trkpt lat="42.67843133232396" lon="11.870505904823078"><ele>484.0</ele><time>2026-04-27T09:38:55.001Z</time></trkpt><trkpt lat="42.678533331685344" lon="11.870712842060094"><ele>482.0</ele><time>2026-04-27T09:38:56.001Z</time></trkpt><trkpt lat="42.678655328772024" lon="11.870917080304386"><ele>479.66666666666663</ele><time>2026-04-27T09:38:57.001Z</time></trkpt><trkpt lat="42.67877520062315" lon="11.871126253305912"><ele>477.33333333333337</ele><time>2026-04-27T09:38:58.001Z</time></trkpt><trkpt lat="42.678885116017014" lon="11.871318052640746"><ele>475.0</ele><time>2026-04-27T09:38:59.001Z</time></trkpt><trkpt lat="42.67898874023153" lon="11.871492178099418"><ele>475.0</ele><time>2026-04-27T09:39:00.001Z</time></trkpt><trkpt lat="42.679090490296346" lon="11.87165767903036"><ele>475.0</ele><time>2026-04-27T09:39:01.001Z</time></trkpt><trkpt lat="42.6791912836797" lon="11.871811940834567"><ele>475.0</ele><time>2026-04-27T09:39:02.001Z</time></trkpt><trkpt lat="42.67928830627619" lon="11.871951105789485"><ele>475.2</ele><time>2026-04-27T09:39:03.001Z</time></trkpt><trkpt lat="42.67937727742571" lon="11.872071282315272"><ele>475.4</ele><time>2026-04-27T09:39:04.001Z</time></trkpt><trkpt lat="42.679460918893945" lon="11.872173666860002"><ele>475.6</ele><time>2026-04-27T09:39:05.001Z</time></trkpt><trkpt lat="42.67953477692765" lon="11.872265244054288"><ele>475.8</ele><time>2026-04-27T09:39:06.001Z</time></trkpt><trkpt lat="42.67959138913442" lon="11.872345711206716"><ele>476.0</ele><time>2026-04-27T09:39:07.001Z</time></trkpt><trkpt lat="42.67963248503428" lon="11.872415093667954"><ele>452.0</ele><time>2026-04-27T09:39:08.001Z</time></trkpt><trkpt lat="42.67756819517993" lon="11.872536873229334"><ele>452.0</ele><time>2026-04-27T09:46:18Z</time></trkpt><trkpt lat="42.67752408499351" lon="11.872448725786835"><ele>452.00000000000006</ele><time>2026-04-27T09:48:28Z</time></trkpt><trkpt lat="42.67752788041321" lon="11.872291447724974"><ele>452.00000000000006</ele><time>2026-04-27T09:48:30Z</time></trkpt><trkpt lat="42.67754949746659" lon="11.872107407722513"><ele>452.0</ele><time>2026-04-27T09:48:31Z</time></trkpt><trkpt lat="42.67756966078584" lon="11.872009121677156"><ele>452.0</ele><time>2026-04-27T09:48:32Z</time></trkpt><trkpt lat="42.677587469342576" lon="11.87190841984223"><ele>452.0</ele><time>2026-04-27T09:48:33Z</time></trkpt><trkpt lat="42.67760462916056" lon="11.871783091136646"><ele>452.00000000000006</ele><time>2026-04-27T09:48:34Z</time></trkpt><trkpt lat="42.67759091910802" lon="11.87165674391642"><ele>452.00000000000006</ele><time>2026-04-27T09:48:35Z</time></trkpt><trkpt lat="42.677534651413325" lon="11.871534467886226"><ele>452.0</ele><time>2026-04-27T09:48:36Z</time></trkpt><trkpt lat="42.67744446259755" lon="11.871423636631985"><ele>452.0</ele><time>2026-04-27T09:48:37Z</time></trkpt><trkpt lat="42.677322673227266" lon="11.871336263394447"><ele>452.25</ele><time>2026-04-27T09:48:38Z</time></trkpt><trkpt lat="42.677189708650005" lon="11.871252582321723"><ele>452.5</ele><time>2026-04-27T09:48:39Z</time></trkpt><trkpt lat="42.67706384506949" lon="11.871165073647749"><ele>452.75</ele><time>2026-04-27T09:48:40Z</time></trkpt><trkpt lat="42.67693092783944" lon="11.871063403674613"><ele>453.0</ele><time>2026-04-27T09:48:41Z</time></trkpt><trkpt lat="42.67680303606788" lon="11.870962552604084"><ele>456.0</ele><time>2026-04-27T09:48:42Z</time></trkpt><trkpt lat="42.67668279180354" lon="11.870870499850948"><ele>459.0</ele><time>2026-04-27T09:48:43Z</time></trkpt><trkpt lat="42.67655933028819" lon="11.870784468687443"><ele>462.0</ele><time>2026-04-27T09:48:44Z</time></trkpt><trkpt lat="42.676431031752195" lon="11.870696986499018"><ele>465.0</ele><time>2026-04-27T09:48:45Z</time></trkpt><trkpt lat="42.676299810984226" lon="11.870600289113268"><ele>465.0</ele><time>2026-04-27T09:48:46Z</time></trkpt><trkpt lat="42.676175732671126" lon="11.870512316085232"><ele>465.0</ele><time>2026-04-27T09:48:47Z</time></trkpt><trkpt lat="42.67605011864438" lon="11.870423741267889"><ele>465.0</ele><time>2026-04-27T09:48:48Z</time></trkpt><trkpt lat="42.67592969472635" lon="11.870333602333668"><ele>465.0</ele><time>2026-04-27T09:48:49Z</time></trkpt><trkpt lat="42.67582110078922" lon="11.870220882183684"><ele>464.66666666666663</ele><time>2026-04-27T09:48:50Z</time></trkpt><trkpt lat="42.67572469440348" lon="11.870072266237417"><ele>464.3333333333333</ele><time>2026-04-27T09:48:51Z</time></trkpt><trkpt lat="42.67563341357241" lon="11.869900280969992"><ele>464.0</ele><time>2026-04-27T09:48:52Z</time></trkpt><trkpt lat="42.67553997564672" lon="11.869704544604787"><ele>464.0</ele><time>2026-04-27T09:48:53Z</time></trkpt><trkpt lat="42.675445015864085" lon="11.86951332914804"><ele>464.0</ele><time>2026-04-27T09:48:54Z</time></trkpt><trkpt lat="42.67534674682197" lon="11.86933489205897"><ele>464.0</ele><time>2026-04-27T09:48:55Z</time></trkpt><trkpt lat="42.6752505232079" lon="11.869145540412083"><ele>463.66666666666663</ele><time>2026-04-27T09:48:56Z</time></trkpt><trkpt lat="42.67514885205707" lon="11.868953908930752"><ele>463.33333333333337</ele><time>2026-04-27T09:48:57Z</time></trkpt><trkpt lat="42.67505280063344" lon="11.868772869592584"><ele>463.0</ele><time>2026-04-27T09:48:58Z</time></trkpt><trkpt lat="42.6749657220346" lon="11.868607072718042"><ele>464.25</ele><time>2026-04-27T09:48:59Z</time></trkpt><trkpt lat="42.674895376853144" lon="11.8684227286501"><ele>465.5</ele><time>2026-04-27T09:49:00Z</time></trkpt><trkpt lat="42.674835915785096" lon="11.868234456912894"><ele>466.75</ele><time>2026-04-27T09:49:01Z</time></trkpt><trkpt lat="42.67480637463337" lon="11.86805263231222"><ele>468.0</ele><time>2026-04-27T09:49:02Z</time></trkpt><trkpt lat="42.67475992991886" lon="11.867886859874455"><ele>468.0</ele><time>2026-04-27T09:49:03Z</time></trkpt><trkpt lat="42.67468163276777" lon="11.867779773908978"><ele>467.99999999999994</ele><time>2026-04-27T09:49:04Z</time></trkpt><trkpt lat="42.67458200742819" lon="11.867706538620286"><ele>467.99999999999994</ele><time>2026-04-27T09:49:05Z</time></trkpt><trkpt lat="42.67449172321311" lon="11.867700954380258"><ele>468.0</ele><time>2026-04-27T09:49:06.001Z</time></trkpt><trkpt lat="42.67439856069558" lon="11.867751231923627"><ele>468.0</ele><time>2026-04-27T09:49:07.001Z</time></trkpt><trkpt lat="42.67433035086593" lon="11.867868463958777"><ele>470.5</ele><time>2026-04-27T09:49:08.001Z</time></trkpt><trkpt lat="42.67431724719159" lon="11.868053902500975"><ele>473.0</ele><time>2026-04-27T09:49:09.001Z</time></trkpt><trkpt lat="42.674298095575104" lon="11.868231722742676"><ele>475.5</ele><time>2026-04-27T09:49:10.001Z</time></trkpt><trkpt lat="42.67427633044147" lon="11.868418095591595"><ele>478.0</ele><time>2026-04-27T09:49:11.001Z</time></trkpt><trkpt lat="42.67429457619045" lon="11.868601565046594"><ele>478.75</ele><time>2026-04-27T09:49:12.001Z</time></trkpt><trkpt lat="42.674349660844356" lon="11.86877836817782"><ele>479.5</ele><time>2026-04-27T09:49:13.001Z</time></trkpt><trkpt lat="42.67442743434209" lon="11.868935687619501"><ele>480.25</ele><time>2026-04-27T09:49:14.001Z</time></trkpt><trkpt lat="42.67446387994373" lon="11.86908559533813"><ele>481.0</ele><time>2026-04-27T09:49:15.001Z</time></trkpt><trkpt lat="42.67452983735522" lon="11.869228538573912"><ele>468.5</ele><time>2026-04-27T09:49:16.001Z</time></trkpt><trkpt lat="42.67457919648414" lon="11.869373218390134"><ele>456.0</ele><time>2026-04-27T09:49:17.001Z</time></trkpt><trkpt lat="42.67656489987401" lon="11.876016405682229"><ele>451.5</ele><time>2026-04-27T09:51:18.001Z</time></trkpt><trkpt lat="42.67651873868422" lon="11.87616508532405"><ele>447.0</ele><time>2026-04-27T09:51:19.001Z</time></trkpt><trkpt lat="42.676425078934734" lon="11.876280885559536"><ele>442.5</ele><time>2026-04-27T09:51:20.001Z</time></trkpt><trkpt lat="42.676299168107015" lon="11.876443662558616"><ele>438.0</ele><time>2026-04-27T09:51:21.001Z</time></trkpt><trkpt lat="42.67615873204895" lon="11.876618534521786"><ele>432.0</ele><time>2026-04-27T09:51:22.001Z</time></trkpt><trkpt lat="42.67600236550904" lon="11.876816343430454"><ele>426.0</ele><time>2026-04-27T09:51:23.001Z</time></trkpt><trkpt lat="42.67584617005629" lon="11.877014740284906"><ele>420.0</ele><time>2026-04-27T09:51:24.001Z</time></trkpt><trkpt lat="42.675687687499966" lon="11.877216164543912"><ele>420.0</ele><time>2026-04-27T09:51:25.001Z</time></trkpt><trkpt lat="42.67552829658109" lon="11.877418743298295"><ele>420.0</ele><time>2026-04-27T09:51:26.001Z</time></trkpt><trkpt lat="42.67537818365914" lon="11.877609530127256"><ele>420.0</ele><time>2026-04-27T09:51:27.001Z</time></trkpt><trkpt lat="42.67523836020949" lon="11.877788835605946"><ele>416.33333333333337</ele><time>2026-04-27T09:51:28.001Z</time></trkpt><trkpt lat="42.675102672065265" lon="11.877962301442928"><ele>412.6666666666667</ele><time>2026-04-27T09:51:29.001Z</time></trkpt><trkpt lat="42.67497244189006" lon="11.878125105297944"><ele>409.0</ele><time>2026-04-27T09:51:30.001Z</time></trkpt><trkpt lat="42.67485754655685" lon="11.878264727661863"><ele>409.0</ele><time>2026-04-27T09:51:31.001Z</time></trkpt><trkpt lat="42.6747433073685" lon="11.878396173470136"><ele>409.0</ele><time>2026-04-27T09:51:32.001Z</time></trkpt><trkpt lat="42.67461130057984" lon="11.878517339568878"><ele>409.0</ele><time>2026-04-27T09:51:33.001Z</time></trkpt><trkpt lat="42.67446405834063" lon="11.878622490911434"><ele>409.0</ele><time>2026-04-27T09:51:34.001Z</time></trkpt><trkpt lat="42.67428997378823" lon="11.878694122292291"><ele>409.0</ele><time>2026-04-27T09:51:35.001Z</time></trkpt><trkpt lat="42.67408771483163" lon="11.878763388261678"><ele>409.0</ele><time>2026-04-27T09:51:36.001Z</time></trkpt><trkpt lat="42.673862356038796" lon="11.878841655673183"><ele>409.0</ele><time>2026-04-27T09:51:37.001Z</time></trkpt><trkpt lat="42.67362027141523" lon="11.878930389109545"><ele>409.0</ele><time>2026-04-27T09:51:38.001Z</time></trkpt><trkpt lat="42.67338619719667" lon="11.87901733092951"><ele>403.0</ele><time>2026-04-27T09:51:39.001Z</time></trkpt><trkpt lat="42.67314633197699" lon="11.87910800453124"><ele>397.0</ele><time>2026-04-27T09:51:40.001Z</time></trkpt><trkpt lat="42.67293063147094" lon="11.879211358645879"><ele>401.0</ele><time>2026-04-27T09:51:41.001Z</time></trkpt><trkpt lat="42.67274007561753" lon="11.879273073023176"><ele>405.0</ele><time>2026-04-27T09:51:42.001Z</time></trkpt><trkpt lat="42.672543810474764" lon="11.87935213926775"><ele>409.0</ele><time>2026-04-27T09:51:43.001Z</time></trkpt><trkpt lat="42.67234651683766" lon="11.879430779386016"><ele>409.0</ele><time>2026-04-27T09:51:44.001Z</time></trkpt><trkpt lat="42.672157842818926" lon="11.879504443545628"><ele>409.0</ele><time>2026-04-27T09:51:45.001Z</time></trkpt><trkpt lat="42.67198739834609" lon="11.87956731512953"><ele>409.0</ele><time>2026-04-27T09:51:46.001Z</time></trkpt><trkpt lat="42.6718336140764" lon="11.879607344206866"><ele>403.33333333333337</ele><time>2026-04-27T09:51:47.001Z</time></trkpt><trkpt lat="42.671688291759786" lon="11.879624415969461"><ele>397.66666666666663</ele><time>2026-04-27T09:51:48.001Z</time></trkpt><trkpt lat="42.67153821802047" lon="11.879559994157853"><ele>392.0</ele><time>2026-04-27T09:51:49.001Z</time></trkpt><trkpt lat="42.67137534465351" lon="11.879468896705037"><ele>392.0</ele><time>2026-04-27T09:51:50.001Z</time></trkpt><trkpt lat="42.67120656021025" lon="11.879361655987582"><ele>392.0</ele><time>2026-04-27T09:51:51.001Z</time></trkpt><trkpt lat="42.67103709159693" lon="11.879264717083732"><ele>392.0</ele><time>2026-04-27T09:51:52.001Z</time></trkpt><trkpt lat="42.67089234177528" lon="11.87919230794284"><ele>390.0</ele><time>2026-04-27T09:51:53.001Z</time></trkpt><trkpt lat="42.67076677756145" lon="11.879136004395814"><ele>388.0</ele><time>2026-04-27T09:51:54.001Z</time></trkpt><trkpt lat="42.67062480499646" lon="11.879163250292265"><ele>386.0</ele><time>2026-04-27T09:51:55.001Z</time></trkpt><trkpt lat="42.67047903087502" lon="11.879233718687539"><ele>384.0</ele><time>2026-04-27T09:51:56.001Z</time></trkpt><trkpt lat="42.67031684887109" lon="11.879320530692706"><ele>379.6666666666667</ele><time>2026-04-27T09:51:57.001Z</time></trkpt><trkpt lat="42.67014407465383" lon="11.879419443535562"><ele>375.33333333333337</ele><time>2026-04-27T09:51:58.001Z</time></trkpt><trkpt lat="42.66998159184526" lon="11.879522233592219"><ele>371.0</ele><time>2026-04-27T09:51:59.001Z</time></trkpt><trkpt lat="42.669828957272095" lon="11.879622513437768"><ele>371.0</ele><time>2026-04-27T09:52:00.001Z</time></trkpt><trkpt lat="42.66967549526151" lon="11.879734498094479"><ele>371.0</ele><time>2026-04-27T09:52:01.001Z</time></trkpt><trkpt lat="42.66952642485901" lon="11.87986017479631"><ele>371.0</ele><time>2026-04-27T09:52:02.001Z</time></trkpt><trkpt lat="42.66937214949694" lon="11.879993171434988"><ele>369.0</ele><time>2026-04-27T09:52:03.001Z</time></trkpt><trkpt lat="42.66920878476835" lon="11.880133715557266"><ele>367.0</ele><time>2026-04-27T09:52:04.001Z</time></trkpt><trkpt lat="42.66903571355938" lon="11.880278982091307"><ele>365.0</ele><time>2026-04-27T09:52:05.001Z</time></trkpt><trkpt lat="42.6688625617697" lon="11.880428037527556"><ele>365.0</ele><time>2026-04-27T09:52:06.001Z</time></trkpt><trkpt lat="42.668704690334366" lon="11.880568409247324"><ele>365.0</ele><time>2026-04-27T09:52:07.001Z</time></trkpt><trkpt lat="42.668562541460744" lon="11.880707430885852"><ele>365.0</ele><time>2026-04-27T09:52:08.001Z</time></trkpt><trkpt lat="42.668436411914364" lon="11.880870078251526"><ele>363.33333333333337</ele><time>2026-04-27T09:52:09.001Z</time></trkpt><trkpt lat="42.66832032291572" lon="11.881069662230038"><ele>361.6666666666667</ele><time>2026-04-27T09:52:10.001Z</time></trkpt><trkpt lat="42.66820226716492" lon="11.881278543706555"><ele>360.0</ele><time>2026-04-27T09:52:11.001Z</time></trkpt><trkpt lat="42.66807616305732" lon="11.881501749099572"><ele>360.0</ele><time>2026-04-27T09:52:12.001Z</time></trkpt><trkpt lat="42.66794573870909" lon="11.88173407647198"><ele>360.0</ele><time>2026-04-27T09:52:13.001Z</time></trkpt><trkpt lat="42.66781504987749" lon="11.881962179615586"><ele>360.0</ele><time>2026-04-27T09:52:14.001Z</time></trkpt><trkpt lat="42.66768913524759" lon="11.882182337501701"><ele>360.3333333333333</ele><time>2026-04-27T09:52:15.001Z</time></trkpt><trkpt lat="42.667585024422486" lon="11.882406281288102"><ele>360.66666666666663</ele><time>2026-04-27T09:52:16Z</time></trkpt><trkpt lat="42.6674762057913" lon="11.882601724268914"><ele>361.0</ele><time>2026-04-27T09:52:17Z</time></trkpt><trkpt lat="42.666857767121535" lon="11.884356877718604"><ele>365.3333333333333</ele><time>2026-04-27T09:53:18.001Z</time></trkpt><trkpt lat="42.66685435901398" lon="11.884259688615636"><ele>369.6666666666667</ele><time>2026-04-27T09:53:21.001Z</time></trkpt><trkpt lat="42.66687249788366" lon="11.884149531687875"><ele>374.0</ele><time>2026-04-27T09:53:56.001Z</time></trkpt><trkpt lat="42.66684122705573" lon="11.884727055770105"><ele>374.0</ele><time>2026-04-27T09:56:28.001Z</time></trkpt><trkpt lat="42.66684859149183" lon="11.884877405937253"><ele>374.0</ele><time>2026-04-27T09:57:29.001Z</time></trkpt><trkpt lat="42.66682330892965" lon="11.88498972169308"><ele>374.0</ele><time>2026-04-27T09:57:30.001Z</time></trkpt><trkpt lat="42.6668069952512" lon="11.885081130091603"><ele>374.0</ele><time>2026-04-27T09:57:31.001Z</time></trkpt><trkpt lat="42.66674197912116" lon="11.885166285685424"><ele>374.0</ele><time>2026-04-27T09:57:32.001Z</time></trkpt><trkpt lat="42.66671418141775" lon="11.885279835514112"><ele>374.0</ele><time>2026-04-27T09:57:33.001Z</time></trkpt><trkpt lat="42.666683445263146" lon="11.885405388506554"><ele>371.25</ele><time>2026-04-27T09:57:34.001Z</time></trkpt><trkpt lat="42.666654689910025" lon="11.88552285016394"><ele>368.5</ele><time>2026-04-27T09:57:35.001Z</time></trkpt><trkpt lat="42.66661190155773" lon="11.885697634704846"><ele>365.75</ele><time>2026-04-27T09:57:36.001Z</time></trkpt><trkpt lat="42.66657247761332" lon="11.885858676133706"><ele>363.0</ele><time>2026-04-27T09:57:37.001Z</time></trkpt><trkpt lat="42.66654505491224" lon="11.886037844124562"><ele>361.0</ele><time>2026-04-27T09:57:38.001Z</time></trkpt><trkpt lat="42.66650158979267" lon="11.886206696323814"><ele>359.0</ele><time>2026-04-27T09:57:39.001Z</time></trkpt><trkpt lat="42.666457652934604" lon="11.886379820224002"><ele>357.0</ele><time>2026-04-27T09:57:40.001Z</time></trkpt><trkpt lat="42.666415635859764" lon="11.886559151115657"><ele>355.0</ele><time>2026-04-27T09:57:41.001Z</time></trkpt><trkpt lat="42.66636967327079" lon="11.886735352137416"><ele>355.8</ele><time>2026-04-27T09:57:42.001Z</time></trkpt><trkpt lat="42.66633356761924" lon="11.886892345480065"><ele>356.6</ele><time>2026-04-27T09:57:43.001Z</time></trkpt><trkpt lat="42.666293208448316" lon="11.88703464268227"><ele>357.4</ele><time>2026-04-27T09:57:44.001Z</time></trkpt><trkpt lat="42.66625946277779" lon="11.88712602374247"><ele>358.2</ele><time>2026-04-27T09:57:45.001Z</time></trkpt><trkpt lat="42.666182879740255" lon="11.88718671037339"><ele>359.0</ele><time>2026-04-27T09:57:46.001Z</time></trkpt><trkpt lat="42.66606491928153" lon="11.887232934029536"><ele>361.5</ele><time>2026-04-27T09:57:47.001Z</time></trkpt><trkpt lat="42.66596022490664" lon="11.887251666314004"><ele>364.0</ele><time>2026-04-27T09:57:48.001Z</time></trkpt><trkpt lat="42.6658235353833" lon="11.887248656209648"><ele>366.5</ele><time>2026-04-27T09:57:49.001Z</time></trkpt><trkpt lat="42.66565997617216" lon="11.887257980904533"><ele>369.0</ele><time>2026-04-27T09:57:50.001Z</time></trkpt><trkpt lat="42.66549804423988" lon="11.887228837773135"><ele>369.0</ele><time>2026-04-27T09:57:51.001Z</time></trkpt><trkpt lat="42.66533784469449" lon="11.887233031229762"><ele>369.0</ele><time>2026-04-27T09:57:52.001Z</time></trkpt><trkpt lat="42.665194047758426" lon="11.887231827246561"><ele>369.0</ele><time>2026-04-27T09:57:53.001Z</time></trkpt><trkpt lat="42.6650679692037" lon="11.887230338594131"><ele>369.0</ele><time>2026-04-27T09:57:54.001Z</time></trkpt><trkpt lat="42.66492781725626" lon="11.887270406732917"><ele>371.6666666666667</ele><time>2026-04-27T09:57:55.001Z</time></trkpt><trkpt lat="42.66480489641379" lon="11.887351550105938"><ele>374.33333333333337</ele><time>2026-04-27T09:57:56.001Z</time></trkpt><trkpt lat="42.66467208330089" lon="11.887463799422772"><ele>377.0</ele><time>2026-04-27T09:57:57.001Z</time></trkpt><trkpt lat="42.664529014990364" lon="11.887595929495156"><ele>368.0</ele><time>2026-04-27T09:57:58.001Z</time></trkpt><trkpt lat="42.66437341714255" lon="11.887709082203202"><ele>359.0</ele><time>2026-04-27T09:57:59.001Z</time></trkpt><trkpt lat="42.6642123746842" lon="11.887853885932152"><ele>350.0</ele><time>2026-04-27T09:58:00.001Z</time></trkpt><trkpt lat="42.66405513284243" lon="11.888048749799594"><ele>350.0</ele><time>2026-04-27T09:58:01.001Z</time></trkpt><trkpt lat="42.66388500259616" lon="11.888223787741083"><ele>350.0</ele><time>2026-04-27T09:58:02.001Z</time></trkpt><trkpt lat="42.6637265087458" lon="11.888421090040831"><ele>350.0</ele><time>2026-04-27T09:58:03.001Z</time></trkpt><trkpt lat="42.66357292607282" lon="11.888610569835913"><ele>347.0</ele><time>2026-04-27T09:58:04.001Z</time></trkpt><trkpt lat="42.66343513079823" lon="11.888806812620638"><ele>344.0</ele><time>2026-04-27T09:58:05.001Z</time></trkpt><trkpt lat="42.66328606273735" lon="11.888958473286124"><ele>341.0</ele><time>2026-04-27T09:58:06.001Z</time></trkpt><trkpt lat="42.66315827156296" lon="11.889141545050837"><ele>341.6666666666667</ele><time>2026-04-27T09:58:07.001Z</time></trkpt><trkpt lat="42.66300858766665" lon="11.889316115902648"><ele>342.3333333333333</ele><time>2026-04-27T09:58:08.001Z</time></trkpt><trkpt lat="42.662876552067125" lon="11.889490454464017"><ele>343.0</ele><time>2026-04-27T09:58:09.001Z</time></trkpt><trkpt lat="42.6627360209629" lon="11.889669240854179"><ele>337.66666666666663</ele><time>2026-04-27T09:58:10.001Z</time></trkpt><trkpt lat="42.66260845429337" lon="11.889889434329678"><ele>332.3333333333333</ele><time>2026-04-27T09:58:11.001Z</time></trkpt><trkpt lat="42.66247670807053" lon="11.890110948004272"><ele>327.0</ele><time>2026-04-27T09:58:12.001Z</time></trkpt><trkpt lat="42.66234165963784" lon="11.890339089964943"><ele>327.0</ele><time>2026-04-27T09:58:13.001Z</time></trkpt><trkpt lat="42.662210044831326" lon="11.890561202209426"><ele>327.0</ele><time>2026-04-27T09:58:14.001Z</time></trkpt><trkpt lat="42.66208585781143" lon="11.890770779389438"><ele>327.0</ele><time>2026-04-27T09:58:15.001Z</time></trkpt><trkpt lat="42.66196321491585" lon="11.890979007799777"><ele>327.0</ele><time>2026-04-27T09:58:16.001Z</time></trkpt><trkpt lat="42.661848989342936" lon="11.89117579906559"><ele>327.0</ele><time>2026-04-27T09:58:17.001Z</time></trkpt><trkpt lat="42.6576394608573" lon="11.894551032952112"><ele>330.5</ele><time>2026-04-27T09:59:18Z</time></trkpt><trkpt lat="42.658037534792136" lon="11.894325856813042"><ele>334.0</ele><time>2026-04-27T10:01:18Z</time></trkpt><trkpt lat="42.65548295637516" lon="11.895825288039033"><ele>329.3333333333333</ele><time>2026-04-27T10:07:18Z</time></trkpt><trkpt lat="42.65533474828953" lon="11.895859094641644"><ele>324.6666666666667</ele><time>2026-04-27T10:07:19Z</time></trkpt><trkpt lat="42.655176624303934" lon="11.895906075837512"><ele>320.0</ele><time>2026-04-27T10:07:20Z</time></trkpt><trkpt lat="42.65501019023862" lon="11.895945604914687"><ele>320.0</ele><time>2026-04-27T10:07:21Z</time></trkpt><trkpt lat="42.65483818618813" lon="11.895997386025927"><ele>320.0</ele><time>2026-04-27T10:07:22Z</time></trkpt><trkpt lat="42.65467351872578" lon="11.896058907533199"><ele>320.0</ele><time>2026-04-27T10:07:23Z</time></trkpt><trkpt lat="42.6545168093989" lon="11.896131906492146"><ele>319.0</ele><time>2026-04-27T10:07:24Z</time></trkpt><trkpt lat="42.654362521964444" lon="11.896173426020706"><ele>318.0</ele><time>2026-04-27T10:07:25Z</time></trkpt><trkpt lat="42.65422690874702" lon="11.8962283002808"><ele>317.0</ele><time>2026-04-27T10:07:26Z</time></trkpt><trkpt lat="42.654105111576655" lon="11.896277584072584"><ele>316.0</ele><time>2026-04-27T10:07:27Z</time></trkpt><trkpt lat="42.65400159745807" lon="11.89632794927055"><ele>316.0</ele><time>2026-04-27T10:07:28Z</time></trkpt><trkpt lat="42.653925439972156" lon="11.896366864111842"><ele>316.0</ele><time>2026-04-27T10:07:29Z</time></trkpt><trkpt lat="42.65385881527105" lon="11.896399883298457"><ele>316.0</ele><time>2026-04-27T10:07:30Z</time></trkpt><trkpt lat="42.653744575345705" lon="11.896441765405939"><ele>316.0</ele><time>2026-04-27T10:07:32Z</time></trkpt><trkpt lat="42.653680772611715" lon="11.896459879122196"><ele>316.0</ele><time>2026-04-27T10:07:33Z</time></trkpt><trkpt lat="42.65361403950105" lon="11.896476262500919"><ele>316.0</ele><time>2026-04-27T10:07:34Z</time></trkpt><trkpt lat="42.65355542417276" lon="11.896508576015295"><ele>315.25</ele><time>2026-04-27T10:07:36Z</time></trkpt><trkpt lat="42.65361099916273" lon="11.896772063376817"><ele>314.5</ele><time>2026-04-27T10:07:43Z</time></trkpt><trkpt lat="42.6536647657592" lon="11.896890812989579"><ele>313.75</ele><time>2026-04-27T10:07:44Z</time></trkpt><trkpt lat="42.653723257352326" lon="11.896998330240706"><ele>313.0</ele><time>2026-04-27T10:07:45Z</time></trkpt><trkpt lat="42.65378711006232" lon="11.897115702109145"><ele>314.5</ele><time>2026-04-27T10:07:46Z</time></trkpt><trkpt lat="42.65386184357248" lon="11.897253074739519"><ele>316.0</ele><time>2026-04-27T10:07:47Z</time></trkpt><trkpt lat="42.65395102597413" lon="11.897409611158954"><ele>317.5</ele><time>2026-04-27T10:07:48Z</time></trkpt><trkpt lat="42.65405220142653" lon="11.897576572528267"><ele>319.0</ele><time>2026-04-27T10:07:49Z</time></trkpt><trkpt lat="42.65414890219563" lon="11.897770721018398"><ele>319.0</ele><time>2026-04-27T10:07:50Z</time></trkpt><trkpt lat="42.65426011814237" lon="11.897962468730679"><ele>319.0</ele><time>2026-04-27T10:07:51Z</time></trkpt><trkpt lat="42.654378885284665" lon="11.898153572452372"><ele>319.0</ele><time>2026-04-27T10:07:52Z</time></trkpt><trkpt lat="42.654499927419906" lon="11.898325364935156"><ele>321.0</ele><time>2026-04-27T10:07:53Z</time></trkpt><trkpt lat="42.654636242729886" lon="11.898470175651061"><ele>323.0</ele><time>2026-04-27T10:07:54Z</time></trkpt><trkpt lat="42.654798043174324" lon="11.898587481263359"><ele>325.0</ele><time>2026-04-27T10:07:55Z</time></trkpt><trkpt lat="42.65498327180578" lon="11.89870304786712"><ele>325.0</ele><time>2026-04-27T10:07:56Z</time></trkpt><trkpt lat="42.65517728542414" lon="11.89882190533657"><ele>325.0</ele><time>2026-04-27T10:07:57Z</time></trkpt><trkpt lat="42.65536262209308" lon="11.898946965888182"><ele>325.0</ele><time>2026-04-27T10:07:58Z</time></trkpt><trkpt lat="42.6555289235134" lon="11.899063789258838"><ele>325.3333333333333</ele><time>2026-04-27T10:07:59Z</time></trkpt><trkpt lat="42.65569510978492" lon="11.899171350255418"><ele>325.6666666666667</ele><time>2026-04-27T10:08:00Z</time></trkpt><trkpt lat="42.65586466045212" lon="11.899283604062864"><ele>326.0</ele><time>2026-04-27T10:08:01Z</time></trkpt><trkpt lat="42.65602762610822" lon="11.899394790850142"><ele>326.75</ele><time>2026-04-27T10:08:02.001Z</time></trkpt><trkpt lat="42.65617683352258" lon="11.899502971573408"><ele>327.5</ele><time>2026-04-27T10:08:03.001Z</time></trkpt><trkpt lat="42.65628172685198" lon="11.899629024332238"><ele>328.25</ele><time>2026-04-27T10:08:04.001Z</time></trkpt><trkpt lat="42.656365851807045" lon="11.899762925924001"><ele>329.0</ele><time>2026-04-27T10:08:05.001Z</time></trkpt><trkpt lat="42.65645186694916" lon="11.899921543471393"><ele>328.6666666666667</ele><time>2026-04-27T10:08:06.001Z</time></trkpt><trkpt lat="42.65654485937321" lon="11.900098600531745"><ele>328.3333333333333</ele><time>2026-04-27T10:08:07.001Z</time></trkpt><trkpt lat="42.65664610678374" lon="11.900283316827002"><ele>328.0</ele><time>2026-04-27T10:08:08.001Z</time></trkpt><trkpt lat="42.65674807332955" lon="11.900476267283874"><ele>328.0</ele><time>2026-04-27T10:08:09.001Z</time></trkpt><trkpt lat="42.65684652139864" lon="11.900658730052466"><ele>328.0</ele><time>2026-04-27T10:08:10.001Z</time></trkpt><trkpt lat="42.65694687178086" lon="11.9008322964962"><ele>328.0</ele><time>2026-04-27T10:08:11.001Z</time></trkpt><trkpt lat="42.65703365877294" lon="11.900999615002064"><ele>327.3333333333333</ele><time>2026-04-27T10:08:12.001Z</time></trkpt><trkpt lat="42.65711905910035" lon="11.901164092424978"><ele>326.6666666666667</ele><time>2026-04-27T10:08:13.001Z</time></trkpt><trkpt lat="42.6572139981384" lon="11.901339785255331"><ele>326.0</ele><time>2026-04-27T10:08:14.001Z</time></trkpt><trkpt lat="42.65731734005966" lon="11.901531510378568"><ele>326.0</ele><time>2026-04-27T10:08:15.001Z</time></trkpt><trkpt lat="42.6574252828607" lon="11.901741906842924"><ele>326.0</ele><time>2026-04-27T10:08:16.001Z</time></trkpt><trkpt lat="42.657543502714525" lon="11.901958511367635"><ele>326.0</ele><time>2026-04-27T10:08:17.001Z</time></trkpt><trkpt lat="42.65582380444912" lon="11.907065958879054"><ele>322.8</ele><time>2026-04-27T10:09:18Z</time></trkpt><trkpt lat="42.65569258039947" lon="11.907059347011177"><ele>319.6</ele><time>2026-04-27T10:09:19Z</time></trkpt><trkpt lat="42.65559254102117" lon="11.907067858341351"><ele>316.4</ele><time>2026-04-27T10:09:20Z</time></trkpt><trkpt lat="42.65552230146509" lon="11.907061413377836"><ele>313.2</ele><time>2026-04-27T10:09:21Z</time></trkpt><trkpt lat="42.655403403092706" lon="11.907025210966772"><ele>310.0</ele><time>2026-04-27T10:09:23Z</time></trkpt><trkpt lat="42.65530456459898" lon="11.906948236303823"><ele>310.0</ele><time>2026-04-27T10:09:25Z</time></trkpt><trkpt lat="42.65523346186262" lon="11.906894375097687"><ele>310.0</ele><time>2026-04-27T10:09:27Z</time></trkpt><trkpt lat="42.655184160226" lon="11.906809236715155"><ele>310.0</ele><time>2026-04-27T10:09:59Z</time></trkpt><trkpt lat="42.655117019430264" lon="11.906770202371458"><ele>310.0</ele><time>2026-04-27T10:10:03.001Z</time></trkpt><trkpt lat="42.65505968823512" lon="11.906715071112046"><ele>310.0</ele><time>2026-04-27T10:10:07.001Z</time></trkpt><trkpt lat="42.655010859811064" lon="11.90664019294523"><ele>310.0</ele><time>2026-04-27T10:10:11.001Z</time></trkpt><trkpt lat="42.65494704271916" lon="11.906605305700358"><ele>310.0</ele><time>2026-04-27T10:10:14.001Z</time></trkpt><trkpt lat="42.65488543988778" lon="11.906546240499042"><ele>311.0</ele><time>2026-04-27T10:10:17.001Z</time></trkpt><trkpt lat="42.65441496017065" lon="11.906103778794757"><ele>311.5</ele><time>2026-04-27T10:11:19Z</time></trkpt><trkpt lat="42.65471718142565" lon="11.906402703286254"><ele>312.0</ele><time>2026-04-27T10:35:18Z</time></trkpt><trkpt lat="42.654819039186876" lon="11.906497175896332"><ele>312.0</ele><time>2026-04-27T10:35:20Z</time></trkpt><trkpt lat="42.65492170629868" lon="11.906586923491584"><ele>312.0</ele><time>2026-04-27T10:35:22Z</time></trkpt><trkpt lat="42.65500862453177" lon="11.9066764914052"><ele>312.0</ele><time>2026-04-27T10:35:24Z</time></trkpt><trkpt lat="42.65510156725722" lon="11.906762062947177"><ele>312.0</ele><time>2026-04-27T10:35:26Z</time></trkpt><trkpt lat="42.65515430133766" lon="11.906817869425021"><ele>312.0</ele><time>2026-04-27T10:35:27Z</time></trkpt><trkpt lat="42.65523780064302" lon="11.906909171215455"><ele>311.6666666666667</ele><time>2026-04-27T10:35:29Z</time></trkpt><trkpt lat="42.65530256842713" lon="11.906988670069243"><ele>311.3333333333333</ele><time>2026-04-27T10:35:31Z</time></trkpt><trkpt lat="42.65536601370071" lon="11.907049941921418"><ele>311.0</ele><time>2026-04-27T10:35:33Z</time></trkpt><trkpt lat="42.65543042461975" lon="11.907075042147554"><ele>310.66666666666663</ele><time>2026-04-27T10:35:35Z</time></trkpt><trkpt lat="42.655563216984504" lon="11.907095678870311"><ele>310.3333333333333</ele><time>2026-04-27T10:35:37Z</time></trkpt><trkpt lat="42.65564396425915" lon="11.907097881547283"><ele>310.0</ele><time>2026-04-27T10:35:38Z</time></trkpt><trkpt lat="42.65572998625786" lon="11.907091273721347"><ele>310.0</ele><time>2026-04-27T10:35:39Z</time></trkpt><trkpt lat="42.65581148380633" lon="11.907081439941445"><ele>310.0</ele><time>2026-04-27T10:35:40Z</time></trkpt><trkpt lat="42.655883439402764" lon="11.907082584657436"><ele>310.0</ele><time>2026-04-27T10:35:41Z</time></trkpt><trkpt lat="42.65595759393186" lon="11.907081384910372"><ele>310.0</ele><time>2026-04-27T10:35:42Z</time></trkpt><trkpt lat="42.65602189067421" lon="11.90708532847867"><ele>310.0</ele><time>2026-04-27T10:35:43Z</time></trkpt><trkpt lat="42.656085584461664" lon="11.907090436582354"><ele>310.0</ele><time>2026-04-27T10:35:44Z</time></trkpt><trkpt lat="42.65615104306207" lon="11.907092264227092"><ele>310.0</ele><time>2026-04-27T10:35:45.001Z</time></trkpt><trkpt lat="42.656281743796235" lon="11.907099522981278"><ele>310.2</ele><time>2026-04-27T10:35:47.001Z</time></trkpt><trkpt lat="42.65636845545565" lon="11.907113330911988"><ele>310.4</ele><time>2026-04-27T10:35:48.001Z</time></trkpt><trkpt lat="42.656462663320035" lon="11.907128829019683"><ele>310.6</ele><time>2026-04-27T10:35:49.001Z</time></trkpt><trkpt lat="42.65655675154122" lon="11.9071654394071"><ele>310.8</ele><time>2026-04-27T10:35:50.001Z</time></trkpt><trkpt lat="42.65666409933756" lon="11.907201710702566"><ele>311.0</ele><time>2026-04-27T10:35:51.001Z</time></trkpt><trkpt lat="42.65678309688855" lon="11.90725416786501"><ele>311.0</ele><time>2026-04-27T10:35:52.001Z</time></trkpt><trkpt lat="42.65690779320107" lon="11.907285342475513"><ele>311.0</ele><time>2026-04-27T10:35:53.001Z</time></trkpt><trkpt lat="42.657033307852586" lon="11.907324221495864"><ele>311.0</ele><time>2026-04-27T10:35:54.001Z</time></trkpt><trkpt lat="42.657152268313986" lon="11.907355586284405"><ele>311.0</ele><time>2026-04-27T10:35:55.001Z</time></trkpt><trkpt lat="42.657255132028645" lon="11.907388223168745"><ele>311.0</ele><time>2026-04-27T10:35:56.001Z</time></trkpt><trkpt lat="42.65735314724242" lon="11.907415204471649"><ele>311.0</ele><time>2026-04-27T10:35:57.001Z</time></trkpt><trkpt lat="42.657453163613965" lon="11.907452501855163"><ele>311.0</ele><time>2026-04-27T10:35:58.001Z</time></trkpt><trkpt lat="42.65756117803268" lon="11.907477749588724"><ele>311.0</ele><time>2026-04-27T10:35:59.001Z</time></trkpt><trkpt lat="42.657675059141454" lon="11.907502067021627"><ele>311.0</ele><time>2026-04-27T10:36:00.001Z</time></trkpt><trkpt lat="42.65779069880757" lon="11.90751610937253"><ele>311.0</ele><time>2026-04-27T10:36:01.001Z</time></trkpt><trkpt lat="42.65791044221862" lon="11.907535349785702"><ele>311.0</ele><time>2026-04-27T10:36:02.001Z</time></trkpt><trkpt lat="42.658030427994326" lon="11.907556859918188"><ele>311.0</ele><time>2026-04-27T10:36:03.001Z</time></trkpt><trkpt lat="42.65814207506404" lon="11.907574267026748"><ele>311.0</ele><time>2026-04-27T10:36:04.001Z</time></trkpt><trkpt lat="42.65825862942896" lon="11.907587557727634"><ele>311.0</ele><time>2026-04-27T10:36:05.001Z</time></trkpt><trkpt lat="42.658373019327264" lon="11.907596761335887"><ele>311.0</ele><time>2026-04-27T10:36:06.001Z</time></trkpt><trkpt lat="42.65847283436599" lon="11.90761249548059"><ele>311.0</ele><time>2026-04-27T10:36:07.001Z</time></trkpt><trkpt lat="42.6585653747965" lon="11.90762911743738"><ele>311.0</ele><time>2026-04-27T10:36:07.999Z</time></trkpt><trkpt lat="42.65865297015959" lon="11.907663861099195"><ele>311.0</ele><time>2026-04-27T10:36:08.999Z</time></trkpt><trkpt lat="42.65875119230267" lon="11.907695687360539"><ele>311.1666666666667</ele><time>2026-04-27T10:36:09.999Z</time></trkpt><trkpt lat="42.65884741397396" lon="11.907723402682713"><ele>311.33333333333337</ele><time>2026-04-27T10:36:10.999Z</time></trkpt><trkpt lat="42.65893137791595" lon="11.907744959956403"><ele>311.5</ele><time>2026-04-27T10:36:11.999Z</time></trkpt><trkpt lat="42.659011568687106" lon="11.90774939958469"><ele>311.6666666666667</ele><time>2026-04-27T10:36:12.999Z</time></trkpt><trkpt lat="42.65908675071364" lon="11.907744757919966"><ele>311.8333333333333</ele><time>2026-04-27T10:36:13.999Z</time></trkpt><trkpt lat="42.6591532831489" lon="11.907736082262844"><ele>312.0</ele><time>2026-04-27T10:36:14.999Z</time></trkpt><trkpt lat="42.65923507078012" lon="11.907721602874423"><ele>319.0</ele><time>2026-04-27T10:36:16.999Z</time></trkpt><trkpt lat="42.66288047769703" lon="11.90713508255735"><ele>319.0</ele><time>2026-04-27T10:37:18Z</time></trkpt><trkpt lat="42.66298080332428" lon="11.907152759256416"><ele>319.0</ele><time>2026-04-27T10:37:20Z</time></trkpt><trkpt lat="42.66304342614915" lon="11.907164399459322"><ele>319.0</ele><time>2026-04-27T10:37:22Z</time></trkpt><trkpt lat="42.663108649422036" lon="11.907166985532072"><ele>319.0</ele><time>2026-04-27T10:37:24Z</time></trkpt><trkpt lat="42.663191274387444" lon="11.9071774971818"><ele>319.0</ele><time>2026-04-27T10:37:25Z</time></trkpt><trkpt lat="42.66326823785608" lon="11.907192459193345"><ele>319.0</ele><time>2026-04-27T10:37:26Z</time></trkpt><trkpt lat="42.66335496823963" lon="11.907215231009086"><ele>319.0</ele><time>2026-04-27T10:37:27Z</time></trkpt><trkpt lat="42.66347322871683" lon="11.907241452380159"><ele>319.0</ele><time>2026-04-27T10:37:28Z</time></trkpt><trkpt lat="42.663584360761575" lon="11.907261904061592"><ele>319.0</ele><time>2026-04-27T10:37:29Z</time></trkpt><trkpt lat="42.663704257927186" lon="11.907275648835876"><ele>319.0</ele><time>2026-04-27T10:37:30Z</time></trkpt><trkpt lat="42.66381125597385" lon="11.907289401820695"><ele>319.6</ele><time>2026-04-27T10:37:31Z</time></trkpt><trkpt lat="42.66391418584579" lon="11.90730259156616"><ele>320.2</ele><time>2026-04-27T10:37:32Z</time></trkpt><trkpt lat="42.66402070548137" lon="11.907311224370913"><ele>320.8</ele><time>2026-04-27T10:37:33Z</time></trkpt><trkpt lat="42.66412215073779" lon="11.907320224721836"><ele>321.40000000000003</ele><time>2026-04-27T10:37:34Z</time></trkpt><trkpt lat="42.664224725115865" lon="11.907326077653117"><ele>322.0</ele><time>2026-04-27T10:37:35Z</time></trkpt><trkpt lat="42.66430900692218" lon="11.907329243740271"><ele>322.0</ele><time>2026-04-27T10:37:36.001Z</time></trkpt><trkpt lat="42.66437782656761" lon="11.90733310586103"><ele>322.0</ele><time>2026-04-27T10:37:37.001Z</time></trkpt><trkpt lat="42.66447814610481" lon="11.907333329787273"><ele>322.0</ele><time>2026-04-27T10:37:39.001Z</time></trkpt><trkpt lat="42.66981083565173" lon="11.906870182328092"><ele>325.0</ele><time>2026-04-27T10:40:18.001Z</time></trkpt><trkpt lat="42.66991899171288" lon="11.906738511542825"><ele>328.0</ele><time>2026-04-27T10:40:19.001Z</time></trkpt><trkpt lat="42.669998758936714" lon="11.906608872588036"><ele>331.0</ele><time>2026-04-27T10:40:20Z</time></trkpt><trkpt lat="42.67005871892818" lon="11.906489466319238"><ele>334.0</ele><time>2026-04-27T10:40:21Z</time></trkpt><trkpt lat="42.67008588127122" lon="11.906352893253363"><ele>334.0</ele><time>2026-04-27T10:40:22Z</time></trkpt><trkpt lat="42.67010049624466" lon="11.906203965822082"><ele>334.0</ele><time>2026-04-27T10:40:23Z</time></trkpt><trkpt lat="42.67010561124543" lon="11.906046258208363"><ele>334.0</ele><time>2026-04-27T10:40:24Z</time></trkpt><trkpt lat="42.67012056604914" lon="11.905891635828718"><ele>334.0</ele><time>2026-04-27T10:40:25Z</time></trkpt><trkpt lat="42.6701436069725" lon="11.905744007093574"><ele>334.6</ele><time>2026-04-27T10:40:26Z</time></trkpt><trkpt lat="42.67018536540093" lon="11.905625168073332"><ele>335.2</ele><time>2026-04-27T10:40:27Z</time></trkpt><trkpt lat="42.670243850059485" lon="11.905507839658911"><ele>335.8</ele><time>2026-04-27T10:40:28Z</time></trkpt><trkpt lat="42.67031910160551" lon="11.905403981635844"><ele>336.40000000000003</ele><time>2026-04-27T10:40:29Z</time></trkpt><trkpt lat="42.67040691506465" lon="11.905323466883688"><ele>337.0</ele><time>2026-04-27T10:40:30Z</time></trkpt><trkpt lat="42.67050521218434" lon="11.905279943532474"><ele>337.0</ele><time>2026-04-27T10:40:31Z</time></trkpt><trkpt lat="42.67060785856669" lon="11.905229249386558"><ele>337.0</ele><time>2026-04-27T10:40:32Z</time></trkpt><trkpt lat="42.670715762056155" lon="11.905181625145685"><ele>337.0</ele><time>2026-04-27T10:40:33Z</time></trkpt><trkpt lat="42.67081941811803" lon="11.905142599917252"><ele>337.0</ele><time>2026-04-27T10:40:34Z</time></trkpt><trkpt lat="42.67092577481138" lon="11.905108169013737"><ele>337.0</ele><time>2026-04-27T10:40:35Z</time></trkpt><trkpt lat="42.67103592069542" lon="11.905070990099162"><ele>340.0</ele><time>2026-04-27T10:40:36Z</time></trkpt><trkpt lat="42.67115025331085" lon="11.905040525168662"><ele>343.0</ele><time>2026-04-27T10:40:37Z</time></trkpt><trkpt lat="42.67128739970351" lon="11.905025484745517"><ele>346.0</ele><time>2026-04-27T10:40:38Z</time></trkpt><trkpt lat="42.67141392356411" lon="11.905018589164552"><ele>349.0</ele><time>2026-04-27T10:40:39Z</time></trkpt><trkpt lat="42.6715282437641" lon="11.905010760428908"><ele>349.0</ele><time>2026-04-27T10:40:40Z</time></trkpt><trkpt lat="42.671625244306426" lon="11.904990446212883"><ele>349.0</ele><time>2026-04-27T10:40:41Z</time></trkpt><trkpt lat="42.67168881500811" lon="11.904974099222189"><ele>349.0</ele><time>2026-04-27T10:40:42Z</time></trkpt><trkpt lat="42.671756876832575" lon="11.904953654703354"><ele>349.0</ele><time>2026-04-27T10:40:43Z</time></trkpt><trkpt lat="42.671834551050914" lon="11.904930021386297"><ele>349.0</ele><time>2026-04-27T10:40:44Z</time></trkpt><trkpt lat="42.67191702648489" lon="11.904901348944914"><ele>349.0</ele><time>2026-04-27T10:40:45Z</time></trkpt><trkpt lat="42.67200923610869" lon="11.904863638182698"><ele>350.4</ele><time>2026-04-27T10:40:46Z</time></trkpt><trkpt lat="42.67210614960764" lon="11.904835891514999"><ele>351.79999999999995</ele><time>2026-04-27T10:40:47Z</time></trkpt><trkpt lat="42.6721906017172" lon="11.904808526724995"><ele>353.20000000000005</ele><time>2026-04-27T10:40:48Z</time></trkpt><trkpt lat="42.67230227238968" lon="11.904797705574014"><ele>354.6</ele><time>2026-04-27T10:40:49Z</time></trkpt><trkpt lat="42.672403703354306" lon="11.904766159416873"><ele>356.0</ele><time>2026-04-27T10:40:50Z</time></trkpt><trkpt lat="42.672513857430275" lon="11.904732335801068"><ele>356.0</ele><time>2026-04-27T10:40:51Z</time></trkpt><trkpt lat="42.67261830103533" lon="11.904707369817745"><ele>356.0</ele><time>2026-04-27T10:40:52Z</time></trkpt><trkpt lat="42.67271329897806" lon="11.904676908225024"><ele>356.0</ele><time>2026-04-27T10:40:53Z</time></trkpt><trkpt lat="42.67284620370932" lon="11.904656422185479"><ele>356.0</ele><time>2026-04-27T10:40:54Z</time></trkpt><trkpt lat="42.67297686389014" lon="11.904614565939138"><ele>357.25</ele><time>2026-04-27T10:40:55Z</time></trkpt><trkpt lat="42.67309278236702" lon="11.904596374501846"><ele>358.5</ele><time>2026-04-27T10:40:56Z</time></trkpt><trkpt lat="42.673218773471554" lon="11.90453909551537"><ele>359.75</ele><time>2026-04-27T10:40:57Z</time></trkpt><trkpt lat="42.67335796554689" lon="11.904455523941172"><ele>361.0</ele><time>2026-04-27T10:40:58Z</time></trkpt><trkpt lat="42.673493467273204" lon="11.90438654893161"><ele>363.5</ele><time>2026-04-27T10:40:59Z</time></trkpt><trkpt lat="42.67363261245065" lon="11.904326113514758"><ele>366.0</ele><time>2026-04-27T10:41:00Z</time></trkpt><trkpt lat="42.673772525051334" lon="11.904265685329127"><ele>368.5</ele><time>2026-04-27T10:41:01Z</time></trkpt><trkpt lat="42.67391211084372" lon="11.904194086604882"><ele>371.0</ele><time>2026-04-27T10:41:02Z</time></trkpt><trkpt lat="42.674069360944756" lon="11.904122896195783"><ele>372.25</ele><time>2026-04-27T10:41:03Z</time></trkpt><trkpt lat="42.67419768500284" lon="11.904051400296153"><ele>373.5</ele><time>2026-04-27T10:41:04Z</time></trkpt><trkpt lat="42.67433585336467" lon="11.903982695367661"><ele>374.75</ele><time>2026-04-27T10:41:05Z</time></trkpt><trkpt lat="42.67446895421783" lon="11.903922507497583"><ele>376.0</ele><time>2026-04-27T10:41:06Z</time></trkpt><trkpt lat="42.674584780601606" lon="11.903873246299499"><ele>377.3333333333333</ele><time>2026-04-27T10:41:07Z</time></trkpt><trkpt lat="42.674664994754664" lon="11.903837511136993"><ele>378.66666666666663</ele><time>2026-04-27T10:41:08Z</time></trkpt><trkpt lat="42.67475884780376" lon="11.90380014687221"><ele>380.0</ele><time>2026-04-27T10:41:10Z</time></trkpt><trkpt lat="42.674825402999126" lon="11.903775990822664"><ele>381.3333333333333</ele><time>2026-04-27T10:41:11.001Z</time></trkpt><trkpt lat="42.67489939215916" lon="11.903741687062816"><ele>382.6666666666667</ele><time>2026-04-27T10:41:12.001Z</time></trkpt><trkpt lat="42.67499008596233" lon="11.903697857343307"><ele>384.0</ele><time>2026-04-27T10:41:13.001Z</time></trkpt><trkpt lat="42.675084728097396" lon="11.903649959021493"><ele>384.0</ele><time>2026-04-27T10:41:14.001Z</time></trkpt><trkpt lat="42.67519160542177" lon="11.903606456131373"><ele>384.0</ele><time>2026-04-27T10:41:15.001Z</time></trkpt><trkpt lat="42.67530761322681" lon="11.90355955849427"><ele>384.0</ele><time>2026-04-27T10:41:16.001Z</time></trkpt><trkpt lat="42.67542718479536" lon="11.903510531656114"><ele>384.0</ele><time>2026-04-27T10:41:17.001Z</time></trkpt><trkpt lat="42.681330334091875" lon="11.903693579076956"><ele>398.25</ele><time>2026-04-27T10:42:18.001Z</time></trkpt><trkpt lat="42.681358027766876" lon="11.903861631029553"><ele>412.5</ele><time>2026-04-27T10:42:19.001Z</time></trkpt><trkpt lat="42.681388332769636" lon="11.904035449623157"><ele>426.75</ele><time>2026-04-27T10:42:20.001Z</time></trkpt><trkpt lat="42.68143164948494" lon="11.904197924660096"><ele>441.0</ele><time>2026-04-27T10:42:21.001Z</time></trkpt><trkpt lat="42.68149912017761" lon="11.904347791281852"><ele>441.0</ele><time>2026-04-27T10:42:22.001Z</time></trkpt><trkpt lat="42.68158885021941" lon="11.90450125112941"><ele>441.0</ele><time>2026-04-27T10:42:23.001Z</time></trkpt><trkpt lat="42.68168904430466" lon="11.90465716682934"><ele>441.0</ele><time>2026-04-27T10:42:24.001Z</time></trkpt><trkpt lat="42.68178624591615" lon="11.904811850780261"><ele>441.0</ele><time>2026-04-27T10:42:25.001Z</time></trkpt><trkpt lat="42.68188656559854" lon="11.90497081151009"><ele>448.0</ele><time>2026-04-27T10:42:25.999Z</time></trkpt><trkpt lat="42.681989295828366" lon="11.905121607628805"><ele>455.0</ele><time>2026-04-27T10:42:26.999Z</time></trkpt><trkpt lat="42.68208556089761" lon="11.90527256305942"><ele>462.0</ele><time>2026-04-27T10:42:27.999Z</time></trkpt><trkpt lat="42.68218576974045" lon="11.905430307972873"><ele>462.0</ele><time>2026-04-27T10:42:28.999Z</time></trkpt><trkpt lat="42.682283911845055" lon="11.905578343063922"><ele>462.0</ele><time>2026-04-27T10:42:29.999Z</time></trkpt><trkpt lat="42.68237120933784" lon="11.905728088412129"><ele>462.0</ele><time>2026-04-27T10:42:30.999Z</time></trkpt><trkpt lat="42.68244772664965" lon="11.90586082720574"><ele>462.0</ele><time>2026-04-27T10:42:31.999Z</time></trkpt><trkpt lat="42.68252379946406" lon="11.905988754975935"><ele>460.5</ele><time>2026-04-27T10:42:32.999Z</time></trkpt><trkpt lat="42.682586077717886" lon="11.906130840057266"><ele>459.0</ele><time>2026-04-27T10:42:33.999Z</time></trkpt><trkpt lat="42.682609705079656" lon="11.906307668096108"><ele>457.5</ele><time>2026-04-27T10:42:34.999Z</time></trkpt><trkpt lat="42.68265484617135" lon="11.90647603047261"><ele>456.0</ele><time>2026-04-27T10:42:35.999Z</time></trkpt><trkpt lat="42.68268846292323" lon="11.906644049579919"><ele>453.4</ele><time>2026-04-27T10:42:36.999Z</time></trkpt><trkpt lat="42.682741800075114" lon="11.906774552397792"><ele>450.8</ele><time>2026-04-27T10:42:37.999Z</time></trkpt><trkpt lat="42.68282870709696" lon="11.90686777893922"><ele>448.19999999999993</ele><time>2026-04-27T10:42:38.999Z</time></trkpt><trkpt lat="42.68290654768401" lon="11.906957099286261"><ele>445.59999999999997</ele><time>2026-04-27T10:42:40Z</time></trkpt><trkpt lat="42.68297388912982" lon="11.907078508534946"><ele>443.0</ele><time>2026-04-27T10:42:41Z</time></trkpt><trkpt lat="42.683063894329635" lon="11.907159118567387"><ele>448.4</ele><time>2026-04-27T10:42:42Z</time></trkpt><trkpt lat="42.68314820800485" lon="11.907249431923146"><ele>453.79999999999995</ele><time>2026-04-27T10:42:43Z</time></trkpt><trkpt lat="42.68321975893116" lon="11.907312214971808"><ele>459.2</ele><time>2026-04-27T10:42:44Z</time></trkpt><trkpt lat="42.68328408044431" lon="11.907378619907488"><ele>464.6</ele><time>2026-04-27T10:42:45Z</time></trkpt><trkpt lat="42.68336902343348" lon="11.907395010276185"><ele>470.0</ele><time>2026-04-27T10:42:46Z</time></trkpt><trkpt lat="42.68346305806667" lon="11.907371378963695"><ele>470.0</ele><time>2026-04-27T10:42:47Z</time></trkpt><trkpt lat="42.683569441193974" lon="11.907372789572996"><ele>470.0</ele><time>2026-04-27T10:42:48Z</time></trkpt><trkpt lat="42.683679198578155" lon="11.907368944397044"><ele>470.0</ele><time>2026-04-27T10:42:49Z</time></trkpt><trkpt lat="42.683775357664096" lon="11.907365288731196"><ele>470.0</ele><time>2026-04-27T10:42:50Z</time></trkpt><trkpt lat="42.6838604004658" lon="11.907365793937407"><ele>470.0</ele><time>2026-04-27T10:42:51Z</time></trkpt><trkpt lat="42.68394638586518" lon="11.907354632939677"><ele>473.0</ele><time>2026-04-27T10:42:52Z</time></trkpt><trkpt lat="42.68402916444586" lon="11.907324203119458"><ele>476.0</ele><time>2026-04-27T10:42:53Z</time></trkpt><trkpt lat="42.684094197671726" lon="11.907276383714136"><ele>479.0</ele><time>2026-04-27T10:42:54Z</time></trkpt><trkpt lat="42.684170661213784" lon="11.907194118530718"><ele>482.0</ele><time>2026-04-27T10:42:56Z</time></trkpt><trkpt lat="42.68410473652186" lon="11.90728356832178"><ele>485.0</ele><time>2026-04-27T10:43:03Z</time></trkpt><trkpt lat="42.68400489011727" lon="11.907332160122643"><ele>485.0</ele><time>2026-04-27T10:43:05Z</time></trkpt><trkpt lat="42.6841385675461" lon="11.907301837650127"><ele>485.0</ele><time>2026-04-27T10:43:11Z</time></trkpt><trkpt lat="42.684263019914" lon="11.907265926547012"><ele>485.0</ele><time>2026-04-27T10:43:13Z</time></trkpt><trkpt lat="42.68433659189674" lon="11.907211366112408"><ele>485.0</ele><time>2026-04-27T10:43:14Z</time></trkpt><trkpt lat="42.68442208384295" lon="11.907155444684928"><ele>485.0</ele><time>2026-04-27T10:43:15Z</time></trkpt><trkpt lat="42.684503104610876" lon="11.90710210038746"><ele>489.0</ele><time>2026-04-27T10:43:16Z</time></trkpt><trkpt lat="42.684581408443236" lon="11.907054796676908"><ele>493.0</ele><time>2026-04-27T10:43:17Z</time></trkpt><trkpt lat="42.68447728934177" lon="11.906182078842779"><ele>492.79999999999995</ele><time>2026-04-27T10:44:18.001Z</time></trkpt><trkpt lat="42.68440598742778" lon="11.906192987830318"><ele>492.59999999999997</ele><time>2026-04-27T10:44:22.001Z</time></trkpt><trkpt lat="42.68433840444234" lon="11.906011983379928"><ele>492.40000000000003</ele><time>2026-04-27T10:44:23.001Z</time></trkpt><trkpt lat="42.68431130080513" lon="11.905898205900842"><ele>492.20000000000005</ele><time>2026-04-27T10:44:24.001Z</time></trkpt><trkpt lat="42.68424452645187" lon="11.905774882525144"><ele>492.0</ele><time>2026-04-27T10:44:25.001Z</time></trkpt><trkpt lat="42.68419452901652" lon="11.90567759178866"><ele>492.0</ele><time>2026-04-27T10:44:26.001Z</time></trkpt><trkpt lat="42.68415948957653" lon="11.905575300856068"><ele>492.00000000000006</ele><time>2026-04-27T10:44:27.001Z</time></trkpt><trkpt lat="42.684143716501296" lon="11.905473292578057"><ele>492.00000000000006</ele><time>2026-04-27T10:44:28.001Z</time></trkpt><trkpt lat="42.684142673802754" lon="11.905366237792794"><ele>492.0</ele><time>2026-04-27T10:44:29.001Z</time></trkpt><trkpt lat="42.68414373491662" lon="11.905257945378002"><ele>492.0</ele><time>2026-04-27T10:44:30.001Z</time></trkpt><trkpt lat="42.68413394897858" lon="11.905034071123813"><ele>493.33333333333337</ele><time>2026-04-27T10:44:32Z</time></trkpt><trkpt lat="42.6841112121134" lon="11.90493750183663"><ele>494.6666666666667</ele><time>2026-04-27T10:44:33Z</time></trkpt><trkpt lat="42.68392203619434" lon="11.904767943976948"><ele>496.0</ele><time>2026-04-27T10:44:34Z</time></trkpt><trkpt lat="42.68377353892102" lon="11.904748149916324"><ele>496.00000000000006</ele><time>2026-04-27T10:44:35Z</time></trkpt><trkpt lat="42.68367100474615" lon="11.904756063994329"><ele>496.0</ele><time>2026-04-27T10:44:36Z</time></trkpt><trkpt lat="42.68357051856918" lon="11.904763869046805"><ele>496.0</ele><time>2026-04-27T10:44:37Z</time></trkpt><trkpt lat="42.68349399478676" lon="11.904769812871642"><ele>496.0</ele><time>2026-04-27T10:44:38Z</time></trkpt><trkpt lat="42.68341193186138" lon="11.904776186934788"><ele>496.00000000000006</ele><time>2026-04-27T10:44:39Z</time></trkpt><trkpt lat="42.68332577982922" lon="11.904786013308145"><ele>496.0</ele><time>2026-04-27T10:44:40Z</time></trkpt><trkpt lat="42.68324675150942" lon="11.904795347679233"><ele>495.20000000000005</ele><time>2026-04-27T10:44:41Z</time></trkpt><trkpt lat="42.68317536923981" lon="11.904815605643702"><ele>494.40000000000003</ele><time>2026-04-27T10:44:42Z</time></trkpt><trkpt lat="42.68307257457352" lon="11.904729016152666"><ele>493.6</ele><time>2026-04-27T10:44:44Z</time></trkpt><trkpt lat="42.68303994828032" lon="11.90462341199395"><ele>492.8</ele><time>2026-04-27T10:44:45Z</time></trkpt><trkpt lat="42.68301336968645" lon="11.904506501146452"><ele>492.0</ele><time>2026-04-27T10:44:46Z</time></trkpt><trkpt lat="42.683000336978566" lon="11.904382364843766"><ele>492.0</ele><time>2026-04-27T10:44:47Z</time></trkpt><trkpt lat="42.682999231252886" lon="11.904260794190368"><ele>492.00000000000006</ele><time>2026-04-27T10:44:48Z</time></trkpt><trkpt lat="42.68300115284808" lon="11.90413476733384"><ele>492.00000000000006</ele><time>2026-04-27T10:44:49Z</time></trkpt><trkpt lat="42.683006531715115" lon="11.904003349001677"><ele>492.0</ele><time>2026-04-27T10:44:50Z</time></trkpt><trkpt lat="42.683008636655" lon="11.903868752657596"><ele>492.0</ele><time>2026-04-27T10:44:51Z</time></trkpt><trkpt lat="42.68301205671894" lon="11.903745281585241"><ele>492.8</ele><time>2026-04-27T10:44:52Z</time></trkpt><trkpt lat="42.68301081606982" lon="11.903643634677707"><ele>493.6</ele><time>2026-04-27T10:44:53Z</time></trkpt><trkpt lat="42.683008556927504" lon="11.903490630756584"><ele>494.40000000000003</ele><time>2026-04-27T10:44:55Z</time></trkpt><trkpt lat="42.683005785448024" lon="11.90340299779391"><ele>495.20000000000005</ele><time>2026-04-27T10:44:58Z</time></trkpt><trkpt lat="42.68282989176805" lon="11.903394352305385"><ele>496.0</ele><time>2026-04-27T10:44:59Z</time></trkpt><trkpt lat="42.68273155776787" lon="11.903413414299816"><ele>494.00000000000006</ele><time>2026-04-27T10:45:00Z</time></trkpt><trkpt lat="42.68264818794834" lon="11.903429575479661"><ele>492.0</ele><time>2026-04-27T10:45:01Z</time></trkpt><trkpt lat="42.682580978473176" lon="11.903442604041647"><ele>490.0</ele><time>2026-04-27T10:45:02Z</time></trkpt><trkpt lat="42.682501446539085" lon="11.903458021255743"><ele>488.0</ele><time>2026-04-27T10:45:04Z</time></trkpt><trkpt lat="42.68243985015544" lon="11.903362218127508"><ele>486.00000000000006</ele><time>2026-04-27T10:45:07Z</time></trkpt><trkpt lat="42.68242943146205" lon="11.903253969304101"><ele>484.0</ele><time>2026-04-27T10:45:08Z</time></trkpt><trkpt lat="42.68240771194809" lon="11.903139881578886"><ele>484.0</ele><time>2026-04-27T10:45:09Z</time></trkpt><trkpt lat="42.6823839381743" lon="11.90299549014359"><ele>484.0</ele><time>2026-04-27T10:45:10Z</time></trkpt><trkpt lat="42.68237152555218" lon="11.902850569479288"><ele>484.0</ele><time>2026-04-27T10:45:11Z</time></trkpt><trkpt lat="42.6823671230523" lon="11.902695365640403"><ele>484.0</ele><time>2026-04-27T10:45:12Z</time></trkpt><trkpt lat="42.68237602695421" lon="11.90255381814172"><ele>484.0</ele><time>2026-04-27T10:45:13Z</time></trkpt><trkpt lat="42.68238486283113" lon="11.902417874286698"><ele>483.75</ele><time>2026-04-27T10:45:14Z</time></trkpt><trkpt lat="42.68239646727338" lon="11.90228988884816"><ele>483.5</ele><time>2026-04-27T10:45:15Z</time></trkpt><trkpt lat="42.682412360673915" lon="11.902170258875879"><ele>483.25</ele><time>2026-04-27T10:45:16Z</time></trkpt><trkpt lat="42.68243441569618" lon="11.902054647595588"><ele>483.0</ele><time>2026-04-27T10:45:17Z</time></trkpt><trkpt lat="42.680164917100974" lon="11.896039257403105"><ele>478.3333333333333</ele><time>2026-04-27T10:46:18.001Z</time></trkpt><trkpt lat="42.6800796591282" lon="11.895949716416013"><ele>473.66666666666663</ele><time>2026-04-27T10:46:19.001Z</time></trkpt><trkpt lat="42.680006750511446" lon="11.895883551644014"><ele>469.0</ele><time>2026-04-27T10:46:20.001Z</time></trkpt><trkpt lat="42.67993939376125" lon="11.895821086261066"><ele>464.3333333333333</ele><time>2026-04-27T10:46:21.001Z</time></trkpt><trkpt lat="42.67989361594561" lon="11.895731268725333"><ele>459.66666666666663</ele><time>2026-04-27T10:46:22.001Z</time></trkpt><trkpt lat="42.679852692440974" lon="11.895642258417563"><ele>455.0</ele><time>2026-04-27T10:46:23.001Z</time></trkpt><trkpt lat="42.679817814340716" lon="11.895553229551524"><ele>454.99999999999994</ele><time>2026-04-27T10:46:24.001Z</time></trkpt><trkpt lat="42.67978780341534" lon="11.895460765984806"><ele>455.0</ele><time>2026-04-27T10:46:25.001Z</time></trkpt><trkpt lat="42.679746521134156" lon="11.895358650053126"><ele>455.0</ele><time>2026-04-27T10:46:26.001Z</time></trkpt><trkpt lat="42.679699428682525" lon="11.895286775300187"><ele>455.0</ele><time>2026-04-27T10:46:27.001Z</time></trkpt><trkpt lat="42.67964301720481" lon="11.895202550663962"><ele>454.99999999999994</ele><time>2026-04-27T10:46:28.001Z</time></trkpt><trkpt lat="42.679581788526036" lon="11.895144362467473"><ele>455.0</ele><time>2026-04-27T10:46:29.001Z</time></trkpt><trkpt lat="42.67953270523266" lon="11.895076054908145"><ele>455.4</ele><time>2026-04-27T10:46:30.001Z</time></trkpt><trkpt lat="42.679493062090586" lon="11.894988271956572"><ele>455.8</ele><time>2026-04-27T10:46:31.001Z</time></trkpt><trkpt lat="42.67943682720227" lon="11.894908825984034"><ele>456.20000000000005</ele><time>2026-04-27T10:46:32.001Z</time></trkpt><trkpt lat="42.67932676490901" lon="11.894878431308246"><ele>456.6</ele><time>2026-04-27T10:46:33.001Z</time></trkpt><trkpt lat="42.67922022661756" lon="11.894862196644864"><ele>457.0</ele><time>2026-04-27T10:46:34.001Z</time></trkpt><trkpt lat="42.67909586414561" lon="11.894802826678788"><ele>452.75</ele><time>2026-04-27T10:46:35.001Z</time></trkpt><trkpt lat="42.678958131169374" lon="11.894766821591213"><ele>448.5</ele><time>2026-04-27T10:46:36.001Z</time></trkpt><trkpt lat="42.67882962100182" lon="11.894733779043115"><ele>444.25</ele><time>2026-04-27T10:46:37.001Z</time></trkpt><trkpt lat="42.678713987946054" lon="11.89472415708187"><ele>440.0</ele><time>2026-04-27T10:46:38Z</time></trkpt><trkpt lat="42.67861274217965" lon="11.894687762944526"><ele>438.16666666666663</ele><time>2026-04-27T10:46:39Z</time></trkpt><trkpt lat="42.67851855978621" lon="11.894665926313872"><ele>436.3333333333333</ele><time>2026-04-27T10:46:40Z</time></trkpt><trkpt lat="42.67843239697967" lon="11.894617594089992"><ele>434.5</ele><time>2026-04-27T10:46:41Z</time></trkpt><trkpt lat="42.678366008087785" lon="11.89459708593698"><ele>432.66666666666663</ele><time>2026-04-27T10:46:42Z</time></trkpt><trkpt lat="42.6782730534301" lon="11.894574017396227"><ele>430.8333333333333</ele><time>2026-04-27T10:46:44Z</time></trkpt><trkpt lat="42.67820666105809" lon="11.894544766251348"><ele>429.0</ele><time>2026-04-27T10:46:48Z</time></trkpt><trkpt lat="42.67795173862315" lon="11.894450906082502"><ele>429.0</ele><time>2026-04-27T10:49:18.001Z</time></trkpt><trkpt lat="42.67786813308112" lon="11.894376737481325"><ele>429.0</ele><time>2026-04-27T10:49:43.001Z</time></trkpt><trkpt lat="42.67793235630407" lon="11.894433711555639"><ele>429.0</ele><time>2026-04-27T10:49:53.001Z</time></trkpt><trkpt lat="42.677989758284134" lon="11.894484633729146"><ele>429.0</ele><time>2026-04-27T10:49:55.001Z</time></trkpt><trkpt lat="42.67848395135003" lon="11.894657223961065"><ele>429.0</ele><time>2026-04-27T10:51:18Z</time></trkpt><trkpt lat="42.67859081325215" lon="11.894683920230666"><ele>429.0</ele><time>2026-04-27T10:51:19Z</time></trkpt><trkpt lat="42.67869968467825" lon="11.894710581368624"><ele>429.0</ele><time>2026-04-27T10:51:20Z</time></trkpt><trkpt lat="42.67881584596001" lon="11.894751575877946"><ele>429.0</ele><time>2026-04-27T10:51:21Z</time></trkpt><trkpt lat="42.678927403748155" lon="11.894785790616506"><ele>431.2</ele><time>2026-04-27T10:51:22Z</time></trkpt><trkpt lat="42.6790333331535" lon="11.894813049868194"><ele>433.4</ele><time>2026-04-27T10:51:23Z</time></trkpt><trkpt lat="42.679136889969264" lon="11.894840592297367"><ele>435.6</ele><time>2026-04-27T10:51:24Z</time></trkpt><trkpt lat="42.679227286368764" lon="11.894867667312832"><ele>437.8</ele><time>2026-04-27T10:51:25Z</time></trkpt><trkpt lat="42.67931190636367" lon="11.894919589976631"><ele>440.0</ele><time>2026-04-27T10:51:26Z</time></trkpt><trkpt lat="42.679401425189766" lon="11.894936623250203"><ele>442.49999999999994</ele><time>2026-04-27T10:51:27Z</time></trkpt><trkpt lat="42.6794782368495" lon="11.894995283976487"><ele>445.0</ele><time>2026-04-27T10:51:28Z</time></trkpt><trkpt lat="42.67953645885646" lon="11.895064138436904"><ele>447.5</ele><time>2026-04-27T10:51:29Z</time></trkpt><trkpt lat="42.67958175195422" lon="11.895144214965665"><ele>450.0</ele><time>2026-04-27T10:51:30Z</time></trkpt><trkpt lat="42.67963478709111" lon="11.89521992677952"><ele>452.49999999999994</ele><time>2026-04-27T10:51:31Z</time></trkpt><trkpt lat="42.67969081776002" lon="11.89530787707125"><ele>455.0</ele><time>2026-04-27T10:51:32Z</time></trkpt><trkpt lat="42.67973336811624" lon="11.895406724200603"><ele>455.0</ele><time>2026-04-27T10:51:33.001Z</time></trkpt><trkpt lat="42.67977325743114" lon="11.895489845728825"><ele>455.0</ele><time>2026-04-27T10:51:34.001Z</time></trkpt><trkpt lat="42.67982794181315" lon="11.895641071663796"><ele>455.0</ele><time>2026-04-27T10:51:36.001Z</time></trkpt><trkpt lat="42.679864455017615" lon="11.895746252998613"><ele>455.0</ele><time>2026-04-27T10:51:37.001Z</time></trkpt><trkpt lat="42.67990446927685" lon="11.89583630400857"><ele>455.0</ele><time>2026-04-27T10:51:38.001Z</time></trkpt><trkpt lat="42.67997487210241" lon="11.89591319072004"><ele>453.8</ele><time>2026-04-27T10:51:39.001Z</time></trkpt><trkpt lat="42.6800483544048" lon="11.895977308024305"><ele>452.6</ele><time>2026-04-27T10:51:40.001Z</time></trkpt><trkpt lat="42.68013089532213" lon="11.896030166878829"><ele>451.4</ele><time>2026-04-27T10:51:41.001Z</time></trkpt><trkpt lat="42.6802119249159" lon="11.89611244105199"><ele>450.2</ele><time>2026-04-27T10:51:42.001Z</time></trkpt><trkpt lat="42.680286610886874" lon="11.896202048887416"><ele>449.0</ele><time>2026-04-27T10:51:43.001Z</time></trkpt><trkpt lat="42.68033892250191" lon="11.896302716833702"><ele>453.0</ele><time>2026-04-27T10:51:44.001Z</time></trkpt><trkpt lat="42.68038439288177" lon="11.896407649205392"><ele>457.0</ele><time>2026-04-27T10:51:45.001Z</time></trkpt><trkpt lat="42.680434542322594" lon="11.896543392893658"><ele>461.0</ele><time>2026-04-27T10:51:46.001Z</time></trkpt><trkpt lat="42.68047262993351" lon="11.896663869576146"><ele>465.0</ele><time>2026-04-27T10:51:47.001Z</time></trkpt><trkpt lat="42.68048894759658" lon="11.896787033589552"><ele>469.0</ele><time>2026-04-27T10:51:48.001Z</time></trkpt><trkpt lat="42.680527391107674" lon="11.89695029411782"><ele>469.2</ele><time>2026-04-27T10:51:49.001Z</time></trkpt><trkpt lat="42.68055471813104" lon="11.89710246053976"><ele>469.4</ele><time>2026-04-27T10:51:50.001Z</time></trkpt><trkpt lat="42.68058783358808" lon="11.897242164837936"><ele>469.6</ele><time>2026-04-27T10:51:51.001Z</time></trkpt><trkpt lat="42.6806185134424" lon="11.897370057578682"><ele>469.8</ele><time>2026-04-27T10:51:52.001Z</time></trkpt><trkpt lat="42.68065570918917" lon="11.897491253118186"><ele>470.0</ele><time>2026-04-27T10:51:53.001Z</time></trkpt><trkpt lat="42.680694077499375" lon="11.897604573854267"><ele>469.0</ele><time>2026-04-27T10:51:54.001Z</time></trkpt><trkpt lat="42.680736102606886" lon="11.89770731460306"><ele>468.0</ele><time>2026-04-27T10:51:55.001Z</time></trkpt><trkpt lat="42.680785460181234" lon="11.897804879534737"><ele>467.0</ele><time>2026-04-27T10:51:56.001Z</time></trkpt><trkpt lat="42.6808157879736" lon="11.897889836893155"><ele>466.0</ele><time>2026-04-27T10:51:57.001Z</time></trkpt><trkpt lat="42.680907893292655" lon="11.898030935451448"><ele>465.0</ele><time>2026-04-27T10:51:59.001Z</time></trkpt><trkpt lat="42.68097473102153" lon="11.898107653022556"><ele>465.0</ele><time>2026-04-27T10:52:00.001Z</time></trkpt><trkpt lat="42.68105850158677" lon="11.89817249087737"><ele>465.0</ele><time>2026-04-27T10:52:01.001Z</time></trkpt><trkpt lat="42.68112069966363" lon="11.898227178801763"><ele>465.0</ele><time>2026-04-27T10:52:02.001Z</time></trkpt><trkpt lat="42.681184355915335" lon="11.898266362432196"><ele>465.0</ele><time>2026-04-27T10:52:03.001Z</time></trkpt><trkpt lat="42.68125532253228" lon="11.898313269670371"><ele>465.0</ele><time>2026-04-27T10:52:04.001Z</time></trkpt><trkpt lat="42.68131045038025" lon="11.898387733832632"><ele>465.0</ele><time>2026-04-27T10:52:05.001Z</time></trkpt><trkpt lat="42.68135543685794" lon="11.898527451174376"><ele>467.3333333333333</ele><time>2026-04-27T10:52:07.001Z</time></trkpt><trkpt lat="42.681361073863435" lon="11.89863066816428"><ele>469.66666666666663</ele><time>2026-04-27T10:52:08.001Z</time></trkpt><trkpt lat="42.68136207000015" lon="11.8987315497553"><ele>472.0</ele><time>2026-04-27T10:52:09.001Z</time></trkpt><trkpt lat="42.68136726664908" lon="11.898817647214104"><ele>474.3333333333333</ele><time>2026-04-27T10:52:10.001Z</time></trkpt><trkpt lat="42.68138487067408" lon="11.898916761418555"><ele>476.66666666666663</ele><time>2026-04-27T10:52:11.001Z</time></trkpt><trkpt lat="42.68138433238977" lon="11.899029727726091"><ele>479.0</ele><time>2026-04-27T10:52:12.001Z</time></trkpt><trkpt lat="42.68139450301601" lon="11.89915015844349"><ele>479.0</ele><time>2026-04-27T10:52:13.001Z</time></trkpt><trkpt lat="42.681401603661314" lon="11.89928527355012"><ele>479.0</ele><time>2026-04-27T10:52:14.001Z</time></trkpt><trkpt lat="42.681407972178405" lon="11.899425662485228"><ele>479.0</ele><time>2026-04-27T10:52:15.001Z</time></trkpt><trkpt lat="42.68141420799565" lon="11.899580764944924"><ele>479.0</ele><time>2026-04-27T10:52:16.001Z</time></trkpt><trkpt lat="42.681420747942994" lon="11.899738010412673"><ele>479.0</ele><time>2026-04-27T10:52:17.001Z</time></trkpt><trkpt lat="42.68308609163033" lon="11.901208235197196"><ele>481.2</ele><time>2026-04-27T10:53:17.999Z</time></trkpt><trkpt lat="42.683134667472785" lon="11.90110747053153"><ele>483.4</ele><time>2026-04-27T10:53:19Z</time></trkpt><trkpt lat="42.68319309789468" lon="11.90103251041109"><ele>485.6</ele><time>2026-04-27T10:53:20Z</time></trkpt><trkpt lat="42.68330321928849" lon="11.90093345840731"><ele>487.8</ele><time>2026-04-27T10:53:22Z</time></trkpt><trkpt lat="42.683385178895115" lon="11.900928840778917"><ele>490.0</ele><time>2026-04-27T10:53:23Z</time></trkpt><trkpt lat="42.68345633704104" lon="11.900997325535187"><ele>490.0</ele><time>2026-04-27T10:53:24Z</time></trkpt><trkpt lat="42.68353119488225" lon="11.901063975822863"><ele>490.0</ele><time>2026-04-27T10:53:25Z</time></trkpt><trkpt lat="42.683625441553424" lon="11.901141495425508"><ele>490.0</ele><time>2026-04-27T10:53:26Z</time></trkpt><trkpt lat="42.68373088608898" lon="11.901224627955084"><ele>490.0</ele><time>2026-04-27T10:53:27Z</time></trkpt><trkpt lat="42.68386105818068" lon="11.901306307177324"><ele>491.25</ele><time>2026-04-27T10:53:28Z</time></trkpt><trkpt lat="42.683981456918616" lon="11.901419833179238"><ele>492.5</ele><time>2026-04-27T10:53:29Z</time></trkpt><trkpt lat="42.684101360772736" lon="11.901515923886475"><ele>493.75</ele><time>2026-04-27T10:53:30Z</time></trkpt><trkpt lat="42.684216617821896" lon="11.901607998153219"><ele>495.0</ele><time>2026-04-27T10:53:31Z</time></trkpt><trkpt lat="42.68432877952" lon="11.9016923906112"><ele>496.1666666666667</ele><time>2026-04-27T10:53:32Z</time></trkpt><trkpt lat="42.684431235059286" lon="11.901779022426203"><ele>497.33333333333337</ele><time>2026-04-27T10:53:33Z</time></trkpt><trkpt lat="42.68451344022229" lon="11.901847400422023"><ele>498.5</ele><time>2026-04-27T10:53:34Z</time></trkpt><trkpt lat="42.68457567975403" lon="11.901903340493993"><ele>499.6666666666667</ele><time>2026-04-27T10:53:35Z</time></trkpt><trkpt lat="42.684629196459035" lon="11.901956229926967"><ele>500.83333333333337</ele><time>2026-04-27T10:53:36Z</time></trkpt><trkpt lat="42.68469720999068" lon="11.902015921483377"><ele>502.0</ele><time>2026-04-27T10:53:38Z</time></trkpt><trkpt lat="42.68461911197538" lon="11.90219648733267"><ele>502.00000000000006</ele><time>2026-04-27T10:53:39Z</time></trkpt><trkpt lat="42.6845985844822" lon="11.902306361449348"><ele>502.0</ele><time>2026-04-27T10:53:40Z</time></trkpt><trkpt lat="42.68457319085898" lon="11.902419006838572"><ele>502.0</ele><time>2026-04-27T10:53:41Z</time></trkpt><trkpt lat="42.68454669351013" lon="11.902530298157009"><ele>502.0</ele><time>2026-04-27T10:53:42Z</time></trkpt><trkpt lat="42.68452279327436" lon="11.90263633239782"><ele>502.00000000000006</ele><time>2026-04-27T10:53:43Z</time></trkpt><trkpt lat="42.68451787590665" lon="11.902742581578485"><ele>502.0</ele><time>2026-04-27T10:53:44Z</time></trkpt><trkpt lat="42.68449097726498" lon="11.902820433944969"><ele>502.1666666666667</ele><time>2026-04-27T10:53:45Z</time></trkpt><trkpt lat="42.68452655385385" lon="11.902917054107956"><ele>502.33333333333337</ele><time>2026-04-27T10:53:46Z</time></trkpt><trkpt lat="42.68452554185192" lon="11.903009478003533"><ele>502.5</ele><time>2026-04-27T10:53:47Z</time></trkpt><trkpt lat="42.68454298776949" lon="11.903095909768581"><ele>502.66666666666663</ele><time>2026-04-27T10:53:48Z</time></trkpt><trkpt lat="42.684551859669725" lon="11.9032096320591"><ele>502.8333333333333</ele><time>2026-04-27T10:53:50Z</time></trkpt><trkpt lat="42.68446501093038" lon="11.903211301402871"><ele>503.0</ele><time>2026-04-27T10:53:52Z</time></trkpt><trkpt lat="42.68440160215917" lon="11.903258511244939"><ele>502.5</ele><time>2026-04-27T10:53:54Z</time></trkpt><trkpt lat="42.68451399013947" lon="11.903454543172247"><ele>502.0</ele><time>2026-04-27T10:53:57Z</time></trkpt><trkpt lat="42.68551296136436" lon="11.906022824538598"><ele>499.6666666666667</ele><time>2026-04-27T10:59:17.999Z</time></trkpt><trkpt lat="42.68554864124839" lon="11.906115957908025"><ele>497.33333333333337</ele><time>2026-04-27T10:59:30Z</time></trkpt><trkpt lat="42.68548218155831" lon="11.906174037118179"><ele>495.0</ele><time>2026-04-27T10:59:33Z</time></trkpt><trkpt lat="42.685888965873716" lon="11.906566553460687"><ele>495.0</ele><time>2026-04-27T11:01:18.002Z</time></trkpt><trkpt lat="42.68594762350409" lon="11.906524525299782"><ele>495.0</ele><time>2026-04-27T11:02:45.001Z</time></trkpt><trkpt lat="42.685914410382246" lon="11.906425352907014"><ele>495.0</ele><time>2026-04-27T11:02:46.001Z</time></trkpt><trkpt lat="42.685782223279325" lon="11.90607714764416"><ele>495.0</ele><time>2026-04-27T11:15:34.001Z</time></trkpt><trkpt lat="42.68637419080915" lon="11.905934195881509"><ele>494.8333333333333</ele><time>2026-04-27T11:19:18.001Z</time></trkpt><trkpt lat="42.6864381226008" lon="11.905884679246919"><ele>494.66666666666663</ele><time>2026-04-27T11:19:19.001Z</time></trkpt><trkpt lat="42.686512227702686" lon="11.90583383314383"><ele>494.5</ele><time>2026-04-27T11:19:20.001Z</time></trkpt><trkpt lat="42.68658254728999" lon="11.905783329986873"><ele>494.3333333333333</ele><time>2026-04-27T11:19:21.001Z</time></trkpt><trkpt lat="42.68665121860924" lon="11.90573429653458"><ele>494.16666666666663</ele><time>2026-04-27T11:19:22.001Z</time></trkpt><trkpt lat="42.68671898573036" lon="11.905680447600867"><ele>494.0</ele><time>2026-04-27T11:19:23.001Z</time></trkpt><trkpt lat="42.68678844275199" lon="11.905628830984986"><ele>493.99999999999994</ele><time>2026-04-27T11:19:24.001Z</time></trkpt><trkpt lat="42.68685770795944" lon="11.905573764735363"><ele>494.0</ele><time>2026-04-27T11:19:25.001Z</time></trkpt><trkpt lat="42.68692782964317" lon="11.905518985686827"><ele>494.0</ele><time>2026-04-27T11:19:26.001Z</time></trkpt><trkpt lat="42.686998255133894" lon="11.90546354872402"><ele>494.0</ele><time>2026-04-27T11:19:27.001Z</time></trkpt><trkpt lat="42.68706926961327" lon="11.905407877248804"><ele>493.99999999999994</ele><time>2026-04-27T11:19:28.001Z</time></trkpt><trkpt lat="42.68714355684804" lon="11.905356494288569"><ele>494.0</ele><time>2026-04-27T11:19:29.001Z</time></trkpt><trkpt lat="42.687221211293036" lon="11.905303038005362"><ele>493.4</ele><time>2026-04-27T11:19:30.001Z</time></trkpt><trkpt lat="42.68730284124697" lon="11.905248281531012"><ele>492.79999999999995</ele><time>2026-04-27T11:19:31.001Z</time></trkpt><trkpt lat="42.687386554102616" lon="11.905191247284465"><ele>492.20000000000005</ele><time>2026-04-27T11:19:32.001Z</time></trkpt><trkpt lat="42.687471652937305" lon="11.905132388569704"><ele>491.6</ele><time>2026-04-27T11:19:33.001Z</time></trkpt><trkpt lat="42.687558959275286" lon="11.905071720475688"><ele>491.0</ele><time>2026-04-27T11:19:34.001Z</time></trkpt><trkpt lat="42.687647924972026" lon="11.905006807176685"><ele>490.20000000000005</ele><time>2026-04-27T11:19:35.001Z</time></trkpt><trkpt lat="42.68773952843221" lon="11.904941132624442"><ele>489.40000000000003</ele><time>2026-04-27T11:19:36.001Z</time></trkpt><trkpt lat="42.687831399678664" lon="11.904874166996999"><ele>488.6</ele><time>2026-04-27T11:19:37.001Z</time></trkpt><trkpt lat="42.68792372340555" lon="11.904806254803825"><ele>487.8</ele><time>2026-04-27T11:19:38.001Z</time></trkpt><trkpt lat="42.68801383773807" lon="11.90474059454187"><ele>487.0</ele><time>2026-04-27T11:19:39.001Z</time></trkpt><trkpt lat="42.688104335013854" lon="11.904677618035615"><ele>487.0</ele><time>2026-04-27T11:19:40.001Z</time></trkpt><trkpt lat="42.68818846678691" lon="11.904615240397405"><ele>487.00000000000006</ele><time>2026-04-27T11:19:41.001Z</time></trkpt><trkpt lat="42.688275297139285" lon="11.904550999103646"><ele>487.00000000000006</ele><time>2026-04-27T11:19:42.001Z</time></trkpt><trkpt lat="42.68837008415254" lon="11.904483618846022"><ele>487.0</ele><time>2026-04-27T11:19:43.002Z</time></trkpt><trkpt lat="42.68846747953421" lon="11.904410784436898"><ele>487.0</ele><time>2026-04-27T11:19:44.002Z</time></trkpt><trkpt lat="42.68857054641076" lon="11.90434088043918"><ele>486.75</ele><time>2026-04-27T11:19:45.002Z</time></trkpt><trkpt lat="42.688677632128275" lon="11.904277226264885"><ele>486.5</ele><time>2026-04-27T11:19:46.002Z</time></trkpt><trkpt lat="42.68878610956859" lon="11.904214252768297"><ele>486.25</ele><time>2026-04-27T11:19:47.002Z</time></trkpt><trkpt lat="42.688893056079934" lon="11.904157226357988"><ele>486.0</ele><time>2026-04-27T11:19:48.002Z</time></trkpt><trkpt lat="42.68900549789656" lon="11.904119173210034"><ele>484.75</ele><time>2026-04-27T11:19:49.002Z</time></trkpt><trkpt lat="42.689118817108884" lon="11.904100670277924"><ele>483.5</ele><time>2026-04-27T11:19:50.002Z</time></trkpt><trkpt lat="42.68923161345705" lon="11.904100687206341"><ele>482.25</ele><time>2026-04-27T11:19:51.002Z</time></trkpt><trkpt lat="42.68934656696454" lon="11.904106336364855"><ele>481.0</ele><time>2026-04-27T11:19:52.002Z</time></trkpt><trkpt lat="42.689464607479856" lon="11.904115391993576"><ele>480.0</ele><time>2026-04-27T11:19:53.002Z</time></trkpt><trkpt lat="42.68958590080774" lon="11.90412170593396"><ele>479.0</ele><time>2026-04-27T11:19:54.002Z</time></trkpt><trkpt lat="42.68970734398768" lon="11.90412045684809"><ele>478.0</ele><time>2026-04-27T11:19:55.002Z</time></trkpt><trkpt lat="42.68982957218933" lon="11.904101760921955"><ele>477.0</ele><time>2026-04-27T11:19:56.002Z</time></trkpt><trkpt lat="42.68995200785936" lon="11.904063816204683"><ele>477.0</ele><time>2026-04-27T11:19:57.002Z</time></trkpt><trkpt lat="42.690070222245645" lon="11.904008120715504"><ele>477.0</ele><time>2026-04-27T11:19:58.002Z</time></trkpt><trkpt lat="42.69019169997756" lon="11.903959901723416"><ele>477.0</ele><time>2026-04-27T11:19:59.002Z</time></trkpt><trkpt lat="42.69030860531063" lon="11.9038977876828"><ele>477.0</ele><time>2026-04-27T11:20:00.002Z</time></trkpt><trkpt lat="42.69042414524135" lon="11.90384014917879"><ele>475.5</ele><time>2026-04-27T11:20:01.002Z</time></trkpt><trkpt lat="42.69054089011307" lon="11.903777776820654"><ele>474.0</ele><time>2026-04-27T11:20:02.002Z</time></trkpt><trkpt lat="42.69065449151194" lon="11.903707919987859"><ele>472.5</ele><time>2026-04-27T11:20:03.002Z</time></trkpt><trkpt lat="42.69077191884517" lon="11.903643610458921"><ele>471.0</ele><time>2026-04-27T11:20:04.002Z</time></trkpt><trkpt lat="42.69089256262879" lon="11.90359024653941"><ele>471.0</ele><time>2026-04-27T11:20:05.002Z</time></trkpt><trkpt lat="42.69101322350906" lon="11.903527178105083"><ele>471.0</ele><time>2026-04-27T11:20:06.002Z</time></trkpt><trkpt lat="42.691138030856145" lon="11.903470578956627"><ele>471.0</ele><time>2026-04-27T11:20:07.002Z</time></trkpt><trkpt lat="42.69127133527704" lon="11.903423476307971"><ele>471.0</ele><time>2026-04-27T11:20:08.002Z</time></trkpt><trkpt lat="42.691410269457066" lon="11.903385440505293"><ele>471.25</ele><time>2026-04-27T11:20:09.002Z</time></trkpt><trkpt lat="42.69155141320104" lon="11.903356290575587"><ele>471.5</ele><time>2026-04-27T11:20:10.002Z</time></trkpt><trkpt lat="42.691698007800746" lon="11.903323400637817"><ele>471.75</ele><time>2026-04-27T11:20:11.002Z</time></trkpt><trkpt lat="42.69184696667295" lon="11.903292195572385"><ele>472.0</ele><time>2026-04-27T11:20:12.002Z</time></trkpt><trkpt lat="42.69199568087659" lon="11.903262291189629"><ele>470.6666666666667</ele><time>2026-04-27T11:20:13.002Z</time></trkpt><trkpt lat="42.692143724605685" lon="11.903232562472956"><ele>469.33333333333337</ele><time>2026-04-27T11:20:13.999Z</time></trkpt><trkpt lat="42.692293245544896" lon="11.903202911965312"><ele>468.0</ele><time>2026-04-27T11:20:14.999Z</time></trkpt><trkpt lat="42.69244268551908" lon="11.903172447801461"><ele>468.0</ele><time>2026-04-27T11:20:15.999Z</time></trkpt><trkpt lat="42.692591506263554" lon="11.903145970281864"><ele>468.0</ele><time>2026-04-27T11:20:16.999Z</time></trkpt><trkpt lat="42.70224473763266" lon="11.901067712337827"><ele>463.66666666666663</ele><time>2026-04-27T11:21:18.001Z</time></trkpt><trkpt lat="42.70241168697015" lon="11.901070734062692"><ele>459.3333333333333</ele><time>2026-04-27T11:21:19.001Z</time></trkpt><trkpt lat="42.70257017100521" lon="11.90106785785496"><ele>455.0</ele><time>2026-04-27T11:21:20.001Z</time></trkpt><trkpt lat="42.702728422697184" lon="11.901065226630134"><ele>455.3333333333333</ele><time>2026-04-27T11:21:21.001Z</time></trkpt><trkpt lat="42.70288524234905" lon="11.901061779460237"><ele>455.66666666666663</ele><time>2026-04-27T11:21:22.001Z</time></trkpt><trkpt lat="42.703043132103936" lon="11.90105248882564"><ele>456.0</ele><time>2026-04-27T11:21:23.001Z</time></trkpt><trkpt lat="42.70319834808702" lon="11.901044139780554"><ele>456.0</ele><time>2026-04-27T11:21:24.001Z</time></trkpt><trkpt lat="42.70335799819893" lon="11.901028419821625"><ele>456.0</ele><time>2026-04-27T11:21:25.001Z</time></trkpt><trkpt lat="42.70351466943095" lon="11.900991482037975"><ele>456.0</ele><time>2026-04-27T11:21:26.001Z</time></trkpt><trkpt lat="42.703675648215075" lon="11.900937090691746"><ele>455.33333333333337</ele><time>2026-04-27T11:21:27.001Z</time></trkpt><trkpt lat="42.70383935454257" lon="11.900884505908145"><ele>454.6666666666667</ele><time>2026-04-27T11:21:28.001Z</time></trkpt><trkpt lat="42.70400642066822" lon="11.900825730950933"><ele>454.0</ele><time>2026-04-27T11:21:29.001Z</time></trkpt><trkpt lat="42.70416693660684" lon="11.900770013654173"><ele>454.0</ele><time>2026-04-27T11:21:30.001Z</time></trkpt><trkpt lat="42.70431858278348" lon="11.900712234762366"><ele>454.0</ele><time>2026-04-27T11:21:31.001Z</time></trkpt><trkpt lat="42.704469873286975" lon="11.900648878506757"><ele>454.0</ele><time>2026-04-27T11:21:32.001Z</time></trkpt><trkpt lat="42.704625530857605" lon="11.90057452761932"><ele>453.0</ele><time>2026-04-27T11:21:33.001Z</time></trkpt><trkpt lat="42.70479135256435" lon="11.900504782333206"><ele>452.0</ele><time>2026-04-27T11:21:34.001Z</time></trkpt><trkpt lat="42.7049667758429" lon="11.900454320470425"><ele>451.0</ele><time>2026-04-27T11:21:35.001Z</time></trkpt><trkpt lat="42.70514704488204" lon="11.900402193720739"><ele>450.6666666666667</ele><time>2026-04-27T11:21:36.001Z</time></trkpt><trkpt lat="42.705335520043924" lon="11.90036215058864"><ele>450.33333333333337</ele><time>2026-04-27T11:21:37.001Z</time></trkpt><trkpt lat="42.705524312762414" lon="11.900328044489864"><ele>450.0</ele><time>2026-04-27T11:21:38.001Z</time></trkpt><trkpt lat="42.70571309426525" lon="11.900286823091461"><ele>450.0</ele><time>2026-04-27T11:21:39.001Z</time></trkpt><trkpt lat="42.705905246075766" lon="11.90024244245375"><ele>450.0</ele><time>2026-04-27T11:21:40.001Z</time></trkpt><trkpt lat="42.70609502349039" lon="11.900201951244057"><ele>450.0</ele><time>2026-04-27T11:21:41.001Z</time></trkpt><trkpt lat="42.706283908632656" lon="11.900163127046316"><ele>449.66666666666663</ele><time>2026-04-27T11:21:42.001Z</time></trkpt><trkpt lat="42.70647552264367" lon="11.900125067236072"><ele>449.3333333333333</ele><time>2026-04-27T11:21:43.001Z</time></trkpt><trkpt lat="42.70666780947193" lon="11.900083028071206"><ele>449.0</ele><time>2026-04-27T11:21:44.002Z</time></trkpt><trkpt lat="42.70685713373823" lon="11.900034442410528"><ele>449.0</ele><time>2026-04-27T11:21:45.002Z</time></trkpt><trkpt lat="42.7070483301799" lon="11.899981578857153"><ele>449.0</ele><time>2026-04-27T11:21:46.002Z</time></trkpt><trkpt lat="42.70724335963847" lon="11.899931145364045"><ele>449.0</ele><time>2026-04-27T11:21:47.002Z</time></trkpt><trkpt lat="42.707432682237894" lon="11.89985808064099"><ele>449.0</ele><time>2026-04-27T11:21:48.002Z</time></trkpt><trkpt lat="42.70762248974798" lon="11.899767306102298"><ele>449.0</ele><time>2026-04-27T11:21:49.002Z</time></trkpt><trkpt lat="42.70781416101699" lon="11.899664647521295"><ele>449.0</ele><time>2026-04-27T11:21:50.002Z</time></trkpt><trkpt lat="42.708007210374035" lon="11.899552176209339"><ele>449.0</ele><time>2026-04-27T11:21:51.002Z</time></trkpt><trkpt lat="42.70820549350346" lon="11.89943704209846"><ele>449.0</ele><time>2026-04-27T11:21:52.002Z</time></trkpt><trkpt lat="42.708404552708764" lon="11.899321338621961"><ele>449.0</ele><time>2026-04-27T11:21:53.002Z</time></trkpt><trkpt lat="42.70860385210038" lon="11.899206064895347"><ele>449.0</ele><time>2026-04-27T11:21:54.002Z</time></trkpt><trkpt lat="42.70880602763045" lon="11.899091811598552"><ele>449.0</ele><time>2026-04-27T11:21:55.002Z</time></trkpt><trkpt lat="42.70900858098129" lon="11.898977073187876"><ele>449.0</ele><time>2026-04-27T11:21:56.002Z</time></trkpt><trkpt lat="42.70921016401904" lon="11.898861730498451"><ele>448.0</ele><time>2026-04-27T11:21:57.002Z</time></trkpt><trkpt lat="42.709411581787016" lon="11.898743611311602"><ele>447.0</ele><time>2026-04-27T11:21:58.002Z</time></trkpt><trkpt lat="42.709612501408564" lon="11.898624521428657"><ele>446.0</ele><time>2026-04-27T11:21:59.002Z</time></trkpt><trkpt lat="42.70981522040865" lon="11.898505019089935"><ele>446.3333333333333</ele><time>2026-04-27T11:22:00.002Z</time></trkpt><trkpt lat="42.71002105858107" lon="11.898386533701082"><ele>446.66666666666663</ele><time>2026-04-27T11:22:01.002Z</time></trkpt><trkpt lat="42.71022500593479" lon="11.898278150044693"><ele>447.0</ele><time>2026-04-27T11:22:02.002Z</time></trkpt><trkpt lat="42.7104323939099" lon="11.898181233654274"><ele>446.33333333333337</ele><time>2026-04-27T11:22:03.002Z</time></trkpt><trkpt lat="42.71063751383218" lon="11.89809001764065"><ele>445.6666666666667</ele><time>2026-04-27T11:22:04.002Z</time></trkpt><trkpt lat="42.71083326016389" lon="11.898001266898468"><ele>445.0</ele><time>2026-04-27T11:22:05.002Z</time></trkpt><trkpt lat="42.71102159660362" lon="11.897916422845181"><ele>445.0</ele><time>2026-04-27T11:22:06.002Z</time></trkpt><trkpt lat="42.71120429235073" lon="11.897828825619131"><ele>445.0</ele><time>2026-04-27T11:22:07.002Z</time></trkpt><trkpt lat="42.7113830103807" lon="11.897739861244062"><ele>445.0</ele><time>2026-04-27T11:22:08.002Z</time></trkpt><trkpt lat="42.71156130015007" lon="11.897646369466814"><ele>445.33333333333337</ele><time>2026-04-27T11:22:09.002Z</time></trkpt><trkpt lat="42.71174095779244" lon="11.897549193034854"><ele>445.66666666666663</ele><time>2026-04-27T11:22:10.002Z</time></trkpt><trkpt lat="42.71192138532913" lon="11.897453308437813"><ele>446.0</ele><time>2026-04-27T11:22:11.002Z</time></trkpt><trkpt lat="42.71209928954835" lon="11.897356577398536"><ele>446.0</ele><time>2026-04-27T11:22:12.002Z</time></trkpt><trkpt lat="42.71227684594814" lon="11.897259678839044"><ele>446.0</ele><time>2026-04-27T11:22:13.002Z</time></trkpt><trkpt lat="42.71245457120663" lon="11.897164056869302"><ele>446.0</ele><time>2026-04-27T11:22:14.002Z</time></trkpt><trkpt lat="42.71262984230459" lon="11.897070863329736"><ele>447.0</ele><time>2026-04-27T11:22:15.002Z</time></trkpt><trkpt lat="42.712807417023804" lon="11.896975415071385"><ele>448.0</ele><time>2026-04-27T11:22:16.002Z</time></trkpt><trkpt lat="42.712986223093935" lon="11.896877118455082"><ele>449.0</ele><time>2026-04-27T11:22:17.002Z</time></trkpt><trkpt lat="42.724595916586594" lon="11.890603799496853"><ele>446.66666666666663</ele><time>2026-04-27T11:23:18.001Z</time></trkpt><trkpt lat="42.724765245998775" lon="11.890453898843436"><ele>444.33333333333337</ele><time>2026-04-27T11:23:19.001Z</time></trkpt><trkpt lat="42.72493046026749" lon="11.890289985390478"><ele>442.0</ele><time>2026-04-27T11:23:20.001Z</time></trkpt><trkpt lat="42.72509405468341" lon="11.89011920041985"><ele>442.0</ele><time>2026-04-27T11:23:21.001Z</time></trkpt><trkpt lat="42.7252530296776" lon="11.889949480067145"><ele>442.0</ele><time>2026-04-27T11:23:22.001Z</time></trkpt><trkpt lat="42.725404667502325" lon="11.889775696004781"><ele>442.0</ele><time>2026-04-27T11:23:23.001Z</time></trkpt><trkpt lat="42.72555139424463" lon="11.889592903994442"><ele>442.0</ele><time>2026-04-27T11:23:24.001Z</time></trkpt><trkpt lat="42.7256800973242" lon="11.889408644693033"><ele>442.0</ele><time>2026-04-27T11:23:25.001Z</time></trkpt><trkpt lat="42.72579813607538" lon="11.889225968567604"><ele>442.0</ele><time>2026-04-27T11:23:26.001Z</time></trkpt><trkpt lat="42.725915239444234" lon="11.889052868831554"><ele>442.0</ele><time>2026-04-27T11:23:27.001Z</time></trkpt><trkpt lat="42.72603185023194" lon="11.888903372228912"><ele>442.0</ele><time>2026-04-27T11:23:28.001Z</time></trkpt><trkpt lat="42.72613224480453" lon="11.888760155398161"><ele>442.0</ele><time>2026-04-27T11:23:29.001Z</time></trkpt><trkpt lat="42.726232757210674" lon="11.888613928933303"><ele>442.0</ele><time>2026-04-27T11:23:30.002Z</time></trkpt><trkpt lat="42.72634218404502" lon="11.888450850456909"><ele>442.0</ele><time>2026-04-27T11:23:31.002Z</time></trkpt><trkpt lat="42.72646566356072" lon="11.88827787118704"><ele>442.0</ele><time>2026-04-27T11:23:32.002Z</time></trkpt><trkpt lat="42.726595448928975" lon="11.888098908408665"><ele>441.6666666666667</ele><time>2026-04-27T11:23:33.002Z</time></trkpt><trkpt lat="42.72675808502586" lon="11.88792300000141"><ele>441.33333333333337</ele><time>2026-04-27T11:23:34.002Z</time></trkpt><trkpt lat="42.72692269618261" lon="11.887724495257338"><ele>441.0</ele><time>2026-04-27T11:23:35.002Z</time></trkpt><trkpt lat="42.72709138123379" lon="11.887518171759403"><ele>439.0</ele><time>2026-04-27T11:23:36.002Z</time></trkpt><trkpt lat="42.72726614591693" lon="11.887302475614296"><ele>437.0</ele><time>2026-04-27T11:23:37.002Z</time></trkpt><trkpt lat="42.72744416196033" lon="11.887095728228651"><ele>437.0</ele><time>2026-04-27T11:23:38.002Z</time></trkpt><trkpt lat="42.727618550364355" lon="11.88688774745025"><ele>437.0</ele><time>2026-04-27T11:23:39.002Z</time></trkpt><trkpt lat="42.72779890888034" lon="11.886678550295729"><ele>435.5</ele><time>2026-04-27T11:23:40.002Z</time></trkpt><trkpt lat="42.727980117323376" lon="11.886464675225437"><ele>434.0</ele><time>2026-04-27T11:23:41.002Z</time></trkpt><trkpt lat="42.72815664238201" lon="11.886257196647195"><ele>434.0</ele><time>2026-04-27T11:23:42.002Z</time></trkpt><trkpt lat="42.72832022841755" lon="11.886059281993923"><ele>434.0</ele><time>2026-04-27T11:23:43.002Z</time></trkpt><trkpt lat="42.72848573399908" lon="11.885850945274477"><ele>434.0</ele><time>2026-04-27T11:23:44.002Z</time></trkpt><trkpt lat="42.72864087262164" lon="11.885669630115908"><ele>434.0</ele><time>2026-04-27T11:23:45.002Z</time></trkpt><trkpt lat="42.728786747174574" lon="11.885499071426985"><ele>434.0</ele><time>2026-04-27T11:23:46.002Z</time></trkpt><trkpt lat="42.72892443982771" lon="11.88533270507758"><ele>434.0</ele><time>2026-04-27T11:23:47.002Z</time></trkpt><trkpt lat="42.72905362525104" lon="11.885171059423495"><ele>434.3333333333333</ele><time>2026-04-27T11:23:48.002Z</time></trkpt><trkpt lat="42.72919186582764" lon="11.885044861151409"><ele>434.66666666666663</ele><time>2026-04-27T11:23:49.002Z</time></trkpt><trkpt lat="42.729334493828304" lon="11.884934676426427"><ele>435.0</ele><time>2026-04-27T11:23:50.002Z</time></trkpt><trkpt lat="42.72949441574887" lon="11.884835720137167"><ele>435.0</ele><time>2026-04-27T11:23:51.002Z</time></trkpt><trkpt lat="42.72966195773823" lon="11.884754598992693"><ele>435.0</ele><time>2026-04-27T11:23:52.002Z</time></trkpt><trkpt lat="42.72983014929459" lon="11.884695457137903"><ele>435.0</ele><time>2026-04-27T11:23:53.002Z</time></trkpt><trkpt lat="42.730011474361596" lon="11.884664926821117"><ele>435.0</ele><time>2026-04-27T11:23:54.002Z</time></trkpt><trkpt lat="42.73020230894212" lon="11.884643504191855"><ele>435.0</ele><time>2026-04-27T11:23:55.002Z</time></trkpt><trkpt lat="42.730412714710354" lon="11.884662459686828"><ele>435.0</ele><time>2026-04-27T11:23:56.002Z</time></trkpt><trkpt lat="42.73061273187069" lon="11.88461979310816"><ele>434.33333333333337</ele><time>2026-04-27T11:23:57.002Z</time></trkpt><trkpt lat="42.73080940087829" lon="11.884554966203597"><ele>433.6666666666667</ele><time>2026-04-27T11:23:58.002Z</time></trkpt><trkpt lat="42.73101014494387" lon="11.884485526775258"><ele>433.0</ele><time>2026-04-27T11:23:59.002Z</time></trkpt><trkpt lat="42.731211719755095" lon="11.884425093198582"><ele>432.33333333333337</ele><time>2026-04-27T11:24:00.002Z</time></trkpt><trkpt lat="42.73141870698295" lon="11.884387909687899"><ele>431.66666666666663</ele><time>2026-04-27T11:24:01.002Z</time></trkpt><trkpt lat="42.731624026856025" lon="11.884370105593831"><ele>431.0</ele><time>2026-04-27T11:24:02.002Z</time></trkpt><trkpt lat="42.73182821771137" lon="11.884366454320437"><ele>430.66666666666663</ele><time>2026-04-27T11:24:03.002Z</time></trkpt><trkpt lat="42.73203080666889" lon="11.884357153901075"><ele>430.33333333333337</ele><time>2026-04-27T11:24:04.002Z</time></trkpt><trkpt lat="42.73223048212728" lon="11.88433364199428"><ele>430.0</ele><time>2026-04-27T11:24:05.002Z</time></trkpt><trkpt lat="42.732425182086054" lon="11.884303564321794"><ele>430.0</ele><time>2026-04-27T11:24:06.002Z</time></trkpt><trkpt lat="42.73261881136127" lon="11.884271663878037"><ele>430.0</ele><time>2026-04-27T11:24:07.002Z</time></trkpt><trkpt lat="42.732809925038744" lon="11.884237944447111"><ele>430.0</ele><time>2026-04-27T11:24:08.002Z</time></trkpt><trkpt lat="42.73299681452694" lon="11.884208249963294"><ele>431.33333333333337</ele><time>2026-04-27T11:24:09.002Z</time></trkpt><trkpt lat="42.73317850810413" lon="11.884189111600655"><ele>432.66666666666663</ele><time>2026-04-27T11:24:10.002Z</time></trkpt><trkpt lat="42.73335929619701" lon="11.884173573382855"><ele>434.0</ele><time>2026-04-27T11:24:11.002Z</time></trkpt><trkpt lat="42.7335388260895" lon="11.88416210507187"><ele>433.3333333333333</ele><time>2026-04-27T11:24:12.003Z</time></trkpt><trkpt lat="42.7337163892233" lon="11.884151427139185"><ele>432.66666666666663</ele><time>2026-04-27T11:24:13.003Z</time></trkpt><trkpt lat="42.733891115384765" lon="11.884142355794179"><ele>432.0</ele><time>2026-04-27T11:24:14.003Z</time></trkpt><trkpt lat="42.73406534097433" lon="11.884128846434908"><ele>432.0</ele><time>2026-04-27T11:24:15.003Z</time></trkpt><trkpt lat="42.734244231458995" lon="11.88409980718461"><ele>432.0</ele><time>2026-04-27T11:24:16.003Z</time></trkpt><trkpt lat="42.73442510380112" lon="11.884062576495278"><ele>432.0</ele><time>2026-04-27T11:24:17.003Z</time></trkpt><trkpt lat="42.74147087583458" lon="11.876174591145823"><ele>422.66666666666663</ele><time>2026-04-27T11:25:18.002Z</time></trkpt><trkpt lat="42.741503305168465" lon="11.875949218122596"><ele>413.3333333333333</ele><time>2026-04-27T11:25:19.002Z</time></trkpt><trkpt lat="42.741539247590744" lon="11.875729675470865"><ele>404.0</ele><time>2026-04-27T11:25:20.002Z</time></trkpt><trkpt lat="42.74155312632301" lon="11.87557152690752"><ele>404.0</ele><time>2026-04-27T11:25:21.002Z</time></trkpt><trkpt lat="42.741593360673335" lon="11.875360980756776"><ele>404.0</ele><time>2026-04-27T11:25:22.002Z</time></trkpt><trkpt lat="42.74163691500785" lon="11.875109136285873"><ele>404.0</ele><time>2026-04-27T11:25:23.002Z</time></trkpt><trkpt lat="42.74167258904903" lon="11.874899592576421"><ele>403.3333333333333</ele><time>2026-04-27T11:25:24.002Z</time></trkpt><trkpt lat="42.741705482014744" lon="11.874699095326905"><ele>402.66666666666663</ele><time>2026-04-27T11:25:25.002Z</time></trkpt><trkpt lat="42.74173653831332" lon="11.874499210751502"><ele>402.0</ele><time>2026-04-27T11:25:26.002Z</time></trkpt><trkpt lat="42.74176811828138" lon="11.874296206507314"><ele>400.75</ele><time>2026-04-27T11:25:27.002Z</time></trkpt><trkpt lat="42.74179887596939" lon="11.87410603065658"><ele>399.5</ele><time>2026-04-27T11:25:28.002Z</time></trkpt><trkpt lat="42.74182974099738" lon="11.873910400011056"><ele>398.25</ele><time>2026-04-27T11:25:29.002Z</time></trkpt><trkpt lat="42.741864781522985" lon="11.873715572872085"><ele>397.0</ele><time>2026-04-27T11:25:30.002Z</time></trkpt><trkpt lat="42.74189961584433" lon="11.873519777376847"><ele>396.6666666666667</ele><time>2026-04-27T11:25:31.002Z</time></trkpt><trkpt lat="42.7419299635285" lon="11.873305591017855"><ele>396.33333333333337</ele><time>2026-04-27T11:25:32.002Z</time></trkpt><trkpt lat="42.741965459440685" lon="11.87309287917931"><ele>396.0</ele><time>2026-04-27T11:25:33.002Z</time></trkpt><trkpt lat="42.7419976667819" lon="11.872879903473589"><ele>396.0</ele><time>2026-04-27T11:25:34.002Z</time></trkpt><trkpt lat="42.74203079487997" lon="11.87266657290196"><ele>396.0</ele><time>2026-04-27T11:25:35.002Z</time></trkpt><trkpt lat="42.742062692064685" lon="11.872459118924072"><ele>396.0</ele><time>2026-04-27T11:25:36.002Z</time></trkpt><trkpt lat="42.74209688163236" lon="11.872256083225736"><ele>394.5</ele><time>2026-04-27T11:25:37.002Z</time></trkpt><trkpt lat="42.74212809227845" lon="11.872062783541985"><ele>393.0</ele><time>2026-04-27T11:25:38.002Z</time></trkpt><trkpt lat="42.74216990937421" lon="11.871878399092315"><ele>391.5</ele><time>2026-04-27T11:25:39.002Z</time></trkpt><trkpt lat="42.7422196707957" lon="11.871702294258563"><ele>390.0</ele><time>2026-04-27T11:25:40.002Z</time></trkpt><trkpt lat="42.74227710435303" lon="11.871541142086665"><ele>389.0</ele><time>2026-04-27T11:25:41.002Z</time></trkpt><trkpt lat="42.74233770388459" lon="11.871396180931415"><ele>388.0</ele><time>2026-04-27T11:25:42.002Z</time></trkpt><trkpt lat="42.74240200511339" lon="11.871255679975981"><ele>387.0</ele><time>2026-04-27T11:25:43.002Z</time></trkpt><trkpt lat="42.7424665269759" lon="11.871118432597594"><ele>386.0</ele><time>2026-04-27T11:25:44.002Z</time></trkpt><trkpt lat="42.74251766392393" lon="11.87097283567689"><ele>386.6</ele><time>2026-04-27T11:25:45.002Z</time></trkpt><trkpt lat="42.742575313911004" lon="11.870823851023097"><ele>387.20000000000005</ele><time>2026-04-27T11:25:46.002Z</time></trkpt><trkpt lat="42.74261996842037" lon="11.87068662456276"><ele>387.79999999999995</ele><time>2026-04-27T11:25:47.002Z</time></trkpt><trkpt lat="42.74264934966564" lon="11.870566748195888"><ele>388.4</ele><time>2026-04-27T11:25:48.002Z</time></trkpt><trkpt lat="42.7426771596096" lon="11.870472026656289"><ele>389.0</ele><time>2026-04-27T11:25:49.002Z</time></trkpt><trkpt lat="42.742719172919934" lon="11.87037490908935"><ele>386.0</ele><time>2026-04-27T11:25:51.002Z</time></trkpt><trkpt lat="42.74277542899107" lon="11.870421201309131"><ele>383.0</ele><time>2026-04-27T11:25:54.002Z</time></trkpt><trkpt lat="42.74223092037938" lon="11.866752924799354"><ele>383.0</ele><time>2026-04-27T11:34:18.001Z</time></trkpt><trkpt lat="42.74230378022534" lon="11.866825130711812"><ele>383.0</ele><time>2026-04-27T11:34:19.001Z</time></trkpt><trkpt lat="42.74239803204809" lon="11.866890994985116"><ele>383.0</ele><time>2026-04-27T11:34:21.001Z</time></trkpt><trkpt lat="42.74248516412754" lon="11.86691540033778"><ele>383.0</ele><time>2026-04-27T11:34:30.001Z</time></trkpt><trkpt lat="42.7425371854733" lon="11.866820218695723"><ele>383.0</ele><time>2026-04-27T11:34:32.001Z</time></trkpt><trkpt lat="42.74256491042696" lon="11.866659061908889"><ele>382.83333333333337</ele><time>2026-04-27T11:34:34.001Z</time></trkpt><trkpt lat="42.742578338842065" lon="11.866569966008377"><ele>382.6666666666667</ele><time>2026-04-27T11:34:35.001Z</time></trkpt><trkpt lat="42.74259078223216" lon="11.866476443348802"><ele>382.5</ele><time>2026-04-27T11:34:36.001Z</time></trkpt><trkpt lat="42.74260401623538" lon="11.866376978356067"><ele>382.3333333333333</ele><time>2026-04-27T11:34:37.001Z</time></trkpt><trkpt lat="42.74262085052203" lon="11.866250454353407"><ele>382.16666666666663</ele><time>2026-04-27T11:34:39.001Z</time></trkpt><trkpt lat="42.742738990103845" lon="11.866188811850321"><ele>382.0</ele><time>2026-04-27T11:34:42.001Z</time></trkpt><trkpt lat="42.74282891429757" lon="11.866194594698767"><ele>382.0</ele><time>2026-04-27T11:34:44.001Z</time></trkpt><trkpt lat="42.74294358829557" lon="11.866185397237748"><ele>382.0</ele><time>2026-04-27T11:34:46.001Z</time></trkpt><trkpt lat="42.74304511064519" lon="11.866164119270909"><ele>382.0</ele><time>2026-04-27T11:34:48.001Z</time></trkpt><trkpt lat="42.7431293620569" lon="11.866174912145265"><ele>382.0</ele><time>2026-04-27T11:34:51.001Z</time></trkpt><trkpt lat="42.74316046538896" lon="11.866280397861095"><ele>382.0</ele><time>2026-04-27T11:34:53.001Z</time></trkpt><trkpt lat="42.74318100043557" lon="11.866439117919953"><ele>382.0</ele><time>2026-04-27T11:34:55.001Z</time></trkpt><trkpt lat="42.743191597241456" lon="11.86653228727033"><ele>382.0</ele><time>2026-04-27T11:34:56Z</time></trkpt><trkpt lat="42.74320275400972" lon="11.866630464218744"><ele>382.0</ele><time>2026-04-27T11:34:57Z</time></trkpt><trkpt lat="42.743218719883046" lon="11.866731596461989"><ele>382.0</ele><time>2026-04-27T11:34:58Z</time></trkpt><trkpt lat="42.74322270920826" lon="11.866821004178874"><ele>382.0</ele><time>2026-04-27T11:34:59Z</time></trkpt><trkpt lat="42.743252684063826" lon="11.866936051154637"><ele>382.0</ele><time>2026-04-27T11:35:01Z</time></trkpt><trkpt lat="42.74254414965534" lon="11.867120263232257"><ele>382.0</ele><time>2026-04-27T11:40:18.001Z</time></trkpt><trkpt lat="42.74251358052215" lon="11.867011716049426"><ele>382.0</ele><time>2026-04-27T11:40:21.001Z</time></trkpt><trkpt lat="42.74246379381785" lon="11.866937709719462"><ele>382.0</ele><time>2026-04-27T11:40:34.001Z</time></trkpt><trkpt lat="42.74241212702439" lon="11.866856756246234"><ele>382.0</ele><time>2026-04-27T11:40:36.001Z</time></trkpt><trkpt lat="42.74235683538141" lon="11.86676275346606"><ele>382.0</ele><time>2026-04-27T11:40:38.001Z</time></trkpt><trkpt lat="42.74231401814287" lon="11.866657679690158"><ele>382.0</ele><time>2026-04-27T11:40:40.001Z</time></trkpt><trkpt lat="42.742281420872594" lon="11.86655264311226"><ele>382.0</ele><time>2026-04-27T11:40:42.001Z</time></trkpt><trkpt lat="42.74225366655247" lon="11.866471083429484"><ele>382.0</ele><time>2026-04-27T11:40:45.001Z</time></trkpt><trkpt lat="42.7422173577881" lon="11.866376508871046"><ele>382.0</ele><time>2026-04-27T11:40:47.001Z</time></trkpt><trkpt lat="42.742165521527774" lon="11.866258022046487"><ele>382.0</ele><time>2026-04-27T11:40:49.001Z</time></trkpt><trkpt lat="42.742122804807416" lon="11.866140228717617"><ele>382.0</ele><time>2026-04-27T11:40:51.001Z</time></trkpt><trkpt lat="42.742073581269736" lon="11.866194902395101"><ele>382.0</ele><time>2026-04-27T11:40:55.001Z</time></trkpt><trkpt lat="42.74212909679982" lon="11.866269821193193"><ele>382.0</ele><time>2026-04-27T11:40:57.001Z</time></trkpt><trkpt lat="42.74220247702241" lon="11.866382265775695"><ele>382.0</ele><time>2026-04-27T11:40:59.001Z</time></trkpt><trkpt lat="42.74226270250962" lon="11.866529179909717"><ele>382.0</ele><time>2026-04-27T11:41:01.001Z</time></trkpt><trkpt lat="42.74232066947636" lon="11.866673932375434"><ele>382.0</ele><time>2026-04-27T11:41:03.001Z</time></trkpt><trkpt lat="42.74235818487762" lon="11.86678209759962"><ele>382.0</ele><time>2026-04-27T11:41:05.001Z</time></trkpt><trkpt lat="42.74241333839365" lon="11.866847994531625"><ele>382.0</ele><time>2026-04-27T11:41:10.001Z</time></trkpt><trkpt lat="42.74246935938218" lon="11.866889780273917"><ele>382.0</ele><time>2026-04-27T11:41:12.001Z</time></trkpt><trkpt lat="42.74253759295108" lon="11.866843131651041"><ele>382.0</ele><time>2026-04-27T11:41:14Z</time></trkpt><trkpt lat="42.74256580377209" lon="11.866675274918794"><ele>382.0</ele><time>2026-04-27T11:41:16Z</time></trkpt><trkpt lat="42.7425804051134" lon="11.866573669031656"><ele>382.0</ele><time>2026-04-27T11:41:17Z</time></trkpt><trkpt lat="42.74490565584686" lon="11.864138142397286"><ele>382.0</ele><time>2026-04-27T11:42:18Z</time></trkpt><trkpt lat="42.74499551994757" lon="11.864111154133965"><ele>382.0</ele><time>2026-04-27T11:42:19Z</time></trkpt><trkpt lat="42.74508879320134" lon="11.864109972555216"><ele>382.0</ele><time>2026-04-27T11:42:20Z</time></trkpt><trkpt lat="42.74516933278651" lon="11.864090695697286"><ele>382.0</ele><time>2026-04-27T11:42:21Z</time></trkpt><trkpt lat="42.74525966071571" lon="11.864067174240011"><ele>382.0</ele><time>2026-04-27T11:42:22.001Z</time></trkpt><trkpt lat="42.74533266724393" lon="11.86404494162984"><ele>382.0</ele><time>2026-04-27T11:42:23.001Z</time></trkpt><trkpt lat="42.74539692911532" lon="11.864045690695455"><ele>380.66666666666663</ele><time>2026-04-27T11:42:24.001Z</time></trkpt><trkpt lat="42.745462366001895" lon="11.864028042668208"><ele>379.3333333333333</ele><time>2026-04-27T11:42:25.001Z</time></trkpt><trkpt lat="42.74553492888563" lon="11.864010547863062"><ele>378.0</ele><time>2026-04-27T11:42:26.001Z</time></trkpt><trkpt lat="42.74564415994471" lon="11.863964623747018"><ele>376.6666666666667</ele><time>2026-04-27T11:42:28.001Z</time></trkpt><trkpt lat="42.74574795873432" lon="11.863904399121827"><ele>375.33333333333337</ele><time>2026-04-27T11:42:30.001Z</time></trkpt><trkpt lat="42.74581259777862" lon="11.863864155579371"><ele>374.0</ele><time>2026-04-27T11:42:32.001Z</time></trkpt><trkpt lat="42.74586496083347" lon="11.863816157489945"><ele>370.0</ele><time>2026-04-27T11:42:36.001Z</time></trkpt><trkpt lat="42.74678263080436" lon="11.864057656516973"><ele>370.0</ele><time>2026-04-27T11:48:20.001Z</time></trkpt><trkpt lat="42.746801695334824" lon="11.864160698089847"><ele>370.0</ele><time>2026-04-27T11:54:11Z</time></trkpt><trkpt lat="42.74684673674224" lon="11.864083890708528"><ele>370.0</ele><time>2026-04-27T11:54:16Z</time></trkpt><trkpt lat="42.744834967714866" lon="11.865143476903102"><ele>371.8</ele><time>2026-04-27T11:55:18.001Z</time></trkpt><trkpt lat="42.744770504185645" lon="11.865232904566978"><ele>373.6</ele><time>2026-04-27T11:55:20.001Z</time></trkpt><trkpt lat="42.74480451103277" lon="11.865353594412081"><ele>375.4</ele><time>2026-04-27T11:55:23.001Z</time></trkpt><trkpt lat="42.74485297476179" lon="11.86546227704581"><ele>377.2</ele><time>2026-04-27T11:55:25.001Z</time></trkpt><trkpt lat="42.744902072265766" lon="11.865615161936661"><ele>379.0</ele><time>2026-04-27T11:55:27.001Z</time></trkpt><trkpt lat="42.74492868247778" lon="11.865705455461455"><ele>379.0</ele><time>2026-04-27T11:55:28.001Z</time></trkpt><trkpt lat="42.74495380564464" lon="11.86579070315958"><ele>379.0</ele><time>2026-04-27T11:55:29.001Z</time></trkpt><trkpt lat="42.745002576429016" lon="11.865910822652863"><ele>379.0</ele><time>2026-04-27T11:55:31.001Z</time></trkpt><trkpt lat="42.7448824240909" lon="11.866196215856544"><ele>379.0</ele><time>2026-04-27T11:55:41.001Z</time></trkpt><trkpt lat="42.74485710089462" lon="11.866072093017436"><ele>380.0</ele><time>2026-04-27T11:55:42.001Z</time></trkpt><trkpt lat="42.74488818975001" lon="11.866198808203357"><ele>381.0</ele><time>2026-04-27T11:55:50.001Z</time></trkpt><trkpt lat="42.74490114252289" lon="11.866339741427238"><ele>382.0</ele><time>2026-04-27T11:55:53.001Z</time></trkpt><trkpt lat="42.74487259410812" lon="11.866585367044271"><ele>383.0</ele><time>2026-04-27T11:55:55.001Z</time></trkpt><trkpt lat="42.744878788344316" lon="11.86672253736651"><ele>382.0</ele><time>2026-04-27T11:55:55.999Z</time></trkpt><trkpt lat="42.74488258527802" lon="11.866838421246195"><ele>381.0</ele><time>2026-04-27T11:55:56.999Z</time></trkpt><trkpt lat="42.74488592689431" lon="11.866940408684064"><ele>380.0</ele><time>2026-04-27T11:55:57.999Z</time></trkpt><trkpt lat="42.74488923320072" lon="11.86705132979435"><ele>379.0</ele><time>2026-04-27T11:55:59.999Z</time></trkpt><trkpt lat="42.744886743366806" lon="11.866965644436588"><ele>378.0</ele><time>2026-04-27T11:56:06.999Z</time></trkpt><trkpt lat="42.74577148091758" lon="11.865620794044238"><ele>378.0</ele><time>2026-04-27T11:57:18.001Z</time></trkpt><trkpt lat="42.745283651328364" lon="11.86588283430192"><ele>378.2</ele><time>2026-04-27T12:04:18.002Z</time></trkpt><trkpt lat="42.74519858771108" lon="11.865954161046806"><ele>378.4</ele><time>2026-04-27T12:04:19.999Z</time></trkpt><trkpt lat="42.745130287423315" lon="11.866014684418325"><ele>378.59999999999997</ele><time>2026-04-27T12:04:21.999Z</time></trkpt><trkpt lat="42.74506950766623" lon="11.866069150834335"><ele>378.79999999999995</ele><time>2026-04-27T12:04:23.999Z</time></trkpt><trkpt lat="42.745038209540155" lon="11.86595539273745"><ele>379.0</ele><time>2026-04-27T12:04:27.999Z</time></trkpt><trkpt lat="42.74499213790344" lon="11.865799062867255"><ele>379.0</ele><time>2026-04-27T12:04:29.999Z</time></trkpt><trkpt lat="42.74494790152277" lon="11.865648960380685"><ele>379.0</ele><time>2026-04-27T12:04:32Z</time></trkpt><trkpt lat="42.74489302218478" lon="11.865524361057115"><ele>379.0</ele><time>2026-04-27T12:04:34Z</time></trkpt><trkpt lat="42.74486178233185" lon="11.865405026875697"><ele>379.0</ele><time>2026-04-27T12:04:36Z</time></trkpt><trkpt lat="42.74481253284789" lon="11.865315144415982"><ele>379.0</ele><time>2026-04-27T12:04:38Z</time></trkpt><trkpt lat="42.74476999744633" lon="11.865206644936602"><ele>378.2</ele><time>2026-04-27T12:04:42Z</time></trkpt><trkpt lat="42.744702160923424" lon="11.865073797624667"><ele>377.4</ele><time>2026-04-27T12:04:44Z</time></trkpt><trkpt lat="42.74467455120794" lon="11.864977854741497"><ele>376.6</ele><time>2026-04-27T12:04:45Z</time></trkpt><trkpt lat="42.74463971741329" lon="11.864904554209811"><ele>375.8</ele><time>2026-04-27T12:04:46Z</time></trkpt><trkpt lat="42.74451724095172" lon="11.86483502059304"><ele>375.0</ele><time>2026-04-27T12:04:52Z</time></trkpt><trkpt lat="42.74446004254114" lon="11.864879483284556"><ele>375.0</ele><time>2026-04-27T12:04:53Z</time></trkpt><trkpt lat="42.74439948762772" lon="11.864926555109294"><ele>375.0</ele><time>2026-04-27T12:04:54Z</time></trkpt><trkpt lat="42.74432410697576" lon="11.864985151613888"><ele>375.0</ele><time>2026-04-27T12:04:56Z</time></trkpt><trkpt lat="42.74421477621565" lon="11.864973569826114"><ele>375.0</ele><time>2026-04-27T12:04:59Z</time></trkpt><trkpt lat="42.744108610144735" lon="11.864917659937742"><ele>375.0</ele><time>2026-04-27T12:05:01Z</time></trkpt><trkpt lat="42.74401055061809" lon="11.864918964175589"><ele>376.4</ele><time>2026-04-27T12:05:03Z</time></trkpt><trkpt lat="42.74390953442956" lon="11.864919037141913"><ele>377.8</ele><time>2026-04-27T12:05:05Z</time></trkpt><trkpt lat="42.74382104396434" lon="11.86491943178128"><ele>379.20000000000005</ele><time>2026-04-27T12:05:07Z</time></trkpt><trkpt lat="42.74375683809852" lon="11.864919718119134"><ele>380.6</ele><time>2026-04-27T12:05:11Z</time></trkpt><trkpt lat="42.74374955540131" lon="11.864780714694911"><ele>382.0</ele><time>2026-04-27T12:05:14.001Z</time></trkpt><trkpt lat="42.7437532041089" lon="11.86463157155276"><ele>356.0</ele><time>2026-04-27T12:05:16.001Z</time></trkpt><trkpt lat="42.74912886407791" lon="11.862725000428371"><ele>356.0</ele><time>2026-04-27T12:06:18.002Z</time></trkpt><trkpt lat="42.74929592880289" lon="11.862694180462078"><ele>356.0</ele><time>2026-04-27T12:06:19.002Z</time></trkpt><trkpt lat="42.74946130081324" lon="11.862653381611603"><ele>356.0</ele><time>2026-04-27T12:06:20.002Z</time></trkpt><trkpt lat="42.74961922066423" lon="11.862620545047138"><ele>358.33333333333337</ele><time>2026-04-27T12:06:21.002Z</time></trkpt><trkpt lat="42.74979352953317" lon="11.862590531611206"><ele>360.6666666666667</ele><time>2026-04-27T12:06:22.002Z</time></trkpt><trkpt lat="42.74996496050018" lon="11.862556285996188"><ele>363.0</ele><time>2026-04-27T12:06:23.002Z</time></trkpt><trkpt lat="42.750146208688484" lon="11.862531309619852"><ele>359.6666666666667</ele><time>2026-04-27T12:06:24.002Z</time></trkpt><trkpt lat="42.75033126261948" lon="11.86251250033402"><ele>356.33333333333337</ele><time>2026-04-27T12:06:25.002Z</time></trkpt><trkpt lat="42.750517873282334" lon="11.862510670055476"><ele>353.0</ele><time>2026-04-27T12:06:26Z</time></trkpt><trkpt lat="42.750706006545464" lon="11.862513046900343"><ele>353.0</ele><time>2026-04-27T12:06:27Z</time></trkpt><trkpt lat="42.75089538715739" lon="11.862517562182724"><ele>353.0</ele><time>2026-04-27T12:06:28Z</time></trkpt><trkpt lat="42.751087377225936" lon="11.862519876398322"><ele>353.0</ele><time>2026-04-27T12:06:29Z</time></trkpt><trkpt lat="42.75126859567885" lon="11.862528874268746"><ele>349.6666666666667</ele><time>2026-04-27T12:06:30Z</time></trkpt><trkpt lat="42.751446315633125" lon="11.862547334766113"><ele>346.3333333333333</ele><time>2026-04-27T12:06:31Z</time></trkpt><trkpt lat="42.7516179864797" lon="11.862579114698452"><ele>343.0</ele><time>2026-04-27T12:06:32Z</time></trkpt><trkpt lat="42.751781072439016" lon="11.862621608195111"><ele>340.4</ele><time>2026-04-27T12:06:33Z</time></trkpt><trkpt lat="42.7519116830095" lon="11.862663603706661"><ele>337.79999999999995</ele><time>2026-04-27T12:06:34Z</time></trkpt><trkpt lat="42.752016800392596" lon="11.862713371122693"><ele>335.2</ele><time>2026-04-27T12:06:35Z</time></trkpt><trkpt lat="42.7521053354742" lon="11.862777174400119"><ele>332.6</ele><time>2026-04-27T12:06:36Z</time></trkpt><trkpt lat="42.75215873631197" lon="11.862872217005753"><ele>330.0</ele><time>2026-04-27T12:06:37Z</time></trkpt><trkpt lat="42.752165827752584" lon="11.862990681485117"><ele>330.0</ele><time>2026-04-27T12:06:38Z</time></trkpt><trkpt lat="42.75213792714785" lon="11.863108779204135"><ele>330.0</ele><time>2026-04-27T12:06:39Z</time></trkpt><trkpt lat="42.752058780127825" lon="11.863225232444293"><ele>330.0</ele><time>2026-04-27T12:06:40Z</time></trkpt><trkpt lat="42.75195293446228" lon="11.863285338105353"><ele>330.0</ele><time>2026-04-27T12:06:41Z</time></trkpt><trkpt lat="42.75183233732093" lon="11.8632588454116"><ele>330.0</ele><time>2026-04-27T12:06:42Z</time></trkpt><trkpt lat="42.75169384267367" lon="11.863271861102076"><ele>329.6666666666667</ele><time>2026-04-27T12:06:43Z</time></trkpt><trkpt lat="42.75153766110266" lon="11.863243716235713"><ele>329.33333333333337</ele><time>2026-04-27T12:06:44Z</time></trkpt><trkpt lat="42.75135633563728" lon="11.863246131774163"><ele>329.0</ele><time>2026-04-27T12:06:45Z</time></trkpt><trkpt lat="42.751172422027544" lon="11.863261852260013"><ele>331.0</ele><time>2026-04-27T12:06:46Z</time></trkpt><trkpt lat="42.75100993320713" lon="11.863302807008179"><ele>333.0</ele><time>2026-04-27T12:06:47Z</time></trkpt><trkpt lat="42.75086220575448" lon="11.863376961095156"><ele>335.0</ele><time>2026-04-27T12:06:48Z</time></trkpt><trkpt lat="42.750741471655274" lon="11.86349915219762"><ele>330.0</ele><time>2026-04-27T12:06:49Z</time></trkpt><trkpt lat="42.750610968173454" lon="11.863646488444205"><ele>325.0</ele><time>2026-04-27T12:06:50Z</time></trkpt><trkpt lat="42.75046707461882" lon="11.863801805133464"><ele>320.0</ele><time>2026-04-27T12:06:51Z</time></trkpt><trkpt lat="42.75029543100693" lon="11.863945886166821"><ele>318.6666666666667</ele><time>2026-04-27T12:06:52Z</time></trkpt><trkpt lat="42.750132525866384" lon="11.86412197289411"><ele>317.3333333333333</ele><time>2026-04-27T12:06:53Z</time></trkpt><trkpt lat="42.74998822613184" lon="11.864259503348729"><ele>316.0</ele><time>2026-04-27T12:06:54Z</time></trkpt><trkpt lat="42.74986844637567" lon="11.86438482656597"><ele>316.0</ele><time>2026-04-27T12:06:55Z</time></trkpt><trkpt lat="42.749777463373306" lon="11.864495827478079"><ele>316.0</ele><time>2026-04-27T12:06:56Z</time></trkpt><trkpt lat="42.749708387532586" lon="11.86461463687704"><ele>316.0</ele><time>2026-04-27T12:06:57Z</time></trkpt><trkpt lat="42.74968494556619" lon="11.864748563733711"><ele>316.0</ele><time>2026-04-27T12:06:58Z</time></trkpt><trkpt lat="42.7497079651939" lon="11.864874573691315"><ele>316.0</ele><time>2026-04-27T12:06:59Z</time></trkpt><trkpt lat="42.74977827145882" lon="11.864966750744713"><ele>316.0</ele><time>2026-04-27T12:07:00Z</time></trkpt><trkpt lat="42.74987877094296" lon="11.86500361603749"><ele>316.0</ele><time>2026-04-27T12:07:01Z</time></trkpt><trkpt lat="42.75000845920635" lon="11.865007501245964"><ele>316.0</ele><time>2026-04-27T12:07:02Z</time></trkpt><trkpt lat="42.750168146129475" lon="11.86497626591834"><ele>316.0</ele><time>2026-04-27T12:07:03.001Z</time></trkpt><trkpt lat="42.750330144010924" lon="11.864946985886485"><ele>313.0</ele><time>2026-04-27T12:07:04.001Z</time></trkpt><trkpt lat="42.750525024292685" lon="11.86488841507464"><ele>310.0</ele><time>2026-04-27T12:07:05.001Z</time></trkpt><trkpt lat="42.750748972691994" lon="11.864842324802257"><ele>307.0</ele><time>2026-04-27T12:07:06.001Z</time></trkpt><trkpt lat="42.75097325355227" lon="11.864786881592114"><ele>304.3333333333333</ele><time>2026-04-27T12:07:07.001Z</time></trkpt><trkpt lat="42.75120792040478" lon="11.86472582833876"><ele>301.6666666666667</ele><time>2026-04-27T12:07:08.001Z</time></trkpt><trkpt lat="42.75141286853852" lon="11.864671785534078"><ele>299.0</ele><time>2026-04-27T12:07:09.001Z</time></trkpt><trkpt lat="42.75161431761572" lon="11.864641440674305"><ele>299.0</ele><time>2026-04-27T12:07:10.001Z</time></trkpt><trkpt lat="42.75180248774113" lon="11.864597784144008"><ele>299.0</ele><time>2026-04-27T12:07:11.001Z</time></trkpt><trkpt lat="42.75200129724565" lon="11.864607880529443"><ele>299.0</ele><time>2026-04-27T12:07:12.001Z</time></trkpt><trkpt lat="42.752170658256276" lon="11.864666368655842"><ele>299.33333333333337</ele><time>2026-04-27T12:07:13.001Z</time></trkpt><trkpt lat="42.75232173118791" lon="11.8647652533402"><ele>299.6666666666667</ele><time>2026-04-27T12:07:14.001Z</time></trkpt><trkpt lat="42.75247707067398" lon="11.864911662937653"><ele>300.0</ele><time>2026-04-27T12:07:15.001Z</time></trkpt><trkpt lat="42.75264365019948" lon="11.86509774847949"><ele>295.0</ele><time>2026-04-27T12:07:16.001Z</time></trkpt><trkpt lat="42.75281963489294" lon="11.865253741503865"><ele>290.0</ele><time>2026-04-27T12:07:17.001Z</time></trkpt><trkpt lat="42.76115824506531" lon="11.861261004968917"><ele>276.33333333333337</ele><time>2026-04-27T12:08:18.002Z</time></trkpt><trkpt lat="42.76119720368716" lon="11.861004596670487"><ele>262.6666666666667</ele><time>2026-04-27T12:08:19.002Z</time></trkpt><trkpt lat="42.7612451851446" lon="11.860748878666085"><ele>249.0</ele><time>2026-04-27T12:08:20.002Z</time></trkpt><trkpt lat="42.7613064791898" lon="11.860478634651583"><ele>249.0</ele><time>2026-04-27T12:08:21.002Z</time></trkpt><trkpt lat="42.7613463444599" lon="11.860180601551988"><ele>249.0</ele><time>2026-04-27T12:08:22.002Z</time></trkpt><trkpt lat="42.76140386726657" lon="11.859879821556408"><ele>249.33333333333331</ele><time>2026-04-27T12:08:23.002Z</time></trkpt><trkpt lat="42.76146399401252" lon="11.85959146525577"><ele>249.66666666666666</ele><time>2026-04-27T12:08:24.002Z</time></trkpt><trkpt lat="42.76152387646817" lon="11.859320060689155"><ele>250.0</ele><time>2026-04-27T12:08:25.002Z</time></trkpt><trkpt lat="42.761579181758464" lon="11.859066530879494"><ele>251.0</ele><time>2026-04-27T12:08:26.002Z</time></trkpt><trkpt lat="42.761634989525774" lon="11.858823871016467"><ele>252.0</ele><time>2026-04-27T12:08:27.002Z</time></trkpt><trkpt lat="42.761692757122084" lon="11.858586473276514"><ele>253.0</ele><time>2026-04-27T12:08:28.002Z</time></trkpt><trkpt lat="42.761759372543374" lon="11.858354954884375"><ele>253.33333333333331</ele><time>2026-04-27T12:08:29.002Z</time></trkpt><trkpt lat="42.761834523322996" lon="11.858134101551355"><ele>253.66666666666669</ele><time>2026-04-27T12:08:30.002Z</time></trkpt><trkpt lat="42.7619129643338" lon="11.857915566125193"><ele>254.0</ele><time>2026-04-27T12:08:31.002Z</time></trkpt><trkpt lat="42.76199381986411" lon="11.857709622505508"><ele>252.5</ele><time>2026-04-27T12:08:32.001Z</time></trkpt><trkpt lat="42.76207504849488" lon="11.857516284434123"><ele>251.0</ele><time>2026-04-27T12:08:33.001Z</time></trkpt><trkpt lat="42.762155004116295" lon="11.857341117623912"><ele>249.5</ele><time>2026-04-27T12:08:34.001Z</time></trkpt><trkpt lat="42.76222836932833" lon="11.857195866993184"><ele>248.0</ele><time>2026-04-27T12:08:35.001Z</time></trkpt><trkpt lat="42.76229572996038" lon="11.857081199481264"><ele>248.0</ele><time>2026-04-27T12:08:36.001Z</time></trkpt><trkpt lat="42.762348888461325" lon="11.856986112205487"><ele>248.0</ele><time>2026-04-27T12:08:37.001Z</time></trkpt><trkpt lat="42.76240745021249" lon="11.856926090627516"><ele>248.0</ele><time>2026-04-27T12:08:38.001Z</time></trkpt><trkpt lat="42.762363821894475" lon="11.856759617820021"><ele>248.0</ele><time>2026-04-27T12:08:39.001Z</time></trkpt><trkpt lat="42.762351713348224" lon="11.85660976319156"><ele>248.0</ele><time>2026-04-27T12:08:40.001Z</time></trkpt><trkpt lat="42.76233322456771" lon="11.856437812179063"><ele>248.25</ele><time>2026-04-27T12:08:41.001Z</time></trkpt><trkpt lat="42.76231993653736" lon="11.856252124908188"><ele>248.5</ele><time>2026-04-27T12:08:42.001Z</time></trkpt><trkpt lat="42.76231530474977" lon="11.85606558272611"><ele>248.75</ele><time>2026-04-27T12:08:43.001Z</time></trkpt><trkpt lat="42.762305014694476" lon="11.855864578383729"><ele>249.0</ele><time>2026-04-27T12:08:44.001Z</time></trkpt><trkpt lat="42.762290389281596" lon="11.855657170734105"><ele>249.66666666666669</ele><time>2026-04-27T12:08:45.001Z</time></trkpt><trkpt lat="42.76227835318789" lon="11.855445604819016"><ele>250.33333333333334</ele><time>2026-04-27T12:08:46.001Z</time></trkpt><trkpt lat="42.762261546813065" lon="11.855231963153336"><ele>251.0</ele><time>2026-04-27T12:08:47.001Z</time></trkpt><trkpt lat="42.76224334810846" lon="11.855018681003068"><ele>252.33333333333334</ele><time>2026-04-27T12:08:48.001Z</time></trkpt><trkpt lat="42.76222438187944" lon="11.854805007330603"><ele>253.66666666666669</ele><time>2026-04-27T12:08:49.001Z</time></trkpt><trkpt lat="42.76220978767479" lon="11.854592325024447"><ele>255.0</ele><time>2026-04-27T12:08:50.001Z</time></trkpt><trkpt lat="42.762190871709954" lon="11.85438156683338"><ele>256.75</ele><time>2026-04-27T12:08:51.001Z</time></trkpt><trkpt lat="42.7621848144885" lon="11.854179098081815"><ele>258.5</ele><time>2026-04-27T12:08:52.001Z</time></trkpt><trkpt lat="42.76218889018988" lon="11.854002879132988"><ele>260.25</ele><time>2026-04-27T12:08:53.001Z</time></trkpt><trkpt lat="42.762194331180936" lon="11.85383141902239"><ele>262.0</ele><time>2026-04-27T12:08:54.001Z</time></trkpt><trkpt lat="42.76220119355424" lon="11.853655142963047"><ele>262.0</ele><time>2026-04-27T12:08:55.001Z</time></trkpt><trkpt lat="42.7621947065046" lon="11.853479532067363"><ele>262.0</ele><time>2026-04-27T12:08:56.001Z</time></trkpt><trkpt lat="42.76218654139696" lon="11.853304571179073"><ele>262.0</ele><time>2026-04-27T12:08:57.001Z</time></trkpt><trkpt lat="42.76217051925818" lon="11.853132906512046"><ele>262.0</ele><time>2026-04-27T12:08:58.001Z</time></trkpt><trkpt lat="42.76215834314232" lon="11.852955360310506"><ele>263.25</ele><time>2026-04-27T12:08:59.001Z</time></trkpt><trkpt lat="42.76214500526299" lon="11.852778536834325"><ele>264.5</ele><time>2026-04-27T12:09:00.001Z</time></trkpt><trkpt lat="42.76213326890501" lon="11.85260282190934"><ele>265.75</ele><time>2026-04-27T12:09:01.001Z</time></trkpt><trkpt lat="42.76212224976381" lon="11.852436612306809"><ele>267.0</ele><time>2026-04-27T12:09:02.001Z</time></trkpt><trkpt lat="42.76210148368525" lon="11.852273606354084"><ele>268.25</ele><time>2026-04-27T12:09:03.001Z</time></trkpt><trkpt lat="42.76207158755392" lon="11.852112603106619"><ele>269.5</ele><time>2026-04-27T12:09:04.001Z</time></trkpt><trkpt lat="42.76203477551297" lon="11.85194408953957"><ele>270.75</ele><time>2026-04-27T12:09:05.001Z</time></trkpt><trkpt lat="42.7619915164477" lon="11.851756726762959"><ele>272.0</ele><time>2026-04-27T12:09:06.001Z</time></trkpt><trkpt lat="42.761945425579306" lon="11.851568959944839"><ele>272.0</ele><time>2026-04-27T12:09:07.001Z</time></trkpt><trkpt lat="42.76188853883595" lon="11.85138011390362"><ele>272.0</ele><time>2026-04-27T12:09:08.001Z</time></trkpt><trkpt lat="42.761833621022" lon="11.851197372574859"><ele>272.0</ele><time>2026-04-27T12:09:09.001Z</time></trkpt><trkpt lat="42.761786115028904" lon="11.851024871863606"><ele>272.0</ele><time>2026-04-27T12:09:10.001Z</time></trkpt><trkpt lat="42.76173682577349" lon="11.850863587332201"><ele>273.0</ele><time>2026-04-27T12:09:11.001Z</time></trkpt><trkpt lat="42.76168669894127" lon="11.850696891355748"><ele>274.0</ele><time>2026-04-27T12:09:12.001Z</time></trkpt><trkpt lat="42.761627935839606" lon="11.850534116965596"><ele>275.0</ele><time>2026-04-27T12:09:13.001Z</time></trkpt><trkpt lat="42.76155619728283" lon="11.850378187181494"><ele>276.0</ele><time>2026-04-27T12:09:14.001Z</time></trkpt><trkpt lat="42.76146875342761" lon="11.850233559671373"><ele>273.6666666666667</ele><time>2026-04-27T12:09:15.001Z</time></trkpt><trkpt lat="42.7613691324484" lon="11.850092700909276"><ele>271.33333333333337</ele><time>2026-04-27T12:09:16.001Z</time></trkpt><trkpt lat="42.76126125832812" lon="11.849964421708984"><ele>269.0</ele><time>2026-04-27T12:09:17.001Z</time></trkpt><trkpt lat="42.75905735193427" lon="11.840753027637444"><ele>266.0</ele><time>2026-04-27T12:10:18.002Z</time></trkpt><trkpt lat="42.759144993173805" lon="11.84062603370355"><ele>263.0</ele><time>2026-04-27T12:10:19.002Z</time></trkpt><trkpt lat="42.75922597522723" lon="11.840496887282216"><ele>260.0</ele><time>2026-04-27T12:10:20.002Z</time></trkpt><trkpt lat="42.75930497753381" lon="11.840369789208395"><ele>257.0</ele><time>2026-04-27T12:10:21.002Z</time></trkpt><trkpt lat="42.75938254208263" lon="11.840242241923523"><ele>258.0</ele><time>2026-04-27T12:10:22.002Z</time></trkpt><trkpt lat="42.759459837099904" lon="11.840106416570258"><ele>259.0</ele><time>2026-04-27T12:10:23.002Z</time></trkpt><trkpt lat="42.75953970482414" lon="11.839954864271833"><ele>260.0</ele><time>2026-04-27T12:10:24.002Z</time></trkpt><trkpt lat="42.75961595176818" lon="11.83979211255194"><ele>261.0</ele><time>2026-04-27T12:10:25.002Z</time></trkpt><trkpt lat="42.759690001656026" lon="11.839622071922383"><ele>261.0</ele><time>2026-04-27T12:10:26.002Z</time></trkpt><trkpt lat="42.75975949917071" lon="11.839461713357633"><ele>261.0</ele><time>2026-04-27T12:10:27.002Z</time></trkpt><trkpt lat="42.75982442225095" lon="11.839317833546104"><ele>261.0</ele><time>2026-04-27T12:10:28.002Z</time></trkpt><trkpt lat="42.75988325783644" lon="11.83919272503454"><ele>261.0</ele><time>2026-04-27T12:10:29.002Z</time></trkpt><trkpt lat="42.75993958629586" lon="11.839068551429209"><ele>262.40000000000003</ele><time>2026-04-27T12:10:30.002Z</time></trkpt><trkpt lat="42.75999246483498" lon="11.838944790293356"><ele>263.8</ele><time>2026-04-27T12:10:31.002Z</time></trkpt><trkpt lat="42.76004537038128" lon="11.83882220575929"><ele>265.20000000000005</ele><time>2026-04-27T12:10:32.002Z</time></trkpt><trkpt lat="42.76009924782622" lon="11.838695622053331"><ele>266.6</ele><time>2026-04-27T12:10:33.002Z</time></trkpt><trkpt lat="42.76014943712773" lon="11.838572220559072"><ele>268.0</ele><time>2026-04-27T12:10:34.002Z</time></trkpt><trkpt lat="42.760202537287356" lon="11.838457406424972"><ele>270.0</ele><time>2026-04-27T12:10:35.002Z</time></trkpt><trkpt lat="42.76025560090037" lon="11.83834596562951"><ele>272.0</ele><time>2026-04-27T12:10:36.002Z</time></trkpt><trkpt lat="42.76031197319991" lon="11.838239879023185"><ele>274.0</ele><time>2026-04-27T12:10:37.002Z</time></trkpt><trkpt lat="42.76037321511436" lon="11.838145978224409"><ele>276.0</ele><time>2026-04-27T12:10:38.001Z</time></trkpt><trkpt lat="42.760438633882345" lon="11.838062802693292"><ele>278.0</ele><time>2026-04-27T12:10:39.001Z</time></trkpt><trkpt lat="42.76050880805052" lon="11.83799008526669"><ele>278.0</ele><time>2026-04-27T12:10:40.001Z</time></trkpt><trkpt lat="42.76058391951359" lon="11.83793011810847"><ele>278.0</ele><time>2026-04-27T12:10:41.001Z</time></trkpt><trkpt lat="42.76066473098826" lon="11.837883291215183"><ele>278.0</ele><time>2026-04-27T12:10:42.001Z</time></trkpt><trkpt lat="42.76075022982144" lon="11.837846655005666"><ele>278.0</ele><time>2026-04-27T12:10:43.001Z</time></trkpt><trkpt lat="42.76084073152676" lon="11.837823600572415"><ele>278.0</ele><time>2026-04-27T12:10:44.001Z</time></trkpt><trkpt lat="42.760935086187374" lon="11.83781536665204"><ele>278.0</ele><time>2026-04-27T12:10:45.001Z</time></trkpt><trkpt lat="42.761030840508" lon="11.83781416202596"><ele>278.0</ele><time>2026-04-27T12:10:46.001Z</time></trkpt><trkpt lat="42.761126213012666" lon="11.837817618061083"><ele>278.0</ele><time>2026-04-27T12:10:47.001Z</time></trkpt><trkpt lat="42.76122208405757" lon="11.83782380433759"><ele>278.0</ele><time>2026-04-27T12:10:48.001Z</time></trkpt><trkpt lat="42.76131578947173" lon="11.837828866873938"><ele>278.0</ele><time>2026-04-27T12:10:49.001Z</time></trkpt><trkpt lat="42.76140693460431" lon="11.8378307679516"><ele>279.6</ele><time>2026-04-27T12:10:50.001Z</time></trkpt><trkpt lat="42.76149597775379" lon="11.837850277541683"><ele>281.20000000000005</ele><time>2026-04-27T12:10:51.001Z</time></trkpt><trkpt lat="42.761586570225646" lon="11.837840867029863"><ele>282.8</ele><time>2026-04-27T12:10:52.001Z</time></trkpt><trkpt lat="42.76167773756428" lon="11.837823723628974"><ele>284.40000000000003</ele><time>2026-04-27T12:10:53.001Z</time></trkpt><trkpt lat="42.761767699476295" lon="11.837797105112099"><ele>286.0</ele><time>2026-04-27T12:10:54.001Z</time></trkpt><trkpt lat="42.761854655483546" lon="11.837763051935413"><ele>285.66666666666663</ele><time>2026-04-27T12:10:55.001Z</time></trkpt><trkpt lat="42.761936930429236" lon="11.837720653647189"><ele>285.3333333333333</ele><time>2026-04-27T12:10:56.001Z</time></trkpt><trkpt lat="42.762015993009015" lon="11.837669848977107"><ele>285.0</ele><time>2026-04-27T12:10:57.001Z</time></trkpt><trkpt lat="42.76209324221438" lon="11.837612296824462"><ele>284.6666666666667</ele><time>2026-04-27T12:10:58.001Z</time></trkpt><trkpt lat="42.76216632886372" lon="11.837552388385353"><ele>284.33333333333337</ele><time>2026-04-27T12:10:59.001Z</time></trkpt><trkpt lat="42.762240079480826" lon="11.83749939384589"><ele>284.0</ele><time>2026-04-27T12:11:00.001Z</time></trkpt><trkpt lat="42.76232398203864" lon="11.837440376695833"><ele>285.59999999999997</ele><time>2026-04-27T12:11:01.001Z</time></trkpt><trkpt lat="42.76241660926871" lon="11.837372503514713"><ele>287.2</ele><time>2026-04-27T12:11:02.001Z</time></trkpt><trkpt lat="42.76251821157578" lon="11.837315931984893"><ele>288.79999999999995</ele><time>2026-04-27T12:11:03.001Z</time></trkpt><trkpt lat="42.76262480679414" lon="11.837261828463651"><ele>290.4</ele><time>2026-04-27T12:11:04.001Z</time></trkpt><trkpt lat="42.76273840832371" lon="11.837214496364524"><ele>292.0</ele><time>2026-04-27T12:11:05.001Z</time></trkpt><trkpt lat="42.76285928740988" lon="11.837166639202396"><ele>292.0</ele><time>2026-04-27T12:11:06.001Z</time></trkpt><trkpt lat="42.76298244887162" lon="11.837118416273212"><ele>292.0</ele><time>2026-04-27T12:11:07.001Z</time></trkpt><trkpt lat="42.763104455957226" lon="11.83708317310735"><ele>292.0</ele><time>2026-04-27T12:11:08.001Z</time></trkpt><trkpt lat="42.76322390313803" lon="11.837023246565147"><ele>292.0</ele><time>2026-04-27T12:11:09.001Z</time></trkpt><trkpt lat="42.763350530518494" lon="11.836994105496624"><ele>292.0</ele><time>2026-04-27T12:11:10.001Z</time></trkpt><trkpt lat="42.76348144686522" lon="11.836951017214409"><ele>292.0</ele><time>2026-04-27T12:11:11.001Z</time></trkpt><trkpt lat="42.76359169093045" lon="11.836763111507443"><ele>292.0</ele><time>2026-04-27T12:11:12.001Z</time></trkpt><trkpt lat="42.76371370649634" lon="11.83663557212596"><ele>295.0</ele><time>2026-04-27T12:11:13.001Z</time></trkpt><trkpt lat="42.76383174949227" lon="11.836513403586086"><ele>298.0</ele><time>2026-04-27T12:11:14.001Z</time></trkpt><trkpt lat="42.76395790603601" lon="11.836418724193935"><ele>301.0</ele><time>2026-04-27T12:11:15.001Z</time></trkpt><trkpt lat="42.76408987855176" lon="11.836350593294357"><ele>304.0</ele><time>2026-04-27T12:11:16.001Z</time></trkpt><trkpt lat="42.764227068506585" lon="11.836287838545312"><ele>358.0</ele><time>2026-04-27T12:11:17.001Z</time></trkpt><trkpt lat="42.758119178301655" lon="11.831848276118297"><ele>362.8333333333333</ele><time>2026-04-27T12:12:18.002Z</time></trkpt><trkpt lat="42.75807934871021" lon="11.83176620129067"><ele>367.66666666666663</ele><time>2026-04-27T12:12:20.002Z</time></trkpt><trkpt lat="42.75815793778202" lon="11.83163893390319"><ele>372.5</ele><time>2026-04-27T12:12:22.002Z</time></trkpt><trkpt lat="42.75823673211863" lon="11.83165477059498"><ele>377.3333333333333</ele><time>2026-04-27T12:12:23.002Z</time></trkpt><trkpt lat="42.758309171501296" lon="11.83162878452925"><ele>382.1666666666667</ele><time>2026-04-27T12:12:24.002Z</time></trkpt><trkpt lat="42.75838620309329" lon="11.83158923122811"><ele>387.0</ele><time>2026-04-27T12:12:25.002Z</time></trkpt><trkpt lat="42.75847708575295" lon="11.831563627111528"><ele>385.6666666666667</ele><time>2026-04-27T12:12:26.002Z</time></trkpt><trkpt lat="42.75856943358455" lon="11.831523421409926"><ele>384.3333333333333</ele><time>2026-04-27T12:12:27.002Z</time></trkpt><trkpt lat="42.75866219030366" lon="11.831472805058898"><ele>383.0</ele><time>2026-04-27T12:12:28.002Z</time></trkpt><trkpt lat="42.7587424258553" lon="11.831431437051226"><ele>381.66666666666663</ele><time>2026-04-27T12:12:29.002Z</time></trkpt><trkpt lat="42.758801947040645" lon="11.831376001581193"><ele>380.3333333333333</ele><time>2026-04-27T12:12:30.002Z</time></trkpt><trkpt lat="42.75882860245429" lon="11.831297205772175"><ele>379.0</ele><time>2026-04-27T12:12:31.002Z</time></trkpt><trkpt lat="42.75882964024728" lon="11.831145830305758"><ele>379.0</ele><time>2026-04-27T12:12:33.002Z</time></trkpt><trkpt lat="42.75879435978918" lon="11.83100653954093"><ele>379.0</ele><time>2026-04-27T12:12:35.002Z</time></trkpt><trkpt lat="42.75876085869185" lon="11.830835862460631"><ele>379.0</ele><time>2026-04-27T12:12:37.002Z</time></trkpt><trkpt lat="42.75874132696038" lon="11.830735393746162"><ele>379.0</ele><time>2026-04-27T12:12:38.002Z</time></trkpt><trkpt lat="42.75871983430883" lon="11.830596787870471"><ele>379.0</ele><time>2026-04-27T12:12:40.002Z</time></trkpt><trkpt lat="42.75867754007142" lon="11.83050203212041"><ele>378.8333333333333</ele><time>2026-04-27T12:12:42.002Z</time></trkpt><trkpt lat="42.758620907983406" lon="11.830449952425207"><ele>378.66666666666663</ele><time>2026-04-27T12:12:44.001Z</time></trkpt><trkpt lat="42.75854028581955" lon="11.830499015225913"><ele>378.5</ele><time>2026-04-27T12:13:04.001Z</time></trkpt><trkpt lat="42.75851403079087" lon="11.830583376141476"><ele>378.3333333333333</ele><time>2026-04-27T12:20:03Z</time></trkpt><trkpt lat="42.75848194112428" lon="11.83069841337909"><ele>378.1666666666667</ele><time>2026-04-27T12:20:08.001Z</time></trkpt><trkpt lat="42.75846494813965" lon="11.830839188463196"><ele>378.0</ele><time>2026-04-27T12:20:10.001Z</time></trkpt><trkpt lat="42.75849699515815" lon="11.83098926551375"><ele>381.0</ele><time>2026-04-27T12:20:12.001Z</time></trkpt><trkpt lat="42.75845458302252" lon="11.831096485199946"><ele>384.0</ele><time>2026-04-27T12:20:14.001Z</time></trkpt><trkpt lat="42.75838119353545" lon="11.83113711527487"><ele>387.0</ele><time>2026-04-27T12:20:16.001Z</time></trkpt><trkpt lat="42.758077199350716" lon="11.830574787743426"><ele>389.0</ele><time>2026-04-27T12:20:26.001Z</time></trkpt><trkpt lat="42.75801594665377" lon="11.83054842640028"><ele>391.0</ele><time>2026-04-27T12:20:27.001Z</time></trkpt><trkpt lat="42.75795176325393" lon="11.830526054779192"><ele>393.0</ele><time>2026-04-27T12:20:28.001Z</time></trkpt><trkpt lat="42.75784072759764" lon="11.830479733905936"><ele>395.0</ele><time>2026-04-27T12:20:30.001Z</time></trkpt><trkpt lat="42.75777789101205" lon="11.830443888706215"><ele>397.0</ele><time>2026-04-27T12:20:31.001Z</time></trkpt><trkpt lat="42.757718702095254" lon="11.830407053476964"><ele>399.0</ele><time>2026-04-27T12:20:32.001Z</time></trkpt><trkpt lat="42.75765861048694" lon="11.830368855485736"><ele>401.0</ele><time>2026-04-27T12:20:33.001Z</time></trkpt><trkpt lat="42.75754372641142" lon="11.830316536812838"><ele>402.99999999999994</ele><time>2026-04-27T12:20:35.001Z</time></trkpt><trkpt lat="42.75743667942911" lon="11.830278867608621"><ele>405.0</ele><time>2026-04-27T12:20:37.001Z</time></trkpt><trkpt lat="42.757334166175085" lon="11.830294750763189"><ele>407.0</ele><time>2026-04-27T12:20:39.001Z</time></trkpt><trkpt lat="42.757274013364494" lon="11.830327942248642"><ele>409.0</ele><time>2026-04-27T12:20:41.001Z</time></trkpt><trkpt lat="42.75720580002147" lon="11.83034559725749"><ele>410.99999999999994</ele><time>2026-04-27T12:20:43.001Z</time></trkpt><trkpt lat="42.75727802856606" lon="11.830365646084156"><ele>413.0</ele><time>2026-04-27T12:24:16Z</time></trkpt><trkpt lat="42.756713269373876" lon="11.829717991713176"><ele>413.99999999999994</ele><time>2026-04-27T12:26:18Z</time></trkpt><trkpt lat="42.75669398502715" lon="11.829611611556766"><ele>415.0</ele><time>2026-04-27T12:29:48Z</time></trkpt><trkpt lat="42.75670911733577" lon="11.829511148492575"><ele>416.0</ele><time>2026-04-27T12:29:51Z</time></trkpt><trkpt lat="42.756719638830944" lon="11.829424176021273"><ele>417.0</ele><time>2026-04-27T12:29:53Z</time></trkpt><trkpt lat="42.75675894965985" lon="11.829302651778775"><ele>417.99999999999994</ele><time>2026-04-27T12:29:55Z</time></trkpt><trkpt lat="42.756803065176896" lon="11.829151761534813"><ele>419.0</ele><time>2026-04-27T12:29:57Z</time></trkpt><trkpt lat="42.756825137685055" lon="11.829034820806973"><ele>419.0</ele><time>2026-04-27T12:29:59Z</time></trkpt><trkpt lat="42.75685489418196" lon="11.828940666327634"><ele>419.0</ele><time>2026-04-27T12:30:01Z</time></trkpt><trkpt lat="42.75689919809296" lon="11.82887443479259"><ele>419.0</ele><time>2026-04-27T12:30:03Z</time></trkpt><trkpt lat="42.75693224650826" lon="11.828796295878627"><ele>419.0</ele><time>2026-04-27T12:30:07Z</time></trkpt><trkpt lat="42.75695165718364" lon="11.828704794279233"><ele>419.0</ele><time>2026-04-27T12:30:12Z</time></trkpt><trkpt lat="42.75885421421641" lon="11.82653956254191"><ele>413.0</ele><time>2026-04-27T12:34:18Z</time></trkpt><trkpt lat="42.75892162025362" lon="11.826467830507292"><ele>407.0</ele><time>2026-04-27T12:34:20Z</time></trkpt><trkpt lat="42.75898952865855" lon="11.826395563911507"><ele>401.0</ele><time>2026-04-27T12:34:25Z</time></trkpt><trkpt lat="42.75901671960245" lon="11.826317440798315"><ele>395.0</ele><time>2026-04-27T12:34:28.001Z</time></trkpt><trkpt lat="42.75886337078923" lon="11.826233001530968"><ele>389.0</ele><time>2026-04-27T12:34:31.001Z</time></trkpt><trkpt lat="42.75878610104476" lon="11.826292665624871"><ele>388.99999999999994</ele><time>2026-04-27T12:34:33.001Z</time></trkpt><trkpt lat="42.75872819395354" lon="11.826338337517315"><ele>389.0</ele><time>2026-04-27T12:34:35.001Z</time></trkpt><trkpt lat="42.7587829417307" lon="11.826295104799234"><ele>389.0</ele><time>2026-04-27T12:35:29.001Z</time></trkpt><trkpt lat="42.758871776893976" lon="11.826226514724844"><ele>389.0</ele><time>2026-04-27T12:35:31.001Z</time></trkpt><trkpt lat="42.758983830262" lon="11.826139997431932"><ele>388.99999999999994</ele><time>2026-04-27T12:35:33.001Z</time></trkpt><trkpt lat="42.75904410873317" lon="11.82609345794522"><ele>389.0</ele><time>2026-04-27T12:35:34.001Z</time></trkpt><trkpt lat="42.759100944832916" lon="11.826049576227184"><ele>389.0</ele><time>2026-04-27T12:35:35.001Z</time></trkpt><trkpt lat="42.75916730851225" lon="11.825998338504137"><ele>389.0</ele><time>2026-04-27T12:35:37.001Z</time></trkpt><trkpt lat="42.759082147408215" lon="11.826061019021477"><ele>389.0</ele><time>2026-04-27T12:35:42.001Z</time></trkpt><trkpt lat="42.75899659564282" lon="11.826128824992484"><ele>389.0</ele><time>2026-04-27T12:35:44.001Z</time></trkpt><trkpt lat="42.758889540915455" lon="11.82621279825862"><ele>389.0</ele><time>2026-04-27T12:35:46.001Z</time></trkpt><trkpt lat="42.75883629716842" lon="11.826277498391505"><ele>388.99999999999994</ele><time>2026-04-27T12:35:47.001Z</time></trkpt><trkpt lat="42.75875669947405" lon="11.826314640582927"><ele>389.0</ele><time>2026-04-27T12:35:48.001Z</time></trkpt><trkpt lat="42.758693730302326" lon="11.826366987938291"><ele>389.0</ele><time>2026-04-27T12:35:49.001Z</time></trkpt><trkpt lat="42.75863387686748" lon="11.826419276205511"><ele>389.0</ele><time>2026-04-27T12:35:50Z</time></trkpt><trkpt lat="42.7585881046049" lon="11.826478714774987"><ele>388.99999999999994</ele><time>2026-04-27T12:35:51Z</time></trkpt><trkpt lat="42.75847839676418" lon="11.826535992479226"><ele>389.0</ele><time>2026-04-27T12:35:53Z</time></trkpt><trkpt lat="42.75836265057045" lon="11.826556411377682"><ele>389.0</ele><time>2026-04-27T12:35:55Z</time></trkpt><trkpt lat="42.758297279872444" lon="11.826549362757836"><ele>389.0</ele><time>2026-04-27T12:35:56Z</time></trkpt><trkpt lat="42.75822626572852" lon="11.826540442499246"><ele>389.0</ele><time>2026-04-27T12:35:57Z</time></trkpt><trkpt lat="42.758100923837524" lon="11.826527180740225"><ele>389.0</ele><time>2026-04-27T12:35:59Z</time></trkpt><trkpt lat="42.758001933357846" lon="11.826501465096461"><ele>389.0</ele><time>2026-04-27T12:36:01Z</time></trkpt><trkpt lat="42.75801582668836" lon="11.826379290450832"><ele>389.0</ele><time>2026-04-27T12:36:04Z</time></trkpt><trkpt lat="42.758021315424074" lon="11.826276874080524"><ele>389.0</ele><time>2026-04-27T12:36:06Z</time></trkpt><trkpt lat="42.758041584111716" lon="11.826188446355376"><ele>389.0</ele><time>2026-04-27T12:36:08Z</time></trkpt><trkpt lat="42.758113975414986" lon="11.826100998844613"><ele>389.0</ele><time>2026-04-27T12:36:12Z</time></trkpt><trkpt lat="42.75920045187201" lon="11.826046043263021"><ele>388.99999999999994</ele><time>2026-04-27T12:37:18.001Z</time></trkpt><trkpt lat="42.75922110992267" lon="11.82616796963464"><ele>389.0</ele><time>2026-04-27T12:37:21.001Z</time></trkpt><trkpt lat="42.759096180797236" lon="11.826194534506282"><ele>389.0</ele><time>2026-04-27T12:37:22.001Z</time></trkpt><trkpt lat="42.759045779822245" lon="11.82624935497279"><ele>389.0</ele><time>2026-04-27T12:37:23.001Z</time></trkpt><trkpt lat="42.75898919165794" lon="11.826309700434416"><ele>388.99999999999994</ele><time>2026-04-27T12:37:24.001Z</time></trkpt><trkpt lat="42.75892652252846" lon="11.826376460278663"><ele>389.0</ele><time>2026-04-27T12:37:25.001Z</time></trkpt><trkpt lat="42.75885163943528" lon="11.82645614892827"><ele>389.0</ele><time>2026-04-27T12:37:26.001Z</time></trkpt><trkpt lat="42.75877625299439" lon="11.82653584137938"><ele>389.0</ele><time>2026-04-27T12:37:27.001Z</time></trkpt><trkpt lat="42.758702976863496" lon="11.826610216347435"><ele>389.0</ele><time>2026-04-27T12:37:28.001Z</time></trkpt><trkpt lat="42.758627997842524" lon="11.826686319143759"><ele>389.0</ele><time>2026-04-27T12:37:30.001Z</time></trkpt><trkpt lat="42.75864561250695" lon="11.826795081249806"><ele>389.0</ele><time>2026-04-27T12:37:31.001Z</time></trkpt><trkpt lat="42.75867189997362" lon="11.826942838406742"><ele>390.66666666666663</ele><time>2026-04-27T12:37:33.001Z</time></trkpt><trkpt lat="42.75861866799395" lon="11.827022687721142"><ele>392.3333333333333</ele><time>2026-04-27T12:37:34.001Z</time></trkpt><trkpt lat="42.75858901669613" lon="11.827099524154907"><ele>394.0</ele><time>2026-04-27T12:37:35.001Z</time></trkpt><trkpt lat="42.75856344689892" lon="11.827194126010111"><ele>395.66666666666663</ele><time>2026-04-27T12:37:36.001Z</time></trkpt><trkpt lat="42.75853044740009" lon="11.827298024131686"><ele>397.3333333333333</ele><time>2026-04-27T12:37:37.001Z</time></trkpt><trkpt lat="42.758496865432036" lon="11.827399815656108"><ele>399.0</ele><time>2026-04-27T12:37:38.001Z</time></trkpt><trkpt lat="42.75845191674356" lon="11.827495561761415"><ele>399.0</ele><time>2026-04-27T12:37:39.001Z</time></trkpt><trkpt lat="42.758365540902105" lon="11.82762497192497"><ele>399.0</ele><time>2026-04-27T12:37:41.001Z</time></trkpt><trkpt lat="42.75830657531524" lon="11.82766879664348"><ele>399.0</ele><time>2026-04-27T12:37:42.001Z</time></trkpt><trkpt lat="42.75823631309519" lon="11.82769948858336"><ele>399.0</ele><time>2026-04-27T12:37:43.001Z</time></trkpt><trkpt lat="42.75817813132937" lon="11.827736214930923"><ele>399.0</ele><time>2026-04-27T12:37:44.001Z</time></trkpt><trkpt lat="42.75805631800865" lon="11.827732533679299"><ele>400.2</ele><time>2026-04-27T12:37:46.001Z</time></trkpt><trkpt lat="42.757971547927816" lon="11.8277130403063"><ele>401.4</ele><time>2026-04-27T12:37:47.001Z</time></trkpt><trkpt lat="42.757883200778785" lon="11.82769345442983"><ele>402.6</ele><time>2026-04-27T12:37:48.001Z</time></trkpt><trkpt lat="42.75782046711528" lon="11.827723367376057"><ele>403.8</ele><time>2026-04-27T12:37:49.001Z</time></trkpt><trkpt lat="42.75777726182488" lon="11.827814579281466"><ele>405.0</ele><time>2026-04-27T12:37:51.001Z</time></trkpt><trkpt lat="42.75765696396695" lon="11.82768842965756"><ele>403.0</ele><time>2026-04-27T12:37:52.001Z</time></trkpt><trkpt lat="42.757763951126165" lon="11.827828988388546"><ele>401.0</ele><time>2026-04-27T12:37:55.001Z</time></trkpt><trkpt lat="42.75769485493381" lon="11.827610949419608"><ele>399.0</ele><time>2026-04-27T12:38:15Z</time></trkpt><trkpt lat="42.7577617483378" lon="11.8274511168856"><ele>399.0</ele><time>2026-04-27T12:38:17Z</time></trkpt><trkpt lat="42.75796846937951" lon="11.827741298156393"><ele>399.0</ele><time>2026-04-27T12:39:30.001Z</time></trkpt><trkpt lat="42.75803358663065" lon="11.827542200436996"><ele>405.0</ele><time>2026-04-27T13:04:32.002Z</time></trkpt><trkpt lat="42.7575127058685" lon="11.827816545972327"><ele>405.0</ele><time>2026-04-27T13:08:18.001Z</time></trkpt><trkpt lat="42.75746614968601" lon="11.82791435584769"><ele>405.0</ele><time>2026-04-27T13:08:19.001Z</time></trkpt><trkpt lat="42.75738480047064" lon="11.828022540088712"><ele>405.0</ele><time>2026-04-27T13:08:20.001Z</time></trkpt><trkpt lat="42.757359875454924" lon="11.828108674807151"><ele>405.0</ele><time>2026-04-27T13:08:21.001Z</time></trkpt><trkpt lat="42.75730375327173" lon="11.8282194989028"><ele>405.0</ele><time>2026-04-27T13:08:22.001Z</time></trkpt><trkpt lat="42.75722705783879" lon="11.82833471747197"><ele>405.0</ele><time>2026-04-27T13:08:24.001Z</time></trkpt><trkpt lat="42.75717837711409" lon="11.82841566074453"><ele>405.0</ele><time>2026-04-27T13:08:25.001Z</time></trkpt><trkpt lat="42.75714426022956" lon="11.828494076074074"><ele>405.0</ele><time>2026-04-27T13:08:26.001Z</time></trkpt><trkpt lat="42.75701991738007" lon="11.828621695524264"><ele>405.0</ele><time>2026-04-27T13:08:28.001Z</time></trkpt><trkpt lat="42.75701842274757" lon="11.828716866690051"><ele>405.0</ele><time>2026-04-27T13:08:30.001Z</time></trkpt><trkpt lat="42.75701289860368" lon="11.828827210001307"><ele>404.3333333333333</ele><time>2026-04-27T13:08:32.002Z</time></trkpt><trkpt lat="42.756993355571545" lon="11.828928916628524"><ele>403.66666666666663</ele><time>2026-04-27T13:08:34.002Z</time></trkpt><trkpt lat="42.75697245149442" lon="11.829017621666843"><ele>403.0</ele><time>2026-04-27T13:08:36.002Z</time></trkpt><trkpt lat="42.75702166571819" lon="11.829080667047258"><ele>402.3333333333333</ele><time>2026-04-27T13:08:39.002Z</time></trkpt><trkpt lat="42.75704221208383" lon="11.829163841791095"><ele>401.66666666666663</ele><time>2026-04-27T13:08:41.002Z</time></trkpt><trkpt lat="42.75708194819229" lon="11.829277462348472"><ele>401.0</ele><time>2026-04-27T13:08:43.002Z</time></trkpt><trkpt lat="42.75708329786957" lon="11.829417984512567"><ele>403.5</ele><time>2026-04-27T13:08:45.002Z</time></trkpt><trkpt lat="42.757037225493434" lon="11.82948961102287"><ele>406.0</ele><time>2026-04-27T13:08:46.002Z</time></trkpt><trkpt lat="42.757020967269895" lon="11.829656841749392"><ele>408.5</ele><time>2026-04-27T13:08:48.002Z</time></trkpt><trkpt lat="42.7570814977406" lon="11.829892260439308"><ele>411.0</ele><time>2026-04-27T13:08:49.002Z</time></trkpt><trkpt lat="42.75709047197082" lon="11.830031896291866"><ele>411.4</ele><time>2026-04-27T13:08:50.002Z</time></trkpt><trkpt lat="42.75712221717099" lon="11.830205083154592"><ele>411.8</ele><time>2026-04-27T13:08:53.002Z</time></trkpt><trkpt lat="42.757152248111375" lon="11.830317098725113"><ele>412.2</ele><time>2026-04-27T13:08:54.002Z</time></trkpt><trkpt lat="42.75719887667348" lon="11.83040051152946"><ele>412.59999999999997</ele><time>2026-04-27T13:08:55.002Z</time></trkpt><trkpt lat="42.75724832786166" lon="11.830491588677853"><ele>413.0</ele><time>2026-04-27T13:08:56.002Z</time></trkpt><trkpt lat="42.75727443582164" lon="11.83059561859933"><ele>413.0</ele><time>2026-04-27T13:08:58.002Z</time></trkpt><trkpt lat="42.75725043819241" lon="11.830502532332947"><ele>413.0</ele><time>2026-04-27T13:09:01.002Z</time></trkpt><trkpt lat="42.75720829701899" lon="11.830365416344783"><ele>413.0</ele><time>2026-04-27T13:09:04.002Z</time></trkpt><trkpt lat="42.75733155003499" lon="11.83032679279462"><ele>413.0</ele><time>2026-04-27T13:09:11.002Z</time></trkpt><trkpt lat="42.757460590234665" lon="11.8303369647949"><ele>413.0</ele><time>2026-04-27T13:09:15.003Z</time></trkpt><trkpt lat="42.75756559335476" lon="11.830384869061444"><ele>413.0</ele><time>2026-04-27T13:09:16.003Z</time></trkpt><trkpt lat="42.75765051510746" lon="11.830433856114437"><ele>413.0</ele><time>2026-04-27T13:09:17.003Z</time></trkpt><trkpt lat="42.758691652872756" lon="11.830483371174248"><ele>406.0</ele><time>2026-04-27T13:11:21.002Z</time></trkpt><trkpt lat="42.7586872499235" lon="11.830654544024016"><ele>399.0</ele><time>2026-04-27T13:13:11.002Z</time></trkpt><trkpt lat="42.758709866172076" lon="11.830743581980567"><ele>392.0</ele><time>2026-04-27T13:13:12.002Z</time></trkpt><trkpt lat="42.75872198951146" lon="11.830837254360096"><ele>385.0</ele><time>2026-04-27T13:13:13.002Z</time></trkpt><trkpt lat="42.75874833758405" lon="11.83095461510906"><ele>378.0</ele><time>2026-04-27T13:13:15.002Z</time></trkpt><trkpt lat="42.75917279661168" lon="11.832091265977603"><ele>373.0</ele><time>2026-04-27T13:19:18.002Z</time></trkpt><trkpt lat="42.75931427912381" lon="11.832136923684207"><ele>368.0</ele><time>2026-04-27T13:19:19.002Z</time></trkpt><trkpt lat="42.759451456180244" lon="11.832185720723782"><ele>363.0</ele><time>2026-04-27T13:19:20.002Z</time></trkpt><trkpt lat="42.7595744951048" lon="11.83222366163306"><ele>358.0</ele><time>2026-04-27T13:19:21.002Z</time></trkpt><trkpt lat="42.75971081055113" lon="11.8322835151358"><ele>357.25</ele><time>2026-04-27T13:19:22.002Z</time></trkpt><trkpt lat="42.759845918814804" lon="11.832351378472096"><ele>356.5</ele><time>2026-04-27T13:19:23.002Z</time></trkpt><trkpt lat="42.759965391867745" lon="11.832405494927396"><ele>355.75</ele><time>2026-04-27T13:19:24.002Z</time></trkpt><trkpt lat="42.76010025097404" lon="11.832462509823092"><ele>355.0</ele><time>2026-04-27T13:19:25.002Z</time></trkpt><trkpt lat="42.760231928436276" lon="11.8325059573642"><ele>353.4</ele><time>2026-04-27T13:19:26.002Z</time></trkpt><trkpt lat="42.760339603395614" lon="11.832569111465073"><ele>351.8</ele><time>2026-04-27T13:19:27.002Z</time></trkpt><trkpt lat="42.76041396322899" lon="11.832607931725533"><ele>350.20000000000005</ele><time>2026-04-27T13:19:28.002Z</time></trkpt><trkpt lat="42.760508793816165" lon="11.832641417041808"><ele>348.6</ele><time>2026-04-27T13:19:29.002Z</time></trkpt><trkpt lat="42.76061135646548" lon="11.832649043001554"><ele>347.0</ele><time>2026-04-27T13:19:30.002Z</time></trkpt><trkpt lat="42.760728874073905" lon="11.832760874775165"><ele>347.0</ele><time>2026-04-27T13:19:31.002Z</time></trkpt><trkpt lat="42.76082579576573" lon="11.832855997981898"><ele>347.0</ele><time>2026-04-27T13:19:32.002Z</time></trkpt><trkpt lat="42.76091657670791" lon="11.832943846161939"><ele>347.0</ele><time>2026-04-27T13:19:33.002Z</time></trkpt><trkpt lat="42.76101799679783" lon="11.83300209022405"><ele>347.0</ele><time>2026-04-27T13:19:34.002Z</time></trkpt><trkpt lat="42.76112112292046" lon="11.833117032746312"><ele>347.75</ele><time>2026-04-27T13:19:35.002Z</time></trkpt><trkpt lat="42.761222552927336" lon="11.833218278649639"><ele>348.5</ele><time>2026-04-27T13:19:36.002Z</time></trkpt><trkpt lat="42.76134048762077" lon="11.833316448347261"><ele>349.25</ele><time>2026-04-27T13:19:37.002Z</time></trkpt><trkpt lat="42.76145723376977" lon="11.833390848418185"><ele>350.0</ele><time>2026-04-27T13:19:38.002Z</time></trkpt><trkpt lat="42.761569857726116" lon="11.83347351353604"><ele>350.25</ele><time>2026-04-27T13:19:39.002Z</time></trkpt><trkpt lat="42.76170632429262" lon="11.83354585685313"><ele>350.5</ele><time>2026-04-27T13:19:40.002Z</time></trkpt><trkpt lat="42.76184411665663" lon="11.833602102656378"><ele>350.75</ele><time>2026-04-27T13:19:41.002Z</time></trkpt><trkpt lat="42.76198840775938" lon="11.833604938252359"><ele>351.0</ele><time>2026-04-27T13:19:42.002Z</time></trkpt><trkpt lat="42.762123387243534" lon="11.833595163533062"><ele>349.75</ele><time>2026-04-27T13:19:43.002Z</time></trkpt><trkpt lat="42.76223150743778" lon="11.833554321659"><ele>348.5</ele><time>2026-04-27T13:19:44.002Z</time></trkpt><trkpt lat="42.76235501010459" lon="11.833495803615332"><ele>347.25</ele><time>2026-04-27T13:19:45.002Z</time></trkpt><trkpt lat="42.76246651918072" lon="11.833437040898222"><ele>346.0</ele><time>2026-04-27T13:19:46.002Z</time></trkpt><trkpt lat="42.76257264492865" lon="11.833367808124066"><ele>345.0</ele><time>2026-04-27T13:19:47.002Z</time></trkpt><trkpt lat="42.762684772774925" lon="11.83334198101025"><ele>344.0</ele><time>2026-04-27T13:19:48.002Z</time></trkpt><trkpt lat="42.76279004798639" lon="11.833394084433706"><ele>343.0</ele><time>2026-04-27T13:19:49.002Z</time></trkpt><trkpt lat="42.762896176551195" lon="11.833462643900148"><ele>342.0</ele><time>2026-04-27T13:19:50.002Z</time></trkpt><trkpt lat="42.763029993492495" lon="11.833570149732374"><ele>339.6666666666667</ele><time>2026-04-27T13:19:51.002Z</time></trkpt><trkpt lat="42.76314788516338" lon="11.83370492101846"><ele>337.33333333333337</ele><time>2026-04-27T13:19:52.002Z</time></trkpt><trkpt lat="42.76326375938107" lon="11.833853462059157"><ele>335.0</ele><time>2026-04-27T13:19:53.002Z</time></trkpt><trkpt lat="42.76335873883525" lon="11.83400318163296"><ele>335.0</ele><time>2026-04-27T13:19:54.002Z</time></trkpt><trkpt lat="42.76346422064753" lon="11.83416103019991"><ele>335.0</ele><time>2026-04-27T13:19:55.002Z</time></trkpt><trkpt lat="42.763543492289855" lon="11.834337512040022"><ele>335.0</ele><time>2026-04-27T13:19:56.001Z</time></trkpt><trkpt lat="42.76362392541172" lon="11.834521242811324"><ele>330.0</ele><time>2026-04-27T13:19:57Z</time></trkpt><trkpt lat="42.763708179452294" lon="11.834701450350094"><ele>325.0</ele><time>2026-04-27T13:19:58.001Z</time></trkpt><trkpt lat="42.763795564461425" lon="11.83487740020511"><ele>320.0</ele><time>2026-04-27T13:19:59.001Z</time></trkpt><trkpt lat="42.76386695125793" lon="11.835032858170113"><ele>315.0</ele><time>2026-04-27T13:20:00Z</time></trkpt><trkpt lat="42.76394061851678" lon="11.835168142725916"><ele>315.0</ele><time>2026-04-27T13:20:01.001Z</time></trkpt><trkpt lat="42.764028791239525" lon="11.835284462730922"><ele>315.0</ele><time>2026-04-27T13:20:02Z</time></trkpt><trkpt lat="42.76413187536896" lon="11.83537918810792"><ele>315.0</ele><time>2026-04-27T13:20:03Z</time></trkpt><trkpt lat="42.7642618139209" lon="11.835436795378122"><ele>315.0</ele><time>2026-04-27T13:20:04Z</time></trkpt><trkpt lat="42.76436968437956" lon="11.835485980765927"><ele>312.8333333333333</ele><time>2026-04-27T13:20:05Z</time></trkpt><trkpt lat="42.76447446114249" lon="11.835531465482166"><ele>310.6666666666667</ele><time>2026-04-27T13:20:06Z</time></trkpt><trkpt lat="42.7645444781286" lon="11.835587903579219"><ele>308.5</ele><time>2026-04-27T13:20:07Z</time></trkpt><trkpt lat="42.76458923286731" lon="11.835680289830643"><ele>306.33333333333337</ele><time>2026-04-27T13:20:08Z</time></trkpt><trkpt lat="42.76462368897735" lon="11.835790792794217"><ele>304.1666666666667</ele><time>2026-04-27T13:20:09Z</time></trkpt><trkpt lat="42.764623386158775" lon="11.835887956629788"><ele>302.0</ele><time>2026-04-27T13:20:10Z</time></trkpt><trkpt lat="42.764585940475015" lon="11.835994191009808"><ele>302.4</ele><time>2026-04-27T13:20:11Z</time></trkpt><trkpt lat="42.76454108020683" lon="11.836084270905003"><ele>302.79999999999995</ele><time>2026-04-27T13:20:12Z</time></trkpt><trkpt lat="42.76447045833002" lon="11.83615453536669"><ele>303.2</ele><time>2026-04-27T13:20:13Z</time></trkpt><trkpt lat="42.76437235185406" lon="11.83618762753088"><ele>303.59999999999997</ele><time>2026-04-27T13:20:14Z</time></trkpt><trkpt lat="42.76426204721273" lon="11.83624034991826"><ele>304.0</ele><time>2026-04-27T13:20:15Z</time></trkpt><trkpt lat="42.76413998836298" lon="11.836292152107093"><ele>304.0</ele><time>2026-04-27T13:20:16Z</time></trkpt><trkpt lat="42.76402716409279" lon="11.836345714437325"><ele>304.0</ele><time>2026-04-27T13:20:17Z</time></trkpt><trkpt lat="42.75826612272091" lon="11.841736308274404"><ele>295.0</ele><time>2026-04-27T13:21:18.001Z</time></trkpt><trkpt lat="42.75818101167413" lon="11.841843318931891"><ele>286.0</ele><time>2026-04-27T13:21:19.001Z</time></trkpt><trkpt lat="42.758104946095614" lon="11.84194344235218"><ele>277.0</ele><time>2026-04-27T13:21:20.001Z</time></trkpt><trkpt lat="42.75802305631266" lon="11.84205446566099"><ele>268.0</ele><time>2026-04-27T13:21:21.001Z</time></trkpt><trkpt lat="42.75794634289356" lon="11.842159402372149"><ele>259.0</ele><time>2026-04-27T13:21:22.001Z</time></trkpt><trkpt lat="42.757871959936246" lon="11.842260709194626"><ele>259.0</ele><time>2026-04-27T13:21:23.001Z</time></trkpt><trkpt lat="42.757809331858894" lon="11.84235101417104"><ele>259.0</ele><time>2026-04-27T13:21:24.001Z</time></trkpt><trkpt lat="42.75772556456293" lon="11.842450745579796"><ele>259.0</ele><time>2026-04-27T13:21:25.001Z</time></trkpt><trkpt lat="42.757645568998015" lon="11.842535864379894"><ele>259.0</ele><time>2026-04-27T13:21:26.001Z</time></trkpt><trkpt lat="42.757567074084875" lon="11.842630540809818"><ele>259.0</ele><time>2026-04-27T13:21:27.001Z</time></trkpt><trkpt lat="42.757502127856746" lon="11.842714684564946"><ele>261.2</ele><time>2026-04-27T13:21:28.001Z</time></trkpt><trkpt lat="42.757439687266476" lon="11.842832929126907"><ele>263.4</ele><time>2026-04-27T13:21:29.001Z</time></trkpt><trkpt lat="42.75739903263916" lon="11.842940488451692"><ele>265.6</ele><time>2026-04-27T13:21:30.001Z</time></trkpt><trkpt lat="42.75738419385125" lon="11.843067678103118"><ele>267.8</ele><time>2026-04-27T13:21:31.001Z</time></trkpt><trkpt lat="42.757397672623405" lon="11.843209919983428"><ele>270.0</ele><time>2026-04-27T13:21:32.002Z</time></trkpt><trkpt lat="42.757442620152" lon="11.843334725462237"><ele>271.0</ele><time>2026-04-27T13:21:33.002Z</time></trkpt><trkpt lat="42.757514002226756" lon="11.843466146121589"><ele>272.0</ele><time>2026-04-27T13:21:34.002Z</time></trkpt><trkpt lat="42.75760459895946" lon="11.84359404547225"><ele>273.0</ele><time>2026-04-27T13:21:35.002Z</time></trkpt><trkpt lat="42.75770450083858" lon="11.84373961966552"><ele>274.0</ele><time>2026-04-27T13:21:36.002Z</time></trkpt><trkpt lat="42.75781108463884" lon="11.843876646922084"><ele>274.0</ele><time>2026-04-27T13:21:37.002Z</time></trkpt><trkpt lat="42.75791622100421" lon="11.844006415802054"><ele>274.0</ele><time>2026-04-27T13:21:38.002Z</time></trkpt><trkpt lat="42.758021881494926" lon="11.844132225570084"><ele>274.0</ele><time>2026-04-27T13:21:39.002Z</time></trkpt><trkpt lat="42.758128734616264" lon="11.844259455300838"><ele>274.0</ele><time>2026-04-27T13:21:40.002Z</time></trkpt><trkpt lat="42.758226989175945" lon="11.844373735634058"><ele>274.4</ele><time>2026-04-27T13:21:41.002Z</time></trkpt><trkpt lat="42.75831656647545" lon="11.844477194248018"><ele>274.79999999999995</ele><time>2026-04-27T13:21:42.002Z</time></trkpt><trkpt lat="42.758386686016046" lon="11.844557874319559"><ele>275.20000000000005</ele><time>2026-04-27T13:21:43.002Z</time></trkpt><trkpt lat="42.758480882560455" lon="11.844663430168923"><ele>275.6</ele><time>2026-04-27T13:21:44.002Z</time></trkpt><trkpt lat="42.758571585629795" lon="11.844765071853345"><ele>276.0</ele><time>2026-04-27T13:21:45.002Z</time></trkpt><trkpt lat="42.758663839995464" lon="11.844868450935406"><ele>276.0</ele><time>2026-04-27T13:21:46.002Z</time></trkpt><trkpt lat="42.758748673240106" lon="11.84496979679991"><ele>276.0</ele><time>2026-04-27T13:21:47.002Z</time></trkpt><trkpt lat="42.758828661544634" lon="11.845076182398724"><ele>276.0</ele><time>2026-04-27T13:21:48.002Z</time></trkpt><trkpt lat="42.7589022528261" lon="11.845179196614884"><ele>276.0</ele><time>2026-04-27T13:21:49.002Z</time></trkpt><trkpt lat="42.75899042960174" lon="11.845281013558331"><ele>276.0</ele><time>2026-04-27T13:21:50.002Z</time></trkpt><trkpt lat="42.7590502438386" lon="11.845402669700352"><ele>277.40000000000003</ele><time>2026-04-27T13:21:51.002Z</time></trkpt><trkpt lat="42.75912303394085" lon="11.845533678669845"><ele>278.8</ele><time>2026-04-27T13:21:52.002Z</time></trkpt><trkpt lat="42.75919185014671" lon="11.845644626795714"><ele>280.20000000000005</ele><time>2026-04-27T13:21:53.002Z</time></trkpt><trkpt lat="42.75926140595052" lon="11.845754677529634"><ele>281.6</ele><time>2026-04-27T13:21:54.002Z</time></trkpt><trkpt lat="42.75933220562122" lon="11.845876340409541"><ele>283.0</ele><time>2026-04-27T13:21:55.002Z</time></trkpt><trkpt lat="42.75939032041559" lon="11.84598997175188"><ele>280.2</ele><time>2026-04-27T13:21:56.002Z</time></trkpt><trkpt lat="42.75945216532556" lon="11.846083188410615"><ele>277.4</ele><time>2026-04-27T13:21:57.002Z</time></trkpt><trkpt lat="42.75950116162938" lon="11.846176147219383"><ele>274.59999999999997</ele><time>2026-04-27T13:21:58.002Z</time></trkpt><trkpt lat="42.75953949304909" lon="11.846284535823662"><ele>271.8</ele><time>2026-04-27T13:21:59.002Z</time></trkpt><trkpt lat="42.75958918412281" lon="11.84639856904803"><ele>269.0</ele><time>2026-04-27T13:22:00.002Z</time></trkpt><trkpt lat="42.759619639268315" lon="11.84652905486776"><ele>269.0</ele><time>2026-04-27T13:22:01.002Z</time></trkpt><trkpt lat="42.759652781730445" lon="11.846649062761482"><ele>269.0</ele><time>2026-04-27T13:22:02Z</time></trkpt><trkpt lat="42.759668099949366" lon="11.846753330750742"><ele>269.0</ele><time>2026-04-27T13:22:03Z</time></trkpt><trkpt lat="42.7596975306876" lon="11.846837219790526"><ele>269.0</ele><time>2026-04-27T13:22:04Z</time></trkpt><trkpt lat="42.759708662879824" lon="11.846951924198333"><ele>269.0</ele><time>2026-04-27T13:22:06Z</time></trkpt><trkpt lat="42.75954032740583" lon="11.84684613565425"><ele>269.0</ele><time>2026-04-27T13:22:15Z</time></trkpt><trkpt lat="42.759478089105805" lon="11.846790073369547"><ele>269.0</ele><time>2026-04-27T13:22:16Z</time></trkpt><trkpt lat="42.75941813141335" lon="11.846737752149869"><ele>269.0</ele><time>2026-04-27T13:22:17Z</time></trkpt><trkpt lat="42.755343978679576" lon="11.846023125217917"><ele>280.4</ele><time>2026-04-27T13:23:18.001Z</time></trkpt><trkpt lat="42.75536501700498" lon="11.846133118000346"><ele>291.79999999999995</ele><time>2026-04-27T13:23:19.001Z</time></trkpt><trkpt lat="42.7553946505229" lon="11.846259397854471"><ele>303.20000000000005</ele><time>2026-04-27T13:23:20.001Z</time></trkpt><trkpt lat="42.755419447712804" lon="11.846401911739562"><ele>314.6</ele><time>2026-04-27T13:23:21.001Z</time></trkpt><trkpt lat="42.75547488005659" lon="11.846528291893543"><ele>326.0</ele><time>2026-04-27T13:23:22.001Z</time></trkpt><trkpt lat="42.755503761823945" lon="11.846667355986026"><ele>326.0</ele><time>2026-04-27T13:23:23.001Z</time></trkpt><trkpt lat="42.7555466724452" lon="11.846792247496698"><ele>326.0</ele><time>2026-04-27T13:23:24.001Z</time></trkpt><trkpt lat="42.75558893333614" lon="11.8469012612101"><ele>326.0</ele><time>2026-04-27T13:23:25.001Z</time></trkpt><trkpt lat="42.75562801881414" lon="11.84699856256341"><ele>326.0</ele><time>2026-04-27T13:23:26.001Z</time></trkpt><trkpt lat="42.755688303109594" lon="11.847078411080513"><ele>326.0</ele><time>2026-04-27T13:23:27.001Z</time></trkpt><trkpt lat="42.75575903386906" lon="11.8471467333105"><ele>326.0</ele><time>2026-04-27T13:23:28.001Z</time></trkpt><trkpt lat="42.7558506596914" lon="11.8472127405998"><ele>326.33333333333337</ele><time>2026-04-27T13:23:29.001Z</time></trkpt><trkpt lat="42.755937490190256" lon="11.847301507711096"><ele>326.6666666666667</ele><time>2026-04-27T13:23:30.001Z</time></trkpt><trkpt lat="42.75601085188185" lon="11.847350160004208"><ele>327.0</ele><time>2026-04-27T13:23:31.001Z</time></trkpt><trkpt lat="42.756071690831455" lon="11.847400994726026"><ele>327.3333333333333</ele><time>2026-04-27T13:23:32.001Z</time></trkpt><trkpt lat="42.756139785160805" lon="11.847451300104836"><ele>327.66666666666663</ele><time>2026-04-27T13:23:33.001Z</time></trkpt><trkpt lat="42.756210798047626" lon="11.84749087553983"><ele>328.0</ele><time>2026-04-27T13:23:34.001Z</time></trkpt><trkpt lat="42.75627757342012" lon="11.847515270688849"><ele>328.0</ele><time>2026-04-27T13:23:35.001Z</time></trkpt><trkpt lat="42.756348959164946" lon="11.847563509721596"><ele>328.0</ele><time>2026-04-27T13:23:36.001Z</time></trkpt><trkpt lat="42.75644050408722" lon="11.847625553451095"><ele>328.0</ele><time>2026-04-27T13:23:37.001Z</time></trkpt><trkpt lat="42.75651009322865" lon="11.847699153296087"><ele>328.0</ele><time>2026-04-27T13:23:38.001Z</time></trkpt><trkpt lat="42.75658073764104" lon="11.84776734836634"><ele>328.0</ele><time>2026-04-27T13:23:39.001Z</time></trkpt><trkpt lat="42.75664857408586" lon="11.847837690745555"><ele>328.0</ele><time>2026-04-27T13:23:40.001Z</time></trkpt><trkpt lat="42.7567173846608" lon="11.84790265218475"><ele>328.8333333333333</ele><time>2026-04-27T13:23:41.001Z</time></trkpt><trkpt lat="42.7567723593864" lon="11.847970664561338"><ele>329.66666666666663</ele><time>2026-04-27T13:23:42.001Z</time></trkpt><trkpt lat="42.75684034954308" lon="11.848042065624407"><ele>330.5</ele><time>2026-04-27T13:23:43.001Z</time></trkpt><trkpt lat="42.75689178598676" lon="11.848107403613916"><ele>331.3333333333333</ele><time>2026-04-27T13:23:44.001Z</time></trkpt><trkpt lat="42.756956989858146" lon="11.848183575648186"><ele>332.1666666666667</ele><time>2026-04-27T13:23:45.001Z</time></trkpt><trkpt lat="42.757017013558944" lon="11.848273852371584"><ele>333.0</ele><time>2026-04-27T13:23:46.001Z</time></trkpt><trkpt lat="42.75709154056046" lon="11.848367009030554"><ele>333.8333333333333</ele><time>2026-04-27T13:23:47.001Z</time></trkpt><trkpt lat="42.757146954898545" lon="11.84846392882741"><ele>334.6666666666667</ele><time>2026-04-27T13:23:48.001Z</time></trkpt><trkpt lat="42.75718787920253" lon="11.848552454658641"><ele>335.5</ele><time>2026-04-27T13:23:49.001Z</time></trkpt><trkpt lat="42.757236411247774" lon="11.848641449765504"><ele>336.33333333333337</ele><time>2026-04-27T13:23:50.001Z</time></trkpt><trkpt lat="42.75724607711898" lon="11.848743002875173"><ele>337.1666666666667</ele><time>2026-04-27T13:23:51.001Z</time></trkpt><trkpt lat="42.757256269923644" lon="11.848906725863793"><ele>338.0</ele><time>2026-04-27T13:23:53.001Z</time></trkpt><trkpt lat="42.75723426723113" lon="11.848993722308967"><ele>338.0</ele><time>2026-04-27T13:23:54.001Z</time></trkpt><trkpt lat="42.75717414756514" lon="11.849058523048376"><ele>338.0</ele><time>2026-04-27T13:23:55.001Z</time></trkpt><trkpt lat="42.75712633291035" lon="11.849128803266254"><ele>338.0</ele><time>2026-04-27T13:23:56.001Z</time></trkpt><trkpt lat="42.75707056269883" lon="11.849208788765186"><ele>338.0</ele><time>2026-04-27T13:23:57.001Z</time></trkpt><trkpt lat="42.75701091218" lon="11.84928646282631"><ele>338.0</ele><time>2026-04-27T13:23:58.001Z</time></trkpt><trkpt lat="42.7569693215599" lon="11.849355534733375"><ele>338.0</ele><time>2026-04-27T13:23:59.001Z</time></trkpt><trkpt lat="42.756907721855185" lon="11.849386151342472"><ele>338.0</ele><time>2026-04-27T13:24:00.001Z</time></trkpt><trkpt lat="42.75684307281587" lon="11.84936543816638"><ele>340.1666666666667</ele><time>2026-04-27T13:24:01.001Z</time></trkpt><trkpt lat="42.75678380751433" lon="11.849333636142056"><ele>342.33333333333337</ele><time>2026-04-27T13:24:02.001Z</time></trkpt><trkpt lat="42.7567074206126" lon="11.849307714013777"><ele>344.5</ele><time>2026-04-27T13:24:03.001Z</time></trkpt><trkpt lat="42.756631124561515" lon="11.84927727171768"><ele>346.6666666666667</ele><time>2026-04-27T13:24:04.001Z</time></trkpt><trkpt lat="42.75654258647669" lon="11.849255530732437"><ele>348.8333333333333</ele><time>2026-04-27T13:24:05.001Z</time></trkpt><trkpt lat="42.75645660724349" lon="11.849185312273267"><ele>351.0</ele><time>2026-04-27T13:24:06.001Z</time></trkpt><trkpt lat="42.75635456215422" lon="11.849156149082928"><ele>351.0</ele><time>2026-04-27T13:24:07.002Z</time></trkpt><trkpt lat="42.756261559470104" lon="11.84910841004741"><ele>351.0</ele><time>2026-04-27T13:24:07.999Z</time></trkpt><trkpt lat="42.75615708081927" lon="11.849080120543109"><ele>351.0</ele><time>2026-04-27T13:24:08.999Z</time></trkpt><trkpt lat="42.75604163803929" lon="11.849058074991541"><ele>351.0</ele><time>2026-04-27T13:24:09.999Z</time></trkpt><trkpt lat="42.755943144938335" lon="11.849002920573463"><ele>351.0</ele><time>2026-04-27T13:24:10.999Z</time></trkpt><trkpt lat="42.75583732791286" lon="11.848935354990926"><ele>354.0</ele><time>2026-04-27T13:24:11.999Z</time></trkpt><trkpt lat="42.75572677404379" lon="11.84887762857116"><ele>357.0</ele><time>2026-04-27T13:24:12.999Z</time></trkpt><trkpt lat="42.75562785162334" lon="11.8488391136459"><ele>360.0</ele><time>2026-04-27T13:24:13.999Z</time></trkpt><trkpt lat="42.75554446923045" lon="11.84881543963021"><ele>363.0</ele><time>2026-04-27T13:24:14.999Z</time></trkpt><trkpt lat="42.75547362638897" lon="11.848838200638992"><ele>366.0</ele><time>2026-04-27T13:24:15.999Z</time></trkpt><trkpt lat="42.75350774387768" lon="11.849414348588532"><ele>372.0</ele><time>2026-04-27T13:25:18.001Z</time></trkpt><trkpt lat="42.753432462324746" lon="11.849321245533208"><ele>378.0</ele><time>2026-04-27T13:25:19.001Z</time></trkpt><trkpt lat="42.75337723673775" lon="11.849237843299207"><ele>384.0</ele><time>2026-04-27T13:25:20.001Z</time></trkpt><trkpt lat="42.753313645095275" lon="11.849170410031705"><ele>390.0</ele><time>2026-04-27T13:25:21.001Z</time></trkpt><trkpt lat="42.75325280728665" lon="11.849105896958203"><ele>396.0</ele><time>2026-04-27T13:25:22.001Z</time></trkpt><trkpt lat="42.753186348848196" lon="11.849063499613882"><ele>402.0</ele><time>2026-04-27T13:25:23.001Z</time></trkpt><trkpt lat="42.753112348840894" lon="11.848977044538467"><ele>402.5</ele><time>2026-04-27T13:25:25.001Z</time></trkpt><trkpt lat="42.753066398063105" lon="11.848903669408134"><ele>403.0</ele><time>2026-04-27T13:26:14Z</time></trkpt><trkpt lat="42.75297481037072" lon="11.848800664006552"><ele>403.5</ele><time>2026-04-27T13:26:16Z</time></trkpt><trkpt lat="42.75291632895729" lon="11.848734933026444"><ele>404.0</ele><time>2026-04-27T13:26:17Z</time></trkpt><trkpt lat="42.749494542336286" lon="11.854441523596751"><ele>401.3333333333333</ele><time>2026-04-27T13:27:18.001Z</time></trkpt><trkpt lat="42.74941268529303" lon="11.854620431351295"><ele>398.66666666666663</ele><time>2026-04-27T13:27:19.001Z</time></trkpt><trkpt lat="42.74932442173118" lon="11.85479276472243"><ele>396.0</ele><time>2026-04-27T13:27:20.001Z</time></trkpt><trkpt lat="42.74923552577113" lon="11.854966136014518"><ele>395.5</ele><time>2026-04-27T13:27:21.001Z</time></trkpt><trkpt lat="42.749148711656694" lon="11.85514184720315"><ele>395.0</ele><time>2026-04-27T13:27:22.001Z</time></trkpt><trkpt lat="42.74906603357132" lon="11.855310342225959"><ele>394.5</ele><time>2026-04-27T13:27:23.001Z</time></trkpt><trkpt lat="42.74898605409862" lon="11.855475112560802"><ele>394.0</ele><time>2026-04-27T13:27:24.001Z</time></trkpt><trkpt lat="42.74890300692625" lon="11.85563526750966"><ele>394.0</ele><time>2026-04-27T13:27:25.001Z</time></trkpt><trkpt lat="42.74882132082774" lon="11.855791473953362"><ele>394.0</ele><time>2026-04-27T13:27:26.001Z</time></trkpt><trkpt lat="42.748759716425894" lon="11.855950324420462"><ele>394.0</ele><time>2026-04-27T13:27:27.001Z</time></trkpt><trkpt lat="42.74871712218534" lon="11.856110465556561"><ele>394.0</ele><time>2026-04-27T13:27:28.001Z</time></trkpt><trkpt lat="42.74869189833763" lon="11.856264525461475"><ele>394.25</ele><time>2026-04-27T13:27:29.001Z</time></trkpt><trkpt lat="42.74867708669744" lon="11.85642366853195"><ele>394.5</ele><time>2026-04-27T13:27:30.001Z</time></trkpt><trkpt lat="42.748664613417866" lon="11.856599771537105"><ele>394.75</ele><time>2026-04-27T13:27:31.001Z</time></trkpt><trkpt lat="42.74864899582168" lon="11.856783134561537"><ele>395.0</ele><time>2026-04-27T13:27:32.001Z</time></trkpt><trkpt lat="42.748638690135294" lon="11.856957616585774"><ele>395.0</ele><time>2026-04-27T13:27:33.001Z</time></trkpt><trkpt lat="42.74864248777434" lon="11.85712887096097"><ele>395.0</ele><time>2026-04-27T13:27:34.001Z</time></trkpt><trkpt lat="42.748667258315585" lon="11.857298994313643"><ele>395.0</ele><time>2026-04-27T13:27:35.001Z</time></trkpt><trkpt lat="42.74870728518301" lon="11.857461240898848"><ele>395.0</ele><time>2026-04-27T13:27:36.001Z</time></trkpt><trkpt lat="42.74875891479855" lon="11.857606583032164"><ele>396.0</ele><time>2026-04-27T13:27:37.001Z</time></trkpt><trkpt lat="42.74881042408974" lon="11.857749516628"><ele>397.0</ele><time>2026-04-27T13:27:38.001Z</time></trkpt><trkpt lat="42.74885815116129" lon="11.857893850992431"><ele>398.0</ele><time>2026-04-27T13:27:39.001Z</time></trkpt><trkpt lat="42.74889185744582" lon="11.858033459997916"><ele>399.0</ele><time>2026-04-27T13:27:40.001Z</time></trkpt><trkpt lat="42.74890510321635" lon="11.858169497559047"><ele>400.0</ele><time>2026-04-27T13:27:41.001Z</time></trkpt><trkpt lat="42.748890832752636" lon="11.858308503063423"><ele>400.0</ele><time>2026-04-27T13:27:42.001Z</time></trkpt><trkpt lat="42.748853083652854" lon="11.85844063052075"><ele>400.0</ele><time>2026-04-27T13:27:43.001Z</time></trkpt><trkpt lat="42.748797744022376" lon="11.85857743888906"><ele>400.0</ele><time>2026-04-27T13:27:44.001Z</time></trkpt><trkpt lat="42.748725271848" lon="11.85872448281505"><ele>400.0</ele><time>2026-04-27T13:27:45.001Z</time></trkpt><trkpt lat="42.74865155049199" lon="11.858882547534117"><ele>401.5</ele><time>2026-04-27T13:27:46.001Z</time></trkpt><trkpt lat="42.7485671376556" lon="11.859038243366518"><ele>403.0</ele><time>2026-04-27T13:27:47.001Z</time></trkpt><trkpt lat="42.74848573571395" lon="11.859208220221381"><ele>404.5</ele><time>2026-04-27T13:27:48.001Z</time></trkpt><trkpt lat="42.74842015526727" lon="11.859385254168608"><ele>406.0</ele><time>2026-04-27T13:27:49.001Z</time></trkpt><trkpt lat="42.748350660915484" lon="11.859529842849751"><ele>407.75</ele><time>2026-04-27T13:27:50.001Z</time></trkpt><trkpt lat="42.74827271021148" lon="11.859649686852896"><ele>409.5</ele><time>2026-04-27T13:27:51.001Z</time></trkpt><trkpt lat="42.74817722590005" lon="11.859751806240501"><ele>411.25</ele><time>2026-04-27T13:27:52.001Z</time></trkpt><trkpt lat="42.74805911739065" lon="11.859842597741254"><ele>413.0</ele><time>2026-04-27T13:27:53.001Z</time></trkpt><trkpt lat="42.747942767556935" lon="11.859932266381788"><ele>413.0</ele><time>2026-04-27T13:27:54.002Z</time></trkpt><trkpt lat="42.74782603038035" lon="11.859975495050568"><ele>413.0</ele><time>2026-04-27T13:27:55.002Z</time></trkpt><trkpt lat="42.74771240259574" lon="11.859999839813371"><ele>413.0</ele><time>2026-04-27T13:27:56.002Z</time></trkpt><trkpt lat="42.74757124548075" lon="11.860033618298534"><ele>413.0</ele><time>2026-04-27T13:27:57.002Z</time></trkpt><trkpt lat="42.74743453169017" lon="11.860066761449184"><ele>413.59999999999997</ele><time>2026-04-27T13:27:58.002Z</time></trkpt><trkpt lat="42.74732936448293" lon="11.86009512926018"><ele>414.2</ele><time>2026-04-27T13:27:59.002Z</time></trkpt><trkpt lat="42.7472506567848" lon="11.86011635986501"><ele>414.8</ele><time>2026-04-27T13:28:01.002Z</time></trkpt><trkpt lat="42.74717912366322" lon="11.860126021569632"><ele>415.4</ele><time>2026-04-27T13:28:05.002Z</time></trkpt><trkpt lat="42.747258266916965" lon="11.860114307101131"><ele>416.0</ele><time>2026-04-27T13:28:11.002Z</time></trkpt><trkpt lat="42.74637509011869" lon="11.863151517398146"><ele>406.25</ele><time>2026-04-27T13:29:18.001Z</time></trkpt><trkpt lat="42.7463497647947" lon="11.863235747675052"><ele>396.5</ele><time>2026-04-27T13:29:29.001Z</time></trkpt><trkpt lat="42.7462727200902" lon="11.863332555424487"><ele>386.75</ele><time>2026-04-27T13:29:32.001Z</time></trkpt><trkpt lat="42.746252369403756" lon="11.863416090565424"><ele>377.0</ele><time>2026-04-27T13:29:33.001Z</time></trkpt><trkpt lat="42.745988098897705" lon="11.863495700380405"><ele>376.5</ele><time>2026-04-27T13:29:34.001Z</time></trkpt><trkpt lat="42.74590134596471" lon="11.863478043599752"><ele>376.0</ele><time>2026-04-27T13:29:35.001Z</time></trkpt><trkpt lat="42.7458125277392" lon="11.863456628588118"><ele>375.5</ele><time>2026-04-27T13:29:36.001Z</time></trkpt><trkpt lat="42.74573793711392" lon="11.863439154294118"><ele>375.0</ele><time>2026-04-27T13:29:37.001Z</time></trkpt><trkpt lat="42.74566732466656" lon="11.863430790493911"><ele>374.5</ele><time>2026-04-27T13:29:38.001Z</time></trkpt><trkpt lat="42.74557954644302" lon="11.86342484760907"><ele>374.0</ele><time>2026-04-27T13:29:39.001Z</time></trkpt><trkpt lat="42.74547253088356" lon="11.86341317404066"><ele>375.2</ele><time>2026-04-27T13:29:40.001Z</time></trkpt><trkpt lat="42.74539497722547" lon="11.863408147680369"><ele>376.4</ele><time>2026-04-27T13:29:41.001Z</time></trkpt><trkpt lat="42.74530363510609" lon="11.863410804417912"><ele>377.6</ele><time>2026-04-27T13:29:42.001Z</time></trkpt><trkpt lat="42.74519684766499" lon="11.863415880582922"><ele>378.8</ele><time>2026-04-27T13:29:43.001Z</time></trkpt><trkpt lat="42.745083181636" lon="11.86342008349084"><ele>380.0</ele><time>2026-04-27T13:29:44.001Z</time></trkpt><trkpt lat="42.744968558581" lon="11.863422964288391"><ele>382.0</ele><time>2026-04-27T13:29:45.001Z</time></trkpt><trkpt lat="42.74485470153711" lon="11.863424946690339"><ele>384.0</ele><time>2026-04-27T13:29:46.001Z</time></trkpt><trkpt lat="42.74471475117073" lon="11.863427308257194"><ele>386.0</ele><time>2026-04-27T13:29:47.001Z</time></trkpt><trkpt lat="42.74456592014052" lon="11.863429202988238"><ele>388.0</ele><time>2026-04-27T13:29:48.001Z</time></trkpt><trkpt lat="42.7444268231091" lon="11.863430973797989"><ele>388.25</ele><time>2026-04-27T13:29:49.001Z</time></trkpt><trkpt lat="42.7442895688896" lon="11.863437150077758"><ele>388.5</ele><time>2026-04-27T13:29:50.001Z</time></trkpt><trkpt lat="42.74415068103204" lon="11.863443763787467"><ele>388.75</ele><time>2026-04-27T13:29:51.001Z</time></trkpt><trkpt lat="42.74401757157114" lon="11.863449362365794"><ele>389.0</ele><time>2026-04-27T13:29:52.002Z</time></trkpt><trkpt lat="42.74390657489339" lon="11.86345211151132"><ele>390.66666666666663</ele><time>2026-04-27T13:29:53.002Z</time></trkpt><trkpt lat="42.74380435451801" lon="11.863062550508957"><ele>392.33333333333337</ele><time>2026-04-27T13:29:54.002Z</time></trkpt><trkpt lat="42.743717032005094" lon="11.863091283566174"><ele>394.0</ele><time>2026-04-27T13:29:55.002Z</time></trkpt><trkpt lat="42.74363924473795" lon="11.863126590846585"><ele>394.00000000000006</ele><time>2026-04-27T13:29:56.002Z</time></trkpt><trkpt lat="42.74357253604836" lon="11.863169919479523"><ele>394.0</ele><time>2026-04-27T13:29:57.002Z</time></trkpt><trkpt lat="42.74349867714513" lon="11.86321793942148"><ele>394.0</ele><time>2026-04-27T13:29:58.002Z</time></trkpt><trkpt lat="42.74341946843584" lon="11.863273005187066"><ele>394.0</ele><time>2026-04-27T13:29:59.002Z</time></trkpt><trkpt lat="42.74333298980943" lon="11.863324575321263"><ele>394.00000000000006</ele><time>2026-04-27T13:30:00.002Z</time></trkpt><trkpt lat="42.74323864309699" lon="11.863382458234183"><ele>394.0</ele><time>2026-04-27T13:30:01.002Z</time></trkpt><trkpt lat="42.74313569377003" lon="11.863451799422874"><ele>394.0</ele><time>2026-04-27T13:30:02.002Z</time></trkpt><trkpt lat="42.743026067006866" lon="11.86351855180264"><ele>394.0</ele><time>2026-04-27T13:30:03.002Z</time></trkpt><trkpt lat="42.742905924133005" lon="11.863588216760197"><ele>394.0</ele><time>2026-04-27T13:30:04.002Z</time></trkpt><trkpt lat="42.74277899442735" lon="11.863651583363604"><ele>394.0</ele><time>2026-04-27T13:30:05.002Z</time></trkpt><trkpt lat="42.74266647409886" lon="11.86371011419166"><ele>395.4</ele><time>2026-04-27T13:30:06.002Z</time></trkpt><trkpt lat="42.74255840938087" lon="11.863762123039098"><ele>396.79999999999995</ele><time>2026-04-27T13:30:07.002Z</time></trkpt><trkpt lat="42.74246670532027" lon="11.863820313188766"><ele>398.20000000000005</ele><time>2026-04-27T13:30:08.002Z</time></trkpt><trkpt lat="42.74240235854556" lon="11.863904414651104"><ele>399.6</ele><time>2026-04-27T13:30:09.002Z</time></trkpt><trkpt lat="42.74237306842267" lon="11.864028467495338"><ele>401.0</ele><time>2026-04-27T13:30:10.002Z</time></trkpt><trkpt lat="42.742367632989385" lon="11.864159404719134"><ele>399.16666666666663</ele><time>2026-04-27T13:30:11.002Z</time></trkpt><trkpt lat="42.742366794291506" lon="11.864299370245131"><ele>397.3333333333333</ele><time>2026-04-27T13:30:12.002Z</time></trkpt><trkpt lat="42.7423619071566" lon="11.864412722309886"><ele>395.5</ele><time>2026-04-27T13:30:13.002Z</time></trkpt><trkpt lat="42.74233725266682" lon="11.864512201807488"><ele>393.66666666666663</ele><time>2026-04-27T13:30:14.002Z</time></trkpt><trkpt lat="42.74228974823978" lon="11.8645924144562"><ele>391.8333333333333</ele><time>2026-04-27T13:30:15.002Z</time></trkpt><trkpt lat="42.74220541034648" lon="11.864635509970187"><ele>390.0</ele><time>2026-04-27T13:30:16.002Z</time></trkpt><trkpt lat="42.742116786803535" lon="11.864611034243165"><ele>378.0</ele><time>2026-04-27T13:30:17.002Z</time></trkpt><trkpt lat="42.74349654468963" lon="11.865465695382948"><ele>378.0</ele><time>2026-04-27T13:31:18.001Z</time></trkpt><trkpt lat="42.743535172219154" lon="11.865338246558835"><ele>378.0</ele><time>2026-04-27T13:31:20.001Z</time></trkpt><trkpt lat="42.743578330310726" lon="11.865177066539578"><ele>378.0</ele><time>2026-04-27T13:31:22.001Z</time></trkpt><trkpt lat="42.743643195498784" lon="11.865109180594587"><ele>378.0</ele><time>2026-04-27T13:31:24.001Z</time></trkpt><trkpt lat="42.743728966558166" lon="11.865049354545075"><ele>378.0</ele><time>2026-04-27T13:31:26.001Z</time></trkpt><trkpt lat="42.74379252593474" lon="11.86507913312429"><ele>378.6666666666667</ele><time>2026-04-27T13:31:27.001Z</time></trkpt><trkpt lat="42.74387946308256" lon="11.865085164377987"><ele>379.3333333333333</ele><time>2026-04-27T13:31:28.001Z</time></trkpt><trkpt lat="42.74397810402349" lon="11.865089971416195"><ele>380.0</ele><time>2026-04-27T13:31:29.001Z</time></trkpt><trkpt lat="42.74407287675245" lon="11.865094969205613"><ele>380.66666666666663</ele><time>2026-04-27T13:31:30.001Z</time></trkpt><trkpt lat="42.74415229426889" lon="11.865097459293937"><ele>381.3333333333333</ele><time>2026-04-27T13:31:31.001Z</time></trkpt><trkpt lat="42.7442187289995" lon="11.865099735641483"><ele>382.0</ele><time>2026-04-27T13:31:32.001Z</time></trkpt><trkpt lat="42.74430857564969" lon="11.865102269156377"><ele>381.8</ele><time>2026-04-27T13:31:34.001Z</time></trkpt><trkpt lat="42.74432279043345" lon="11.865274400564253"><ele>381.6</ele><time>2026-04-27T13:31:36.001Z</time></trkpt><trkpt lat="42.744345730431974" lon="11.865405251900789"><ele>381.40000000000003</ele><time>2026-04-27T13:31:37.001Z</time></trkpt><trkpt lat="42.74437120889699" lon="11.865518446903488"><ele>381.20000000000005</ele><time>2026-04-27T13:31:38.001Z</time></trkpt><trkpt lat="42.74436737060303" lon="11.865609185019471"><ele>381.0</ele><time>2026-04-27T13:31:40.001Z</time></trkpt><trkpt lat="42.74452514393829" lon="11.865586234547083"><ele>380.6666666666667</ele><time>2026-04-27T13:31:42.001Z</time></trkpt><trkpt lat="42.744641802601095" lon="11.865483077239128"><ele>380.3333333333333</ele><time>2026-04-27T13:31:44.001Z</time></trkpt><trkpt lat="42.74470425526617" lon="11.865404100606288"><ele>380.0</ele><time>2026-04-27T13:31:45.001Z</time></trkpt><trkpt lat="42.744749605127105" lon="11.8653238520678"><ele>379.66666666666663</ele><time>2026-04-27T13:31:46.001Z</time></trkpt><trkpt lat="42.74480644583203" lon="11.86525781389948"><ele>379.3333333333333</ele><time>2026-04-27T13:31:47.001Z</time></trkpt><trkpt lat="42.744863199151034" lon="11.865211325958768"><ele>379.0</ele><time>2026-04-27T13:31:48.001Z</time></trkpt><trkpt lat="42.744943457938454" lon="11.865046568571188"><ele>378.3333333333333</ele><time>2026-04-27T13:31:50.001Z</time></trkpt><trkpt lat="42.745007801717804" lon="11.86498712705612"><ele>377.66666666666663</ele><time>2026-04-27T13:31:51.001Z</time></trkpt><trkpt lat="42.74507159470239" lon="11.864934498551419"><ele>377.0</ele><time>2026-04-27T13:31:52.001Z</time></trkpt><trkpt lat="42.745140456949436" lon="11.864885972354408"><ele>376.3333333333333</ele><time>2026-04-27T13:31:53.001Z</time></trkpt><trkpt lat="42.74521629711178" lon="11.864843050367854"><ele>375.6666666666667</ele><time>2026-04-27T13:31:54.001Z</time></trkpt><trkpt lat="42.745297446792115" lon="11.864791956589855"><ele>375.0</ele><time>2026-04-27T13:31:55.001Z</time></trkpt><trkpt lat="42.74538577979381" lon="11.864781450668666"><ele>374.1666666666667</ele><time>2026-04-27T13:31:56.001Z</time></trkpt><trkpt lat="42.74546761036404" lon="11.864757030272623"><ele>373.3333333333333</ele><time>2026-04-27T13:31:57.001Z</time></trkpt><trkpt lat="42.745549918617364" lon="11.864739042474369"><ele>372.5</ele><time>2026-04-27T13:31:58.001Z</time></trkpt><trkpt lat="42.74562581578602" lon="11.864719679945608"><ele>371.66666666666663</ele><time>2026-04-27T13:31:59.002Z</time></trkpt><trkpt lat="42.74570182359657" lon="11.864717852860617"><ele>370.8333333333333</ele><time>2026-04-27T13:32:00.002Z</time></trkpt><trkpt lat="42.7457988202592" lon="11.864688798574472"><ele>370.0</ele><time>2026-04-27T13:32:01.002Z</time></trkpt><trkpt lat="42.74590633862106" lon="11.86469234884462"><ele>370.0</ele><time>2026-04-27T13:32:02.002Z</time></trkpt><trkpt lat="42.74600112350081" lon="11.86468925263668"><ele>370.0</ele><time>2026-04-27T13:32:03.002Z</time></trkpt><trkpt lat="42.746089433895776" lon="11.864685745831274"><ele>370.0</ele><time>2026-04-27T13:32:04.002Z</time></trkpt><trkpt lat="42.74617010358277" lon="11.864678434009848"><ele>370.0</ele><time>2026-04-27T13:32:05.002Z</time></trkpt><trkpt lat="42.74623891726424" lon="11.86467410302932"><ele>370.0</ele><time>2026-04-27T13:32:06.002Z</time></trkpt><trkpt lat="42.74635407687981" lon="11.86468956775309"><ele>370.0</ele><time>2026-04-27T13:32:08.002Z</time></trkpt><trkpt lat="42.74647172391196" lon="11.864697312293368"><ele>371.3333333333333</ele><time>2026-04-27T13:32:10.002Z</time></trkpt><trkpt lat="42.74654746454842" lon="11.864753820046237"><ele>372.66666666666663</ele><time>2026-04-27T13:32:12.002Z</time></trkpt><trkpt lat="42.746593541775106" lon="11.864852850594115"><ele>374.0</ele><time>2026-04-27T13:32:13.002Z</time></trkpt><trkpt lat="42.74658180788745" lon="11.864960150156337"><ele>375.3333333333333</ele><time>2026-04-27T13:32:14.002Z</time></trkpt><trkpt lat="42.7464937092089" lon="11.865068850547399"><ele>376.6666666666667</ele><time>2026-04-27T13:32:16.002Z</time></trkpt><trkpt lat="42.746427740968926" lon="11.865114642223423"><ele>378.0</ele><time>2026-04-27T13:32:17.002Z</time></trkpt><trkpt lat="42.745946209256836" lon="11.865662261234068"><ele>378.0</ele><time>2026-04-27T13:33:28.001Z</time></trkpt><trkpt lat="42.745924876604" lon="11.86574338065106"><ele>378.0</ele><time>2026-04-27T13:33:41.001Z</time></trkpt><trkpt lat="42.745859215484245" lon="11.865788227469654"><ele>378.0</ele><time>2026-04-27T13:33:53.016Z</time></trkpt><trkpt lat="42.74590806095917" lon="11.86541841580941"><ele>378.0</ele><time>2026-04-27T13:38:18.002Z</time></trkpt><trkpt lat="42.7458297585011" lon="11.86542804068193"><ele>378.0</ele><time>2026-04-27T13:41:50.001Z</time></trkpt><trkpt lat="42.74577250181253" lon="11.865479641340515"><ele>378.0</ele><time>2026-04-27T13:41:51.001Z</time></trkpt><trkpt lat="42.74568736814063" lon="11.865572101958481"><ele>378.0</ele><time>2026-04-27T13:41:53.001Z</time></trkpt><trkpt lat="42.74560612031315" lon="11.865657096891903"><ele>378.0</ele><time>2026-04-27T13:41:55.001Z</time></trkpt><trkpt lat="42.745535065184896" lon="11.865747043659157"><ele>378.0</ele><time>2026-04-27T13:41:57.001Z</time></trkpt><trkpt lat="42.74544898797105" lon="11.865792306068982"><ele>378.0</ele><time>2026-04-27T13:41:59.001Z</time></trkpt><trkpt lat="42.745372341062314" lon="11.865873248659518"><ele>378.0</ele><time>2026-04-27T13:42:01.001Z</time></trkpt><trkpt lat="42.745274844636604" lon="11.865888782949822"><ele>378.0</ele><time>2026-04-27T13:42:03.001Z</time></trkpt><trkpt lat="42.745216119235266" lon="11.865926755461363"><ele>378.0</ele><time>2026-04-27T13:42:05.001Z</time></trkpt><trkpt lat="42.74516284498189" lon="11.865984996377032"><ele>378.0</ele><time>2026-04-27T13:42:08.001Z</time></trkpt><trkpt lat="42.744781623200375" lon="11.866318177849168"><ele>378.8333333333333</ele><time>2026-04-27T13:51:18.001Z</time></trkpt><trkpt lat="42.74467991811417" lon="11.866345478693166"><ele>379.6666666666667</ele><time>2026-04-27T13:51:20.001Z</time></trkpt><trkpt lat="42.74461032444134" lon="11.866375772803606"><ele>380.5</ele><time>2026-04-27T13:51:21.001Z</time></trkpt><trkpt lat="42.74455050971652" lon="11.866408359915411"><ele>381.33333333333337</ele><time>2026-04-27T13:51:22.001Z</time></trkpt><trkpt lat="42.74448669671973" lon="11.866448602813751"><ele>382.1666666666667</ele><time>2026-04-27T13:51:24.001Z</time></trkpt><trkpt lat="42.74442531103625" lon="11.866506246183285"><ele>383.0</ele><time>2026-04-27T13:51:26Z</time></trkpt><trkpt lat="42.74434435446035" lon="11.86656238691267"><ele>383.2</ele><time>2026-04-27T13:51:28Z</time></trkpt><trkpt lat="42.744251188928594" lon="11.866627733856415"><ele>383.4</ele><time>2026-04-27T13:51:30Z</time></trkpt><trkpt lat="42.74418245458345" lon="11.866686004221151"><ele>383.59999999999997</ele><time>2026-04-27T13:51:32Z</time></trkpt><trkpt lat="42.744090757332295" lon="11.866739117927768"><ele>383.79999999999995</ele><time>2026-04-27T13:51:34Z</time></trkpt><trkpt lat="42.74401252838141" lon="11.866776228566625"><ele>384.0</ele><time>2026-04-27T13:51:36Z</time></trkpt><trkpt lat="42.74391394789225" lon="11.866816858284617"><ele>385.2</ele><time>2026-04-27T13:52:06.001Z</time></trkpt><trkpt lat="42.743805792292385" lon="11.866836069193686"><ele>386.4</ele><time>2026-04-27T13:52:08.001Z</time></trkpt><trkpt lat="42.743687513926005" lon="11.866880547847325"><ele>387.6</ele><time>2026-04-27T13:52:10.001Z</time></trkpt><trkpt lat="42.74358415479317" lon="11.86693484999421"><ele>388.8</ele><time>2026-04-27T13:52:12.001Z</time></trkpt><trkpt lat="42.74352396209852" lon="11.8669673353683"><ele>390.0</ele><time>2026-04-27T13:52:13.001Z</time></trkpt><trkpt lat="42.74343482025332" lon="11.867043502198136"><ele>390.0</ele><time>2026-04-27T13:52:15.001Z</time></trkpt><trkpt lat="42.743342387718954" lon="11.867070218272472"><ele>390.0</ele><time>2026-04-27T13:52:17.001Z</time></trkpt><trkpt lat="42.742800163357664" lon="11.867604292096468"><ele>389.5</ele><time>2026-04-27T13:53:19.001Z</time></trkpt><trkpt lat="42.74273077931517" lon="11.867801753373527"><ele>389.0</ele><time>2026-04-27T13:56:03.001Z</time></trkpt><trkpt lat="42.742656900227615" lon="11.867916218431368"><ele>388.5</ele><time>2026-04-27T13:56:05.001Z</time></trkpt><trkpt lat="42.74261755650616" lon="11.868047501293796"><ele>388.0</ele><time>2026-04-27T13:56:10.001Z</time></trkpt><trkpt lat="42.74262256538254" lon="11.86816878758652"><ele>388.0</ele><time>2026-04-27T13:56:12.001Z</time></trkpt><trkpt lat="42.74262417571027" lon="11.868296529482489"><ele>388.0</ele><time>2026-04-27T13:56:14.001Z</time></trkpt><trkpt lat="42.742625562025516" lon="11.868414671871323"><ele>388.0</ele><time>2026-04-27T13:56:16.001Z</time></trkpt><trkpt lat="42.742767231825596" lon="11.869747112543006"><ele>388.50000000000006</ele><time>2026-04-27T14:04:24Z</time></trkpt><trkpt lat="42.74278128589763" lon="11.869871955159542"><ele>389.0</ele><time>2026-04-27T14:04:26Z</time></trkpt><trkpt lat="42.74278406167025" lon="11.869982041402764"><ele>389.5</ele><time>2026-04-27T14:04:28Z</time></trkpt><trkpt lat="42.74276300225321" lon="11.87008359203669"><ele>390.0</ele><time>2026-04-27T14:04:31Z</time></trkpt><trkpt lat="42.74274988748572" lon="11.870178929092727"><ele>390.50000000000006</ele><time>2026-04-27T14:04:34Z</time></trkpt><trkpt lat="42.74275079705599" lon="11.870268441899402"><ele>391.0</ele><time>2026-04-27T14:04:36Z</time></trkpt><trkpt lat="42.7428222938997" lon="11.87032981890311"><ele>389.0</ele><time>2026-04-27T14:08:03.001Z</time></trkpt><trkpt lat="42.742818480179785" lon="11.87090952537853"><ele>387.0</ele><time>2026-04-27T14:09:18Z</time></trkpt><trkpt lat="42.743603031461866" lon="11.869655484864206"><ele>387.0</ele><time>2026-04-27T14:13:18Z</time></trkpt><trkpt lat="42.74368386165687" lon="11.869631163869533"><ele>387.0</ele><time>2026-04-27T14:13:19Z</time></trkpt><trkpt lat="42.743763436032594" lon="11.869606037459786"><ele>387.0</ele><time>2026-04-27T14:13:20Z</time></trkpt><trkpt lat="42.743840808449626" lon="11.86958070073613"><ele>387.0</ele><time>2026-04-27T14:13:21Z</time></trkpt><trkpt lat="42.74391619940411" lon="11.86955468346621"><ele>387.0</ele><time>2026-04-27T14:13:22Z</time></trkpt><trkpt lat="42.74399556570608" lon="11.869527294305378"><ele>387.0</ele><time>2026-04-27T14:13:23Z</time></trkpt><trkpt lat="42.744080039043894" lon="11.869498753593083"><ele>387.0</ele><time>2026-04-27T14:13:24Z</time></trkpt><trkpt lat="42.74417275206461" lon="11.869454832715464"><ele>387.0</ele><time>2026-04-27T14:13:25Z</time></trkpt><trkpt lat="42.744277323068864" lon="11.869426970357482"><ele>387.0</ele><time>2026-04-27T14:13:26Z</time></trkpt><trkpt lat="42.74438678789054" lon="11.869378219648427"><ele>387.0</ele><time>2026-04-27T14:13:27Z</time></trkpt><trkpt lat="42.7444980437358" lon="11.869326501284297"><ele>387.0</ele><time>2026-04-27T14:13:28Z</time></trkpt><trkpt lat="42.74459736903717" lon="11.869272781459756"><ele>388.6</ele><time>2026-04-27T14:13:29Z</time></trkpt><trkpt lat="42.74468899606103" lon="11.86920769994448"><ele>390.20000000000005</ele><time>2026-04-27T14:13:30Z</time></trkpt><trkpt lat="42.74476761123801" lon="11.869138996788504"><ele>391.8</ele><time>2026-04-27T14:13:31Z</time></trkpt><trkpt lat="42.74484045086084" lon="11.86906372880773"><ele>393.4</ele><time>2026-04-27T14:13:32Z</time></trkpt><trkpt lat="42.74489866841578" lon="11.868970602608224"><ele>395.0</ele><time>2026-04-27T14:13:33Z</time></trkpt><trkpt lat="42.744936804567395" lon="11.868872811811606"><ele>395.0</ele><time>2026-04-27T14:13:34Z</time></trkpt><trkpt lat="42.74495164804646" lon="11.868774698672722"><ele>395.0</ele><time>2026-04-27T14:13:35Z</time></trkpt><trkpt lat="42.74496205584393" lon="11.868684592904293"><ele>395.0</ele><time>2026-04-27T14:13:36Z</time></trkpt><trkpt lat="42.74495105403596" lon="11.868572068581592"><ele>395.0</ele><time>2026-04-27T14:13:38Z</time></trkpt><trkpt lat="42.74492321702046" lon="11.868482158517356"><ele>395.0</ele><time>2026-04-27T14:13:42Z</time></trkpt><trkpt lat="42.74489480434833" lon="11.868372118404633"><ele>395.0</ele><time>2026-04-27T14:13:45Z</time></trkpt><trkpt lat="42.74490815243551" lon="11.868287848200174"><ele>395.0</ele><time>2026-04-27T14:13:48Z</time></trkpt><trkpt lat="42.74497517164799" lon="11.86822179154415"><ele>395.0</ele><time>2026-04-27T14:14:13.001Z</time></trkpt><trkpt lat="42.744776933152465" lon="11.86855500506728"><ele>395.0</ele><time>2026-04-27T14:21:18Z</time></trkpt><trkpt lat="42.74470814527377" lon="11.868563427813934"><ele>395.0</ele><time>2026-04-27T14:21:25Z</time></trkpt><trkpt lat="42.74464357079466" lon="11.86856043794026"><ele>395.0</ele><time>2026-04-27T14:21:39Z</time></trkpt><trkpt lat="42.74457844401375" lon="11.868529844121362"><ele>395.0</ele><time>2026-04-27T14:21:46Z</time></trkpt><trkpt lat="42.74450828245837" lon="11.868539698677502"><ele>395.0</ele><time>2026-04-27T14:21:52.001Z</time></trkpt><trkpt lat="42.74442891314156" lon="11.8685430977501"><ele>395.0</ele><time>2026-04-27T14:22:06.001Z</time></trkpt><trkpt lat="42.74437258931693" lon="11.868490332107879"><ele>395.0</ele><time>2026-04-27T14:22:11.001Z</time></trkpt><trkpt lat="42.74431015281476" lon="11.868462939285047"><ele>395.0</ele><time>2026-04-27T14:22:17.001Z</time></trkpt><trkpt lat="42.744010651113086" lon="11.868373907520752"><ele>394.99999999999994</ele><time>2026-04-27T14:23:18Z</time></trkpt><trkpt lat="42.744073807853944" lon="11.86841506793711"><ele>395.0</ele><time>2026-04-27T14:23:42Z</time></trkpt><trkpt lat="42.744098203593474" lon="11.868498657693113"><ele>395.0</ele><time>2026-04-27T14:23:55.001Z</time></trkpt><trkpt lat="42.744166950841176" lon="11.868470484027076"><ele>395.0</ele><time>2026-04-27T14:24:03.001Z</time></trkpt><trkpt lat="42.74424054980389" lon="11.868457171168513"><ele>394.99999999999994</ele><time>2026-04-27T14:24:09.001Z</time></trkpt><trkpt lat="42.74430169956076" lon="11.868477894991763"><ele>395.0</ele><time>2026-04-27T14:24:14.001Z</time></trkpt><trkpt lat="42.7448982270685" lon="11.86863612432628"><ele>387.0</ele><time>2026-04-27T14:25:28.001Z</time></trkpt><trkpt lat="42.74410038076879" lon="11.869407690986264"><ele>387.0</ele><time>2026-04-27T14:29:18Z</time></trkpt><trkpt lat="42.74402348625073" lon="11.869433237714343"><ele>387.0</ele><time>2026-04-27T14:29:19Z</time></trkpt><trkpt lat="42.743936337611956" lon="11.869464377155095"><ele>387.0</ele><time>2026-04-27T14:29:21Z</time></trkpt><trkpt lat="42.74387558953835" lon="11.869504050671294"><ele>387.0</ele><time>2026-04-27T14:29:25Z</time></trkpt><trkpt lat="42.74380794197495" lon="11.869547001573517"><ele>387.0</ele><time>2026-04-27T14:29:29Z</time></trkpt><trkpt lat="42.74373024721842" lon="11.86955931949038"><ele>387.0</ele><time>2026-04-27T14:29:31Z</time></trkpt><trkpt lat="42.743648734246825" lon="11.869596356591831"><ele>387.8</ele><time>2026-04-27T14:29:33Z</time></trkpt><trkpt lat="42.74353934862782" lon="11.869605747286746"><ele>388.6</ele><time>2026-04-27T14:29:35Z</time></trkpt><trkpt lat="42.74342526355506" lon="11.86964977761031"><ele>389.40000000000003</ele><time>2026-04-27T14:29:37Z</time></trkpt><trkpt lat="42.74329932373121" lon="11.869638374667959"><ele>390.20000000000005</ele><time>2026-04-27T14:29:39Z</time></trkpt><trkpt lat="42.74323624267478" lon="11.869617372080842"><ele>391.0</ele><time>2026-04-27T14:29:40Z</time></trkpt><trkpt lat="42.743152206062675" lon="11.869578754767048"><ele>390.99999999999994</ele><time>2026-04-27T14:29:42Z</time></trkpt><trkpt lat="42.74307793813668" lon="11.869563357834714"><ele>391.0</ele><time>2026-04-27T14:29:44Z</time></trkpt><trkpt lat="42.7430448368914" lon="11.869662081952939"><ele>391.0</ele><time>2026-04-27T14:29:45Z</time></trkpt><trkpt lat="42.743030008934106" lon="11.869752951612945"><ele>391.0</ele><time>2026-04-27T14:29:46Z</time></trkpt><trkpt lat="42.74300266396991" lon="11.869837358477263"><ele>391.0</ele><time>2026-04-27T14:29:47Z</time></trkpt><trkpt lat="42.74298957302784" lon="11.869933548400416"><ele>390.99999999999994</ele><time>2026-04-27T14:29:48Z</time></trkpt><trkpt lat="42.74297742378287" lon="11.87001894850398"><ele>391.0</ele><time>2026-04-27T14:29:49Z</time></trkpt><trkpt lat="42.742963386802884" lon="11.870102864281353"><ele>390.6666666666667</ele><time>2026-04-27T14:29:50Z</time></trkpt><trkpt lat="42.742940209217544" lon="11.870241837080309"><ele>390.33333333333337</ele><time>2026-04-27T14:29:52Z</time></trkpt><trkpt lat="42.74291211398353" lon="11.870347402543663"><ele>390.0</ele><time>2026-04-27T14:29:54Z</time></trkpt><trkpt lat="42.7428437320634" lon="11.8703821637371"><ele>389.66666666666663</ele><time>2026-04-27T14:29:57Z</time></trkpt><trkpt lat="42.74276085311182" lon="11.870311442827386"><ele>389.3333333333333</ele><time>2026-04-27T14:30:00Z</time></trkpt><trkpt lat="42.742695158681975" lon="11.870329861197034"><ele>389.0</ele><time>2026-04-27T14:30:03Z</time></trkpt><trkpt lat="42.74263666113037" lon="11.87041050613702"><ele>389.0</ele><time>2026-04-27T14:30:07Z</time></trkpt><trkpt lat="42.74259818003702" lon="11.870585639542018"><ele>389.0</ele><time>2026-04-27T14:30:09Z</time></trkpt><trkpt lat="42.7425807098771" lon="11.870696237997945"><ele>389.0</ele><time>2026-04-27T14:30:10Z</time></trkpt><trkpt lat="42.742540748726995" lon="11.87080795662514"><ele>389.0</ele><time>2026-04-27T14:30:11Z</time></trkpt><trkpt lat="42.74249046663861" lon="11.870935926576513"><ele>389.0</ele><time>2026-04-27T14:30:12Z</time></trkpt><trkpt lat="42.742434038567986" lon="11.871066855350776"><ele>388.25</ele><time>2026-04-27T14:30:13Z</time></trkpt><trkpt lat="42.74237955675258" lon="11.871208142135366"><ele>387.5</ele><time>2026-04-27T14:30:14Z</time></trkpt><trkpt lat="42.742320444270334" lon="11.871340316841614"><ele>386.75</ele><time>2026-04-27T14:30:15Z</time></trkpt><trkpt lat="42.74226220575057" lon="11.871469712236882"><ele>386.0</ele><time>2026-04-27T14:30:16Z</time></trkpt><trkpt lat="42.742200808845915" lon="11.871595710294773"><ele>387.0</ele><time>2026-04-27T14:30:17Z</time></trkpt><trkpt lat="42.742116596348" lon="11.871893511097385"><ele>388.0</ele><time>2026-04-27T14:31:19.001Z</time></trkpt><trkpt lat="42.74210323964748" lon="11.872030429867015"><ele>389.0</ele><time>2026-04-27T14:31:24Z</time></trkpt><trkpt lat="42.74206800890723" lon="11.872145616029472"><ele>390.0</ele><time>2026-04-27T14:31:25Z</time></trkpt><trkpt lat="42.742050231617476" lon="11.872277987820354"><ele>390.0</ele><time>2026-04-27T14:31:26Z</time></trkpt><trkpt lat="42.742022699189775" lon="11.872429868418392"><ele>390.0</ele><time>2026-04-27T14:31:27Z</time></trkpt><trkpt lat="42.741993489051104" lon="11.872577796193214"><ele>390.0</ele><time>2026-04-27T14:31:28Z</time></trkpt><trkpt lat="42.74197093039366" lon="11.872732556354668"><ele>390.0</ele><time>2026-04-27T14:31:29Z</time></trkpt><trkpt lat="42.74194987003117" lon="11.872893320159616"><ele>389.75</ele><time>2026-04-27T14:31:30Z</time></trkpt><trkpt lat="42.74192623074426" lon="11.873057845867029"><ele>389.5</ele><time>2026-04-27T14:31:31Z</time></trkpt><trkpt lat="42.741899592653475" lon="11.87322775114269"><ele>389.25</ele><time>2026-04-27T14:31:32Z</time></trkpt><trkpt lat="42.7418656141766" lon="11.873414097558808"><ele>389.0</ele><time>2026-04-27T14:31:33Z</time></trkpt><trkpt lat="42.74183874701035" lon="11.873601798899784"><ele>390.0</ele><time>2026-04-27T14:31:34Z</time></trkpt><trkpt lat="42.74181042528366" lon="11.873788193002545"><ele>391.0</ele><time>2026-04-27T14:31:35Z</time></trkpt><trkpt lat="42.741777534562345" lon="11.87397920095663"><ele>392.0</ele><time>2026-04-27T14:31:36Z</time></trkpt><trkpt lat="42.74174404043973" lon="11.87417102699566"><ele>393.0</ele><time>2026-04-27T14:31:37Z</time></trkpt><trkpt lat="42.74171488245293" lon="11.874363802890345"><ele>395.25</ele><time>2026-04-27T14:31:38Z</time></trkpt><trkpt lat="42.74168952836086" lon="11.874554259373493"><ele>397.5</ele><time>2026-04-27T14:31:39Z</time></trkpt><trkpt lat="42.74166157112158" lon="11.874745624335796"><ele>399.75</ele><time>2026-04-27T14:31:40Z</time></trkpt><trkpt lat="42.74163107404654" lon="11.874934798017332"><ele>402.0</ele><time>2026-04-27T14:31:41Z</time></trkpt><trkpt lat="42.741605296629984" lon="11.875122258121936"><ele>402.5</ele><time>2026-04-27T14:31:42Z</time></trkpt><trkpt lat="42.74157793262937" lon="11.875302181907667"><ele>403.0</ele><time>2026-04-27T14:31:43Z</time></trkpt><trkpt lat="42.74154909590971" lon="11.875471985051115"><ele>403.5</ele><time>2026-04-27T14:31:44Z</time></trkpt><trkpt lat="42.74152303374574" lon="11.875646594997027"><ele>404.0</ele><time>2026-04-27T14:31:45Z</time></trkpt><trkpt lat="42.74149410550877" lon="11.875816749174207"><ele>404.0</ele><time>2026-04-27T14:31:46Z</time></trkpt><trkpt lat="42.74145721875544" lon="11.875967697314518"><ele>404.0</ele><time>2026-04-27T14:31:47Z</time></trkpt><trkpt lat="42.74143346764918" lon="11.876108602493552"><ele>404.0</ele><time>2026-04-27T14:31:48Z</time></trkpt><trkpt lat="42.741408155907685" lon="11.87626343578677"><ele>404.0</ele><time>2026-04-27T14:31:49Z</time></trkpt><trkpt lat="42.74138248480986" lon="11.876434798043311"><ele>404.0</ele><time>2026-04-27T14:31:50Z</time></trkpt><trkpt lat="42.741346896262854" lon="11.876616932157276"><ele>404.0</ele><time>2026-04-27T14:31:51Z</time></trkpt><trkpt lat="42.741317037457954" lon="11.876805690264858"><ele>404.0</ele><time>2026-04-27T14:31:52Z</time></trkpt><trkpt lat="42.74128736453744" lon="11.876998721484894"><ele>404.0</ele><time>2026-04-27T14:31:53Z</time></trkpt><trkpt lat="42.74125776167682" lon="11.877185156501836"><ele>404.75</ele><time>2026-04-27T14:31:54Z</time></trkpt><trkpt lat="42.741229659163956" lon="11.877368837531755"><ele>405.5</ele><time>2026-04-27T14:31:55Z</time></trkpt><trkpt lat="42.7412008056343" lon="11.877544633414086"><ele>406.25</ele><time>2026-04-27T14:31:56Z</time></trkpt><trkpt lat="42.741173444419466" lon="11.877705266863629"><ele>407.0</ele><time>2026-04-27T14:31:57Z</time></trkpt><trkpt lat="42.741153616113856" lon="11.877853874968029"><ele>407.20000000000005</ele><time>2026-04-27T14:31:58Z</time></trkpt><trkpt lat="42.741132078763194" lon="11.87799982030516"><ele>407.4</ele><time>2026-04-27T14:31:59Z</time></trkpt><trkpt lat="42.74110934376652" lon="11.878129123866543"><ele>407.6</ele><time>2026-04-27T14:32:00Z</time></trkpt><trkpt lat="42.74109671088306" lon="11.878243173798724"><ele>407.79999999999995</ele><time>2026-04-27T14:32:01Z</time></trkpt><trkpt lat="42.74107500175339" lon="11.878333607709955"><ele>408.0</ele><time>2026-04-27T14:32:02Z</time></trkpt><trkpt lat="42.74123240596469" lon="11.878549662476736"><ele>408.0</ele><time>2026-04-27T14:32:04Z</time></trkpt><trkpt lat="42.74131810769155" lon="11.878682359464193"><ele>408.0</ele><time>2026-04-27T14:32:05Z</time></trkpt><trkpt lat="42.741407554192065" lon="11.878838156239093"><ele>408.0</ele><time>2026-04-27T14:32:06Z</time></trkpt><trkpt lat="42.74149732500445" lon="11.878990873483243"><ele>408.0</ele><time>2026-04-27T14:32:07Z</time></trkpt><trkpt lat="42.741583127707514" lon="11.879143615708106"><ele>407.75</ele><time>2026-04-27T14:32:08Z</time></trkpt><trkpt lat="42.74165923927891" lon="11.879293076727565"><ele>407.5</ele><time>2026-04-27T14:32:09Z</time></trkpt><trkpt lat="42.74174269136471" lon="11.879426481704913"><ele>407.25</ele><time>2026-04-27T14:32:10Z</time></trkpt><trkpt lat="42.74180015295066" lon="11.87957086033367"><ele>407.0</ele><time>2026-04-27T14:32:11Z</time></trkpt><trkpt lat="42.74184613854598" lon="11.879728474633161"><ele>407.0</ele><time>2026-04-27T14:32:12Z</time></trkpt><trkpt lat="42.74187257983258" lon="11.879904703092414"><ele>407.0</ele><time>2026-04-27T14:32:13Z</time></trkpt><trkpt lat="42.741873421511656" lon="11.880095046472936"><ele>407.0</ele><time>2026-04-27T14:32:14Z</time></trkpt><trkpt lat="42.74185369802468" lon="11.880305337463035"><ele>407.0</ele><time>2026-04-27T14:32:15Z</time></trkpt><trkpt lat="42.74182156248273" lon="11.880536871521594"><ele>407.0</ele><time>2026-04-27T14:32:16Z</time></trkpt><trkpt lat="42.74178234807188" lon="11.880787843228214"><ele>407.0</ele><time>2026-04-27T14:32:17Z</time></trkpt><trkpt lat="42.7402801539658" lon="11.895798075168557"><ele>418.0</ele><time>2026-04-27T14:33:18.001Z</time></trkpt><trkpt lat="42.74036097341194" lon="11.896091348403488"><ele>429.0</ele><time>2026-04-27T14:33:19.001Z</time></trkpt><trkpt lat="42.74043917966184" lon="11.896374902149313"><ele>429.0</ele><time>2026-04-27T14:33:20.001Z</time></trkpt><trkpt lat="42.740523658485905" lon="11.896648582590565"><ele>429.0</ele><time>2026-04-27T14:33:21.001Z</time></trkpt><trkpt lat="42.740588214052984" lon="11.8969268431073"><ele>429.0</ele><time>2026-04-27T14:33:22.001Z</time></trkpt><trkpt lat="42.74066220399197" lon="11.897186760890081"><ele>429.0</ele><time>2026-04-27T14:33:23.001Z</time></trkpt><trkpt lat="42.74074089723863" lon="11.89742409656733"><ele>429.0</ele><time>2026-04-27T14:33:24.001Z</time></trkpt><trkpt lat="42.74080627652938" lon="11.897659771791925"><ele>429.0</ele><time>2026-04-27T14:33:25.001Z</time></trkpt><trkpt lat="42.740876474352014" lon="11.89789671829213"><ele>428.66666666666663</ele><time>2026-04-27T14:33:26Z</time></trkpt><trkpt lat="42.740950960195505" lon="11.898145588754348"><ele>428.3333333333333</ele><time>2026-04-27T14:33:27Z</time></trkpt><trkpt lat="42.74102270867058" lon="11.89839631874418"><ele>428.0</ele><time>2026-04-27T14:33:28Z</time></trkpt><trkpt lat="42.74109213534157" lon="11.898635422226752"><ele>427.0</ele><time>2026-04-27T14:33:29Z</time></trkpt><trkpt lat="42.74116135383813" lon="11.898852331241933"><ele>426.0</ele><time>2026-04-27T14:33:30Z</time></trkpt><trkpt lat="42.74124755653962" lon="11.899061142548183"><ele>425.0</ele><time>2026-04-27T14:33:31Z</time></trkpt><trkpt lat="42.74135936639082" lon="11.89926927276561"><ele>425.0</ele><time>2026-04-27T14:33:32Z</time></trkpt><trkpt lat="42.74148918836674" lon="11.899483918400955"><ele>425.0</ele><time>2026-04-27T14:33:33Z</time></trkpt><trkpt lat="42.74162448570713" lon="11.899708878987038"><ele>425.0</ele><time>2026-04-27T14:33:34Z</time></trkpt><trkpt lat="42.74175783159014" lon="11.89992929446124"><ele>424.66666666666663</ele><time>2026-04-27T14:33:35Z</time></trkpt><trkpt lat="42.74188947169418" lon="11.900136981349991"><ele>424.33333333333337</ele><time>2026-04-27T14:33:36Z</time></trkpt><trkpt lat="42.74199783497202" lon="11.900358319666998"><ele>424.0</ele><time>2026-04-27T14:33:37Z</time></trkpt><trkpt lat="42.742112524325904" lon="11.900540604939822"><ele>424.0</ele><time>2026-04-27T14:33:38Z</time></trkpt><trkpt lat="42.74219490352223" lon="11.900729145885375"><ele>424.0</ele><time>2026-04-27T14:33:39Z</time></trkpt><trkpt lat="42.74223321336062" lon="11.900929998934688"><ele>424.0</ele><time>2026-04-27T14:33:40Z</time></trkpt><trkpt lat="42.74228396489165" lon="11.901114559695037"><ele>424.33333333333337</ele><time>2026-04-27T14:33:41Z</time></trkpt><trkpt lat="42.742294956210124" lon="11.901317583198027"><ele>424.66666666666663</ele><time>2026-04-27T14:33:42Z</time></trkpt><trkpt lat="42.74227738049297" lon="11.901524190064775"><ele>425.0</ele><time>2026-04-27T14:33:43Z</time></trkpt><trkpt lat="42.74224821001928" lon="11.901728724629308"><ele>424.3333333333333</ele><time>2026-04-27T14:33:44Z</time></trkpt><trkpt lat="42.74220925759446" lon="11.901928522200837"><ele>423.66666666666663</ele><time>2026-04-27T14:33:45Z</time></trkpt><trkpt lat="42.7421540762604" lon="11.902125007209886"><ele>423.0</ele><time>2026-04-27T14:33:46Z</time></trkpt><trkpt lat="42.7420816611503" lon="11.902318296899525"><ele>423.0</ele><time>2026-04-27T14:33:47Z</time></trkpt><trkpt lat="42.741993782991706" lon="11.902510701008694"><ele>423.0</ele><time>2026-04-27T14:33:48Z</time></trkpt><trkpt lat="42.74189133993903" lon="11.902708374213306"><ele>423.0</ele><time>2026-04-27T14:33:49Z</time></trkpt><trkpt lat="42.74177825298775" lon="11.902918725408233"><ele>424.33333333333337</ele><time>2026-04-27T14:33:50Z</time></trkpt><trkpt lat="42.74166251641103" lon="11.903136397866971"><ele>425.6666666666667</ele><time>2026-04-27T14:33:51Z</time></trkpt><trkpt lat="42.74154168670656" lon="11.90336223014217"><ele>427.0</ele><time>2026-04-27T14:33:52Z</time></trkpt><trkpt lat="42.741424528581135" lon="11.903588996397128"><ele>427.0</ele><time>2026-04-27T14:33:53Z</time></trkpt><trkpt lat="42.74132026294163" lon="11.903792717140577"><ele>427.0</ele><time>2026-04-27T14:33:54Z</time></trkpt><trkpt lat="42.741225627788694" lon="11.903977851985868"><ele>427.0</ele><time>2026-04-27T14:33:55Z</time></trkpt><trkpt lat="42.741138028688155" lon="11.904140476377911"><ele>427.25</ele><time>2026-04-27T14:33:56Z</time></trkpt><trkpt lat="42.74104487031341" lon="11.904276969496333"><ele>427.5</ele><time>2026-04-27T14:33:57Z</time></trkpt><trkpt lat="42.740933094827895" lon="11.90440266920399"><ele>427.75</ele><time>2026-04-27T14:33:58Z</time></trkpt><trkpt lat="42.74080721385936" lon="11.904522751859611"><ele>428.0</ele><time>2026-04-27T14:33:59Z</time></trkpt><trkpt lat="42.740670768653175" lon="11.904627642190205"><ele>428.0</ele><time>2026-04-27T14:34:00Z</time></trkpt><trkpt lat="42.740522704024976" lon="11.904710909469019"><ele>428.0</ele><time>2026-04-27T14:34:01Z</time></trkpt><trkpt lat="42.740365073835356" lon="11.904778835722741"><ele>428.0</ele><time>2026-04-27T14:34:02Z</time></trkpt><trkpt lat="42.740195922625176" lon="11.904831687622595"><ele>428.66666666666663</ele><time>2026-04-27T14:34:03Z</time></trkpt><trkpt lat="42.74001366960499" lon="11.90488663032787"><ele>429.33333333333337</ele><time>2026-04-27T14:34:04Z</time></trkpt><trkpt lat="42.73982366577331" lon="11.90494706320674"><ele>430.0</ele><time>2026-04-27T14:34:05Z</time></trkpt><trkpt lat="42.739633854416766" lon="11.90499542394782"><ele>430.0</ele><time>2026-04-27T14:34:06Z</time></trkpt><trkpt lat="42.73944191089803" lon="11.905079023537041"><ele>430.0</ele><time>2026-04-27T14:34:07Z</time></trkpt><trkpt lat="42.73927587869739" lon="11.905131563605446"><ele>430.0</ele><time>2026-04-27T14:34:08Z</time></trkpt><trkpt lat="42.739131527491644" lon="11.905178732179555"><ele>430.25</ele><time>2026-04-27T14:34:09Z</time></trkpt><trkpt lat="42.73898976052065" lon="11.905232503310557"><ele>430.5</ele><time>2026-04-27T14:34:10Z</time></trkpt><trkpt lat="42.738861417453315" lon="11.905299042515335"><ele>430.75</ele><time>2026-04-27T14:34:11Z</time></trkpt><trkpt lat="42.738758691226415" lon="11.905402360144302"><ele>431.0</ele><time>2026-04-27T14:34:12Z</time></trkpt><trkpt lat="42.73866799480818" lon="11.905546586443334"><ele>431.0</ele><time>2026-04-27T14:34:13Z</time></trkpt><trkpt lat="42.73858514583204" lon="11.905712006162734"><ele>431.0</ele><time>2026-04-27T14:34:14Z</time></trkpt><trkpt lat="42.7385038485473" lon="11.905921587043744"><ele>431.0</ele><time>2026-04-27T14:34:15Z</time></trkpt><trkpt lat="42.73842216478311" lon="11.906168387749295"><ele>427.0</ele><time>2026-04-27T14:34:16.001Z</time></trkpt><trkpt lat="42.73833320322599" lon="11.906403578647419"><ele>423.0</ele><time>2026-04-27T14:34:17.001Z</time></trkpt><trkpt lat="42.73646398628751" lon="11.918076152881808"><ele>427.5</ele><time>2026-04-27T14:35:18.001Z</time></trkpt><trkpt lat="42.736423656800916" lon="11.918306510842145"><ele>432.0</ele><time>2026-04-27T14:35:19.001Z</time></trkpt><trkpt lat="42.736384046157895" lon="11.91848957178788"><ele>436.5</ele><time>2026-04-27T14:35:20.001Z</time></trkpt><trkpt lat="42.73633845674447" lon="11.918649928605172"><ele>441.0</ele><time>2026-04-27T14:35:21.001Z</time></trkpt><trkpt lat="42.73628775812734" lon="11.918790371826406"><ele>441.0</ele><time>2026-04-27T14:35:22.001Z</time></trkpt><trkpt lat="42.73619046606457" lon="11.918904033971685"><ele>441.0</ele><time>2026-04-27T14:35:23.001Z</time></trkpt><trkpt lat="42.73609270908075" lon="11.919031421969962"><ele>441.0</ele><time>2026-04-27T14:35:24.001Z</time></trkpt><trkpt lat="42.73600329841559" lon="11.91915121349638"><ele>441.0</ele><time>2026-04-27T14:35:25.001Z</time></trkpt><trkpt lat="42.73589774711677" lon="11.919226882410122"><ele>447.6</ele><time>2026-04-27T14:35:26.001Z</time></trkpt><trkpt lat="42.7357801942481" lon="11.919265154730226"><ele>454.20000000000005</ele><time>2026-04-27T14:35:27.001Z</time></trkpt><trkpt lat="42.7356602860064" lon="11.919323619849864"><ele>460.79999999999995</ele><time>2026-04-27T14:35:28.001Z</time></trkpt><trkpt lat="42.73555946794614" lon="11.919369672232769"><ele>467.4</ele><time>2026-04-27T14:35:29.001Z</time></trkpt><trkpt lat="42.73549077566511" lon="11.919452494389509"><ele>474.0</ele><time>2026-04-27T14:35:30.001Z</time></trkpt><trkpt lat="42.735459767390296" lon="11.919586112698848"><ele>474.0</ele><time>2026-04-27T14:35:31.001Z</time></trkpt><trkpt lat="42.73544664771995" lon="11.919735959329898"><ele>474.0</ele><time>2026-04-27T14:35:32Z</time></trkpt><trkpt lat="42.735501386911864" lon="11.91988763352717"><ele>474.0</ele><time>2026-04-27T14:35:33Z</time></trkpt><trkpt lat="42.735612358319784" lon="11.920009245331523"><ele>474.0</ele><time>2026-04-27T14:35:34Z</time></trkpt><trkpt lat="42.73571850745533" lon="11.92012768733169"><ele>474.0</ele><time>2026-04-27T14:35:35Z</time></trkpt><trkpt lat="42.73581826253237" lon="11.920274506965804"><ele>474.0</ele><time>2026-04-27T14:35:36Z</time></trkpt><trkpt lat="42.73587837571119" lon="11.920390040377866"><ele>474.0</ele><time>2026-04-27T14:35:37Z</time></trkpt><trkpt lat="42.73591336831527" lon="11.920508332200923"><ele>474.0</ele><time>2026-04-27T14:35:38Z</time></trkpt><trkpt lat="42.73589375843979" lon="11.920661343356677"><ele>474.0</ele><time>2026-04-27T14:35:39Z</time></trkpt><trkpt lat="42.735839712461306" lon="11.920798543496586"><ele>474.0</ele><time>2026-04-27T14:35:40Z</time></trkpt><trkpt lat="42.735753558334636" lon="11.92093261979068"><ele>474.0</ele><time>2026-04-27T14:35:41Z</time></trkpt><trkpt lat="42.73562866142403" lon="11.921050412639996"><ele>474.0</ele><time>2026-04-27T14:35:42Z</time></trkpt><trkpt lat="42.735500905292426" lon="11.92121716692686"><ele>478.33333333333337</ele><time>2026-04-27T14:35:43Z</time></trkpt><trkpt lat="42.735351507973604" lon="11.92138233036196"><ele>482.6666666666667</ele><time>2026-04-27T14:35:44Z</time></trkpt><trkpt lat="42.73519628568447" lon="11.921567092776959"><ele>487.0</ele><time>2026-04-27T14:35:45Z</time></trkpt><trkpt lat="42.73503983956677" lon="11.921743499726263"><ele>478.0</ele><time>2026-04-27T14:35:46Z</time></trkpt><trkpt lat="42.734905987306" lon="11.92191397683052"><ele>469.0</ele><time>2026-04-27T14:35:47Z</time></trkpt><trkpt lat="42.73477618794947" lon="11.92207736039639"><ele>460.0</ele><time>2026-04-27T14:35:48Z</time></trkpt><trkpt lat="42.73465953732917" lon="11.9222378109722"><ele>460.0</ele><time>2026-04-27T14:35:49Z</time></trkpt><trkpt lat="42.73457693301109" lon="11.922438189782069"><ele>460.0</ele><time>2026-04-27T14:35:50Z</time></trkpt><trkpt lat="42.73452361569803" lon="11.92264911003939"><ele>460.0</ele><time>2026-04-27T14:35:51Z</time></trkpt><trkpt lat="42.73450463210073" lon="11.922889564492486"><ele>454.33333333333337</ele><time>2026-04-27T14:35:52Z</time></trkpt><trkpt lat="42.73446791357349" lon="11.923144562840308"><ele>448.66666666666663</ele><time>2026-04-27T14:35:53Z</time></trkpt><trkpt lat="42.73447225156867" lon="11.923400166188417"><ele>443.0</ele><time>2026-04-27T14:35:54Z</time></trkpt><trkpt lat="42.73443688019343" lon="11.923617920076554"><ele>445.0</ele><time>2026-04-27T14:35:55Z</time></trkpt><trkpt lat="42.73439688679881" lon="11.92382090904251"><ele>447.0</ele><time>2026-04-27T14:35:56Z</time></trkpt><trkpt lat="42.73433207102009" lon="11.92403215220094"><ele>449.0</ele><time>2026-04-27T14:35:57Z</time></trkpt><trkpt lat="42.7342657271935" lon="11.924259908735797"><ele>449.0</ele><time>2026-04-27T14:35:58Z</time></trkpt><trkpt lat="42.734172008407214" lon="11.92447741422917"><ele>449.0</ele><time>2026-04-27T14:35:59Z</time></trkpt><trkpt lat="42.734090967194184" lon="11.924683242853149"><ele>449.0</ele><time>2026-04-27T14:36:00Z</time></trkpt><trkpt lat="42.733989846926505" lon="11.924880004616348"><ele>440.3333333333333</ele><time>2026-04-27T14:36:01Z</time></trkpt><trkpt lat="42.733867876143144" lon="11.925077279524038"><ele>431.66666666666663</ele><time>2026-04-27T14:36:02Z</time></trkpt><trkpt lat="42.733740482372795" lon="11.925275712138003"><ele>423.0</ele><time>2026-04-27T14:36:03Z</time></trkpt><trkpt lat="42.73361954096089" lon="11.925453466464953"><ele>433.66666666666663</ele><time>2026-04-27T14:36:04Z</time></trkpt><trkpt lat="42.7335069410095" lon="11.925600751530679"><ele>444.3333333333333</ele><time>2026-04-27T14:36:05Z</time></trkpt><trkpt lat="42.733385373776585" lon="11.925724496265278"><ele>455.0</ele><time>2026-04-27T14:36:06Z</time></trkpt><trkpt lat="42.73325579843507" lon="11.925824663396352"><ele>453.0</ele><time>2026-04-27T14:36:07Z</time></trkpt><trkpt lat="42.73311830653766" lon="11.9258975536703"><ele>451.0</ele><time>2026-04-27T14:36:08.001Z</time></trkpt><trkpt lat="42.732984416152554" lon="11.92592296720272"><ele>449.0</ele><time>2026-04-27T14:36:09.001Z</time></trkpt><trkpt lat="42.73283774384463" lon="11.925917644580364"><ele>447.0</ele><time>2026-04-27T14:36:10.001Z</time></trkpt><trkpt lat="42.73268817122853" lon="11.925901446723904"><ele>450.33333333333337</ele><time>2026-04-27T14:36:11.001Z</time></trkpt><trkpt lat="42.73252472644112" lon="11.92583836749632"><ele>453.6666666666667</ele><time>2026-04-27T14:36:12.001Z</time></trkpt><trkpt lat="42.73234846316996" lon="11.925768134959293"><ele>457.0</ele><time>2026-04-27T14:36:13.001Z</time></trkpt><trkpt lat="42.73216049593385" lon="11.925684269198086"><ele>457.0</ele><time>2026-04-27T14:36:14.001Z</time></trkpt><trkpt lat="42.73197057385446" lon="11.925586076451152"><ele>457.0</ele><time>2026-04-27T14:36:15.001Z</time></trkpt><trkpt lat="42.73176587407927" lon="11.925466916333285"><ele>457.0</ele><time>2026-04-27T14:36:16.001Z</time></trkpt><trkpt lat="42.73156540542781" lon="11.925338432661064"><ele>470.0</ele><time>2026-04-27T14:36:17.001Z</time></trkpt><trkpt lat="42.732575962580015" lon="11.936719104674658"><ele>471.0</ele><time>2026-04-27T14:37:18.001Z</time></trkpt><trkpt lat="42.73268990449971" lon="11.936935984461758"><ele>472.0</ele><time>2026-04-27T14:37:19.001Z</time></trkpt><trkpt lat="42.732799979112926" lon="11.93715284061253"><ele>473.0</ele><time>2026-04-27T14:37:20.001Z</time></trkpt><trkpt lat="42.732906422042475" lon="11.937371373104996"><ele>475.0</ele><time>2026-04-27T14:37:21.001Z</time></trkpt><trkpt lat="42.73301174278211" lon="11.93758469543117"><ele>477.0</ele><time>2026-04-27T14:37:22.001Z</time></trkpt><trkpt lat="42.73311863801106" lon="11.937798223537074"><ele>479.0</ele><time>2026-04-27T14:37:23.001Z</time></trkpt><trkpt lat="42.733224928331495" lon="11.938011659314581"><ele>479.0</ele><time>2026-04-27T14:37:24.001Z</time></trkpt><trkpt lat="42.73333187094017" lon="11.938225355309834"><ele>479.0</ele><time>2026-04-27T14:37:25.001Z</time></trkpt><trkpt lat="42.733438000864574" lon="11.938440952522111"><ele>479.0</ele><time>2026-04-27T14:37:26.001Z</time></trkpt><trkpt lat="42.733546181652756" lon="11.93865663239979"><ele>481.3333333333333</ele><time>2026-04-27T14:37:27.001Z</time></trkpt><trkpt lat="42.733654269785795" lon="11.938874176535048"><ele>483.66666666666663</ele><time>2026-04-27T14:37:28.001Z</time></trkpt><trkpt lat="42.73375963165501" lon="11.939095874677443"><ele>486.0</ele><time>2026-04-27T14:37:29.001Z</time></trkpt><trkpt lat="42.73386650962015" lon="11.939321133769354"><ele>487.33333333333337</ele><time>2026-04-27T14:37:30.001Z</time></trkpt><trkpt lat="42.733976982028175" lon="11.939543376707855"><ele>488.6666666666667</ele><time>2026-04-27T14:37:31.001Z</time></trkpt><trkpt lat="42.73408634747349" lon="11.93977451557188"><ele>490.0</ele><time>2026-04-27T14:37:32.001Z</time></trkpt><trkpt lat="42.73419049753992" lon="11.940006862595581"><ele>491.6666666666667</ele><time>2026-04-27T14:37:33.001Z</time></trkpt><trkpt lat="42.73427593403204" lon="11.940248773757855"><ele>493.33333333333337</ele><time>2026-04-27T14:37:34.001Z</time></trkpt><trkpt lat="42.7343715097395" lon="11.940465797033987"><ele>495.0</ele><time>2026-04-27T14:37:35.001Z</time></trkpt><trkpt lat="42.73446672933443" lon="11.940656263223545"><ele>495.0</ele><time>2026-04-27T14:37:36.001Z</time></trkpt><trkpt lat="42.734588609710805" lon="11.940797002025644"><ele>495.0</ele><time>2026-04-27T14:37:37.001Z</time></trkpt><trkpt lat="42.734672896664776" lon="11.940968514570715"><ele>495.0</ele><time>2026-04-27T14:37:38.001Z</time></trkpt><trkpt lat="42.73476852910678" lon="11.941130779903878"><ele>496.0</ele><time>2026-04-27T14:37:39.001Z</time></trkpt><trkpt lat="42.734848540804215" lon="11.941324981105202"><ele>497.0</ele><time>2026-04-27T14:37:40.001Z</time></trkpt><trkpt lat="42.73492235685877" lon="11.941526214403272"><ele>498.0</ele><time>2026-04-27T14:37:41.001Z</time></trkpt><trkpt lat="42.734968507901016" lon="11.941750495804472"><ele>498.66666666666663</ele><time>2026-04-27T14:37:42.001Z</time></trkpt><trkpt lat="42.7350219351172" lon="11.941967964490775"><ele>499.3333333333333</ele><time>2026-04-27T14:37:43.001Z</time></trkpt><trkpt lat="42.735076544127615" lon="11.942207615467595"><ele>500.0</ele><time>2026-04-27T14:37:44.001Z</time></trkpt><trkpt lat="42.735142763222015" lon="11.942451198623267"><ele>500.66666666666663</ele><time>2026-04-27T14:37:45.001Z</time></trkpt><trkpt lat="42.735195573344896" lon="11.942712861902349"><ele>501.33333333333337</ele><time>2026-04-27T14:37:46.001Z</time></trkpt><trkpt lat="42.73524429018913" lon="11.942979609035811"><ele>502.0</ele><time>2026-04-27T14:37:47.001Z</time></trkpt><trkpt lat="42.735294758086766" lon="11.943256716009303"><ele>503.0</ele><time>2026-04-27T14:37:48.001Z</time></trkpt><trkpt lat="42.73534990453841" lon="11.943528148559556"><ele>504.0</ele><time>2026-04-27T14:37:49.001Z</time></trkpt><trkpt lat="42.73539004582482" lon="11.943815479893367"><ele>505.0</ele><time>2026-04-27T14:37:50.001Z</time></trkpt><trkpt lat="42.735445454666674" lon="11.944098034611654"><ele>505.33333333333337</ele><time>2026-04-27T14:37:51.001Z</time></trkpt><trkpt lat="42.73551195157322" lon="11.944384854803285"><ele>505.66666666666663</ele><time>2026-04-27T14:37:52.001Z</time></trkpt><trkpt lat="42.735568579680894" lon="11.944678479767413"><ele>506.0</ele><time>2026-04-27T14:37:53.001Z</time></trkpt><trkpt lat="42.73562622762813" lon="11.944974648754682"><ele>506.0</ele><time>2026-04-27T14:37:54.001Z</time></trkpt><trkpt lat="42.73568421661422" lon="11.945274857732606"><ele>506.0</ele><time>2026-04-27T14:37:55.001Z</time></trkpt><trkpt lat="42.73574485481888" lon="11.945580293761893"><ele>507.0</ele><time>2026-04-27T14:37:56.001Z</time></trkpt><trkpt lat="42.7358091508541" lon="11.945889876090012"><ele>508.0</ele><time>2026-04-27T14:37:57.001Z</time></trkpt><trkpt lat="42.73586693528805" lon="11.94619762504665"><ele>508.0</ele><time>2026-04-27T14:37:58.001Z</time></trkpt><trkpt lat="42.735926110890105" lon="11.946504488254202"><ele>508.0</ele><time>2026-04-27T14:37:59.001Z</time></trkpt><trkpt lat="42.73599097298109" lon="11.94681991473878"><ele>508.6666666666667</ele><time>2026-04-27T14:38:00.001Z</time></trkpt><trkpt lat="42.73605470073188" lon="11.947123040289393"><ele>509.33333333333337</ele><time>2026-04-27T14:38:01.001Z</time></trkpt><trkpt lat="42.73610821775729" lon="11.947395421405497"><ele>510.0</ele><time>2026-04-27T14:38:02.001Z</time></trkpt><trkpt lat="42.73615589435386" lon="11.947654555779094"><ele>511.33333333333337</ele><time>2026-04-27T14:38:03.001Z</time></trkpt><trkpt lat="42.73620185734313" lon="11.947926095678277"><ele>512.6666666666667</ele><time>2026-04-27T14:38:04.001Z</time></trkpt><trkpt lat="42.736255066925715" lon="11.948186104174956"><ele>514.0</ele><time>2026-04-27T14:38:05.001Z</time></trkpt><trkpt lat="42.73630566223371" lon="11.94842537811917"><ele>516.0</ele><time>2026-04-27T14:38:06.001Z</time></trkpt><trkpt lat="42.736355569517805" lon="11.948652994991434"><ele>518.0</ele><time>2026-04-27T14:38:07.001Z</time></trkpt><trkpt lat="42.736397271313606" lon="11.948884551188348"><ele>520.0</ele><time>2026-04-27T14:38:08.001Z</time></trkpt><trkpt lat="42.7364388622897" lon="11.949113861207387"><ele>520.6666666666667</ele><time>2026-04-27T14:38:09.001Z</time></trkpt><trkpt lat="42.736479601423405" lon="11.949328562067592"><ele>521.3333333333334</ele><time>2026-04-27T14:38:10.001Z</time></trkpt><trkpt lat="42.736526913700736" lon="11.949547747024132"><ele>522.0</ele><time>2026-04-27T14:38:11.001Z</time></trkpt><trkpt lat="42.73659031363753" lon="11.949747440069828"><ele>522.0</ele><time>2026-04-27T14:38:12.001Z</time></trkpt><trkpt lat="42.736665444774374" lon="11.949944578499448"><ele>522.0</ele><time>2026-04-27T14:38:13.001Z</time></trkpt><trkpt lat="42.736758196802555" lon="11.950136211445068"><ele>522.0</ele><time>2026-04-27T14:38:14.001Z</time></trkpt><trkpt lat="42.73687132944496" lon="11.950330380523456"><ele>523.3333333333334</ele><time>2026-04-27T14:38:15.001Z</time></trkpt><trkpt lat="42.73699162050604" lon="11.950523076834854"><ele>524.6666666666667</ele><time>2026-04-27T14:38:16.001Z</time></trkpt><trkpt lat="42.737115835650116" lon="11.950722135364327"><ele>526.0</ele><time>2026-04-27T14:38:17.001Z</time></trkpt><trkpt lat="42.74439941461147" lon="11.959906759800631"><ele>530.0</ele><time>2026-04-27T14:39:18.001Z</time></trkpt><trkpt lat="42.744600507717635" lon="11.959812401832759"><ele>534.0</ele><time>2026-04-27T14:39:19.001Z</time></trkpt><trkpt lat="42.74479387698644" lon="11.959714197802963"><ele>538.0</ele><time>2026-04-27T14:39:20.001Z</time></trkpt><trkpt lat="42.74497913229998" lon="11.959612087584862"><ele>538.0</ele><time>2026-04-27T14:39:21.001Z</time></trkpt><trkpt lat="42.74515483296608" lon="11.959526491814493"><ele>538.0</ele><time>2026-04-27T14:39:22.001Z</time></trkpt><trkpt lat="42.745314080876234" lon="11.95943435818543"><ele>538.0</ele><time>2026-04-27T14:39:23.001Z</time></trkpt><trkpt lat="42.74547578107728" lon="11.959358157795208"><ele>538.3333333333334</ele><time>2026-04-27T14:39:24.001Z</time></trkpt><trkpt lat="42.74564473886807" lon="11.959273893243825"><ele>538.6666666666666</ele><time>2026-04-27T14:39:25.001Z</time></trkpt><trkpt lat="42.745816025344055" lon="11.959180220271524"><ele>539.0</ele><time>2026-04-27T14:39:26.001Z</time></trkpt><trkpt lat="42.74599068779551" lon="11.959088140061564"><ele>537.6666666666666</ele><time>2026-04-27T14:39:27.001Z</time></trkpt><trkpt lat="42.746170077645615" lon="11.958977857522378"><ele>536.3333333333334</ele><time>2026-04-27T14:39:28.001Z</time></trkpt><trkpt lat="42.74635713685451" lon="11.958860690847509"><ele>535.0</ele><time>2026-04-27T14:39:29.001Z</time></trkpt><trkpt lat="42.7465513135156" lon="11.958769175862894"><ele>535.0</ele><time>2026-04-27T14:39:30.001Z</time></trkpt><trkpt lat="42.74672671454276" lon="11.958638279101331"><ele>535.0</ele><time>2026-04-27T14:39:31.001Z</time></trkpt><trkpt lat="42.746908493585714" lon="11.95854819276685"><ele>535.0</ele><time>2026-04-27T14:39:32.001Z</time></trkpt><trkpt lat="42.74707746435439" lon="11.958442558180836"><ele>534.0</ele><time>2026-04-27T14:39:33.001Z</time></trkpt><trkpt lat="42.7472423775589" lon="11.95833742952306"><ele>533.0</ele><time>2026-04-27T14:39:34.001Z</time></trkpt><trkpt lat="42.74740865296852" lon="11.95823143249481"><ele>532.0</ele><time>2026-04-27T14:39:35.001Z</time></trkpt><trkpt lat="42.747578908136525" lon="11.958122898454215"><ele>531.0</ele><time>2026-04-27T14:39:36.001Z</time></trkpt><trkpt lat="42.747759643605704" lon="11.958010094197615"><ele>530.0</ele><time>2026-04-27T14:39:37.001Z</time></trkpt><trkpt lat="42.747937928155444" lon="11.95789924280108"><ele>529.0</ele><time>2026-04-27T14:39:38.001Z</time></trkpt><trkpt lat="42.74810951421268" lon="11.957792588164445"><ele>529.0</ele><time>2026-04-27T14:39:39.001Z</time></trkpt><trkpt lat="42.748265299157595" lon="11.957695779315396"><ele>529.0</ele><time>2026-04-27T14:39:40.001Z</time></trkpt><trkpt lat="42.748414298387075" lon="11.957605843045409"><ele>529.0</ele><time>2026-04-27T14:39:41.001Z</time></trkpt><trkpt lat="42.74857527144017" lon="11.957520807872722"><ele>528.6666666666667</ele><time>2026-04-27T14:39:42.001Z</time></trkpt><trkpt lat="42.74873873169742" lon="11.957453802331447"><ele>528.3333333333334</ele><time>2026-04-27T14:39:43.001Z</time></trkpt><trkpt lat="42.74890658455223" lon="11.957406414002612"><ele>528.0</ele><time>2026-04-27T14:39:44.001Z</time></trkpt><trkpt lat="42.74907917579478" lon="11.95737706924194"><ele>528.0</ele><time>2026-04-27T14:39:45.001Z</time></trkpt><trkpt lat="42.749277515047254" lon="11.957349789356787"><ele>528.0</ele><time>2026-04-27T14:39:46.001Z</time></trkpt><trkpt lat="42.74948256168621" lon="11.957299773923912"><ele>528.0</ele><time>2026-04-27T14:39:47.001Z</time></trkpt><trkpt lat="42.74970031138487" lon="11.957291954727788"><ele>528.3333333333334</ele><time>2026-04-27T14:39:48.001Z</time></trkpt><trkpt lat="42.74991742334508" lon="11.957261817925836"><ele>528.6666666666667</ele><time>2026-04-27T14:39:49.001Z</time></trkpt><trkpt lat="42.750136092966486" lon="11.957231464907581"><ele>529.0</ele><time>2026-04-27T14:39:50.001Z</time></trkpt><trkpt lat="42.750349466632535" lon="11.957180659985594"><ele>530.6666666666667</ele><time>2026-04-27T14:39:51.001Z</time></trkpt><trkpt lat="42.75056047384443" lon="11.957156847142512"><ele>532.3333333333334</ele><time>2026-04-27T14:39:52.001Z</time></trkpt><trkpt lat="42.75076325807093" lon="11.957125715959863"><ele>534.0</ele><time>2026-04-27T14:39:53.001Z</time></trkpt><trkpt lat="42.75095975317912" lon="11.957103249565542"><ele>535.6666666666666</ele><time>2026-04-27T14:39:54.001Z</time></trkpt><trkpt lat="42.7511297608709" lon="11.95709700206287"><ele>537.3333333333333</ele><time>2026-04-27T14:39:55.001Z</time></trkpt><trkpt lat="42.75128274846254" lon="11.957073922332144"><ele>539.0</ele><time>2026-04-27T14:39:56.001Z</time></trkpt><trkpt lat="42.7514125638349" lon="11.957018051344427"><ele>539.0</ele><time>2026-04-27T14:39:57.001Z</time></trkpt><trkpt lat="42.751534543384345" lon="11.956965456543351"><ele>539.0</ele><time>2026-04-27T14:39:58.001Z</time></trkpt><trkpt lat="42.75165150115715" lon="11.956878770245533"><ele>539.0</ele><time>2026-04-27T14:39:59.001Z</time></trkpt><trkpt lat="42.751759485699296" lon="11.956746771061086"><ele>539.0</ele><time>2026-04-27T14:40:00.001Z</time></trkpt><trkpt lat="42.75185613641533" lon="11.95658317758527"><ele>539.6666666666666</ele><time>2026-04-27T14:40:01.001Z</time></trkpt><trkpt lat="42.751954894403646" lon="11.956383655989606"><ele>540.3333333333334</ele><time>2026-04-27T14:40:02.001Z</time></trkpt><trkpt lat="42.75204906886037" lon="11.956181301639758"><ele>541.0</ele><time>2026-04-27T14:40:03.001Z</time></trkpt><trkpt lat="42.75216528693078" lon="11.955975571132521"><ele>542.3333333333334</ele><time>2026-04-27T14:40:04.001Z</time></trkpt><trkpt lat="42.75227258203462" lon="11.95575758746207"><ele>543.6666666666666</ele><time>2026-04-27T14:40:05.001Z</time></trkpt><trkpt lat="42.7523798390924" lon="11.955539492195907"><ele>545.0</ele><time>2026-04-27T14:40:06Z</time></trkpt><trkpt lat="42.752487388798535" lon="11.955313230432667"><ele>545.0</ele><time>2026-04-27T14:40:07Z</time></trkpt><trkpt lat="42.7525951014209" lon="11.955086095576197"><ele>545.0</ele><time>2026-04-27T14:40:08Z</time></trkpt><trkpt lat="42.75269617989044" lon="11.954872823165534"><ele>545.0</ele><time>2026-04-27T14:40:09Z</time></trkpt><trkpt lat="42.75280391112234" lon="11.954645513598159"><ele>546.6666666666666</ele><time>2026-04-27T14:40:10Z</time></trkpt><trkpt lat="42.75291239088674" lon="11.954421899781824"><ele>548.3333333333334</ele><time>2026-04-27T14:40:11Z</time></trkpt><trkpt lat="42.753025461759755" lon="11.954190584507948"><ele>550.0</ele><time>2026-04-27T14:40:12Z</time></trkpt><trkpt lat="42.75314076808468" lon="11.953954696067076"><ele>551.3333333333334</ele><time>2026-04-27T14:40:13Z</time></trkpt><trkpt lat="42.7532547889027" lon="11.953721437456053"><ele>552.6666666666666</ele><time>2026-04-27T14:40:14Z</time></trkpt><trkpt lat="42.753367331044586" lon="11.953489822500371"><ele>554.0</ele><time>2026-04-27T14:40:15Z</time></trkpt><trkpt lat="42.75347465003158" lon="11.953268758887388"><ele>558.0</ele><time>2026-04-27T14:40:16Z</time></trkpt><trkpt lat="42.753574493441775" lon="11.95306299801329"><ele>562.0</ele><time>2026-04-27T14:40:17Z</time></trkpt><trkpt lat="42.75473396075486" lon="11.945149298219613"><ele>564.7142857142858</ele><time>2026-04-27T14:41:18.001Z</time></trkpt><trkpt lat="42.75470547949019" lon="11.945056071240089"><ele>567.4285714285714</ele><time>2026-04-27T14:41:19.001Z</time></trkpt><trkpt lat="42.75468435234742" lon="11.944966545574305"><ele>570.1428571428571</ele><time>2026-04-27T14:41:20.001Z</time></trkpt><trkpt lat="42.75467461969229" lon="11.94487630474917"><ele>572.8571428571429</ele><time>2026-04-27T14:41:21.001Z</time></trkpt><trkpt lat="42.75467299907859" lon="11.944776169093895"><ele>575.5714285714286</ele><time>2026-04-27T14:41:22.001Z</time></trkpt><trkpt lat="42.754667105315185" lon="11.944666504602443"><ele>578.2857142857143</ele><time>2026-04-27T14:41:23.001Z</time></trkpt><trkpt lat="42.75465891609357" lon="11.944564010937265"><ele>581.0</ele><time>2026-04-27T14:41:24.001Z</time></trkpt><trkpt lat="42.75464586716357" lon="11.9444684343978"><ele>582.4</ele><time>2026-04-27T14:41:25.001Z</time></trkpt><trkpt lat="42.75464668064543" lon="11.944378707545031"><ele>583.8</ele><time>2026-04-27T14:41:26.001Z</time></trkpt><trkpt lat="42.754664707247215" lon="11.94423578668523"><ele>585.1999999999999</ele><time>2026-04-27T14:41:28.001Z</time></trkpt><trkpt lat="42.75470142010723" lon="11.9440950774044"><ele>586.6</ele><time>2026-04-27T14:41:30.001Z</time></trkpt><trkpt lat="42.754751586808254" lon="11.9440023561669"><ele>588.0</ele><time>2026-04-27T14:41:32.001Z</time></trkpt><trkpt lat="42.754849115914276" lon="11.943887202292457"><ele>588.0</ele><time>2026-04-27T14:41:34.001Z</time></trkpt><trkpt lat="42.75490973542258" lon="11.943809974931703"><ele>588.0</ele><time>2026-04-27T14:41:35.001Z</time></trkpt><trkpt lat="42.75496887864529" lon="11.94373053999504"><ele>588.0</ele><time>2026-04-27T14:41:36.001Z</time></trkpt><trkpt lat="42.755025141718484" lon="11.943648656766099"><ele>588.0</ele><time>2026-04-27T14:41:37.001Z</time></trkpt><trkpt lat="42.75509483144757" lon="11.94358520310843"><ele>588.0</ele><time>2026-04-27T14:41:38.001Z</time></trkpt><trkpt lat="42.755144636023104" lon="11.943521011134962"><ele>588.0</ele><time>2026-04-27T14:41:39.001Z</time></trkpt><trkpt lat="42.75518203237342" lon="11.943444925720613"><ele>586.8</ele><time>2026-04-27T14:41:40.001Z</time></trkpt><trkpt lat="42.75527839082367" lon="11.943348617685423"><ele>585.5999999999999</ele><time>2026-04-27T14:41:42.001Z</time></trkpt><trkpt lat="42.75532119013309" lon="11.943229304182342"><ele>584.4000000000001</ele><time>2026-04-27T14:41:44.001Z</time></trkpt><trkpt lat="42.75535967866065" lon="11.943145568103278"><ele>583.2</ele><time>2026-04-27T14:41:46.001Z</time></trkpt><trkpt lat="42.755359206874374" lon="11.94303968502167"><ele>582.0</ele><time>2026-04-27T14:41:48.001Z</time></trkpt><trkpt lat="42.755321978991155" lon="11.942938549280646"><ele>582.0</ele><time>2026-04-27T14:41:50.001Z</time></trkpt><trkpt lat="42.75526520360682" lon="11.942872000710187"><ele>582.0</ele><time>2026-04-27T14:41:52.001Z</time></trkpt><trkpt lat="42.75524205972098" lon="11.942788495434032"><ele>582.0</ele><time>2026-04-27T14:41:53.001Z</time></trkpt><trkpt lat="42.755185445050245" lon="11.94268395652027"><ele>582.0</ele><time>2026-04-27T14:41:54.001Z</time></trkpt><trkpt lat="42.755120035472196" lon="11.942592004517799"><ele>582.0</ele><time>2026-04-27T14:41:55.001Z</time></trkpt><trkpt lat="42.75504759502889" lon="11.94249627136278"><ele>582.0</ele><time>2026-04-27T14:41:56.001Z</time></trkpt><trkpt lat="42.75496989831747" lon="11.942420092560813"><ele>581.5</ele><time>2026-04-27T14:41:57.001Z</time></trkpt><trkpt lat="42.75489871105294" lon="11.942364682688126"><ele>581.0</ele><time>2026-04-27T14:41:58.001Z</time></trkpt><trkpt lat="42.75483014839621" lon="11.942325175295371"><ele>580.5</ele><time>2026-04-27T14:41:59.001Z</time></trkpt><trkpt lat="42.75475699376414" lon="11.942305763597021"><ele>580.0</ele><time>2026-04-27T14:42:00.001Z</time></trkpt><trkpt lat="42.754627799768876" lon="11.942287038735918"><ele>579.5</ele><time>2026-04-27T14:42:02Z</time></trkpt><trkpt lat="42.75454437236201" lon="11.942281388554921"><ele>579.0</ele><time>2026-04-27T14:42:03Z</time></trkpt><trkpt lat="42.75445063148021" lon="11.94226983314356"><ele>578.8</ele><time>2026-04-27T14:42:04Z</time></trkpt><trkpt lat="42.75434627919871" lon="11.942235307198489"><ele>578.5999999999999</ele><time>2026-04-27T14:42:05Z</time></trkpt><trkpt lat="42.75424810175838" lon="11.94224047671336"><ele>578.4</ele><time>2026-04-27T14:42:06Z</time></trkpt><trkpt lat="42.754145047223275" lon="11.942213472487445"><ele>578.1999999999999</ele><time>2026-04-27T14:42:07Z</time></trkpt><trkpt lat="42.754043462910715" lon="11.942204730234772"><ele>578.0</ele><time>2026-04-27T14:42:08Z</time></trkpt><trkpt lat="42.75392703078093" lon="11.942197519674064"><ele>578.0</ele><time>2026-04-27T14:42:09Z</time></trkpt><trkpt lat="42.75381120166525" lon="11.942209639473742"><ele>578.0</ele><time>2026-04-27T14:42:10Z</time></trkpt><trkpt lat="42.75370149021105" lon="11.942193914173348"><ele>578.0</ele><time>2026-04-27T14:42:11Z</time></trkpt><trkpt lat="42.753594150084616" lon="11.94218728696205"><ele>578.0</ele><time>2026-04-27T14:42:12Z</time></trkpt><trkpt lat="42.753489042285146" lon="11.9421674877845"><ele>578.0</ele><time>2026-04-27T14:42:13Z</time></trkpt><trkpt lat="42.75338796309959" lon="11.94213626855833"><ele>577.75</ele><time>2026-04-27T14:42:14Z</time></trkpt><trkpt lat="42.75329447045584" lon="11.942089293715398"><ele>577.5</ele><time>2026-04-27T14:42:15Z</time></trkpt><trkpt lat="42.753187810323965" lon="11.942028295767102"><ele>577.25</ele><time>2026-04-27T14:42:16Z</time></trkpt><trkpt lat="42.75308638208566" lon="11.941958696617666"><ele>577.0</ele><time>2026-04-27T14:42:17Z</time></trkpt><trkpt lat="42.75073219157384" lon="11.940001943295151"><ele>573.0</ele><time>2026-04-27T14:43:18.001Z</time></trkpt><trkpt lat="42.75067246091956" lon="11.939939202256305"><ele>569.0</ele><time>2026-04-27T14:43:20.001Z</time></trkpt><trkpt lat="42.75060083361007" lon="11.939884700008779"><ele>565.0</ele><time>2026-04-27T14:43:22.001Z</time></trkpt><trkpt lat="42.75052902138853" lon="11.939829201858423"><ele>561.0</ele><time>2026-04-27T14:43:24.001Z</time></trkpt><trkpt lat="42.75045548334227" lon="11.939767689274294"><ele>557.0</ele><time>2026-04-27T14:43:26.001Z</time></trkpt><trkpt lat="42.75038590226244" lon="11.939704626626009"><ele>553.0</ele><time>2026-04-27T14:43:28.001Z</time></trkpt><trkpt lat="42.750333149568554" lon="11.939634465859243"><ele>553.0</ele><time>2026-04-27T14:43:30.001Z</time></trkpt><trkpt lat="42.750285458810986" lon="11.939543858973618"><ele>553.0</ele><time>2026-04-27T14:43:32.001Z</time></trkpt><trkpt lat="42.75024595692246" lon="11.939442542487816"><ele>553.0</ele><time>2026-04-27T14:43:34.001Z</time></trkpt><trkpt lat="42.750213037806105" lon="11.939334210711495"><ele>553.0</ele><time>2026-04-27T14:43:36.001Z</time></trkpt><trkpt lat="42.75018643251223" lon="11.939231040195786"><ele>553.0</ele><time>2026-04-27T14:43:38.001Z</time></trkpt><trkpt lat="42.75015635418913" lon="11.939115289751197"><ele>553.0</ele><time>2026-04-27T14:43:41.001Z</time></trkpt><trkpt lat="42.750125113378985" lon="11.939024801203093"><ele>552.1666666666667</ele><time>2026-04-27T14:43:43.001Z</time></trkpt><trkpt lat="42.75009613079625" lon="11.938933886682102"><ele>551.3333333333334</ele><time>2026-04-27T14:43:45.001Z</time></trkpt><trkpt lat="42.750068342966294" lon="11.938841175557172"><ele>550.5</ele><time>2026-04-27T14:43:47.001Z</time></trkpt><trkpt lat="42.750033194171266" lon="11.938722449887361"><ele>549.6666666666666</ele><time>2026-04-27T14:43:50.001Z</time></trkpt><trkpt lat="42.74999812389984" lon="11.938609922589883"><ele>548.8333333333333</ele><time>2026-04-27T14:43:52.001Z</time></trkpt><trkpt lat="42.7499719994551" lon="11.938520652770904"><ele>548.0</ele><time>2026-04-27T14:43:54.001Z</time></trkpt><trkpt lat="42.74993578735408" lon="11.93839286531136"><ele>546.3333333333333</ele><time>2026-04-27T14:43:56.001Z</time></trkpt><trkpt lat="42.74990499380585" lon="11.938285525414608"><ele>544.6666666666666</ele><time>2026-04-27T14:43:58.001Z</time></trkpt><trkpt lat="42.74987407156986" lon="11.938177736930832"><ele>543.0</ele><time>2026-04-27T14:44:00Z</time></trkpt><trkpt lat="42.74984084818549" lon="11.93807085542495"><ele>541.3333333333334</ele><time>2026-04-27T14:44:02Z</time></trkpt><trkpt lat="42.749820649497046" lon="11.937983167737586"><ele>539.6666666666667</ele><time>2026-04-27T14:44:04Z</time></trkpt><trkpt lat="42.749810035360554" lon="11.937883897409753"><ele>538.0</ele><time>2026-04-27T14:44:06Z</time></trkpt><trkpt lat="42.74980344160077" lon="11.937751091368966"><ele>538.0</ele><time>2026-04-27T14:44:08Z</time></trkpt><trkpt lat="42.74980199375195" lon="11.937614491941364"><ele>538.0</ele><time>2026-04-27T14:44:10Z</time></trkpt><trkpt lat="42.749805190443176" lon="11.937483076833558"><ele>538.0</ele><time>2026-04-27T14:44:12Z</time></trkpt><trkpt lat="42.74981054372095" lon="11.93737999191162"><ele>538.0</ele><time>2026-04-27T14:44:14Z</time></trkpt><trkpt lat="42.74980310837864" lon="11.937252061616757"><ele>538.0</ele><time>2026-04-27T14:44:16Z</time></trkpt><trkpt lat="42.74917330363416" lon="11.933351643958591"><ele>531.8333333333334</ele><time>2026-04-27T14:45:18.001Z</time></trkpt><trkpt lat="42.74910664576222" lon="11.933225252289535"><ele>525.6666666666667</ele><time>2026-04-27T14:45:20.001Z</time></trkpt><trkpt lat="42.74906276306584" lon="11.9331528050287"><ele>519.5</ele><time>2026-04-27T14:45:21.001Z</time></trkpt><trkpt lat="42.749009283646664" lon="11.93306823224128"><ele>513.3333333333334</ele><time>2026-04-27T14:45:22.001Z</time></trkpt><trkpt lat="42.74894009769778" lon="11.932987329833285"><ele>507.1666666666667</ele><time>2026-04-27T14:45:23.001Z</time></trkpt><trkpt lat="42.7488991848159" lon="11.9329124038437"><ele>501.0</ele><time>2026-04-27T14:45:24.001Z</time></trkpt><trkpt lat="42.74881214314584" lon="11.932793189329502"><ele>501.0</ele><time>2026-04-27T14:45:26.001Z</time></trkpt><trkpt lat="42.74873103034364" lon="11.932708782559475"><ele>501.0</ele><time>2026-04-27T14:45:28.001Z</time></trkpt><trkpt lat="42.74865642207175" lon="11.932612502627713"><ele>501.0</ele><time>2026-04-27T14:45:30.001Z</time></trkpt><trkpt lat="42.74853502040246" lon="11.932549813798618"><ele>501.0</ele><time>2026-04-27T14:45:32.001Z</time></trkpt><trkpt lat="42.748470031650996" lon="11.932506424846613"><ele>501.0</ele><time>2026-04-27T14:45:33.001Z</time></trkpt><trkpt lat="42.748409377482524" lon="11.932467141226418"><ele>500.0</ele><time>2026-04-27T14:45:34.001Z</time></trkpt><trkpt lat="42.748340261274635" lon="11.93244526147911"><ele>499.0</ele><time>2026-04-27T14:45:35.001Z</time></trkpt><trkpt lat="42.74828568318567" lon="11.93239862879466"><ele>498.0</ele><time>2026-04-27T14:45:36.001Z</time></trkpt><trkpt lat="42.74818167318378" lon="11.932330582145527"><ele>497.0</ele><time>2026-04-27T14:45:38.001Z</time></trkpt><trkpt lat="42.74808552133588" lon="11.932270585900131"><ele>496.0</ele><time>2026-04-27T14:45:40.001Z</time></trkpt><trkpt lat="42.74799497535404" lon="11.932200418994574"><ele>496.0</ele><time>2026-04-27T14:45:42.001Z</time></trkpt><trkpt lat="42.74792760534287" lon="11.932128456441264"><ele>496.0</ele><time>2026-04-27T14:45:44.001Z</time></trkpt><trkpt lat="42.74786461014964" lon="11.932044118192401"><ele>496.0</ele><time>2026-04-27T14:45:46.001Z</time></trkpt><trkpt lat="42.74779792820716" lon="11.931946519789312"><ele>496.0</ele><time>2026-04-27T14:45:48.001Z</time></trkpt><trkpt lat="42.74774053477748" lon="11.93184074193066"><ele>496.0</ele><time>2026-04-27T14:45:50.001Z</time></trkpt><trkpt lat="42.747679116025346" lon="11.931710023528705"><ele>494.4</ele><time>2026-04-27T14:45:52.001Z</time></trkpt><trkpt lat="42.747647095086265" lon="11.931632515900874"><ele>492.8</ele><time>2026-04-27T14:45:53.001Z</time></trkpt><trkpt lat="42.74759739160703" lon="11.931574066709898"><ele>491.19999999999993</ele><time>2026-04-27T14:45:54.001Z</time></trkpt><trkpt lat="42.74754035213093" lon="11.931433320529448"><ele>489.59999999999997</ele><time>2026-04-27T14:45:56.001Z</time></trkpt><trkpt lat="42.74746843491126" lon="11.931318147460882"><ele>488.0</ele><time>2026-04-27T14:45:58.001Z</time></trkpt><trkpt lat="42.747406072603525" lon="11.931172722071443"><ele>488.0</ele><time>2026-04-27T14:46:00.001Z</time></trkpt><trkpt lat="42.74735965927977" lon="11.931101289476606"><ele>487.99999999999994</ele><time>2026-04-27T14:46:01.001Z</time></trkpt><trkpt lat="42.74730388274099" lon="11.930981309652624"><ele>487.99999999999994</ele><time>2026-04-27T14:46:03Z</time></trkpt><trkpt lat="42.74723438246692" lon="11.93087218449204"><ele>488.0</ele><time>2026-04-27T14:46:05Z</time></trkpt><trkpt lat="42.74716150229799" lon="11.930788662382374"><ele>488.0</ele><time>2026-04-27T14:46:07Z</time></trkpt><trkpt lat="42.747067330639126" lon="11.930704229009779"><ele>489.0</ele><time>2026-04-27T14:46:09Z</time></trkpt><trkpt lat="42.747010728738005" lon="11.930654480089855"><ele>489.99999999999994</ele><time>2026-04-27T14:46:10Z</time></trkpt><trkpt lat="42.74692313566959" lon="11.930560918604353"><ele>490.99999999999994</ele><time>2026-04-27T14:46:12Z</time></trkpt><trkpt lat="42.74683247757014" lon="11.930488950711426"><ele>492.0</ele><time>2026-04-27T14:46:14Z</time></trkpt><trkpt lat="42.74673951805082" lon="11.930390547963695"><ele>493.0</ele><time>2026-04-27T14:46:16Z</time></trkpt><trkpt lat="42.74382737383492" lon="11.927489201556192"><ele>487.4</ele><time>2026-04-27T14:47:18Z</time></trkpt><trkpt lat="42.74374714115727" lon="11.927462433756439"><ele>481.79999999999995</ele><time>2026-04-27T14:47:20Z</time></trkpt><trkpt lat="42.743653852076065" lon="11.927414595017906"><ele>476.2</ele><time>2026-04-27T14:47:22Z</time></trkpt><trkpt lat="42.74356631260092" lon="11.927375887543146"><ele>470.6</ele><time>2026-04-27T14:47:24Z</time></trkpt><trkpt lat="42.74345750011817" lon="11.927329941920394"><ele>465.0</ele><time>2026-04-27T14:47:26Z</time></trkpt><trkpt lat="42.74335680779255" lon="11.927285246901372"><ele>464.0</ele><time>2026-04-27T14:47:28Z</time></trkpt><trkpt lat="42.743253520923695" lon="11.927245517977672"><ele>463.0</ele><time>2026-04-27T14:47:30Z</time></trkpt><trkpt lat="42.74315868979637" lon="11.927194447894284"><ele>462.0</ele><time>2026-04-27T14:47:32Z</time></trkpt><trkpt lat="42.74306596166934" lon="11.927115945341473"><ele>461.0</ele><time>2026-04-27T14:47:34Z</time></trkpt><trkpt lat="42.74297587564035" lon="11.927045603626006"><ele>460.0</ele><time>2026-04-27T14:47:36Z</time></trkpt><trkpt lat="42.742882223351685" lon="11.926952996553378"><ele>460.0</ele><time>2026-04-27T14:47:38Z</time></trkpt><trkpt lat="42.74280501888235" lon="11.926879559885602"><ele>460.0</ele><time>2026-04-27T14:47:40Z</time></trkpt><trkpt lat="42.74272209761698" lon="11.926768835667884"><ele>460.0</ele><time>2026-04-27T14:47:42Z</time></trkpt><trkpt lat="42.74263774968326" lon="11.92667294350908"><ele>460.0</ele><time>2026-04-27T14:47:44Z</time></trkpt><trkpt lat="42.74254983181644" lon="11.926583380626363"><ele>460.0</ele><time>2026-04-27T14:47:46Z</time></trkpt><trkpt lat="42.742484100316865" lon="11.926484059039332"><ele>459.2</ele><time>2026-04-27T14:47:48Z</time></trkpt><trkpt lat="42.74240113733475" lon="11.926432271467391"><ele>458.4</ele><time>2026-04-27T14:47:50Z</time></trkpt><trkpt lat="42.74229686470557" lon="11.926391156471302"><ele>457.6</ele><time>2026-04-27T14:47:52Z</time></trkpt><trkpt lat="42.74221026707365" lon="11.926371273630973"><ele>456.8</ele><time>2026-04-27T14:47:54Z</time></trkpt><trkpt lat="42.74211139222214" lon="11.926371081118573"><ele>456.0</ele><time>2026-04-27T14:47:56Z</time></trkpt><trkpt lat="42.74202983812469" lon="11.926333266241963"><ele>456.0</ele><time>2026-04-27T14:47:58Z</time></trkpt><trkpt lat="42.741949308314815" lon="11.926318765517506"><ele>456.0</ele><time>2026-04-27T14:48:00Z</time></trkpt><trkpt lat="42.74184670874116" lon="11.926300388260035"><ele>456.0</ele><time>2026-04-27T14:48:02Z</time></trkpt><trkpt lat="42.74175173311525" lon="11.926284118766839"><ele>456.0</ele><time>2026-04-27T14:48:04Z</time></trkpt><trkpt lat="42.74165007944819" lon="11.926265291649722"><ele>456.0</ele><time>2026-04-27T14:48:06Z</time></trkpt><trkpt lat="42.741543656591276" lon="11.926260925488325"><ele>453.0</ele><time>2026-04-27T14:48:08Z</time></trkpt><trkpt lat="42.741440852830486" lon="11.926233876178065"><ele>450.0</ele><time>2026-04-27T14:48:10Z</time></trkpt><trkpt lat="42.741376170676936" lon="11.926197611775319"><ele>447.0</ele><time>2026-04-27T14:48:11Z</time></trkpt><trkpt lat="42.741291519262845" lon="11.926115524173095"><ele>444.0</ele><time>2026-04-27T14:48:13Z</time></trkpt><trkpt lat="42.741240964574615" lon="11.926042146183999"><ele>441.0</ele><time>2026-04-27T14:48:15Z</time></trkpt><trkpt lat="42.74084171888142" lon="11.924905002450684"><ele>439.0</ele><time>2026-04-27T14:50:18Z</time></trkpt><trkpt lat="42.740825467039095" lon="11.924806612271134"><ele>437.0</ele><time>2026-04-27T14:50:20Z</time></trkpt><trkpt lat="42.7408186172511" lon="11.924714367243002"><ele>435.0</ele><time>2026-04-27T14:50:22Z</time></trkpt><trkpt lat="42.74080860424877" lon="11.924629223336682"><ele>433.0</ele><time>2026-04-27T14:50:27Z</time></trkpt><trkpt lat="42.743396507154074" lon="11.927317874953664"><ele>437.50000000000006</ele><time>2026-04-27T14:57:18Z</time></trkpt><trkpt lat="42.74346287961306" lon="11.927349999915208"><ele>442.0</ele><time>2026-04-27T14:57:19Z</time></trkpt><trkpt lat="42.74353505052479" lon="11.927378098719217"><ele>446.5</ele><time>2026-04-27T14:57:20Z</time></trkpt><trkpt lat="42.74359491959128" lon="11.92740792587957"><ele>451.0</ele><time>2026-04-27T14:57:21Z</time></trkpt><trkpt lat="42.74370760794292" lon="11.927455237775876"><ele>455.50000000000006</ele><time>2026-04-27T14:57:23Z</time></trkpt><trkpt lat="42.743787813276924" lon="11.927494971755475"><ele>460.0</ele><time>2026-04-27T14:57:24Z</time></trkpt><trkpt lat="42.74384535626949" lon="11.927533164564178"><ele>460.6666666666667</ele><time>2026-04-27T14:57:25Z</time></trkpt><trkpt lat="42.74393996859767" lon="11.927642052132912"><ele>461.33333333333337</ele><time>2026-04-27T14:57:27Z</time></trkpt><trkpt lat="42.74399121126969" lon="11.927692688032362"><ele>462.0</ele><time>2026-04-27T14:57:28Z</time></trkpt><trkpt lat="42.74403942944456" lon="11.92774971191583"><ele>462.66666666666663</ele><time>2026-04-27T14:57:29Z</time></trkpt><trkpt lat="42.74408830322424" lon="11.927808779590748"><ele>463.3333333333333</ele><time>2026-04-27T14:57:30Z</time></trkpt><trkpt lat="42.74417479054678" lon="11.927928270158562"><ele>464.0</ele><time>2026-04-27T14:57:32Z</time></trkpt><trkpt lat="42.7442304190879" lon="11.927990667199683"><ele>463.99999999999994</ele><time>2026-04-27T14:57:33Z</time></trkpt><trkpt lat="42.74428265137299" lon="11.928048130629438"><ele>464.0</ele><time>2026-04-27T14:57:34Z</time></trkpt><trkpt lat="42.744322329571915" lon="11.928120865309063"><ele>464.0</ele><time>2026-04-27T14:57:35Z</time></trkpt><trkpt lat="42.744352769973325" lon="11.928196431893369"><ele>464.0</ele><time>2026-04-27T14:57:36Z</time></trkpt><trkpt lat="42.744426732801074" lon="11.928226739740879"><ele>463.99999999999994</ele><time>2026-04-27T14:57:37Z</time></trkpt><trkpt lat="42.744521814060164" lon="11.928316744870596"><ele>464.0</ele><time>2026-04-27T14:57:39Z</time></trkpt><trkpt lat="42.7445805268608" lon="11.928378232381109"><ele>464.3333333333333</ele><time>2026-04-27T14:57:40Z</time></trkpt><trkpt lat="42.744640804817884" lon="11.928438627528065"><ele>464.66666666666663</ele><time>2026-04-27T14:57:41Z</time></trkpt><trkpt lat="42.74471011097237" lon="11.928493589642075"><ele>465.0</ele><time>2026-04-27T14:57:42Z</time></trkpt><trkpt lat="42.74482303660199" lon="11.928594449580912"><ele>465.33333333333337</ele><time>2026-04-27T14:57:44Z</time></trkpt><trkpt lat="42.74488970416856" lon="11.928651332891159"><ele>465.6666666666667</ele><time>2026-04-27T14:57:45Z</time></trkpt><trkpt lat="42.74494820142601" lon="11.928722896331731"><ele>466.0</ele><time>2026-04-27T14:57:46Z</time></trkpt><trkpt lat="42.74501332924229" lon="11.928788776544003"><ele>466.00000000000006</ele><time>2026-04-27T14:57:47Z</time></trkpt><trkpt lat="42.74508227109694" lon="11.92885242698466"><ele>466.0</ele><time>2026-04-27T14:57:48Z</time></trkpt><trkpt lat="42.74514941822758" lon="11.928932579557676"><ele>466.0</ele><time>2026-04-27T14:57:49Z</time></trkpt><trkpt lat="42.74520828399774" lon="11.928988188727024"><ele>466.0</ele><time>2026-04-27T14:57:50Z</time></trkpt><trkpt lat="42.745268495489434" lon="11.929044254957624"><ele>466.00000000000006</ele><time>2026-04-27T14:57:51Z</time></trkpt><trkpt lat="42.745335402588374" lon="11.92910655583122"><ele>466.0</ele><time>2026-04-27T14:57:52Z</time></trkpt><trkpt lat="42.74540583805216" lon="11.929170854868993"><ele>466.6666666666667</ele><time>2026-04-27T14:57:53Z</time></trkpt><trkpt lat="42.74548375825983" lon="11.929215163678508"><ele>467.33333333333337</ele><time>2026-04-27T14:57:54Z</time></trkpt><trkpt lat="42.74554913383029" lon="11.929300978456528"><ele>468.0</ele><time>2026-04-27T14:57:55Z</time></trkpt><trkpt lat="42.74562030616848" lon="11.929365742858952"><ele>468.66666666666663</ele><time>2026-04-27T14:57:56Z</time></trkpt><trkpt lat="42.74567936831405" lon="11.92942015322445"><ele>469.3333333333333</ele><time>2026-04-27T14:57:57Z</time></trkpt><trkpt lat="42.74575586058752" lon="11.929490620924497"><ele>470.0</ele><time>2026-04-27T14:57:58Z</time></trkpt><trkpt lat="42.74583004257323" lon="11.929558960342542"><ele>470.0</ele><time>2026-04-27T14:57:59Z</time></trkpt><trkpt lat="42.745908257157886" lon="11.929632075694588"><ele>470.0</ele><time>2026-04-27T14:58:00Z</time></trkpt><trkpt lat="42.745988641888275" lon="11.929709823437388"><ele>470.0</ele><time>2026-04-27T14:58:01Z</time></trkpt><trkpt lat="42.74606659806409" lon="11.929786181356944"><ele>470.0</ele><time>2026-04-27T14:58:02Z</time></trkpt><trkpt lat="42.74614201012947" lon="11.92986004906336"><ele>470.0</ele><time>2026-04-27T14:58:03Z</time></trkpt><trkpt lat="42.746217483824566" lon="11.929931594150732"><ele>472.0</ele><time>2026-04-27T14:58:04Z</time></trkpt><trkpt lat="42.74630866892038" lon="11.930017664718985"><ele>474.0</ele><time>2026-04-27T14:58:06Z</time></trkpt><trkpt lat="42.74636372704357" lon="11.930069634663244"><ele>476.0</ele><time>2026-04-27T14:58:07Z</time></trkpt><trkpt lat="42.746467438661355" lon="11.930143215645268"><ele>478.0</ele><time>2026-04-27T14:58:09Z</time></trkpt><trkpt lat="42.74656315458377" lon="11.93025902879388"><ele>480.0</ele><time>2026-04-27T14:58:11Z</time></trkpt><trkpt lat="42.74662259970436" lon="11.930304910761873"><ele>480.0</ele><time>2026-04-27T14:58:12Z</time></trkpt><trkpt lat="42.74668130961225" lon="11.930358974288016"><ele>480.0</ele><time>2026-04-27T14:58:13Z</time></trkpt><trkpt lat="42.7467355101403" lon="11.93041571354628"><ele>480.0</ele><time>2026-04-27T14:58:14Z</time></trkpt><trkpt lat="42.74678791637178" lon="11.930463946464094"><ele>480.0</ele><time>2026-04-27T14:58:15Z</time></trkpt><trkpt lat="42.746840885412034" lon="11.93052902168172"><ele>480.0</ele><time>2026-04-27T14:58:16Z</time></trkpt><trkpt lat="42.746898237328686" lon="11.930570333633714"><ele>480.0</ele><time>2026-04-27T14:58:17Z</time></trkpt><trkpt lat="42.749566088637046" lon="11.934630661699186"><ele>484.28571428571433</ele><time>2026-04-27T14:59:18Z</time></trkpt><trkpt lat="42.74959168320961" lon="11.93472200324472"><ele>488.57142857142856</ele><time>2026-04-27T14:59:19Z</time></trkpt><trkpt lat="42.749620172427896" lon="11.934814820391544"><ele>492.8571428571429</ele><time>2026-04-27T14:59:20Z</time></trkpt><trkpt lat="42.749631378720615" lon="11.934904208523555"><ele>497.14285714285717</ele><time>2026-04-27T14:59:21Z</time></trkpt><trkpt lat="42.74964624038028" lon="11.934998676974445"><ele>501.42857142857144</ele><time>2026-04-27T14:59:22Z</time></trkpt><trkpt lat="42.74964904902188" lon="11.935099830548797"><ele>505.7142857142857</ele><time>2026-04-27T14:59:23Z</time></trkpt><trkpt lat="42.74964843869398" lon="11.935202273340701"><ele>510.0</ele><time>2026-04-27T14:59:24Z</time></trkpt><trkpt lat="42.749645394352214" lon="11.935307989717407"><ele>510.8571428571429</ele><time>2026-04-27T14:59:25Z</time></trkpt><trkpt lat="42.74965352298609" lon="11.93540670904606"><ele>511.7142857142858</ele><time>2026-04-27T14:59:26Z</time></trkpt><trkpt lat="42.74965573026332" lon="11.935510978819996"><ele>512.5714285714286</ele><time>2026-04-27T14:59:27Z</time></trkpt><trkpt lat="42.7496602404522" lon="11.935605188571465"><ele>513.4285714285714</ele><time>2026-04-27T14:59:28Z</time></trkpt><trkpt lat="42.74966484683611" lon="11.935703678384181"><ele>514.2857142857142</ele><time>2026-04-27T14:59:29Z</time></trkpt><trkpt lat="42.749661477068045" lon="11.935799404208055"><ele>515.1428571428571</ele><time>2026-04-27T14:59:30Z</time></trkpt><trkpt lat="42.74965861052985" lon="11.935891385778056"><ele>516.0</ele><time>2026-04-27T14:59:31Z</time></trkpt><trkpt lat="42.74962325045077" lon="11.935975236272018"><ele>517.0</ele><time>2026-04-27T14:59:32Z</time></trkpt><trkpt lat="42.74958930982749" lon="11.936105642111741"><ele>518.0</ele><time>2026-04-27T14:59:34Z</time></trkpt><trkpt lat="42.74956509341104" lon="11.93619656623565"><ele>519.0</ele><time>2026-04-27T14:59:36Z</time></trkpt><trkpt lat="42.749543847848656" lon="11.93636304081772"><ele>520.0</ele><time>2026-04-27T14:59:38Z</time></trkpt><trkpt lat="42.74954354788231" lon="11.93646043386472"><ele>521.0</ele><time>2026-04-27T14:59:39Z</time></trkpt><trkpt lat="42.74955158439588" lon="11.93655765304916"><ele>522.0</ele><time>2026-04-27T14:59:40Z</time></trkpt><trkpt lat="42.74957761407269" lon="11.936737591217359"><ele>523.3333333333334</ele><time>2026-04-27T14:59:42Z</time></trkpt><trkpt lat="42.749599352738215" lon="11.93683005302755"><ele>524.6666666666666</ele><time>2026-04-27T14:59:43Z</time></trkpt><trkpt lat="42.74963197308931" lon="11.936918976209963"><ele>526.0</ele><time>2026-04-27T14:59:44Z</time></trkpt><trkpt lat="42.74966326225178" lon="11.937004206612563"><ele>527.3333333333333</ele><time>2026-04-27T14:59:45Z</time></trkpt><trkpt lat="42.749704796396045" lon="11.937085883888203"><ele>528.6666666666666</ele><time>2026-04-27T14:59:46Z</time></trkpt><trkpt lat="42.74976190419786" lon="11.93721910942184"><ele>530.0</ele><time>2026-04-27T14:59:48Z</time></trkpt><trkpt lat="42.74978356434089" lon="11.937309088059363"><ele>529.9999999999999</ele><time>2026-04-27T14:59:49Z</time></trkpt><trkpt lat="42.7497931953516" lon="11.937415166120346"><ele>530.0</ele><time>2026-04-27T14:59:50Z</time></trkpt><trkpt lat="42.74977076209879" lon="11.937514646909555"><ele>530.0</ele><time>2026-04-27T14:59:51Z</time></trkpt><trkpt lat="42.749781856666274" lon="11.937608412679392"><ele>530.0</ele><time>2026-04-27T14:59:52Z</time></trkpt><trkpt lat="42.74977266771484" lon="11.937702545295634"><ele>530.0</ele><time>2026-04-27T14:59:53Z</time></trkpt><trkpt lat="42.749765196008" lon="11.937798984898167"><ele>529.9999999999999</ele><time>2026-04-27T14:59:54Z</time></trkpt><trkpt lat="42.74977739353285" lon="11.9379063891008"><ele>530.0</ele><time>2026-04-27T14:59:55Z</time></trkpt><trkpt lat="42.74979076418741" lon="11.937995506757849"><ele>531.3333333333333</ele><time>2026-04-27T14:59:56Z</time></trkpt><trkpt lat="42.74981431143268" lon="11.938094863437392"><ele>532.6666666666666</ele><time>2026-04-27T14:59:57Z</time></trkpt><trkpt lat="42.749865471472184" lon="11.93826224069547"><ele>534.0</ele><time>2026-04-27T14:59:59Z</time></trkpt><trkpt lat="42.74988632469732" lon="11.938350400926184"><ele>535.3333333333334</ele><time>2026-04-27T15:00:00Z</time></trkpt><trkpt lat="42.74991817747915" lon="11.938445929725797"><ele>536.6666666666667</ele><time>2026-04-27T15:00:01Z</time></trkpt><trkpt lat="42.74995963506286" lon="11.938544603585456"><ele>538.0</ele><time>2026-04-27T15:00:02Z</time></trkpt><trkpt lat="42.749977498935685" lon="11.93865748022255"><ele>539.4285714285714</ele><time>2026-04-27T15:00:03Z</time></trkpt><trkpt lat="42.7500110094277" lon="11.93873960257367"><ele>540.8571428571429</ele><time>2026-04-27T15:00:04Z</time></trkpt><trkpt lat="42.75004404193147" lon="11.938820617652356"><ele>542.2857142857143</ele><time>2026-04-27T15:00:05Z</time></trkpt><trkpt lat="42.750063689968876" lon="11.93892661423018"><ele>543.7142857142858</ele><time>2026-04-27T15:00:06Z</time></trkpt><trkpt lat="42.750081934028536" lon="11.939019489780943"><ele>545.1428571428571</ele><time>2026-04-27T15:00:07Z</time></trkpt><trkpt lat="42.75011204113241" lon="11.939111495749255"><ele>546.5714285714287</ele><time>2026-04-27T15:00:08Z</time></trkpt><trkpt lat="42.75013851229271" lon="11.939208002064571"><ele>548.0</ele><time>2026-04-27T15:00:09Z</time></trkpt><trkpt lat="42.75017013117837" lon="11.939309978952586"><ele>549.0</ele><time>2026-04-27T15:00:10Z</time></trkpt><trkpt lat="42.75020611447734" lon="11.939420523784655"><ele>550.0</ele><time>2026-04-27T15:00:11Z</time></trkpt><trkpt lat="42.750232758532064" lon="11.939523387405815"><ele>551.0</ele><time>2026-04-27T15:00:12Z</time></trkpt><trkpt lat="42.75027349263465" lon="11.939620834861381"><ele>552.0</ele><time>2026-04-27T15:00:13Z</time></trkpt><trkpt lat="42.75032402608881" lon="11.939688188013072"><ele>553.0</ele><time>2026-04-27T15:00:14Z</time></trkpt><trkpt lat="42.75044457636319" lon="11.939811976355022"><ele>553.0</ele><time>2026-04-27T15:00:16Z</time></trkpt><trkpt lat="42.75050785737505" lon="11.939864621621961"><ele>553.0</ele><time>2026-04-27T15:00:17Z</time></trkpt><trkpt lat="42.7539912386359" lon="11.942246424533014"><ele>557.1666666666667</ele><time>2026-04-27T15:01:18Z</time></trkpt><trkpt lat="42.75407915536156" lon="11.942252404653386"><ele>561.3333333333334</ele><time>2026-04-27T15:01:19Z</time></trkpt><trkpt lat="42.75415405082462" lon="11.942259651519366"><ele>565.5</ele><time>2026-04-27T15:01:20Z</time></trkpt><trkpt lat="42.75422788959884" lon="11.942266817131964"><ele>569.6666666666666</ele><time>2026-04-27T15:01:21Z</time></trkpt><trkpt lat="42.75435703479584" lon="11.942267510359514"><ele>573.8333333333333</ele><time>2026-04-27T15:01:23Z</time></trkpt><trkpt lat="42.75443419858333" lon="11.942277716940065"><ele>578.0</ele><time>2026-04-27T15:01:24Z</time></trkpt><trkpt lat="42.75450906783579" lon="11.942284761259186"><ele>578.1666666666666</ele><time>2026-04-27T15:01:25Z</time></trkpt><trkpt lat="42.75458664258777" lon="11.942299752595993"><ele>578.3333333333333</ele><time>2026-04-27T15:01:26Z</time></trkpt><trkpt lat="42.75466737037194" lon="11.942313466229798"><ele>578.5</ele><time>2026-04-27T15:01:27Z</time></trkpt><trkpt lat="42.754743560075084" lon="11.94232759496494"><ele>578.6666666666666</ele><time>2026-04-27T15:01:28Z</time></trkpt><trkpt lat="42.754817991856896" lon="11.942359713413062"><ele>578.8333333333334</ele><time>2026-04-27T15:01:29Z</time></trkpt><trkpt lat="42.75488739783937" lon="11.942402858197914"><ele>579.0</ele><time>2026-04-27T15:01:30Z</time></trkpt><trkpt lat="42.754993575970545" lon="11.94249373980088"><ele>579.2857142857142</ele><time>2026-04-27T15:01:32Z</time></trkpt><trkpt lat="42.75505154009154" lon="11.942557499389055"><ele>579.5714285714286</ele><time>2026-04-27T15:01:33Z</time></trkpt><trkpt lat="42.755101233922346" lon="11.942629649902228"><ele>579.8571428571429</ele><time>2026-04-27T15:01:34Z</time></trkpt><trkpt lat="42.75514676464439" lon="11.942696148724812"><ele>580.1428571428571</ele><time>2026-04-27T15:01:35Z</time></trkpt><trkpt lat="42.75519275357686" lon="11.942759096128201"><ele>580.4285714285714</ele><time>2026-04-27T15:01:36Z</time></trkpt><trkpt lat="42.75523907610227" lon="11.942825288347317"><ele>580.7142857142857</ele><time>2026-04-27T15:01:37Z</time></trkpt><trkpt lat="42.755264914720286" lon="11.942916261296418"><ele>581.0</ele><time>2026-04-27T15:01:38Z</time></trkpt><trkpt lat="42.75529374828763" lon="11.942997308290108"><ele>581.25</ele><time>2026-04-27T15:01:39Z</time></trkpt><trkpt lat="42.75531429036942" lon="11.94308161264978"><ele>581.5</ele><time>2026-04-27T15:01:40Z</time></trkpt><trkpt lat="42.75530685819093" lon="11.943209093951072"><ele>581.75</ele><time>2026-04-27T15:01:42Z</time></trkpt><trkpt lat="42.75542255704079" lon="11.943386975642872"><ele>582.0</ele><time>2026-04-27T15:01:44Z</time></trkpt><trkpt lat="42.75554688125989" lon="11.94325518170557"><ele>582.0</ele><time>2026-04-27T15:01:45Z</time></trkpt><trkpt lat="42.75549010251372" lon="11.943167197738049"><ele>582.0</ele><time>2026-04-27T15:04:39Z</time></trkpt><trkpt lat="42.75542771789874" lon="11.943212961155515"><ele>582.0</ele><time>2026-04-27T15:05:06Z</time></trkpt><trkpt lat="42.75544372240369" lon="11.943298030902328"><ele>582.0</ele><time>2026-04-27T15:05:12Z</time></trkpt><trkpt lat="42.75530315010307" lon="11.942891075019514"><ele>582.0</ele><time>2026-04-27T15:06:18Z</time></trkpt><trkpt lat="42.75534874981795" lon="11.942954669680498"><ele>582.0</ele><time>2026-04-27T15:07:01Z</time></trkpt><trkpt lat="42.75541216262026" lon="11.94291991789573"><ele>582.0</ele><time>2026-04-27T15:07:08Z</time></trkpt><trkpt lat="42.755422030095545" lon="11.943189030506087"><ele>582.0</ele><time>2026-04-27T15:09:24Z</time></trkpt><trkpt lat="42.755447076077594" lon="11.94328175056186"><ele>582.0</ele><time>2026-04-27T15:09:34Z</time></trkpt><trkpt lat="42.75518632351025" lon="11.943392159754595"><ele>582.0</ele><time>2026-04-27T15:11:17.999Z</time></trkpt><trkpt lat="42.75527625367757" lon="11.943330214951901"><ele>582.0</ele><time>2026-04-27T15:11:27.999Z</time></trkpt><trkpt lat="42.75536434487144" lon="11.94329843316779"><ele>582.0</ele><time>2026-04-27T15:11:30Z</time></trkpt><trkpt lat="42.75542098635004" lon="11.943227672771139"><ele>582.0</ele><time>2026-04-27T15:11:32Z</time></trkpt><trkpt lat="42.75536258518154" lon="11.943165039744937"><ele>582.0</ele><time>2026-04-27T15:11:36Z</time></trkpt><trkpt lat="42.75528510445715" lon="11.943135796915556"><ele>582.0</ele><time>2026-04-27T15:11:39Z</time></trkpt><trkpt lat="42.754782778858804" lon="11.943934796950629"><ele>583.5</ele><time>2026-04-27T15:13:19Z</time></trkpt><trkpt lat="42.754837565103834" lon="11.944008154591495"><ele>585.0</ele><time>2026-04-27T15:13:39Z</time></trkpt><trkpt lat="42.754721599662595" lon="11.944002703364692"><ele>586.5</ele><time>2026-04-27T15:13:41Z</time></trkpt><trkpt lat="42.75463969693052" lon="11.94418400369385"><ele>588.0</ele><time>2026-04-27T15:13:43Z</time></trkpt><trkpt lat="42.75468683705803" lon="11.944306612042233"><ele>588.1666666666666</ele><time>2026-04-27T15:13:44Z</time></trkpt><trkpt lat="42.75469141548838" lon="11.9444290787814"><ele>588.3333333333334</ele><time>2026-04-27T15:13:46Z</time></trkpt><trkpt lat="42.75469022785584" lon="11.944555120383937"><ele>588.5</ele><time>2026-04-27T15:13:49Z</time></trkpt><trkpt lat="42.754685711359116" lon="11.944643894306324"><ele>588.6666666666667</ele><time>2026-04-27T15:13:50Z</time></trkpt><trkpt lat="42.75469386909627" lon="11.944738867971244"><ele>588.8333333333334</ele><time>2026-04-27T15:13:51Z</time></trkpt><trkpt lat="42.754658125539336" lon="11.944903863062056"><ele>589.0</ele><time>2026-04-27T15:13:53Z</time></trkpt><trkpt lat="42.75468211268814" lon="11.945052014339495"><ele>589.0</ele><time>2026-04-27T15:13:55Z</time></trkpt><trkpt lat="42.754714844662395" lon="11.945188988839478"><ele>589.0</ele><time>2026-04-27T15:13:57Z</time></trkpt><trkpt lat="42.75476053173536" lon="11.945311854611807"><ele>589.0</ele><time>2026-04-27T15:13:59Z</time></trkpt><trkpt lat="42.75471853259161" lon="11.945202672013327"><ele>589.0</ele><time>2026-04-27T15:14:07Z</time></trkpt><trkpt lat="42.754694850520124" lon="11.945108691852742"><ele>589.0</ele><time>2026-04-27T15:14:08Z</time></trkpt><trkpt lat="42.75467529062176" lon="11.945020569409458"><ele>589.0</ele><time>2026-04-27T15:14:09Z</time></trkpt><trkpt lat="42.75466087303912" lon="11.944934124411809"><ele>589.0</ele><time>2026-04-27T15:14:10Z</time></trkpt><trkpt lat="42.75464887844662" lon="11.944808567396631"><ele>589.0</ele><time>2026-04-27T15:14:12Z</time></trkpt><trkpt lat="42.75463799238795" lon="11.944651856526512"><ele>589.0</ele><time>2026-04-27T15:14:15Z</time></trkpt><trkpt lat="42.75511721061266" lon="11.943553516969633"><ele>588.8333333333334</ele><time>2026-04-27T15:19:18.001Z</time></trkpt><trkpt lat="42.755180803017" lon="11.943511809682427"><ele>588.6666666666667</ele><time>2026-04-27T15:19:20.001Z</time></trkpt><trkpt lat="42.75509307720546" lon="11.943581135636382"><ele>588.5</ele><time>2026-04-27T15:19:25.001Z</time></trkpt><trkpt lat="42.7550460965004" lon="11.943655201323558"><ele>588.3333333333334</ele><time>2026-04-27T15:19:26.001Z</time></trkpt><trkpt lat="42.7549933826394" lon="11.943716089155743"><ele>588.1666666666666</ele><time>2026-04-27T15:19:27.001Z</time></trkpt><trkpt lat="42.754933881200074" lon="11.94379173618079"><ele>588.0</ele><time>2026-04-27T15:19:28.001Z</time></trkpt><trkpt lat="42.754867500919175" lon="11.943827181446121"><ele>588.0</ele><time>2026-04-27T15:19:29.001Z</time></trkpt><trkpt lat="42.75477652937133" lon="11.943942735132671"><ele>588.0</ele><time>2026-04-27T15:19:31.001Z</time></trkpt><trkpt lat="42.75472648441026" lon="11.943996999217086"><ele>588.0</ele><time>2026-04-27T15:19:32.001Z</time></trkpt><trkpt lat="42.75467811088665" lon="11.944053486476196"><ele>588.0</ele><time>2026-04-27T15:19:34.001Z</time></trkpt><trkpt lat="42.75461617360212" lon="11.944091237042125"><ele>588.0</ele><time>2026-04-27T15:19:37.001Z</time></trkpt><trkpt lat="42.75466421988808" lon="11.944328799683676"><ele>588.1666666666666</ele><time>2026-04-27T15:19:39Z</time></trkpt><trkpt lat="42.75466186291332" lon="11.9444309423082"><ele>588.3333333333334</ele><time>2026-04-27T15:19:40Z</time></trkpt><trkpt lat="42.75466695400891" lon="11.944547087904487"><ele>588.5</ele><time>2026-04-27T15:19:41Z</time></trkpt><trkpt lat="42.7546789555136" lon="11.944663773754224"><ele>588.6666666666667</ele><time>2026-04-27T15:19:42Z</time></trkpt><trkpt lat="42.75468660188791" lon="11.944764734435415"><ele>588.8333333333334</ele><time>2026-04-27T15:19:43Z</time></trkpt><trkpt lat="42.75469432706866" lon="11.944878580793368"><ele>589.0</ele><time>2026-04-27T15:19:44Z</time></trkpt><trkpt lat="42.754671223552315" lon="11.944993639383798"><ele>587.6666666666667</ele><time>2026-04-27T15:19:45Z</time></trkpt><trkpt lat="42.7546905035242" lon="11.945090690928325"><ele>586.3333333333334</ele><time>2026-04-27T15:19:46Z</time></trkpt><trkpt lat="42.754712588899494" lon="11.945179929705558"><ele>585.0</ele><time>2026-04-27T15:19:47Z</time></trkpt><trkpt lat="42.75473650905465" lon="11.945275993055668"><ele>583.6666666666666</ele><time>2026-04-27T15:19:48Z</time></trkpt><trkpt lat="42.75480586585542" lon="11.945401970892716"><ele>582.3333333333333</ele><time>2026-04-27T15:19:49Z</time></trkpt><trkpt lat="42.75487268648396" lon="11.945518175373879"><ele>581.0</ele><time>2026-04-27T15:19:50Z</time></trkpt><trkpt lat="42.754941271701526" lon="11.945621432473857"><ele>581.0</ele><time>2026-04-27T15:19:51Z</time></trkpt><trkpt lat="42.7550193977159" lon="11.945694552581159"><ele>581.0</ele><time>2026-04-27T15:19:52Z</time></trkpt><trkpt lat="42.75508425870787" lon="11.945774177738972"><ele>581.0</ele><time>2026-04-27T15:19:53Z</time></trkpt><trkpt lat="42.755144765161916" lon="11.945847443820874"><ele>581.0</ele><time>2026-04-27T15:19:54Z</time></trkpt><trkpt lat="42.75520182382463" lon="11.945901599946984"><ele>581.0</ele><time>2026-04-27T15:19:55Z</time></trkpt><trkpt lat="42.75524707206208" lon="11.945967432873"><ele>581.0</ele><time>2026-04-27T15:19:56Z</time></trkpt><trkpt lat="42.755258934912256" lon="11.946129739025952"><ele>581.2</ele><time>2026-04-27T15:19:58Z</time></trkpt><trkpt lat="42.755260833213654" lon="11.946272825409144"><ele>581.4000000000001</ele><time>2026-04-27T15:19:59Z</time></trkpt><trkpt lat="42.755264253161116" lon="11.946426328683977"><ele>581.6</ele><time>2026-04-27T15:20:00Z</time></trkpt><trkpt lat="42.755274100869855" lon="11.946545569848904"><ele>581.8000000000001</ele><time>2026-04-27T15:20:01Z</time></trkpt><trkpt lat="42.75525834569113" lon="11.946650755340565"><ele>582.0</ele><time>2026-04-27T15:20:03Z</time></trkpt><trkpt lat="42.753807747588866" lon="11.952497006205508"><ele>575.3333333333334</ele><time>2026-04-27T15:22:18Z</time></trkpt><trkpt lat="42.75372923889197" lon="11.952659165609903"><ele>568.6666666666667</ele><time>2026-04-27T15:22:19Z</time></trkpt><trkpt lat="42.7536383920627" lon="11.952851533008749"><ele>562.0</ele><time>2026-04-27T15:22:20Z</time></trkpt><trkpt lat="42.7535589747004" lon="11.953079398257177"><ele>559.6666666666667</ele><time>2026-04-27T15:22:21Z</time></trkpt><trkpt lat="42.75346041452649" lon="11.953285372835461"><ele>557.3333333333334</ele><time>2026-04-27T15:22:22Z</time></trkpt><trkpt lat="42.75336217251809" lon="11.953478043785973"><ele>555.0</ele><time>2026-04-27T15:22:23Z</time></trkpt><trkpt lat="42.75326839299964" lon="11.95366514291611"><ele>554.6666666666666</ele><time>2026-04-27T15:22:24Z</time></trkpt><trkpt lat="42.7531593334952" lon="11.953834958563169"><ele>554.3333333333333</ele><time>2026-04-27T15:22:25Z</time></trkpt><trkpt lat="42.753070117713456" lon="11.954017472125107"><ele>554.0</ele><time>2026-04-27T15:22:26Z</time></trkpt><trkpt lat="42.7529854978655" lon="11.954190583590925"><ele>553.0</ele><time>2026-04-27T15:22:27Z</time></trkpt><trkpt lat="42.75290078726578" lon="11.954363880643415"><ele>552.0</ele><time>2026-04-27T15:22:28Z</time></trkpt><trkpt lat="42.752818670565325" lon="11.954531871300839"><ele>551.0</ele><time>2026-04-27T15:22:29Z</time></trkpt><trkpt lat="42.752740650196756" lon="11.954695444322507"><ele>550.0</ele><time>2026-04-27T15:22:30Z</time></trkpt><trkpt lat="42.752660569640035" lon="11.954864411795743"><ele>549.0</ele><time>2026-04-27T15:22:31Z</time></trkpt><trkpt lat="42.7525869733563" lon="11.955019697658987"><ele>548.0</ele><time>2026-04-27T15:22:32Z</time></trkpt><trkpt lat="42.752512875734816" lon="11.95517604135119"><ele>547.0</ele><time>2026-04-27T15:22:33Z</time></trkpt><trkpt lat="42.75244667940874" lon="11.955339124436485"><ele>546.0</ele><time>2026-04-27T15:22:34Z</time></trkpt><trkpt lat="42.7523803109218" lon="11.955494044853465"><ele>545.75</ele><time>2026-04-27T15:22:35Z</time></trkpt><trkpt lat="42.75230299070018" lon="11.955641252567794"><ele>545.5</ele><time>2026-04-27T15:22:36Z</time></trkpt><trkpt lat="42.7522213771716" lon="11.95578025093127"><ele>545.25</ele><time>2026-04-27T15:22:37Z</time></trkpt><trkpt lat="42.75215424429373" lon="11.955932044461337"><ele>545.0</ele><time>2026-04-27T15:22:38Z</time></trkpt><trkpt lat="42.75208753607063" lon="11.956078771825954"><ele>544.0</ele><time>2026-04-27T15:22:39Z</time></trkpt><trkpt lat="42.752023397325374" lon="11.956224196960292"><ele>543.0</ele><time>2026-04-27T15:22:40Z</time></trkpt><trkpt lat="42.7519562961461" lon="11.956364625952137"><ele>542.0</ele><time>2026-04-27T15:22:41Z</time></trkpt><trkpt lat="42.751880525688655" lon="11.956505631614784"><ele>541.0</ele><time>2026-04-27T15:22:42Z</time></trkpt><trkpt lat="42.751819320476976" lon="11.956628329453165"><ele>540.5</ele><time>2026-04-27T15:22:43Z</time></trkpt><trkpt lat="42.75173666655689" lon="11.956754406897803"><ele>540.0</ele><time>2026-04-27T15:22:44Z</time></trkpt><trkpt lat="42.751628199058565" lon="11.956857384875043"><ele>539.5</ele><time>2026-04-27T15:22:45Z</time></trkpt><trkpt lat="42.75152056125244" lon="11.956944762621077"><ele>539.0</ele><time>2026-04-27T15:22:46Z</time></trkpt><trkpt lat="42.75140812956797" lon="11.95700472062689"><ele>539.0</ele><time>2026-04-27T15:22:47Z</time></trkpt><trkpt lat="42.7512784025023" lon="11.957039909320285"><ele>539.0</ele><time>2026-04-27T15:22:48Z</time></trkpt><trkpt lat="42.75112838563121" lon="11.957053288206833"><ele>539.0</ele><time>2026-04-27T15:22:49Z</time></trkpt><trkpt lat="42.75096399381871" lon="11.957078818824618"><ele>539.0</ele><time>2026-04-27T15:22:50Z</time></trkpt><trkpt lat="42.750788653437844" lon="11.957103411444596"><ele>537.3333333333333</ele><time>2026-04-27T15:22:51Z</time></trkpt><trkpt lat="42.75060119684951" lon="11.957126763045801"><ele>535.6666666666666</ele><time>2026-04-27T15:22:52Z</time></trkpt><trkpt lat="42.75042021170507" lon="11.957151377917606"><ele>534.0</ele><time>2026-04-27T15:22:53Z</time></trkpt><trkpt lat="42.75024679299649" lon="11.95717721786761"><ele>532.3333333333334</ele><time>2026-04-27T15:22:54Z</time></trkpt><trkpt lat="42.75007777727428" lon="11.957206653428491"><ele>530.6666666666667</ele><time>2026-04-27T15:22:55Z</time></trkpt><trkpt lat="42.749916933772155" lon="11.957234339272963"><ele>529.0</ele><time>2026-04-27T15:22:56Z</time></trkpt><trkpt lat="42.74976034673538" lon="11.957238197143354"><ele>529.0</ele><time>2026-04-27T15:22:57Z</time></trkpt><trkpt lat="42.74960939725373" lon="11.957259150085616"><ele>529.0</ele><time>2026-04-27T15:22:58Z</time></trkpt><trkpt lat="42.74946486698146" lon="11.95727921199364"><ele>529.0</ele><time>2026-04-27T15:22:59Z</time></trkpt><trkpt lat="42.74932858775532" lon="11.957298128572722"><ele>529.0</ele><time>2026-04-27T15:23:00Z</time></trkpt><trkpt lat="42.749200187114965" lon="11.957314252200696"><ele>528.75</ele><time>2026-04-27T15:23:01.001Z</time></trkpt><trkpt lat="42.74907360010977" lon="11.957332444635027"><ele>528.5</ele><time>2026-04-27T15:23:02.001Z</time></trkpt><trkpt lat="42.748951048320535" lon="11.957352009008344"><ele>528.25</ele><time>2026-04-27T15:23:03.001Z</time></trkpt><trkpt lat="42.74882979343084" lon="11.95737874459574"><ele>528.0</ele><time>2026-04-27T15:23:04.001Z</time></trkpt><trkpt lat="42.7487049740993" lon="11.95741869702169"><ele>528.0</ele><time>2026-04-27T15:23:05.001Z</time></trkpt><trkpt lat="42.748567175605835" lon="11.957476811383238"><ele>528.0</ele><time>2026-04-27T15:23:06.001Z</time></trkpt><trkpt lat="42.74842344959581" lon="11.957551095580063"><ele>528.0</ele><time>2026-04-27T15:23:07.001Z</time></trkpt><trkpt lat="42.748270410548734" lon="11.957642900674708"><ele>528.3333333333334</ele><time>2026-04-27T15:23:08.001Z</time></trkpt><trkpt lat="42.74810929650771" lon="11.957743021155009"><ele>528.6666666666667</ele><time>2026-04-27T15:23:09.001Z</time></trkpt><trkpt lat="42.74794026281121" lon="11.95784808418725"><ele>529.0</ele><time>2026-04-27T15:23:10.001Z</time></trkpt><trkpt lat="42.74776375623706" lon="11.957957830094085"><ele>530.0</ele><time>2026-04-27T15:23:11.001Z</time></trkpt><trkpt lat="42.74759024661622" lon="11.958065743156874"><ele>531.0</ele><time>2026-04-27T15:23:12.001Z</time></trkpt><trkpt lat="42.74741955152629" lon="11.958174557641367"><ele>532.0</ele><time>2026-04-27T15:23:13.001Z</time></trkpt><trkpt lat="42.74725127235846" lon="11.958281832031023"><ele>531.3333333333334</ele><time>2026-04-27T15:23:14.001Z</time></trkpt><trkpt lat="42.74708696619092" lon="11.958410199592125"><ele>530.6666666666666</ele><time>2026-04-27T15:23:15.001Z</time></trkpt><trkpt lat="42.746909110875905" lon="11.958517023858569"><ele>530.0</ele><time>2026-04-27T15:23:16.001Z</time></trkpt><trkpt lat="42.74672460407554" lon="11.958626232103722"><ele>541.0</ele><time>2026-04-27T15:23:17.001Z</time></trkpt><trkpt lat="42.73634495328714" lon="11.965478729571645"><ele>541.0</ele><time>2026-04-27T15:24:18Z</time></trkpt><trkpt lat="42.73620806208441" lon="11.965665402340813"><ele>541.0</ele><time>2026-04-27T15:24:19Z</time></trkpt><trkpt lat="42.736073673603855" lon="11.965874395495126"><ele>541.0</ele><time>2026-04-27T15:24:20Z</time></trkpt><trkpt lat="42.735942112177334" lon="11.966088789479123"><ele>541.3333333333334</ele><time>2026-04-27T15:24:21Z</time></trkpt><trkpt lat="42.735791888485934" lon="11.966307507934303"><ele>541.6666666666666</ele><time>2026-04-27T15:24:22Z</time></trkpt><trkpt lat="42.73563592362525" lon="11.966532386816516"><ele>542.0</ele><time>2026-04-27T15:24:23Z</time></trkpt><trkpt lat="42.73547916614922" lon="11.966754599430912"><ele>542.5</ele><time>2026-04-27T15:24:24Z</time></trkpt><trkpt lat="42.735317630715834" lon="11.966985168506188"><ele>543.0</ele><time>2026-04-27T15:24:25Z</time></trkpt><trkpt lat="42.73515271523087" lon="11.967218515052522"><ele>544.0</ele><time>2026-04-27T15:24:26Z</time></trkpt><trkpt lat="42.734984980735256" lon="11.967458569251344"><ele>545.0</ele><time>2026-04-27T15:24:27Z</time></trkpt><trkpt lat="42.73481347184599" lon="11.967708056794201"><ele>546.5</ele><time>2026-04-27T15:24:28Z</time></trkpt><trkpt lat="42.734647659706255" lon="11.96794872464028"><ele>548.0</ele><time>2026-04-27T15:24:29Z</time></trkpt><trkpt lat="42.73448254430994" lon="11.96818836823521"><ele>547.5</ele><time>2026-04-27T15:24:30Z</time></trkpt><trkpt lat="42.73431969284604" lon="11.96842447986849"><ele>547.0</ele><time>2026-04-27T15:24:31Z</time></trkpt><trkpt lat="42.73416141158899" lon="11.96864980138401"><ele>547.0</ele><time>2026-04-27T15:24:32Z</time></trkpt><trkpt lat="42.734014102389764" lon="11.968858642162672"><ele>547.0</ele><time>2026-04-27T15:24:33Z</time></trkpt><trkpt lat="42.73387510551329" lon="11.96905377101856"><ele>547.0</ele><time>2026-04-27T15:24:34Z</time></trkpt><trkpt lat="42.7337544598101" lon="11.969227646470635"><ele>547.0</ele><time>2026-04-27T15:24:35Z</time></trkpt><trkpt lat="42.733663860819675" lon="11.969379811637946"><ele>547.0</ele><time>2026-04-27T15:24:36Z</time></trkpt><trkpt lat="42.73359950830035" lon="11.96954094144292"><ele>547.0</ele><time>2026-04-27T15:24:37Z</time></trkpt><trkpt lat="42.733574001381974" lon="11.969740061462447"><ele>547.0</ele><time>2026-04-27T15:24:38Z</time></trkpt><trkpt lat="42.73357938411144" lon="11.969961391846459"><ele>546.6666666666667</ele><time>2026-04-27T15:24:39Z</time></trkpt><trkpt lat="42.73362891018257" lon="11.97020990187637"><ele>546.3333333333334</ele><time>2026-04-27T15:24:40Z</time></trkpt><trkpt lat="42.733688096338376" lon="11.970469889052938"><ele>546.0</ele><time>2026-04-27T15:24:41Z</time></trkpt><trkpt lat="42.73374329843441" lon="11.970755636414829"><ele>547.0</ele><time>2026-04-27T15:24:42Z</time></trkpt><trkpt lat="42.733795988869865" lon="11.971057970695275"><ele>548.0</ele><time>2026-04-27T15:24:43Z</time></trkpt><trkpt lat="42.733850051108135" lon="11.971381670686503"><ele>548.0</ele><time>2026-04-27T15:24:44Z</time></trkpt><trkpt lat="42.73390744553702" lon="11.971722380508869"><ele>548.0</ele><time>2026-04-27T15:24:45Z</time></trkpt><trkpt lat="42.73397014225374" lon="11.972071780238997"><ele>548.0</ele><time>2026-04-27T15:24:46Z</time></trkpt><trkpt lat="42.73403293594959" lon="11.972433107707465"><ele>548.0</ele><time>2026-04-27T15:24:47Z</time></trkpt><trkpt lat="42.73409560282868" lon="11.972805451094693"><ele>548.5</ele><time>2026-04-27T15:24:48Z</time></trkpt><trkpt lat="42.73416430179173" lon="11.973190710016544"><ele>549.0</ele><time>2026-04-27T15:24:49Z</time></trkpt><trkpt lat="42.73423202702222" lon="11.973583229823713"><ele>549.5</ele><time>2026-04-27T15:24:50Z</time></trkpt><trkpt lat="42.7342995835448" lon="11.97396840834202"><ele>550.0</ele><time>2026-04-27T15:24:51Z</time></trkpt><trkpt lat="42.734360477638724" lon="11.974332021893028"><ele>550.5</ele><time>2026-04-27T15:24:52Z</time></trkpt><trkpt lat="42.73441568510948" lon="11.974668634640304"><ele>551.0</ele><time>2026-04-27T15:24:53Z</time></trkpt><trkpt lat="42.73447020589273" lon="11.974987995810013"><ele>551.0</ele><time>2026-04-27T15:24:54Z</time></trkpt><trkpt lat="42.73452626362753" lon="11.975298021231945"><ele>551.0</ele><time>2026-04-27T15:24:55Z</time></trkpt><trkpt lat="42.734581237079894" lon="11.975608539078017"><ele>550.5</ele><time>2026-04-27T15:24:56Z</time></trkpt><trkpt lat="42.734633264869046" lon="11.975914681526175"><ele>550.0</ele><time>2026-04-27T15:24:57Z</time></trkpt><trkpt lat="42.73468584183041" lon="11.97621709256538"><ele>550.0</ele><time>2026-04-27T15:24:58Z</time></trkpt><trkpt lat="42.73473617701531" lon="11.976520500220987"><ele>550.0</ele><time>2026-04-27T15:24:59Z</time></trkpt><trkpt lat="42.73478544917184" lon="11.976825969172056"><ele>551.5</ele><time>2026-04-27T15:25:00Z</time></trkpt><trkpt lat="42.73484117905299" lon="11.97714298089666"><ele>553.0</ele><time>2026-04-27T15:25:01Z</time></trkpt><trkpt lat="42.73489559873475" lon="11.977460760869954"><ele>553.5</ele><time>2026-04-27T15:25:02Z</time></trkpt><trkpt lat="42.734949244186026" lon="11.977777625563018"><ele>554.0</ele><time>2026-04-27T15:25:03Z</time></trkpt><trkpt lat="42.73500349393925" lon="11.97809738486138"><ele>553.5</ele><time>2026-04-27T15:25:04Z</time></trkpt><trkpt lat="42.735060152786325" lon="11.978417714168279"><ele>553.0</ele><time>2026-04-27T15:25:05Z</time></trkpt><trkpt lat="42.7351161612291" lon="11.97874281981505"><ele>553.0</ele><time>2026-04-27T15:25:06.001Z</time></trkpt><trkpt lat="42.735174482168304" lon="11.979071912499373"><ele>553.0</ele><time>2026-04-27T15:25:07.001Z</time></trkpt><trkpt lat="42.73523563415548" lon="11.97940724471178"><ele>552.5</ele><time>2026-04-27T15:25:08.001Z</time></trkpt><trkpt lat="42.73529328543466" lon="11.97974503260505"><ele>552.0</ele><time>2026-04-27T15:25:09.001Z</time></trkpt><trkpt lat="42.735349485258226" lon="11.980086055718376"><ele>552.0</ele><time>2026-04-27T15:25:10.001Z</time></trkpt><trkpt lat="42.73540819580844" lon="11.980429310658883"><ele>552.0</ele><time>2026-04-27T15:25:11.001Z</time></trkpt><trkpt lat="42.73546963557015" lon="11.980778744154886"><ele>552.5</ele><time>2026-04-27T15:25:12.001Z</time></trkpt><trkpt lat="42.73552209598428" lon="11.98112279112142"><ele>553.0</ele><time>2026-04-27T15:25:13.001Z</time></trkpt><trkpt lat="42.735585327543276" lon="11.981468500421386"><ele>553.0</ele><time>2026-04-27T15:25:14.001Z</time></trkpt><trkpt lat="42.735648497935316" lon="11.98181574725029"><ele>553.0</ele><time>2026-04-27T15:25:15.001Z</time></trkpt><trkpt lat="42.73570306696344" lon="11.982163582408914"><ele>553.0</ele><time>2026-04-27T15:25:16.001Z</time></trkpt><trkpt lat="42.73576336117184" lon="11.982507262833098"><ele>553.0</ele><time>2026-04-27T15:25:17.001Z</time></trkpt><trkpt lat="42.72432622154457" lon="11.98186951699761"><ele>549.5</ele><time>2026-04-27T15:26:18Z</time></trkpt><trkpt lat="42.72409730044284" lon="11.981973007299677"><ele>546.0</ele><time>2026-04-27T15:26:19Z</time></trkpt><trkpt lat="42.723862188592506" lon="11.982076242506691"><ele>546.0</ele><time>2026-04-27T15:26:20Z</time></trkpt><trkpt lat="42.723637694222795" lon="11.982179693453363"><ele>546.0</ele><time>2026-04-27T15:26:21Z</time></trkpt><trkpt lat="42.72343089642568" lon="11.982280308260561"><ele>544.0</ele><time>2026-04-27T15:26:22Z</time></trkpt><trkpt lat="42.723225445371234" lon="11.982367618944785"><ele>542.0</ele><time>2026-04-27T15:26:23Z</time></trkpt><trkpt lat="42.72303054490254" lon="11.982454583691075"><ele>540.0</ele><time>2026-04-27T15:26:24Z</time></trkpt><trkpt lat="42.72284960101416" lon="11.982532871101046"><ele>538.3333333333334</ele><time>2026-04-27T15:26:25Z</time></trkpt><trkpt lat="42.722676950421736" lon="11.982599423719574"><ele>536.6666666666667</ele><time>2026-04-27T15:26:26Z</time></trkpt><trkpt lat="42.7225072867649" lon="11.98265299886718"><ele>535.0</ele><time>2026-04-27T15:26:27Z</time></trkpt><trkpt lat="42.72233035100403" lon="11.982681173529391"><ele>535.0</ele><time>2026-04-27T15:26:28Z</time></trkpt><trkpt lat="42.722144101533395" lon="11.982676773847007"><ele>535.0</ele><time>2026-04-27T15:26:29Z</time></trkpt><trkpt lat="42.72194069858582" lon="11.98264769313698"><ele>535.0</ele><time>2026-04-27T15:26:30Z</time></trkpt><trkpt lat="42.72172724288546" lon="11.98261863625583"><ele>532.5</ele><time>2026-04-27T15:26:31Z</time></trkpt><trkpt lat="42.7215016262425" lon="11.982590199683555"><ele>530.0</ele><time>2026-04-27T15:26:32Z</time></trkpt><trkpt lat="42.72126940330471" lon="11.982561378113807"><ele>529.5</ele><time>2026-04-27T15:26:33Z</time></trkpt><trkpt lat="42.72102816655959" lon="11.982532990167414"><ele>529.0</ele><time>2026-04-27T15:26:34Z</time></trkpt><trkpt lat="42.720790781483345" lon="11.982499343336569"><ele>529.0</ele><time>2026-04-27T15:26:35Z</time></trkpt><trkpt lat="42.7205423570494" lon="11.982481551456926"><ele>529.0</ele><time>2026-04-27T15:26:36Z</time></trkpt><trkpt lat="42.720303015897024" lon="11.98246704750644"><ele>529.0</ele><time>2026-04-27T15:26:37Z</time></trkpt><trkpt lat="42.72006887147158" lon="11.982444969462811"><ele>529.0</ele><time>2026-04-27T15:26:38Z</time></trkpt><trkpt lat="42.71984092251746" lon="11.982420870446985"><ele>529.0</ele><time>2026-04-27T15:26:39Z</time></trkpt><trkpt lat="42.719619307339" lon="11.982399453513883"><ele>529.0</ele><time>2026-04-27T15:26:40Z</time></trkpt><trkpt lat="42.71940642655894" lon="11.982359288706252"><ele>529.0</ele><time>2026-04-27T15:26:41Z</time></trkpt><trkpt lat="42.71919089140093" lon="11.982290161280224"><ele>530.0</ele><time>2026-04-27T15:26:42Z</time></trkpt><trkpt lat="42.71897103317599" lon="11.982198618438442"><ele>531.0</ele><time>2026-04-27T15:26:43Z</time></trkpt><trkpt lat="42.71874092268443" lon="11.982097684550096"><ele>532.0</ele><time>2026-04-27T15:26:44Z</time></trkpt><trkpt lat="42.7185049311946" lon="11.981998758822106"><ele>533.0</ele><time>2026-04-27T15:26:45Z</time></trkpt><trkpt lat="42.71827156028114" lon="11.981900834143463"><ele>533.0</ele><time>2026-04-27T15:26:46Z</time></trkpt><trkpt lat="42.71806147053771" lon="11.981812652566749"><ele>533.0</ele><time>2026-04-27T15:26:47Z</time></trkpt><trkpt lat="42.7178528004424" lon="11.981725413302101"><ele>533.0</ele><time>2026-04-27T15:26:48Z</time></trkpt><trkpt lat="42.717658246638486" lon="11.981640244575797"><ele>534.3333333333333</ele><time>2026-04-27T15:26:49Z</time></trkpt><trkpt lat="42.71746893916926" lon="11.981569468136895"><ele>535.6666666666666</ele><time>2026-04-27T15:26:50Z</time></trkpt><trkpt lat="42.71727424455876" lon="11.981519524571931"><ele>537.0</ele><time>2026-04-27T15:26:51Z</time></trkpt><trkpt lat="42.71707170398359" lon="11.98148763894281"><ele>537.6666666666666</ele><time>2026-04-27T15:26:52Z</time></trkpt><trkpt lat="42.71686088565917" lon="11.981473487033396"><ele>538.3333333333333</ele><time>2026-04-27T15:26:53Z</time></trkpt><trkpt lat="42.716645083813695" lon="11.98146083885528"><ele>539.0</ele><time>2026-04-27T15:26:54Z</time></trkpt><trkpt lat="42.71641867184335" lon="11.981439535954046"><ele>539.0</ele><time>2026-04-27T15:26:55Z</time></trkpt><trkpt lat="42.716186615790335" lon="11.981416421316514"><ele>539.0</ele><time>2026-04-27T15:26:56Z</time></trkpt><trkpt lat="42.71596466107562" lon="11.981390837012007"><ele>540.0</ele><time>2026-04-27T15:26:57Z</time></trkpt><trkpt lat="42.715757066107265" lon="11.98137180700454"><ele>541.0</ele><time>2026-04-27T15:26:58Z</time></trkpt><trkpt lat="42.7155589345257" lon="11.981353641766791"><ele>542.0</ele><time>2026-04-27T15:26:59Z</time></trkpt><trkpt lat="42.71536418608526" lon="11.981336289183622"><ele>542.3333333333333</ele><time>2026-04-27T15:27:00Z</time></trkpt><trkpt lat="42.715165591646205" lon="11.981296782031142"><ele>542.6666666666666</ele><time>2026-04-27T15:27:01Z</time></trkpt><trkpt lat="42.71496294209139" lon="11.981252956369788"><ele>543.0</ele><time>2026-04-27T15:27:02Z</time></trkpt><trkpt lat="42.714758459393764" lon="11.981203748461178"><ele>543.0</ele><time>2026-04-27T15:27:03Z</time></trkpt><trkpt lat="42.71454890638005" lon="11.981149280602551"><ele>543.0</ele><time>2026-04-27T15:27:04Z</time></trkpt><trkpt lat="42.71434157043965" lon="11.98109795238312"><ele>543.0</ele><time>2026-04-27T15:27:05Z</time></trkpt><trkpt lat="42.71415066147321" lon="11.981047227402765"><ele>543.0</ele><time>2026-04-27T15:27:06.001Z</time></trkpt><trkpt lat="42.713973007292225" lon="11.981002271503531"><ele>543.0</ele><time>2026-04-27T15:27:07.001Z</time></trkpt><trkpt lat="42.71380274470317" lon="11.980958259875482"><ele>543.0</ele><time>2026-04-27T15:27:08.001Z</time></trkpt><trkpt lat="42.713641044473036" lon="11.980907069694139"><ele>542.0</ele><time>2026-04-27T15:27:09.001Z</time></trkpt><trkpt lat="42.71348863313443" lon="11.980840078612037"><ele>541.0</ele><time>2026-04-27T15:27:10.001Z</time></trkpt><trkpt lat="42.713354336558936" lon="11.98074627917813"><ele>540.0</ele><time>2026-04-27T15:27:11.001Z</time></trkpt><trkpt lat="42.71322907768746" lon="11.980621558874851"><ele>540.0</ele><time>2026-04-27T15:27:12.001Z</time></trkpt><trkpt lat="42.71311392433195" lon="11.980463388101422"><ele>540.0</ele><time>2026-04-27T15:27:13.001Z</time></trkpt><trkpt lat="42.71298642685016" lon="11.98029886058578"><ele>540.0</ele><time>2026-04-27T15:27:14.001Z</time></trkpt><trkpt lat="42.712858714719616" lon="11.980116605928117"><ele>540.3333333333334</ele><time>2026-04-27T15:27:15.001Z</time></trkpt><trkpt lat="42.712728160486805" lon="11.979935496272947"><ele>540.6666666666667</ele><time>2026-04-27T15:27:16.001Z</time></trkpt><trkpt lat="42.71260397526218" lon="11.9797653051199"><ele>541.0</ele><time>2026-04-27T15:27:17.001Z</time></trkpt><trkpt lat="42.705707521510725" lon="11.974510956214672"><ele>544.25</ele><time>2026-04-27T15:28:18Z</time></trkpt><trkpt lat="42.7056015196579" lon="11.974396731428014"><ele>547.5</ele><time>2026-04-27T15:28:19Z</time></trkpt><trkpt lat="42.7054976487506" lon="11.974278103226812"><ele>550.75</ele><time>2026-04-27T15:28:20Z</time></trkpt><trkpt lat="42.705398587333015" lon="11.974142842858042"><ele>554.0</ele><time>2026-04-27T15:28:21Z</time></trkpt><trkpt lat="42.705308714030295" lon="11.973997774506907"><ele>553.25</ele><time>2026-04-27T15:28:22Z</time></trkpt><trkpt lat="42.705214891581896" lon="11.973874906641768"><ele>552.5</ele><time>2026-04-27T15:28:23Z</time></trkpt><trkpt lat="42.705118118969914" lon="11.97372952850399"><ele>551.75</ele><time>2026-04-27T15:28:24Z</time></trkpt><trkpt lat="42.70503911426908" lon="11.973591898232003"><ele>551.0</ele><time>2026-04-27T15:28:25Z</time></trkpt><trkpt lat="42.704942928675784" lon="11.973457151956906"><ele>551.2</ele><time>2026-04-27T15:28:26Z</time></trkpt><trkpt lat="42.70485729235915" lon="11.973341844107876"><ele>551.4000000000001</ele><time>2026-04-27T15:28:27Z</time></trkpt><trkpt lat="42.70478100691808" lon="11.97323999656439"><ele>551.6</ele><time>2026-04-27T15:28:28Z</time></trkpt><trkpt lat="42.70469992422183" lon="11.973131666963049"><ele>551.8000000000001</ele><time>2026-04-27T15:28:29Z</time></trkpt><trkpt lat="42.70464007436788" lon="11.973053922459416"><ele>552.0</ele><time>2026-04-27T15:28:30Z</time></trkpt><trkpt lat="42.7045824437695" lon="11.973005325477287"><ele>552.0</ele><time>2026-04-27T15:28:31Z</time></trkpt><trkpt lat="42.7045434232254" lon="11.972929393201175"><ele>552.0</ele><time>2026-04-27T15:28:32Z</time></trkpt><trkpt lat="42.704483595150045" lon="11.972861898859218"><ele>552.0</ele><time>2026-04-27T15:28:33Z</time></trkpt><trkpt lat="42.70441747191643" lon="11.972785145571809"><ele>552.0</ele><time>2026-04-27T15:28:34Z</time></trkpt><trkpt lat="42.704344597204944" lon="11.972694525026947"><ele>552.0</ele><time>2026-04-27T15:28:35Z</time></trkpt><trkpt lat="42.70426316106033" lon="11.972585075283309"><ele>552.0</ele><time>2026-04-27T15:28:36Z</time></trkpt><trkpt lat="42.70417637710555" lon="11.972466903868824"><ele>551.25</ele><time>2026-04-27T15:28:37Z</time></trkpt><trkpt lat="42.704082937455844" lon="11.972346258055257"><ele>550.5</ele><time>2026-04-27T15:28:38Z</time></trkpt><trkpt lat="42.70398102912294" lon="11.972225540135737"><ele>549.75</ele><time>2026-04-27T15:28:39Z</time></trkpt><trkpt lat="42.7038700070888" lon="11.972089039286029"><ele>549.0</ele><time>2026-04-27T15:28:40Z</time></trkpt><trkpt lat="42.70375753355373" lon="11.971951292610362"><ele>549.0</ele><time>2026-04-27T15:28:41Z</time></trkpt><trkpt lat="42.70364194756007" lon="11.971807531816646"><ele>549.0</ele><time>2026-04-27T15:28:42Z</time></trkpt><trkpt lat="42.70352540098674" lon="11.971664890597527"><ele>549.0</ele><time>2026-04-27T15:28:43Z</time></trkpt><trkpt lat="42.70340866421413" lon="11.971519455865973"><ele>548.25</ele><time>2026-04-27T15:28:44Z</time></trkpt><trkpt lat="42.70329808437857" lon="11.97137476401632"><ele>547.5</ele><time>2026-04-27T15:28:45Z</time></trkpt><trkpt lat="42.70319531225168" lon="11.97125023263097"><ele>546.75</ele><time>2026-04-27T15:28:46Z</time></trkpt><trkpt lat="42.70309691130904" lon="11.971127137705912"><ele>546.0</ele><time>2026-04-27T15:28:47Z</time></trkpt><trkpt lat="42.702999431574035" lon="11.971004385781868"><ele>546.0</ele><time>2026-04-27T15:28:48Z</time></trkpt><trkpt lat="42.70290871768886" lon="11.970896602700348"><ele>546.0</ele><time>2026-04-27T15:28:49Z</time></trkpt><trkpt lat="42.70282483596934" lon="11.970796489791432"><ele>546.0</ele><time>2026-04-27T15:28:50Z</time></trkpt><trkpt lat="42.70274960674505" lon="11.970701320731788"><ele>546.0</ele><time>2026-04-27T15:28:51Z</time></trkpt><trkpt lat="42.70269015206575" lon="11.970625099897479"><ele>546.0</ele><time>2026-04-27T15:28:52Z</time></trkpt><trkpt lat="42.70264144062089" lon="11.97055803920065"><ele>546.0</ele><time>2026-04-27T15:28:53Z</time></trkpt><trkpt lat="42.70259185682508" lon="11.970489113248329"><ele>546.0</ele><time>2026-04-27T15:28:54Z</time></trkpt><trkpt lat="42.7025494206997" lon="11.970398072644555"><ele>546.0</ele><time>2026-04-27T15:28:55Z</time></trkpt><trkpt lat="42.70255022665772" lon="11.970250518048998"><ele>546.0</ele><time>2026-04-27T15:28:56Z</time></trkpt><trkpt lat="42.70253243425947" lon="11.97008805343822"><ele>546.0</ele><time>2026-04-27T15:28:57Z</time></trkpt><trkpt lat="42.70252211590129" lon="11.96990471749927"><ele>546.0</ele><time>2026-04-27T15:28:58Z</time></trkpt><trkpt lat="42.702508932049334" lon="11.969713231678814"><ele>546.0</ele><time>2026-04-27T15:28:59Z</time></trkpt><trkpt lat="42.70248410431179" lon="11.96949160728003"><ele>546.0</ele><time>2026-04-27T15:29:00Z</time></trkpt><trkpt lat="42.702466004003" lon="11.96926525752145"><ele>545.3333333333334</ele><time>2026-04-27T15:29:01Z</time></trkpt><trkpt lat="42.70244518313674" lon="11.96901827563465"><ele>544.6666666666667</ele><time>2026-04-27T15:29:02Z</time></trkpt><trkpt lat="42.702424083197634" lon="11.96875401775424"><ele>544.0</ele><time>2026-04-27T15:29:03Z</time></trkpt><trkpt lat="42.70239884246194" lon="11.968469428533288"><ele>544.3333333333334</ele><time>2026-04-27T15:29:04Z</time></trkpt><trkpt lat="42.70237227013609" lon="11.96817494753838"><ele>544.6666666666666</ele><time>2026-04-27T15:29:05Z</time></trkpt><trkpt lat="42.702348739406204" lon="11.96787851787175"><ele>545.0</ele><time>2026-04-27T15:29:06Z</time></trkpt><trkpt lat="42.702326887547976" lon="11.967586071791148"><ele>544.6666666666666</ele><time>2026-04-27T15:29:07Z</time></trkpt><trkpt lat="42.70229865264629" lon="11.967283990064388"><ele>544.3333333333334</ele><time>2026-04-27T15:29:08Z</time></trkpt><trkpt lat="42.70225997388464" lon="11.966986061605477"><ele>544.0</ele><time>2026-04-27T15:29:09Z</time></trkpt><trkpt lat="42.70220725682724" lon="11.966712282423376"><ele>543.3333333333334</ele><time>2026-04-27T15:29:10Z</time></trkpt><trkpt lat="42.70213844455158" lon="11.966445508522702"><ele>542.6666666666666</ele><time>2026-04-27T15:29:11Z</time></trkpt><trkpt lat="42.70204670076457" lon="11.966183712565023"><ele>542.0</ele><time>2026-04-27T15:29:12Z</time></trkpt><trkpt lat="42.70194280612773" lon="11.965929903154096"><ele>542.3333333333333</ele><time>2026-04-27T15:29:13Z</time></trkpt><trkpt lat="42.70184105517736" lon="11.965665926340009"><ele>542.6666666666666</ele><time>2026-04-27T15:29:14Z</time></trkpt><trkpt lat="42.70174732268859" lon="11.965381706670678"><ele>543.0</ele><time>2026-04-27T15:29:15Z</time></trkpt><trkpt lat="42.701655654214406" lon="11.965073700253336"><ele>542.5</ele><time>2026-04-27T15:29:16Z</time></trkpt><trkpt lat="42.70157180735837" lon="11.964759237730883"><ele>542.0</ele><time>2026-04-27T15:29:17Z</time></trkpt><trkpt lat="42.696098259930494" lon="11.950448683173155"><ele>540.0</ele><time>2026-04-27T15:30:18Z</time></trkpt><trkpt lat="42.696059625645084" lon="11.950187292398965"><ele>538.0</ele><time>2026-04-27T15:30:19Z</time></trkpt><trkpt lat="42.69600663436772" lon="11.949908539411858"><ele>536.0</ele><time>2026-04-27T15:30:20Z</time></trkpt><trkpt lat="42.69595871283138" lon="11.949637138668079"><ele>536.0</ele><time>2026-04-27T15:30:21Z</time></trkpt><trkpt lat="42.69591855032266" lon="11.94940475809926"><ele>536.0</ele><time>2026-04-27T15:30:22Z</time></trkpt><trkpt lat="42.6958772848671" lon="11.949195856013533"><ele>536.0</ele><time>2026-04-27T15:30:23Z</time></trkpt><trkpt lat="42.695885127345235" lon="11.948988536675232"><ele>535.6666666666666</ele><time>2026-04-27T15:30:24Z</time></trkpt><trkpt lat="42.69591751066563" lon="11.94875616941236"><ele>535.3333333333334</ele><time>2026-04-27T15:30:25Z</time></trkpt><trkpt lat="42.69599476163592" lon="11.948516105109194"><ele>535.0</ele><time>2026-04-27T15:30:26Z</time></trkpt><trkpt lat="42.696081473037204" lon="11.9482559846266"><ele>535.3333333333334</ele><time>2026-04-27T15:30:27Z</time></trkpt><trkpt lat="42.69616374595865" lon="11.94798951888131"><ele>535.6666666666666</ele><time>2026-04-27T15:30:28Z</time></trkpt><trkpt lat="42.696245525835906" lon="11.947717886080538"><ele>536.0</ele><time>2026-04-27T15:30:29Z</time></trkpt><trkpt lat="42.69633432725749" lon="11.947426230883963"><ele>536.0</ele><time>2026-04-27T15:30:30Z</time></trkpt><trkpt lat="42.69642277914533" lon="11.94711955178623"><ele>536.0</ele><time>2026-04-27T15:30:31Z</time></trkpt><trkpt lat="42.69650910698959" lon="11.94682103772768"><ele>536.6666666666666</ele><time>2026-04-27T15:30:32Z</time></trkpt><trkpt lat="42.696597562495256" lon="11.946542667710597"><ele>537.3333333333334</ele><time>2026-04-27T15:30:33Z</time></trkpt><trkpt lat="42.696685333845885" lon="11.946266030933282"><ele>538.0</ele><time>2026-04-27T15:30:34Z</time></trkpt><trkpt lat="42.696778061363716" lon="11.945984088617758"><ele>538.5</ele><time>2026-04-27T15:30:35Z</time></trkpt><trkpt lat="42.69688438811542" lon="11.945705425133985"><ele>539.0</ele><time>2026-04-27T15:30:36Z</time></trkpt><trkpt lat="42.69699296807724" lon="11.94542610811221"><ele>537.5</ele><time>2026-04-27T15:30:37Z</time></trkpt><trkpt lat="42.69710273894966" lon="11.94514334894128"><ele>536.0</ele><time>2026-04-27T15:30:38Z</time></trkpt><trkpt lat="42.697217383276374" lon="11.944861553906339"><ele>535.0</ele><time>2026-04-27T15:30:39Z</time></trkpt><trkpt lat="42.69733255750726" lon="11.944583110894799"><ele>534.0</ele><time>2026-04-27T15:30:40Z</time></trkpt><trkpt lat="42.69744477540633" lon="11.944300391561907"><ele>534.5</ele><time>2026-04-27T15:30:41Z</time></trkpt><trkpt lat="42.697554862229396" lon="11.944016585282553"><ele>535.0</ele><time>2026-04-27T15:30:42Z</time></trkpt><trkpt lat="42.69766138604686" lon="11.943729696774891"><ele>535.5</ele><time>2026-04-27T15:30:43Z</time></trkpt><trkpt lat="42.697757313645475" lon="11.943439760916213"><ele>536.0</ele><time>2026-04-27T15:30:44Z</time></trkpt><trkpt lat="42.697839876817646" lon="11.94313525300913"><ele>536.0</ele><time>2026-04-27T15:30:45Z</time></trkpt><trkpt lat="42.69791286416951" lon="11.942811132088888"><ele>536.0</ele><time>2026-04-27T15:30:46Z</time></trkpt><trkpt lat="42.69798980688447" lon="11.942478838268313"><ele>535.5</ele><time>2026-04-27T15:30:47Z</time></trkpt><trkpt lat="42.6980618573917" lon="11.942175278723349"><ele>535.0</ele><time>2026-04-27T15:30:48Z</time></trkpt><trkpt lat="42.69812876290643" lon="11.941895788430479"><ele>534.6666666666667</ele><time>2026-04-27T15:30:49Z</time></trkpt><trkpt lat="42.69819660710503" lon="11.941627424806061"><ele>534.3333333333334</ele><time>2026-04-27T15:30:50Z</time></trkpt><trkpt lat="42.69826694637779" lon="11.941358364985813"><ele>534.0</ele><time>2026-04-27T15:30:51Z</time></trkpt><trkpt lat="42.698336537610004" lon="11.941084123171262"><ele>534.6666666666666</ele><time>2026-04-27T15:30:52Z</time></trkpt><trkpt lat="42.698401418621074" lon="11.940800208483891"><ele>535.3333333333333</ele><time>2026-04-27T15:30:53Z</time></trkpt><trkpt lat="42.69846453203828" lon="11.940508938263719"><ele>536.0</ele><time>2026-04-27T15:30:54Z</time></trkpt><trkpt lat="42.6985291704108" lon="11.940226276067351"><ele>535.6666666666666</ele><time>2026-04-27T15:30:55Z</time></trkpt><trkpt lat="42.69859409762402" lon="11.939952609296679"><ele>535.3333333333334</ele><time>2026-04-27T15:30:56Z</time></trkpt><trkpt lat="42.6986606083793" lon="11.939673268824803"><ele>535.0</ele><time>2026-04-27T15:30:57Z</time></trkpt><trkpt lat="42.69872425451151" lon="11.939378802601157"><ele>535.5</ele><time>2026-04-27T15:30:58Z</time></trkpt><trkpt lat="42.698790647848384" lon="11.939068355251026"><ele>536.0</ele><time>2026-04-27T15:30:59Z</time></trkpt><trkpt lat="42.69886742389979" lon="11.938756725782453"><ele>536.0</ele><time>2026-04-27T15:31:00Z</time></trkpt><trkpt lat="42.698932776171745" lon="11.938469998415119"><ele>536.0</ele><time>2026-04-27T15:31:01Z</time></trkpt><trkpt lat="42.6989635281833" lon="11.938155061923954"><ele>535.0</ele><time>2026-04-27T15:31:02Z</time></trkpt><trkpt lat="42.69898416387164" lon="11.93781852088348"><ele>534.0</ele><time>2026-04-27T15:31:03Z</time></trkpt><trkpt lat="42.699031914001836" lon="11.937468060469804"><ele>534.0</ele><time>2026-04-27T15:31:04Z</time></trkpt><trkpt lat="42.69905438771282" lon="11.937118752003695"><ele>534.0</ele><time>2026-04-27T15:31:05Z</time></trkpt><trkpt lat="42.69909251371548" lon="11.936780532462771"><ele>534.0</ele><time>2026-04-27T15:31:06.001Z</time></trkpt><trkpt lat="42.69912315136883" lon="11.936462189208083"><ele>534.0</ele><time>2026-04-27T15:31:07Z</time></trkpt><trkpt lat="42.699150140650374" lon="11.93616833116475"><ele>534.0</ele><time>2026-04-27T15:31:08Z</time></trkpt><trkpt lat="42.69918182846013" lon="11.93589123934396"><ele>534.0</ele><time>2026-04-27T15:31:09Z</time></trkpt><trkpt lat="42.699207137648315" lon="11.935625388567926"><ele>534.0</ele><time>2026-04-27T15:31:10Z</time></trkpt><trkpt lat="42.699223429627544" lon="11.935351692381449"><ele>534.0</ele><time>2026-04-27T15:31:11Z</time></trkpt><trkpt lat="42.699211587802466" lon="11.935064164120021"><ele>534.0</ele><time>2026-04-27T15:31:12Z</time></trkpt><trkpt lat="42.69918998012378" lon="11.934764803856089"><ele>534.0</ele><time>2026-04-27T15:31:13Z</time></trkpt><trkpt lat="42.69916423094135" lon="11.934448767131855"><ele>533.5</ele><time>2026-04-27T15:31:14Z</time></trkpt><trkpt lat="42.699139402663405" lon="11.93413432488968"><ele>533.0</ele><time>2026-04-27T15:31:15Z</time></trkpt><trkpt lat="42.69911166436587" lon="11.933824953883946"><ele>533.0</ele><time>2026-04-27T15:31:16Z</time></trkpt><trkpt lat="42.69909198687242" lon="11.93352931409531"><ele>533.0</ele><time>2026-04-27T15:31:17Z</time></trkpt><trkpt lat="42.69586254580842" lon="11.919356357372697"><ele>540.3333333333333</ele><time>2026-04-27T15:32:18Z</time></trkpt><trkpt lat="42.69580729680544" lon="11.919119264671165"><ele>547.6666666666666</ele><time>2026-04-27T15:32:19Z</time></trkpt><trkpt lat="42.695739912560896" lon="11.918905154760305"><ele>555.0</ele><time>2026-04-27T15:32:20Z</time></trkpt><trkpt lat="42.69564590073676" lon="11.918718749452943"><ele>555.0</ele><time>2026-04-27T15:32:21Z</time></trkpt><trkpt lat="42.695536733641205" lon="11.918566092394858"><ele>555.0</ele><time>2026-04-27T15:32:22Z</time></trkpt><trkpt lat="42.695407033791035" lon="11.91844452635718"><ele>555.0</ele><time>2026-04-27T15:32:23Z</time></trkpt><trkpt lat="42.695236918483594" lon="11.918365704433867"><ele>554.6666666666666</ele><time>2026-04-27T15:32:24Z</time></trkpt><trkpt lat="42.69506387024663" lon="11.918240486406317"><ele>554.3333333333333</ele><time>2026-04-27T15:32:25Z</time></trkpt><trkpt lat="42.694869336676376" lon="11.918125658894695"><ele>554.0</ele><time>2026-04-27T15:32:26Z</time></trkpt><trkpt lat="42.694669444145966" lon="11.918007883596445"><ele>554.0</ele><time>2026-04-27T15:32:27Z</time></trkpt><trkpt lat="42.694465645180095" lon="11.917910463847535"><ele>554.0</ele><time>2026-04-27T15:32:28Z</time></trkpt><trkpt lat="42.69426012440576" lon="11.917786864731754"><ele>554.0</ele><time>2026-04-27T15:32:29Z</time></trkpt><trkpt lat="42.69405610410037" lon="11.917668942642605"><ele>553.3333333333333</ele><time>2026-04-27T15:32:30Z</time></trkpt><trkpt lat="42.69385844790298" lon="11.91754935791904"><ele>552.6666666666666</ele><time>2026-04-27T15:32:31Z</time></trkpt><trkpt lat="42.69366404500283" lon="11.917438500855683"><ele>552.0</ele><time>2026-04-27T15:32:32Z</time></trkpt><trkpt lat="42.693482632317455" lon="11.917326847566137"><ele>550.3333333333334</ele><time>2026-04-27T15:32:33Z</time></trkpt><trkpt lat="42.6933289854093" lon="11.917228753991283"><ele>548.6666666666667</ele><time>2026-04-27T15:32:34Z</time></trkpt><trkpt lat="42.693190431441344" lon="11.917138611644921"><ele>547.0</ele><time>2026-04-27T15:32:35Z</time></trkpt><trkpt lat="42.693069407010505" lon="11.917019815837438"><ele>547.0</ele><time>2026-04-27T15:32:36Z</time></trkpt><trkpt lat="42.69296738693468" lon="11.916861702955421"><ele>547.0</ele><time>2026-04-27T15:32:37Z</time></trkpt><trkpt lat="42.692888035497454" lon="11.916681123844558"><ele>547.0</ele><time>2026-04-27T15:32:38Z</time></trkpt><trkpt lat="42.69279202422332" lon="11.916507060038555"><ele>545.3333333333334</ele><time>2026-04-27T15:32:39Z</time></trkpt><trkpt lat="42.69265516860059" lon="11.916360080513451"><ele>543.6666666666666</ele><time>2026-04-27T15:32:40Z</time></trkpt><trkpt lat="42.69249961948648" lon="11.916210240883403"><ele>542.0</ele><time>2026-04-27T15:32:41Z</time></trkpt><trkpt lat="42.69234178572494" lon="11.916053736462798"><ele>543.3333333333333</ele><time>2026-04-27T15:32:42Z</time></trkpt><trkpt lat="42.69220995510795" lon="11.915882196436662"><ele>544.6666666666666</ele><time>2026-04-27T15:32:43Z</time></trkpt><trkpt lat="42.69209369720957" lon="11.915691676311257"><ele>546.0</ele><time>2026-04-27T15:32:44Z</time></trkpt><trkpt lat="42.69197933083292" lon="11.915490462258285"><ele>544.6666666666666</ele><time>2026-04-27T15:32:45Z</time></trkpt><trkpt lat="42.691868002176285" lon="11.915309841277642"><ele>543.3333333333333</ele><time>2026-04-27T15:32:46Z</time></trkpt><trkpt lat="42.69174774768502" lon="11.915151186077132"><ele>542.0</ele><time>2026-04-27T15:32:47Z</time></trkpt><trkpt lat="42.69161590369389" lon="11.915026722383693"><ele>542.0</ele><time>2026-04-27T15:32:48Z</time></trkpt><trkpt lat="42.69147544947011" lon="11.914929898847245"><ele>542.0</ele><time>2026-04-27T15:32:49Z</time></trkpt><trkpt lat="42.691304586536276" lon="11.914856766586437"><ele>542.0</ele><time>2026-04-27T15:32:50Z</time></trkpt><trkpt lat="42.69111888372759" lon="11.91479328660968"><ele>539.0</ele><time>2026-04-27T15:32:51Z</time></trkpt><trkpt lat="42.69092854182364" lon="11.914716722694562"><ele>536.0</ele><time>2026-04-27T15:32:52Z</time></trkpt><trkpt lat="42.69074573170498" lon="11.914632895474405"><ele>533.0</ele><time>2026-04-27T15:32:53Z</time></trkpt><trkpt lat="42.69057804621068" lon="11.914543824490321"><ele>533.0</ele><time>2026-04-27T15:32:54Z</time></trkpt><trkpt lat="42.69043481831264" lon="11.914450232574625"><ele>533.0</ele><time>2026-04-27T15:32:55Z</time></trkpt><trkpt lat="42.69031437262566" lon="11.914335427529162"><ele>533.0</ele><time>2026-04-27T15:32:56Z</time></trkpt><trkpt lat="42.69020670334378" lon="11.914177917632882"><ele>532.3333333333333</ele><time>2026-04-27T15:32:57Z</time></trkpt><trkpt lat="42.69008028816733" lon="11.913988618641824"><ele>531.6666666666666</ele><time>2026-04-27T15:32:58Z</time></trkpt><trkpt lat="42.689948928027" lon="11.913844132309695"><ele>531.0</ele><time>2026-04-27T15:32:59Z</time></trkpt><trkpt lat="42.68978564811805" lon="11.913718379931696"><ele>531.0</ele><time>2026-04-27T15:33:00Z</time></trkpt><trkpt lat="42.68961564038365" lon="11.913608101726869"><ele>531.0</ele><time>2026-04-27T15:33:01Z</time></trkpt><trkpt lat="42.689477329675746" lon="11.91351177691515"><ele>531.0</ele><time>2026-04-27T15:33:02Z</time></trkpt><trkpt lat="42.68936735780249" lon="11.913398256853718"><ele>530.5</ele><time>2026-04-27T15:33:03Z</time></trkpt><trkpt lat="42.68928082072815" lon="11.913252870428254"><ele>530.0</ele><time>2026-04-27T15:33:04Z</time></trkpt><trkpt lat="42.68922534120721" lon="11.913105063540797"><ele>529.5</ele><time>2026-04-27T15:33:05Z</time></trkpt><trkpt lat="42.6891777551831" lon="11.912960987026484"><ele>529.0</ele><time>2026-04-27T15:33:06Z</time></trkpt><trkpt lat="42.6891467093353" lon="11.91281937136976"><ele>529.0</ele><time>2026-04-27T15:33:07Z</time></trkpt><trkpt lat="42.68912807492274" lon="11.912653572616838"><ele>529.0</ele><time>2026-04-27T15:33:08Z</time></trkpt><trkpt lat="42.689134583707656" lon="11.91246755155368"><ele>529.0</ele><time>2026-04-27T15:33:09Z</time></trkpt><trkpt lat="42.68916108044397" lon="11.912294302652208"><ele>529.0</ele><time>2026-04-27T15:33:10Z</time></trkpt><trkpt lat="42.689203220279985" lon="11.912163564005786"><ele>529.1666666666667</ele><time>2026-04-27T15:33:11Z</time></trkpt><trkpt lat="42.68925304147759" lon="11.912054849228625"><ele>529.3333333333334</ele><time>2026-04-27T15:33:12Z</time></trkpt><trkpt lat="42.68928820944146" lon="11.91194381564541"><ele>529.5</ele><time>2026-04-27T15:33:13Z</time></trkpt><trkpt lat="42.68931811530842" lon="11.911831464458901"><ele>529.6666666666666</ele><time>2026-04-27T15:33:14Z</time></trkpt><trkpt lat="42.689333888975284" lon="11.911730873360236"><ele>529.8333333333333</ele><time>2026-04-27T15:33:15Z</time></trkpt><trkpt lat="42.68936438221702" lon="11.91162912986102"><ele>530.0</ele><time>2026-04-27T15:33:17Z</time></trkpt><trkpt lat="42.686539491639905" lon="11.912831113183836"><ele>526.0</ele><time>2026-04-27T15:34:18.001Z</time></trkpt><trkpt lat="42.68649994237358" lon="11.912743303843039"><ele>522.0</ele><time>2026-04-27T15:34:19.001Z</time></trkpt><trkpt lat="42.686480886871536" lon="11.912629895268932"><ele>518.0</ele><time>2026-04-27T15:34:20Z</time></trkpt><trkpt lat="42.68649545232846" lon="11.912489344765893"><ele>514.0</ele><time>2026-04-27T15:34:21Z</time></trkpt><trkpt lat="42.68649831087378" lon="11.912318749844044"><ele>510.0</ele><time>2026-04-27T15:34:22Z</time></trkpt><trkpt lat="42.68649175143572" lon="11.912130746436356"><ele>510.0</ele><time>2026-04-27T15:34:23Z</time></trkpt><trkpt lat="42.686499553251615" lon="11.91195988381828"><ele>510.0</ele><time>2026-04-27T15:34:24Z</time></trkpt><trkpt lat="42.686505979686316" lon="11.911825256547212"><ele>510.0</ele><time>2026-04-27T15:34:25Z</time></trkpt><trkpt lat="42.68651744561938" lon="11.911722729181474"><ele>510.0</ele><time>2026-04-27T15:34:26Z</time></trkpt><trkpt lat="42.68652141715021" lon="11.91163049553418"><ele>510.0</ele><time>2026-04-27T15:34:29Z</time></trkpt><trkpt lat="42.686377864259185" lon="11.911591998084639"><ele>509.4</ele><time>2026-04-27T15:34:30Z</time></trkpt><trkpt lat="42.68628066163614" lon="11.91157997888778"><ele>508.8</ele><time>2026-04-27T15:34:31Z</time></trkpt><trkpt lat="42.68618213732895" lon="11.911528377457358"><ele>508.20000000000005</ele><time>2026-04-27T15:34:32Z</time></trkpt><trkpt lat="42.68608179146332" lon="11.911496486274375"><ele>507.6</ele><time>2026-04-27T15:34:33Z</time></trkpt><trkpt lat="42.68598413108244" lon="11.911465919912581"><ele>507.0</ele><time>2026-04-27T15:34:34Z</time></trkpt><trkpt lat="42.68589269571956" lon="11.911437301921348"><ele>505.6</ele><time>2026-04-27T15:34:35Z</time></trkpt><trkpt lat="42.68582564751796" lon="11.911416316743397"><ele>504.20000000000005</ele><time>2026-04-27T15:34:36Z</time></trkpt><trkpt lat="42.685758998544785" lon="11.911415990315747"><ele>502.8</ele><time>2026-04-27T15:34:37Z</time></trkpt><trkpt lat="42.68565059765678" lon="11.911363327207667"><ele>501.4</ele><time>2026-04-27T15:34:39Z</time></trkpt><trkpt lat="42.685560885996736" lon="11.911298589718916"><ele>500.0</ele><time>2026-04-27T15:34:41Z</time></trkpt><trkpt lat="42.685566472503474" lon="11.911154179111628"><ele>500.0</ele><time>2026-04-27T15:34:42Z</time></trkpt><trkpt lat="42.68554614761916" lon="11.911013867881444"><ele>500.0</ele><time>2026-04-27T15:34:43Z</time></trkpt><trkpt lat="42.68550873131955" lon="11.91084649496463"><ele>500.0</ele><time>2026-04-27T15:34:44Z</time></trkpt><trkpt lat="42.6854797119859" lon="11.910692926700744"><ele>500.0</ele><time>2026-04-27T15:34:45Z</time></trkpt><trkpt lat="42.68546039415614" lon="11.910554225326294"><ele>499.3333333333333</ele><time>2026-04-27T15:34:46Z</time></trkpt><trkpt lat="42.68542864607021" lon="11.910427694063877"><ele>498.66666666666663</ele><time>2026-04-27T15:34:47Z</time></trkpt><trkpt lat="42.68538545055495" lon="11.910323888153542"><ele>498.0</ele><time>2026-04-27T15:34:48Z</time></trkpt><trkpt lat="42.68532550442993" lon="11.910239510593335"><ele>497.33333333333337</ele><time>2026-04-27T15:34:49Z</time></trkpt><trkpt lat="42.6852887951541" lon="11.910158455225481"><ele>496.6666666666667</ele><time>2026-04-27T15:34:50Z</time></trkpt><trkpt lat="42.685277643487765" lon="11.910064686730458"><ele>496.0</ele><time>2026-04-27T15:34:52Z</time></trkpt><trkpt lat="42.68502719840844" lon="11.91011312133048"><ele>494.20000000000005</ele><time>2026-04-27T15:34:56Z</time></trkpt><trkpt lat="42.684915103414596" lon="11.910172923262264"><ele>492.40000000000003</ele><time>2026-04-27T15:34:57Z</time></trkpt><trkpt lat="42.68481967531779" lon="11.910212917966616"><ele>490.6</ele><time>2026-04-27T15:34:58Z</time></trkpt><trkpt lat="42.68474502464271" lon="11.910261558293175"><ele>488.8</ele><time>2026-04-27T15:34:59Z</time></trkpt><trkpt lat="42.684689022041" lon="11.910303360264592"><ele>487.0</ele><time>2026-04-27T15:35:00Z</time></trkpt><trkpt lat="42.68461796270257" lon="11.910369085892459"><ele>487.0</ele><time>2026-04-27T15:35:02Z</time></trkpt><trkpt lat="42.68455597083545" lon="11.910394290856294"><ele>487.0</ele><time>2026-04-27T15:35:05Z</time></trkpt><trkpt lat="42.684581415354145" lon="11.910591178457507"><ele>487.0</ele><time>2026-04-27T15:35:06Z</time></trkpt><trkpt lat="42.68458565765408" lon="11.91072906141361"><ele>487.0</ele><time>2026-04-27T15:35:07Z</time></trkpt><trkpt lat="42.68459074598586" lon="11.910918551772674"><ele>486.6666666666667</ele><time>2026-04-27T15:35:08Z</time></trkpt><trkpt lat="42.68458551612978" lon="11.911142078060008"><ele>486.33333333333337</ele><time>2026-04-27T15:35:09Z</time></trkpt><trkpt lat="42.68458398387429" lon="11.91138064766044"><ele>486.0</ele><time>2026-04-27T15:35:10Z</time></trkpt><trkpt lat="42.684601395735925" lon="11.911630849526416"><ele>485.0</ele><time>2026-04-27T15:35:11Z</time></trkpt><trkpt lat="42.684625954693054" lon="11.911916590000754"><ele>484.0</ele><time>2026-04-27T15:35:12Z</time></trkpt><trkpt lat="42.684668936293654" lon="11.912189984588789"><ele>483.0</ele><time>2026-04-27T15:35:13Z</time></trkpt><trkpt lat="42.68470072111825" lon="11.912477331069244"><ele>481.33333333333337</ele><time>2026-04-27T15:35:14Z</time></trkpt><trkpt lat="42.68474883228832" lon="11.912761600332042"><ele>479.6666666666667</ele><time>2026-04-27T15:35:15Z</time></trkpt><trkpt lat="42.684794179978404" lon="11.913029819173858"><ele>478.0</ele><time>2026-04-27T15:35:16Z</time></trkpt><trkpt lat="42.68485196195565" lon="11.913289143681485"><ele>389.0</ele><time>2026-04-27T15:35:17Z</time></trkpt><trkpt lat="42.6746784171122" lon="11.918614693960485"><ele>389.0</ele><time>2026-04-27T15:36:18Z</time></trkpt><trkpt lat="42.6744848316718" lon="11.918614562147365"><ele>389.0</ele><time>2026-04-27T15:36:19Z</time></trkpt><trkpt lat="42.674284346926065" lon="11.918611161983044"><ele>389.0</ele><time>2026-04-27T15:36:20Z</time></trkpt><trkpt lat="42.67408521258217" lon="11.918612394403446"><ele>387.3333333333333</ele><time>2026-04-27T15:36:21Z</time></trkpt><trkpt lat="42.6738809277712" lon="11.918630281971039"><ele>385.66666666666663</ele><time>2026-04-27T15:36:22Z</time></trkpt><trkpt lat="42.67367601624824" lon="11.9186375351651"><ele>384.0</ele><time>2026-04-27T15:36:23Z</time></trkpt><trkpt lat="42.67346969636197" lon="11.918642149259277"><ele>382.0</ele><time>2026-04-27T15:36:24Z</time></trkpt><trkpt lat="42.67326037081743" lon="11.91864627595738"><ele>380.0</ele><time>2026-04-27T15:36:25Z</time></trkpt><trkpt lat="42.67305015860901" lon="11.918652961441136"><ele>378.0</ele><time>2026-04-27T15:36:26Z</time></trkpt><trkpt lat="42.67283840247427" lon="11.918661719550398"><ele>377.0</ele><time>2026-04-27T15:36:27Z</time></trkpt><trkpt lat="42.672628210460026" lon="11.918675767109853"><ele>376.0</ele><time>2026-04-27T15:36:28Z</time></trkpt><trkpt lat="42.672414363133576" lon="11.9186824187298"><ele>375.0</ele><time>2026-04-27T15:36:29Z</time></trkpt><trkpt lat="42.672203110827155" lon="11.918688755639256"><ele>375.0</ele><time>2026-04-27T15:36:30Z</time></trkpt><trkpt lat="42.671993580665486" lon="11.918690850479326"><ele>375.0</ele><time>2026-04-27T15:36:31Z</time></trkpt><trkpt lat="42.67178804266273" lon="11.918694111249943"><ele>375.0</ele><time>2026-04-27T15:36:32Z</time></trkpt><trkpt lat="42.671599208523475" lon="11.918702573278424"><ele>376.6666666666667</ele><time>2026-04-27T15:36:33Z</time></trkpt><trkpt lat="42.67141115164503" lon="11.918711081878042"><ele>378.33333333333337</ele><time>2026-04-27T15:36:34Z</time></trkpt><trkpt lat="42.67122435898677" lon="11.918708967294403"><ele>380.0</ele><time>2026-04-27T15:36:35Z</time></trkpt><trkpt lat="42.67103469899658" lon="11.918678137547376"><ele>380.6666666666667</ele><time>2026-04-27T15:36:36Z</time></trkpt><trkpt lat="42.670845773049855" lon="11.91862334577893"><ele>381.3333333333333</ele><time>2026-04-27T15:36:37Z</time></trkpt><trkpt lat="42.67065854984874" lon="11.918548565148177"><ele>382.0</ele><time>2026-04-27T15:36:38Z</time></trkpt><trkpt lat="42.670472763918454" lon="11.918459406260254"><ele>380.3333333333333</ele><time>2026-04-27T15:36:39Z</time></trkpt><trkpt lat="42.67028585135719" lon="11.918346333682056"><ele>378.6666666666667</ele><time>2026-04-27T15:36:40Z</time></trkpt><trkpt lat="42.67010759656023" lon="11.918205438756448"><ele>377.0</ele><time>2026-04-27T15:36:41Z</time></trkpt><trkpt lat="42.669946718356705" lon="11.918059060967867"><ele>377.0</ele><time>2026-04-27T15:36:42Z</time></trkpt><trkpt lat="42.66979929941443" lon="11.91789480201016"><ele>377.0</ele><time>2026-04-27T15:36:43Z</time></trkpt><trkpt lat="42.669663490316964" lon="11.917716880384756"><ele>377.0</ele><time>2026-04-27T15:36:44Z</time></trkpt><trkpt lat="42.6695284371661" lon="11.91751832088393"><ele>376.0</ele><time>2026-04-27T15:36:45Z</time></trkpt><trkpt lat="42.66940369654434" lon="11.917303846861723"><ele>375.0</ele><time>2026-04-27T15:36:46Z</time></trkpt><trkpt lat="42.66928942899551" lon="11.917069326815655"><ele>374.0</ele><time>2026-04-27T15:36:47Z</time></trkpt><trkpt lat="42.66919105839548" lon="11.91681401573078"><ele>373.6666666666667</ele><time>2026-04-27T15:36:48Z</time></trkpt><trkpt lat="42.66911222014632" lon="11.91654230904941"><ele>373.3333333333333</ele><time>2026-04-27T15:36:49Z</time></trkpt><trkpt lat="42.669051081525424" lon="11.916254773863457"><ele>373.0</ele><time>2026-04-27T15:36:50Z</time></trkpt><trkpt lat="42.66899256413669" lon="11.915974190195842"><ele>373.0</ele><time>2026-04-27T15:36:51Z</time></trkpt><trkpt lat="42.668937644901156" lon="11.915729206006"><ele>373.0</ele><time>2026-04-27T15:36:52Z</time></trkpt><trkpt lat="42.668895784879055" lon="11.915508333914008"><ele>373.0</ele><time>2026-04-27T15:36:53Z</time></trkpt><trkpt lat="42.66887977391941" lon="11.91529561231959"><ele>371.0</ele><time>2026-04-27T15:36:54Z</time></trkpt><trkpt lat="42.6688902321782" lon="11.915057461439595"><ele>369.0</ele><time>2026-04-27T15:36:55Z</time></trkpt><trkpt lat="42.668928819481806" lon="11.914787688525912"><ele>367.0</ele><time>2026-04-27T15:36:56Z</time></trkpt><trkpt lat="42.668975959544795" lon="11.914487896061964"><ele>366.3333333333333</ele><time>2026-04-27T15:36:57Z</time></trkpt><trkpt lat="42.669019730491634" lon="11.91420368680129"><ele>365.6666666666667</ele><time>2026-04-27T15:36:58Z</time></trkpt><trkpt lat="42.66906332622256" lon="11.91394112523808"><ele>365.0</ele><time>2026-04-27T15:36:59Z</time></trkpt><trkpt lat="42.669092272810744" lon="11.91369210202925"><ele>365.0</ele><time>2026-04-27T15:37:00Z</time></trkpt><trkpt lat="42.66910588798911" lon="11.913447182177055"><ele>365.0</ele><time>2026-04-27T15:37:01Z</time></trkpt><trkpt lat="42.66909207009523" lon="11.91317624212168"><ele>365.0</ele><time>2026-04-27T15:37:02Z</time></trkpt><trkpt lat="42.669065517709996" lon="11.91287355669991"><ele>363.6666666666667</ele><time>2026-04-27T15:37:03Z</time></trkpt><trkpt lat="42.669038813564626" lon="11.912577683954503"><ele>362.3333333333333</ele><time>2026-04-27T15:37:04Z</time></trkpt><trkpt lat="42.66902793717632" lon="11.912319438288595"><ele>361.0</ele><time>2026-04-27T15:37:05Z</time></trkpt><trkpt lat="42.668991424351624" lon="11.912084392532593"><ele>359.0</ele><time>2026-04-27T15:37:06Z</time></trkpt><trkpt lat="42.66890952176908" lon="11.911850467514501"><ele>357.0</ele><time>2026-04-27T15:37:07Z</time></trkpt><trkpt lat="42.66878599767065" lon="11.911601232284776"><ele>355.0</ele><time>2026-04-27T15:37:08Z</time></trkpt><trkpt lat="42.66866579972424" lon="11.911369899009067"><ele>356.0</ele><time>2026-04-27T15:37:09Z</time></trkpt><trkpt lat="42.66856298914795" lon="11.911126554818756"><ele>357.0</ele><time>2026-04-27T15:37:10Z</time></trkpt><trkpt lat="42.66848458819216" lon="11.910859231328327"><ele>358.0</ele><time>2026-04-27T15:37:11Z</time></trkpt><trkpt lat="42.668420350319465" lon="11.910601269246701"><ele>358.0</ele><time>2026-04-27T15:37:12Z</time></trkpt><trkpt lat="42.6683774483369" lon="11.910352260845695"><ele>358.0</ele><time>2026-04-27T15:37:13Z</time></trkpt><trkpt lat="42.66835009261897" lon="11.910139949257335"><ele>358.0</ele><time>2026-04-27T15:37:14Z</time></trkpt><trkpt lat="42.66833193583625" lon="11.909959347608549"><ele>355.0</ele><time>2026-04-27T15:37:15Z</time></trkpt><trkpt lat="42.668303602279906" lon="11.909729264907874"><ele>352.0</ele><time>2026-04-27T15:37:16Z</time></trkpt><trkpt lat="42.66820870258012" lon="11.909310443892917"><ele>315.0</ele><time>2026-04-27T15:37:17Z</time></trkpt><trkpt lat="42.65809417711126" lon="11.910914781426781"><ele>315.0</ele><time>2026-04-27T15:38:18Z</time></trkpt><trkpt lat="42.657981123551544" lon="11.911144027613673"><ele>315.0</ele><time>2026-04-27T15:38:19Z</time></trkpt><trkpt lat="42.65788189727332" lon="11.911422695955268"><ele>315.0</ele><time>2026-04-27T15:38:20Z</time></trkpt><trkpt lat="42.657777455311475" lon="11.911708453361802"><ele>315.0</ele><time>2026-04-27T15:38:21Z</time></trkpt><trkpt lat="42.65767322530409" lon="11.911977808622474"><ele>315.0</ele><time>2026-04-27T15:38:22Z</time></trkpt><trkpt lat="42.657572003243075" lon="11.912224156197983"><ele>315.0</ele><time>2026-04-27T15:38:23Z</time></trkpt><trkpt lat="42.65746780173619" lon="11.912450667413538"><ele>315.6666666666667</ele><time>2026-04-27T15:38:24Z</time></trkpt><trkpt lat="42.6573644221721" lon="11.912663394669863"><ele>316.33333333333337</ele><time>2026-04-27T15:38:25Z</time></trkpt><trkpt lat="42.65725029207629" lon="11.91288977549642"><ele>317.0</ele><time>2026-04-27T15:38:26Z</time></trkpt><trkpt lat="42.657136315819656" lon="11.913119644873447"><ele>317.0</ele><time>2026-04-27T15:38:27Z</time></trkpt><trkpt lat="42.657044742629004" lon="11.91334429282941"><ele>317.0</ele><time>2026-04-27T15:38:28Z</time></trkpt><trkpt lat="42.65693748833809" lon="11.913545705718041"><ele>317.0</ele><time>2026-04-27T15:38:29Z</time></trkpt><trkpt lat="42.656849124009725" lon="11.913745693997022"><ele>316.0</ele><time>2026-04-27T15:38:30Z</time></trkpt><trkpt lat="42.65675095801682" lon="11.91395560539584"><ele>315.0</ele><time>2026-04-27T15:38:31Z</time></trkpt><trkpt lat="42.656642510209416" lon="11.914168611065671"><ele>314.0</ele><time>2026-04-27T15:38:32Z</time></trkpt><trkpt lat="42.65654497876148" lon="11.914398480865959"><ele>314.0</ele><time>2026-04-27T15:38:33Z</time></trkpt><trkpt lat="42.656442100751285" lon="11.91462766713074"><ele>314.0</ele><time>2026-04-27T15:38:34Z</time></trkpt><trkpt lat="42.65634171278331" lon="11.91488675981236"><ele>314.0</ele><time>2026-04-27T15:38:35Z</time></trkpt><trkpt lat="42.65624890261097" lon="11.915173663454471"><ele>314.0</ele><time>2026-04-27T15:38:36Z</time></trkpt><trkpt lat="42.65616436004298" lon="11.91543387337741"><ele>314.0</ele><time>2026-04-27T15:38:37Z</time></trkpt><trkpt lat="42.656086337872324" lon="11.915690143621994"><ele>314.0</ele><time>2026-04-27T15:38:38Z</time></trkpt><trkpt lat="42.6560122504563" lon="11.915950908138221"><ele>312.6666666666667</ele><time>2026-04-27T15:38:39Z</time></trkpt><trkpt lat="42.65594024469533" lon="11.916210510983497"><ele>311.3333333333333</ele><time>2026-04-27T15:38:40Z</time></trkpt><trkpt lat="42.65587791643056" lon="11.916463389175167"><ele>310.0</ele><time>2026-04-27T15:38:41Z</time></trkpt><trkpt lat="42.655809449249496" lon="11.916728851098346"><ele>310.0</ele><time>2026-04-27T15:38:42Z</time></trkpt><trkpt lat="42.65574629672201" lon="11.917000202886564"><ele>310.0</ele><time>2026-04-27T15:38:43Z</time></trkpt><trkpt lat="42.65568615892881" lon="11.917277756372172"><ele>310.0</ele><time>2026-04-27T15:38:44Z</time></trkpt><trkpt lat="42.65562844763815" lon="11.917556127963852"><ele>310.3333333333333</ele><time>2026-04-27T15:38:45Z</time></trkpt><trkpt lat="42.65557888047522" lon="11.917836869799046"><ele>310.6666666666667</ele><time>2026-04-27T15:38:46Z</time></trkpt><trkpt lat="42.655541222108454" lon="11.918114573419505"><ele>311.0</ele><time>2026-04-27T15:38:47Z</time></trkpt><trkpt lat="42.655511935844" lon="11.918383486891447"><ele>310.6666666666667</ele><time>2026-04-27T15:38:48Z</time></trkpt><trkpt lat="42.65549447658564" lon="11.918660187803301"><ele>310.3333333333333</ele><time>2026-04-27T15:38:49Z</time></trkpt><trkpt lat="42.65550229973625" lon="11.918945023507256"><ele>310.0</ele><time>2026-04-27T15:38:50Z</time></trkpt><trkpt lat="42.65553043799161" lon="11.91924538811426"><ele>309.5</ele><time>2026-04-27T15:38:51Z</time></trkpt><trkpt lat="42.65556313062992" lon="11.91956351492316"><ele>309.0</ele><time>2026-04-27T15:38:52Z</time></trkpt><trkpt lat="42.655598366873114" lon="11.919898969945876"><ele>308.5</ele><time>2026-04-27T15:38:53Z</time></trkpt><trkpt lat="42.65564465022081" lon="11.920236736555674"><ele>308.0</ele><time>2026-04-27T15:38:54Z</time></trkpt><trkpt lat="42.6556937747606" lon="11.920561731934718"><ele>308.0</ele><time>2026-04-27T15:38:55Z</time></trkpt><trkpt lat="42.65574249837751" lon="11.920877844426789"><ele>308.0</ele><time>2026-04-27T15:38:56Z</time></trkpt><trkpt lat="42.65579419718125" lon="11.921192708570711"><ele>309.0</ele><time>2026-04-27T15:38:57Z</time></trkpt><trkpt lat="42.6558497110802" lon="11.921509507912015"><ele>310.0</ele><time>2026-04-27T15:38:58Z</time></trkpt><trkpt lat="42.655908566064106" lon="11.921830779237771"><ele>310.0</ele><time>2026-04-27T15:38:59Z</time></trkpt><trkpt lat="42.65597391511448" lon="11.922147973976314"><ele>310.0</ele><time>2026-04-27T15:39:00Z</time></trkpt><trkpt lat="42.65605113897579" lon="11.92246430347023"><ele>309.5</ele><time>2026-04-27T15:39:01Z</time></trkpt><trkpt lat="42.65611525897506" lon="11.922779144398865"><ele>309.0</ele><time>2026-04-27T15:39:02Z</time></trkpt><trkpt lat="42.656197217599804" lon="11.923073427637755"><ele>310.0</ele><time>2026-04-27T15:39:03Z</time></trkpt><trkpt lat="42.65624499219311" lon="11.92338355158402"><ele>311.0</ele><time>2026-04-27T15:39:04Z</time></trkpt><trkpt lat="42.65627776760223" lon="11.923708555365293"><ele>311.0</ele><time>2026-04-27T15:39:05Z</time></trkpt><trkpt lat="42.6562957936648" lon="11.92404383410725"><ele>311.0</ele><time>2026-04-27T15:39:06Z</time></trkpt><trkpt lat="42.656299293283546" lon="11.924384923350397"><ele>311.0</ele><time>2026-04-27T15:39:07Z</time></trkpt><trkpt lat="42.65628871454308" lon="11.9247371116215"><ele>311.0</ele><time>2026-04-27T15:39:08Z</time></trkpt><trkpt lat="42.65627822761718" lon="11.92507232824053"><ele>311.0</ele><time>2026-04-27T15:39:09Z</time></trkpt><trkpt lat="42.65627838048111" lon="11.925406113866785"><ele>311.0</ele><time>2026-04-27T15:39:10Z</time></trkpt><trkpt lat="42.65629253830418" lon="11.925737699142006"><ele>311.0</ele><time>2026-04-27T15:39:11Z</time></trkpt><trkpt lat="42.656306430230984" lon="11.926058682109884"><ele>311.0</ele><time>2026-04-27T15:39:12Z</time></trkpt><trkpt lat="42.656323867161646" lon="11.926363448862766"><ele>311.0</ele><time>2026-04-27T15:39:13Z</time></trkpt><trkpt lat="42.656323771394085" lon="11.926672918450613"><ele>311.0</ele><time>2026-04-27T15:39:14Z</time></trkpt><trkpt lat="42.656339437542556" lon="11.92698393459455"><ele>311.0</ele><time>2026-04-27T15:39:15Z</time></trkpt><trkpt lat="42.65635679880358" lon="11.927292987673358"><ele>311.0</ele><time>2026-04-27T15:39:16Z</time></trkpt><trkpt lat="42.65637918478232" lon="11.927608974191712"><ele>306.0</ele><time>2026-04-27T15:39:17Z</time></trkpt><trkpt lat="42.65256281975329" lon="11.946343309185313"><ele>306.0</ele><time>2026-04-27T15:40:18Z</time></trkpt><trkpt lat="42.65255133040938" lon="11.94661928385562"><ele>306.0</ele><time>2026-04-27T15:40:19Z</time></trkpt><trkpt lat="42.65255683101828" lon="11.946911757544678"><ele>306.0</ele><time>2026-04-27T15:40:20Z</time></trkpt><trkpt lat="42.6525533485163" lon="11.947223113831331"><ele>305.5</ele><time>2026-04-27T15:40:21Z</time></trkpt><trkpt lat="42.65253900620926" lon="11.947547275599893"><ele>305.0</ele><time>2026-04-27T15:40:22Z</time></trkpt><trkpt lat="42.6525146132932" lon="11.947880464452169"><ele>305.0</ele><time>2026-04-27T15:40:23Z</time></trkpt><trkpt lat="42.65248278431455" lon="11.948229595134533"><ele>305.0</ele><time>2026-04-27T15:40:24Z</time></trkpt><trkpt lat="42.652451748213146" lon="11.94858548497686"><ele>305.5</ele><time>2026-04-27T15:40:25Z</time></trkpt><trkpt lat="42.65242140178954" lon="11.948958980781729"><ele>306.0</ele><time>2026-04-27T15:40:26Z</time></trkpt><trkpt lat="42.65239322041386" lon="11.949340051768813"><ele>306.0</ele><time>2026-04-27T15:40:27Z</time></trkpt><trkpt lat="42.65236354615202" lon="11.949729842100588"><ele>306.0</ele><time>2026-04-27T15:40:28Z</time></trkpt><trkpt lat="42.65232997300726" lon="11.95012520641583"><ele>306.0</ele><time>2026-04-27T15:40:29Z</time></trkpt><trkpt lat="42.65229872395182" lon="11.950521192058384"><ele>306.0</ele><time>2026-04-27T15:40:30Z</time></trkpt><trkpt lat="42.65226581534756" lon="11.950910948359892"><ele>306.0</ele><time>2026-04-27T15:40:31Z</time></trkpt><trkpt lat="42.65223360089126" lon="11.951293489231178"><ele>306.0</ele><time>2026-04-27T15:40:32Z</time></trkpt><trkpt lat="42.652198924582976" lon="11.951679701628196"><ele>306.5</ele><time>2026-04-27T15:40:33Z</time></trkpt><trkpt lat="42.652163841227335" lon="11.952069639185506"><ele>307.0</ele><time>2026-04-27T15:40:34Z</time></trkpt><trkpt lat="42.65212799731968" lon="11.952458523711677"><ele>307.0</ele><time>2026-04-27T15:40:35Z</time></trkpt><trkpt lat="42.65208300554923" lon="11.952850460727824"><ele>307.0</ele><time>2026-04-27T15:40:36Z</time></trkpt><trkpt lat="42.65203432390227" lon="11.953250074117474"><ele>307.0</ele><time>2026-04-27T15:40:37Z</time></trkpt><trkpt lat="42.65198024618774" lon="11.95364795520631"><ele>307.0</ele><time>2026-04-27T15:40:38Z</time></trkpt><trkpt lat="42.65193060545851" lon="11.954044555812187"><ele>307.0</ele><time>2026-04-27T15:40:39Z</time></trkpt><trkpt lat="42.651878424840525" lon="11.954439182383771"><ele>307.0</ele><time>2026-04-27T15:40:40Z</time></trkpt><trkpt lat="42.651826681117456" lon="11.954825688437374"><ele>308.0</ele><time>2026-04-27T15:40:41Z</time></trkpt><trkpt lat="42.65177697673054" lon="11.955207902832992"><ele>309.0</ele><time>2026-04-27T15:40:42Z</time></trkpt><trkpt lat="42.65172727215511" lon="11.955586390784976"><ele>308.5</ele><time>2026-04-27T15:40:43Z</time></trkpt><trkpt lat="42.65167994287483" lon="11.955966275713038"><ele>308.0</ele><time>2026-04-27T15:40:44Z</time></trkpt><trkpt lat="42.651623843859575" lon="11.95634777516248"><ele>307.5</ele><time>2026-04-27T15:40:45Z</time></trkpt><trkpt lat="42.65156548079789" lon="11.956719660339816"><ele>307.0</ele><time>2026-04-27T15:40:46Z</time></trkpt><trkpt lat="42.65151946902656" lon="11.957096249612935"><ele>307.0</ele><time>2026-04-27T15:40:47Z</time></trkpt><trkpt lat="42.65146839742271" lon="11.957473542820143"><ele>307.0</ele><time>2026-04-27T15:40:48Z</time></trkpt><trkpt lat="42.65141684721682" lon="11.957844987638493"><ele>306.5</ele><time>2026-04-27T15:40:49Z</time></trkpt><trkpt lat="42.6513660576813" lon="11.958216415346762"><ele>306.0</ele><time>2026-04-27T15:40:50Z</time></trkpt><trkpt lat="42.651316860494006" lon="11.958589987181735"><ele>306.0</ele><time>2026-04-27T15:40:51Z</time></trkpt><trkpt lat="42.65126775941157" lon="11.95896856836787"><ele>306.0</ele><time>2026-04-27T15:40:52Z</time></trkpt><trkpt lat="42.65121778981536" lon="11.959343207669296"><ele>306.0</ele><time>2026-04-27T15:40:53Z</time></trkpt><trkpt lat="42.65116740946732" lon="11.959714668512772"><ele>306.0</ele><time>2026-04-27T15:40:54Z</time></trkpt><trkpt lat="42.65111741719451" lon="11.960087174797357"><ele>306.0</ele><time>2026-04-27T15:40:55Z</time></trkpt><trkpt lat="42.65107159578735" lon="11.960459873706627"><ele>306.0</ele><time>2026-04-27T15:40:56Z</time></trkpt><trkpt lat="42.65102692480219" lon="11.96083478299207"><ele>307.0</ele><time>2026-04-27T15:40:57Z</time></trkpt><trkpt lat="42.65098036009229" lon="11.961206198285051"><ele>308.0</ele><time>2026-04-27T15:40:58Z</time></trkpt><trkpt lat="42.650937956685425" lon="11.96158165885384"><ele>307.5</ele><time>2026-04-27T15:40:59Z</time></trkpt><trkpt lat="42.65089683226048" lon="11.961951361732812"><ele>307.0</ele><time>2026-04-27T15:41:00Z</time></trkpt><trkpt lat="42.65085320274663" lon="11.96232109039182"><ele>306.5</ele><time>2026-04-27T15:41:01Z</time></trkpt><trkpt lat="42.65080787694693" lon="11.962692466552905"><ele>306.0</ele><time>2026-04-27T15:41:02Z</time></trkpt><trkpt lat="42.650760258732554" lon="11.963062390723767"><ele>306.5</ele><time>2026-04-27T15:41:03Z</time></trkpt><trkpt lat="42.65071609444647" lon="11.963430028935912"><ele>307.0</ele><time>2026-04-27T15:41:04Z</time></trkpt><trkpt lat="42.65066574552617" lon="11.963785540598991"><ele>307.0</ele><time>2026-04-27T15:41:05Z</time></trkpt><trkpt lat="42.650622315839" lon="11.964133354377994"><ele>307.0</ele><time>2026-04-27T15:41:06Z</time></trkpt><trkpt lat="42.65057387327325" lon="11.964478653853604"><ele>307.0</ele><time>2026-04-27T15:41:07Z</time></trkpt><trkpt lat="42.65053288535975" lon="11.964814743286043"><ele>307.0</ele><time>2026-04-27T15:41:08Z</time></trkpt><trkpt lat="42.650488321531405" lon="11.96515912920154"><ele>307.0</ele><time>2026-04-27T15:41:09Z</time></trkpt><trkpt lat="42.650431807021356" lon="11.965503074957873"><ele>307.0</ele><time>2026-04-27T15:41:10Z</time></trkpt><trkpt lat="42.650387513955046" lon="11.965833941460538"><ele>307.0</ele><time>2026-04-27T15:41:11Z</time></trkpt><trkpt lat="42.650342157650435" lon="11.966127496272064"><ele>307.0</ele><time>2026-04-27T15:41:12Z</time></trkpt><trkpt lat="42.650304148698304" lon="11.966400778431943"><ele>307.0</ele><time>2026-04-27T15:41:13Z</time></trkpt><trkpt lat="42.6502593915956" lon="11.966652426409114"><ele>307.0</ele><time>2026-04-27T15:41:14Z</time></trkpt><trkpt lat="42.65021528608128" lon="11.9668929924879"><ele>307.0</ele><time>2026-04-27T15:41:15Z</time></trkpt><trkpt lat="42.65017206063292" lon="11.967137115991887"><ele>307.0</ele><time>2026-04-27T15:41:16Z</time></trkpt><trkpt lat="42.65012965562111" lon="11.967385933548812"><ele>320.0</ele><time>2026-04-27T15:41:17Z</time></trkpt><trkpt lat="42.6468413628699" lon="11.981899912842273"><ele>320.0</ele><time>2026-04-27T15:42:18Z</time></trkpt><trkpt lat="42.646912722604355" lon="11.98193058467751"><ele>320.0</ele><time>2026-04-27T15:42:19Z</time></trkpt><trkpt lat="42.64700443843989" lon="11.98196065606731"><ele>320.0</ele><time>2026-04-27T15:42:20Z</time></trkpt><trkpt lat="42.647088124119236" lon="11.982005697849072"><ele>320.0</ele><time>2026-04-27T15:42:21Z</time></trkpt><trkpt lat="42.647168578414444" lon="11.982048947545099"><ele>320.0</ele><time>2026-04-27T15:42:23Z</time></trkpt><trkpt lat="42.64727256244152" lon="11.981941091665723"><ele>320.4</ele><time>2026-04-27T15:42:26Z</time></trkpt><trkpt lat="42.64732507023355" lon="11.981858192567733"><ele>320.8</ele><time>2026-04-27T15:42:27Z</time></trkpt><trkpt lat="42.6473815190315" lon="11.981742057761252"><ele>321.20000000000005</ele><time>2026-04-27T15:42:28Z</time></trkpt><trkpt lat="42.64745337484367" lon="11.981609866131674"><ele>321.6</ele><time>2026-04-27T15:42:29Z</time></trkpt><trkpt lat="42.64749791683747" lon="11.981486282160047"><ele>322.0</ele><time>2026-04-27T15:42:30Z</time></trkpt><trkpt lat="42.64753609093143" lon="11.981380474995209"><ele>322.0</ele><time>2026-04-27T15:42:31Z</time></trkpt><trkpt lat="42.647597573300345" lon="11.981267443483079"><ele>322.0</ele><time>2026-04-27T15:42:32Z</time></trkpt><trkpt lat="42.647659635812545" lon="11.981126807426099"><ele>322.0</ele><time>2026-04-27T15:42:33Z</time></trkpt><trkpt lat="42.64772729491326" lon="11.980968348230096"><ele>322.0</ele><time>2026-04-27T15:42:34Z</time></trkpt><trkpt lat="42.64779643645573" lon="11.980814197490018"><ele>325.5</ele><time>2026-04-27T15:42:35Z</time></trkpt><trkpt lat="42.64787713422909" lon="11.980652472443428"><ele>329.0</ele><time>2026-04-27T15:42:36Z</time></trkpt><trkpt lat="42.64795806865085" lon="11.980480342950175"><ele>332.5</ele><time>2026-04-27T15:42:37Z</time></trkpt><trkpt lat="42.64803236570498" lon="11.98032199530407"><ele>336.0</ele><time>2026-04-27T15:42:38Z</time></trkpt><trkpt lat="42.648098165948866" lon="11.980169404264048"><ele>336.0</ele><time>2026-04-27T15:42:39Z</time></trkpt><trkpt lat="42.64814243077838" lon="11.98001972485666"><ele>336.0</ele><time>2026-04-27T15:42:40Z</time></trkpt><trkpt lat="42.6481634163427" lon="11.979853027139388"><ele>336.0</ele><time>2026-04-27T15:42:41Z</time></trkpt><trkpt lat="42.64818399659035" lon="11.979656947420699"><ele>336.0</ele><time>2026-04-27T15:42:42Z</time></trkpt><trkpt lat="42.648231362867996" lon="11.979483100298602"><ele>334.0</ele><time>2026-04-27T15:42:43Z</time></trkpt><trkpt lat="42.64825568908052" lon="11.97930311722401"><ele>332.0</ele><time>2026-04-27T15:42:44Z</time></trkpt><trkpt lat="42.64828775463547" lon="11.979116815182083"><ele>330.0</ele><time>2026-04-27T15:42:45Z</time></trkpt><trkpt lat="42.64832576871414" lon="11.978946643391508"><ele>328.0</ele><time>2026-04-27T15:42:46Z</time></trkpt><trkpt lat="42.64836465894693" lon="11.978809543714368"><ele>327.0</ele><time>2026-04-27T15:42:47Z</time></trkpt><trkpt lat="42.64841867355921" lon="11.978721552224584"><ele>326.0</ele><time>2026-04-27T15:42:48Z</time></trkpt><trkpt lat="42.64849489443677" lon="11.97864476612604"><ele>325.0</ele><time>2026-04-27T15:42:49Z</time></trkpt><trkpt lat="42.64859813270626" lon="11.978594710811654"><ele>324.0</ele><time>2026-04-27T15:42:50Z</time></trkpt><trkpt lat="42.64874002416047" lon="11.978593122218632"><ele>323.0</ele><time>2026-04-27T15:42:51Z</time></trkpt><trkpt lat="42.64888360341721" lon="11.97851278652097"><ele>322.6666666666667</ele><time>2026-04-27T15:42:52Z</time></trkpt><trkpt lat="42.649045681392806" lon="11.97842562290089"><ele>322.3333333333333</ele><time>2026-04-27T15:42:53Z</time></trkpt><trkpt lat="42.649204323806124" lon="11.978337040492951"><ele>322.0</ele><time>2026-04-27T15:42:54Z</time></trkpt><trkpt lat="42.649346425407025" lon="11.978262705134503"><ele>323.0</ele><time>2026-04-27T15:42:55Z</time></trkpt><trkpt lat="42.64948011225763" lon="11.978201881275417"><ele>324.0</ele><time>2026-04-27T15:42:56Z</time></trkpt><trkpt lat="42.649600915702365" lon="11.9781443621596"><ele>325.0</ele><time>2026-04-27T15:42:57Z</time></trkpt><trkpt lat="42.649709272722816" lon="11.978072672173706"><ele>326.0</ele><time>2026-04-27T15:42:58Z</time></trkpt><trkpt lat="42.649820512115575" lon="11.978011871538422"><ele>326.0</ele><time>2026-04-27T15:42:59Z</time></trkpt><trkpt lat="42.64988619663144" lon="11.977913987096898"><ele>326.0</ele><time>2026-04-27T15:43:00Z</time></trkpt><trkpt lat="42.64992713901177" lon="11.977805751766102"><ele>326.0</ele><time>2026-04-27T15:43:01Z</time></trkpt><trkpt lat="42.649993964419444" lon="11.977684771749134"><ele>326.0</ele><time>2026-04-27T15:43:02Z</time></trkpt><trkpt lat="42.65005767597705" lon="11.977527374785653"><ele>326.0</ele><time>2026-04-27T15:43:03Z</time></trkpt><trkpt lat="42.650140398659325" lon="11.977370231680537"><ele>325.25</ele><time>2026-04-27T15:43:04Z</time></trkpt><trkpt lat="42.65022453762523" lon="11.977208378015051"><ele>324.5</ele><time>2026-04-27T15:43:05Z</time></trkpt><trkpt lat="42.6503229923315" lon="11.977024764797076"><ele>323.75</ele><time>2026-04-27T15:43:07Z</time></trkpt><trkpt lat="42.650375605675045" lon="11.976957460389476"><ele>323.0</ele><time>2026-04-27T15:43:08Z</time></trkpt><trkpt lat="42.650406595692395" lon="11.976836060949287"><ele>323.83333333333337</ele><time>2026-04-27T15:43:10Z</time></trkpt><trkpt lat="42.65044562241272" lon="11.97673613962357"><ele>324.6666666666667</ele><time>2026-04-27T15:43:11Z</time></trkpt><trkpt lat="42.65045808187232" lon="11.976608092758203"><ele>325.5</ele><time>2026-04-27T15:43:12Z</time></trkpt><trkpt lat="42.65051306038253" lon="11.976493574240303"><ele>326.3333333333333</ele><time>2026-04-27T15:43:13Z</time></trkpt><trkpt lat="42.65056081088159" lon="11.976405573266131"><ele>327.16666666666663</ele><time>2026-04-27T15:43:14Z</time></trkpt><trkpt lat="42.65060350307633" lon="11.976325111296388"><ele>328.0</ele><time>2026-04-27T15:43:15Z</time></trkpt><trkpt lat="42.65064794038805" lon="11.976244845246324"><ele>328.0</ele><time>2026-04-27T15:43:16Z</time></trkpt><trkpt lat="42.65070217834669" lon="11.97615107931221"><ele>328.0</ele><time>2026-04-27T15:43:17Z</time></trkpt><trkpt lat="42.6560217201624" lon="11.971372486078398"><ele>337.0</ele><time>2026-04-27T15:44:18Z</time></trkpt><trkpt lat="42.65613059832371" lon="11.971336934781304"><ele>346.0</ele><time>2026-04-27T15:44:20Z</time></trkpt><trkpt lat="42.65628175016847" lon="11.971220181303494"><ele>355.0</ele><time>2026-04-27T15:44:22Z</time></trkpt><trkpt lat="42.6563856640502" lon="11.971181839698614"><ele>364.0</ele><time>2026-04-27T15:44:23Z</time></trkpt><trkpt lat="42.65647655362303" lon="11.971131011680805"><ele>364.0</ele><time>2026-04-27T15:44:24Z</time></trkpt><trkpt lat="42.65655843485286" lon="11.971124455561654"><ele>364.0</ele><time>2026-04-27T15:44:25Z</time></trkpt><trkpt lat="42.65664478379898" lon="11.971103018930323"><ele>364.0</ele><time>2026-04-27T15:44:26Z</time></trkpt><trkpt lat="42.6567299655693" lon="11.971086118632837"><ele>364.0</ele><time>2026-04-27T15:44:27Z</time></trkpt><trkpt lat="42.656816564108674" lon="11.971070038932828"><ele>364.0</ele><time>2026-04-27T15:44:28Z</time></trkpt><trkpt lat="42.65688539501841" lon="11.971059215621201"><ele>364.0</ele><time>2026-04-27T15:44:29Z</time></trkpt><trkpt lat="42.65696809969964" lon="11.971046733923325"><ele>365.79999999999995</ele><time>2026-04-27T15:44:30Z</time></trkpt><trkpt lat="42.65706345475048" lon="11.97101808344408"><ele>367.59999999999997</ele><time>2026-04-27T15:44:31Z</time></trkpt><trkpt lat="42.6571649776975" lon="11.971015376627415"><ele>369.4</ele><time>2026-04-27T15:44:32Z</time></trkpt><trkpt lat="42.657259098828426" lon="11.97100699107275"><ele>371.2</ele><time>2026-04-27T15:44:33Z</time></trkpt><trkpt lat="42.65735454734771" lon="11.971003078404733"><ele>373.0</ele><time>2026-04-27T15:44:34Z</time></trkpt><trkpt lat="42.65745736169985" lon="11.97100746106209"><ele>373.0</ele><time>2026-04-27T15:44:35Z</time></trkpt><trkpt lat="42.65753612352956" lon="11.970987916746413"><ele>373.0</ele><time>2026-04-27T15:44:36Z</time></trkpt><trkpt lat="42.657611580576265" lon="11.97097677372587"><ele>373.0</ele><time>2026-04-27T15:44:37Z</time></trkpt><trkpt lat="42.65769834763189" lon="11.970976421625828"><ele>373.0</ele><time>2026-04-27T15:44:38Z</time></trkpt><trkpt lat="42.65779761475044" lon="11.970958889739975"><ele>373.0</ele><time>2026-04-27T15:44:39Z</time></trkpt><trkpt lat="42.65789166786469" lon="11.970944163891724"><ele>373.0</ele><time>2026-04-27T15:44:40Z</time></trkpt><trkpt lat="42.65798586477674" lon="11.970937331047288"><ele>373.8333333333333</ele><time>2026-04-27T15:44:41Z</time></trkpt><trkpt lat="42.658079586469" lon="11.97092043929629"><ele>374.66666666666663</ele><time>2026-04-27T15:44:42Z</time></trkpt><trkpt lat="42.65817447507186" lon="11.970907899581512"><ele>375.5</ele><time>2026-04-27T15:44:43Z</time></trkpt><trkpt lat="42.65825532201712" lon="11.970895483681334"><ele>376.3333333333333</ele><time>2026-04-27T15:44:44Z</time></trkpt><trkpt lat="42.658332770172215" lon="11.97091002802704"><ele>377.1666666666667</ele><time>2026-04-27T15:44:45Z</time></trkpt><trkpt lat="42.658413385293805" lon="11.970921961728989"><ele>378.0</ele><time>2026-04-27T15:44:46Z</time></trkpt><trkpt lat="42.65849430916265" lon="11.970937982165283"><ele>378.0</ele><time>2026-04-27T15:44:47Z</time></trkpt><trkpt lat="42.65857372809129" lon="11.97095598197822"><ele>378.0</ele><time>2026-04-27T15:44:48Z</time></trkpt><trkpt lat="42.65866012989281" lon="11.970977963415143"><ele>378.0</ele><time>2026-04-27T15:44:49Z</time></trkpt><trkpt lat="42.65874178890682" lon="11.971005304956808"><ele>378.0</ele><time>2026-04-27T15:44:50Z</time></trkpt><trkpt lat="42.65881970078863" lon="11.971031562267699"><ele>378.0</ele><time>2026-04-27T15:44:51Z</time></trkpt><trkpt lat="42.658894527408755" lon="11.971059382985773"><ele>378.0</ele><time>2026-04-27T15:44:52Z</time></trkpt><trkpt lat="42.65898213042634" lon="11.971084064195406"><ele>378.8333333333333</ele><time>2026-04-27T15:44:53Z</time></trkpt><trkpt lat="42.65907305088588" lon="11.971114362707109"><ele>379.6666666666667</ele><time>2026-04-27T15:44:54Z</time></trkpt><trkpt lat="42.659158026768516" lon="11.971153175255058"><ele>380.5</ele><time>2026-04-27T15:44:55Z</time></trkpt><trkpt lat="42.659241593577015" lon="11.971184955375389"><ele>381.33333333333337</ele><time>2026-04-27T15:44:56Z</time></trkpt><trkpt lat="42.659317739035565" lon="11.971207705307291"><ele>382.1666666666667</ele><time>2026-04-27T15:44:57Z</time></trkpt><trkpt lat="42.659396153739216" lon="11.971237011619039"><ele>383.0</ele><time>2026-04-27T15:44:58Z</time></trkpt><trkpt lat="42.65946706731218" lon="11.971278365725126"><ele>383.4</ele><time>2026-04-27T15:44:59Z</time></trkpt><trkpt lat="42.65953533084996" lon="11.971342227029927"><ele>383.79999999999995</ele><time>2026-04-27T15:45:00Z</time></trkpt><trkpt lat="42.65960581228188" lon="11.97141868263032"><ele>384.2</ele><time>2026-04-27T15:45:01Z</time></trkpt><trkpt lat="42.65967625295884" lon="11.971502681777245"><ele>384.6</ele><time>2026-04-27T15:45:02Z</time></trkpt><trkpt lat="42.659745726646456" lon="11.971580590729973"><ele>385.0</ele><time>2026-04-27T15:45:03Z</time></trkpt><trkpt lat="42.659821724596824" lon="11.971659831510426"><ele>385.33333333333337</ele><time>2026-04-27T15:45:04Z</time></trkpt><trkpt lat="42.65990347408476" lon="11.97170521900716"><ele>385.6666666666667</ele><time>2026-04-27T15:45:05Z</time></trkpt><trkpt lat="42.659979816294566" lon="11.97173999334625"><ele>386.0</ele><time>2026-04-27T15:45:06Z</time></trkpt><trkpt lat="42.66005087111097" lon="11.971782992658676"><ele>386.33333333333337</ele><time>2026-04-27T15:45:07Z</time></trkpt><trkpt lat="42.66012587823409" lon="11.971788119367094"><ele>386.6666666666667</ele><time>2026-04-27T15:45:08Z</time></trkpt><trkpt lat="42.6602047964075" lon="11.97179472422236"><ele>387.0</ele><time>2026-04-27T15:45:09Z</time></trkpt><trkpt lat="42.66031719661503" lon="11.97182084814135"><ele>387.0</ele><time>2026-04-27T15:45:10Z</time></trkpt><trkpt lat="42.66042190251012" lon="11.97186344969331"><ele>387.0</ele><time>2026-04-27T15:45:11Z</time></trkpt><trkpt lat="42.66050811569965" lon="11.971903785737792"><ele>387.0</ele><time>2026-04-27T15:45:12Z</time></trkpt><trkpt lat="42.660599037175444" lon="11.971958401855993"><ele>387.0</ele><time>2026-04-27T15:45:13Z</time></trkpt><trkpt lat="42.66067214469021" lon="11.971980608437832"><ele>387.0</ele><time>2026-04-27T15:45:14Z</time></trkpt><trkpt lat="42.66073644511055" lon="11.972015402080665"><ele>387.0</ele><time>2026-04-27T15:45:15Z</time></trkpt><trkpt lat="42.660816723639776" lon="11.972051030991278"><ele>387.0</ele><time>2026-04-27T15:45:16Z</time></trkpt><trkpt lat="42.66091442841083" lon="11.9720921445342"><ele>387.0</ele><time>2026-04-27T15:45:17Z</time></trkpt><trkpt lat="42.6624764307902" lon="11.968133426242671"><ele>387.75</ele><time>2026-04-27T15:46:18Z</time></trkpt><trkpt lat="42.66248705467816" lon="11.968034421968298"><ele>388.5</ele><time>2026-04-27T15:46:19Z</time></trkpt><trkpt lat="42.66251189230997" lon="11.967955353809952"><ele>389.25</ele><time>2026-04-27T15:46:20Z</time></trkpt><trkpt lat="42.66253523476272" lon="11.967858438214455"><ele>390.0</ele><time>2026-04-27T15:46:23Z</time></trkpt><trkpt lat="42.66159376287035" lon="11.972093462712126"><ele>390.0</ele><time>2026-04-27T15:52:28Z</time></trkpt><trkpt lat="42.6616022920059" lon="11.972178627604222"><ele>390.0</ele><time>2026-04-27T15:52:30Z</time></trkpt><trkpt lat="42.66152807504096" lon="11.972256941189174"><ele>390.0</ele><time>2026-04-27T15:52:34Z</time></trkpt><trkpt lat="42.66139384043164" lon="11.972261228218041"><ele>390.0</ele><time>2026-04-27T15:52:37Z</time></trkpt><trkpt lat="42.661287764826625" lon="11.972185759623343"><ele>390.0</ele><time>2026-04-27T15:52:39Z</time></trkpt><trkpt lat="42.661224929271604" lon="11.97214036875965"><ele>390.0</ele><time>2026-04-27T15:52:40Z</time></trkpt><trkpt lat="42.661162767661295" lon="11.97211788601871"><ele>390.0</ele><time>2026-04-27T15:52:41Z</time></trkpt><trkpt lat="42.661076141041335" lon="11.972062332852339"><ele>390.0</ele><time>2026-04-27T15:52:42Z</time></trkpt><trkpt lat="42.661008590598186" lon="11.972086156975053"><ele>390.0</ele><time>2026-04-27T15:52:43Z</time></trkpt><trkpt lat="42.660916489480535" lon="11.972052113323226"><ele>390.0</ele><time>2026-04-27T15:52:44Z</time></trkpt><trkpt lat="42.66084286520027" lon="11.972014298815308"><ele>390.0</ele><time>2026-04-27T15:52:45Z</time></trkpt><trkpt lat="42.66076995949617" lon="11.971974854986222"><ele>389.4</ele><time>2026-04-27T15:52:46Z</time></trkpt><trkpt lat="42.66068980086393" lon="11.971940568103042"><ele>388.8</ele><time>2026-04-27T15:52:47Z</time></trkpt><trkpt lat="42.66061889040058" lon="11.971909264808808"><ele>388.20000000000005</ele><time>2026-04-27T15:52:48Z</time></trkpt><trkpt lat="42.660501632863806" lon="11.971859027586019"><ele>387.6</ele><time>2026-04-27T15:52:50Z</time></trkpt><trkpt lat="42.66041569411511" lon="11.97183272772865"><ele>387.0</ele><time>2026-04-27T15:52:51Z</time></trkpt><trkpt lat="42.66031724535447" lon="11.971807785350732"><ele>387.3333333333333</ele><time>2026-04-27T15:52:52Z</time></trkpt><trkpt lat="42.66022203102318" lon="11.97177610812446"><ele>387.66666666666663</ele><time>2026-04-27T15:52:53Z</time></trkpt><trkpt lat="42.660129636035144" lon="11.971743933621118"><ele>388.0</ele><time>2026-04-27T15:52:54Z</time></trkpt><trkpt lat="42.66006119610124" lon="11.971709251496083"><ele>388.3333333333333</ele><time>2026-04-27T15:52:55Z</time></trkpt><trkpt lat="42.65996700300153" lon="11.97167844115432"><ele>388.66666666666663</ele><time>2026-04-27T15:52:56Z</time></trkpt><trkpt lat="42.65989654169628" lon="11.971624258266388"><ele>389.0</ele><time>2026-04-27T15:52:57Z</time></trkpt><trkpt lat="42.659817638007304" lon="11.971592118574907"><ele>388.3333333333333</ele><time>2026-04-27T15:52:58Z</time></trkpt><trkpt lat="42.65975713875982" lon="11.971501104844988"><ele>387.66666666666663</ele><time>2026-04-27T15:52:59Z</time></trkpt><trkpt lat="42.65968867010424" lon="11.971417109664506"><ele>387.0</ele><time>2026-04-27T15:53:00Z</time></trkpt><trkpt lat="42.65960730227375" lon="11.97135473724355"><ele>386.33333333333337</ele><time>2026-04-27T15:53:01Z</time></trkpt><trkpt lat="42.659542268168266" lon="11.97129372389956"><ele>385.6666666666667</ele><time>2026-04-27T15:53:02Z</time></trkpt><trkpt lat="42.659469496173664" lon="11.971231697857801"><ele>385.0</ele><time>2026-04-27T15:53:03Z</time></trkpt><trkpt lat="42.659379874349256" lon="11.971189205073541"><ele>384.6666666666667</ele><time>2026-04-27T15:53:04Z</time></trkpt><trkpt lat="42.659302441419335" lon="11.971149010769286"><ele>384.33333333333337</ele><time>2026-04-27T15:53:05Z</time></trkpt><trkpt lat="42.659206382404214" lon="11.971121287546733"><ele>384.0</ele><time>2026-04-27T15:53:06Z</time></trkpt><trkpt lat="42.65912248913968" lon="11.971082134868352"><ele>383.6666666666667</ele><time>2026-04-27T15:53:07Z</time></trkpt><trkpt lat="42.65904643154189" lon="11.971051527235202"><ele>383.33333333333337</ele><time>2026-04-27T15:53:08Z</time></trkpt><trkpt lat="42.658949187629716" lon="11.97102124165569"><ele>383.0</ele><time>2026-04-27T15:53:09Z</time></trkpt><trkpt lat="42.658853921058096" lon="11.970991281066478"><ele>383.0</ele><time>2026-04-27T15:53:10Z</time></trkpt><trkpt lat="42.65876274628212" lon="11.970954698387045"><ele>383.0</ele><time>2026-04-27T15:53:11Z</time></trkpt><trkpt lat="42.65867761018707" lon="11.970942685743385"><ele>383.0</ele><time>2026-04-27T15:53:12Z</time></trkpt><trkpt lat="42.65860111740013" lon="11.97091858398711"><ele>383.0</ele><time>2026-04-27T15:53:13Z</time></trkpt><trkpt lat="42.65851349678813" lon="11.970899614294986"><ele>383.0</ele><time>2026-04-27T15:53:14Z</time></trkpt><trkpt lat="42.65843876166517" lon="11.970884788963524"><ele>383.0</ele><time>2026-04-27T15:53:15Z</time></trkpt><trkpt lat="42.65836474844222" lon="11.970877978678448"><ele>380.5</ele><time>2026-04-27T15:53:16Z</time></trkpt><trkpt lat="42.658291023166555" lon="11.970860675942248"><ele>378.0</ele><time>2026-04-27T15:53:17Z</time></trkpt><trkpt lat="42.65335113558063" lon="11.973433253735372"><ele>372.8333333333333</ele><time>2026-04-27T15:54:18Z</time></trkpt><trkpt lat="42.65326895677943" lon="11.97348739453207"><ele>367.6666666666667</ele><time>2026-04-27T15:54:19Z</time></trkpt><trkpt lat="42.65318612594601" lon="11.973524732743744"><ele>362.5</ele><time>2026-04-27T15:54:20Z</time></trkpt><trkpt lat="42.65310112106497" lon="11.973564037062209"><ele>357.33333333333337</ele><time>2026-04-27T15:54:21Z</time></trkpt><trkpt lat="42.653012568303275" lon="11.973600121299365"><ele>352.1666666666667</ele><time>2026-04-27T15:54:22Z</time></trkpt><trkpt lat="42.65292927212654" lon="11.973640384117404"><ele>347.0</ele><time>2026-04-27T15:54:23Z</time></trkpt><trkpt lat="42.65284417057828" lon="11.973656969977585"><ele>344.40000000000003</ele><time>2026-04-27T15:54:24Z</time></trkpt><trkpt lat="42.65275900799718" lon="11.973671955871787"><ele>341.8</ele><time>2026-04-27T15:54:25Z</time></trkpt><trkpt lat="42.65267388399561" lon="11.973684429124596"><ele>339.2</ele><time>2026-04-27T15:54:26Z</time></trkpt><trkpt lat="42.652586684787835" lon="11.9736963484088"><ele>336.6</ele><time>2026-04-27T15:54:27Z</time></trkpt><trkpt lat="42.652497149062825" lon="11.973748533250983"><ele>334.0</ele><time>2026-04-27T15:54:28Z</time></trkpt><trkpt lat="42.65239112037661" lon="11.973801736594485"><ele>334.0</ele><time>2026-04-27T15:54:29Z</time></trkpt><trkpt lat="42.65228829871905" lon="11.973877195218947"><ele>334.0</ele><time>2026-04-27T15:54:30Z</time></trkpt><trkpt lat="42.65218855752492" lon="11.973960295341891"><ele>334.0</ele><time>2026-04-27T15:54:31Z</time></trkpt><trkpt lat="42.65207670663156" lon="11.974038321892639"><ele>334.0</ele><time>2026-04-27T15:54:32Z</time></trkpt><trkpt lat="42.65197937649411" lon="11.974155954354817"><ele>332.79999999999995</ele><time>2026-04-27T15:54:33Z</time></trkpt><trkpt lat="42.651891522993296" lon="11.97425524720411"><ele>331.59999999999997</ele><time>2026-04-27T15:54:34Z</time></trkpt><trkpt lat="42.65179965515346" lon="11.974354944160565"><ele>330.4</ele><time>2026-04-27T15:54:35Z</time></trkpt><trkpt lat="42.65172637430371" lon="11.97444856686624"><ele>329.2</ele><time>2026-04-27T15:54:36Z</time></trkpt><trkpt lat="42.651664512989704" lon="11.974515546316935"><ele>328.0</ele><time>2026-04-27T15:54:37Z</time></trkpt><trkpt lat="42.65159618627561" lon="11.974641849685321"><ele>328.0</ele><time>2026-04-27T15:54:39Z</time></trkpt><trkpt lat="42.65154862749562" lon="11.97473452667903"><ele>328.0</ele><time>2026-04-27T15:54:40Z</time></trkpt><trkpt lat="42.65149319266205" lon="11.974844309003831"><ele>328.0</ele><time>2026-04-27T15:54:41Z</time></trkpt><trkpt lat="42.651435640439686" lon="11.974967984391323"><ele>328.0</ele><time>2026-04-27T15:54:42Z</time></trkpt><trkpt lat="42.65135551447068" lon="11.975103543232727"><ele>328.0</ele><time>2026-04-27T15:54:43Z</time></trkpt><trkpt lat="42.65124965083021" lon="11.975241001161361"><ele>330.0</ele><time>2026-04-27T15:54:44Z</time></trkpt><trkpt lat="42.6511375417168" lon="11.975383280304193"><ele>332.0</ele><time>2026-04-27T15:54:45Z</time></trkpt><trkpt lat="42.65102353167438" lon="11.975562822642555"><ele>334.0</ele><time>2026-04-27T15:54:46Z</time></trkpt><trkpt lat="42.650923417889096" lon="11.975741518435841"><ele>332.5</ele><time>2026-04-27T15:54:47Z</time></trkpt><trkpt lat="42.65083008350832" lon="11.97590658939363"><ele>331.0</ele><time>2026-04-27T15:54:48Z</time></trkpt><trkpt lat="42.65073590885657" lon="11.976053179367751"><ele>329.5</ele><time>2026-04-27T15:54:49Z</time></trkpt><trkpt lat="42.65064963963274" lon="11.976194004176646"><ele>328.0</ele><time>2026-04-27T15:54:50Z</time></trkpt><trkpt lat="42.65057284590222" lon="11.976336407436742"><ele>328.0</ele><time>2026-04-27T15:54:51Z</time></trkpt><trkpt lat="42.65049299741663" lon="11.976459816097838"><ele>328.0</ele><time>2026-04-27T15:54:52Z</time></trkpt><trkpt lat="42.6504441050908" lon="11.97658337904591"><ele>328.0</ele><time>2026-04-27T15:54:53Z</time></trkpt><trkpt lat="42.6504269362061" lon="11.976727654918992"><ele>328.0</ele><time>2026-04-27T15:54:54Z</time></trkpt><trkpt lat="42.65038633960026" lon="11.976842075136826"><ele>328.0</ele><time>2026-04-27T15:54:55Z</time></trkpt><trkpt lat="42.650360347277406" lon="11.976926020257551"><ele>326.75</ele><time>2026-04-27T15:54:56Z</time></trkpt><trkpt lat="42.650287048749924" lon="11.977102022183745"><ele>325.5</ele><time>2026-04-27T15:54:58Z</time></trkpt><trkpt lat="42.65020489702594" lon="11.977183384052047"><ele>324.25</ele><time>2026-04-27T15:54:59Z</time></trkpt><trkpt lat="42.65013439462078" lon="11.977303698711541"><ele>323.0</ele><time>2026-04-27T15:55:00Z</time></trkpt><trkpt lat="42.650067554746" lon="11.977449914965375"><ele>323.59999999999997</ele><time>2026-04-27T15:55:01Z</time></trkpt><trkpt lat="42.650002607101534" lon="11.977576058425106"><ele>324.2</ele><time>2026-04-27T15:55:02Z</time></trkpt><trkpt lat="42.649937128469396" lon="11.977702041352893"><ele>324.8</ele><time>2026-04-27T15:55:03Z</time></trkpt><trkpt lat="42.64989035431536" lon="11.9778237345118"><ele>325.4</ele><time>2026-04-27T15:55:04Z</time></trkpt><trkpt lat="42.64981679267837" lon="11.977914416277299"><ele>326.0</ele><time>2026-04-27T15:55:05Z</time></trkpt><trkpt lat="42.649747569320894" lon="11.97800016598944"><ele>326.0</ele><time>2026-04-27T15:55:06Z</time></trkpt><trkpt lat="42.64966849719865" lon="11.978050363080682"><ele>326.0</ele><time>2026-04-27T15:55:07Z</time></trkpt><trkpt lat="42.649605754262794" lon="11.97811641987867"><ele>326.0</ele><time>2026-04-27T15:55:08Z</time></trkpt><trkpt lat="42.649536918430066" lon="11.978130142173795"><ele>326.0</ele><time>2026-04-27T15:55:09Z</time></trkpt><trkpt lat="42.64946337273388" lon="11.978180023986187"><ele>326.0</ele><time>2026-04-27T15:55:10Z</time></trkpt><trkpt lat="42.64937457521447" lon="11.978210289385588"><ele>326.0</ele><time>2026-04-27T15:55:11Z</time></trkpt><trkpt lat="42.64928007377475" lon="11.978271001326261"><ele>325.20000000000005</ele><time>2026-04-27T15:55:12Z</time></trkpt><trkpt lat="42.64916698020657" lon="11.978332978854771"><ele>324.40000000000003</ele><time>2026-04-27T15:55:13Z</time></trkpt><trkpt lat="42.64905829148938" lon="11.978376328538216"><ele>323.6</ele><time>2026-04-27T15:55:14Z</time></trkpt><trkpt lat="42.6489667797009" lon="11.97842873938937"><ele>322.8</ele><time>2026-04-27T15:55:15Z</time></trkpt><trkpt lat="42.648874455269" lon="11.978476089746858"><ele>322.0</ele><time>2026-04-27T15:55:16Z</time></trkpt><trkpt lat="42.64879529194124" lon="11.97851876202208"><ele>327.0</ele><time>2026-04-27T15:55:17Z</time></trkpt><trkpt lat="42.646196548667035" lon="11.983629848998527"><ele>327.0</ele><time>2026-04-27T15:56:18Z</time></trkpt><trkpt lat="42.6462224229377" lon="11.983530573791734"><ele>327.0</ele><time>2026-04-27T15:56:19Z</time></trkpt><trkpt lat="42.646258681549554" lon="11.98343064574229"><ele>327.0</ele><time>2026-04-27T15:56:20Z</time></trkpt><trkpt lat="42.64628276808945" lon="11.98333168911346"><ele>327.0</ele><time>2026-04-27T15:56:21Z</time></trkpt><trkpt lat="42.6463042014933" lon="11.983226707320366"><ele>327.0</ele><time>2026-04-27T15:56:22Z</time></trkpt><trkpt lat="42.64632690786311" lon="11.983142489479476"><ele>327.0</ele><time>2026-04-27T15:56:23Z</time></trkpt><trkpt lat="42.6463495817636" lon="11.983040411161339"><ele>325.8</ele><time>2026-04-27T15:56:24Z</time></trkpt><trkpt lat="42.646388721384724" lon="11.982955750486001"><ele>324.6</ele><time>2026-04-27T15:56:25Z</time></trkpt><trkpt lat="42.64641221003525" lon="11.982815786860936"><ele>323.40000000000003</ele><time>2026-04-27T15:56:27Z</time></trkpt><trkpt lat="42.64640559686729" lon="11.982724545960926"><ele>322.20000000000005</ele><time>2026-04-27T15:56:30Z</time></trkpt><trkpt lat="42.6462997340123" lon="11.982663260541221"><ele>321.0</ele><time>2026-04-27T15:56:32Z</time></trkpt><trkpt lat="42.646252052444986" lon="11.982845896188921"><ele>321.0</ele><time>2026-04-27T15:56:33Z</time></trkpt><trkpt lat="42.646210051476785" lon="11.98292626411207"><ele>321.0</ele><time>2026-04-27T15:56:34Z</time></trkpt><trkpt lat="42.64615075234675" lon="11.983017565354459"><ele>321.0</ele><time>2026-04-27T15:56:35Z</time></trkpt><trkpt lat="42.646076825112054" lon="11.983128060328639"><ele>321.0</ele><time>2026-04-27T15:56:36Z</time></trkpt><trkpt lat="42.64599865458187" lon="11.983251704424118"><ele>321.0</ele><time>2026-04-27T15:56:37Z</time></trkpt><trkpt lat="42.64588717082664" lon="11.98337978200663"><ele>320.75</ele><time>2026-04-27T15:56:38Z</time></trkpt><trkpt lat="42.64579509943162" lon="11.983511112638027"><ele>320.5</ele><time>2026-04-27T15:56:39Z</time></trkpt><trkpt lat="42.64571770466322" lon="11.983650237268728"><ele>320.25</ele><time>2026-04-27T15:56:40Z</time></trkpt><trkpt lat="42.64563370344886" lon="11.983772964661616"><ele>320.0</ele><time>2026-04-27T15:56:41Z</time></trkpt><trkpt lat="42.64553838199704" lon="11.983877200319053"><ele>320.0</ele><time>2026-04-27T15:56:42Z</time></trkpt><trkpt lat="42.64546349045592" lon="11.984011131409556"><ele>320.0</ele><time>2026-04-27T15:56:43Z</time></trkpt><trkpt lat="42.645382664525165" lon="11.984120475281973"><ele>320.0</ele><time>2026-04-27T15:56:44Z</time></trkpt><trkpt lat="42.64530326144777" lon="11.984220332530185"><ele>320.0</ele><time>2026-04-27T15:56:45Z</time></trkpt><trkpt lat="42.64523425039178" lon="11.984324268457122"><ele>320.0</ele><time>2026-04-27T15:56:46Z</time></trkpt><trkpt lat="42.64517666877278" lon="11.984430926582485"><ele>319.4</ele><time>2026-04-27T15:56:47Z</time></trkpt><trkpt lat="42.6451337964094" lon="11.984546108342245"><ele>318.8</ele><time>2026-04-27T15:56:48Z</time></trkpt><trkpt lat="42.64509128859476" lon="11.984650262426808"><ele>318.2</ele><time>2026-04-27T15:56:49Z</time></trkpt><trkpt lat="42.645046210279354" lon="11.9847569415953"><ele>317.6</ele><time>2026-04-27T15:56:50Z</time></trkpt><trkpt lat="42.64499884365412" lon="11.984858327843389"><ele>317.0</ele><time>2026-04-27T15:56:51Z</time></trkpt><trkpt lat="42.64493102271652" lon="11.984953848051449"><ele>318.5</ele><time>2026-04-27T15:56:52Z</time></trkpt><trkpt lat="42.644858920834345" lon="11.985037411958926"><ele>320.0</ele><time>2026-04-27T15:56:53Z</time></trkpt><trkpt lat="42.644793067277845" lon="11.985117144572877"><ele>321.5</ele><time>2026-04-27T15:56:54Z</time></trkpt><trkpt lat="42.644733359844835" lon="11.985187407372303"><ele>323.0</ele><time>2026-04-27T15:56:55Z</time></trkpt><trkpt lat="42.644683612133186" lon="11.98525478763242"><ele>324.5</ele><time>2026-04-27T15:56:56Z</time></trkpt><trkpt lat="42.64462134681984" lon="11.985304345123431"><ele>326.0</ele><time>2026-04-27T15:56:57Z</time></trkpt><trkpt lat="42.6445642450446" lon="11.985375336569195"><ele>326.0</ele><time>2026-04-27T15:56:58Z</time></trkpt><trkpt lat="42.644508097612714" lon="11.985447230249902"><ele>326.0</ele><time>2026-04-27T15:56:59Z</time></trkpt><trkpt lat="42.64445277331898" lon="11.98552732764152"><ele>326.0</ele><time>2026-04-27T15:57:00Z</time></trkpt><trkpt lat="42.64440338941044" lon="11.985614136637988"><ele>326.0</ele><time>2026-04-27T15:57:01Z</time></trkpt><trkpt lat="42.64436370021703" lon="11.985699314260854"><ele>326.0</ele><time>2026-04-27T15:57:02Z</time></trkpt><trkpt lat="42.644328676903186" lon="11.985788246105075"><ele>326.0</ele><time>2026-04-27T15:57:03Z</time></trkpt><trkpt lat="42.644299366749244" lon="11.985873513103911"><ele>324.8</ele><time>2026-04-27T15:57:04Z</time></trkpt><trkpt lat="42.644275735231396" lon="11.986024891107567"><ele>323.6</ele><time>2026-04-27T15:57:06Z</time></trkpt><trkpt lat="42.644245617610764" lon="11.986121849877936"><ele>322.4</ele><time>2026-04-27T15:57:08Z</time></trkpt><trkpt lat="42.64421569728127" lon="11.986245178394325"><ele>321.2</ele><time>2026-04-27T15:57:10Z</time></trkpt><trkpt lat="42.64415213750561" lon="11.98636828013835"><ele>320.0</ele><time>2026-04-27T15:57:12Z</time></trkpt><trkpt lat="42.64411022344587" lon="11.986433485035413"><ele>320.0</ele><time>2026-04-27T15:57:13Z</time></trkpt><trkpt lat="42.64406710875947" lon="11.986505765047607"><ele>320.0</ele><time>2026-04-27T15:57:14Z</time></trkpt><trkpt lat="42.644010435226406" lon="11.986577044696777"><ele>320.0</ele><time>2026-04-27T15:57:15Z</time></trkpt><trkpt lat="42.64394892922844" lon="11.986656151588535"><ele>320.0</ele><time>2026-04-27T15:57:16Z</time></trkpt><trkpt lat="42.64388883462529" lon="11.98673664007389"><ele>320.0</ele><time>2026-04-27T15:57:17Z</time></trkpt><trkpt lat="42.63724601923694" lon="11.993989707814317"><ele>319.6666666666667</ele><time>2026-04-27T15:58:18Z</time></trkpt><trkpt lat="42.63708888561036" lon="11.994104844905483"><ele>319.3333333333333</ele><time>2026-04-27T15:58:19Z</time></trkpt><trkpt lat="42.63695024347235" lon="11.994256180151329"><ele>319.0</ele><time>2026-04-27T15:58:20Z</time></trkpt><trkpt lat="42.636799138360395" lon="11.994376309723483"><ele>319.0</ele><time>2026-04-27T15:58:21Z</time></trkpt><trkpt lat="42.636641727572524" lon="11.99448152543161"><ele>319.0</ele><time>2026-04-27T15:58:22Z</time></trkpt><trkpt lat="42.63647165572051" lon="11.994577923608887"><ele>319.0</ele><time>2026-04-27T15:58:23Z</time></trkpt><trkpt lat="42.63628239532205" lon="11.994662649587346"><ele>317.3333333333333</ele><time>2026-04-27T15:58:24Z</time></trkpt><trkpt lat="42.636088416773" lon="11.994735002523484"><ele>315.6666666666667</ele><time>2026-04-27T15:58:25Z</time></trkpt><trkpt lat="42.6358962681473" lon="11.994800836273237"><ele>314.0</ele><time>2026-04-27T15:58:26Z</time></trkpt><trkpt lat="42.635710445757034" lon="11.994858991311965"><ele>314.0</ele><time>2026-04-27T15:58:27Z</time></trkpt><trkpt lat="42.63553783344757" lon="11.994914611040105"><ele>314.0</ele><time>2026-04-27T15:58:28Z</time></trkpt><trkpt lat="42.6353719642194" lon="11.994968109215094"><ele>314.0</ele><time>2026-04-27T15:58:29Z</time></trkpt><trkpt lat="42.63519718535532" lon="11.995023994202041"><ele>316.33333333333337</ele><time>2026-04-27T15:58:30Z</time></trkpt><trkpt lat="42.63500964665867" lon="11.995074958632616"><ele>318.6666666666667</ele><time>2026-04-27T15:58:31Z</time></trkpt><trkpt lat="42.63482731413646" lon="11.99513965058093"><ele>321.0</ele><time>2026-04-27T15:58:32Z</time></trkpt><trkpt lat="42.63466445985626" lon="11.99520804152948"><ele>321.0</ele><time>2026-04-27T15:58:33Z</time></trkpt><trkpt lat="42.63452164934864" lon="11.995290185550623"><ele>321.0</ele><time>2026-04-27T15:58:34Z</time></trkpt><trkpt lat="42.634377426414225" lon="11.995389737423224"><ele>321.0</ele><time>2026-04-27T15:58:35Z</time></trkpt><trkpt lat="42.63422826956015" lon="11.995507759908746"><ele>320.0</ele><time>2026-04-27T15:58:36Z</time></trkpt><trkpt lat="42.634074517406745" lon="11.995643233219031"><ele>319.0</ele><time>2026-04-27T15:58:37Z</time></trkpt><trkpt lat="42.633907633075935" lon="11.995762759600057"><ele>318.0</ele><time>2026-04-27T15:58:38Z</time></trkpt><trkpt lat="42.63375641107437" lon="11.995921975579886"><ele>322.0</ele><time>2026-04-27T15:58:39Z</time></trkpt><trkpt lat="42.633595311333885" lon="11.99606439798289"><ele>326.0</ele><time>2026-04-27T15:58:40Z</time></trkpt><trkpt lat="42.63342995754405" lon="11.996214062420211"><ele>330.0</ele><time>2026-04-27T15:58:41Z</time></trkpt><trkpt lat="42.633264302632924" lon="11.99635996358817"><ele>330.0</ele><time>2026-04-27T15:58:42Z</time></trkpt><trkpt lat="42.63311297528163" lon="11.996494213078083"><ele>330.0</ele><time>2026-04-27T15:58:43Z</time></trkpt><trkpt lat="42.632974079137654" lon="11.99661862523163"><ele>330.0</ele><time>2026-04-27T15:58:44Z</time></trkpt><trkpt lat="42.63285219189937" lon="11.996712729472282"><ele>332.0</ele><time>2026-04-27T15:58:45Z</time></trkpt><trkpt lat="42.63274401062066" lon="11.996787368641808"><ele>334.0</ele><time>2026-04-27T15:58:46Z</time></trkpt><trkpt lat="42.63265791596486" lon="11.996842932009368"><ele>336.0</ele><time>2026-04-27T15:58:47Z</time></trkpt><trkpt lat="42.63259496712841" lon="11.996886215034248"><ele>338.0</ele><time>2026-04-27T15:58:48Z</time></trkpt><trkpt lat="42.63267659576683" lon="11.996998147557882"><ele>340.0</ele><time>2026-04-27T15:58:53Z</time></trkpt><trkpt lat="42.6328031893338" lon="11.9969762507688"><ele>341.66666666666663</ele><time>2026-04-27T15:58:55Z</time></trkpt><trkpt lat="42.63288105535941" lon="11.996952007509096"><ele>343.3333333333333</ele><time>2026-04-27T15:58:56Z</time></trkpt><trkpt lat="42.63296783310768" lon="11.996926016940204"><ele>345.0</ele><time>2026-04-27T15:58:57Z</time></trkpt><trkpt lat="42.63305758889915" lon="11.996901769198278"><ele>346.6666666666667</ele><time>2026-04-27T15:58:58Z</time></trkpt><trkpt lat="42.63314062389918" lon="11.996879337159065"><ele>348.33333333333337</ele><time>2026-04-27T15:58:59Z</time></trkpt><trkpt lat="42.63321830747014" lon="11.996858350800064"><ele>350.0</ele><time>2026-04-27T15:59:00Z</time></trkpt><trkpt lat="42.633282860500955" lon="11.99684091167661"><ele>350.0</ele><time>2026-04-27T15:59:01Z</time></trkpt><trkpt lat="42.633354086402605" lon="11.996806164862267"><ele>350.0</ele><time>2026-04-27T15:59:04Z</time></trkpt><trkpt lat="42.63273059264009" lon="11.996998089803258"><ele>352.0</ele><time>2026-04-27T16:00:18Z</time></trkpt><trkpt lat="42.63115941207248" lon="11.997745154459805"><ele>347.66666666666663</ele><time>2026-04-27T16:06:18Z</time></trkpt><trkpt lat="42.6310154375097" lon="11.997819741393693"><ele>343.3333333333333</ele><time>2026-04-27T16:06:19Z</time></trkpt><trkpt lat="42.63085874013201" lon="11.9979010148935"><ele>339.0</ele><time>2026-04-27T16:06:20Z</time></trkpt><trkpt lat="42.63069574680155" lon="11.997972718347087"><ele>339.0</ele><time>2026-04-27T16:06:21Z</time></trkpt><trkpt lat="42.63052747904685" lon="11.998042972259823"><ele>339.0</ele><time>2026-04-27T16:06:22Z</time></trkpt><trkpt lat="42.630372552499864" lon="11.99809368851124"><ele>339.0</ele><time>2026-04-27T16:06:23Z</time></trkpt><trkpt lat="42.63021739296844" lon="11.998133564604087"><ele>335.75</ele><time>2026-04-27T16:06:24Z</time></trkpt><trkpt lat="42.630076178988084" lon="11.998178091438117"><ele>332.5</ele><time>2026-04-27T16:06:25Z</time></trkpt><trkpt lat="42.62993782688483" lon="11.99821595287539"><ele>329.25</ele><time>2026-04-27T16:06:26Z</time></trkpt><trkpt lat="42.62980559341695" lon="11.998246165420195"><ele>326.0</ele><time>2026-04-27T16:06:27Z</time></trkpt><trkpt lat="42.629678345577815" lon="11.998264519410919"><ele>326.0</ele><time>2026-04-27T16:06:28Z</time></trkpt><trkpt lat="42.629557426425635" lon="11.998270156814062"><ele>326.0</ele><time>2026-04-27T16:06:29Z</time></trkpt><trkpt lat="42.62944332656962" lon="11.998276993503085"><ele>326.0</ele><time>2026-04-27T16:06:30Z</time></trkpt><trkpt lat="42.62933263144727" lon="11.998288901537832"><ele>326.0</ele><time>2026-04-27T16:06:31Z</time></trkpt><trkpt lat="42.62922532082723" lon="11.998310866151398"><ele>324.0</ele><time>2026-04-27T16:06:32Z</time></trkpt><trkpt lat="42.62911458424648" lon="11.998334610983589"><ele>322.0</ele><time>2026-04-27T16:06:33Z</time></trkpt><trkpt lat="42.62900000424534" lon="11.998364455959575"><ele>320.0</ele><time>2026-04-27T16:06:34Z</time></trkpt><trkpt lat="42.62888746915351" lon="11.998392609313186"><ele>318.0</ele><time>2026-04-27T16:06:35Z</time></trkpt><trkpt lat="42.62877086678171" lon="11.998419408535902"><ele>321.75</ele><time>2026-04-27T16:06:36Z</time></trkpt><trkpt lat="42.62865415206113" lon="11.998455036555828"><ele>325.5</ele><time>2026-04-27T16:06:37Z</time></trkpt><trkpt lat="42.62853622858826" lon="11.998485966916988"><ele>329.25</ele><time>2026-04-27T16:06:38Z</time></trkpt><trkpt lat="42.628413934598306" lon="11.998513374825363"><ele>333.0</ele><time>2026-04-27T16:06:39Z</time></trkpt><trkpt lat="42.62829393311385" lon="11.998554050940177"><ele>333.0</ele><time>2026-04-27T16:06:40Z</time></trkpt><trkpt lat="42.62817534618701" lon="11.998608510126015"><ele>333.0</ele><time>2026-04-27T16:06:41Z</time></trkpt><trkpt lat="42.62806253987821" lon="11.998661771692085"><ele>333.0</ele><time>2026-04-27T16:06:42Z</time></trkpt><trkpt lat="42.62794686799565" lon="11.998712498758259"><ele>333.0</ele><time>2026-04-27T16:06:43Z</time></trkpt><trkpt lat="42.62783413290136" lon="11.9987768999225"><ele>331.5</ele><time>2026-04-27T16:06:44Z</time></trkpt><trkpt lat="42.62772503156345" lon="11.998834893201888"><ele>330.0</ele><time>2026-04-27T16:06:45Z</time></trkpt><trkpt lat="42.627609244973264" lon="11.998878423914837"><ele>328.5</ele><time>2026-04-27T16:06:46Z</time></trkpt><trkpt lat="42.62749304117989" lon="11.99892050226059"><ele>327.0</ele><time>2026-04-27T16:06:47Z</time></trkpt><trkpt lat="42.627384538953244" lon="11.998966976536712"><ele>327.0</ele><time>2026-04-27T16:06:48Z</time></trkpt><trkpt lat="42.627272150202806" lon="11.99900785497572"><ele>327.0</ele><time>2026-04-27T16:06:49Z</time></trkpt><trkpt lat="42.627161718920156" lon="11.999047042423312"><ele>327.0</ele><time>2026-04-27T16:06:50Z</time></trkpt><trkpt lat="42.627052730021695" lon="11.999089582119524"><ele>327.0</ele><time>2026-04-27T16:06:51Z</time></trkpt><trkpt lat="42.62694418596417" lon="11.999131309598463"><ele>332.20000000000005</ele><time>2026-04-27T16:06:52Z</time></trkpt><trkpt lat="42.626841703871406" lon="11.999169289097445"><ele>337.4</ele><time>2026-04-27T16:06:53Z</time></trkpt><trkpt lat="42.626734995091525" lon="11.99920414230508"><ele>342.6</ele><time>2026-04-27T16:06:54Z</time></trkpt><trkpt lat="42.62663137003646" lon="11.999240232645345"><ele>347.79999999999995</ele><time>2026-04-27T16:06:55Z</time></trkpt><trkpt lat="42.62652141860819" lon="11.999274330984072"><ele>353.0</ele><time>2026-04-27T16:06:56Z</time></trkpt><trkpt lat="42.626408305518744" lon="11.999283495983747"><ele>353.0</ele><time>2026-04-27T16:06:57Z</time></trkpt><trkpt lat="42.62628023745103" lon="11.999298936882843"><ele>353.0</ele><time>2026-04-27T16:06:58Z</time></trkpt><trkpt lat="42.6261411182952" lon="11.99930853413497"><ele>353.0</ele><time>2026-04-27T16:06:59Z</time></trkpt><trkpt lat="42.62598469887616" lon="11.999315912560283"><ele>353.0</ele><time>2026-04-27T16:07:00Z</time></trkpt><trkpt lat="42.62581013548647" lon="11.999320149501122"><ele>349.6666666666667</ele><time>2026-04-27T16:07:01Z</time></trkpt><trkpt lat="42.62563048129773" lon="11.999329324782602"><ele>346.3333333333333</ele><time>2026-04-27T16:07:02Z</time></trkpt><trkpt lat="42.625438692994884" lon="11.99934116471373"><ele>343.0</ele><time>2026-04-27T16:07:03Z</time></trkpt><trkpt lat="42.62523319533593" lon="11.999351861875272"><ele>339.0</ele><time>2026-04-27T16:07:04Z</time></trkpt><trkpt lat="42.62501905934235" lon="11.999363509303038"><ele>335.0</ele><time>2026-04-27T16:07:05Z</time></trkpt><trkpt lat="42.62480377236374" lon="11.99937006992642"><ele>331.0</ele><time>2026-04-27T16:07:06Z</time></trkpt><trkpt lat="42.62458384766624" lon="11.999381601274955"><ele>329.0</ele><time>2026-04-27T16:07:07Z</time></trkpt><trkpt lat="42.62435550441702" lon="11.999373794510607"><ele>327.0</ele><time>2026-04-27T16:07:08Z</time></trkpt><trkpt lat="42.62417212553286" lon="11.99937610890097"><ele>325.0</ele><time>2026-04-27T16:07:09Z</time></trkpt><trkpt lat="42.62400486384728" lon="11.999378256725509"><ele>325.0</ele><time>2026-04-27T16:07:10Z</time></trkpt><trkpt lat="42.62384487125081" lon="11.999375863640182"><ele>325.0</ele><time>2026-04-27T16:07:11Z</time></trkpt><trkpt lat="42.623681435407235" lon="11.999345765138559"><ele>325.0</ele><time>2026-04-27T16:07:12Z</time></trkpt><trkpt lat="42.62351631802971" lon="11.999296047287139"><ele>325.3333333333333</ele><time>2026-04-27T16:07:13Z</time></trkpt><trkpt lat="42.623364657372086" lon="11.999231105877127"><ele>325.6666666666667</ele><time>2026-04-27T16:07:14Z</time></trkpt><trkpt lat="42.623230920964005" lon="11.999140636321286"><ele>326.0</ele><time>2026-04-27T16:07:15Z</time></trkpt><trkpt lat="42.62309702725567" lon="11.999019784399458"><ele>322.5</ele><time>2026-04-27T16:07:16Z</time></trkpt><trkpt lat="42.62296760492036" lon="11.998876907832956"><ele>319.0</ele><time>2026-04-27T16:07:17Z</time></trkpt><trkpt lat="42.61199873952065" lon="11.99732845571999"><ele>320.3333333333333</ele><time>2026-04-27T16:08:18Z</time></trkpt><trkpt lat="42.611799683929426" lon="11.997225648510462"><ele>321.6666666666667</ele><time>2026-04-27T16:08:19Z</time></trkpt><trkpt lat="42.61160880143864" lon="11.997129782553491"><ele>323.0</ele><time>2026-04-27T16:08:20Z</time></trkpt><trkpt lat="42.61142973854777" lon="11.9970214068993"><ele>323.0</ele><time>2026-04-27T16:08:21Z</time></trkpt><trkpt lat="42.611255541918275" lon="11.996934301281216"><ele>323.0</ele><time>2026-04-27T16:08:22Z</time></trkpt><trkpt lat="42.61109217455648" lon="11.996858839020119"><ele>323.0</ele><time>2026-04-27T16:08:23Z</time></trkpt><trkpt lat="42.610942189261365" lon="11.996783683251833"><ele>325.6666666666667</ele><time>2026-04-27T16:08:24Z</time></trkpt><trkpt lat="42.61078452962848" lon="11.996733114941037"><ele>328.3333333333333</ele><time>2026-04-27T16:08:25Z</time></trkpt><trkpt lat="42.610618382113714" lon="11.99671868681402"><ele>331.0</ele><time>2026-04-27T16:08:26Z</time></trkpt><trkpt lat="42.610426545617095" lon="11.996726897079963"><ele>332.0</ele><time>2026-04-27T16:08:27Z</time></trkpt><trkpt lat="42.61023529320018" lon="11.996763340056388"><ele>333.0</ele><time>2026-04-27T16:08:28Z</time></trkpt><trkpt lat="42.61003688447593" lon="11.996787405971071"><ele>334.0</ele><time>2026-04-27T16:08:29Z</time></trkpt><trkpt lat="42.60981951868664" lon="11.996773746309428"><ele>334.0</ele><time>2026-04-27T16:08:30Z</time></trkpt><trkpt lat="42.60958865543951" lon="11.996781743549732"><ele>334.0</ele><time>2026-04-27T16:08:31Z</time></trkpt><trkpt lat="42.60934229824154" lon="11.996803804856224"><ele>327.5</ele><time>2026-04-27T16:08:32Z</time></trkpt><trkpt lat="42.60909666590906" lon="11.996776664937544"><ele>321.0</ele><time>2026-04-27T16:08:33Z</time></trkpt><trkpt lat="42.60884002516727" lon="11.996739510641612"><ele>318.5</ele><time>2026-04-27T16:08:34Z</time></trkpt><trkpt lat="42.60857592100075" lon="11.996709949197315"><ele>316.0</ele><time>2026-04-27T16:08:35Z</time></trkpt><trkpt lat="42.60830903992012" lon="11.996683178004725"><ele>314.0</ele><time>2026-04-27T16:08:36Z</time></trkpt><trkpt lat="42.6080414726722" lon="11.996650130762772"><ele>312.0</ele><time>2026-04-27T16:08:37Z</time></trkpt><trkpt lat="42.60780173924967" lon="11.99662583355585"><ele>312.0</ele><time>2026-04-27T16:08:38Z</time></trkpt><trkpt lat="42.607573396229" lon="11.99660495774879"><ele>312.0</ele><time>2026-04-27T16:08:39Z</time></trkpt><trkpt lat="42.60734105611311" lon="11.996586981366946"><ele>312.0</ele><time>2026-04-27T16:08:40Z</time></trkpt><trkpt lat="42.60711860853071" lon="11.996580096969385"><ele>312.0</ele><time>2026-04-27T16:08:41Z</time></trkpt><trkpt lat="42.60689551670031" lon="11.9965540917753"><ele>312.0</ele><time>2026-04-27T16:08:42Z</time></trkpt><trkpt lat="42.60666712855547" lon="11.996532029756706"><ele>312.0</ele><time>2026-04-27T16:08:43Z</time></trkpt><trkpt lat="42.60643839492112" lon="11.996511707331496"><ele>312.0</ele><time>2026-04-27T16:08:44Z</time></trkpt><trkpt lat="42.60620821885931" lon="11.996495063130101"><ele>312.3333333333333</ele><time>2026-04-27T16:08:45Z</time></trkpt><trkpt lat="42.605986522939226" lon="11.996468584514995"><ele>312.66666666666663</ele><time>2026-04-27T16:08:46Z</time></trkpt><trkpt lat="42.605762537392" lon="11.996449779202457"><ele>313.0</ele><time>2026-04-27T16:08:47Z</time></trkpt><trkpt lat="42.60555034292351" lon="11.996429466553368"><ele>313.0</ele><time>2026-04-27T16:08:48Z</time></trkpt><trkpt lat="42.605350415143086" lon="11.996417239760671"><ele>313.0</ele><time>2026-04-27T16:08:49Z</time></trkpt><trkpt lat="42.60516880099496" lon="11.996398444496062"><ele>313.0</ele><time>2026-04-27T16:08:50Z</time></trkpt><trkpt lat="42.60500552174428" lon="11.996382184529049"><ele>313.25</ele><time>2026-04-27T16:08:51Z</time></trkpt><trkpt lat="42.60485624469449" lon="11.996369563246956"><ele>313.5</ele><time>2026-04-27T16:08:52Z</time></trkpt><trkpt lat="42.604723359443774" lon="11.996365044251705"><ele>313.75</ele><time>2026-04-27T16:08:53Z</time></trkpt><trkpt lat="42.60459917885522" lon="11.996401524543176"><ele>314.0</ele><time>2026-04-27T16:08:54Z</time></trkpt><trkpt lat="42.60449622717045" lon="11.996446210816977"><ele>314.0</ele><time>2026-04-27T16:08:55Z</time></trkpt><trkpt lat="42.604410413094264" lon="11.996546225972907"><ele>314.0</ele><time>2026-04-27T16:08:56Z</time></trkpt><trkpt lat="42.60433594177057" lon="11.996620049316206"><ele>314.0</ele><time>2026-04-27T16:08:57Z</time></trkpt><trkpt lat="42.60428260472444" lon="11.996676971891329"><ele>314.0</ele><time>2026-04-27T16:08:58Z</time></trkpt><trkpt lat="42.60421863105107" lon="11.996737826216252"><ele>314.0</ele><time>2026-04-27T16:09:04Z</time></trkpt><trkpt lat="42.60433358154621" lon="11.996897936322513"><ele>314.8</ele><time>2026-04-27T16:09:06Z</time></trkpt><trkpt lat="42.604412890273515" lon="11.99701599111817"><ele>315.59999999999997</ele><time>2026-04-27T16:09:07Z</time></trkpt><trkpt lat="42.60447589007605" lon="11.99709322293243"><ele>316.4</ele><time>2026-04-27T16:09:08Z</time></trkpt><trkpt lat="42.60454098663327" lon="11.997155130118184"><ele>317.2</ele><time>2026-04-27T16:09:09Z</time></trkpt><trkpt lat="42.604642236894165" lon="11.997166546017302"><ele>318.0</ele><time>2026-04-27T16:09:11Z</time></trkpt><trkpt lat="42.60472533182564" lon="11.997091479286976"><ele>321.0</ele><time>2026-04-27T16:09:14Z</time></trkpt><trkpt lat="42.60482240075704" lon="11.997064385013678"><ele>324.0</ele><time>2026-04-27T16:09:16Z</time></trkpt><trkpt lat="42.6065287453446" lon="12.000372141375777"><ele>329.0</ele><time>2026-04-27T16:10:18Z</time></trkpt><trkpt lat="42.60652195713216" lon="12.000539876300135"><ele>334.0</ele><time>2026-04-27T16:10:20Z</time></trkpt><trkpt lat="42.606461006029335" lon="12.000668035087394"><ele>339.0</ele><time>2026-04-27T16:10:22Z</time></trkpt><trkpt lat="42.606379816865164" lon="12.000710092900029"><ele>344.0</ele><time>2026-04-27T16:10:24Z</time></trkpt><trkpt lat="42.606305993886885" lon="12.000689571509174"><ele>349.0</ele><time>2026-04-27T16:10:26Z</time></trkpt><trkpt lat="42.606200420363116" lon="12.000689884028104"><ele>351.0</ele><time>2026-04-27T16:10:28Z</time></trkpt><trkpt lat="42.60613066057949" lon="12.000689957450428"><ele>353.0</ele><time>2026-04-27T16:10:29Z</time></trkpt><trkpt lat="42.606048171295015" lon="12.000712058967858"><ele>355.0</ele><time>2026-04-27T16:10:30Z</time></trkpt><trkpt lat="42.60598236847658" lon="12.000707894133978"><ele>357.0</ele><time>2026-04-27T16:10:31Z</time></trkpt><trkpt lat="42.605886498678416" lon="12.000719331254393"><ele>359.0</ele><time>2026-04-27T16:10:33Z</time></trkpt><trkpt lat="42.60582120723455" lon="12.000773631519403"><ele>361.0</ele><time>2026-04-27T16:10:35Z</time></trkpt><trkpt lat="42.60585659254607" lon="12.000882550044757"><ele>363.0</ele><time>2026-04-27T16:10:36Z</time></trkpt><trkpt lat="42.605867887494604" lon="12.00100865241879"><ele>365.0</ele><time>2026-04-27T16:10:38Z</time></trkpt><trkpt lat="42.60587009923144" lon="12.001162100778844"><ele>367.0</ele><time>2026-04-27T16:10:40Z</time></trkpt><trkpt lat="42.60586086718902" lon="12.001325820058641"><ele>369.0</ele><time>2026-04-27T16:10:42Z</time></trkpt><trkpt lat="42.60583216577367" lon="12.001420341491452"><ele>371.0</ele><time>2026-04-27T16:10:44Z</time></trkpt><trkpt lat="42.60575746607063" lon="12.001494828336302"><ele>371.0</ele><time>2026-04-27T16:10:46Z</time></trkpt><trkpt lat="42.605711605507565" lon="12.001612294201365"><ele>371.0</ele><time>2026-04-27T16:10:48Z</time></trkpt><trkpt lat="42.605734193303796" lon="12.00175207124615"><ele>371.0</ele><time>2026-04-27T16:10:50Z</time></trkpt><trkpt lat="42.60574044953907" lon="12.00184190210334"><ele>371.0</ele><time>2026-04-27T16:10:51Z</time></trkpt><trkpt lat="42.605759464084" lon="12.001924821075773"><ele>371.0</ele><time>2026-04-27T16:10:52Z</time></trkpt><trkpt lat="42.605752380872815" lon="12.002109715465975"><ele>372.4</ele><time>2026-04-27T16:10:54Z</time></trkpt><trkpt lat="42.60576926050403" lon="12.00226327503155"><ele>373.8</ele><time>2026-04-27T16:10:56Z</time></trkpt><trkpt lat="42.605772154312085" lon="12.002418265745758"><ele>375.2</ele><time>2026-04-27T16:10:58Z</time></trkpt><trkpt lat="42.605768832554226" lon="12.002510840752944"><ele>376.59999999999997</ele><time>2026-04-27T16:10:59Z</time></trkpt><trkpt lat="42.605777442193926" lon="12.002607344841179"><ele>378.0</ele><time>2026-04-27T16:11:00Z</time></trkpt><trkpt lat="42.605765769488976" lon="12.002774023088394"><ele>378.3333333333333</ele><time>2026-04-27T16:11:02Z</time></trkpt><trkpt lat="42.60577294790039" lon="12.002916263050926"><ele>378.6666666666667</ele><time>2026-04-27T16:11:04Z</time></trkpt><trkpt lat="42.60578247171651" lon="12.003022094286397"><ele>379.0</ele><time>2026-04-27T16:11:06Z</time></trkpt><trkpt lat="42.605768447085055" lon="12.003149783712336"><ele>379.33333333333337</ele><time>2026-04-27T16:11:08Z</time></trkpt><trkpt lat="42.6057705959822" lon="12.003238900360254"><ele>379.6666666666667</ele><time>2026-04-27T16:11:09Z</time></trkpt><trkpt lat="42.605781585518656" lon="12.003329609332736"><ele>380.0</ele><time>2026-04-27T16:11:10Z</time></trkpt><trkpt lat="42.605798348729266" lon="12.003421582992281"><ele>381.25</ele><time>2026-04-27T16:11:11Z</time></trkpt><trkpt lat="42.60585273007161" lon="12.003579390068465"><ele>382.5</ele><time>2026-04-27T16:11:13Z</time></trkpt><trkpt lat="42.605868129472555" lon="12.00371872223822"><ele>383.75</ele><time>2026-04-27T16:11:15Z</time></trkpt><trkpt lat="42.60590172566102" lon="12.003873432577961"><ele>385.0</ele><time>2026-04-27T16:11:17Z</time></trkpt><trkpt lat="42.60672888710501" lon="12.007012163819692"><ele>387.00000000000006</ele><time>2026-04-27T16:12:18Z</time></trkpt><trkpt lat="42.60674610725626" lon="12.007179095983858"><ele>389.0</ele><time>2026-04-27T16:12:20Z</time></trkpt><trkpt lat="42.606794509289664" lon="12.007264630814019"><ele>391.0</ele><time>2026-04-27T16:12:21Z</time></trkpt><trkpt lat="42.60681633484403" lon="12.007347430371412"><ele>393.0</ele><time>2026-04-27T16:12:22Z</time></trkpt><trkpt lat="42.60684091397517" lon="12.007443104969092"><ele>395.00000000000006</ele><time>2026-04-27T16:12:23Z</time></trkpt><trkpt lat="42.60686350255286" lon="12.007576850509746"><ele>397.0</ele><time>2026-04-27T16:12:25Z</time></trkpt><trkpt lat="42.60688260302908" lon="12.007675208519032"><ele>398.83333333333337</ele><time>2026-04-27T16:12:26Z</time></trkpt><trkpt lat="42.606889093310286" lon="12.007830960710928"><ele>400.6666666666667</ele><time>2026-04-27T16:12:28Z</time></trkpt><trkpt lat="42.6069073363339" lon="12.007926451904176"><ele>402.5</ele><time>2026-04-27T16:12:29Z</time></trkpt><trkpt lat="42.606921803526724" lon="12.008021234818116"><ele>404.33333333333337</ele><time>2026-04-27T16:12:30Z</time></trkpt><trkpt lat="42.60693674077611" lon="12.008139957831567"><ele>406.1666666666667</ele><time>2026-04-27T16:12:32Z</time></trkpt><trkpt lat="42.6069846942353" lon="12.008241540110088"><ele>408.0</ele><time>2026-04-27T16:12:35Z</time></trkpt><trkpt lat="42.60695434452463" lon="12.008144042024519"><ele>408.0</ele><time>2026-04-27T16:12:47Z</time></trkpt><trkpt lat="42.606972591142" lon="12.008240540456589"><ele>408.0</ele><time>2026-04-27T16:12:53Z</time></trkpt><trkpt lat="42.606999991437704" lon="12.008325942584852"><ele>408.0</ele><time>2026-04-27T16:12:56Z</time></trkpt><trkpt lat="42.60702372481183" lon="12.008453710669947"><ele>408.0</ele><time>2026-04-27T16:12:58Z</time></trkpt><trkpt lat="42.60703590795785" lon="12.008542073893917"><ele>408.0</ele><time>2026-04-27T16:12:59Z</time></trkpt><trkpt lat="42.607055178885716" lon="12.00862535060663"><ele>408.0</ele><time>2026-04-27T16:13:00Z</time></trkpt><trkpt lat="42.60707569775436" lon="12.008725900054728"><ele>408.0</ele><time>2026-04-27T16:13:01Z</time></trkpt><trkpt lat="42.60710383232302" lon="12.008836124339668"><ele>408.0</ele><time>2026-04-27T16:13:02Z</time></trkpt><trkpt lat="42.60714118223022" lon="12.009021828708931"><ele>408.0</ele><time>2026-04-27T16:13:04Z</time></trkpt><trkpt lat="42.60721141031639" lon="12.009118727730936"><ele>408.0</ele><time>2026-04-27T16:13:06Z</time></trkpt><trkpt lat="42.60727515262338" lon="12.009138135768772"><ele>408.0</ele><time>2026-04-27T16:13:15.001Z</time></trkpt><trkpt lat="42.60699862099615" lon="12.008847296836164"><ele>408.0</ele><time>2026-04-27T16:17:28Z</time></trkpt><trkpt lat="42.607015124071644" lon="12.008732717395867"><ele>408.0</ele><time>2026-04-27T16:17:29Z</time></trkpt><trkpt lat="42.606996231206956" lon="12.00861210695798"><ele>408.0</ele><time>2026-04-27T16:17:31Z</time></trkpt><trkpt lat="42.606965052886835" lon="12.008515675658389"><ele>408.0</ele><time>2026-04-27T16:17:34Z</time></trkpt><trkpt lat="42.60691853834255" lon="12.00843165448405"><ele>408.0</ele><time>2026-04-27T16:17:37Z</time></trkpt><trkpt lat="42.60689322262054" lon="12.008321599571458"><ele>408.0</ele><time>2026-04-27T16:17:40Z</time></trkpt><trkpt lat="42.606834178148894" lon="12.00821000453559"><ele>408.0</ele><time>2026-04-27T16:17:54Z</time></trkpt><trkpt lat="42.60687314122673" lon="12.00808777325702"><ele>408.0</ele><time>2026-04-27T16:25:58Z</time></trkpt><trkpt lat="42.60686967975791" lon="12.007989407719558"><ele>408.0</ele><time>2026-04-27T16:26:00Z</time></trkpt><trkpt lat="42.60684156488026" lon="12.007873297316328"><ele>408.0</ele><time>2026-04-27T16:26:03Z</time></trkpt><trkpt lat="42.60683442368278" lon="12.007785593449634"><ele>408.0</ele><time>2026-04-27T16:26:06Z</time></trkpt><trkpt lat="42.606821333025415" lon="12.007694445726644"><ele>408.0</ele><time>2026-04-27T16:26:09Z</time></trkpt><trkpt lat="42.606817810781074" lon="12.007574371079379"><ele>402.5</ele><time>2026-04-27T16:26:13Z</time></trkpt><trkpt lat="42.60681471740036" lon="12.007469111848144"><ele>397.0</ele><time>2026-04-27T16:26:16Z</time></trkpt><trkpt lat="42.60627815341476" lon="12.004953096402653"><ele>378.0</ele><time>2026-04-27T16:27:18Z</time></trkpt><trkpt lat="42.605802995293104" lon="12.0023346404816"><ele>378.0</ele><time>2026-04-27T16:34:18Z</time></trkpt><trkpt lat="42.60579786319325" lon="12.002219840336059"><ele>378.0</ele><time>2026-04-27T16:34:19Z</time></trkpt><trkpt lat="42.605793228231335" lon="12.002108566778785"><ele>378.0</ele><time>2026-04-27T16:34:20Z</time></trkpt><trkpt lat="42.60578108102333" lon="12.001985679324944"><ele>378.0</ele><time>2026-04-27T16:34:21Z</time></trkpt><trkpt lat="42.605762789084004" lon="12.001860938168338"><ele>378.0</ele><time>2026-04-27T16:34:22Z</time></trkpt><trkpt lat="42.60576643734168" lon="12.001734704742368"><ele>378.0</ele><time>2026-04-27T16:34:23Z</time></trkpt><trkpt lat="42.605762554554715" lon="12.001631183211753"><ele>376.8333333333333</ele><time>2026-04-27T16:34:24Z</time></trkpt><trkpt lat="42.605768633919645" lon="12.001526042637376"><ele>375.6666666666667</ele><time>2026-04-27T16:34:26Z</time></trkpt><trkpt lat="42.605824613285044" lon="12.001475767547259"><ele>374.5</ele><time>2026-04-27T16:34:29Z</time></trkpt><trkpt lat="42.60592303066257" lon="12.001358253374947"><ele>373.33333333333337</ele><time>2026-04-27T16:34:31Z</time></trkpt><trkpt lat="42.60590158559566" lon="12.001243686715666"><ele>372.1666666666667</ele><time>2026-04-27T16:34:32Z</time></trkpt><trkpt lat="42.60589574351939" lon="12.00115695201736"><ele>371.0</ele><time>2026-04-27T16:34:33Z</time></trkpt><trkpt lat="42.605902042171564" lon="12.001067102644829"><ele>371.0</ele><time>2026-04-27T16:34:34Z</time></trkpt><trkpt lat="42.605900355604966" lon="12.000950088417794"><ele>371.0</ele><time>2026-04-27T16:34:36Z</time></trkpt><trkpt lat="42.60590630309634" lon="12.000845115113444"><ele>371.0</ele><time>2026-04-27T16:34:38Z</time></trkpt><trkpt lat="42.60594010551602" lon="12.000740639016366"><ele>371.0</ele><time>2026-04-27T16:34:41Z</time></trkpt><trkpt lat="42.606034022351395" lon="12.000732420961803"><ele>371.0</ele><time>2026-04-27T16:34:43Z</time></trkpt><trkpt lat="42.60611049904399" lon="12.000736037473756"><ele>371.0</ele><time>2026-04-27T16:34:45Z</time></trkpt><trkpt lat="42.60617613091586" lon="12.000734746323653"><ele>367.33333333333337</ele><time>2026-04-27T16:34:47Z</time></trkpt><trkpt lat="42.60624190350364" lon="12.000735356208093"><ele>363.6666666666667</ele><time>2026-04-27T16:35:25Z</time></trkpt><trkpt lat="42.6063313964098" lon="12.000733465968894"><ele>360.0</ele><time>2026-04-27T16:35:27Z</time></trkpt><trkpt lat="42.60643508179861" lon="12.000708300858289"><ele>356.3333333333333</ele><time>2026-04-27T16:35:29Z</time></trkpt><trkpt lat="42.60650137841203" lon="12.000662513050703"><ele>352.66666666666663</ele><time>2026-04-27T16:35:31Z</time></trkpt><trkpt lat="42.60653977421486" lon="12.000574356081932"><ele>349.0</ele><time>2026-04-27T16:35:33Z</time></trkpt><trkpt lat="42.60656739127481" lon="12.000437331480603"><ele>349.0</ele><time>2026-04-27T16:35:35Z</time></trkpt><trkpt lat="42.60657687530499" lon="12.000329500265591"><ele>349.0</ele><time>2026-04-27T16:35:36Z</time></trkpt><trkpt lat="42.60656404505553" lon="12.000167048836314"><ele>349.0</ele><time>2026-04-27T16:35:38Z</time></trkpt><trkpt lat="42.60657876526436" lon="12.000062170533408"><ele>349.0</ele><time>2026-04-27T16:35:39Z</time></trkpt><trkpt lat="42.6065622436173" lon="11.999974929042343"><ele>349.0</ele><time>2026-04-27T16:35:40Z</time></trkpt><trkpt lat="42.60656811144328" lon="11.999880790824836"><ele>349.0</ele><time>2026-04-27T16:35:41Z</time></trkpt><trkpt lat="42.60657006649762" lon="11.999725550074901"><ele>349.0</ele><time>2026-04-27T16:35:43Z</time></trkpt><trkpt lat="42.6065523651452" lon="11.999574751839386"><ele>349.0</ele><time>2026-04-27T16:35:45Z</time></trkpt><trkpt lat="42.60655357775794" lon="11.99943051911057"><ele>349.0</ele><time>2026-04-27T16:35:47Z</time></trkpt><trkpt lat="42.60653995565268" lon="11.999268644653588"><ele>349.0</ele><time>2026-04-27T16:35:49Z</time></trkpt><trkpt lat="42.60650727975198" lon="11.999098177830902"><ele>349.3333333333333</ele><time>2026-04-27T16:35:51Z</time></trkpt><trkpt lat="42.60646976554052" lon="11.99900595403717"><ele>349.66666666666663</ele><time>2026-04-27T16:35:52Z</time></trkpt><trkpt lat="42.60639578342016" lon="11.998916574938976"><ele>350.0</ele><time>2026-04-27T16:35:53Z</time></trkpt><trkpt lat="42.606334135097185" lon="11.998860378926583"><ele>350.3333333333333</ele><time>2026-04-27T16:35:54Z</time></trkpt><trkpt lat="42.60627491351411" lon="11.99881498032757"><ele>350.6666666666667</ele><time>2026-04-27T16:35:55Z</time></trkpt><trkpt lat="42.60621637480914" lon="11.998780148245164"><ele>351.0</ele><time>2026-04-27T16:35:56Z</time></trkpt><trkpt lat="42.606150257536484" lon="11.998747389053698"><ele>351.0</ele><time>2026-04-27T16:35:57Z</time></trkpt><trkpt lat="42.60607420404713" lon="11.99872020445482"><ele>351.0</ele><time>2026-04-27T16:35:58Z</time></trkpt><trkpt lat="42.605990328723934" lon="11.998710820191285"><ele>351.0</ele><time>2026-04-27T16:35:59Z</time></trkpt><trkpt lat="42.60591310062909" lon="11.998726025006315"><ele>351.0</ele><time>2026-04-27T16:36:00Z</time></trkpt><trkpt lat="42.605830767856496" lon="11.998721404789116"><ele>351.0</ele><time>2026-04-27T16:36:01Z</time></trkpt><trkpt lat="42.605756639870144" lon="11.998740901546414"><ele>351.0</ele><time>2026-04-27T16:36:02Z</time></trkpt><trkpt lat="42.60568225654653" lon="11.998759271842308"><ele>351.0</ele><time>2026-04-27T16:36:03Z</time></trkpt><trkpt lat="42.605598517617594" lon="11.998752437226422"><ele>351.0</ele><time>2026-04-27T16:36:05Z</time></trkpt><trkpt lat="42.605595869448386" lon="11.998636536170196"><ele>351.0</ele><time>2026-04-27T16:36:07Z</time></trkpt><trkpt lat="42.605606850488186" lon="11.998519606965516"><ele>351.0</ele><time>2026-04-27T16:36:10Z</time></trkpt><trkpt lat="42.6056181530149" lon="11.998390597653838"><ele>351.0</ele><time>2026-04-27T16:36:12Z</time></trkpt><trkpt lat="42.60560888599804" lon="11.998246563603573"><ele>347.75</ele><time>2026-04-27T16:36:14Z</time></trkpt><trkpt lat="42.605584881133595" lon="11.998156366413522"><ele>344.5</ele><time>2026-04-27T16:36:15Z</time></trkpt><trkpt lat="42.60554711387123" lon="11.998066677004081"><ele>341.25</ele><time>2026-04-27T16:36:16Z</time></trkpt><trkpt lat="42.60550001983802" lon="11.997968700453026"><ele>338.0</ele><time>2026-04-27T16:36:17Z</time></trkpt><trkpt lat="42.60765762248624" lon="11.996665624296066"><ele>330.6666666666667</ele><time>2026-04-27T16:37:18Z</time></trkpt><trkpt lat="42.607829478892" lon="11.99667922619565"><ele>323.3333333333333</ele><time>2026-04-27T16:37:19Z</time></trkpt><trkpt lat="42.60799679369013" lon="11.996696445061302"><ele>316.0</ele><time>2026-04-27T16:37:20Z</time></trkpt><trkpt lat="42.608165488053615" lon="11.99671395239386"><ele>316.0</ele><time>2026-04-27T16:37:21Z</time></trkpt><trkpt lat="42.608324625770024" lon="11.996731399842451"><ele>316.0</ele><time>2026-04-27T16:37:22Z</time></trkpt><trkpt lat="42.60847640884296" lon="11.996748264644161"><ele>316.0</ele><time>2026-04-27T16:37:23Z</time></trkpt><trkpt lat="42.608628399194956" lon="11.996765152463723"><ele>317.66666666666663</ele><time>2026-04-27T16:37:24Z</time></trkpt><trkpt lat="42.60877977158568" lon="11.99678197161105"><ele>319.3333333333333</ele><time>2026-04-27T16:37:25Z</time></trkpt><trkpt lat="42.608939554981355" lon="11.996780082304259"><ele>321.0</ele><time>2026-04-27T16:37:26Z</time></trkpt><trkpt lat="42.609099460335244" lon="11.996798505454034"><ele>321.0</ele><time>2026-04-27T16:37:27Z</time></trkpt><trkpt lat="42.609263892405124" lon="11.996821294136316"><ele>321.0</ele><time>2026-04-27T16:37:28Z</time></trkpt><trkpt lat="42.60943826660238" lon="11.996827903882496"><ele>321.0</ele><time>2026-04-27T16:37:29Z</time></trkpt><trkpt lat="42.60960985061546" lon="11.996854242634498"><ele>325.3333333333333</ele><time>2026-04-27T16:37:30Z</time></trkpt><trkpt lat="42.609774432123345" lon="11.996811673857584"><ele>329.66666666666663</ele><time>2026-04-27T16:37:31Z</time></trkpt><trkpt lat="42.60995687489962" lon="11.996801854783186"><ele>334.0</ele><time>2026-04-27T16:37:32Z</time></trkpt><trkpt lat="42.61014362729982" lon="11.996801355720503"><ele>334.0</ele><time>2026-04-27T16:37:33Z</time></trkpt><trkpt lat="42.61031884918864" lon="11.996789440117215"><ele>334.0</ele><time>2026-04-27T16:37:34Z</time></trkpt><trkpt lat="42.6104787551608" lon="11.99678199562293"><ele>334.0</ele><time>2026-04-27T16:37:35Z</time></trkpt><trkpt lat="42.61063244394851" lon="11.996777179069683"><ele>333.25</ele><time>2026-04-27T16:37:36Z</time></trkpt><trkpt lat="42.610775186221936" lon="11.99679876122585"><ele>332.5</ele><time>2026-04-27T16:37:37Z</time></trkpt><trkpt lat="42.61091807535325" lon="11.996829395590742"><ele>331.75</ele><time>2026-04-27T16:37:38Z</time></trkpt><trkpt lat="42.61107141246791" lon="11.996894770858157"><ele>331.0</ele><time>2026-04-27T16:37:39Z</time></trkpt><trkpt lat="42.61124667477314" lon="11.996984603559852"><ele>328.3333333333333</ele><time>2026-04-27T16:37:40Z</time></trkpt><trkpt lat="42.6114347460574" lon="11.997082172403111"><ele>325.6666666666667</ele><time>2026-04-27T16:37:41Z</time></trkpt><trkpt lat="42.61163861771488" lon="11.997189293671775"><ele>323.0</ele><time>2026-04-27T16:37:42Z</time></trkpt><trkpt lat="42.61182260791956" lon="11.997286084621443"><ele>320.0</ele><time>2026-04-27T16:37:43Z</time></trkpt><trkpt lat="42.61199348346826" lon="11.997373932238274"><ele>317.0</ele><time>2026-04-27T16:37:44Z</time></trkpt><trkpt lat="42.612161944464766" lon="11.997455008780463"><ele>314.0</ele><time>2026-04-27T16:37:45Z</time></trkpt><trkpt lat="42.612340093636604" lon="11.99750272348164"><ele>322.6666666666667</ele><time>2026-04-27T16:37:46Z</time></trkpt><trkpt lat="42.61250749659563" lon="11.997547844457069"><ele>331.3333333333333</ele><time>2026-04-27T16:37:47Z</time></trkpt><trkpt lat="42.61268545687838" lon="11.997570353070042"><ele>340.0</ele><time>2026-04-27T16:37:48Z</time></trkpt><trkpt lat="42.612866128984614" lon="11.997569247412667"><ele>340.0</ele><time>2026-04-27T16:37:49Z</time></trkpt><trkpt lat="42.613045276314836" lon="11.99754446400219"><ele>340.0</ele><time>2026-04-27T16:37:50Z</time></trkpt><trkpt lat="42.61322803625922" lon="11.997501793747155"><ele>340.0</ele><time>2026-04-27T16:37:51Z</time></trkpt><trkpt lat="42.613414145705846" lon="11.997441710115284"><ele>334.3333333333333</ele><time>2026-04-27T16:37:52Z</time></trkpt><trkpt lat="42.613608752157745" lon="11.997371778175868"><ele>328.6666666666667</ele><time>2026-04-27T16:37:53Z</time></trkpt><trkpt lat="42.61379481534604" lon="11.99728788232485"><ele>323.0</ele><time>2026-04-27T16:37:54Z</time></trkpt><trkpt lat="42.61397968363781" lon="11.99718712752619"><ele>323.0</ele><time>2026-04-27T16:37:55Z</time></trkpt><trkpt lat="42.61416762167089" lon="11.997073483444986"><ele>323.0</ele><time>2026-04-27T16:37:56Z</time></trkpt><trkpt lat="42.61434720194114" lon="11.996957499882468"><ele>323.0</ele><time>2026-04-27T16:37:57Z</time></trkpt><trkpt lat="42.61451713733669" lon="11.996823506968797"><ele>325.33333333333337</ele><time>2026-04-27T16:37:58Z</time></trkpt><trkpt lat="42.61468295328675" lon="11.996706561677126"><ele>327.6666666666667</ele><time>2026-04-27T16:37:59Z</time></trkpt><trkpt lat="42.61484287598493" lon="11.996581225814555"><ele>330.0</ele><time>2026-04-27T16:38:00Z</time></trkpt><trkpt lat="42.61499073349573" lon="11.9964331964749"><ele>327.0</ele><time>2026-04-27T16:38:01Z</time></trkpt><trkpt lat="42.615120284632724" lon="11.996272947447494"><ele>324.0</ele><time>2026-04-27T16:38:02Z</time></trkpt><trkpt lat="42.61525260811586" lon="11.996128410897382"><ele>321.0</ele><time>2026-04-27T16:38:03Z</time></trkpt><trkpt lat="42.61536473442374" lon="11.995992575292378"><ele>321.0</ele><time>2026-04-27T16:38:04Z</time></trkpt><trkpt lat="42.61546715046731" lon="11.99591012718816"><ele>321.0</ele><time>2026-04-27T16:38:05Z</time></trkpt><trkpt lat="42.61557515410633" lon="11.995868304110477"><ele>321.0</ele><time>2026-04-27T16:38:06Z</time></trkpt><trkpt lat="42.61568682950358" lon="11.995864246827589"><ele>321.0</ele><time>2026-04-27T16:38:07Z</time></trkpt><trkpt lat="42.61581338905278" lon="11.995907319771304"><ele>321.0</ele><time>2026-04-27T16:38:08Z</time></trkpt><trkpt lat="42.61592733407732" lon="11.99602722509433"><ele>321.0</ele><time>2026-04-27T16:38:09Z</time></trkpt><trkpt lat="42.616066598214985" lon="11.996160905237213"><ele>321.0</ele><time>2026-04-27T16:38:10Z</time></trkpt><trkpt lat="42.616232095227" lon="11.996289559817805"><ele>318.3333333333333</ele><time>2026-04-27T16:38:11Z</time></trkpt><trkpt lat="42.61641349396519" lon="11.996399738429096"><ele>315.66666666666663</ele><time>2026-04-27T16:38:12Z</time></trkpt><trkpt lat="42.61658839751602" lon="11.996535722937734"><ele>313.0</ele><time>2026-04-27T16:38:13Z</time></trkpt><trkpt lat="42.61677571295925" lon="11.996633798685167"><ele>314.3333333333333</ele><time>2026-04-27T16:38:14Z</time></trkpt><trkpt lat="42.61698433104114" lon="11.996689178291748"><ele>315.6666666666667</ele><time>2026-04-27T16:38:15Z</time></trkpt><trkpt lat="42.61721161426128" lon="11.996747190202994"><ele>317.0</ele><time>2026-04-27T16:38:16Z</time></trkpt><trkpt lat="42.617444480200916" lon="11.996826398044908"><ele>326.0</ele><time>2026-04-27T16:38:17Z</time></trkpt><trkpt lat="42.623538691680004" lon="11.999364777514428"><ele>329.0</ele><time>2026-04-27T16:39:19Z</time></trkpt><trkpt lat="42.62141001257083" lon="12.000214145708153"><ele>329.0</ele><time>2026-04-27T16:43:18Z</time></trkpt><trkpt lat="42.62140313670292" lon="12.000309404904035"><ele>329.0</ele><time>2026-04-27T16:43:36Z</time></trkpt><trkpt lat="42.62350055955093" lon="11.99933322025149"><ele>327.6666666666667</ele><time>2026-04-27T16:47:18Z</time></trkpt><trkpt lat="42.62365479631196" lon="11.999383360024176"><ele>326.3333333333333</ele><time>2026-04-27T16:47:19Z</time></trkpt><trkpt lat="42.62382933529952" lon="11.999391638589207"><ele>325.0</ele><time>2026-04-27T16:47:20Z</time></trkpt><trkpt lat="42.62402301188978" lon="11.999401692173173"><ele>325.0</ele><time>2026-04-27T16:47:21Z</time></trkpt><trkpt lat="42.624232120546345" lon="11.999398393823093"><ele>325.0</ele><time>2026-04-27T16:47:22Z</time></trkpt><trkpt lat="42.62445059876446" lon="11.99939002458965"><ele>325.0</ele><time>2026-04-27T16:47:23Z</time></trkpt><trkpt lat="42.62467654971284" lon="11.99940254490056"><ele>328.0</ele><time>2026-04-27T16:47:24Z</time></trkpt><trkpt lat="42.6249149758088" lon="11.999392328376413"><ele>331.0</ele><time>2026-04-27T16:47:25Z</time></trkpt><trkpt lat="42.625154082880115" lon="11.999361908665566"><ele>337.0</ele><time>2026-04-27T16:47:26Z</time></trkpt><trkpt lat="42.625392331455096" lon="11.999374780361459"><ele>343.0</ele><time>2026-04-27T16:47:27Z</time></trkpt><trkpt lat="42.62563363453152" lon="11.99936445272689"><ele>343.0</ele><time>2026-04-27T16:47:28Z</time></trkpt><trkpt lat="42.625874235411885" lon="11.999354323715483"><ele>343.0</ele><time>2026-04-27T16:47:29Z</time></trkpt><trkpt lat="42.62610914665396" lon="11.999343811782264"><ele>346.3333333333333</ele><time>2026-04-27T16:47:30Z</time></trkpt><trkpt lat="42.626325895532986" lon="11.999310451194674"><ele>349.6666666666667</ele><time>2026-04-27T16:47:31Z</time></trkpt><trkpt lat="42.62654403287252" lon="11.999303211295546"><ele>353.0</ele><time>2026-04-27T16:47:32Z</time></trkpt><trkpt lat="42.626767472570116" lon="11.999240301113383"><ele>340.0</ele><time>2026-04-27T16:47:33Z</time></trkpt><trkpt lat="42.62699593809479" lon="11.999157947800839"><ele>327.0</ele><time>2026-04-27T16:47:34Z</time></trkpt><trkpt lat="42.62723709156906" lon="11.999066283993152"><ele>327.0</ele><time>2026-04-27T16:47:35Z</time></trkpt><trkpt lat="42.627478884366035" lon="11.99897306120348"><ele>327.0</ele><time>2026-04-27T16:47:36Z</time></trkpt><trkpt lat="42.62771311202471" lon="11.998876579924291"><ele>330.0</ele><time>2026-04-27T16:47:37Z</time></trkpt><trkpt lat="42.62793347820724" lon="11.998775599371838"><ele>333.0</ele><time>2026-04-27T16:47:38Z</time></trkpt><trkpt lat="42.628139133897" lon="11.998675111317926"><ele>333.0</ele><time>2026-04-27T16:47:39Z</time></trkpt><trkpt lat="42.62834129972829" lon="11.99858715903986"><ele>333.0</ele><time>2026-04-27T16:47:40Z</time></trkpt><trkpt lat="42.6285571963976" lon="11.998515671614223"><ele>333.0</ele><time>2026-04-27T16:47:41Z</time></trkpt><trkpt lat="42.628773517168014" lon="11.998456447283974"><ele>335.6666666666667</ele><time>2026-04-27T16:47:42Z</time></trkpt><trkpt lat="42.62898010914553" lon="11.998358040425076"><ele>338.33333333333337</ele><time>2026-04-27T16:47:43Z</time></trkpt><trkpt lat="42.62919335597528" lon="11.99831678347884"><ele>341.0</ele><time>2026-04-27T16:47:44Z</time></trkpt><trkpt lat="42.62942176563513" lon="11.998293122701254"><ele>336.0</ele><time>2026-04-27T16:47:45Z</time></trkpt><trkpt lat="42.6296438617706" lon="11.998284707245128"><ele>331.0</ele><time>2026-04-27T16:47:46Z</time></trkpt><trkpt lat="42.629868328950586" lon="11.998295712880381"><ele>326.0</ele><time>2026-04-27T16:47:47Z</time></trkpt><trkpt lat="42.63009200566586" lon="11.998243233388312"><ele>332.5</ele><time>2026-04-27T16:47:48Z</time></trkpt><trkpt lat="42.63031571216369" lon="11.998173747917182"><ele>339.0</ele><time>2026-04-27T16:47:49Z</time></trkpt><trkpt lat="42.63053945506226" lon="11.998092797614882"><ele>339.0</ele><time>2026-04-27T16:47:49.999Z</time></trkpt><trkpt lat="42.63076212275319" lon="11.99800364640891"><ele>339.0</ele><time>2026-04-27T16:47:50.999Z</time></trkpt><trkpt lat="42.6309810907318" lon="11.997897327922871"><ele>345.5</ele><time>2026-04-27T16:47:51.999Z</time></trkpt><trkpt lat="42.63119666557907" lon="11.997785069654157"><ele>352.0</ele><time>2026-04-27T16:47:52.999Z</time></trkpt><trkpt lat="42.63140322212225" lon="11.997667134361961"><ele>352.0</ele><time>2026-04-27T16:47:53.999Z</time></trkpt><trkpt lat="42.63161115998727" lon="11.997541638891752"><ele>352.0</ele><time>2026-04-27T16:47:55Z</time></trkpt><trkpt lat="42.63181772494392" lon="11.997415961550425"><ele>348.0</ele><time>2026-04-27T16:47:56Z</time></trkpt><trkpt lat="42.632005408317404" lon="11.997301772038872"><ele>344.0</ele><time>2026-04-27T16:47:57Z</time></trkpt><trkpt lat="42.632180981969164" lon="11.997194239383369"><ele>340.0</ele><time>2026-04-27T16:47:58Z</time></trkpt><trkpt lat="42.63235108482686" lon="11.997087022932673"><ele>340.0</ele><time>2026-04-27T16:47:59Z</time></trkpt><trkpt lat="42.63251029681037" lon="11.996982152049396"><ele>340.0</ele><time>2026-04-27T16:48:00Z</time></trkpt><trkpt lat="42.63265366835651" lon="11.996819547905739"><ele>340.0</ele><time>2026-04-27T16:48:01Z</time></trkpt><trkpt lat="42.632827126815506" lon="11.996714796072585"><ele>336.66666666666663</ele><time>2026-04-27T16:48:02Z</time></trkpt><trkpt lat="42.63300021309125" lon="11.99659956996894"><ele>333.3333333333333</ele><time>2026-04-27T16:48:03Z</time></trkpt><trkpt lat="42.63317135239488" lon="11.996449889431815"><ele>330.0</ele><time>2026-04-27T16:48:04Z</time></trkpt><trkpt lat="42.63337138941998" lon="11.996310586271049"><ele>330.0</ele><time>2026-04-27T16:48:05Z</time></trkpt><trkpt lat="42.63356292008922" lon="11.996131803127675"><ele>330.0</ele><time>2026-04-27T16:48:06Z</time></trkpt><trkpt lat="42.633749859990445" lon="11.99595803862325"><ele>326.0</ele><time>2026-04-27T16:48:07Z</time></trkpt><trkpt lat="42.633924366186875" lon="11.995801814271681"><ele>322.0</ele><time>2026-04-27T16:48:08Z</time></trkpt><trkpt lat="42.634105523940654" lon="11.995648272215965"><ele>318.0</ele><time>2026-04-27T16:48:09Z</time></trkpt><trkpt lat="42.63429304038634" lon="11.995494167908571"><ele>318.0</ele><time>2026-04-27T16:48:10Z</time></trkpt><trkpt lat="42.634461221650476" lon="11.99536431514216"><ele>318.0</ele><time>2026-04-27T16:48:11Z</time></trkpt><trkpt lat="42.63461983918642" lon="11.995261445312542"><ele>318.0</ele><time>2026-04-27T16:48:12Z</time></trkpt><trkpt lat="42.634766485093635" lon="11.995202203767695"><ele>319.0</ele><time>2026-04-27T16:48:13Z</time></trkpt><trkpt lat="42.63492942177611" lon="11.995142187262154"><ele>320.0</ele><time>2026-04-27T16:48:14Z</time></trkpt><trkpt lat="42.63510444636505" lon="11.995087522089198"><ele>321.0</ele><time>2026-04-27T16:48:15Z</time></trkpt><trkpt lat="42.635278080611194" lon="11.995037263538475"><ele>320.5</ele><time>2026-04-27T16:48:16Z</time></trkpt><trkpt lat="42.635464910531134" lon="11.994983185474663"><ele>320.0</ele><time>2026-04-27T16:48:17Z</time></trkpt><trkpt lat="42.6416719470262" lon="11.989870849588794"><ele>320.0</ele><time>2026-04-27T16:49:18Z</time></trkpt><trkpt lat="42.6418644595036" lon="11.989802638259453"><ele>320.0</ele><time>2026-04-27T16:49:29.001Z</time></trkpt><trkpt lat="42.64191475334754" lon="11.989737352183386"><ele>320.0</ele><time>2026-04-27T16:49:30.001Z</time></trkpt><trkpt lat="42.6419730995465" lon="11.989685384033388"><ele>320.0</ele><time>2026-04-27T16:49:31.001Z</time></trkpt><trkpt lat="42.6420377014853" lon="11.989634884393721"><ele>320.0</ele><time>2026-04-27T16:49:32.001Z</time></trkpt><trkpt lat="42.64211235931759" lon="11.989570752984942"><ele>320.5</ele><time>2026-04-27T16:49:33.001Z</time></trkpt><trkpt lat="42.642195548143846" lon="11.989511174707095"><ele>321.0</ele><time>2026-04-27T16:49:34.001Z</time></trkpt><trkpt lat="42.64227343728696" lon="11.989454930468312"><ele>321.5</ele><time>2026-04-27T16:49:35.001Z</time></trkpt><trkpt lat="42.642335812235366" lon="11.989398728663524"><ele>322.0</ele><time>2026-04-27T16:49:36.001Z</time></trkpt><trkpt lat="42.6424033708846" lon="11.989363406981774"><ele>322.5</ele><time>2026-04-27T16:49:37.001Z</time></trkpt><trkpt lat="42.642455072619185" lon="11.989310845262267"><ele>323.0</ele><time>2026-04-27T16:49:38.001Z</time></trkpt><trkpt lat="42.64255271054417" lon="11.989235152392595"><ele>323.0</ele><time>2026-04-27T16:49:40.001Z</time></trkpt><trkpt lat="42.64263175450591" lon="11.989181025727442"><ele>323.0</ele><time>2026-04-27T16:49:42.001Z</time></trkpt><trkpt lat="42.64269102434117" lon="11.98914254118786"><ele>323.0</ele><time>2026-04-27T16:49:44.001Z</time></trkpt><trkpt lat="42.64275947935098" lon="11.989100704473318"><ele>323.0</ele><time>2026-04-27T16:50:11Z</time></trkpt><trkpt lat="42.64285787742225" lon="11.989033965890073"><ele>323.0</ele><time>2026-04-27T16:50:13Z</time></trkpt><trkpt lat="42.64291990337999" lon="11.988992535941808"><ele>323.0</ele><time>2026-04-27T16:50:14Z</time></trkpt><trkpt lat="42.642985274569654" lon="11.988953619850518"><ele>323.6666666666667</ele><time>2026-04-27T16:50:15Z</time></trkpt><trkpt lat="42.643053326809394" lon="11.988917027125662"><ele>324.3333333333333</ele><time>2026-04-27T16:50:16Z</time></trkpt><trkpt lat="42.64312595295163" lon="11.98888041277923"><ele>325.0</ele><time>2026-04-27T16:50:17Z</time></trkpt><trkpt lat="42.64362604911315" lon="11.988933166699063"><ele>324.66666666666663</ele><time>2026-04-27T16:54:00.001Z</time></trkpt><trkpt lat="42.643730513411356" lon="11.98892795254853"><ele>324.3333333333333</ele><time>2026-04-27T17:04:16Z</time></trkpt><trkpt lat="42.64377587649682" lon="11.98899807501688"><ele>324.0</ele><time>2026-04-27T17:04:17Z</time></trkpt><trkpt lat="42.64442255419091" lon="11.986842250779462"><ele>324.0</ele><time>2026-04-27T17:06:26Z</time></trkpt><trkpt lat="42.644346368321536" lon="11.986769350916763"><ele>324.0</ele><time>2026-04-27T17:06:34Z</time></trkpt><trkpt lat="42.644282462769105" lon="11.986680476778108"><ele>324.0</ele><time>2026-04-27T17:06:36Z</time></trkpt><trkpt lat="42.64418358667307" lon="11.986543882110029"><ele>324.0</ele><time>2026-04-27T17:06:38Z</time></trkpt><trkpt lat="42.64412721928738" lon="11.986487071623866"><ele>324.0</ele><time>2026-04-27T17:06:39Z</time></trkpt><trkpt lat="42.64404231488606" lon="11.986382578709577"><ele>323.3333333333333</ele><time>2026-04-27T17:06:41Z</time></trkpt><trkpt lat="42.643952697601" lon="11.986259133154958"><ele>322.6666666666667</ele><time>2026-04-27T17:06:43Z</time></trkpt><trkpt lat="42.64389706470075" lon="11.986184024005016"><ele>322.0</ele><time>2026-04-27T17:06:44Z</time></trkpt><trkpt lat="42.643847095714925" lon="11.986110321160943"><ele>321.33333333333337</ele><time>2026-04-27T17:06:45Z</time></trkpt><trkpt lat="42.64378740943606" lon="11.986033553471648"><ele>320.6666666666667</ele><time>2026-04-27T17:06:46Z</time></trkpt><trkpt lat="42.643726227249935" lon="11.985955536311725"><ele>320.0</ele><time>2026-04-27T17:06:47Z</time></trkpt><trkpt lat="42.64367060887168" lon="11.985880880719883"><ele>319.33333333333337</ele><time>2026-04-27T17:06:48Z</time></trkpt><trkpt lat="42.643626142166795" lon="11.985812089705043"><ele>318.6666666666667</ele><time>2026-04-27T17:06:49Z</time></trkpt><trkpt lat="42.643552711008596" lon="11.985745010021398"><ele>318.0</ele><time>2026-04-27T17:06:51Z</time></trkpt><trkpt lat="42.64349966160499" lon="11.985660683536686"><ele>317.3333333333333</ele><time>2026-04-27T17:10:27Z</time></trkpt><trkpt lat="42.64341567445789" lon="11.985549113860216"><ele>316.66666666666663</ele><time>2026-04-27T17:10:29Z</time></trkpt><trkpt lat="42.64336742369172" lon="11.985479245802194"><ele>316.0</ele><time>2026-04-27T17:10:30Z</time></trkpt><trkpt lat="42.643309577174335" lon="11.985400640863942"><ele>316.0</ele><time>2026-04-27T17:10:31Z</time></trkpt><trkpt lat="42.643253632000416" lon="11.985336014268661"><ele>316.0</ele><time>2026-04-27T17:10:32Z</time></trkpt><trkpt lat="42.64319962991969" lon="11.985262136707858"><ele>316.0</ele><time>2026-04-27T17:10:33Z</time></trkpt><trkpt lat="42.643122020179305" lon="11.985167751558008"><ele>316.0</ele><time>2026-04-27T17:10:34Z</time></trkpt><trkpt lat="42.64305437840626" lon="11.985082279298707"><ele>316.0</ele><time>2026-04-27T17:10:35Z</time></trkpt><trkpt lat="42.642976927974516" lon="11.98497732677145"><ele>316.0</ele><time>2026-04-27T17:10:36Z</time></trkpt><trkpt lat="42.64289025115475" lon="11.984859477802003"><ele>316.0</ele><time>2026-04-27T17:10:37Z</time></trkpt><trkpt lat="42.64280852398753" lon="11.984756582061024"><ele>316.0</ele><time>2026-04-27T17:10:38Z</time></trkpt><trkpt lat="42.64272475538069" lon="11.984648952905035"><ele>316.0</ele><time>2026-04-27T17:10:39Z</time></trkpt><trkpt lat="42.64264839976591" lon="11.984553937146792"><ele>315.2</ele><time>2026-04-27T17:10:40Z</time></trkpt><trkpt lat="42.642573116668096" lon="11.984450219787119"><ele>314.40000000000003</ele><time>2026-04-27T17:10:41Z</time></trkpt><trkpt lat="42.64248907110589" lon="11.984344651858647"><ele>313.6</ele><time>2026-04-27T17:10:42Z</time></trkpt><trkpt lat="42.642402413478365" lon="11.9842472666817"><ele>312.8</ele><time>2026-04-27T17:10:43Z</time></trkpt><trkpt lat="42.64233648113159" lon="11.98417121482296"><ele>312.0</ele><time>2026-04-27T17:10:44Z</time></trkpt><trkpt lat="42.64228437451997" lon="11.984111954642323"><ele>312.0</ele><time>2026-04-27T17:10:45Z</time></trkpt><trkpt lat="42.64218344428574" lon="11.984159061628784"><ele>312.0</ele><time>2026-04-27T17:10:48Z</time></trkpt><trkpt lat="42.642130250826135" lon="11.984239543791418"><ele>312.0</ele><time>2026-04-27T17:10:49Z</time></trkpt><trkpt lat="42.642077665034115" lon="11.98431910600498"><ele>312.0</ele><time>2026-04-27T17:10:50Z</time></trkpt><trkpt lat="42.642018826844925" lon="11.984408715778086"><ele>312.0</ele><time>2026-04-27T17:10:51Z</time></trkpt><trkpt lat="42.641958687224665" lon="11.984503442910649"><ele>312.0</ele><time>2026-04-27T17:10:52Z</time></trkpt><trkpt lat="42.64189389132437" lon="11.984620893761766"><ele>311.4</ele><time>2026-04-27T17:10:53Z</time></trkpt><trkpt lat="42.64182354478445" lon="11.984728429777498"><ele>310.79999999999995</ele><time>2026-04-27T17:10:54Z</time></trkpt><trkpt lat="42.64175584913459" lon="11.984822055230307"><ele>310.2</ele><time>2026-04-27T17:10:55Z</time></trkpt><trkpt lat="42.64169417739761" lon="11.984905816202877"><ele>309.59999999999997</ele><time>2026-04-27T17:10:56Z</time></trkpt><trkpt lat="42.64163971560947" lon="11.984998798675706"><ele>309.0</ele><time>2026-04-27T17:10:57Z</time></trkpt><trkpt lat="42.64158352947276" lon="11.985085581692756"><ele>309.0</ele><time>2026-04-27T17:10:58Z</time></trkpt><trkpt lat="42.641532450861185" lon="11.985166820282027"><ele>309.0</ele><time>2026-04-27T17:10:59Z</time></trkpt><trkpt lat="42.64149251068392" lon="11.98524590343594"><ele>309.0</ele><time>2026-04-27T17:11:00Z</time></trkpt><trkpt lat="42.641412253606795" lon="11.985342732301678"><ele>309.0</ele><time>2026-04-27T17:11:02Z</time></trkpt><trkpt lat="42.64134863654363" lon="11.98538091678522"><ele>309.0</ele><time>2026-04-27T17:11:03Z</time></trkpt><trkpt lat="42.641254370085186" lon="11.985383371029354"><ele>309.0</ele><time>2026-04-27T17:11:04Z</time></trkpt><trkpt lat="42.64117370322805" lon="11.985440625560985"><ele>309.2</ele><time>2026-04-27T17:11:05Z</time></trkpt><trkpt lat="42.64109903630499" lon="11.985460250770531"><ele>309.4</ele><time>2026-04-27T17:11:06Z</time></trkpt><trkpt lat="42.64097952769705" lon="11.985496755719511"><ele>309.6</ele><time>2026-04-27T17:11:08Z</time></trkpt><trkpt lat="42.640885260087124" lon="11.985500279361185"><ele>309.8</ele><time>2026-04-27T17:11:09Z</time></trkpt><trkpt lat="42.64077614056287" lon="11.98549119854844"><ele>310.0</ele><time>2026-04-27T17:11:10Z</time></trkpt><trkpt lat="42.64065880401349" lon="11.985485670117047"><ele>310.0</ele><time>2026-04-27T17:11:11Z</time></trkpt><trkpt lat="42.640557081248375" lon="11.985492318787635"><ele>310.0</ele><time>2026-04-27T17:11:12Z</time></trkpt><trkpt lat="42.64047308341412" lon="11.985517320626078"><ele>310.0</ele><time>2026-04-27T17:11:13Z</time></trkpt><trkpt lat="42.640406868708524" lon="11.98558887624167"><ele>310.0</ele><time>2026-04-27T17:11:14Z</time></trkpt><trkpt lat="42.640321446252294" lon="11.985684483076472"><ele>310.0</ele><time>2026-04-27T17:11:15Z</time></trkpt><trkpt lat="42.64023003490717" lon="11.985791042527493"><ele>310.0</ele><time>2026-04-27T17:11:16Z</time></trkpt><trkpt lat="42.64013361033071" lon="11.985900984192975"><ele>310.0</ele><time>2026-04-27T17:11:17Z</time></trkpt><trkpt lat="42.64296707712838" lon="11.987756347412386"><ele>312.0</ele><time>2026-04-27T17:12:18Z</time></trkpt><trkpt lat="42.64307116137859" lon="11.987641975800086"><ele>314.0</ele><time>2026-04-27T17:12:19Z</time></trkpt><trkpt lat="42.64318439232511" lon="11.98752468490921"><ele>316.0</ele><time>2026-04-27T17:12:20Z</time></trkpt><trkpt lat="42.643297418325616" lon="11.987405238959617"><ele>318.0</ele><time>2026-04-27T17:12:21Z</time></trkpt><trkpt lat="42.64341457996178" lon="11.987279566536154"><ele>318.0</ele><time>2026-04-27T17:12:22Z</time></trkpt><trkpt lat="42.64353237154899" lon="11.987153386792398"><ele>318.0</ele><time>2026-04-27T17:12:23Z</time></trkpt><trkpt lat="42.64364775127046" lon="11.987042277744873"><ele>318.0</ele><time>2026-04-27T17:12:24Z</time></trkpt><trkpt lat="42.64375582119134" lon="11.986927290488467"><ele>318.0</ele><time>2026-04-27T17:12:25Z</time></trkpt><trkpt lat="42.64386332828988" lon="11.986805887302054"><ele>318.4</ele><time>2026-04-27T17:12:26Z</time></trkpt><trkpt lat="42.64396088466074" lon="11.986700767574263"><ele>318.8</ele><time>2026-04-27T17:12:27Z</time></trkpt><trkpt lat="42.64403418526312" lon="11.986615099713847"><ele>319.2</ele><time>2026-04-27T17:12:28Z</time></trkpt><trkpt lat="42.64409131414764" lon="11.986539099746004"><ele>319.6</ele><time>2026-04-27T17:12:29Z</time></trkpt><trkpt lat="42.644199012644776" lon="11.986498460566587"><ele>320.0</ele><time>2026-04-27T17:12:31Z</time></trkpt><trkpt lat="42.64420386682718" lon="11.986622485184085"><ele>320.6666666666667</ele><time>2026-04-27T17:12:32Z</time></trkpt><trkpt lat="42.64425258593973" lon="11.986687090467768"><ele>321.33333333333337</ele><time>2026-04-27T17:12:33Z</time></trkpt><trkpt lat="42.6443026815764" lon="11.98676904103698"><ele>322.0</ele><time>2026-04-27T17:12:34Z</time></trkpt><trkpt lat="42.6443683246355" lon="11.98687750249819"><ele>322.6666666666667</ele><time>2026-04-27T17:12:35Z</time></trkpt><trkpt lat="42.64442402577649" lon="11.986969537383896"><ele>323.3333333333333</ele><time>2026-04-27T17:12:36Z</time></trkpt><trkpt lat="42.644473552985446" lon="11.987053638304062"><ele>324.0</ele><time>2026-04-27T17:12:37Z</time></trkpt><trkpt lat="42.64451222579808" lon="11.987139319799448"><ele>324.6</ele><time>2026-04-27T17:12:38Z</time></trkpt><trkpt lat="42.644515347037256" lon="11.987290066665054"><ele>325.2</ele><time>2026-04-27T17:12:40Z</time></trkpt><trkpt lat="42.644470497285916" lon="11.987450580498127"><ele>325.8</ele><time>2026-04-27T17:12:42Z</time></trkpt><trkpt lat="42.64445733792041" lon="11.987561107635468"><ele>326.40000000000003</ele><time>2026-04-27T17:12:43Z</time></trkpt><trkpt lat="42.64442610415712" lon="11.987681608203559"><ele>327.0</ele><time>2026-04-27T17:12:44Z</time></trkpt><trkpt lat="42.644401261195505" lon="11.987801702284699"><ele>327.0</ele><time>2026-04-27T17:12:45Z</time></trkpt><trkpt lat="42.644411830175926" lon="11.98790740407436"><ele>327.0</ele><time>2026-04-27T17:12:46Z</time></trkpt><trkpt lat="42.64448079593255" lon="11.987996182451475"><ele>327.0</ele><time>2026-04-27T17:12:47Z</time></trkpt><trkpt lat="42.64454780497171" lon="11.988064141232057"><ele>327.0</ele><time>2026-04-27T17:12:48Z</time></trkpt><trkpt lat="42.64463535202356" lon="11.988088401094684"><ele>327.0</ele><time>2026-04-27T17:12:49Z</time></trkpt><trkpt lat="42.64473136144213" lon="11.98806661253424"><ele>327.0</ele><time>2026-04-27T17:12:50Z</time></trkpt><trkpt lat="42.64481537193603" lon="11.987959971939413"><ele>329.5</ele><time>2026-04-27T17:12:51Z</time></trkpt><trkpt lat="42.64489352273043" lon="11.98785472228849"><ele>332.0</ele><time>2026-04-27T17:12:52Z</time></trkpt><trkpt lat="42.64499427388964" lon="11.98776067513048"><ele>334.5</ele><time>2026-04-27T17:12:53Z</time></trkpt><trkpt lat="42.645095931923954" lon="11.987659248314165"><ele>337.0</ele><time>2026-04-27T17:12:54Z</time></trkpt><trkpt lat="42.64517874444675" lon="11.987560561321978"><ele>337.0</ele><time>2026-04-27T17:12:55Z</time></trkpt><trkpt lat="42.64526585335104" lon="11.987540851339501"><ele>337.0</ele><time>2026-04-27T17:12:56Z</time></trkpt><trkpt lat="42.645337105620094" lon="11.987564457351452"><ele>337.0</ele><time>2026-04-27T17:12:57Z</time></trkpt><trkpt lat="42.64539173977343" lon="11.987609162926253"><ele>337.0</ele><time>2026-04-27T17:12:58Z</time></trkpt><trkpt lat="42.645403559502775" lon="11.987699223420716"><ele>337.0</ele><time>2026-04-27T17:12:59Z</time></trkpt><trkpt lat="42.64543373033676" lon="11.987800964065107"><ele>337.0</ele><time>2026-04-27T17:13:00Z</time></trkpt><trkpt lat="42.645488565815086" lon="11.98790249095472"><ele>338.6</ele><time>2026-04-27T17:13:01Z</time></trkpt><trkpt lat="42.645586733363636" lon="11.987956572705839"><ele>340.20000000000005</ele><time>2026-04-27T17:13:02Z</time></trkpt><trkpt lat="42.64569315005109" lon="11.987961191885459"><ele>341.8</ele><time>2026-04-27T17:13:03Z</time></trkpt><trkpt lat="42.64575697848081" lon="11.987931124471407"><ele>343.4</ele><time>2026-04-27T17:13:04Z</time></trkpt><trkpt lat="42.64579934512477" lon="11.987791272791522"><ele>345.0</ele><time>2026-04-27T17:13:06Z</time></trkpt><trkpt lat="42.64580194574851" lon="11.987698012303156"><ele>345.0</ele><time>2026-04-27T17:13:07Z</time></trkpt><trkpt lat="42.64579114870824" lon="11.987585121254883"><ele>345.0</ele><time>2026-04-27T17:13:08Z</time></trkpt><trkpt lat="42.64578028441519" lon="11.987435846117874"><ele>345.0</ele><time>2026-04-27T17:13:09Z</time></trkpt><trkpt lat="42.645784821198234" lon="11.987306187664844"><ele>345.0</ele><time>2026-04-27T17:13:10Z</time></trkpt><trkpt lat="42.645822511653286" lon="11.98722333945997"><ele>345.0</ele><time>2026-04-27T17:13:11Z</time></trkpt><trkpt lat="42.64588724478376" lon="11.98718346393692"><ele>345.0</ele><time>2026-04-27T17:13:12Z</time></trkpt><trkpt lat="42.64598989032164" lon="11.98723488427398"><ele>345.0</ele><time>2026-04-27T17:13:13Z</time></trkpt><trkpt lat="42.646064396934044" lon="11.9872965819904"><ele>345.0</ele><time>2026-04-27T17:13:14Z</time></trkpt><trkpt lat="42.6461022233695" lon="11.987401482997864"><ele>345.0</ele><time>2026-04-27T17:13:15Z</time></trkpt><trkpt lat="42.64608727580506" lon="11.987505494264989"><ele>345.0</ele><time>2026-04-27T17:13:16Z</time></trkpt><trkpt lat="42.64606488126614" lon="11.987652567259628"><ele>345.0</ele><time>2026-04-27T17:13:17Z</time></trkpt><trkpt lat="42.646275187118086" lon="11.985815017892344"><ele>345.5</ele><time>2026-04-27T17:14:18Z</time></trkpt><trkpt lat="42.646308229435796" lon="11.985735027412543"><ele>346.0</ele><time>2026-04-27T17:14:31Z</time></trkpt><trkpt lat="42.64632677708927" lon="11.985650038409117"><ele>346.5</ele><time>2026-04-27T17:14:40Z</time></trkpt><trkpt lat="42.64611356788443" lon="11.985724048566416"><ele>347.0</ele><time>2026-04-27T17:19:18Z</time></trkpt><trkpt lat="42.64613444468874" lon="11.985309903945424"><ele>346.2857142857143</ele><time>2026-04-27T17:24:18Z</time></trkpt><trkpt lat="42.64613303964365" lon="11.985400530515658"><ele>345.57142857142856</ele><time>2026-04-27T17:24:33Z</time></trkpt><trkpt lat="42.64616691406563" lon="11.985475490572796"><ele>344.85714285714283</ele><time>2026-04-27T17:24:38Z</time></trkpt><trkpt lat="42.6462042909046" lon="11.985559091481438"><ele>344.1428571428571</ele><time>2026-04-27T17:24:43Z</time></trkpt><trkpt lat="42.64623832154235" lon="11.98563992449903"><ele>343.42857142857144</ele><time>2026-04-27T17:24:48Z</time></trkpt><trkpt lat="42.64625710004357" lon="11.985731366719193"><ele>342.71428571428567</ele><time>2026-04-27T17:24:54Z</time></trkpt><trkpt lat="42.6462713871053" lon="11.985817413838374"><ele>342.0</ele><time>2026-04-27T17:25:05Z</time></trkpt><trkpt lat="42.64576379280173" lon="11.987351394554974"><ele>342.0</ele><time>2026-04-27T17:28:18Z</time></trkpt><trkpt lat="42.64576406496831" lon="11.987457643966469"><ele>342.0</ele><time>2026-04-27T17:28:42Z</time></trkpt><trkpt lat="42.64577122429632" lon="11.987575173941897"><ele>342.0</ele><time>2026-04-27T17:28:44Z</time></trkpt><trkpt lat="42.645794742790684" lon="11.987682912653943"><ele>342.0</ele><time>2026-04-27T17:28:46Z</time></trkpt><trkpt lat="42.6457733260304" lon="11.987768930021488"><ele>342.0</ele><time>2026-04-27T17:28:48Z</time></trkpt><trkpt lat="42.64575829631898" lon="11.987866742375715"><ele>342.0</ele><time>2026-04-27T17:28:51Z</time></trkpt><trkpt lat="42.645649153555006" lon="11.987913042718608"><ele>342.4285714285714</ele><time>2026-04-27T17:28:53Z</time></trkpt><trkpt lat="42.64558640453243" lon="11.987903847292174"><ele>342.85714285714283</ele><time>2026-04-27T17:28:54Z</time></trkpt><trkpt lat="42.64552708460373" lon="11.98786252807794"><ele>343.2857142857143</ele><time>2026-04-27T17:28:55Z</time></trkpt><trkpt lat="42.645472174793724" lon="11.987793863289019"><ele>343.71428571428567</ele><time>2026-04-27T17:28:56Z</time></trkpt><trkpt lat="42.64542746855073" lon="11.987697931434004"><ele>344.1428571428571</ele><time>2026-04-27T17:28:57Z</time></trkpt><trkpt lat="42.64537929024928" lon="11.98761130973862"><ele>344.57142857142856</ele><time>2026-04-27T17:28:58Z</time></trkpt><trkpt lat="42.6453245866853" lon="11.987530964334324"><ele>345.0</ele><time>2026-04-27T17:28:59Z</time></trkpt><trkpt lat="42.64523994153682" lon="11.987535953236147"><ele>343.6666666666667</ele><time>2026-04-27T17:29:00Z</time></trkpt><trkpt lat="42.64517339852975" lon="11.987561432968612"><ele>342.3333333333333</ele><time>2026-04-27T17:29:01Z</time></trkpt><trkpt lat="42.64510396625552" lon="11.98759595599373"><ele>341.0</ele><time>2026-04-27T17:29:02Z</time></trkpt><trkpt lat="42.645040792956834" lon="11.987651687452779"><ele>339.66666666666663</ele><time>2026-04-27T17:29:03Z</time></trkpt><trkpt lat="42.64497420131931" lon="11.987724605696718"><ele>338.3333333333333</ele><time>2026-04-27T17:29:04Z</time></trkpt><trkpt lat="42.644903356463544" lon="11.987804638261629"><ele>337.0</ele><time>2026-04-27T17:29:05Z</time></trkpt><trkpt lat="42.64482345157961" lon="11.987894905745156"><ele>337.0</ele><time>2026-04-27T17:29:06Z</time></trkpt><trkpt lat="42.644752114933915" lon="11.987972011452914"><ele>337.0</ele><time>2026-04-27T17:29:07Z</time></trkpt><trkpt lat="42.64469051249549" lon="11.988019316553174"><ele>337.0</ele><time>2026-04-27T17:29:08Z</time></trkpt><trkpt lat="42.6445648897074" lon="11.98802908020647"><ele>337.0</ele><time>2026-04-27T17:29:10Z</time></trkpt><trkpt lat="42.64450180870795" lon="11.987969337281207"><ele>337.0</ele><time>2026-04-27T17:29:11Z</time></trkpt><trkpt lat="42.644457038214604" lon="11.987890305553403"><ele>337.0</ele><time>2026-04-27T17:29:12Z</time></trkpt><trkpt lat="42.64443792658038" lon="11.987797160627336"><ele>337.0</ele><time>2026-04-27T17:29:13Z</time></trkpt><trkpt lat="42.64444414409913" lon="11.987699668015594"><ele>337.0</ele><time>2026-04-27T17:29:14Z</time></trkpt><trkpt lat="42.64446496624446" lon="11.987606110790322"><ele>337.0</ele><time>2026-04-27T17:29:15Z</time></trkpt><trkpt lat="42.6444934526159" lon="11.987514702286271"><ele>337.0</ele><time>2026-04-27T17:29:16Z</time></trkpt><trkpt lat="42.64451879339421" lon="11.987433908016039"><ele>337.0</ele><time>2026-04-27T17:29:17Z</time></trkpt><trkpt lat="42.64263756225121" lon="11.989188252255842"><ele>335.0</ele><time>2026-04-27T17:30:18.999Z</time></trkpt><trkpt lat="42.64269838313821" lon="11.989143663424924"><ele>333.0</ele><time>2026-04-27T17:30:22.999Z</time></trkpt><trkpt lat="42.642749900943514" lon="11.989083656383414"><ele>331.0</ele><time>2026-04-27T17:30:24.999Z</time></trkpt><trkpt lat="42.64283161813681" lon="11.989051507172308"><ele>329.0</ele><time>2026-04-27T17:30:27.999Z</time></trkpt><trkpt lat="42.64288955425521" lon="11.989012809175707"><ele>327.0</ele><time>2026-04-27T17:30:30.999Z</time></trkpt><trkpt lat="42.642950275361066" lon="11.988950835942322"><ele>325.0</ele><time>2026-04-27T17:30:35.999Z</time></trkpt><trkpt lat="42.643036595897335" lon="11.988926140812685"><ele>325.0</ele><time>2026-04-27T17:30:38.999Z</time></trkpt><trkpt lat="42.64309815320832" lon="11.988893895124802"><ele>325.0</ele><time>2026-04-27T17:30:41.999Z</time></trkpt><trkpt lat="42.643167369387584" lon="11.988860330665572"><ele>325.0</ele><time>2026-04-27T17:30:45Z</time></trkpt><trkpt lat="42.64325908663081" lon="11.988827846553667"><ele>325.0</ele><time>2026-04-27T17:30:47Z</time></trkpt><trkpt lat="42.64336772501378" lon="11.988807147520822"><ele>325.0</ele><time>2026-04-27T17:30:49Z</time></trkpt><trkpt lat="42.64347969725896" lon="11.988781850748872"><ele>325.0</ele><time>2026-04-27T17:30:51Z</time></trkpt><trkpt lat="42.64356369967304" lon="11.988842596680746"><ele>325.0</ele><time>2026-04-27T17:30:53Z</time></trkpt><trkpt lat="42.64365735650153" lon="11.988896864928574"><ele>325.0</ele><time>2026-04-27T17:30:56Z</time></trkpt><trkpt lat="42.64379630928659" lon="11.988791518297786"><ele>325.0</ele><time>2026-04-27T17:30:59Z</time></trkpt><trkpt lat="42.64386326194901" lon="11.988679478016218"><ele>325.3333333333333</ele><time>2026-04-27T17:31:00Z</time></trkpt><trkpt lat="42.64392614168686" lon="11.988576519673224"><ele>325.66666666666663</ele><time>2026-04-27T17:31:01Z</time></trkpt><trkpt lat="42.643982857816574" lon="11.988478333596419"><ele>326.0</ele><time>2026-04-27T17:31:02Z</time></trkpt><trkpt lat="42.64403303320921" lon="11.988389889613265"><ele>326.3333333333333</ele><time>2026-04-27T17:31:03Z</time></trkpt><trkpt lat="42.64410931790731" lon="11.98832462048525"><ele>326.6666666666667</ele><time>2026-04-27T17:31:04Z</time></trkpt><trkpt lat="42.64416412112394" lon="11.98823972743659"><ele>327.0</ele><time>2026-04-27T17:31:05Z</time></trkpt><trkpt lat="42.64422143808474" lon="11.988173227008962"><ele>327.0</ele><time>2026-04-27T17:31:06Z</time></trkpt><trkpt lat="42.64428027108465" lon="11.988115242631428"><ele>327.0</ele><time>2026-04-27T17:31:07Z</time></trkpt><trkpt lat="42.64434588738665" lon="11.98802724814795"><ele>327.0</ele><time>2026-04-27T17:31:09Z</time></trkpt><trkpt lat="42.64440002896598" lon="11.98794178939032"><ele>327.0</ele><time>2026-04-27T17:31:11Z</time></trkpt><trkpt lat="42.644456609807634" lon="11.987852480060448"><ele>327.0</ele><time>2026-04-27T17:31:14Z</time></trkpt><trkpt lat="42.64443736725362" lon="11.98768537770892"><ele>327.6666666666667</ele><time>2026-04-27T17:31:15Z</time></trkpt><trkpt lat="42.64447409588786" lon="11.987581682913644"><ele>328.33333333333337</ele><time>2026-04-27T17:31:16Z</time></trkpt><trkpt lat="42.64450132592212" lon="11.987468056356779"><ele>329.0</ele><time>2026-04-27T17:31:17Z</time></trkpt><trkpt lat="42.64422427686542" lon="11.986294289816843"><ele>327.2</ele><time>2026-04-27T17:32:17.999Z</time></trkpt><trkpt lat="42.64426558675379" lon="11.986128338553508"><ele>325.4</ele><time>2026-04-27T17:32:19.999Z</time></trkpt><trkpt lat="42.64428953441658" lon="11.986024333289476"><ele>323.6</ele><time>2026-04-27T17:32:20.999Z</time></trkpt><trkpt lat="42.644314513530134" lon="11.985945216595917"><ele>321.8</ele><time>2026-04-27T17:32:21.999Z</time></trkpt><trkpt lat="42.64434909279175" lon="11.985820904292655"><ele>320.0</ele><time>2026-04-27T17:32:23.999Z</time></trkpt><trkpt lat="42.64438331440952" lon="11.98571903055428"><ele>319.6666666666667</ele><time>2026-04-27T17:32:25.999Z</time></trkpt><trkpt lat="42.644440172825306" lon="11.985610732221899"><ele>319.33333333333337</ele><time>2026-04-27T17:32:27.999Z</time></trkpt><trkpt lat="42.64448208884116" lon="11.985545360011097"><ele>319.0</ele><time>2026-04-27T17:32:28.999Z</time></trkpt><trkpt lat="42.64453068707362" lon="11.985475926269855"><ele>318.6666666666667</ele><time>2026-04-27T17:32:29.999Z</time></trkpt><trkpt lat="42.644585234282935" lon="11.985397974421275"><ele>318.3333333333333</ele><time>2026-04-27T17:32:30.999Z</time></trkpt><trkpt lat="42.644645190864935" lon="11.985318220818193"><ele>318.0</ele><time>2026-04-27T17:32:32Z</time></trkpt><trkpt lat="42.64471021028681" lon="11.985232455390575"><ele>317.8</ele><time>2026-04-27T17:32:33Z</time></trkpt><trkpt lat="42.64477622714126" lon="11.985146349042596"><ele>317.6</ele><time>2026-04-27T17:32:34Z</time></trkpt><trkpt lat="42.64484932623999" lon="11.985066670546779"><ele>317.4</ele><time>2026-04-27T17:32:35Z</time></trkpt><trkpt lat="42.644931167839275" lon="11.984992553927551"><ele>317.2</ele><time>2026-04-27T17:32:36Z</time></trkpt><trkpt lat="42.644996906511196" lon="11.984895797790713"><ele>317.0</ele><time>2026-04-27T17:32:37Z</time></trkpt><trkpt lat="42.645057128907375" lon="11.984796508378913"><ele>317.0</ele><time>2026-04-27T17:32:38Z</time></trkpt><trkpt lat="42.645111597868734" lon="11.984655421670471"><ele>317.0</ele><time>2026-04-27T17:32:39Z</time></trkpt><trkpt lat="42.645154982394146" lon="11.984557661696194"><ele>317.0</ele><time>2026-04-27T17:32:40Z</time></trkpt><trkpt lat="42.6449080544424" lon="11.984268362470756"><ele>317.0</ele><time>2026-04-27T17:32:41Z</time></trkpt><trkpt lat="42.64484741322734" lon="11.984422304979232"><ele>317.0</ele><time>2026-04-27T17:32:42Z</time></trkpt><trkpt lat="42.64477338237123" lon="11.984389664520437"><ele>317.0</ele><time>2026-04-27T17:32:43Z</time></trkpt><trkpt lat="42.64481512110025" lon="11.983950317860328"><ele>314.0</ele><time>2026-04-27T17:32:44Z</time></trkpt><trkpt lat="42.644782670700216" lon="11.983865908543816"><ele>314.0</ele><time>2026-04-27T17:32:46Z</time></trkpt><trkpt lat="42.64470949216919" lon="11.983947515520907"><ele>314.0</ele><time>2026-04-27T17:32:47Z</time></trkpt><trkpt lat="42.644729860067265" lon="11.984119838067693"><ele>314.0</ele><time>2026-04-27T17:32:48Z</time></trkpt></trkseg></trk></gpx>